<?xml version="1.0" encoding="UTF-8" standalone="no" ?>
<gpx xmlns="http://www.topografix.com/GPX/1/1" xmlns:xsi="http://www.w3.org/2001/XMLSchema-instance" xsi:schemaLocation="http://www.topografix.com/GPX/1/1 http://www.topografix.com/GPX/1/1/gpx.xsd" version="1.1" creator="VisuGPX - https://www.visugpx.com">
  <metadata>
    <name>2015-10-17_18 WE dans le Vercors organisé par WillHO3</name>
    <desc><![CDATA[2015-10-17_18 WE dans le Vercors organisé par WillHO3]]></desc>
  </metadata>
  <trk>
    <name><![CDATA[2015-10-17_18 WE dans le Vercors organisé par WillHO3_1]]></name>
    <trkseg>
      <trkpt lat="43.62437" lon="3.83645">
        <ele>76.6</ele>
        <time>2015-10-17T05:55:29Z</time>
      </trkpt>
      <trkpt lat="43.62431" lon="3.83646">
        <ele>77</ele>
        <time>2015-10-17T05:55:48Z</time>
      </trkpt>
      <trkpt lat="43.62426" lon="3.83647">
        <ele>77</ele>
        <time>2015-10-17T05:55:49Z</time>
      </trkpt>
      <trkpt lat="43.6242" lon="3.83651">
        <ele>77.5</ele>
        <time>2015-10-17T05:55:50Z</time>
      </trkpt>
      <trkpt lat="43.62416" lon="3.83656">
        <ele>77</ele>
        <time>2015-10-17T05:55:51Z</time>
      </trkpt>
      <trkpt lat="43.62413" lon="3.83662">
        <ele>77.5</ele>
        <time>2015-10-17T05:55:52Z</time>
      </trkpt>
      <trkpt lat="43.62411" lon="3.83669">
        <ele>78</ele>
        <time>2015-10-17T05:55:53Z</time>
      </trkpt>
      <trkpt lat="43.6241" lon="3.83677">
        <ele>78.5</ele>
        <time>2015-10-17T05:55:54Z</time>
      </trkpt>
      <trkpt lat="43.62412" lon="3.83684">
        <ele>78.5</ele>
        <time>2015-10-17T05:55:55Z</time>
      </trkpt>
      <trkpt lat="43.62416" lon="3.8369">
        <ele>78.5</ele>
        <time>2015-10-17T05:55:56Z</time>
      </trkpt>
      <trkpt lat="43.62421" lon="3.83694">
        <ele>78</ele>
        <time>2015-10-17T05:55:57Z</time>
      </trkpt>
      <trkpt lat="43.62426" lon="3.83695">
        <ele>77.5</ele>
        <time>2015-10-17T05:55:58Z</time>
      </trkpt>
      <trkpt lat="43.62433" lon="3.83695">
        <ele>77</ele>
        <time>2015-10-17T05:55:59Z</time>
      </trkpt>
      <trkpt lat="43.62439" lon="3.83691">
        <ele>76.6</ele>
        <time>2015-10-17T05:56:00Z</time>
      </trkpt>
      <trkpt lat="43.62445" lon="3.83685">
        <ele>76.6</ele>
        <time>2015-10-17T05:56:01Z</time>
      </trkpt>
      <trkpt lat="43.62451" lon="3.83679">
        <ele>76.1</ele>
        <time>2015-10-17T05:56:02Z</time>
      </trkpt>
      <trkpt lat="43.62457" lon="3.83675">
        <ele>76.1</ele>
        <time>2015-10-17T05:56:03Z</time>
      </trkpt>
      <trkpt lat="43.62464" lon="3.83673">
        <ele>76.1</ele>
        <time>2015-10-17T05:56:04Z</time>
      </trkpt>
      <trkpt lat="43.62471" lon="3.83672">
        <ele>76.1</ele>
        <time>2015-10-17T05:56:05Z</time>
      </trkpt>
      <trkpt lat="43.62475" lon="3.83672">
        <ele>76.1</ele>
        <time>2015-10-17T05:56:06Z</time>
      </trkpt>
      <trkpt lat="43.62486" lon="3.83676">
        <ele>75.1</ele>
        <time>2015-10-17T05:56:17Z</time>
      </trkpt>
      <trkpt lat="43.62493" lon="3.83681">
        <ele>74.6</ele>
        <time>2015-10-17T05:56:18Z</time>
      </trkpt>
      <trkpt lat="43.62502" lon="3.83687">
        <ele>74.6</ele>
        <time>2015-10-17T05:56:19Z</time>
      </trkpt>
      <trkpt lat="43.62511" lon="3.8369">
        <ele>74.2</ele>
        <time>2015-10-17T05:56:20Z</time>
      </trkpt>
      <trkpt lat="43.62521" lon="3.83691">
        <ele>74.2</ele>
        <time>2015-10-17T05:56:21Z</time>
      </trkpt>
      <trkpt lat="43.62531" lon="3.83689">
        <ele>73.7</ele>
        <time>2015-10-17T05:56:22Z</time>
      </trkpt>
      <trkpt lat="43.6254" lon="3.83684">
        <ele>73.7</ele>
        <time>2015-10-17T05:56:23Z</time>
      </trkpt>
      <trkpt lat="43.62549" lon="3.83676">
        <ele>73.7</ele>
        <time>2015-10-17T05:56:24Z</time>
      </trkpt>
      <trkpt lat="43.62556" lon="3.83667">
        <ele>73.2</ele>
        <time>2015-10-17T05:56:25Z</time>
      </trkpt>
      <trkpt lat="43.62561" lon="3.83655">
        <ele>72.2</ele>
        <time>2015-10-17T05:56:26Z</time>
      </trkpt>
      <trkpt lat="43.62564" lon="3.83636">
        <ele>71.8</ele>
        <time>2015-10-17T05:56:27Z</time>
      </trkpt>
      <trkpt lat="43.62557" lon="3.83608">
        <ele>72.2</ele>
        <time>2015-10-17T05:56:29Z</time>
      </trkpt>
      <trkpt lat="43.62547" lon="3.83595">
        <ele>72.2</ele>
        <time>2015-10-17T05:56:30Z</time>
      </trkpt>
      <trkpt lat="43.62539" lon="3.83582">
        <ele>71.8</ele>
        <time>2015-10-17T05:56:31Z</time>
      </trkpt>
      <trkpt lat="43.62528" lon="3.83573">
        <ele>71.8</ele>
        <time>2015-10-17T05:56:32Z</time>
      </trkpt>
      <trkpt lat="43.62517" lon="3.83562">
        <ele>72.2</ele>
        <time>2015-10-17T05:56:33Z</time>
      </trkpt>
      <trkpt lat="43.62507" lon="3.83546">
        <ele>72.7</ele>
        <time>2015-10-17T05:56:34Z</time>
      </trkpt>
      <trkpt lat="43.62499" lon="3.83529">
        <ele>73.2</ele>
        <time>2015-10-17T05:56:35Z</time>
      </trkpt>
      <trkpt lat="43.62492" lon="3.8351">
        <ele>73.7</ele>
        <time>2015-10-17T05:56:36Z</time>
      </trkpt>
      <trkpt lat="43.62475" lon="3.83476">
        <ele>74.2</ele>
        <time>2015-10-17T05:56:38Z</time>
      </trkpt>
      <trkpt lat="43.62465" lon="3.8346">
        <ele>74.2</ele>
        <time>2015-10-17T05:56:39Z</time>
      </trkpt>
      <trkpt lat="43.62453" lon="3.83445">
        <ele>74.2</ele>
        <time>2015-10-17T05:56:40Z</time>
      </trkpt>
      <trkpt lat="43.62441" lon="3.83432">
        <ele>74.2</ele>
        <time>2015-10-17T05:56:41Z</time>
      </trkpt>
      <trkpt lat="43.62428" lon="3.83419">
        <ele>73.7</ele>
        <time>2015-10-17T05:56:42Z</time>
      </trkpt>
      <trkpt lat="43.62414" lon="3.83409">
        <ele>73.7</ele>
        <time>2015-10-17T05:56:43Z</time>
      </trkpt>
      <trkpt lat="43.624" lon="3.834">
        <ele>73.2</ele>
        <time>2015-10-17T05:56:44Z</time>
      </trkpt>
      <trkpt lat="43.62386" lon="3.83394">
        <ele>73.7</ele>
        <time>2015-10-17T05:56:45Z</time>
      </trkpt>
      <trkpt lat="43.62361" lon="3.83379">
        <ele>74.6</ele>
        <time>2015-10-17T05:56:47Z</time>
      </trkpt>
      <trkpt lat="43.62352" lon="3.8337">
        <ele>74.2</ele>
        <time>2015-10-17T05:56:48Z</time>
      </trkpt>
      <trkpt lat="43.62346" lon="3.83358">
        <ele>74.6</ele>
        <time>2015-10-17T05:56:49Z</time>
      </trkpt>
      <trkpt lat="43.62341" lon="3.83344">
        <ele>74.6</ele>
        <time>2015-10-17T05:56:50Z</time>
      </trkpt>
      <trkpt lat="43.62335" lon="3.83332">
        <ele>74.6</ele>
        <time>2015-10-17T05:56:51Z</time>
      </trkpt>
      <trkpt lat="43.62326" lon="3.83324">
        <ele>74.6</ele>
        <time>2015-10-17T05:56:52Z</time>
      </trkpt>
      <trkpt lat="43.62315" lon="3.83322">
        <ele>74.6</ele>
        <time>2015-10-17T05:56:53Z</time>
      </trkpt>
      <trkpt lat="43.62304" lon="3.83326">
        <ele>74.2</ele>
        <time>2015-10-17T05:56:54Z</time>
      </trkpt>
      <trkpt lat="43.62294" lon="3.83335">
        <ele>74.2</ele>
        <time>2015-10-17T05:56:55Z</time>
      </trkpt>
      <trkpt lat="43.62288" lon="3.83347">
        <ele>74.2</ele>
        <time>2015-10-17T05:56:56Z</time>
      </trkpt>
      <trkpt lat="43.62284" lon="3.83363">
        <ele>74.2</ele>
        <time>2015-10-17T05:56:57Z</time>
      </trkpt>
      <trkpt lat="43.62282" lon="3.83377">
        <ele>74.2</ele>
        <time>2015-10-17T05:56:58Z</time>
      </trkpt>
      <trkpt lat="43.62286" lon="3.83394">
        <ele>75.1</ele>
        <time>2015-10-17T05:56:59Z</time>
      </trkpt>
      <trkpt lat="43.62287" lon="3.83411">
        <ele>75.1</ele>
        <time>2015-10-17T05:57:00Z</time>
      </trkpt>
      <trkpt lat="43.62286" lon="3.83429">
        <ele>75.1</ele>
        <time>2015-10-17T05:57:01Z</time>
      </trkpt>
      <trkpt lat="43.62283" lon="3.83446">
        <ele>76.1</ele>
        <time>2015-10-17T05:57:02Z</time>
      </trkpt>
      <trkpt lat="43.62277" lon="3.83461">
        <ele>76.6</ele>
        <time>2015-10-17T05:57:03Z</time>
      </trkpt>
      <trkpt lat="43.62272" lon="3.83473">
        <ele>77</ele>
        <time>2015-10-17T05:57:04Z</time>
      </trkpt>
      <trkpt lat="43.62255" lon="3.83511">
        <ele>79.9</ele>
        <time>2015-10-17T05:57:10Z</time>
      </trkpt>
      <trkpt lat="43.62255" lon="3.83509">
        <ele>82.3</ele>
        <time>2015-10-17T05:57:32Z</time>
      </trkpt>
      <trkpt lat="43.62239" lon="3.83544">
        <ele>82.8</ele>
        <time>2015-10-17T05:57:37Z</time>
      </trkpt>
      <trkpt lat="43.62176" lon="3.83618">
        <ele>82.3</ele>
        <time>2015-10-17T05:57:44Z</time>
      </trkpt>
      <trkpt lat="43.62047" lon="3.83719">
        <ele>84.3</ele>
        <time>2015-10-17T05:57:54Z</time>
      </trkpt>
      <trkpt lat="43.61986" lon="3.83764">
        <ele>82.3</ele>
        <time>2015-10-17T05:58:01Z</time>
      </trkpt>
      <trkpt lat="43.61986" lon="3.83765">
        <ele>84.7</ele>
        <time>2015-10-17T05:58:08Z</time>
      </trkpt>
      <trkpt lat="43.61985" lon="3.83766">
        <ele>88.6</ele>
        <time>2015-10-17T05:58:45Z</time>
      </trkpt>
      <trkpt lat="43.61953" lon="3.83798">
        <ele>86.7</ele>
        <time>2015-10-17T05:58:50Z</time>
      </trkpt>
      <trkpt lat="43.61851" lon="3.83883">
        <ele>83.8</ele>
        <time>2015-10-17T05:59:00Z</time>
      </trkpt>
      <trkpt lat="43.618" lon="3.83926">
        <ele>83.3</ele>
        <time>2015-10-17T05:59:07Z</time>
      </trkpt>
      <trkpt lat="43.61799" lon="3.83926">
        <ele>87.6</ele>
        <time>2015-10-17T05:59:17Z</time>
      </trkpt>
      <trkpt lat="43.61783" lon="3.8395">
        <ele>93.9</ele>
        <time>2015-10-17T06:00:08Z</time>
      </trkpt>
      <trkpt lat="43.61775" lon="3.8396">
        <ele>93.9</ele>
        <time>2015-10-17T06:00:09Z</time>
      </trkpt>
      <trkpt lat="43.61767" lon="3.83967">
        <ele>93.4</ele>
        <time>2015-10-17T06:00:10Z</time>
      </trkpt>
      <trkpt lat="43.617" lon="3.84017">
        <ele>90.5</ele>
        <time>2015-10-17T06:00:19Z</time>
      </trkpt>
      <trkpt lat="43.6169" lon="3.84025">
        <ele>98.7</ele>
        <time>2015-10-17T06:00:26Z</time>
      </trkpt>
      <trkpt lat="43.6167" lon="3.84044">
        <ele>104.9</ele>
        <time>2015-10-17T06:00:39Z</time>
      </trkpt>
      <trkpt lat="43.61628" lon="3.84088">
        <ele>100.1</ele>
        <time>2015-10-17T06:00:45Z</time>
      </trkpt>
      <trkpt lat="43.61623" lon="3.84091">
        <ele>98.7</ele>
        <time>2015-10-17T06:00:46Z</time>
      </trkpt>
      <trkpt lat="43.61618" lon="3.84088">
        <ele>97.2</ele>
        <time>2015-10-17T06:00:47Z</time>
      </trkpt>
      <trkpt lat="43.61612" lon="3.84082">
        <ele>95.8</ele>
        <time>2015-10-17T06:00:48Z</time>
      </trkpt>
      <trkpt lat="43.61607" lon="3.84073">
        <ele>94.4</ele>
        <time>2015-10-17T06:00:49Z</time>
      </trkpt>
      <trkpt lat="43.616" lon="3.84062">
        <ele>92.9</ele>
        <time>2015-10-17T06:00:50Z</time>
      </trkpt>
      <trkpt lat="43.6159" lon="3.84048">
        <ele>91.5</ele>
        <time>2015-10-17T06:00:51Z</time>
      </trkpt>
      <trkpt lat="43.61556" lon="3.84008">
        <ele>87.6</ele>
        <time>2015-10-17T06:00:54Z</time>
      </trkpt>
      <trkpt lat="43.61543" lon="3.83998">
        <ele>86.7</ele>
        <time>2015-10-17T06:00:55Z</time>
      </trkpt>
      <trkpt lat="43.61528" lon="3.83989">
        <ele>85.2</ele>
        <time>2015-10-17T06:00:56Z</time>
      </trkpt>
      <trkpt lat="43.61367" lon="3.83908">
        <ele>72.7</ele>
        <time>2015-10-17T06:01:06Z</time>
      </trkpt>
      <trkpt lat="43.61249" lon="3.83886">
        <ele>68.4</ele>
        <time>2015-10-17T06:01:13Z</time>
      </trkpt>
      <trkpt lat="43.61039" lon="3.83886">
        <ele>66.5</ele>
        <time>2015-10-17T06:01:25Z</time>
      </trkpt>
      <trkpt lat="43.60868" lon="3.83825">
        <ele>68.4</ele>
        <time>2015-10-17T06:01:34Z</time>
      </trkpt>
      <trkpt lat="43.6069" lon="3.83793">
        <ele>66.5</ele>
        <time>2015-10-17T06:01:43Z</time>
      </trkpt>
      <trkpt lat="43.60553" lon="3.83841">
        <ele>63.1</ele>
        <time>2015-10-17T06:01:50Z</time>
      </trkpt>
      <trkpt lat="43.60305" lon="3.83927">
        <ele>54.5</ele>
        <time>2015-10-17T06:02:02Z</time>
      </trkpt>
      <trkpt lat="43.60086" lon="3.83986">
        <ele>50.1</ele>
        <time>2015-10-17T06:02:12Z</time>
      </trkpt>
      <trkpt lat="43.59937" lon="3.84107">
        <ele>48.7</ele>
        <time>2015-10-17T06:02:20Z</time>
      </trkpt>
      <trkpt lat="43.59742" lon="3.84323">
        <ele>46.8</ele>
        <time>2015-10-17T06:02:32Z</time>
      </trkpt>
      <trkpt lat="43.59652" lon="3.84514">
        <ele>51.1</ele>
        <time>2015-10-17T06:02:41Z</time>
      </trkpt>
      <trkpt lat="43.5956" lon="3.84731">
        <ele>57.8</ele>
        <time>2015-10-17T06:02:51Z</time>
      </trkpt>
      <trkpt lat="43.59522" lon="3.84816">
        <ele>57.8</ele>
        <time>2015-10-17T06:02:57Z</time>
      </trkpt>
      <trkpt lat="43.59505" lon="3.84844">
        <ele>56.9</ele>
        <time>2015-10-17T06:03:04Z</time>
      </trkpt>
      <trkpt lat="43.595" lon="3.84856">
        <ele>59.7</ele>
        <time>2015-10-17T06:03:14Z</time>
      </trkpt>
      <trkpt lat="43.59497" lon="3.84864">
        <ele>58.3</ele>
        <time>2015-10-17T06:03:34Z</time>
      </trkpt>
      <trkpt lat="43.59497" lon="3.8488">
        <ele>58.3</ele>
        <time>2015-10-17T06:03:37Z</time>
      </trkpt>
      <trkpt lat="43.59496" lon="3.84887">
        <ele>58.3</ele>
        <time>2015-10-17T06:03:38Z</time>
      </trkpt>
      <trkpt lat="43.59494" lon="3.84897">
        <ele>58.3</ele>
        <time>2015-10-17T06:03:39Z</time>
      </trkpt>
      <trkpt lat="43.5949" lon="3.84909">
        <ele>58.3</ele>
        <time>2015-10-17T06:03:40Z</time>
      </trkpt>
      <trkpt lat="43.59485" lon="3.84923">
        <ele>58.8</ele>
        <time>2015-10-17T06:03:41Z</time>
      </trkpt>
      <trkpt lat="43.59479" lon="3.84937">
        <ele>58.8</ele>
        <time>2015-10-17T06:03:42Z</time>
      </trkpt>
      <trkpt lat="43.59407" lon="3.8506">
        <ele>60.7</ele>
        <time>2015-10-17T06:03:49Z</time>
      </trkpt>
      <trkpt lat="43.59266" lon="3.85234">
        <ele>59.3</ele>
        <time>2015-10-17T06:04:00Z</time>
      </trkpt>
      <trkpt lat="43.59192" lon="3.85358">
        <ele>58.8</ele>
        <time>2015-10-17T06:04:07Z</time>
      </trkpt>
      <trkpt lat="43.59067" lon="3.855">
        <ele>59.7</ele>
        <time>2015-10-17T06:04:17Z</time>
      </trkpt>
      <trkpt lat="43.59023" lon="3.85569">
        <ele>56.9</ele>
        <time>2015-10-17T06:04:24Z</time>
      </trkpt>
      <trkpt lat="43.59019" lon="3.85574">
        <ele>56.9</ele>
        <time>2015-10-17T06:04:25Z</time>
      </trkpt>
      <trkpt lat="43.59014" lon="3.85577">
        <ele>56.4</ele>
        <time>2015-10-17T06:04:26Z</time>
      </trkpt>
      <trkpt lat="43.59007" lon="3.85581">
        <ele>56.4</ele>
        <time>2015-10-17T06:04:27Z</time>
      </trkpt>
      <trkpt lat="43.58998" lon="3.85586">
        <ele>55.9</ele>
        <time>2015-10-17T06:04:28Z</time>
      </trkpt>
      <trkpt lat="43.58987" lon="3.85592">
        <ele>55.4</ele>
        <time>2015-10-17T06:04:29Z</time>
      </trkpt>
      <trkpt lat="43.58978" lon="3.85602">
        <ele>54.9</ele>
        <time>2015-10-17T06:04:30Z</time>
      </trkpt>
      <trkpt lat="43.5897" lon="3.85615">
        <ele>54</ele>
        <time>2015-10-17T06:04:31Z</time>
      </trkpt>
      <trkpt lat="43.58964" lon="3.85631">
        <ele>53.5</ele>
        <time>2015-10-17T06:04:32Z</time>
      </trkpt>
      <trkpt lat="43.58961" lon="3.85648">
        <ele>53.5</ele>
        <time>2015-10-17T06:04:33Z</time>
      </trkpt>
      <trkpt lat="43.58962" lon="3.85666">
        <ele>52.5</ele>
        <time>2015-10-17T06:04:34Z</time>
      </trkpt>
      <trkpt lat="43.58971" lon="3.85682">
        <ele>52.5</ele>
        <time>2015-10-17T06:04:35Z</time>
      </trkpt>
      <trkpt lat="43.5898" lon="3.85696">
        <ele>52.1</ele>
        <time>2015-10-17T06:04:36Z</time>
      </trkpt>
      <trkpt lat="43.58991" lon="3.85707">
        <ele>51.6</ele>
        <time>2015-10-17T06:04:37Z</time>
      </trkpt>
      <trkpt lat="43.59004" lon="3.85714">
        <ele>51.1</ele>
        <time>2015-10-17T06:04:38Z</time>
      </trkpt>
      <trkpt lat="43.59017" lon="3.85717">
        <ele>50.6</ele>
        <time>2015-10-17T06:04:39Z</time>
      </trkpt>
      <trkpt lat="43.5903" lon="3.85717">
        <ele>50.1</ele>
        <time>2015-10-17T06:04:40Z</time>
      </trkpt>
      <trkpt lat="43.59042" lon="3.85713">
        <ele>50.1</ele>
        <time>2015-10-17T06:04:41Z</time>
      </trkpt>
      <trkpt lat="43.59054" lon="3.8571">
        <ele>49.2</ele>
        <time>2015-10-17T06:04:42Z</time>
      </trkpt>
      <trkpt lat="43.59066" lon="3.85711">
        <ele>49.7</ele>
        <time>2015-10-17T06:04:43Z</time>
      </trkpt>
      <trkpt lat="43.59077" lon="3.85714">
        <ele>49.7</ele>
        <time>2015-10-17T06:04:44Z</time>
      </trkpt>
      <trkpt lat="43.59085" lon="3.85721">
        <ele>50.1</ele>
        <time>2015-10-17T06:04:45Z</time>
      </trkpt>
      <trkpt lat="43.59092" lon="3.85728">
        <ele>50.6</ele>
        <time>2015-10-17T06:04:46Z</time>
      </trkpt>
      <trkpt lat="43.59098" lon="3.85732">
        <ele>51.1</ele>
        <time>2015-10-17T06:04:47Z</time>
      </trkpt>
      <trkpt lat="43.59101" lon="3.85737">
        <ele>51.6</ele>
        <time>2015-10-17T06:04:48Z</time>
      </trkpt>
      <trkpt lat="43.59103" lon="3.85741">
        <ele>52.1</ele>
        <time>2015-10-17T06:04:49Z</time>
      </trkpt>
      <trkpt lat="43.59103" lon="3.85744">
        <ele>52.1</ele>
        <time>2015-10-17T06:04:50Z</time>
      </trkpt>
      <trkpt lat="43.59102" lon="3.85747">
        <ele>52.1</ele>
        <time>2015-10-17T06:04:51Z</time>
      </trkpt>
      <trkpt lat="43.59102" lon="3.85749">
        <ele>52.1</ele>
        <time>2015-10-17T06:04:52Z</time>
      </trkpt>
      <trkpt lat="43.59102" lon="3.85751">
        <ele>51.6</ele>
        <time>2015-10-17T06:04:53Z</time>
      </trkpt>
      <trkpt lat="43.59104" lon="3.85751">
        <ele>50.6</ele>
        <time>2015-10-17T06:05:08Z</time>
      </trkpt>
      <trkpt lat="43.59104" lon="3.8575">
        <ele>52.1</ele>
        <time>2015-10-17T06:06:26Z</time>
      </trkpt>
      <trkpt lat="43.59103" lon="3.85751">
        <ele>56.9</ele>
        <time>2015-10-17T06:07:15Z</time>
      </trkpt>
      <trkpt lat="43.59118" lon="3.8576">
        <ele>57.8</ele>
        <time>2015-10-17T06:07:24Z</time>
      </trkpt>
      <trkpt lat="43.59172" lon="3.8581">
        <ele>59.3</ele>
        <time>2015-10-17T06:07:30Z</time>
      </trkpt>
      <trkpt lat="43.59266" lon="3.85902">
        <ele>58.8</ele>
        <time>2015-10-17T06:07:41Z</time>
      </trkpt>
      <trkpt lat="43.5928" lon="3.85917">
        <ele>54.9</ele>
        <time>2015-10-17T06:07:48Z</time>
      </trkpt>
      <trkpt lat="43.59295" lon="3.85932">
        <ele>49.7</ele>
        <time>2015-10-17T06:08:17Z</time>
      </trkpt>
      <trkpt lat="43.59359" lon="3.86001">
        <ele>49.7</ele>
        <time>2015-10-17T06:08:25Z</time>
      </trkpt>
      <trkpt lat="43.59475" lon="3.86131">
        <ele>43.4</ele>
        <time>2015-10-17T06:08:36Z</time>
      </trkpt>
      <trkpt lat="43.59616" lon="3.86286">
        <ele>36.2</ele>
        <time>2015-10-17T06:08:49Z</time>
      </trkpt>
      <trkpt lat="43.59744" lon="3.86427">
        <ele>34.3</ele>
        <time>2015-10-17T06:09:02Z</time>
      </trkpt>
      <trkpt lat="43.59868" lon="3.8656">
        <ele>37.6</ele>
        <time>2015-10-17T06:09:14Z</time>
      </trkpt>
      <trkpt lat="43.59981" lon="3.86683">
        <ele>37.6</ele>
        <time>2015-10-17T06:09:24Z</time>
      </trkpt>
      <trkpt lat="43.60022" lon="3.86728">
        <ele>37.2</ele>
        <time>2015-10-17T06:09:30Z</time>
      </trkpt>
      <trkpt lat="43.6002" lon="3.86727">
        <ele>36.7</ele>
        <time>2015-10-17T06:09:40Z</time>
      </trkpt>
      <trkpt lat="43.60039" lon="3.86746">
        <ele>40</ele>
        <time>2015-10-17T06:10:40Z</time>
      </trkpt>
      <trkpt lat="43.60128" lon="3.86838">
        <ele>45.8</ele>
        <time>2015-10-17T06:10:52Z</time>
      </trkpt>
      <trkpt lat="43.60154" lon="3.86869">
        <ele>48.2</ele>
        <time>2015-10-17T06:10:56Z</time>
      </trkpt>
      <trkpt lat="43.60215" lon="3.86982">
        <ele>52.1</ele>
        <time>2015-10-17T06:11:07Z</time>
      </trkpt>
      <trkpt lat="43.60287" lon="3.87118">
        <ele>51.1</ele>
        <time>2015-10-17T06:11:21Z</time>
      </trkpt>
      <trkpt lat="43.60352" lon="3.87238">
        <ele>52.5</ele>
        <time>2015-10-17T06:11:31Z</time>
      </trkpt>
      <trkpt lat="43.60366" lon="3.8726">
        <ele>51.1</ele>
        <time>2015-10-17T06:11:33Z</time>
      </trkpt>
      <trkpt lat="43.60427" lon="3.87351">
        <ele>54</ele>
        <time>2015-10-17T06:11:42Z</time>
      </trkpt>
      <trkpt lat="43.60492" lon="3.87426">
        <ele>50.6</ele>
        <time>2015-10-17T06:11:51Z</time>
      </trkpt>
      <trkpt lat="43.605" lon="3.87431">
        <ele>52.1</ele>
        <time>2015-10-17T06:11:58Z</time>
      </trkpt>
      <trkpt lat="43.605" lon="3.87443">
        <ele>79</ele>
        <time>2015-10-17T06:12:41Z</time>
      </trkpt>
      <trkpt lat="43.60502" lon="3.87445">
        <ele>78</ele>
        <time>2015-10-17T06:12:42Z</time>
      </trkpt>
      <trkpt lat="43.60508" lon="3.87457">
        <ele>76.1</ele>
        <time>2015-10-17T06:12:45Z</time>
      </trkpt>
      <trkpt lat="43.60523" lon="3.87474">
        <ele>66.5</ele>
        <time>2015-10-17T06:12:50Z</time>
      </trkpt>
      <trkpt lat="43.60525" lon="3.87479">
        <ele>65.5</ele>
        <time>2015-10-17T06:12:51Z</time>
      </trkpt>
      <trkpt lat="43.60527" lon="3.87486">
        <ele>64.1</ele>
        <time>2015-10-17T06:12:52Z</time>
      </trkpt>
      <trkpt lat="43.60532" lon="3.8752">
        <ele>58.3</ele>
        <time>2015-10-17T06:12:56Z</time>
      </trkpt>
      <trkpt lat="43.60532" lon="3.8753">
        <ele>56.9</ele>
        <time>2015-10-17T06:12:57Z</time>
      </trkpt>
      <trkpt lat="43.60532" lon="3.8754">
        <ele>54.9</ele>
        <time>2015-10-17T06:12:58Z</time>
      </trkpt>
      <trkpt lat="43.6053" lon="3.8755">
        <ele>54</ele>
        <time>2015-10-17T06:12:59Z</time>
      </trkpt>
      <trkpt lat="43.60528" lon="3.8756">
        <ele>52.5</ele>
        <time>2015-10-17T06:13:00Z</time>
      </trkpt>
      <trkpt lat="43.60526" lon="3.87577">
        <ele>51.1</ele>
        <time>2015-10-17T06:13:02Z</time>
      </trkpt>
      <trkpt lat="43.60525" lon="3.87582">
        <ele>50.1</ele>
        <time>2015-10-17T06:13:03Z</time>
      </trkpt>
      <trkpt lat="43.60528" lon="3.87592">
        <ele>50.1</ele>
        <time>2015-10-17T06:13:04Z</time>
      </trkpt>
      <trkpt lat="43.60535" lon="3.87604">
        <ele>50.1</ele>
        <time>2015-10-17T06:13:05Z</time>
      </trkpt>
      <trkpt lat="43.60541" lon="3.87617">
        <ele>49.2</ele>
        <time>2015-10-17T06:13:06Z</time>
      </trkpt>
      <trkpt lat="43.60548" lon="3.87631">
        <ele>48.7</ele>
        <time>2015-10-17T06:13:07Z</time>
      </trkpt>
      <trkpt lat="43.60555" lon="3.87645">
        <ele>48.7</ele>
        <time>2015-10-17T06:13:08Z</time>
      </trkpt>
      <trkpt lat="43.60631" lon="3.87733">
        <ele>52.1</ele>
        <time>2015-10-17T06:13:18Z</time>
      </trkpt>
      <trkpt lat="43.60635" lon="3.87744">
        <ele>50.6</ele>
        <time>2015-10-17T06:13:19Z</time>
      </trkpt>
      <trkpt lat="43.60639" lon="3.87757">
        <ele>49.7</ele>
        <time>2015-10-17T06:13:20Z</time>
      </trkpt>
      <trkpt lat="43.60645" lon="3.87769">
        <ele>50.1</ele>
        <time>2015-10-17T06:13:21Z</time>
      </trkpt>
      <trkpt lat="43.60651" lon="3.8778">
        <ele>52.1</ele>
        <time>2015-10-17T06:13:22Z</time>
      </trkpt>
      <trkpt lat="43.60659" lon="3.8779">
        <ele>52.1</ele>
        <time>2015-10-17T06:13:23Z</time>
      </trkpt>
      <trkpt lat="43.60669" lon="3.878">
        <ele>53</ele>
        <time>2015-10-17T06:13:24Z</time>
      </trkpt>
      <trkpt lat="43.60694" lon="3.87828">
        <ele>52.1</ele>
        <time>2015-10-17T06:13:27Z</time>
      </trkpt>
      <trkpt lat="43.60703" lon="3.87836">
        <ele>51.1</ele>
        <time>2015-10-17T06:13:28Z</time>
      </trkpt>
      <trkpt lat="43.61015" lon="3.88298">
        <ele>44.4</ele>
        <time>2015-10-17T06:13:58Z</time>
      </trkpt>
      <trkpt lat="43.61027" lon="3.88304">
        <ele>43.4</ele>
        <time>2015-10-17T06:13:59Z</time>
      </trkpt>
      <trkpt lat="43.61042" lon="3.88307">
        <ele>43.4</ele>
        <time>2015-10-17T06:14:00Z</time>
      </trkpt>
      <trkpt lat="43.61058" lon="3.88305">
        <ele>42</ele>
        <time>2015-10-17T06:14:01Z</time>
      </trkpt>
      <trkpt lat="43.61072" lon="3.88302">
        <ele>41</ele>
        <time>2015-10-17T06:14:02Z</time>
      </trkpt>
      <trkpt lat="43.61088" lon="3.88297">
        <ele>39.6</ele>
        <time>2015-10-17T06:14:03Z</time>
      </trkpt>
      <trkpt lat="43.61273" lon="3.88271">
        <ele>40</ele>
        <time>2015-10-17T06:14:15Z</time>
      </trkpt>
      <trkpt lat="43.61418" lon="3.88306">
        <ele>38.1</ele>
        <time>2015-10-17T06:14:24Z</time>
      </trkpt>
      <trkpt lat="43.61554" lon="3.8841">
        <ele>32.3</ele>
        <time>2015-10-17T06:14:33Z</time>
      </trkpt>
      <trkpt lat="43.61748" lon="3.88607">
        <ele>29.5</ele>
        <time>2015-10-17T06:14:47Z</time>
      </trkpt>
      <trkpt lat="43.6189" lon="3.88752">
        <ele>29</ele>
        <time>2015-10-17T06:14:58Z</time>
      </trkpt>
      <trkpt lat="43.61922" lon="3.88787">
        <ele>27.5</ele>
        <time>2015-10-17T06:15:03Z</time>
      </trkpt>
      <trkpt lat="43.61924" lon="3.88788">
        <ele>27.1</ele>
        <time>2015-10-17T06:15:04Z</time>
      </trkpt>
      <trkpt lat="43.61931" lon="3.88785">
        <ele>29.5</ele>
        <time>2015-10-17T06:15:14Z</time>
      </trkpt>
      <trkpt lat="43.61954" lon="3.88808">
        <ele>29.9</ele>
        <time>2015-10-17T06:15:26Z</time>
      </trkpt>
      <trkpt lat="43.6203" lon="3.88888">
        <ele>30.9</ele>
        <time>2015-10-17T06:15:32Z</time>
      </trkpt>
      <trkpt lat="43.62219" lon="3.8909">
        <ele>29.9</ele>
        <time>2015-10-17T06:15:46Z</time>
      </trkpt>
      <trkpt lat="43.62298" lon="3.89176">
        <ele>29.5</ele>
        <time>2015-10-17T06:15:54Z</time>
      </trkpt>
      <trkpt lat="43.62382" lon="3.89264">
        <ele>29.9</ele>
        <time>2015-10-17T06:16:01Z</time>
      </trkpt>
      <trkpt lat="43.62622" lon="3.89517">
        <ele>33.8</ele>
        <time>2015-10-17T06:16:19Z</time>
      </trkpt>
      <trkpt lat="43.6278" lon="3.89683">
        <ele>29.9</ele>
        <time>2015-10-17T06:16:32Z</time>
      </trkpt>
      <trkpt lat="43.62784" lon="3.89693">
        <ele>29.9</ele>
        <time>2015-10-17T06:16:33Z</time>
      </trkpt>
      <trkpt lat="43.62792" lon="3.89714">
        <ele>29.9</ele>
        <time>2015-10-17T06:16:35Z</time>
      </trkpt>
      <trkpt lat="43.62799" lon="3.89722">
        <ele>29.9</ele>
        <time>2015-10-17T06:16:36Z</time>
      </trkpt>
      <trkpt lat="43.62813" lon="3.89737">
        <ele>29.5</ele>
        <time>2015-10-17T06:16:38Z</time>
      </trkpt>
      <trkpt lat="43.62818" lon="3.89749">
        <ele>29</ele>
        <time>2015-10-17T06:16:39Z</time>
      </trkpt>
      <trkpt lat="43.62821" lon="3.89763">
        <ele>28.5</ele>
        <time>2015-10-17T06:16:40Z</time>
      </trkpt>
      <trkpt lat="43.62825" lon="3.89776">
        <ele>28.5</ele>
        <time>2015-10-17T06:16:41Z</time>
      </trkpt>
      <trkpt lat="43.62832" lon="3.89785">
        <ele>28</ele>
        <time>2015-10-17T06:16:42Z</time>
      </trkpt>
      <trkpt lat="43.6284" lon="3.89794">
        <ele>28</ele>
        <time>2015-10-17T06:16:43Z</time>
      </trkpt>
      <trkpt lat="43.62849" lon="3.89803">
        <ele>28</ele>
        <time>2015-10-17T06:16:44Z</time>
      </trkpt>
      <trkpt lat="43.62878" lon="3.89829">
        <ele>27.5</ele>
        <time>2015-10-17T06:16:47Z</time>
      </trkpt>
      <trkpt lat="43.62888" lon="3.89834">
        <ele>27.5</ele>
        <time>2015-10-17T06:16:48Z</time>
      </trkpt>
      <trkpt lat="43.62898" lon="3.89836">
        <ele>27.5</ele>
        <time>2015-10-17T06:16:49Z</time>
      </trkpt>
      <trkpt lat="43.62908" lon="3.89839">
        <ele>28</ele>
        <time>2015-10-17T06:16:50Z</time>
      </trkpt>
      <trkpt lat="43.62918" lon="3.89845">
        <ele>28</ele>
        <time>2015-10-17T06:16:51Z</time>
      </trkpt>
      <trkpt lat="43.62928" lon="3.89853">
        <ele>28</ele>
        <time>2015-10-17T06:16:52Z</time>
      </trkpt>
      <trkpt lat="43.62937" lon="3.89864">
        <ele>28</ele>
        <time>2015-10-17T06:16:53Z</time>
      </trkpt>
      <trkpt lat="43.62944" lon="3.89878">
        <ele>28</ele>
        <time>2015-10-17T06:16:54Z</time>
      </trkpt>
      <trkpt lat="43.6295" lon="3.89893">
        <ele>28.5</ele>
        <time>2015-10-17T06:16:55Z</time>
      </trkpt>
      <trkpt lat="43.62953" lon="3.89908">
        <ele>29</ele>
        <time>2015-10-17T06:16:56Z</time>
      </trkpt>
      <trkpt lat="43.62956" lon="3.89924">
        <ele>29.5</ele>
        <time>2015-10-17T06:16:57Z</time>
      </trkpt>
      <trkpt lat="43.6298" lon="3.90084">
        <ele>31.4</ele>
        <time>2015-10-17T06:17:07Z</time>
      </trkpt>
      <trkpt lat="43.63014" lon="3.90269">
        <ele>33.8</ele>
        <time>2015-10-17T06:17:20Z</time>
      </trkpt>
      <trkpt lat="43.63074" lon="3.90574">
        <ele>36.2</ele>
        <time>2015-10-17T06:17:40Z</time>
      </trkpt>
      <trkpt lat="43.63116" lon="3.90785">
        <ele>41.5</ele>
        <time>2015-10-17T06:17:55Z</time>
      </trkpt>
      <trkpt lat="43.63121" lon="3.90817">
        <ele>41.5</ele>
        <time>2015-10-17T06:17:58Z</time>
      </trkpt>
      <trkpt lat="43.63121" lon="3.90827">
        <ele>41.5</ele>
        <time>2015-10-17T06:17:59Z</time>
      </trkpt>
      <trkpt lat="43.63121" lon="3.90838">
        <ele>41</ele>
        <time>2015-10-17T06:18:00Z</time>
      </trkpt>
      <trkpt lat="43.63123" lon="3.90848">
        <ele>41</ele>
        <time>2015-10-17T06:18:01Z</time>
      </trkpt>
      <trkpt lat="43.63127" lon="3.90859">
        <ele>40.5</ele>
        <time>2015-10-17T06:18:02Z</time>
      </trkpt>
      <trkpt lat="43.63131" lon="3.9087">
        <ele>41</ele>
        <time>2015-10-17T06:18:03Z</time>
      </trkpt>
      <trkpt lat="43.63153" lon="3.90971">
        <ele>41</ele>
        <time>2015-10-17T06:18:11Z</time>
      </trkpt>
      <trkpt lat="43.63187" lon="3.91141">
        <ele>40.5</ele>
        <time>2015-10-17T06:18:25Z</time>
      </trkpt>
      <trkpt lat="43.63238" lon="3.91395">
        <ele>42.4</ele>
        <time>2015-10-17T06:18:44Z</time>
      </trkpt>
      <trkpt lat="43.6327" lon="3.91554">
        <ele>44.4</ele>
        <time>2015-10-17T06:18:53Z</time>
      </trkpt>
      <trkpt lat="43.63284" lon="3.91633">
        <ele>45.8</ele>
        <time>2015-10-17T06:18:58Z</time>
      </trkpt>
      <trkpt lat="43.63286" lon="3.91648">
        <ele>45.8</ele>
        <time>2015-10-17T06:18:59Z</time>
      </trkpt>
      <trkpt lat="43.63289" lon="3.91664">
        <ele>45.3</ele>
        <time>2015-10-17T06:19:00Z</time>
      </trkpt>
      <trkpt lat="43.63326" lon="3.91838">
        <ele>45.3</ele>
        <time>2015-10-17T06:19:10Z</time>
      </trkpt>
      <trkpt lat="43.63388" lon="3.9213">
        <ele>48.2</ele>
        <time>2015-10-17T06:19:28Z</time>
      </trkpt>
      <trkpt lat="43.63389" lon="3.92142">
        <ele>47.7</ele>
        <time>2015-10-17T06:19:29Z</time>
      </trkpt>
      <trkpt lat="43.6339" lon="3.92152">
        <ele>47.2</ele>
        <time>2015-10-17T06:19:30Z</time>
      </trkpt>
      <trkpt lat="43.63394" lon="3.92162">
        <ele>47.2</ele>
        <time>2015-10-17T06:19:31Z</time>
      </trkpt>
      <trkpt lat="43.634" lon="3.92165">
        <ele>47.2</ele>
        <time>2015-10-17T06:19:32Z</time>
      </trkpt>
      <trkpt lat="43.63407" lon="3.92167">
        <ele>47.2</ele>
        <time>2015-10-17T06:19:33Z</time>
      </trkpt>
      <trkpt lat="43.63413" lon="3.9217">
        <ele>47.2</ele>
        <time>2015-10-17T06:19:34Z</time>
      </trkpt>
      <trkpt lat="43.63419" lon="3.92176">
        <ele>46.8</ele>
        <time>2015-10-17T06:19:35Z</time>
      </trkpt>
      <trkpt lat="43.63423" lon="3.92185">
        <ele>46.8</ele>
        <time>2015-10-17T06:19:36Z</time>
      </trkpt>
      <trkpt lat="43.63428" lon="3.92194">
        <ele>46.8</ele>
        <time>2015-10-17T06:19:37Z</time>
      </trkpt>
      <trkpt lat="43.63432" lon="3.92205">
        <ele>46.8</ele>
        <time>2015-10-17T06:19:38Z</time>
      </trkpt>
      <trkpt lat="43.63449" lon="3.92262">
        <ele>47.2</ele>
        <time>2015-10-17T06:19:46Z</time>
      </trkpt>
      <trkpt lat="43.63462" lon="3.923">
        <ele>46.3</ele>
        <time>2015-10-17T06:20:05Z</time>
      </trkpt>
      <trkpt lat="43.63516" lon="3.92428">
        <ele>47.2</ele>
        <time>2015-10-17T06:20:13Z</time>
      </trkpt>
      <trkpt lat="43.63611" lon="3.92641">
        <ele>47.7</ele>
        <time>2015-10-17T06:20:26Z</time>
      </trkpt>
      <trkpt lat="43.63616" lon="3.92654">
        <ele>48.2</ele>
        <time>2015-10-17T06:20:27Z</time>
      </trkpt>
      <trkpt lat="43.63625" lon="3.92681">
        <ele>48.2</ele>
        <time>2015-10-17T06:20:29Z</time>
      </trkpt>
      <trkpt lat="43.63632" lon="3.92693">
        <ele>48.2</ele>
        <time>2015-10-17T06:20:30Z</time>
      </trkpt>
      <trkpt lat="43.63649" lon="3.9272">
        <ele>47.7</ele>
        <time>2015-10-17T06:20:32Z</time>
      </trkpt>
      <trkpt lat="43.63727" lon="3.92893">
        <ele>46.8</ele>
        <time>2015-10-17T06:20:42Z</time>
      </trkpt>
      <trkpt lat="43.63804" lon="3.93045">
        <ele>44.4</ele>
        <time>2015-10-17T06:20:52Z</time>
      </trkpt>
      <trkpt lat="43.6381" lon="3.93057">
        <ele>43.9</ele>
        <time>2015-10-17T06:20:53Z</time>
      </trkpt>
      <trkpt lat="43.63814" lon="3.93069">
        <ele>43.9</ele>
        <time>2015-10-17T06:20:54Z</time>
      </trkpt>
      <trkpt lat="43.63816" lon="3.93082">
        <ele>43.9</ele>
        <time>2015-10-17T06:20:55Z</time>
      </trkpt>
      <trkpt lat="43.63816" lon="3.93094">
        <ele>43.9</ele>
        <time>2015-10-17T06:20:56Z</time>
      </trkpt>
      <trkpt lat="43.63816" lon="3.93107">
        <ele>43.9</ele>
        <time>2015-10-17T06:20:57Z</time>
      </trkpt>
      <trkpt lat="43.63819" lon="3.93118">
        <ele>44.4</ele>
        <time>2015-10-17T06:20:58Z</time>
      </trkpt>
      <trkpt lat="43.63823" lon="3.93127">
        <ele>43.9</ele>
        <time>2015-10-17T06:20:59Z</time>
      </trkpt>
      <trkpt lat="43.63829" lon="3.93135">
        <ele>43.9</ele>
        <time>2015-10-17T06:21:00Z</time>
      </trkpt>
      <trkpt lat="43.63835" lon="3.93145">
        <ele>43.4</ele>
        <time>2015-10-17T06:21:01Z</time>
      </trkpt>
      <trkpt lat="43.6384" lon="3.93159">
        <ele>43.4</ele>
        <time>2015-10-17T06:21:02Z</time>
      </trkpt>
      <trkpt lat="43.63843" lon="3.93175">
        <ele>42.9</ele>
        <time>2015-10-17T06:21:03Z</time>
      </trkpt>
      <trkpt lat="43.63845" lon="3.93194">
        <ele>42.4</ele>
        <time>2015-10-17T06:21:04Z</time>
      </trkpt>
      <trkpt lat="43.63853" lon="3.93249">
        <ele>42</ele>
        <time>2015-10-17T06:21:07Z</time>
      </trkpt>
      <trkpt lat="43.63858" lon="3.93264">
        <ele>42</ele>
        <time>2015-10-17T06:21:08Z</time>
      </trkpt>
      <trkpt lat="43.63893" lon="3.93381">
        <ele>41</ele>
        <time>2015-10-17T06:21:17Z</time>
      </trkpt>
      <trkpt lat="43.63896" lon="3.93402">
        <ele>41</ele>
        <time>2015-10-17T06:21:19Z</time>
      </trkpt>
      <trkpt lat="43.639" lon="3.93412">
        <ele>41</ele>
        <time>2015-10-17T06:21:20Z</time>
      </trkpt>
      <trkpt lat="43.63909" lon="3.93434">
        <ele>41</ele>
        <time>2015-10-17T06:21:22Z</time>
      </trkpt>
      <trkpt lat="43.63952" lon="3.93562">
        <ele>41</ele>
        <time>2015-10-17T06:21:31Z</time>
      </trkpt>
      <trkpt lat="43.64006" lon="3.93726">
        <ele>41.5</ele>
        <time>2015-10-17T06:21:39Z</time>
      </trkpt>
      <trkpt lat="43.64117" lon="3.94063">
        <ele>41.5</ele>
        <time>2015-10-17T06:21:53Z</time>
      </trkpt>
      <trkpt lat="43.64165" lon="3.94246">
        <ele>42</ele>
        <time>2015-10-17T06:22:01Z</time>
      </trkpt>
      <trkpt lat="43.64179" lon="3.94299">
        <ele>42</ele>
        <time>2015-10-17T06:22:04Z</time>
      </trkpt>
      <trkpt lat="43.64185" lon="3.94329">
        <ele>41.5</ele>
        <time>2015-10-17T06:22:06Z</time>
      </trkpt>
      <trkpt lat="43.64191" lon="3.94342">
        <ele>41.5</ele>
        <time>2015-10-17T06:22:07Z</time>
      </trkpt>
      <trkpt lat="43.64198" lon="3.94353">
        <ele>41.5</ele>
        <time>2015-10-17T06:22:08Z</time>
      </trkpt>
      <trkpt lat="43.64206" lon="3.94365">
        <ele>41.5</ele>
        <time>2015-10-17T06:22:09Z</time>
      </trkpt>
      <trkpt lat="43.64212" lon="3.94379">
        <ele>41.5</ele>
        <time>2015-10-17T06:22:10Z</time>
      </trkpt>
      <trkpt lat="43.64217" lon="3.94395">
        <ele>41.5</ele>
        <time>2015-10-17T06:22:11Z</time>
      </trkpt>
      <trkpt lat="43.64221" lon="3.94413">
        <ele>41</ele>
        <time>2015-10-17T06:22:12Z</time>
      </trkpt>
      <trkpt lat="43.64283" lon="3.9463">
        <ele>40</ele>
        <time>2015-10-17T06:22:23Z</time>
      </trkpt>
      <trkpt lat="43.64371" lon="3.94931">
        <ele>39.1</ele>
        <time>2015-10-17T06:22:36Z</time>
      </trkpt>
      <trkpt lat="43.64421" lon="3.95082">
        <ele>39.6</ele>
        <time>2015-10-17T06:22:42Z</time>
      </trkpt>
      <trkpt lat="43.64433" lon="3.95103">
        <ele>39.6</ele>
        <time>2015-10-17T06:22:43Z</time>
      </trkpt>
      <trkpt lat="43.64447" lon="3.95123">
        <ele>39.1</ele>
        <time>2015-10-17T06:22:44Z</time>
      </trkpt>
      <trkpt lat="43.64464" lon="3.95142">
        <ele>39.1</ele>
        <time>2015-10-17T06:22:45Z</time>
      </trkpt>
      <trkpt lat="43.64482" lon="3.9516">
        <ele>39.1</ele>
        <time>2015-10-17T06:22:46Z</time>
      </trkpt>
      <trkpt lat="43.64766" lon="3.9543">
        <ele>41.5</ele>
        <time>2015-10-17T06:23:01Z</time>
      </trkpt>
      <trkpt lat="43.6494" lon="3.95673">
        <ele>44.8</ele>
        <time>2015-10-17T06:23:12Z</time>
      </trkpt>
      <trkpt lat="43.65059" lon="3.9586">
        <ele>45.3</ele>
        <time>2015-10-17T06:23:21Z</time>
      </trkpt>
      <trkpt lat="43.65207" lon="3.96121">
        <ele>45.8</ele>
        <time>2015-10-17T06:23:33Z</time>
      </trkpt>
      <trkpt lat="43.65364" lon="3.96411">
        <ele>47.7</ele>
        <time>2015-10-17T06:23:46Z</time>
      </trkpt>
      <trkpt lat="43.65372" lon="3.96437">
        <ele>47.7</ele>
        <time>2015-10-17T06:23:47Z</time>
      </trkpt>
      <trkpt lat="43.65379" lon="3.96463">
        <ele>47.7</ele>
        <time>2015-10-17T06:23:48Z</time>
      </trkpt>
      <trkpt lat="43.65384" lon="3.96488">
        <ele>47.7</ele>
        <time>2015-10-17T06:23:49Z</time>
      </trkpt>
      <trkpt lat="43.65388" lon="3.96512">
        <ele>47.2</ele>
        <time>2015-10-17T06:23:50Z</time>
      </trkpt>
      <trkpt lat="43.6539" lon="3.96536">
        <ele>47.2</ele>
        <time>2015-10-17T06:23:51Z</time>
      </trkpt>
      <trkpt lat="43.65391" lon="3.96559">
        <ele>47.2</ele>
        <time>2015-10-17T06:23:52Z</time>
      </trkpt>
      <trkpt lat="43.65387" lon="3.96754">
        <ele>44.4</ele>
        <time>2015-10-17T06:24:02Z</time>
      </trkpt>
      <trkpt lat="43.6538" lon="3.96915">
        <ele>41.5</ele>
        <time>2015-10-17T06:24:12Z</time>
      </trkpt>
      <trkpt lat="43.65347" lon="3.97079">
        <ele>40.5</ele>
        <time>2015-10-17T06:24:22Z</time>
      </trkpt>
      <trkpt lat="43.65269" lon="3.97314">
        <ele>40</ele>
        <time>2015-10-17T06:24:35Z</time>
      </trkpt>
      <trkpt lat="43.65244" lon="3.97459">
        <ele>39.6</ele>
        <time>2015-10-17T06:24:43Z</time>
      </trkpt>
      <trkpt lat="43.65228" lon="3.97536">
        <ele>38.1</ele>
        <time>2015-10-17T06:24:49Z</time>
      </trkpt>
      <trkpt lat="43.65222" lon="3.97546">
        <ele>38.1</ele>
        <time>2015-10-17T06:24:50Z</time>
      </trkpt>
      <trkpt lat="43.6521" lon="3.97565">
        <ele>37.6</ele>
        <time>2015-10-17T06:24:52Z</time>
      </trkpt>
      <trkpt lat="43.65206" lon="3.97576">
        <ele>37.6</ele>
        <time>2015-10-17T06:24:53Z</time>
      </trkpt>
      <trkpt lat="43.65203" lon="3.97588">
        <ele>37.6</ele>
        <time>2015-10-17T06:24:54Z</time>
      </trkpt>
      <trkpt lat="43.65203" lon="3.97601">
        <ele>37.2</ele>
        <time>2015-10-17T06:24:55Z</time>
      </trkpt>
      <trkpt lat="43.65204" lon="3.97614">
        <ele>37.2</ele>
        <time>2015-10-17T06:24:56Z</time>
      </trkpt>
      <trkpt lat="43.65208" lon="3.97626">
        <ele>37.2</ele>
        <time>2015-10-17T06:24:57Z</time>
      </trkpt>
      <trkpt lat="43.65214" lon="3.97637">
        <ele>37.2</ele>
        <time>2015-10-17T06:24:58Z</time>
      </trkpt>
      <trkpt lat="43.65222" lon="3.97647">
        <ele>37.2</ele>
        <time>2015-10-17T06:24:59Z</time>
      </trkpt>
      <trkpt lat="43.65231" lon="3.97659">
        <ele>37.2</ele>
        <time>2015-10-17T06:25:00Z</time>
      </trkpt>
      <trkpt lat="43.65239" lon="3.97672">
        <ele>37.6</ele>
        <time>2015-10-17T06:25:01Z</time>
      </trkpt>
      <trkpt lat="43.65246" lon="3.97687">
        <ele>37.6</ele>
        <time>2015-10-17T06:25:02Z</time>
      </trkpt>
      <trkpt lat="43.6525" lon="3.97704">
        <ele>37.6</ele>
        <time>2015-10-17T06:25:03Z</time>
      </trkpt>
      <trkpt lat="43.65281" lon="3.97904">
        <ele>37.2</ele>
        <time>2015-10-17T06:25:12Z</time>
      </trkpt>
      <trkpt lat="43.65339" lon="3.98188">
        <ele>38.1</ele>
        <time>2015-10-17T06:25:23Z</time>
      </trkpt>
      <trkpt lat="43.65435" lon="3.98574">
        <ele>38.1</ele>
        <time>2015-10-17T06:25:38Z</time>
      </trkpt>
      <trkpt lat="43.65491" lon="3.98849">
        <ele>41</ele>
        <time>2015-10-17T06:25:50Z</time>
      </trkpt>
      <trkpt lat="43.65501" lon="3.98973">
        <ele>43.4</ele>
        <time>2015-10-17T06:25:57Z</time>
      </trkpt>
      <trkpt lat="43.655" lon="3.98993">
        <ele>43.9</ele>
        <time>2015-10-17T06:26:03Z</time>
      </trkpt>
      <trkpt lat="43.65498" lon="3.98995">
        <ele>43.4</ele>
        <time>2015-10-17T06:26:07Z</time>
      </trkpt>
      <trkpt lat="43.65495" lon="3.99">
        <ele>43.4</ele>
        <time>2015-10-17T06:26:08Z</time>
      </trkpt>
      <trkpt lat="43.65492" lon="3.99007">
        <ele>43.4</ele>
        <time>2015-10-17T06:26:09Z</time>
      </trkpt>
      <trkpt lat="43.65488" lon="3.99018">
        <ele>42.9</ele>
        <time>2015-10-17T06:26:10Z</time>
      </trkpt>
      <trkpt lat="43.65487" lon="3.9903">
        <ele>42.9</ele>
        <time>2015-10-17T06:26:11Z</time>
      </trkpt>
      <trkpt lat="43.65489" lon="3.9904">
        <ele>43.4</ele>
        <time>2015-10-17T06:26:12Z</time>
      </trkpt>
      <trkpt lat="43.65493" lon="3.99051">
        <ele>43.4</ele>
        <time>2015-10-17T06:26:13Z</time>
      </trkpt>
      <trkpt lat="43.65498" lon="3.99063">
        <ele>43.9</ele>
        <time>2015-10-17T06:26:14Z</time>
      </trkpt>
      <trkpt lat="43.65501" lon="3.99079">
        <ele>43.9</ele>
        <time>2015-10-17T06:26:15Z</time>
      </trkpt>
      <trkpt lat="43.65503" lon="3.99097">
        <ele>44.4</ele>
        <time>2015-10-17T06:26:16Z</time>
      </trkpt>
      <trkpt lat="43.65502" lon="3.99117">
        <ele>44.4</ele>
        <time>2015-10-17T06:26:17Z</time>
      </trkpt>
      <trkpt lat="43.65501" lon="3.9914">
        <ele>44.4</ele>
        <time>2015-10-17T06:26:18Z</time>
      </trkpt>
      <trkpt lat="43.65498" lon="3.99162">
        <ele>44.4</ele>
        <time>2015-10-17T06:26:19Z</time>
      </trkpt>
      <trkpt lat="43.65458" lon="3.99402">
        <ele>44.4</ele>
        <time>2015-10-17T06:26:29Z</time>
      </trkpt>
      <trkpt lat="43.65433" lon="3.99616">
        <ele>42</ele>
        <time>2015-10-17T06:26:38Z</time>
      </trkpt>
      <trkpt lat="43.65438" lon="3.99847">
        <ele>36.7</ele>
        <time>2015-10-17T06:26:48Z</time>
      </trkpt>
      <trkpt lat="43.65455" lon="3.99999">
        <ele>33.3</ele>
        <time>2015-10-17T06:26:57Z</time>
      </trkpt>
      <trkpt lat="43.65453" lon="4.00008">
        <ele>32.8</ele>
        <time>2015-10-17T06:26:58Z</time>
      </trkpt>
      <trkpt lat="43.65449" lon="4.00015">
        <ele>32.8</ele>
        <time>2015-10-17T06:26:59Z</time>
      </trkpt>
      <trkpt lat="43.65444" lon="4.00022">
        <ele>32.3</ele>
        <time>2015-10-17T06:27:00Z</time>
      </trkpt>
      <trkpt lat="43.65435" lon="4.00028">
        <ele>31.9</ele>
        <time>2015-10-17T06:27:01Z</time>
      </trkpt>
      <trkpt lat="43.65426" lon="4.00036">
        <ele>31.9</ele>
        <time>2015-10-17T06:27:02Z</time>
      </trkpt>
      <trkpt lat="43.65418" lon="4.00047">
        <ele>31.4</ele>
        <time>2015-10-17T06:27:03Z</time>
      </trkpt>
      <trkpt lat="43.65413" lon="4.00061">
        <ele>30.9</ele>
        <time>2015-10-17T06:27:04Z</time>
      </trkpt>
      <trkpt lat="43.6541" lon="4.00075">
        <ele>30.9</ele>
        <time>2015-10-17T06:27:05Z</time>
      </trkpt>
      <trkpt lat="43.65413" lon="4.00106">
        <ele>30.4</ele>
        <time>2015-10-17T06:27:07Z</time>
      </trkpt>
      <trkpt lat="43.65421" lon="4.00117">
        <ele>30.4</ele>
        <time>2015-10-17T06:27:08Z</time>
      </trkpt>
      <trkpt lat="43.6543" lon="4.00125">
        <ele>30.9</ele>
        <time>2015-10-17T06:27:09Z</time>
      </trkpt>
      <trkpt lat="43.65439" lon="4.00131">
        <ele>30.9</ele>
        <time>2015-10-17T06:27:10Z</time>
      </trkpt>
      <trkpt lat="43.6545" lon="4.00134">
        <ele>30.9</ele>
        <time>2015-10-17T06:27:11Z</time>
      </trkpt>
      <trkpt lat="43.6546" lon="4.00136">
        <ele>30.9</ele>
        <time>2015-10-17T06:27:12Z</time>
      </trkpt>
      <trkpt lat="43.6547" lon="4.00135">
        <ele>30.9</ele>
        <time>2015-10-17T06:27:13Z</time>
      </trkpt>
      <trkpt lat="43.65479" lon="4.00133">
        <ele>30.9</ele>
        <time>2015-10-17T06:27:14Z</time>
      </trkpt>
      <trkpt lat="43.65487" lon="4.0013">
        <ele>30.9</ele>
        <time>2015-10-17T06:27:15Z</time>
      </trkpt>
      <trkpt lat="43.65495" lon="4.00125">
        <ele>30.9</ele>
        <time>2015-10-17T06:27:16Z</time>
      </trkpt>
      <trkpt lat="43.65503" lon="4.00119">
        <ele>30.9</ele>
        <time>2015-10-17T06:27:17Z</time>
      </trkpt>
      <trkpt lat="43.65509" lon="4.00111">
        <ele>30.4</ele>
        <time>2015-10-17T06:27:18Z</time>
      </trkpt>
      <trkpt lat="43.65514" lon="4.00101">
        <ele>30.4</ele>
        <time>2015-10-17T06:27:19Z</time>
      </trkpt>
      <trkpt lat="43.65517" lon="4.00089">
        <ele>29.9</ele>
        <time>2015-10-17T06:27:20Z</time>
      </trkpt>
      <trkpt lat="43.65519" lon="4.00077">
        <ele>29.9</ele>
        <time>2015-10-17T06:27:21Z</time>
      </trkpt>
      <trkpt lat="43.65521" lon="4.00064">
        <ele>29.9</ele>
        <time>2015-10-17T06:27:22Z</time>
      </trkpt>
      <trkpt lat="43.65522" lon="4.00052">
        <ele>29.9</ele>
        <time>2015-10-17T06:27:23Z</time>
      </trkpt>
      <trkpt lat="43.65526" lon="4.00041">
        <ele>29.9</ele>
        <time>2015-10-17T06:27:24Z</time>
      </trkpt>
      <trkpt lat="43.65531" lon="4.00031">
        <ele>29.9</ele>
        <time>2015-10-17T06:27:25Z</time>
      </trkpt>
      <trkpt lat="43.65537" lon="4.00023">
        <ele>29.9</ele>
        <time>2015-10-17T06:27:26Z</time>
      </trkpt>
      <trkpt lat="43.65543" lon="4.00016">
        <ele>30.4</ele>
        <time>2015-10-17T06:27:27Z</time>
      </trkpt>
      <trkpt lat="43.6555" lon="4.0001">
        <ele>30.4</ele>
        <time>2015-10-17T06:27:28Z</time>
      </trkpt>
      <trkpt lat="43.65576" lon="3.99983">
        <ele>31.4</ele>
        <time>2015-10-17T06:27:35Z</time>
      </trkpt>
      <trkpt lat="43.65575" lon="3.9998">
        <ele>32.3</ele>
        <time>2015-10-17T06:27:40Z</time>
      </trkpt>
      <trkpt lat="43.65574" lon="3.99976">
        <ele>31.9</ele>
        <time>2015-10-17T06:27:41Z</time>
      </trkpt>
      <trkpt lat="43.65572" lon="3.99971">
        <ele>32.3</ele>
        <time>2015-10-17T06:27:42Z</time>
      </trkpt>
      <trkpt lat="43.6557" lon="3.99966">
        <ele>32.3</ele>
        <time>2015-10-17T06:27:43Z</time>
      </trkpt>
      <trkpt lat="43.65568" lon="3.9996">
        <ele>32.3</ele>
        <time>2015-10-17T06:27:44Z</time>
      </trkpt>
      <trkpt lat="43.65553" lon="3.99926">
        <ele>33.3</ele>
        <time>2015-10-17T06:27:50Z</time>
      </trkpt>
      <trkpt lat="43.6555" lon="3.99922">
        <ele>33.3</ele>
        <time>2015-10-17T06:27:51Z</time>
      </trkpt>
      <trkpt lat="43.65547" lon="3.99921">
        <ele>33.3</ele>
        <time>2015-10-17T06:27:52Z</time>
      </trkpt>
      <trkpt lat="43.65543" lon="3.99925">
        <ele>32.8</ele>
        <time>2015-10-17T06:27:54Z</time>
      </trkpt>
      <trkpt lat="43.65543" lon="3.99928">
        <ele>32.8</ele>
        <time>2015-10-17T06:27:55Z</time>
      </trkpt>
      <trkpt lat="43.65543" lon="3.99932">
        <ele>34.3</ele>
        <time>2015-10-17T06:28:12Z</time>
      </trkpt>
      <trkpt lat="43.65543" lon="3.99932">
        <ele>34.3</ele>
        <time>2015-10-17T06:28:34Z</time>
      </trkpt>
      <trkpt lat="43.65542" lon="3.99945">
        <ele>32.8</ele>
        <time>2015-10-17T06:51:48Z</time>
      </trkpt>
      <trkpt lat="43.65543" lon="3.99958">
        <ele>32.8</ele>
        <time>2015-10-17T06:52:02Z</time>
      </trkpt>
      <trkpt lat="43.65545" lon="3.99977">
        <ele>32.8</ele>
        <time>2015-10-17T06:52:05Z</time>
      </trkpt>
      <trkpt lat="43.65542" lon="4.0001">
        <ele>32.3</ele>
        <time>2015-10-17T06:52:13Z</time>
      </trkpt>
      <trkpt lat="43.65538" lon="4.00017">
        <ele>32.3</ele>
        <time>2015-10-17T06:52:15Z</time>
      </trkpt>
      <trkpt lat="43.65533" lon="4.00021">
        <ele>32.3</ele>
        <time>2015-10-17T06:52:16Z</time>
      </trkpt>
      <trkpt lat="43.65523" lon="4.00029">
        <ele>31.9</ele>
        <time>2015-10-17T06:52:18Z</time>
      </trkpt>
      <trkpt lat="43.65517" lon="4.00031">
        <ele>31.4</ele>
        <time>2015-10-17T06:52:19Z</time>
      </trkpt>
      <trkpt lat="43.6551" lon="4.00031">
        <ele>31.4</ele>
        <time>2015-10-17T06:52:20Z</time>
      </trkpt>
      <trkpt lat="43.65503" lon="4.00027">
        <ele>31.4</ele>
        <time>2015-10-17T06:52:21Z</time>
      </trkpt>
      <trkpt lat="43.65496" lon="4.00022">
        <ele>30.9</ele>
        <time>2015-10-17T06:52:22Z</time>
      </trkpt>
      <trkpt lat="43.65488" lon="4.00017">
        <ele>31.4</ele>
        <time>2015-10-17T06:52:23Z</time>
      </trkpt>
      <trkpt lat="43.65472" lon="4.00002">
        <ele>31.4</ele>
        <time>2015-10-17T06:52:25Z</time>
      </trkpt>
      <trkpt lat="43.65461" lon="3.99975">
        <ele>31.4</ele>
        <time>2015-10-17T06:52:27Z</time>
      </trkpt>
      <trkpt lat="43.65459" lon="3.99958">
        <ele>30.9</ele>
        <time>2015-10-17T06:52:28Z</time>
      </trkpt>
      <trkpt lat="43.65458" lon="3.99941">
        <ele>30.9</ele>
        <time>2015-10-17T06:52:29Z</time>
      </trkpt>
      <trkpt lat="43.65456" lon="3.99925">
        <ele>31.4</ele>
        <time>2015-10-17T06:52:30Z</time>
      </trkpt>
      <trkpt lat="43.65439" lon="3.99738">
        <ele>35.7</ele>
        <time>2015-10-17T06:52:40Z</time>
      </trkpt>
      <trkpt lat="43.65449" lon="3.99524">
        <ele>40</ele>
        <time>2015-10-17T06:52:49Z</time>
      </trkpt>
      <trkpt lat="43.65503" lon="3.99182">
        <ele>42.4</ele>
        <time>2015-10-17T06:53:03Z</time>
      </trkpt>
      <trkpt lat="43.65511" lon="3.99064">
        <ele>42</ele>
        <time>2015-10-17T06:53:10Z</time>
      </trkpt>
      <trkpt lat="43.65514" lon="3.99055">
        <ele>42.4</ele>
        <time>2015-10-17T06:53:11Z</time>
      </trkpt>
      <trkpt lat="43.65519" lon="3.99047">
        <ele>42.4</ele>
        <time>2015-10-17T06:53:12Z</time>
      </trkpt>
      <trkpt lat="43.65524" lon="3.99038">
        <ele>42.9</ele>
        <time>2015-10-17T06:53:13Z</time>
      </trkpt>
      <trkpt lat="43.65528" lon="3.99029">
        <ele>42.9</ele>
        <time>2015-10-17T06:53:14Z</time>
      </trkpt>
      <trkpt lat="43.6553" lon="3.99018">
        <ele>42.9</ele>
        <time>2015-10-17T06:53:15Z</time>
      </trkpt>
      <trkpt lat="43.65529" lon="3.99008">
        <ele>42.9</ele>
        <time>2015-10-17T06:53:16Z</time>
      </trkpt>
      <trkpt lat="43.65526" lon="3.98998">
        <ele>42.4</ele>
        <time>2015-10-17T06:53:17Z</time>
      </trkpt>
      <trkpt lat="43.6552" lon="3.98989">
        <ele>42</ele>
        <time>2015-10-17T06:53:18Z</time>
      </trkpt>
      <trkpt lat="43.65514" lon="3.9898">
        <ele>42</ele>
        <time>2015-10-17T06:53:19Z</time>
      </trkpt>
      <trkpt lat="43.65509" lon="3.98968">
        <ele>41.5</ele>
        <time>2015-10-17T06:53:20Z</time>
      </trkpt>
      <trkpt lat="43.65505" lon="3.98953">
        <ele>41.5</ele>
        <time>2015-10-17T06:53:21Z</time>
      </trkpt>
      <trkpt lat="43.65503" lon="3.98937">
        <ele>41</ele>
        <time>2015-10-17T06:53:22Z</time>
      </trkpt>
      <trkpt lat="43.65501" lon="3.98919">
        <ele>40.5</ele>
        <time>2015-10-17T06:53:23Z</time>
      </trkpt>
      <trkpt lat="43.65483" lon="3.98754">
        <ele>37.6</ele>
        <time>2015-10-17T06:53:31Z</time>
      </trkpt>
      <trkpt lat="43.65412" lon="3.98451">
        <ele>34.7</ele>
        <time>2015-10-17T06:53:45Z</time>
      </trkpt>
      <trkpt lat="43.65398" lon="3.98386">
        <ele>34.7</ele>
        <time>2015-10-17T06:53:48Z</time>
      </trkpt>
      <trkpt lat="43.65397" lon="3.98364">
        <ele>34.7</ele>
        <time>2015-10-17T06:53:49Z</time>
      </trkpt>
      <trkpt lat="43.65398" lon="3.98342">
        <ele>35.2</ele>
        <time>2015-10-17T06:53:50Z</time>
      </trkpt>
      <trkpt lat="43.65403" lon="3.98322">
        <ele>35.7</ele>
        <time>2015-10-17T06:53:51Z</time>
      </trkpt>
      <trkpt lat="43.6541" lon="3.98304">
        <ele>36.7</ele>
        <time>2015-10-17T06:53:52Z</time>
      </trkpt>
      <trkpt lat="43.65421" lon="3.98288">
        <ele>37.6</ele>
        <time>2015-10-17T06:53:53Z</time>
      </trkpt>
      <trkpt lat="43.65434" lon="3.98275">
        <ele>38.1</ele>
        <time>2015-10-17T06:53:54Z</time>
      </trkpt>
      <trkpt lat="43.65447" lon="3.98263">
        <ele>39.1</ele>
        <time>2015-10-17T06:53:55Z</time>
      </trkpt>
      <trkpt lat="43.6546" lon="3.98255">
        <ele>39.6</ele>
        <time>2015-10-17T06:53:56Z</time>
      </trkpt>
      <trkpt lat="43.65478" lon="3.98247">
        <ele>40</ele>
        <time>2015-10-17T06:53:58Z</time>
      </trkpt>
      <trkpt lat="43.65486" lon="3.98245">
        <ele>39.6</ele>
        <time>2015-10-17T06:53:59Z</time>
      </trkpt>
      <trkpt lat="43.65495" lon="3.98242">
        <ele>39.6</ele>
        <time>2015-10-17T06:54:00Z</time>
      </trkpt>
      <trkpt lat="43.65503" lon="3.98235">
        <ele>39.1</ele>
        <time>2015-10-17T06:54:01Z</time>
      </trkpt>
      <trkpt lat="43.65509" lon="3.98225">
        <ele>39.1</ele>
        <time>2015-10-17T06:54:02Z</time>
      </trkpt>
      <trkpt lat="43.65515" lon="3.98214">
        <ele>38.6</ele>
        <time>2015-10-17T06:54:03Z</time>
      </trkpt>
      <trkpt lat="43.65523" lon="3.98204">
        <ele>38.6</ele>
        <time>2015-10-17T06:54:04Z</time>
      </trkpt>
      <trkpt lat="43.65533" lon="3.98196">
        <ele>38.6</ele>
        <time>2015-10-17T06:54:05Z</time>
      </trkpt>
      <trkpt lat="43.65544" lon="3.9819">
        <ele>38.1</ele>
        <time>2015-10-17T06:54:06Z</time>
      </trkpt>
      <trkpt lat="43.65691" lon="3.98146">
        <ele>37.2</ele>
        <time>2015-10-17T06:54:17Z</time>
      </trkpt>
      <trkpt lat="43.65886" lon="3.98098">
        <ele>38.6</ele>
        <time>2015-10-17T06:54:30Z</time>
      </trkpt>
      <trkpt lat="43.66051" lon="3.97987">
        <ele>39.1</ele>
        <time>2015-10-17T06:54:41Z</time>
      </trkpt>
      <trkpt lat="43.66215" lon="3.9791">
        <ele>41</ele>
        <time>2015-10-17T06:54:51Z</time>
      </trkpt>
      <trkpt lat="43.66349" lon="3.97855">
        <ele>42.4</ele>
        <time>2015-10-17T06:54:59Z</time>
      </trkpt>
      <trkpt lat="43.6652" lon="3.97774">
        <ele>44.8</ele>
        <time>2015-10-17T06:55:09Z</time>
      </trkpt>
      <trkpt lat="43.66687" lon="3.97703">
        <ele>48.2</ele>
        <time>2015-10-17T06:55:19Z</time>
      </trkpt>
      <trkpt lat="43.66778" lon="3.976">
        <ele>46.8</ele>
        <time>2015-10-17T06:55:27Z</time>
      </trkpt>
      <trkpt lat="43.66808" lon="3.97575">
        <ele>46.8</ele>
        <time>2015-10-17T06:55:30Z</time>
      </trkpt>
      <trkpt lat="43.66819" lon="3.97571">
        <ele>46.8</ele>
        <time>2015-10-17T06:55:31Z</time>
      </trkpt>
      <trkpt lat="43.66831" lon="3.97569">
        <ele>46.8</ele>
        <time>2015-10-17T06:55:32Z</time>
      </trkpt>
      <trkpt lat="43.66843" lon="3.97566">
        <ele>46.8</ele>
        <time>2015-10-17T06:55:33Z</time>
      </trkpt>
      <trkpt lat="43.66854" lon="3.97559">
        <ele>46.8</ele>
        <time>2015-10-17T06:55:34Z</time>
      </trkpt>
      <trkpt lat="43.66864" lon="3.9755">
        <ele>46.8</ele>
        <time>2015-10-17T06:55:35Z</time>
      </trkpt>
      <trkpt lat="43.66875" lon="3.97542">
        <ele>47.2</ele>
        <time>2015-10-17T06:55:36Z</time>
      </trkpt>
      <trkpt lat="43.66886" lon="3.97539">
        <ele>47.2</ele>
        <time>2015-10-17T06:55:37Z</time>
      </trkpt>
      <trkpt lat="43.66897" lon="3.97542">
        <ele>47.2</ele>
        <time>2015-10-17T06:55:38Z</time>
      </trkpt>
      <trkpt lat="43.66909" lon="3.97548">
        <ele>47.2</ele>
        <time>2015-10-17T06:55:39Z</time>
      </trkpt>
      <trkpt lat="43.6692" lon="3.97556">
        <ele>47.7</ele>
        <time>2015-10-17T06:55:40Z</time>
      </trkpt>
      <trkpt lat="43.66932" lon="3.97566">
        <ele>47.7</ele>
        <time>2015-10-17T06:55:41Z</time>
      </trkpt>
      <trkpt lat="43.66943" lon="3.97577">
        <ele>47.7</ele>
        <time>2015-10-17T06:55:42Z</time>
      </trkpt>
      <trkpt lat="43.66955" lon="3.97589">
        <ele>47.7</ele>
        <time>2015-10-17T06:55:43Z</time>
      </trkpt>
      <trkpt lat="43.66965" lon="3.97603">
        <ele>47.7</ele>
        <time>2015-10-17T06:55:44Z</time>
      </trkpt>
      <trkpt lat="43.66976" lon="3.97618">
        <ele>48.2</ele>
        <time>2015-10-17T06:55:45Z</time>
      </trkpt>
      <trkpt lat="43.66985" lon="3.97635">
        <ele>48.2</ele>
        <time>2015-10-17T06:55:46Z</time>
      </trkpt>
      <trkpt lat="43.66994" lon="3.97652">
        <ele>48.2</ele>
        <time>2015-10-17T06:55:47Z</time>
      </trkpt>
      <trkpt lat="43.67124" lon="3.97902">
        <ele>47.2</ele>
        <time>2015-10-17T06:56:01Z</time>
      </trkpt>
      <trkpt lat="43.67228" lon="3.98086">
        <ele>49.2</ele>
        <time>2015-10-17T06:56:12Z</time>
      </trkpt>
      <trkpt lat="43.67346" lon="3.98198">
        <ele>49.2</ele>
        <time>2015-10-17T06:56:22Z</time>
      </trkpt>
      <trkpt lat="43.67401" lon="3.98248">
        <ele>50.1</ele>
        <time>2015-10-17T06:56:28Z</time>
      </trkpt>
      <trkpt lat="43.67409" lon="3.98252">
        <ele>50.1</ele>
        <time>2015-10-17T06:56:29Z</time>
      </trkpt>
      <trkpt lat="43.67418" lon="3.98252">
        <ele>50.1</ele>
        <time>2015-10-17T06:56:30Z</time>
      </trkpt>
      <trkpt lat="43.67426" lon="3.98251">
        <ele>50.6</ele>
        <time>2015-10-17T06:56:31Z</time>
      </trkpt>
      <trkpt lat="43.67435" lon="3.98252">
        <ele>50.6</ele>
        <time>2015-10-17T06:56:32Z</time>
      </trkpt>
      <trkpt lat="43.67443" lon="3.98255">
        <ele>51.1</ele>
        <time>2015-10-17T06:56:33Z</time>
      </trkpt>
      <trkpt lat="43.67452" lon="3.9826">
        <ele>51.6</ele>
        <time>2015-10-17T06:56:34Z</time>
      </trkpt>
      <trkpt lat="43.67461" lon="3.98266">
        <ele>51.6</ele>
        <time>2015-10-17T06:56:35Z</time>
      </trkpt>
      <trkpt lat="43.67586" lon="3.98353">
        <ele>54.5</ele>
        <time>2015-10-17T06:56:48Z</time>
      </trkpt>
      <trkpt lat="43.67624" lon="3.98376">
        <ele>56.9</ele>
        <time>2015-10-17T06:56:53Z</time>
      </trkpt>
      <trkpt lat="43.67632" lon="3.98379">
        <ele>56.4</ele>
        <time>2015-10-17T06:56:54Z</time>
      </trkpt>
      <trkpt lat="43.6764" lon="3.9838">
        <ele>56.9</ele>
        <time>2015-10-17T06:56:55Z</time>
      </trkpt>
      <trkpt lat="43.67677" lon="3.98377">
        <ele>59.7</ele>
        <time>2015-10-17T06:57:04Z</time>
      </trkpt>
      <trkpt lat="43.67718" lon="3.98376">
        <ele>61.2</ele>
        <time>2015-10-17T06:57:13Z</time>
      </trkpt>
      <trkpt lat="43.67803" lon="3.98386">
        <ele>66.5</ele>
        <time>2015-10-17T06:57:25Z</time>
      </trkpt>
      <trkpt lat="43.6781" lon="3.9839">
        <ele>67.4</ele>
        <time>2015-10-17T06:57:26Z</time>
      </trkpt>
      <trkpt lat="43.67817" lon="3.98396">
        <ele>68.4</ele>
        <time>2015-10-17T06:57:27Z</time>
      </trkpt>
      <trkpt lat="43.67824" lon="3.98402">
        <ele>68.4</ele>
        <time>2015-10-17T06:57:28Z</time>
      </trkpt>
      <trkpt lat="43.67831" lon="3.98409">
        <ele>68.9</ele>
        <time>2015-10-17T06:57:29Z</time>
      </trkpt>
      <trkpt lat="43.67837" lon="3.98416">
        <ele>68.9</ele>
        <time>2015-10-17T06:57:30Z</time>
      </trkpt>
      <trkpt lat="43.67843" lon="3.98425">
        <ele>69.8</ele>
        <time>2015-10-17T06:57:31Z</time>
      </trkpt>
      <trkpt lat="43.67848" lon="3.98436">
        <ele>70.8</ele>
        <time>2015-10-17T06:57:32Z</time>
      </trkpt>
      <trkpt lat="43.67909" lon="3.98573">
        <ele>74.6</ele>
        <time>2015-10-17T06:57:44Z</time>
      </trkpt>
      <trkpt lat="43.67967" lon="3.98749">
        <ele>66</ele>
        <time>2015-10-17T06:57:59Z</time>
      </trkpt>
      <trkpt lat="43.68017" lon="3.98867">
        <ele>62.6</ele>
        <time>2015-10-17T06:58:09Z</time>
      </trkpt>
      <trkpt lat="43.68118" lon="3.99045">
        <ele>55.4</ele>
        <time>2015-10-17T06:58:24Z</time>
      </trkpt>
      <trkpt lat="43.68189" lon="3.99166">
        <ele>54.9</ele>
        <time>2015-10-17T06:58:34Z</time>
      </trkpt>
      <trkpt lat="43.68308" lon="3.99296">
        <ele>50.6</ele>
        <time>2015-10-17T06:58:44Z</time>
      </trkpt>
      <trkpt lat="43.68452" lon="3.99468">
        <ele>48.2</ele>
        <time>2015-10-17T06:58:55Z</time>
      </trkpt>
      <trkpt lat="43.68468" lon="3.9948">
        <ele>48.2</ele>
        <time>2015-10-17T06:58:56Z</time>
      </trkpt>
      <trkpt lat="43.68648" lon="3.99592">
        <ele>49.7</ele>
        <time>2015-10-17T06:59:07Z</time>
      </trkpt>
      <trkpt lat="43.68801" lon="3.9972">
        <ele>50.1</ele>
        <time>2015-10-17T06:59:17Z</time>
      </trkpt>
      <trkpt lat="43.68813" lon="3.99735">
        <ele>50.6</ele>
        <time>2015-10-17T06:59:18Z</time>
      </trkpt>
      <trkpt lat="43.68823" lon="3.99753">
        <ele>50.6</ele>
        <time>2015-10-17T06:59:19Z</time>
      </trkpt>
      <trkpt lat="43.68832" lon="3.99772">
        <ele>50.6</ele>
        <time>2015-10-17T06:59:20Z</time>
      </trkpt>
      <trkpt lat="43.68838" lon="3.99794">
        <ele>50.6</ele>
        <time>2015-10-17T06:59:21Z</time>
      </trkpt>
      <trkpt lat="43.68844" lon="3.99817">
        <ele>50.6</ele>
        <time>2015-10-17T06:59:22Z</time>
      </trkpt>
      <trkpt lat="43.68911" lon="4.00073">
        <ele>51.6</ele>
        <time>2015-10-17T06:59:33Z</time>
      </trkpt>
      <trkpt lat="43.68921" lon="4.00094">
        <ele>51.6</ele>
        <time>2015-10-17T06:59:34Z</time>
      </trkpt>
      <trkpt lat="43.69034" lon="4.00325">
        <ele>50.1</ele>
        <time>2015-10-17T06:59:46Z</time>
      </trkpt>
      <trkpt lat="43.6908" lon="4.00554">
        <ele>46.3</ele>
        <time>2015-10-17T06:59:56Z</time>
      </trkpt>
      <trkpt lat="43.69097" lon="4.00618">
        <ele>45.8</ele>
        <time>2015-10-17T06:59:59Z</time>
      </trkpt>
      <trkpt lat="43.69106" lon="4.00638">
        <ele>45.8</ele>
        <time>2015-10-17T07:00:00Z</time>
      </trkpt>
      <trkpt lat="43.69115" lon="4.00657">
        <ele>45.3</ele>
        <time>2015-10-17T07:00:01Z</time>
      </trkpt>
      <trkpt lat="43.69126" lon="4.00675">
        <ele>45.3</ele>
        <time>2015-10-17T07:00:02Z</time>
      </trkpt>
      <trkpt lat="43.69138" lon="4.00692">
        <ele>45.3</ele>
        <time>2015-10-17T07:00:03Z</time>
      </trkpt>
      <trkpt lat="43.69301" lon="4.00929">
        <ele>43.4</ele>
        <time>2015-10-17T07:00:18Z</time>
      </trkpt>
      <trkpt lat="43.6944" lon="4.01158">
        <ele>43.9</ele>
        <time>2015-10-17T07:00:31Z</time>
      </trkpt>
      <trkpt lat="43.69576" lon="4.01362">
        <ele>46.3</ele>
        <time>2015-10-17T07:00:43Z</time>
      </trkpt>
      <trkpt lat="43.69783" lon="4.0161">
        <ele>54</ele>
        <time>2015-10-17T07:00:57Z</time>
      </trkpt>
      <trkpt lat="43.70048" lon="4.0193">
        <ele>66</ele>
        <time>2015-10-17T07:01:15Z</time>
      </trkpt>
      <trkpt lat="43.70153" lon="4.02101">
        <ele>68.9</ele>
        <time>2015-10-17T07:01:23Z</time>
      </trkpt>
      <trkpt lat="43.70341" lon="4.02379">
        <ele>76.6</ele>
        <time>2015-10-17T07:01:36Z</time>
      </trkpt>
      <trkpt lat="43.70499" lon="4.02521">
        <ele>82.8</ele>
        <time>2015-10-17T07:01:45Z</time>
      </trkpt>
      <trkpt lat="43.70856" lon="4.02704">
        <ele>90.5</ele>
        <time>2015-10-17T07:02:03Z</time>
      </trkpt>
      <trkpt lat="43.71131" lon="4.02833">
        <ele>95.8</ele>
        <time>2015-10-17T07:02:16Z</time>
      </trkpt>
      <trkpt lat="43.71273" lon="4.02913">
        <ele>89.1</ele>
        <time>2015-10-17T07:02:23Z</time>
      </trkpt>
      <trkpt lat="43.71503" lon="4.0308">
        <ele>78</ele>
        <time>2015-10-17T07:02:35Z</time>
      </trkpt>
      <trkpt lat="43.71747" lon="4.03284">
        <ele>82.3</ele>
        <time>2015-10-17T07:02:49Z</time>
      </trkpt>
      <trkpt lat="43.71847" lon="4.03411">
        <ele>90</ele>
        <time>2015-10-17T07:02:57Z</time>
      </trkpt>
      <trkpt lat="43.71882" lon="4.03454">
        <ele>91.9</ele>
        <time>2015-10-17T07:03:00Z</time>
      </trkpt>
      <trkpt lat="43.71895" lon="4.03465">
        <ele>91.9</ele>
        <time>2015-10-17T07:03:01Z</time>
      </trkpt>
      <trkpt lat="43.72044" lon="4.03555">
        <ele>91</ele>
        <time>2015-10-17T07:03:12Z</time>
      </trkpt>
      <trkpt lat="43.7212" lon="4.03593">
        <ele>91.9</ele>
        <time>2015-10-17T07:03:18Z</time>
      </trkpt>
      <trkpt lat="43.72132" lon="4.03596">
        <ele>91.9</ele>
        <time>2015-10-17T07:03:19Z</time>
      </trkpt>
      <trkpt lat="43.72143" lon="4.03598">
        <ele>91.9</ele>
        <time>2015-10-17T07:03:20Z</time>
      </trkpt>
      <trkpt lat="43.72207" lon="4.03609">
        <ele>89.1</ele>
        <time>2015-10-17T07:03:26Z</time>
      </trkpt>
      <trkpt lat="43.72268" lon="4.03639">
        <ele>83.8</ele>
        <time>2015-10-17T07:03:33Z</time>
      </trkpt>
      <trkpt lat="43.72275" lon="4.03646">
        <ele>83.3</ele>
        <time>2015-10-17T07:03:34Z</time>
      </trkpt>
      <trkpt lat="43.72282" lon="4.03654">
        <ele>82.8</ele>
        <time>2015-10-17T07:03:35Z</time>
      </trkpt>
      <trkpt lat="43.72287" lon="4.03663">
        <ele>82.8</ele>
        <time>2015-10-17T07:03:36Z</time>
      </trkpt>
      <trkpt lat="43.72292" lon="4.03672">
        <ele>82.8</ele>
        <time>2015-10-17T07:03:37Z</time>
      </trkpt>
      <trkpt lat="43.72323" lon="4.03733">
        <ele>83.8</ele>
        <time>2015-10-17T07:03:45Z</time>
      </trkpt>
      <trkpt lat="43.72366" lon="4.03813">
        <ele>86.2</ele>
        <time>2015-10-17T07:03:54Z</time>
      </trkpt>
      <trkpt lat="43.72387" lon="4.03869">
        <ele>86.7</ele>
        <time>2015-10-17T07:04:02Z</time>
      </trkpt>
      <trkpt lat="43.72388" lon="4.03878">
        <ele>86.7</ele>
        <time>2015-10-17T07:04:03Z</time>
      </trkpt>
      <trkpt lat="43.72389" lon="4.03887">
        <ele>86.2</ele>
        <time>2015-10-17T07:04:04Z</time>
      </trkpt>
      <trkpt lat="43.72392" lon="4.03897">
        <ele>86.2</ele>
        <time>2015-10-17T07:04:05Z</time>
      </trkpt>
      <trkpt lat="43.72396" lon="4.03907">
        <ele>85.7</ele>
        <time>2015-10-17T07:04:06Z</time>
      </trkpt>
      <trkpt lat="43.72403" lon="4.03917">
        <ele>85.7</ele>
        <time>2015-10-17T07:04:07Z</time>
      </trkpt>
      <trkpt lat="43.7241" lon="4.03926">
        <ele>85.2</ele>
        <time>2015-10-17T07:04:08Z</time>
      </trkpt>
      <trkpt lat="43.72418" lon="4.03933">
        <ele>85.2</ele>
        <time>2015-10-17T07:04:09Z</time>
      </trkpt>
      <trkpt lat="43.72427" lon="4.03939">
        <ele>84.7</ele>
        <time>2015-10-17T07:04:10Z</time>
      </trkpt>
      <trkpt lat="43.72512" lon="4.04008">
        <ele>82.8</ele>
        <time>2015-10-17T07:04:21Z</time>
      </trkpt>
      <trkpt lat="43.72639" lon="4.04115">
        <ele>86.2</ele>
        <time>2015-10-17T07:04:32Z</time>
      </trkpt>
      <trkpt lat="43.7281" lon="4.04255">
        <ele>92.4</ele>
        <time>2015-10-17T07:04:45Z</time>
      </trkpt>
      <trkpt lat="43.72991" lon="4.04415">
        <ele>96.8</ele>
        <time>2015-10-17T07:04:57Z</time>
      </trkpt>
      <trkpt lat="43.73074" lon="4.04578">
        <ele>98.2</ele>
        <time>2015-10-17T07:05:05Z</time>
      </trkpt>
      <trkpt lat="43.73166" lon="4.04743">
        <ele>94.8</ele>
        <time>2015-10-17T07:05:14Z</time>
      </trkpt>
      <trkpt lat="43.73255" lon="4.04823">
        <ele>91.5</ele>
        <time>2015-10-17T07:05:22Z</time>
      </trkpt>
      <trkpt lat="43.73355" lon="4.04859">
        <ele>88.6</ele>
        <time>2015-10-17T07:05:28Z</time>
      </trkpt>
      <trkpt lat="43.73564" lon="4.04917">
        <ele>83.3</ele>
        <time>2015-10-17T07:05:39Z</time>
      </trkpt>
      <trkpt lat="43.73788" lon="4.0498">
        <ele>77.5</ele>
        <time>2015-10-17T07:05:50Z</time>
      </trkpt>
      <trkpt lat="43.74155" lon="4.05085">
        <ele>74.6</ele>
        <time>2015-10-17T07:06:07Z</time>
      </trkpt>
      <trkpt lat="43.74426" lon="4.05165">
        <ele>74.2</ele>
        <time>2015-10-17T07:06:21Z</time>
      </trkpt>
      <trkpt lat="43.74553" lon="4.0524">
        <ele>72.7</ele>
        <time>2015-10-17T07:06:29Z</time>
      </trkpt>
      <trkpt lat="43.74756" lon="4.05445">
        <ele>76.1</ele>
        <time>2015-10-17T07:06:43Z</time>
      </trkpt>
      <trkpt lat="43.74858" lon="4.05548">
        <ele>77</ele>
        <time>2015-10-17T07:06:51Z</time>
      </trkpt>
      <trkpt lat="43.7493" lon="4.05637">
        <ele>78</ele>
        <time>2015-10-17T07:06:57Z</time>
      </trkpt>
      <trkpt lat="43.74938" lon="4.05654">
        <ele>78</ele>
        <time>2015-10-17T07:06:58Z</time>
      </trkpt>
      <trkpt lat="43.74946" lon="4.05673">
        <ele>78</ele>
        <time>2015-10-17T07:06:59Z</time>
      </trkpt>
      <trkpt lat="43.74952" lon="4.05693">
        <ele>78.5</ele>
        <time>2015-10-17T07:07:00Z</time>
      </trkpt>
      <trkpt lat="43.74958" lon="4.05713">
        <ele>78.5</ele>
        <time>2015-10-17T07:07:01Z</time>
      </trkpt>
      <trkpt lat="43.74962" lon="4.05735">
        <ele>78.5</ele>
        <time>2015-10-17T07:07:02Z</time>
      </trkpt>
      <trkpt lat="43.74964" lon="4.05757">
        <ele>78.5</ele>
        <time>2015-10-17T07:07:03Z</time>
      </trkpt>
      <trkpt lat="43.74965" lon="4.05779">
        <ele>78.5</ele>
        <time>2015-10-17T07:07:04Z</time>
      </trkpt>
      <trkpt lat="43.74964" lon="4.058">
        <ele>79</ele>
        <time>2015-10-17T07:07:05Z</time>
      </trkpt>
      <trkpt lat="43.74963" lon="4.0582">
        <ele>79</ele>
        <time>2015-10-17T07:07:06Z</time>
      </trkpt>
      <trkpt lat="43.74936" lon="4.06083">
        <ele>80.9</ele>
        <time>2015-10-17T07:07:18Z</time>
      </trkpt>
      <trkpt lat="43.74928" lon="4.06353">
        <ele>74.6</ele>
        <time>2015-10-17T07:07:29Z</time>
      </trkpt>
      <trkpt lat="43.74979" lon="4.06555">
        <ele>69.8</ele>
        <time>2015-10-17T07:07:38Z</time>
      </trkpt>
      <trkpt lat="43.75077" lon="4.06893">
        <ele>61.2</ele>
        <time>2015-10-17T07:07:53Z</time>
      </trkpt>
      <trkpt lat="43.75124" lon="4.07053">
        <ele>58.8</ele>
        <time>2015-10-17T07:08:01Z</time>
      </trkpt>
      <trkpt lat="43.75132" lon="4.07077">
        <ele>58.8</ele>
        <time>2015-10-17T07:08:02Z</time>
      </trkpt>
      <trkpt lat="43.75143" lon="4.071">
        <ele>58.8</ele>
        <time>2015-10-17T07:08:03Z</time>
      </trkpt>
      <trkpt lat="43.75157" lon="4.07121">
        <ele>59.3</ele>
        <time>2015-10-17T07:08:04Z</time>
      </trkpt>
      <trkpt lat="43.75172" lon="4.07141">
        <ele>59.3</ele>
        <time>2015-10-17T07:08:05Z</time>
      </trkpt>
      <trkpt lat="43.75189" lon="4.07161">
        <ele>59.7</ele>
        <time>2015-10-17T07:08:06Z</time>
      </trkpt>
      <trkpt lat="43.75318" lon="4.07318">
        <ele>60.2</ele>
        <time>2015-10-17T07:08:15Z</time>
      </trkpt>
      <trkpt lat="43.75513" lon="4.07544">
        <ele>57.3</ele>
        <time>2015-10-17T07:08:30Z</time>
      </trkpt>
      <trkpt lat="43.75637" lon="4.07647">
        <ele>54</ele>
        <time>2015-10-17T07:08:41Z</time>
      </trkpt>
      <trkpt lat="43.75746" lon="4.07658">
        <ele>47.2</ele>
        <time>2015-10-17T07:08:50Z</time>
      </trkpt>
      <trkpt lat="43.75791" lon="4.07649">
        <ele>46.8</ele>
        <time>2015-10-17T07:08:54Z</time>
      </trkpt>
      <trkpt lat="43.75802" lon="4.07652">
        <ele>46.8</ele>
        <time>2015-10-17T07:08:55Z</time>
      </trkpt>
      <trkpt lat="43.75814" lon="4.07657">
        <ele>46.8</ele>
        <time>2015-10-17T07:08:56Z</time>
      </trkpt>
      <trkpt lat="43.75824" lon="4.07664">
        <ele>45.8</ele>
        <time>2015-10-17T07:08:57Z</time>
      </trkpt>
      <trkpt lat="43.75834" lon="4.07673">
        <ele>45.3</ele>
        <time>2015-10-17T07:08:58Z</time>
      </trkpt>
      <trkpt lat="43.75844" lon="4.07683">
        <ele>44.8</ele>
        <time>2015-10-17T07:08:59Z</time>
      </trkpt>
      <trkpt lat="43.75853" lon="4.07694">
        <ele>44.4</ele>
        <time>2015-10-17T07:09:00Z</time>
      </trkpt>
      <trkpt lat="43.75861" lon="4.07705">
        <ele>43.9</ele>
        <time>2015-10-17T07:09:01Z</time>
      </trkpt>
      <trkpt lat="43.75868" lon="4.07717">
        <ele>43.9</ele>
        <time>2015-10-17T07:09:02Z</time>
      </trkpt>
      <trkpt lat="43.75893" lon="4.07762">
        <ele>42.9</ele>
        <time>2015-10-17T07:09:08Z</time>
      </trkpt>
      <trkpt lat="43.75947" lon="4.0785">
        <ele>39.6</ele>
        <time>2015-10-17T07:09:19Z</time>
      </trkpt>
      <trkpt lat="43.75996" lon="4.07929">
        <ele>36.2</ele>
        <time>2015-10-17T07:09:28Z</time>
      </trkpt>
      <trkpt lat="43.76052" lon="4.08021">
        <ele>31.9</ele>
        <time>2015-10-17T07:09:38Z</time>
      </trkpt>
      <trkpt lat="43.76107" lon="4.08107">
        <ele>28.5</ele>
        <time>2015-10-17T07:09:47Z</time>
      </trkpt>
      <trkpt lat="43.76113" lon="4.08113">
        <ele>28.5</ele>
        <time>2015-10-17T07:09:48Z</time>
      </trkpt>
      <trkpt lat="43.76119" lon="4.08116">
        <ele>29</ele>
        <time>2015-10-17T07:09:49Z</time>
      </trkpt>
      <trkpt lat="43.76125" lon="4.08118">
        <ele>29</ele>
        <time>2015-10-17T07:09:50Z</time>
      </trkpt>
      <trkpt lat="43.76131" lon="4.0812">
        <ele>29</ele>
        <time>2015-10-17T07:09:51Z</time>
      </trkpt>
      <trkpt lat="43.7621" lon="4.08141">
        <ele>30.4</ele>
        <time>2015-10-17T07:10:00Z</time>
      </trkpt>
      <trkpt lat="43.76218" lon="4.08144">
        <ele>30.4</ele>
        <time>2015-10-17T07:10:01Z</time>
      </trkpt>
      <trkpt lat="43.76227" lon="4.08149">
        <ele>30.4</ele>
        <time>2015-10-17T07:10:02Z</time>
      </trkpt>
      <trkpt lat="43.76305" lon="4.08215">
        <ele>30.9</ele>
        <time>2015-10-17T07:10:09Z</time>
      </trkpt>
      <trkpt lat="43.76427" lon="4.08291">
        <ele>29</ele>
        <time>2015-10-17T07:10:18Z</time>
      </trkpt>
      <trkpt lat="43.76523" lon="4.0834">
        <ele>27.5</ele>
        <time>2015-10-17T07:10:27Z</time>
      </trkpt>
      <trkpt lat="43.76531" lon="4.08347">
        <ele>27.5</ele>
        <time>2015-10-17T07:10:28Z</time>
      </trkpt>
      <trkpt lat="43.76537" lon="4.08355">
        <ele>27.5</ele>
        <time>2015-10-17T07:10:29Z</time>
      </trkpt>
      <trkpt lat="43.76548" lon="4.08371">
        <ele>27.5</ele>
        <time>2015-10-17T07:10:31Z</time>
      </trkpt>
      <trkpt lat="43.76555" lon="4.08375">
        <ele>27.5</ele>
        <time>2015-10-17T07:10:32Z</time>
      </trkpt>
      <trkpt lat="43.76562" lon="4.08373">
        <ele>27.5</ele>
        <time>2015-10-17T07:10:33Z</time>
      </trkpt>
      <trkpt lat="43.7657" lon="4.08369">
        <ele>27.5</ele>
        <time>2015-10-17T07:10:34Z</time>
      </trkpt>
      <trkpt lat="43.76578" lon="4.08363">
        <ele>27.5</ele>
        <time>2015-10-17T07:10:35Z</time>
      </trkpt>
      <trkpt lat="43.76586" lon="4.08358">
        <ele>27.5</ele>
        <time>2015-10-17T07:10:36Z</time>
      </trkpt>
      <trkpt lat="43.76595" lon="4.08356">
        <ele>27.1</ele>
        <time>2015-10-17T07:10:37Z</time>
      </trkpt>
      <trkpt lat="43.76604" lon="4.08355">
        <ele>27.1</ele>
        <time>2015-10-17T07:10:38Z</time>
      </trkpt>
      <trkpt lat="43.76708" lon="4.08357">
        <ele>26.6</ele>
        <time>2015-10-17T07:10:46Z</time>
      </trkpt>
      <trkpt lat="43.76842" lon="4.08364">
        <ele>27.1</ele>
        <time>2015-10-17T07:10:56Z</time>
      </trkpt>
      <trkpt lat="43.77027" lon="4.0841">
        <ele>25.6</ele>
        <time>2015-10-17T07:11:09Z</time>
      </trkpt>
      <trkpt lat="43.77178" lon="4.08482">
        <ele>25.1</ele>
        <time>2015-10-17T07:11:19Z</time>
      </trkpt>
      <trkpt lat="43.77387" lon="4.08618">
        <ele>25.1</ele>
        <time>2015-10-17T07:11:33Z</time>
      </trkpt>
      <trkpt lat="43.77544" lon="4.08707">
        <ele>26.1</ele>
        <time>2015-10-17T07:11:43Z</time>
      </trkpt>
      <trkpt lat="43.77655" lon="4.08697">
        <ele>26.1</ele>
        <time>2015-10-17T07:11:50Z</time>
      </trkpt>
      <trkpt lat="43.77744" lon="4.08652">
        <ele>27.1</ele>
        <time>2015-10-17T07:11:57Z</time>
      </trkpt>
      <trkpt lat="43.77826" lon="4.0864">
        <ele>28</ele>
        <time>2015-10-17T07:12:06Z</time>
      </trkpt>
      <trkpt lat="43.77869" lon="4.08646">
        <ele>27.5</ele>
        <time>2015-10-17T07:12:11Z</time>
      </trkpt>
      <trkpt lat="43.77877" lon="4.0865">
        <ele>27.5</ele>
        <time>2015-10-17T07:12:12Z</time>
      </trkpt>
      <trkpt lat="43.77884" lon="4.08656">
        <ele>27.5</ele>
        <time>2015-10-17T07:12:13Z</time>
      </trkpt>
      <trkpt lat="43.77889" lon="4.08662">
        <ele>28</ele>
        <time>2015-10-17T07:12:14Z</time>
      </trkpt>
      <trkpt lat="43.77895" lon="4.08665">
        <ele>28</ele>
        <time>2015-10-17T07:12:15Z</time>
      </trkpt>
      <trkpt lat="43.779" lon="4.08666">
        <ele>28</ele>
        <time>2015-10-17T07:12:16Z</time>
      </trkpt>
      <trkpt lat="43.77906" lon="4.08665">
        <ele>28</ele>
        <time>2015-10-17T07:12:17Z</time>
      </trkpt>
      <trkpt lat="43.77912" lon="4.08661">
        <ele>28</ele>
        <time>2015-10-17T07:12:18Z</time>
      </trkpt>
      <trkpt lat="43.77919" lon="4.08657">
        <ele>27.5</ele>
        <time>2015-10-17T07:12:19Z</time>
      </trkpt>
      <trkpt lat="43.77928" lon="4.08654">
        <ele>27.5</ele>
        <time>2015-10-17T07:12:20Z</time>
      </trkpt>
      <trkpt lat="43.77938" lon="4.08652">
        <ele>27.1</ele>
        <time>2015-10-17T07:12:21Z</time>
      </trkpt>
      <trkpt lat="43.77949" lon="4.08653">
        <ele>27.1</ele>
        <time>2015-10-17T07:12:22Z</time>
      </trkpt>
      <trkpt lat="43.77959" lon="4.08653">
        <ele>27.1</ele>
        <time>2015-10-17T07:12:23Z</time>
      </trkpt>
      <trkpt lat="43.78052" lon="4.08679">
        <ele>26.6</ele>
        <time>2015-10-17T07:12:32Z</time>
      </trkpt>
      <trkpt lat="43.78062" lon="4.08681">
        <ele>27.1</ele>
        <time>2015-10-17T07:12:33Z</time>
      </trkpt>
      <trkpt lat="43.78071" lon="4.08681">
        <ele>27.1</ele>
        <time>2015-10-17T07:12:34Z</time>
      </trkpt>
      <trkpt lat="43.7808" lon="4.0868">
        <ele>27.1</ele>
        <time>2015-10-17T07:12:35Z</time>
      </trkpt>
      <trkpt lat="43.7815" lon="4.08665">
        <ele>27.5</ele>
        <time>2015-10-17T07:12:46Z</time>
      </trkpt>
      <trkpt lat="43.78162" lon="4.08667">
        <ele>27.5</ele>
        <time>2015-10-17T07:12:55Z</time>
      </trkpt>
      <trkpt lat="43.78169" lon="4.08671">
        <ele>27.5</ele>
        <time>2015-10-17T07:12:57Z</time>
      </trkpt>
      <trkpt lat="43.78173" lon="4.08674">
        <ele>28</ele>
        <time>2015-10-17T07:12:58Z</time>
      </trkpt>
      <trkpt lat="43.78177" lon="4.08678">
        <ele>28</ele>
        <time>2015-10-17T07:12:59Z</time>
      </trkpt>
      <trkpt lat="43.78179" lon="4.08684">
        <ele>28</ele>
        <time>2015-10-17T07:13:00Z</time>
      </trkpt>
      <trkpt lat="43.78181" lon="4.08691">
        <ele>28</ele>
        <time>2015-10-17T07:13:01Z</time>
      </trkpt>
      <trkpt lat="43.78184" lon="4.08697">
        <ele>28</ele>
        <time>2015-10-17T07:13:02Z</time>
      </trkpt>
      <trkpt lat="43.78187" lon="4.08703">
        <ele>28</ele>
        <time>2015-10-17T07:13:03Z</time>
      </trkpt>
      <trkpt lat="43.78191" lon="4.08708">
        <ele>28</ele>
        <time>2015-10-17T07:13:04Z</time>
      </trkpt>
      <trkpt lat="43.78196" lon="4.08712">
        <ele>28</ele>
        <time>2015-10-17T07:13:05Z</time>
      </trkpt>
      <trkpt lat="43.78202" lon="4.08715">
        <ele>28</ele>
        <time>2015-10-17T07:13:06Z</time>
      </trkpt>
      <trkpt lat="43.78207" lon="4.08715">
        <ele>28</ele>
        <time>2015-10-17T07:13:07Z</time>
      </trkpt>
      <trkpt lat="43.78214" lon="4.08715">
        <ele>28</ele>
        <time>2015-10-17T07:13:08Z</time>
      </trkpt>
      <trkpt lat="43.78221" lon="4.08716">
        <ele>28</ele>
        <time>2015-10-17T07:13:09Z</time>
      </trkpt>
      <trkpt lat="43.78228" lon="4.08719">
        <ele>28.5</ele>
        <time>2015-10-17T07:13:10Z</time>
      </trkpt>
      <trkpt lat="43.78235" lon="4.08723">
        <ele>28.5</ele>
        <time>2015-10-17T07:13:11Z</time>
      </trkpt>
      <trkpt lat="43.78243" lon="4.08726">
        <ele>28.5</ele>
        <time>2015-10-17T07:13:12Z</time>
      </trkpt>
      <trkpt lat="43.7825" lon="4.08728">
        <ele>28.5</ele>
        <time>2015-10-17T07:13:13Z</time>
      </trkpt>
      <trkpt lat="43.78258" lon="4.08727">
        <ele>28.5</ele>
        <time>2015-10-17T07:13:14Z</time>
      </trkpt>
      <trkpt lat="43.78266" lon="4.08723">
        <ele>28.5</ele>
        <time>2015-10-17T07:13:15Z</time>
      </trkpt>
      <trkpt lat="43.78275" lon="4.08719">
        <ele>28.5</ele>
        <time>2015-10-17T07:13:16Z</time>
      </trkpt>
      <trkpt lat="43.78283" lon="4.08714">
        <ele>28.5</ele>
        <time>2015-10-17T07:13:17Z</time>
      </trkpt>
      <trkpt lat="43.7829" lon="4.08709">
        <ele>28.5</ele>
        <time>2015-10-17T07:13:18Z</time>
      </trkpt>
      <trkpt lat="43.78319" lon="4.0869">
        <ele>29</ele>
        <time>2015-10-17T07:13:25Z</time>
      </trkpt>
      <trkpt lat="43.78372" lon="4.0864">
        <ele>29</ele>
        <time>2015-10-17T07:13:32Z</time>
      </trkpt>
      <trkpt lat="43.78472" lon="4.08528">
        <ele>29.5</ele>
        <time>2015-10-17T07:13:43Z</time>
      </trkpt>
      <trkpt lat="43.78528" lon="4.08471">
        <ele>29.5</ele>
        <time>2015-10-17T07:13:50Z</time>
      </trkpt>
      <trkpt lat="43.78535" lon="4.08467">
        <ele>29.5</ele>
        <time>2015-10-17T07:13:51Z</time>
      </trkpt>
      <trkpt lat="43.78551" lon="4.08457">
        <ele>29.5</ele>
        <time>2015-10-17T07:13:53Z</time>
      </trkpt>
      <trkpt lat="43.78557" lon="4.08448">
        <ele>29.5</ele>
        <time>2015-10-17T07:13:54Z</time>
      </trkpt>
      <trkpt lat="43.78563" lon="4.08439">
        <ele>29.5</ele>
        <time>2015-10-17T07:13:55Z</time>
      </trkpt>
      <trkpt lat="43.7857" lon="4.0843">
        <ele>29.5</ele>
        <time>2015-10-17T07:13:56Z</time>
      </trkpt>
      <trkpt lat="43.78579" lon="4.08422">
        <ele>29</ele>
        <time>2015-10-17T07:13:57Z</time>
      </trkpt>
      <trkpt lat="43.78589" lon="4.08416">
        <ele>29</ele>
        <time>2015-10-17T07:13:58Z</time>
      </trkpt>
      <trkpt lat="43.78599" lon="4.08411">
        <ele>29</ele>
        <time>2015-10-17T07:13:59Z</time>
      </trkpt>
      <trkpt lat="43.78686" lon="4.08369">
        <ele>28.5</ele>
        <time>2015-10-17T07:14:09Z</time>
      </trkpt>
      <trkpt lat="43.78795" lon="4.0828">
        <ele>29</ele>
        <time>2015-10-17T07:14:20Z</time>
      </trkpt>
      <trkpt lat="43.7887" lon="4.08226">
        <ele>31.9</ele>
        <time>2015-10-17T07:14:28Z</time>
      </trkpt>
      <trkpt lat="43.78876" lon="4.08225">
        <ele>32.3</ele>
        <time>2015-10-17T07:14:29Z</time>
      </trkpt>
      <trkpt lat="43.78881" lon="4.08225">
        <ele>32.3</ele>
        <time>2015-10-17T07:14:30Z</time>
      </trkpt>
      <trkpt lat="43.78885" lon="4.08226">
        <ele>32.3</ele>
        <time>2015-10-17T07:14:31Z</time>
      </trkpt>
      <trkpt lat="43.78891" lon="4.08229">
        <ele>32.8</ele>
        <time>2015-10-17T07:14:32Z</time>
      </trkpt>
      <trkpt lat="43.78899" lon="4.08232">
        <ele>33.3</ele>
        <time>2015-10-17T07:14:33Z</time>
      </trkpt>
      <trkpt lat="43.78907" lon="4.08231">
        <ele>33.3</ele>
        <time>2015-10-17T07:14:34Z</time>
      </trkpt>
      <trkpt lat="43.78916" lon="4.0823">
        <ele>33.8</ele>
        <time>2015-10-17T07:14:35Z</time>
      </trkpt>
      <trkpt lat="43.78926" lon="4.08231">
        <ele>34.3</ele>
        <time>2015-10-17T07:14:36Z</time>
      </trkpt>
      <trkpt lat="43.78936" lon="4.08235">
        <ele>34.7</ele>
        <time>2015-10-17T07:14:37Z</time>
      </trkpt>
      <trkpt lat="43.78947" lon="4.08242">
        <ele>35.2</ele>
        <time>2015-10-17T07:14:38Z</time>
      </trkpt>
      <trkpt lat="43.78958" lon="4.08249">
        <ele>35.2</ele>
        <time>2015-10-17T07:14:39Z</time>
      </trkpt>
      <trkpt lat="43.79085" lon="4.08339">
        <ele>34.7</ele>
        <time>2015-10-17T07:14:49Z</time>
      </trkpt>
      <trkpt lat="43.7929" lon="4.08499">
        <ele>34.7</ele>
        <time>2015-10-17T07:15:03Z</time>
      </trkpt>
      <trkpt lat="43.79325" lon="4.08538">
        <ele>36.2</ele>
        <time>2015-10-17T07:15:07Z</time>
      </trkpt>
      <trkpt lat="43.79329" lon="4.08548">
        <ele>36.7</ele>
        <time>2015-10-17T07:15:08Z</time>
      </trkpt>
      <trkpt lat="43.79332" lon="4.08559">
        <ele>36.7</ele>
        <time>2015-10-17T07:15:09Z</time>
      </trkpt>
      <trkpt lat="43.79333" lon="4.08569">
        <ele>37.2</ele>
        <time>2015-10-17T07:15:10Z</time>
      </trkpt>
      <trkpt lat="43.79334" lon="4.08579">
        <ele>37.2</ele>
        <time>2015-10-17T07:15:11Z</time>
      </trkpt>
      <trkpt lat="43.79338" lon="4.08588">
        <ele>37.2</ele>
        <time>2015-10-17T07:15:12Z</time>
      </trkpt>
      <trkpt lat="43.79344" lon="4.08594">
        <ele>37.6</ele>
        <time>2015-10-17T07:15:13Z</time>
      </trkpt>
      <trkpt lat="43.79352" lon="4.08595">
        <ele>37.6</ele>
        <time>2015-10-17T07:15:14Z</time>
      </trkpt>
      <trkpt lat="43.7936" lon="4.08591">
        <ele>38.1</ele>
        <time>2015-10-17T07:15:15Z</time>
      </trkpt>
      <trkpt lat="43.79369" lon="4.08586">
        <ele>38.1</ele>
        <time>2015-10-17T07:15:16Z</time>
      </trkpt>
      <trkpt lat="43.79379" lon="4.08582">
        <ele>38.6</ele>
        <time>2015-10-17T07:15:17Z</time>
      </trkpt>
      <trkpt lat="43.79389" lon="4.08581">
        <ele>38.6</ele>
        <time>2015-10-17T07:15:18Z</time>
      </trkpt>
      <trkpt lat="43.79401" lon="4.08582">
        <ele>39.1</ele>
        <time>2015-10-17T07:15:19Z</time>
      </trkpt>
      <trkpt lat="43.79413" lon="4.08583">
        <ele>39.6</ele>
        <time>2015-10-17T07:15:20Z</time>
      </trkpt>
      <trkpt lat="43.79575" lon="4.08596">
        <ele>44.8</ele>
        <time>2015-10-17T07:15:31Z</time>
      </trkpt>
      <trkpt lat="43.79739" lon="4.08601">
        <ele>43.9</ele>
        <time>2015-10-17T07:15:39Z</time>
      </trkpt>
      <trkpt lat="43.79943" lon="4.08609">
        <ele>45.8</ele>
        <time>2015-10-17T07:15:50Z</time>
      </trkpt>
      <trkpt lat="43.80127" lon="4.08622">
        <ele>47.7</ele>
        <time>2015-10-17T07:16:00Z</time>
      </trkpt>
      <trkpt lat="43.80144" lon="4.08632">
        <ele>48.2</ele>
        <time>2015-10-17T07:16:01Z</time>
      </trkpt>
      <trkpt lat="43.8016" lon="4.08644">
        <ele>48.7</ele>
        <time>2015-10-17T07:16:02Z</time>
      </trkpt>
      <trkpt lat="43.80289" lon="4.08724">
        <ele>55.4</ele>
        <time>2015-10-17T07:16:10Z</time>
      </trkpt>
      <trkpt lat="43.80331" lon="4.08754">
        <ele>57.8</ele>
        <time>2015-10-17T07:16:13Z</time>
      </trkpt>
      <trkpt lat="43.8034" lon="4.08771">
        <ele>58.3</ele>
        <time>2015-10-17T07:16:14Z</time>
      </trkpt>
      <trkpt lat="43.8035" lon="4.08789">
        <ele>58.3</ele>
        <time>2015-10-17T07:16:15Z</time>
      </trkpt>
      <trkpt lat="43.80466" lon="4.0898">
        <ele>57.8</ele>
        <time>2015-10-17T07:16:25Z</time>
      </trkpt>
      <trkpt lat="43.80564" lon="4.0914">
        <ele>57.8</ele>
        <time>2015-10-17T07:16:34Z</time>
      </trkpt>
      <trkpt lat="43.80641" lon="4.0932">
        <ele>55.4</ele>
        <time>2015-10-17T07:16:43Z</time>
      </trkpt>
      <trkpt lat="43.80644" lon="4.0934">
        <ele>55.4</ele>
        <time>2015-10-17T07:16:44Z</time>
      </trkpt>
      <trkpt lat="43.80651" lon="4.09429">
        <ele>54.9</ele>
        <time>2015-10-17T07:16:50Z</time>
      </trkpt>
      <trkpt lat="43.80649" lon="4.09439">
        <ele>54.9</ele>
        <time>2015-10-17T07:16:51Z</time>
      </trkpt>
      <trkpt lat="43.80647" lon="4.09448">
        <ele>54.9</ele>
        <time>2015-10-17T07:16:52Z</time>
      </trkpt>
      <trkpt lat="43.80646" lon="4.09458">
        <ele>54.9</ele>
        <time>2015-10-17T07:16:53Z</time>
      </trkpt>
      <trkpt lat="43.80647" lon="4.09468">
        <ele>54.5</ele>
        <time>2015-10-17T07:16:54Z</time>
      </trkpt>
      <trkpt lat="43.80651" lon="4.09472">
        <ele>54</ele>
        <time>2015-10-17T07:16:55Z</time>
      </trkpt>
      <trkpt lat="43.80657" lon="4.09474">
        <ele>53.5</ele>
        <time>2015-10-17T07:16:56Z</time>
      </trkpt>
      <trkpt lat="43.80663" lon="4.09473">
        <ele>53</ele>
        <time>2015-10-17T07:16:57Z</time>
      </trkpt>
      <trkpt lat="43.80671" lon="4.0947">
        <ele>53</ele>
        <time>2015-10-17T07:16:58Z</time>
      </trkpt>
      <trkpt lat="43.80679" lon="4.09467">
        <ele>53</ele>
        <time>2015-10-17T07:16:59Z</time>
      </trkpt>
      <trkpt lat="43.80689" lon="4.09466">
        <ele>53</ele>
        <time>2015-10-17T07:17:00Z</time>
      </trkpt>
      <trkpt lat="43.80701" lon="4.09468">
        <ele>52.5</ele>
        <time>2015-10-17T07:17:01Z</time>
      </trkpt>
      <trkpt lat="43.80714" lon="4.09471">
        <ele>52.1</ele>
        <time>2015-10-17T07:17:02Z</time>
      </trkpt>
      <trkpt lat="43.80727" lon="4.09474">
        <ele>51.6</ele>
        <time>2015-10-17T07:17:03Z</time>
      </trkpt>
      <trkpt lat="43.80756" lon="4.09479">
        <ele>49.7</ele>
        <time>2015-10-17T07:17:05Z</time>
      </trkpt>
      <trkpt lat="43.80772" lon="4.09478">
        <ele>48.2</ele>
        <time>2015-10-17T07:17:06Z</time>
      </trkpt>
      <trkpt lat="43.80788" lon="4.09474">
        <ele>47.7</ele>
        <time>2015-10-17T07:17:07Z</time>
      </trkpt>
      <trkpt lat="43.80804" lon="4.09468">
        <ele>47.2</ele>
        <time>2015-10-17T07:17:08Z</time>
      </trkpt>
      <trkpt lat="43.8082" lon="4.09461">
        <ele>46.8</ele>
        <time>2015-10-17T07:17:09Z</time>
      </trkpt>
      <trkpt lat="43.80961" lon="4.09423">
        <ele>42</ele>
        <time>2015-10-17T07:17:18Z</time>
      </trkpt>
      <trkpt lat="43.81134" lon="4.09414">
        <ele>40</ele>
        <time>2015-10-17T07:17:29Z</time>
      </trkpt>
      <trkpt lat="43.81201" lon="4.09412">
        <ele>41.5</ele>
        <time>2015-10-17T07:17:34Z</time>
      </trkpt>
      <trkpt lat="43.81213" lon="4.09417">
        <ele>42</ele>
        <time>2015-10-17T07:17:35Z</time>
      </trkpt>
      <trkpt lat="43.81346" lon="4.09486">
        <ele>42.4</ele>
        <time>2015-10-17T07:17:44Z</time>
      </trkpt>
      <trkpt lat="43.81419" lon="4.09542">
        <ele>44.4</ele>
        <time>2015-10-17T07:17:49Z</time>
      </trkpt>
      <trkpt lat="43.81435" lon="4.09547">
        <ele>44.4</ele>
        <time>2015-10-17T07:17:50Z</time>
      </trkpt>
      <trkpt lat="43.81452" lon="4.09549">
        <ele>44.8</ele>
        <time>2015-10-17T07:17:51Z</time>
      </trkpt>
      <trkpt lat="43.81638" lon="4.09554">
        <ele>47.7</ele>
        <time>2015-10-17T07:18:00Z</time>
      </trkpt>
      <trkpt lat="43.81783" lon="4.0957">
        <ele>50.1</ele>
        <time>2015-10-17T07:18:05Z</time>
      </trkpt>
      <trkpt lat="43.81912" lon="4.09576">
        <ele>54</ele>
        <time>2015-10-17T07:18:11Z</time>
      </trkpt>
      <trkpt lat="43.81931" lon="4.09572">
        <ele>54.9</ele>
        <time>2015-10-17T07:18:12Z</time>
      </trkpt>
      <trkpt lat="43.82069" lon="4.09556">
        <ele>60.7</ele>
        <time>2015-10-17T07:18:19Z</time>
      </trkpt>
      <trkpt lat="43.82292" lon="4.09582">
        <ele>73.7</ele>
        <time>2015-10-17T07:18:30Z</time>
      </trkpt>
      <trkpt lat="43.8231" lon="4.09584">
        <ele>74.6</ele>
        <time>2015-10-17T07:18:31Z</time>
      </trkpt>
      <trkpt lat="43.82327" lon="4.09583">
        <ele>76.1</ele>
        <time>2015-10-17T07:18:32Z</time>
      </trkpt>
      <trkpt lat="43.82345" lon="4.09578">
        <ele>77</ele>
        <time>2015-10-17T07:18:33Z</time>
      </trkpt>
      <trkpt lat="43.82492" lon="4.09544">
        <ele>78.5</ele>
        <time>2015-10-17T07:18:41Z</time>
      </trkpt>
      <trkpt lat="43.82699" lon="4.09534">
        <ele>70.8</ele>
        <time>2015-10-17T07:18:52Z</time>
      </trkpt>
      <trkpt lat="43.82823" lon="4.09526">
        <ele>68.4</ele>
        <time>2015-10-17T07:19:00Z</time>
      </trkpt>
      <trkpt lat="43.82834" lon="4.09526">
        <ele>67.9</ele>
        <time>2015-10-17T07:19:01Z</time>
      </trkpt>
      <trkpt lat="43.82843" lon="4.09529">
        <ele>67.9</ele>
        <time>2015-10-17T07:19:02Z</time>
      </trkpt>
      <trkpt lat="43.82848" lon="4.09536">
        <ele>67.4</ele>
        <time>2015-10-17T07:19:03Z</time>
      </trkpt>
      <trkpt lat="43.82851" lon="4.09547">
        <ele>67.4</ele>
        <time>2015-10-17T07:19:04Z</time>
      </trkpt>
      <trkpt lat="43.82851" lon="4.09559">
        <ele>67</ele>
        <time>2015-10-17T07:19:05Z</time>
      </trkpt>
      <trkpt lat="43.82849" lon="4.09573">
        <ele>67</ele>
        <time>2015-10-17T07:19:06Z</time>
      </trkpt>
      <trkpt lat="43.82846" lon="4.09587">
        <ele>66.5</ele>
        <time>2015-10-17T07:19:07Z</time>
      </trkpt>
      <trkpt lat="43.82842" lon="4.09603">
        <ele>66.5</ele>
        <time>2015-10-17T07:19:08Z</time>
      </trkpt>
      <trkpt lat="43.82838" lon="4.09619">
        <ele>66</ele>
        <time>2015-10-17T07:19:09Z</time>
      </trkpt>
      <trkpt lat="43.82801" lon="4.09779">
        <ele>64.6</ele>
        <time>2015-10-17T07:19:17Z</time>
      </trkpt>
      <trkpt lat="43.82801" lon="4.09962">
        <ele>63.1</ele>
        <time>2015-10-17T07:19:24Z</time>
      </trkpt>
      <trkpt lat="43.82796" lon="4.09987">
        <ele>63.1</ele>
        <time>2015-10-17T07:19:25Z</time>
      </trkpt>
      <trkpt lat="43.82789" lon="4.10011">
        <ele>63.1</ele>
        <time>2015-10-17T07:19:26Z</time>
      </trkpt>
      <trkpt lat="43.82779" lon="4.10034">
        <ele>63.1</ele>
        <time>2015-10-17T07:19:27Z</time>
      </trkpt>
      <trkpt lat="43.82769" lon="4.10056">
        <ele>62.6</ele>
        <time>2015-10-17T07:19:28Z</time>
      </trkpt>
      <trkpt lat="43.82751" lon="4.10104">
        <ele>62.6</ele>
        <time>2015-10-17T07:19:30Z</time>
      </trkpt>
      <trkpt lat="43.82747" lon="4.10129">
        <ele>62.1</ele>
        <time>2015-10-17T07:19:31Z</time>
      </trkpt>
      <trkpt lat="43.82744" lon="4.10156">
        <ele>62.1</ele>
        <time>2015-10-17T07:19:32Z</time>
      </trkpt>
      <trkpt lat="43.82743" lon="4.10183">
        <ele>62.1</ele>
        <time>2015-10-17T07:19:33Z</time>
      </trkpt>
      <trkpt lat="43.82743" lon="4.10211">
        <ele>62.1</ele>
        <time>2015-10-17T07:19:34Z</time>
      </trkpt>
      <trkpt lat="43.82746" lon="4.10239">
        <ele>62.1</ele>
        <time>2015-10-17T07:19:35Z</time>
      </trkpt>
      <trkpt lat="43.8275" lon="4.10267">
        <ele>62.1</ele>
        <time>2015-10-17T07:19:36Z</time>
      </trkpt>
      <trkpt lat="43.82755" lon="4.10296">
        <ele>62.1</ele>
        <time>2015-10-17T07:19:37Z</time>
      </trkpt>
      <trkpt lat="43.82761" lon="4.10324">
        <ele>62.1</ele>
        <time>2015-10-17T07:19:38Z</time>
      </trkpt>
      <trkpt lat="43.82809" lon="4.10581">
        <ele>62.1</ele>
        <time>2015-10-17T07:19:47Z</time>
      </trkpt>
      <trkpt lat="43.82811" lon="4.10604">
        <ele>62.1</ele>
        <time>2015-10-17T07:19:48Z</time>
      </trkpt>
      <trkpt lat="43.82808" lon="4.10628">
        <ele>62.1</ele>
        <time>2015-10-17T07:19:49Z</time>
      </trkpt>
      <trkpt lat="43.828" lon="4.1065">
        <ele>62.1</ele>
        <time>2015-10-17T07:19:50Z</time>
      </trkpt>
      <trkpt lat="43.8279" lon="4.10673">
        <ele>62.1</ele>
        <time>2015-10-17T07:19:51Z</time>
      </trkpt>
      <trkpt lat="43.82779" lon="4.10697">
        <ele>62.1</ele>
        <time>2015-10-17T07:19:52Z</time>
      </trkpt>
      <trkpt lat="43.82734" lon="4.10825">
        <ele>60.7</ele>
        <time>2015-10-17T07:19:57Z</time>
      </trkpt>
      <trkpt lat="43.8273" lon="4.10852">
        <ele>60.7</ele>
        <time>2015-10-17T07:19:58Z</time>
      </trkpt>
      <trkpt lat="43.827" lon="4.11052">
        <ele>60.7</ele>
        <time>2015-10-17T07:20:05Z</time>
      </trkpt>
      <trkpt lat="43.82699" lon="4.11082">
        <ele>61.2</ele>
        <time>2015-10-17T07:20:06Z</time>
      </trkpt>
      <trkpt lat="43.82701" lon="4.11112">
        <ele>61.2</ele>
        <time>2015-10-17T07:20:07Z</time>
      </trkpt>
      <trkpt lat="43.82737" lon="4.11353">
        <ele>64.6</ele>
        <time>2015-10-17T07:20:15Z</time>
      </trkpt>
      <trkpt lat="43.82741" lon="4.1147">
        <ele>67.4</ele>
        <time>2015-10-17T07:20:19Z</time>
      </trkpt>
      <trkpt lat="43.82737" lon="4.115">
        <ele>67.9</ele>
        <time>2015-10-17T07:20:20Z</time>
      </trkpt>
      <trkpt lat="43.82717" lon="4.11653">
        <ele>68.9</ele>
        <time>2015-10-17T07:20:25Z</time>
      </trkpt>
      <trkpt lat="43.82706" lon="4.11863">
        <ele>68.9</ele>
        <time>2015-10-17T07:20:32Z</time>
      </trkpt>
      <trkpt lat="43.82715" lon="4.12184">
        <ele>65.5</ele>
        <time>2015-10-17T07:20:43Z</time>
      </trkpt>
      <trkpt lat="43.82714" lon="4.12209">
        <ele>65</ele>
        <time>2015-10-17T07:20:44Z</time>
      </trkpt>
      <trkpt lat="43.8271" lon="4.12231">
        <ele>64.6</ele>
        <time>2015-10-17T07:20:45Z</time>
      </trkpt>
      <trkpt lat="43.82703" lon="4.12254">
        <ele>64.1</ele>
        <time>2015-10-17T07:20:46Z</time>
      </trkpt>
      <trkpt lat="43.82633" lon="4.12461">
        <ele>61.7</ele>
        <time>2015-10-17T07:20:55Z</time>
      </trkpt>
      <trkpt lat="43.82622" lon="4.12477">
        <ele>61.7</ele>
        <time>2015-10-17T07:20:56Z</time>
      </trkpt>
      <trkpt lat="43.82603" lon="4.1251">
        <ele>61.2</ele>
        <time>2015-10-17T07:20:58Z</time>
      </trkpt>
      <trkpt lat="43.82598" lon="4.12531">
        <ele>61.7</ele>
        <time>2015-10-17T07:20:59Z</time>
      </trkpt>
      <trkpt lat="43.82595" lon="4.12555">
        <ele>62.1</ele>
        <time>2015-10-17T07:21:00Z</time>
      </trkpt>
      <trkpt lat="43.82551" lon="4.12791">
        <ele>67.9</ele>
        <time>2015-10-17T07:21:10Z</time>
      </trkpt>
      <trkpt lat="43.82532" lon="4.12847">
        <ele>68.9</ele>
        <time>2015-10-17T07:21:13Z</time>
      </trkpt>
      <trkpt lat="43.82524" lon="4.12863">
        <ele>69.4</ele>
        <time>2015-10-17T07:21:14Z</time>
      </trkpt>
      <trkpt lat="43.82477" lon="4.1294">
        <ele>70.8</ele>
        <time>2015-10-17T07:21:21Z</time>
      </trkpt>
      <trkpt lat="43.82468" lon="4.12953">
        <ele>71.3</ele>
        <time>2015-10-17T07:21:27Z</time>
      </trkpt>
      <trkpt lat="43.8247" lon="4.12958">
        <ele>69.8</ele>
        <time>2015-10-17T07:21:48Z</time>
      </trkpt>
      <trkpt lat="43.82472" lon="4.12966">
        <ele>69.8</ele>
        <time>2015-10-17T07:21:49Z</time>
      </trkpt>
      <trkpt lat="43.82477" lon="4.12974">
        <ele>69.8</ele>
        <time>2015-10-17T07:21:50Z</time>
      </trkpt>
      <trkpt lat="43.82539" lon="4.13061">
        <ele>71.8</ele>
        <time>2015-10-17T07:21:57Z</time>
      </trkpt>
      <trkpt lat="43.82675" lon="4.13184">
        <ele>73.7</ele>
        <time>2015-10-17T07:22:06Z</time>
      </trkpt>
      <trkpt lat="43.82875" lon="4.13366">
        <ele>78</ele>
        <time>2015-10-17T07:22:18Z</time>
      </trkpt>
      <trkpt lat="43.83019" lon="4.13512">
        <ele>80.9</ele>
        <time>2015-10-17T07:22:26Z</time>
      </trkpt>
      <trkpt lat="43.83256" lon="4.13652">
        <ele>83.8</ele>
        <time>2015-10-17T07:22:37Z</time>
      </trkpt>
      <trkpt lat="43.83661" lon="4.13929">
        <ele>87.6</ele>
        <time>2015-10-17T07:22:56Z</time>
      </trkpt>
      <trkpt lat="43.83908" lon="4.14133">
        <ele>84.3</ele>
        <time>2015-10-17T07:23:08Z</time>
      </trkpt>
      <trkpt lat="43.83998" lon="4.14166">
        <ele>84.3</ele>
        <time>2015-10-17T07:23:12Z</time>
      </trkpt>
      <trkpt lat="43.84021" lon="4.14169">
        <ele>84.7</ele>
        <time>2015-10-17T07:23:13Z</time>
      </trkpt>
      <trkpt lat="43.84113" lon="4.14171">
        <ele>87.1</ele>
        <time>2015-10-17T07:23:17Z</time>
      </trkpt>
      <trkpt lat="43.84136" lon="4.14177">
        <ele>87.6</ele>
        <time>2015-10-17T07:23:18Z</time>
      </trkpt>
      <trkpt lat="43.84159" lon="4.14186">
        <ele>88.1</ele>
        <time>2015-10-17T07:23:19Z</time>
      </trkpt>
      <trkpt lat="43.84181" lon="4.14198">
        <ele>88.1</ele>
        <time>2015-10-17T07:23:20Z</time>
      </trkpt>
      <trkpt lat="43.84204" lon="4.14212">
        <ele>88.6</ele>
        <time>2015-10-17T07:23:21Z</time>
      </trkpt>
      <trkpt lat="43.84407" lon="4.14377">
        <ele>93.9</ele>
        <time>2015-10-17T07:23:31Z</time>
      </trkpt>
      <trkpt lat="43.84423" lon="4.14402">
        <ele>94.8</ele>
        <time>2015-10-17T07:23:32Z</time>
      </trkpt>
      <trkpt lat="43.84437" lon="4.14428">
        <ele>95.8</ele>
        <time>2015-10-17T07:23:33Z</time>
      </trkpt>
      <trkpt lat="43.84538" lon="4.1461">
        <ele>103.5</ele>
        <time>2015-10-17T07:23:40Z</time>
      </trkpt>
      <trkpt lat="43.84735" lon="4.14885">
        <ele>116.5</ele>
        <time>2015-10-17T07:23:52Z</time>
      </trkpt>
      <trkpt lat="43.84914" lon="4.15041">
        <ele>123.2</ele>
        <time>2015-10-17T07:24:01Z</time>
      </trkpt>
      <trkpt lat="43.85162" lon="4.15168">
        <ele>128</ele>
        <time>2015-10-17T07:24:12Z</time>
      </trkpt>
      <trkpt lat="43.85373" lon="4.15302">
        <ele>137.6</ele>
        <time>2015-10-17T07:24:23Z</time>
      </trkpt>
      <trkpt lat="43.85544" lon="4.15428">
        <ele>149.6</ele>
        <time>2015-10-17T07:24:32Z</time>
      </trkpt>
      <trkpt lat="43.856" lon="4.15467">
        <ele>152.5</ele>
        <time>2015-10-17T07:24:35Z</time>
      </trkpt>
      <trkpt lat="43.85616" lon="4.15485">
        <ele>153</ele>
        <time>2015-10-17T07:24:36Z</time>
      </trkpt>
      <trkpt lat="43.85632" lon="4.15505">
        <ele>153.5</ele>
        <time>2015-10-17T07:24:37Z</time>
      </trkpt>
      <trkpt lat="43.85764" lon="4.15699">
        <ele>150.6</ele>
        <time>2015-10-17T07:24:46Z</time>
      </trkpt>
      <trkpt lat="43.85879" lon="4.15823">
        <ele>146.3</ele>
        <time>2015-10-17T07:24:54Z</time>
      </trkpt>
      <trkpt lat="43.85888" lon="4.15842">
        <ele>146.3</ele>
        <time>2015-10-17T07:24:55Z</time>
      </trkpt>
      <trkpt lat="43.85896" lon="4.15863">
        <ele>146.3</ele>
        <time>2015-10-17T07:24:56Z</time>
      </trkpt>
      <trkpt lat="43.85913" lon="4.15923">
        <ele>147.2</ele>
        <time>2015-10-17T07:24:59Z</time>
      </trkpt>
      <trkpt lat="43.85916" lon="4.15942">
        <ele>147.2</ele>
        <time>2015-10-17T07:25:00Z</time>
      </trkpt>
      <trkpt lat="43.8592" lon="4.15976">
        <ele>147.7</ele>
        <time>2015-10-17T07:25:02Z</time>
      </trkpt>
      <trkpt lat="43.85923" lon="4.15988">
        <ele>147.7</ele>
        <time>2015-10-17T07:25:03Z</time>
      </trkpt>
      <trkpt lat="43.8593" lon="4.15996">
        <ele>147.7</ele>
        <time>2015-10-17T07:25:04Z</time>
      </trkpt>
      <trkpt lat="43.85937" lon="4.16002">
        <ele>148.2</ele>
        <time>2015-10-17T07:25:05Z</time>
      </trkpt>
      <trkpt lat="43.85946" lon="4.16006">
        <ele>148.2</ele>
        <time>2015-10-17T07:25:06Z</time>
      </trkpt>
      <trkpt lat="43.85954" lon="4.16011">
        <ele>148.7</ele>
        <time>2015-10-17T07:25:07Z</time>
      </trkpt>
      <trkpt lat="43.85963" lon="4.16017">
        <ele>148.7</ele>
        <time>2015-10-17T07:25:08Z</time>
      </trkpt>
      <trkpt lat="43.85972" lon="4.16021">
        <ele>148.7</ele>
        <time>2015-10-17T07:25:09Z</time>
      </trkpt>
      <trkpt lat="43.85981" lon="4.16021">
        <ele>148.7</ele>
        <time>2015-10-17T07:25:10Z</time>
      </trkpt>
      <trkpt lat="43.8599" lon="4.16015">
        <ele>148.7</ele>
        <time>2015-10-17T07:25:11Z</time>
      </trkpt>
      <trkpt lat="43.85997" lon="4.16005">
        <ele>148.7</ele>
        <time>2015-10-17T07:25:12Z</time>
      </trkpt>
      <trkpt lat="43.86003" lon="4.15993">
        <ele>148.7</ele>
        <time>2015-10-17T07:25:13Z</time>
      </trkpt>
      <trkpt lat="43.8601" lon="4.15982">
        <ele>148.7</ele>
        <time>2015-10-17T07:25:14Z</time>
      </trkpt>
      <trkpt lat="43.8602" lon="4.15975">
        <ele>148.7</ele>
        <time>2015-10-17T07:25:15Z</time>
      </trkpt>
      <trkpt lat="43.86031" lon="4.15974">
        <ele>148.7</ele>
        <time>2015-10-17T07:25:16Z</time>
      </trkpt>
      <trkpt lat="43.86042" lon="4.15977">
        <ele>148.2</ele>
        <time>2015-10-17T07:25:17Z</time>
      </trkpt>
      <trkpt lat="43.86054" lon="4.15982">
        <ele>148.7</ele>
        <time>2015-10-17T07:25:18Z</time>
      </trkpt>
      <trkpt lat="43.86067" lon="4.15989">
        <ele>149.1</ele>
        <time>2015-10-17T07:25:19Z</time>
      </trkpt>
      <trkpt lat="43.8608" lon="4.15998">
        <ele>149.1</ele>
        <time>2015-10-17T07:25:20Z</time>
      </trkpt>
      <trkpt lat="43.86226" lon="4.16064">
        <ele>153</ele>
        <time>2015-10-17T07:25:30Z</time>
      </trkpt>
      <trkpt lat="43.86241" lon="4.16073">
        <ele>153.5</ele>
        <time>2015-10-17T07:25:31Z</time>
      </trkpt>
      <trkpt lat="43.86409" lon="4.16215">
        <ele>157.3</ele>
        <time>2015-10-17T07:25:43Z</time>
      </trkpt>
      <trkpt lat="43.8657" lon="4.16356">
        <ele>160.2</ele>
        <time>2015-10-17T07:25:53Z</time>
      </trkpt>
      <trkpt lat="43.86723" lon="4.16461">
        <ele>161.6</ele>
        <time>2015-10-17T07:26:02Z</time>
      </trkpt>
      <trkpt lat="43.86934" lon="4.16726">
        <ele>153.5</ele>
        <time>2015-10-17T07:26:16Z</time>
      </trkpt>
      <trkpt lat="43.87082" lon="4.1693">
        <ele>148.7</ele>
        <time>2015-10-17T07:26:27Z</time>
      </trkpt>
      <trkpt lat="43.87233" lon="4.17117">
        <ele>146.3</ele>
        <time>2015-10-17T07:26:37Z</time>
      </trkpt>
      <trkpt lat="43.87423" lon="4.17325">
        <ele>141.9</ele>
        <time>2015-10-17T07:26:49Z</time>
      </trkpt>
      <trkpt lat="43.87451" lon="4.17362">
        <ele>141.5</ele>
        <time>2015-10-17T07:26:51Z</time>
      </trkpt>
      <trkpt lat="43.87463" lon="4.17383">
        <ele>141</ele>
        <time>2015-10-17T07:26:52Z</time>
      </trkpt>
      <trkpt lat="43.87579" lon="4.17618">
        <ele>134.7</ele>
        <time>2015-10-17T07:27:02Z</time>
      </trkpt>
      <trkpt lat="43.87704" lon="4.17785">
        <ele>129.4</ele>
        <time>2015-10-17T07:27:10Z</time>
      </trkpt>
      <trkpt lat="43.87717" lon="4.17808">
        <ele>128.5</ele>
        <time>2015-10-17T07:27:11Z</time>
      </trkpt>
      <trkpt lat="43.87728" lon="4.17833">
        <ele>128</ele>
        <time>2015-10-17T07:27:12Z</time>
      </trkpt>
      <trkpt lat="43.87761" lon="4.17906">
        <ele>125.6</ele>
        <time>2015-10-17T07:27:15Z</time>
      </trkpt>
      <trkpt lat="43.87775" lon="4.17928">
        <ele>125.1</ele>
        <time>2015-10-17T07:27:16Z</time>
      </trkpt>
      <trkpt lat="43.87923" lon="4.18088">
        <ele>122.2</ele>
        <time>2015-10-17T07:27:25Z</time>
      </trkpt>
      <trkpt lat="43.88122" lon="4.18262">
        <ele>124.6</ele>
        <time>2015-10-17T07:27:36Z</time>
      </trkpt>
      <trkpt lat="43.8824" lon="4.18417">
        <ele>123.2</ele>
        <time>2015-10-17T07:27:44Z</time>
      </trkpt>
      <trkpt lat="43.8834" lon="4.18607">
        <ele>119.3</ele>
        <time>2015-10-17T07:27:53Z</time>
      </trkpt>
      <trkpt lat="43.88353" lon="4.18657">
        <ele>117.9</ele>
        <time>2015-10-17T07:27:55Z</time>
      </trkpt>
      <trkpt lat="43.88357" lon="4.18684">
        <ele>117.4</ele>
        <time>2015-10-17T07:27:56Z</time>
      </trkpt>
      <trkpt lat="43.88358" lon="4.18711">
        <ele>116.9</ele>
        <time>2015-10-17T07:27:57Z</time>
      </trkpt>
      <trkpt lat="43.88358" lon="4.18739">
        <ele>116.5</ele>
        <time>2015-10-17T07:27:58Z</time>
      </trkpt>
      <trkpt lat="43.88355" lon="4.18767">
        <ele>116.5</ele>
        <time>2015-10-17T07:27:59Z</time>
      </trkpt>
      <trkpt lat="43.8835" lon="4.18794">
        <ele>116</ele>
        <time>2015-10-17T07:28:00Z</time>
      </trkpt>
      <trkpt lat="43.88344" lon="4.18822">
        <ele>115.5</ele>
        <time>2015-10-17T07:28:01Z</time>
      </trkpt>
      <trkpt lat="43.88335" lon="4.18849">
        <ele>115</ele>
        <time>2015-10-17T07:28:02Z</time>
      </trkpt>
      <trkpt lat="43.88325" lon="4.18877">
        <ele>115</ele>
        <time>2015-10-17T07:28:03Z</time>
      </trkpt>
      <trkpt lat="43.88314" lon="4.18904">
        <ele>114.5</ele>
        <time>2015-10-17T07:28:04Z</time>
      </trkpt>
      <trkpt lat="43.88302" lon="4.18931">
        <ele>114.1</ele>
        <time>2015-10-17T07:28:05Z</time>
      </trkpt>
      <trkpt lat="43.88215" lon="4.1915">
        <ele>110.7</ele>
        <time>2015-10-17T07:28:13Z</time>
      </trkpt>
      <trkpt lat="43.8821" lon="4.1918">
        <ele>109.7</ele>
        <time>2015-10-17T07:28:14Z</time>
      </trkpt>
      <trkpt lat="43.88208" lon="4.1921">
        <ele>109.3</ele>
        <time>2015-10-17T07:28:15Z</time>
      </trkpt>
      <trkpt lat="43.88209" lon="4.1924">
        <ele>108.8</ele>
        <time>2015-10-17T07:28:16Z</time>
      </trkpt>
      <trkpt lat="43.88214" lon="4.19272">
        <ele>108.8</ele>
        <time>2015-10-17T07:28:17Z</time>
      </trkpt>
      <trkpt lat="43.88224" lon="4.193">
        <ele>108.8</ele>
        <time>2015-10-17T07:28:18Z</time>
      </trkpt>
      <trkpt lat="43.88237" lon="4.19325">
        <ele>108.3</ele>
        <time>2015-10-17T07:28:19Z</time>
      </trkpt>
      <trkpt lat="43.88252" lon="4.19348">
        <ele>107.8</ele>
        <time>2015-10-17T07:28:20Z</time>
      </trkpt>
      <trkpt lat="43.88269" lon="4.19369">
        <ele>107.3</ele>
        <time>2015-10-17T07:28:21Z</time>
      </trkpt>
      <trkpt lat="43.88287" lon="4.19387">
        <ele>107.3</ele>
        <time>2015-10-17T07:28:22Z</time>
      </trkpt>
      <trkpt lat="43.88307" lon="4.19403">
        <ele>106.8</ele>
        <time>2015-10-17T07:28:23Z</time>
      </trkpt>
      <trkpt lat="43.88327" lon="4.19417">
        <ele>106.8</ele>
        <time>2015-10-17T07:28:24Z</time>
      </trkpt>
      <trkpt lat="43.88486" lon="4.19493">
        <ele>105.4</ele>
        <time>2015-10-17T07:28:32Z</time>
      </trkpt>
      <trkpt lat="43.88505" lon="4.19494">
        <ele>105.4</ele>
        <time>2015-10-17T07:28:33Z</time>
      </trkpt>
      <trkpt lat="43.88525" lon="4.19492">
        <ele>104.9</ele>
        <time>2015-10-17T07:28:34Z</time>
      </trkpt>
      <trkpt lat="43.88544" lon="4.19488">
        <ele>104.9</ele>
        <time>2015-10-17T07:28:35Z</time>
      </trkpt>
      <trkpt lat="43.88563" lon="4.19481">
        <ele>104.9</ele>
        <time>2015-10-17T07:28:36Z</time>
      </trkpt>
      <trkpt lat="43.88582" lon="4.19472">
        <ele>104.4</ele>
        <time>2015-10-17T07:28:37Z</time>
      </trkpt>
      <trkpt lat="43.88601" lon="4.19463">
        <ele>104.4</ele>
        <time>2015-10-17T07:28:38Z</time>
      </trkpt>
      <trkpt lat="43.88677" lon="4.19435">
        <ele>104.9</ele>
        <time>2015-10-17T07:28:42Z</time>
      </trkpt>
      <trkpt lat="43.88697" lon="4.19434">
        <ele>104.9</ele>
        <time>2015-10-17T07:28:43Z</time>
      </trkpt>
      <trkpt lat="43.88716" lon="4.19435">
        <ele>104.9</ele>
        <time>2015-10-17T07:28:44Z</time>
      </trkpt>
      <trkpt lat="43.88736" lon="4.19439">
        <ele>104.9</ele>
        <time>2015-10-17T07:28:45Z</time>
      </trkpt>
      <trkpt lat="43.88755" lon="4.19445">
        <ele>104.9</ele>
        <time>2015-10-17T07:28:46Z</time>
      </trkpt>
      <trkpt lat="43.88774" lon="4.19454">
        <ele>104.9</ele>
        <time>2015-10-17T07:28:47Z</time>
      </trkpt>
      <trkpt lat="43.88793" lon="4.19465">
        <ele>104.9</ele>
        <time>2015-10-17T07:28:48Z</time>
      </trkpt>
      <trkpt lat="43.88811" lon="4.19479">
        <ele>104.9</ele>
        <time>2015-10-17T07:28:49Z</time>
      </trkpt>
      <trkpt lat="43.88829" lon="4.19494">
        <ele>104.9</ele>
        <time>2015-10-17T07:28:50Z</time>
      </trkpt>
      <trkpt lat="43.89001" lon="4.19601">
        <ele>103.5</ele>
        <time>2015-10-17T07:28:59Z</time>
      </trkpt>
      <trkpt lat="43.89227" lon="4.19675">
        <ele>101.1</ele>
        <time>2015-10-17T07:29:10Z</time>
      </trkpt>
      <trkpt lat="43.89355" lon="4.19794">
        <ele>99.2</ele>
        <time>2015-10-17T07:29:17Z</time>
      </trkpt>
      <trkpt lat="43.89545" lon="4.19953">
        <ele>98.7</ele>
        <time>2015-10-17T07:29:27Z</time>
      </trkpt>
      <trkpt lat="43.89811" lon="4.20178">
        <ele>97.7</ele>
        <time>2015-10-17T07:29:41Z</time>
      </trkpt>
      <trkpt lat="43.89952" lon="4.20367">
        <ele>96.8</ele>
        <time>2015-10-17T07:29:50Z</time>
      </trkpt>
      <trkpt lat="43.90063" lon="4.20561">
        <ele>96.3</ele>
        <time>2015-10-17T07:29:58Z</time>
      </trkpt>
      <trkpt lat="43.90209" lon="4.20798">
        <ele>96.8</ele>
        <time>2015-10-17T07:30:09Z</time>
      </trkpt>
      <trkpt lat="43.90252" lon="4.20907">
        <ele>97.2</ele>
        <time>2015-10-17T07:30:16Z</time>
      </trkpt>
      <trkpt lat="43.90253" lon="4.20918">
        <ele>96.8</ele>
        <time>2015-10-17T07:30:17Z</time>
      </trkpt>
      <trkpt lat="43.90251" lon="4.20928">
        <ele>96.8</ele>
        <time>2015-10-17T07:30:18Z</time>
      </trkpt>
      <trkpt lat="43.90248" lon="4.2094">
        <ele>96.3</ele>
        <time>2015-10-17T07:30:19Z</time>
      </trkpt>
      <trkpt lat="43.90245" lon="4.20952">
        <ele>96.3</ele>
        <time>2015-10-17T07:30:20Z</time>
      </trkpt>
      <trkpt lat="43.90244" lon="4.20965">
        <ele>96.3</ele>
        <time>2015-10-17T07:30:21Z</time>
      </trkpt>
      <trkpt lat="43.90244" lon="4.20978">
        <ele>96.3</ele>
        <time>2015-10-17T07:30:22Z</time>
      </trkpt>
      <trkpt lat="43.90247" lon="4.20991">
        <ele>96.3</ele>
        <time>2015-10-17T07:30:23Z</time>
      </trkpt>
      <trkpt lat="43.90252" lon="4.21004">
        <ele>95.8</ele>
        <time>2015-10-17T07:30:24Z</time>
      </trkpt>
      <trkpt lat="43.90258" lon="4.21018">
        <ele>95.3</ele>
        <time>2015-10-17T07:30:25Z</time>
      </trkpt>
      <trkpt lat="43.90325" lon="4.21157">
        <ele>95.3</ele>
        <time>2015-10-17T07:30:33Z</time>
      </trkpt>
      <trkpt lat="43.9038" lon="4.21274">
        <ele>94.8</ele>
        <time>2015-10-17T07:30:39Z</time>
      </trkpt>
      <trkpt lat="43.90386" lon="4.21295">
        <ele>94.8</ele>
        <time>2015-10-17T07:30:40Z</time>
      </trkpt>
      <trkpt lat="43.90388" lon="4.21318">
        <ele>94.8</ele>
        <time>2015-10-17T07:30:41Z</time>
      </trkpt>
      <trkpt lat="43.90386" lon="4.21343">
        <ele>94.4</ele>
        <time>2015-10-17T07:30:42Z</time>
      </trkpt>
      <trkpt lat="43.9038" lon="4.21367">
        <ele>93.9</ele>
        <time>2015-10-17T07:30:43Z</time>
      </trkpt>
      <trkpt lat="43.90372" lon="4.21389">
        <ele>93.9</ele>
        <time>2015-10-17T07:30:44Z</time>
      </trkpt>
      <trkpt lat="43.90361" lon="4.21409">
        <ele>93.4</ele>
        <time>2015-10-17T07:30:45Z</time>
      </trkpt>
      <trkpt lat="43.90349" lon="4.21428">
        <ele>92.9</ele>
        <time>2015-10-17T07:30:46Z</time>
      </trkpt>
      <trkpt lat="43.90336" lon="4.21446">
        <ele>92.4</ele>
        <time>2015-10-17T07:30:47Z</time>
      </trkpt>
      <trkpt lat="43.90215" lon="4.21666">
        <ele>89.5</ele>
        <time>2015-10-17T07:30:58Z</time>
      </trkpt>
      <trkpt lat="43.90148" lon="4.21826">
        <ele>90</ele>
        <time>2015-10-17T07:31:07Z</time>
      </trkpt>
      <trkpt lat="43.90127" lon="4.21871">
        <ele>91.5</ele>
        <time>2015-10-17T07:31:12Z</time>
      </trkpt>
      <trkpt lat="43.9012" lon="4.21879">
        <ele>92.4</ele>
        <time>2015-10-17T07:31:17Z</time>
      </trkpt>
      <trkpt lat="43.90115" lon="4.21882">
        <ele>91.9</ele>
        <time>2015-10-17T07:31:18Z</time>
      </trkpt>
      <trkpt lat="43.90111" lon="4.21888">
        <ele>92.4</ele>
        <time>2015-10-17T07:31:19Z</time>
      </trkpt>
      <trkpt lat="43.90112" lon="4.21893">
        <ele>91.9</ele>
        <time>2015-10-17T07:31:20Z</time>
      </trkpt>
      <trkpt lat="43.90114" lon="4.21898">
        <ele>91.5</ele>
        <time>2015-10-17T07:31:21Z</time>
      </trkpt>
      <trkpt lat="43.90119" lon="4.21901">
        <ele>91</ele>
        <time>2015-10-17T07:31:22Z</time>
      </trkpt>
      <trkpt lat="43.90126" lon="4.21902">
        <ele>90.5</ele>
        <time>2015-10-17T07:31:23Z</time>
      </trkpt>
      <trkpt lat="43.90136" lon="4.21903">
        <ele>90.5</ele>
        <time>2015-10-17T07:31:24Z</time>
      </trkpt>
      <trkpt lat="43.902" lon="4.21909">
        <ele>89.5</ele>
        <time>2015-10-17T07:31:29Z</time>
      </trkpt>
      <trkpt lat="43.90214" lon="4.21915">
        <ele>89.5</ele>
        <time>2015-10-17T07:31:30Z</time>
      </trkpt>
      <trkpt lat="43.90341" lon="4.21973">
        <ele>89.1</ele>
        <time>2015-10-17T07:31:38Z</time>
      </trkpt>
      <trkpt lat="43.90357" lon="4.21986">
        <ele>89.1</ele>
        <time>2015-10-17T07:31:39Z</time>
      </trkpt>
      <trkpt lat="43.90435" lon="4.22054">
        <ele>88.6</ele>
        <time>2015-10-17T07:31:44Z</time>
      </trkpt>
      <trkpt lat="43.90452" lon="4.22063">
        <ele>88.6</ele>
        <time>2015-10-17T07:31:45Z</time>
      </trkpt>
      <trkpt lat="43.90472" lon="4.22071">
        <ele>88.6</ele>
        <time>2015-10-17T07:31:46Z</time>
      </trkpt>
      <trkpt lat="43.90602" lon="4.22125">
        <ele>88.1</ele>
        <time>2015-10-17T07:31:52Z</time>
      </trkpt>
      <trkpt lat="43.90621" lon="4.2214">
        <ele>87.6</ele>
        <time>2015-10-17T07:31:53Z</time>
      </trkpt>
      <trkpt lat="43.90639" lon="4.22158">
        <ele>87.6</ele>
        <time>2015-10-17T07:31:54Z</time>
      </trkpt>
      <trkpt lat="43.90655" lon="4.22179">
        <ele>87.6</ele>
        <time>2015-10-17T07:31:55Z</time>
      </trkpt>
      <trkpt lat="43.9067" lon="4.222">
        <ele>87.6</ele>
        <time>2015-10-17T07:31:56Z</time>
      </trkpt>
      <trkpt lat="43.90789" lon="4.22401">
        <ele>87.6</ele>
        <time>2015-10-17T07:32:05Z</time>
      </trkpt>
      <trkpt lat="43.90833" lon="4.2246">
        <ele>87.6</ele>
        <time>2015-10-17T07:32:08Z</time>
      </trkpt>
      <trkpt lat="43.90849" lon="4.22474">
        <ele>87.1</ele>
        <time>2015-10-17T07:32:09Z</time>
      </trkpt>
      <trkpt lat="43.90867" lon="4.22484">
        <ele>87.1</ele>
        <time>2015-10-17T07:32:10Z</time>
      </trkpt>
      <trkpt lat="43.90886" lon="4.22489">
        <ele>87.1</ele>
        <time>2015-10-17T07:32:11Z</time>
      </trkpt>
      <trkpt lat="43.90906" lon="4.22491">
        <ele>87.1</ele>
        <time>2015-10-17T07:32:12Z</time>
      </trkpt>
      <trkpt lat="43.90926" lon="4.2249">
        <ele>86.7</ele>
        <time>2015-10-17T07:32:13Z</time>
      </trkpt>
      <trkpt lat="43.90946" lon="4.22489">
        <ele>86.7</ele>
        <time>2015-10-17T07:32:14Z</time>
      </trkpt>
      <trkpt lat="43.91024" lon="4.22487">
        <ele>86.2</ele>
        <time>2015-10-17T07:32:18Z</time>
      </trkpt>
      <trkpt lat="43.91039" lon="4.22494">
        <ele>86.2</ele>
        <time>2015-10-17T07:32:19Z</time>
      </trkpt>
      <trkpt lat="43.91052" lon="4.22507">
        <ele>85.7</ele>
        <time>2015-10-17T07:32:20Z</time>
      </trkpt>
      <trkpt lat="43.91064" lon="4.22526">
        <ele>85.7</ele>
        <time>2015-10-17T07:32:21Z</time>
      </trkpt>
      <trkpt lat="43.91076" lon="4.22548">
        <ele>85.7</ele>
        <time>2015-10-17T07:32:22Z</time>
      </trkpt>
      <trkpt lat="43.91087" lon="4.2257">
        <ele>86.2</ele>
        <time>2015-10-17T07:32:23Z</time>
      </trkpt>
      <trkpt lat="43.91114" lon="4.2264">
        <ele>86.2</ele>
        <time>2015-10-17T07:32:26Z</time>
      </trkpt>
      <trkpt lat="43.91117" lon="4.22668">
        <ele>85.7</ele>
        <time>2015-10-17T07:32:27Z</time>
      </trkpt>
      <trkpt lat="43.91122" lon="4.22696">
        <ele>86.2</ele>
        <time>2015-10-17T07:32:28Z</time>
      </trkpt>
      <trkpt lat="43.91145" lon="4.22828">
        <ele>87.1</ele>
        <time>2015-10-17T07:32:33Z</time>
      </trkpt>
      <trkpt lat="43.91154" lon="4.2285">
        <ele>87.1</ele>
        <time>2015-10-17T07:32:34Z</time>
      </trkpt>
      <trkpt lat="43.91166" lon="4.22871">
        <ele>87.1</ele>
        <time>2015-10-17T07:32:35Z</time>
      </trkpt>
      <trkpt lat="43.91179" lon="4.22891">
        <ele>87.1</ele>
        <time>2015-10-17T07:32:36Z</time>
      </trkpt>
      <trkpt lat="43.91193" lon="4.2291">
        <ele>87.6</ele>
        <time>2015-10-17T07:32:37Z</time>
      </trkpt>
      <trkpt lat="43.91311" lon="4.23114">
        <ele>90.5</ele>
        <time>2015-10-17T07:32:47Z</time>
      </trkpt>
      <trkpt lat="43.91438" lon="4.23422">
        <ele>88.6</ele>
        <time>2015-10-17T07:32:59Z</time>
      </trkpt>
      <trkpt lat="43.91552" lon="4.23597">
        <ele>86.7</ele>
        <time>2015-10-17T07:33:07Z</time>
      </trkpt>
      <trkpt lat="43.91681" lon="4.23792">
        <ele>84.3</ele>
        <time>2015-10-17T07:33:16Z</time>
      </trkpt>
      <trkpt lat="43.91844" lon="4.24088">
        <ele>80.4</ele>
        <time>2015-10-17T07:33:28Z</time>
      </trkpt>
      <trkpt lat="43.92003" lon="4.24377">
        <ele>79</ele>
        <time>2015-10-17T07:33:40Z</time>
      </trkpt>
      <trkpt lat="43.92178" lon="4.24725">
        <ele>78</ele>
        <time>2015-10-17T07:33:54Z</time>
      </trkpt>
      <trkpt lat="43.92333" lon="4.2513">
        <ele>76.6</ele>
        <time>2015-10-17T07:34:09Z</time>
      </trkpt>
      <trkpt lat="43.92381" lon="4.25355">
        <ele>75.6</ele>
        <time>2015-10-17T07:34:17Z</time>
      </trkpt>
      <trkpt lat="43.92405" lon="4.25514">
        <ele>75.1</ele>
        <time>2015-10-17T07:34:24Z</time>
      </trkpt>
      <trkpt lat="43.92403" lon="4.25545">
        <ele>76.1</ele>
        <time>2015-10-17T07:34:26Z</time>
      </trkpt>
      <trkpt lat="43.92397" lon="4.2557">
        <ele>76.1</ele>
        <time>2015-10-17T07:34:28Z</time>
      </trkpt>
      <trkpt lat="43.92397" lon="4.25578">
        <ele>76.1</ele>
        <time>2015-10-17T07:34:29Z</time>
      </trkpt>
      <trkpt lat="43.92402" lon="4.25587">
        <ele>76.1</ele>
        <time>2015-10-17T07:34:30Z</time>
      </trkpt>
      <trkpt lat="43.92416" lon="4.2561">
        <ele>76.1</ele>
        <time>2015-10-17T07:34:32Z</time>
      </trkpt>
      <trkpt lat="43.92421" lon="4.25626">
        <ele>75.6</ele>
        <time>2015-10-17T07:34:33Z</time>
      </trkpt>
      <trkpt lat="43.92425" lon="4.25645">
        <ele>75.6</ele>
        <time>2015-10-17T07:34:34Z</time>
      </trkpt>
      <trkpt lat="43.92455" lon="4.25826">
        <ele>75.6</ele>
        <time>2015-10-17T07:34:45Z</time>
      </trkpt>
      <trkpt lat="43.92487" lon="4.26">
        <ele>77.5</ele>
        <time>2015-10-17T07:34:58Z</time>
      </trkpt>
      <trkpt lat="43.9251" lon="4.26149">
        <ele>81.4</ele>
        <time>2015-10-17T07:35:10Z</time>
      </trkpt>
      <trkpt lat="43.92523" lon="4.26213">
        <ele>82.8</ele>
        <time>2015-10-17T07:35:19Z</time>
      </trkpt>
      <trkpt lat="43.92529" lon="4.26219">
        <ele>81.9</ele>
        <time>2015-10-17T07:35:31Z</time>
      </trkpt>
      <trkpt lat="43.92529" lon="4.26222">
        <ele>81.9</ele>
        <time>2015-10-17T07:35:33Z</time>
      </trkpt>
      <trkpt lat="43.92529" lon="4.26225">
        <ele>81.9</ele>
        <time>2015-10-17T07:35:34Z</time>
      </trkpt>
      <trkpt lat="43.92527" lon="4.2623">
        <ele>81.9</ele>
        <time>2015-10-17T07:35:35Z</time>
      </trkpt>
      <trkpt lat="43.92522" lon="4.26243">
        <ele>81.9</ele>
        <time>2015-10-17T07:35:37Z</time>
      </trkpt>
      <trkpt lat="43.9252" lon="4.26251">
        <ele>81.9</ele>
        <time>2015-10-17T07:35:38Z</time>
      </trkpt>
      <trkpt lat="43.92518" lon="4.2626">
        <ele>82.3</ele>
        <time>2015-10-17T07:35:39Z</time>
      </trkpt>
      <trkpt lat="43.92515" lon="4.26303">
        <ele>84.3</ele>
        <time>2015-10-17T07:35:44Z</time>
      </trkpt>
      <trkpt lat="43.92516" lon="4.26309">
        <ele>84.3</ele>
        <time>2015-10-17T07:35:45Z</time>
      </trkpt>
      <trkpt lat="43.92519" lon="4.26315">
        <ele>84.7</ele>
        <time>2015-10-17T07:35:46Z</time>
      </trkpt>
      <trkpt lat="43.92536" lon="4.26343">
        <ele>85.7</ele>
        <time>2015-10-17T07:35:50Z</time>
      </trkpt>
      <trkpt lat="43.92539" lon="4.26352">
        <ele>85.7</ele>
        <time>2015-10-17T07:35:51Z</time>
      </trkpt>
      <trkpt lat="43.92542" lon="4.26362">
        <ele>85.7</ele>
        <time>2015-10-17T07:35:52Z</time>
      </trkpt>
      <trkpt lat="43.92549" lon="4.26389">
        <ele>85.2</ele>
        <time>2015-10-17T07:35:55Z</time>
      </trkpt>
      <trkpt lat="43.92553" lon="4.26397">
        <ele>85.2</ele>
        <time>2015-10-17T07:35:56Z</time>
      </trkpt>
      <trkpt lat="43.92557" lon="4.26404">
        <ele>84.7</ele>
        <time>2015-10-17T07:35:57Z</time>
      </trkpt>
      <trkpt lat="43.92563" lon="4.26411">
        <ele>84.3</ele>
        <time>2015-10-17T07:35:58Z</time>
      </trkpt>
      <trkpt lat="43.92568" lon="4.26417">
        <ele>83.8</ele>
        <time>2015-10-17T07:35:59Z</time>
      </trkpt>
      <trkpt lat="43.92575" lon="4.26428">
        <ele>83.3</ele>
        <time>2015-10-17T07:36:01Z</time>
      </trkpt>
      <trkpt lat="43.92573" lon="4.26436">
        <ele>82.3</ele>
        <time>2015-10-17T07:36:03Z</time>
      </trkpt>
      <trkpt lat="43.9257" lon="4.26438">
        <ele>82.3</ele>
        <time>2015-10-17T07:36:04Z</time>
      </trkpt>
      <trkpt lat="43.92567" lon="4.26436">
        <ele>81.9</ele>
        <time>2015-10-17T07:36:05Z</time>
      </trkpt>
      <trkpt lat="43.92564" lon="4.26435">
        <ele>81.9</ele>
        <time>2015-10-17T07:36:06Z</time>
      </trkpt>
      <trkpt lat="43.92561" lon="4.26435">
        <ele>81.9</ele>
        <time>2015-10-17T07:36:07Z</time>
      </trkpt>
      <trkpt lat="43.92559" lon="4.26436">
        <ele>81.9</ele>
        <time>2015-10-17T07:36:08Z</time>
      </trkpt>
      <trkpt lat="43.92557" lon="4.26439">
        <ele>81.9</ele>
        <time>2015-10-17T07:36:09Z</time>
      </trkpt>
      <trkpt lat="43.92557" lon="4.26442">
        <ele>81.9</ele>
        <time>2015-10-17T07:36:10Z</time>
      </trkpt>
      <trkpt lat="43.92558" lon="4.26444">
        <ele>82.8</ele>
        <time>2015-10-17T07:36:24Z</time>
      </trkpt>
      <trkpt lat="43.92557" lon="4.26444">
        <ele>83.8</ele>
        <time>2015-10-17T07:37:02Z</time>
      </trkpt>
      <trkpt lat="43.92557" lon="4.26441">
        <ele>79.5</ele>
        <time>2015-10-17T07:57:32Z</time>
      </trkpt>
      <trkpt lat="43.92558" lon="4.26444">
        <ele>82.8</ele>
        <time>2015-10-17T07:58:59Z</time>
      </trkpt>
      <trkpt lat="43.92575" lon="4.26441">
        <ele>82.8</ele>
        <time>2015-10-17T07:59:06Z</time>
      </trkpt>
      <trkpt lat="43.92579" lon="4.26439">
        <ele>81.4</ele>
        <time>2015-10-17T07:59:19Z</time>
      </trkpt>
      <trkpt lat="43.9258" lon="4.26439">
        <ele>80.9</ele>
        <time>2015-10-17T07:59:26Z</time>
      </trkpt>
      <trkpt lat="43.92587" lon="4.26446">
        <ele>79.9</ele>
        <time>2015-10-17T07:59:29Z</time>
      </trkpt>
      <trkpt lat="43.9259" lon="4.26453">
        <ele>79.5</ele>
        <time>2015-10-17T07:59:30Z</time>
      </trkpt>
      <trkpt lat="43.92593" lon="4.26462">
        <ele>78.5</ele>
        <time>2015-10-17T07:59:31Z</time>
      </trkpt>
      <trkpt lat="43.92595" lon="4.26471">
        <ele>78</ele>
        <time>2015-10-17T07:59:32Z</time>
      </trkpt>
      <trkpt lat="43.92613" lon="4.26577">
        <ele>74.6</ele>
        <time>2015-10-17T07:59:41Z</time>
      </trkpt>
      <trkpt lat="43.92618" lon="4.26689">
        <ele>73.7</ele>
        <time>2015-10-17T07:59:50Z</time>
      </trkpt>
      <trkpt lat="43.9262" lon="4.2673">
        <ele>73.7</ele>
        <time>2015-10-17T07:59:53Z</time>
      </trkpt>
      <trkpt lat="43.92622" lon="4.26743">
        <ele>73.7</ele>
        <time>2015-10-17T07:59:54Z</time>
      </trkpt>
      <trkpt lat="43.92625" lon="4.26754">
        <ele>73.7</ele>
        <time>2015-10-17T07:59:55Z</time>
      </trkpt>
      <trkpt lat="43.92629" lon="4.26764">
        <ele>73.7</ele>
        <time>2015-10-17T07:59:56Z</time>
      </trkpt>
      <trkpt lat="43.92634" lon="4.26773">
        <ele>73.7</ele>
        <time>2015-10-17T07:59:57Z</time>
      </trkpt>
      <trkpt lat="43.9264" lon="4.26782">
        <ele>73.7</ele>
        <time>2015-10-17T07:59:58Z</time>
      </trkpt>
      <trkpt lat="43.92702" lon="4.26886">
        <ele>71.8</ele>
        <time>2015-10-17T08:00:07Z</time>
      </trkpt>
      <trkpt lat="43.92792" lon="4.27029">
        <ele>69.8</ele>
        <time>2015-10-17T08:00:17Z</time>
      </trkpt>
      <trkpt lat="43.92819" lon="4.27076">
        <ele>68.4</ele>
        <time>2015-10-17T08:00:20Z</time>
      </trkpt>
      <trkpt lat="43.9283" lon="4.27091">
        <ele>68.4</ele>
        <time>2015-10-17T08:00:21Z</time>
      </trkpt>
      <trkpt lat="43.92863" lon="4.27136">
        <ele>67</ele>
        <time>2015-10-17T08:00:24Z</time>
      </trkpt>
      <trkpt lat="43.92872" lon="4.27155">
        <ele>67</ele>
        <time>2015-10-17T08:00:25Z</time>
      </trkpt>
      <trkpt lat="43.92878" lon="4.27176">
        <ele>66.5</ele>
        <time>2015-10-17T08:00:26Z</time>
      </trkpt>
      <trkpt lat="43.92957" lon="4.27412">
        <ele>66</ele>
        <time>2015-10-17T08:00:37Z</time>
      </trkpt>
      <trkpt lat="43.93031" lon="4.27631">
        <ele>66</ele>
        <time>2015-10-17T08:00:46Z</time>
      </trkpt>
      <trkpt lat="43.9314" lon="4.27904">
        <ele>66</ele>
        <time>2015-10-17T08:00:58Z</time>
      </trkpt>
      <trkpt lat="43.93145" lon="4.27927">
        <ele>66</ele>
        <time>2015-10-17T08:00:59Z</time>
      </trkpt>
      <trkpt lat="43.93148" lon="4.27951">
        <ele>66</ele>
        <time>2015-10-17T08:01:00Z</time>
      </trkpt>
      <trkpt lat="43.93149" lon="4.27975">
        <ele>65.5</ele>
        <time>2015-10-17T08:01:01Z</time>
      </trkpt>
      <trkpt lat="43.9315" lon="4.28">
        <ele>66</ele>
        <time>2015-10-17T08:01:02Z</time>
      </trkpt>
      <trkpt lat="43.93179" lon="4.28249">
        <ele>66</ele>
        <time>2015-10-17T08:01:12Z</time>
      </trkpt>
      <trkpt lat="43.93191" lon="4.28427">
        <ele>66</ele>
        <time>2015-10-17T08:01:20Z</time>
      </trkpt>
      <trkpt lat="43.93195" lon="4.28448">
        <ele>65.5</ele>
        <time>2015-10-17T08:01:21Z</time>
      </trkpt>
      <trkpt lat="43.932" lon="4.28467">
        <ele>65.5</ele>
        <time>2015-10-17T08:01:22Z</time>
      </trkpt>
      <trkpt lat="43.93286" lon="4.28755">
        <ele>63.6</ele>
        <time>2015-10-17T08:01:36Z</time>
      </trkpt>
      <trkpt lat="43.93289" lon="4.28776">
        <ele>63.6</ele>
        <time>2015-10-17T08:01:37Z</time>
      </trkpt>
      <trkpt lat="43.93291" lon="4.28797">
        <ele>63.6</ele>
        <time>2015-10-17T08:01:38Z</time>
      </trkpt>
      <trkpt lat="43.93304" lon="4.29002">
        <ele>62.6</ele>
        <time>2015-10-17T08:01:49Z</time>
      </trkpt>
      <trkpt lat="43.93312" lon="4.29211">
        <ele>61.7</ele>
        <time>2015-10-17T08:02:01Z</time>
      </trkpt>
      <trkpt lat="43.93307" lon="4.2938">
        <ele>62.6</ele>
        <time>2015-10-17T08:02:13Z</time>
      </trkpt>
      <trkpt lat="43.93305" lon="4.29424">
        <ele>62.6</ele>
        <time>2015-10-17T08:02:21Z</time>
      </trkpt>
      <trkpt lat="43.93305" lon="4.29458">
        <ele>63.1</ele>
        <time>2015-10-17T08:02:27Z</time>
      </trkpt>
      <trkpt lat="43.93306" lon="4.29467">
        <ele>63.1</ele>
        <time>2015-10-17T08:02:28Z</time>
      </trkpt>
      <trkpt lat="43.93326" lon="4.29591">
        <ele>62.1</ele>
        <time>2015-10-17T08:02:40Z</time>
      </trkpt>
      <trkpt lat="43.93327" lon="4.29599">
        <ele>62.1</ele>
        <time>2015-10-17T08:02:41Z</time>
      </trkpt>
      <trkpt lat="43.93328" lon="4.29607">
        <ele>61.7</ele>
        <time>2015-10-17T08:02:42Z</time>
      </trkpt>
      <trkpt lat="43.93328" lon="4.29616">
        <ele>61.7</ele>
        <time>2015-10-17T08:02:43Z</time>
      </trkpt>
      <trkpt lat="43.93327" lon="4.29624">
        <ele>61.7</ele>
        <time>2015-10-17T08:02:44Z</time>
      </trkpt>
      <trkpt lat="43.93325" lon="4.29632">
        <ele>61.7</ele>
        <time>2015-10-17T08:02:45Z</time>
      </trkpt>
      <trkpt lat="43.93323" lon="4.29639">
        <ele>62.1</ele>
        <time>2015-10-17T08:02:46Z</time>
      </trkpt>
      <trkpt lat="43.93297" lon="4.29745">
        <ele>63.1</ele>
        <time>2015-10-17T08:02:57Z</time>
      </trkpt>
      <trkpt lat="43.9328" lon="4.2987">
        <ele>63.6</ele>
        <time>2015-10-17T08:03:08Z</time>
      </trkpt>
      <trkpt lat="43.93282" lon="4.29899">
        <ele>63.6</ele>
        <time>2015-10-17T08:03:12Z</time>
      </trkpt>
      <trkpt lat="43.9329" lon="4.30019">
        <ele>64.6</ele>
        <time>2015-10-17T08:03:21Z</time>
      </trkpt>
      <trkpt lat="43.93333" lon="4.302">
        <ele>64.1</ele>
        <time>2015-10-17T08:03:31Z</time>
      </trkpt>
      <trkpt lat="43.93408" lon="4.3035">
        <ele>62.1</ele>
        <time>2015-10-17T08:03:40Z</time>
      </trkpt>
      <trkpt lat="43.93493" lon="4.3052">
        <ele>60.2</ele>
        <time>2015-10-17T08:03:50Z</time>
      </trkpt>
      <trkpt lat="43.93583" lon="4.30616">
        <ele>61.2</ele>
        <time>2015-10-17T08:03:57Z</time>
      </trkpt>
      <trkpt lat="43.93682" lon="4.30645">
        <ele>61.2</ele>
        <time>2015-10-17T08:04:03Z</time>
      </trkpt>
      <trkpt lat="43.93796" lon="4.3061">
        <ele>60.7</ele>
        <time>2015-10-17T08:04:10Z</time>
      </trkpt>
      <trkpt lat="43.93853" lon="4.30582">
        <ele>62.6</ele>
        <time>2015-10-17T08:04:14Z</time>
      </trkpt>
      <trkpt lat="43.93865" lon="4.3058">
        <ele>62.6</ele>
        <time>2015-10-17T08:04:15Z</time>
      </trkpt>
      <trkpt lat="43.93877" lon="4.3058">
        <ele>63.1</ele>
        <time>2015-10-17T08:04:16Z</time>
      </trkpt>
      <trkpt lat="43.93888" lon="4.30584">
        <ele>63.6</ele>
        <time>2015-10-17T08:04:17Z</time>
      </trkpt>
      <trkpt lat="43.93898" lon="4.3059">
        <ele>64.1</ele>
        <time>2015-10-17T08:04:18Z</time>
      </trkpt>
      <trkpt lat="43.93907" lon="4.30599">
        <ele>64.1</ele>
        <time>2015-10-17T08:04:19Z</time>
      </trkpt>
      <trkpt lat="43.93915" lon="4.30611">
        <ele>64.1</ele>
        <time>2015-10-17T08:04:20Z</time>
      </trkpt>
      <trkpt lat="43.9392" lon="4.30625">
        <ele>64.1</ele>
        <time>2015-10-17T08:04:21Z</time>
      </trkpt>
      <trkpt lat="43.93922" lon="4.30642">
        <ele>64.1</ele>
        <time>2015-10-17T08:04:22Z</time>
      </trkpt>
      <trkpt lat="43.93923" lon="4.3066">
        <ele>64.1</ele>
        <time>2015-10-17T08:04:23Z</time>
      </trkpt>
      <trkpt lat="43.93922" lon="4.307">
        <ele>64.1</ele>
        <time>2015-10-17T08:04:25Z</time>
      </trkpt>
      <trkpt lat="43.93921" lon="4.30721">
        <ele>64.1</ele>
        <time>2015-10-17T08:04:26Z</time>
      </trkpt>
      <trkpt lat="43.9392" lon="4.30844">
        <ele>63.1</ele>
        <time>2015-10-17T08:04:31Z</time>
      </trkpt>
      <trkpt lat="43.93926" lon="4.30871">
        <ele>63.1</ele>
        <time>2015-10-17T08:04:32Z</time>
      </trkpt>
      <trkpt lat="43.93934" lon="4.30897">
        <ele>63.1</ele>
        <time>2015-10-17T08:04:33Z</time>
      </trkpt>
      <trkpt lat="43.94031" lon="4.31107">
        <ele>64.6</ele>
        <time>2015-10-17T08:04:41Z</time>
      </trkpt>
      <trkpt lat="43.94187" lon="4.31418">
        <ele>65</ele>
        <time>2015-10-17T08:04:54Z</time>
      </trkpt>
      <trkpt lat="43.94204" lon="4.3143">
        <ele>65</ele>
        <time>2015-10-17T08:04:55Z</time>
      </trkpt>
      <trkpt lat="43.94222" lon="4.3144">
        <ele>65</ele>
        <time>2015-10-17T08:04:56Z</time>
      </trkpt>
      <trkpt lat="43.94243" lon="4.31448">
        <ele>65.5</ele>
        <time>2015-10-17T08:04:57Z</time>
      </trkpt>
      <trkpt lat="43.94265" lon="4.31453">
        <ele>65.5</ele>
        <time>2015-10-17T08:04:58Z</time>
      </trkpt>
      <trkpt lat="43.94288" lon="4.31458">
        <ele>65.5</ele>
        <time>2015-10-17T08:04:59Z</time>
      </trkpt>
      <trkpt lat="43.94414" lon="4.31527">
        <ele>66</ele>
        <time>2015-10-17T08:05:05Z</time>
      </trkpt>
      <trkpt lat="43.94517" lon="4.3158">
        <ele>66.5</ele>
        <time>2015-10-17T08:05:10Z</time>
      </trkpt>
      <trkpt lat="43.94537" lon="4.31592">
        <ele>66.5</ele>
        <time>2015-10-17T08:05:11Z</time>
      </trkpt>
      <trkpt lat="43.94557" lon="4.31608">
        <ele>66.5</ele>
        <time>2015-10-17T08:05:12Z</time>
      </trkpt>
      <trkpt lat="43.94721" lon="4.31783">
        <ele>67.4</ele>
        <time>2015-10-17T08:05:21Z</time>
      </trkpt>
      <trkpt lat="43.94787" lon="4.31915">
        <ele>67.9</ele>
        <time>2015-10-17T08:05:26Z</time>
      </trkpt>
      <trkpt lat="43.94803" lon="4.31937">
        <ele>68.4</ele>
        <time>2015-10-17T08:05:27Z</time>
      </trkpt>
      <trkpt lat="43.94821" lon="4.31957">
        <ele>68.4</ele>
        <time>2015-10-17T08:05:28Z</time>
      </trkpt>
      <trkpt lat="43.94876" lon="4.32013">
        <ele>68.9</ele>
        <time>2015-10-17T08:05:31Z</time>
      </trkpt>
      <trkpt lat="43.94892" lon="4.32035">
        <ele>69.4</ele>
        <time>2015-10-17T08:05:32Z</time>
      </trkpt>
      <trkpt lat="43.94905" lon="4.32059">
        <ele>68.9</ele>
        <time>2015-10-17T08:05:33Z</time>
      </trkpt>
      <trkpt lat="43.94998" lon="4.32194">
        <ele>68.9</ele>
        <time>2015-10-17T08:05:40Z</time>
      </trkpt>
      <trkpt lat="43.95066" lon="4.3231">
        <ele>69.4</ele>
        <time>2015-10-17T08:05:45Z</time>
      </trkpt>
      <trkpt lat="43.95082" lon="4.3233">
        <ele>69.4</ele>
        <time>2015-10-17T08:05:46Z</time>
      </trkpt>
      <trkpt lat="43.951" lon="4.32348">
        <ele>69.8</ele>
        <time>2015-10-17T08:05:47Z</time>
      </trkpt>
      <trkpt lat="43.95292" lon="4.32525">
        <ele>70.8</ele>
        <time>2015-10-17T08:05:57Z</time>
      </trkpt>
      <trkpt lat="43.95523" lon="4.32771">
        <ele>71.8</ele>
        <time>2015-10-17T08:06:10Z</time>
      </trkpt>
      <trkpt lat="43.95552" lon="4.32818">
        <ele>72.2</ele>
        <time>2015-10-17T08:06:12Z</time>
      </trkpt>
      <trkpt lat="43.95675" lon="4.33006">
        <ele>72.7</ele>
        <time>2015-10-17T08:06:20Z</time>
      </trkpt>
      <trkpt lat="43.95791" lon="4.33161">
        <ele>73.2</ele>
        <time>2015-10-17T08:06:27Z</time>
      </trkpt>
      <trkpt lat="43.95814" lon="4.33213">
        <ele>73.2</ele>
        <time>2015-10-17T08:06:29Z</time>
      </trkpt>
      <trkpt lat="43.95823" lon="4.33241">
        <ele>73.2</ele>
        <time>2015-10-17T08:06:30Z</time>
      </trkpt>
      <trkpt lat="43.95854" lon="4.33346">
        <ele>73.7</ele>
        <time>2015-10-17T08:06:34Z</time>
      </trkpt>
      <trkpt lat="43.95865" lon="4.33364">
        <ele>73.7</ele>
        <time>2015-10-17T08:06:35Z</time>
      </trkpt>
      <trkpt lat="43.95878" lon="4.33378">
        <ele>73.7</ele>
        <time>2015-10-17T08:06:36Z</time>
      </trkpt>
      <trkpt lat="43.95893" lon="4.33388">
        <ele>73.7</ele>
        <time>2015-10-17T08:06:37Z</time>
      </trkpt>
      <trkpt lat="43.9591" lon="4.33393">
        <ele>73.7</ele>
        <time>2015-10-17T08:06:38Z</time>
      </trkpt>
      <trkpt lat="43.95931" lon="4.33395">
        <ele>73.2</ele>
        <time>2015-10-17T08:06:39Z</time>
      </trkpt>
      <trkpt lat="43.95953" lon="4.33397">
        <ele>73.2</ele>
        <time>2015-10-17T08:06:40Z</time>
      </trkpt>
      <trkpt lat="43.96194" lon="4.33423">
        <ele>74.6</ele>
        <time>2015-10-17T08:06:51Z</time>
      </trkpt>
      <trkpt lat="43.96386" lon="4.33399">
        <ele>75.6</ele>
        <time>2015-10-17T08:07:00Z</time>
      </trkpt>
      <trkpt lat="43.96566" lon="4.33423">
        <ele>78</ele>
        <time>2015-10-17T08:07:08Z</time>
      </trkpt>
      <trkpt lat="43.96756" lon="4.33418">
        <ele>78.5</ele>
        <time>2015-10-17T08:07:17Z</time>
      </trkpt>
      <trkpt lat="43.96881" lon="4.33401">
        <ele>78</ele>
        <time>2015-10-17T08:07:25Z</time>
      </trkpt>
      <trkpt lat="43.96893" lon="4.33402">
        <ele>78</ele>
        <time>2015-10-17T08:07:26Z</time>
      </trkpt>
      <trkpt lat="43.96904" lon="4.3341">
        <ele>78</ele>
        <time>2015-10-17T08:07:27Z</time>
      </trkpt>
      <trkpt lat="43.96913" lon="4.33422">
        <ele>78</ele>
        <time>2015-10-17T08:07:28Z</time>
      </trkpt>
      <trkpt lat="43.96921" lon="4.33439">
        <ele>78</ele>
        <time>2015-10-17T08:07:29Z</time>
      </trkpt>
      <trkpt lat="43.96927" lon="4.33459">
        <ele>77.5</ele>
        <time>2015-10-17T08:07:30Z</time>
      </trkpt>
      <trkpt lat="43.9693" lon="4.33483">
        <ele>78</ele>
        <time>2015-10-17T08:07:31Z</time>
      </trkpt>
      <trkpt lat="43.96933" lon="4.3351">
        <ele>78.5</ele>
        <time>2015-10-17T08:07:32Z</time>
      </trkpt>
      <trkpt lat="43.96935" lon="4.33538">
        <ele>79.5</ele>
        <time>2015-10-17T08:07:33Z</time>
      </trkpt>
      <trkpt lat="43.96979" lon="4.33805">
        <ele>80.4</ele>
        <time>2015-10-17T08:07:42Z</time>
      </trkpt>
      <trkpt lat="43.97077" lon="4.34146">
        <ele>79</ele>
        <time>2015-10-17T08:07:53Z</time>
      </trkpt>
      <trkpt lat="43.97273" lon="4.34786">
        <ele>82.3</ele>
        <time>2015-10-17T08:08:13Z</time>
      </trkpt>
      <trkpt lat="43.97364" lon="4.35121">
        <ele>84.7</ele>
        <time>2015-10-17T08:08:23Z</time>
      </trkpt>
      <trkpt lat="43.97463" lon="4.35331">
        <ele>86.7</ele>
        <time>2015-10-17T08:08:30Z</time>
      </trkpt>
      <trkpt lat="43.97587" lon="4.35637">
        <ele>90.5</ele>
        <time>2015-10-17T08:08:40Z</time>
      </trkpt>
      <trkpt lat="43.97754" lon="4.35992">
        <ele>99.2</ele>
        <time>2015-10-17T08:08:52Z</time>
      </trkpt>
      <trkpt lat="43.97943" lon="4.36344">
        <ele>110.7</ele>
        <time>2015-10-17T08:09:05Z</time>
      </trkpt>
      <trkpt lat="43.98135" lon="4.36709">
        <ele>124.6</ele>
        <time>2015-10-17T08:09:18Z</time>
      </trkpt>
      <trkpt lat="43.98259" lon="4.36984">
        <ele>133.3</ele>
        <time>2015-10-17T08:09:28Z</time>
      </trkpt>
      <trkpt lat="43.98281" lon="4.37065">
        <ele>134.2</ele>
        <time>2015-10-17T08:09:32Z</time>
      </trkpt>
      <trkpt lat="43.98281" lon="4.3708">
        <ele>133.8</ele>
        <time>2015-10-17T08:09:33Z</time>
      </trkpt>
      <trkpt lat="43.98281" lon="4.37107">
        <ele>133.3</ele>
        <time>2015-10-17T08:09:35Z</time>
      </trkpt>
      <trkpt lat="43.98285" lon="4.37119">
        <ele>133.3</ele>
        <time>2015-10-17T08:09:36Z</time>
      </trkpt>
      <trkpt lat="43.98292" lon="4.37129">
        <ele>133.3</ele>
        <time>2015-10-17T08:09:37Z</time>
      </trkpt>
      <trkpt lat="43.983" lon="4.37141">
        <ele>132.8</ele>
        <time>2015-10-17T08:09:38Z</time>
      </trkpt>
      <trkpt lat="43.98308" lon="4.37156">
        <ele>132.3</ele>
        <time>2015-10-17T08:09:39Z</time>
      </trkpt>
      <trkpt lat="43.98315" lon="4.37173">
        <ele>131.8</ele>
        <time>2015-10-17T08:09:40Z</time>
      </trkpt>
      <trkpt lat="43.98321" lon="4.37193">
        <ele>130.9</ele>
        <time>2015-10-17T08:09:41Z</time>
      </trkpt>
      <trkpt lat="43.98399" lon="4.37383">
        <ele>125.1</ele>
        <time>2015-10-17T08:09:50Z</time>
      </trkpt>
      <trkpt lat="43.98574" lon="4.37635">
        <ele>117.9</ele>
        <time>2015-10-17T08:10:02Z</time>
      </trkpt>
      <trkpt lat="43.98752" lon="4.37931">
        <ele>111.2</ele>
        <time>2015-10-17T08:10:15Z</time>
      </trkpt>
      <trkpt lat="43.98798" lon="4.3806">
        <ele>107.8</ele>
        <time>2015-10-17T08:10:20Z</time>
      </trkpt>
      <trkpt lat="43.98801" lon="4.38087">
        <ele>106.8</ele>
        <time>2015-10-17T08:10:21Z</time>
      </trkpt>
      <trkpt lat="43.98802" lon="4.38115">
        <ele>105.9</ele>
        <time>2015-10-17T08:10:22Z</time>
      </trkpt>
      <trkpt lat="43.98799" lon="4.38144">
        <ele>104.9</ele>
        <time>2015-10-17T08:10:23Z</time>
      </trkpt>
      <trkpt lat="43.98796" lon="4.38171">
        <ele>104</ele>
        <time>2015-10-17T08:10:24Z</time>
      </trkpt>
      <trkpt lat="43.98792" lon="4.38225">
        <ele>102</ele>
        <time>2015-10-17T08:10:26Z</time>
      </trkpt>
      <trkpt lat="43.98793" lon="4.38252">
        <ele>100.6</ele>
        <time>2015-10-17T08:10:27Z</time>
      </trkpt>
      <trkpt lat="43.98798" lon="4.38278">
        <ele>100.1</ele>
        <time>2015-10-17T08:10:28Z</time>
      </trkpt>
      <trkpt lat="43.98804" lon="4.38304">
        <ele>99.6</ele>
        <time>2015-10-17T08:10:29Z</time>
      </trkpt>
      <trkpt lat="43.98811" lon="4.38329">
        <ele>99.2</ele>
        <time>2015-10-17T08:10:30Z</time>
      </trkpt>
      <trkpt lat="43.98827" lon="4.38377">
        <ele>98.2</ele>
        <time>2015-10-17T08:10:32Z</time>
      </trkpt>
      <trkpt lat="43.98837" lon="4.38398">
        <ele>98.2</ele>
        <time>2015-10-17T08:10:33Z</time>
      </trkpt>
      <trkpt lat="43.98852" lon="4.38413">
        <ele>97.7</ele>
        <time>2015-10-17T08:10:34Z</time>
      </trkpt>
      <trkpt lat="43.98869" lon="4.38425">
        <ele>97.2</ele>
        <time>2015-10-17T08:10:35Z</time>
      </trkpt>
      <trkpt lat="43.98888" lon="4.38437">
        <ele>97.2</ele>
        <time>2015-10-17T08:10:36Z</time>
      </trkpt>
      <trkpt lat="43.98908" lon="4.3845">
        <ele>96.8</ele>
        <time>2015-10-17T08:10:37Z</time>
      </trkpt>
      <trkpt lat="43.99044" lon="4.38553">
        <ele>91.5</ele>
        <time>2015-10-17T08:10:44Z</time>
      </trkpt>
      <trkpt lat="43.99061" lon="4.38574">
        <ele>91</ele>
        <time>2015-10-17T08:10:45Z</time>
      </trkpt>
      <trkpt lat="43.99078" lon="4.38597">
        <ele>90.5</ele>
        <time>2015-10-17T08:10:46Z</time>
      </trkpt>
      <trkpt lat="43.99093" lon="4.38623">
        <ele>89.5</ele>
        <time>2015-10-17T08:10:47Z</time>
      </trkpt>
      <trkpt lat="43.99107" lon="4.3865">
        <ele>89.1</ele>
        <time>2015-10-17T08:10:48Z</time>
      </trkpt>
      <trkpt lat="43.99304" lon="4.39061">
        <ele>81.4</ele>
        <time>2015-10-17T08:11:03Z</time>
      </trkpt>
      <trkpt lat="43.99384" lon="4.3921">
        <ele>79.5</ele>
        <time>2015-10-17T08:11:09Z</time>
      </trkpt>
      <trkpt lat="43.99402" lon="4.39231">
        <ele>79.5</ele>
        <time>2015-10-17T08:11:10Z</time>
      </trkpt>
      <trkpt lat="43.99421" lon="4.3925">
        <ele>79.5</ele>
        <time>2015-10-17T08:11:11Z</time>
      </trkpt>
      <trkpt lat="43.99442" lon="4.39266">
        <ele>79.5</ele>
        <time>2015-10-17T08:11:12Z</time>
      </trkpt>
      <trkpt lat="43.99464" lon="4.39279">
        <ele>79.5</ele>
        <time>2015-10-17T08:11:13Z</time>
      </trkpt>
      <trkpt lat="43.99488" lon="4.39289">
        <ele>79.5</ele>
        <time>2015-10-17T08:11:14Z</time>
      </trkpt>
      <trkpt lat="43.99512" lon="4.39296">
        <ele>79.5</ele>
        <time>2015-10-17T08:11:15Z</time>
      </trkpt>
      <trkpt lat="43.99535" lon="4.39302">
        <ele>79.5</ele>
        <time>2015-10-17T08:11:16Z</time>
      </trkpt>
      <trkpt lat="43.99674" lon="4.3934">
        <ele>78.5</ele>
        <time>2015-10-17T08:11:22Z</time>
      </trkpt>
      <trkpt lat="43.99696" lon="4.39352">
        <ele>78.5</ele>
        <time>2015-10-17T08:11:23Z</time>
      </trkpt>
      <trkpt lat="43.99717" lon="4.39369">
        <ele>78.5</ele>
        <time>2015-10-17T08:11:24Z</time>
      </trkpt>
      <trkpt lat="43.99737" lon="4.39388">
        <ele>78</ele>
        <time>2015-10-17T08:11:25Z</time>
      </trkpt>
      <trkpt lat="43.99756" lon="4.39411">
        <ele>77.5</ele>
        <time>2015-10-17T08:11:26Z</time>
      </trkpt>
      <trkpt lat="43.99774" lon="4.39434">
        <ele>77.5</ele>
        <time>2015-10-17T08:11:27Z</time>
      </trkpt>
      <trkpt lat="43.99789" lon="4.39457">
        <ele>77.5</ele>
        <time>2015-10-17T08:11:28Z</time>
      </trkpt>
      <trkpt lat="43.99911" lon="4.39655">
        <ele>79</ele>
        <time>2015-10-17T08:11:37Z</time>
      </trkpt>
      <trkpt lat="43.99973" lon="4.39827">
        <ele>80.4</ele>
        <time>2015-10-17T08:11:43Z</time>
      </trkpt>
      <trkpt lat="44.00006" lon="4.39906">
        <ele>80.4</ele>
        <time>2015-10-17T08:11:46Z</time>
      </trkpt>
      <trkpt lat="44.0002" lon="4.39929">
        <ele>80.4</ele>
        <time>2015-10-17T08:11:47Z</time>
      </trkpt>
      <trkpt lat="44.00036" lon="4.39951">
        <ele>80.4</ele>
        <time>2015-10-17T08:11:48Z</time>
      </trkpt>
      <trkpt lat="44.00053" lon="4.3997">
        <ele>80.4</ele>
        <time>2015-10-17T08:11:49Z</time>
      </trkpt>
      <trkpt lat="44.00071" lon="4.39988">
        <ele>80.9</ele>
        <time>2015-10-17T08:11:50Z</time>
      </trkpt>
      <trkpt lat="44.0009" lon="4.40005">
        <ele>81.4</ele>
        <time>2015-10-17T08:11:51Z</time>
      </trkpt>
      <trkpt lat="44.00287" lon="4.40139">
        <ele>85.2</ele>
        <time>2015-10-17T08:12:01Z</time>
      </trkpt>
      <trkpt lat="44.00355" lon="4.40155">
        <ele>87.6</ele>
        <time>2015-10-17T08:12:06Z</time>
      </trkpt>
      <trkpt lat="44.00363" lon="4.40158">
        <ele>88.1</ele>
        <time>2015-10-17T08:12:07Z</time>
      </trkpt>
      <trkpt lat="44.00369" lon="4.40164">
        <ele>88.6</ele>
        <time>2015-10-17T08:12:08Z</time>
      </trkpt>
      <trkpt lat="44.00375" lon="4.40174">
        <ele>88.6</ele>
        <time>2015-10-17T08:12:09Z</time>
      </trkpt>
      <trkpt lat="44.0038" lon="4.40186">
        <ele>89.1</ele>
        <time>2015-10-17T08:12:10Z</time>
      </trkpt>
      <trkpt lat="44.00383" lon="4.402">
        <ele>89.5</ele>
        <time>2015-10-17T08:12:11Z</time>
      </trkpt>
      <trkpt lat="44.00385" lon="4.40216">
        <ele>90</ele>
        <time>2015-10-17T08:12:12Z</time>
      </trkpt>
      <trkpt lat="44.00386" lon="4.40234">
        <ele>91</ele>
        <time>2015-10-17T08:12:13Z</time>
      </trkpt>
      <trkpt lat="44.00395" lon="4.40349">
        <ele>95.3</ele>
        <time>2015-10-17T08:12:19Z</time>
      </trkpt>
      <trkpt lat="44.004" lon="4.40364">
        <ele>95.8</ele>
        <time>2015-10-17T08:12:20Z</time>
      </trkpt>
      <trkpt lat="44.00407" lon="4.40376">
        <ele>96.8</ele>
        <time>2015-10-17T08:12:21Z</time>
      </trkpt>
      <trkpt lat="44.00417" lon="4.40381">
        <ele>97.2</ele>
        <time>2015-10-17T08:12:22Z</time>
      </trkpt>
      <trkpt lat="44.00431" lon="4.40383">
        <ele>98.2</ele>
        <time>2015-10-17T08:12:23Z</time>
      </trkpt>
      <trkpt lat="44.00458" lon="4.40382">
        <ele>99.6</ele>
        <time>2015-10-17T08:12:25Z</time>
      </trkpt>
      <trkpt lat="44.00471" lon="4.40383">
        <ele>100.1</ele>
        <time>2015-10-17T08:12:26Z</time>
      </trkpt>
      <trkpt lat="44.00482" lon="4.40389">
        <ele>100.1</ele>
        <time>2015-10-17T08:12:27Z</time>
      </trkpt>
      <trkpt lat="44.00491" lon="4.40401">
        <ele>100.1</ele>
        <time>2015-10-17T08:12:28Z</time>
      </trkpt>
      <trkpt lat="44.00498" lon="4.40414">
        <ele>101.1</ele>
        <time>2015-10-17T08:12:29Z</time>
      </trkpt>
      <trkpt lat="44.00506" lon="4.40425">
        <ele>101.6</ele>
        <time>2015-10-17T08:12:30Z</time>
      </trkpt>
      <trkpt lat="44.00513" lon="4.40431">
        <ele>101.6</ele>
        <time>2015-10-17T08:12:31Z</time>
      </trkpt>
      <trkpt lat="44.00523" lon="4.40432">
        <ele>102.5</ele>
        <time>2015-10-17T08:12:32Z</time>
      </trkpt>
      <trkpt lat="44.00536" lon="4.40429">
        <ele>103.5</ele>
        <time>2015-10-17T08:12:33Z</time>
      </trkpt>
      <trkpt lat="44.00549" lon="4.40428">
        <ele>104.4</ele>
        <time>2015-10-17T08:12:34Z</time>
      </trkpt>
      <trkpt lat="44.00564" lon="4.40431">
        <ele>105.4</ele>
        <time>2015-10-17T08:12:35Z</time>
      </trkpt>
      <trkpt lat="44.0058" lon="4.40436">
        <ele>105.9</ele>
        <time>2015-10-17T08:12:36Z</time>
      </trkpt>
      <trkpt lat="44.00596" lon="4.40441">
        <ele>107.3</ele>
        <time>2015-10-17T08:12:37Z</time>
      </trkpt>
      <trkpt lat="44.00627" lon="4.40457">
        <ele>108.8</ele>
        <time>2015-10-17T08:12:39Z</time>
      </trkpt>
      <trkpt lat="44.00642" lon="4.40467">
        <ele>109.7</ele>
        <time>2015-10-17T08:12:40Z</time>
      </trkpt>
      <trkpt lat="44.00682" lon="4.40494">
        <ele>113.1</ele>
        <time>2015-10-17T08:12:43Z</time>
      </trkpt>
      <trkpt lat="44.00696" lon="4.40493">
        <ele>113.6</ele>
        <time>2015-10-17T08:12:44Z</time>
      </trkpt>
      <trkpt lat="44.00709" lon="4.40487">
        <ele>114.5</ele>
        <time>2015-10-17T08:12:45Z</time>
      </trkpt>
      <trkpt lat="44.00722" lon="4.40477">
        <ele>115</ele>
        <time>2015-10-17T08:12:46Z</time>
      </trkpt>
      <trkpt lat="44.00735" lon="4.40466">
        <ele>116</ele>
        <time>2015-10-17T08:12:47Z</time>
      </trkpt>
      <trkpt lat="44.00748" lon="4.4046">
        <ele>117.4</ele>
        <time>2015-10-17T08:12:48Z</time>
      </trkpt>
      <trkpt lat="44.0076" lon="4.4046">
        <ele>117.9</ele>
        <time>2015-10-17T08:12:49Z</time>
      </trkpt>
      <trkpt lat="44.00774" lon="4.40462">
        <ele>119.3</ele>
        <time>2015-10-17T08:12:50Z</time>
      </trkpt>
      <trkpt lat="44.0079" lon="4.4047">
        <ele>119.8</ele>
        <time>2015-10-17T08:12:51Z</time>
      </trkpt>
      <trkpt lat="44.00804" lon="4.40478">
        <ele>120.8</ele>
        <time>2015-10-17T08:12:52Z</time>
      </trkpt>
      <trkpt lat="44.00818" lon="4.40489">
        <ele>121.3</ele>
        <time>2015-10-17T08:12:53Z</time>
      </trkpt>
      <trkpt lat="44.00832" lon="4.40501">
        <ele>122.2</ele>
        <time>2015-10-17T08:12:54Z</time>
      </trkpt>
      <trkpt lat="44.00846" lon="4.40514">
        <ele>122.2</ele>
        <time>2015-10-17T08:12:55Z</time>
      </trkpt>
      <trkpt lat="44.00873" lon="4.40534">
        <ele>123.7</ele>
        <time>2015-10-17T08:12:57Z</time>
      </trkpt>
      <trkpt lat="44.00887" lon="4.40539">
        <ele>124.6</ele>
        <time>2015-10-17T08:12:58Z</time>
      </trkpt>
      <trkpt lat="44.00902" lon="4.40539">
        <ele>125.6</ele>
        <time>2015-10-17T08:12:59Z</time>
      </trkpt>
      <trkpt lat="44.00992" lon="4.40564">
        <ele>129.4</ele>
        <time>2015-10-17T08:13:06Z</time>
      </trkpt>
      <trkpt lat="44.01001" lon="4.40575">
        <ele>129.9</ele>
        <time>2015-10-17T08:13:07Z</time>
      </trkpt>
      <trkpt lat="44.01008" lon="4.4059">
        <ele>129.9</ele>
        <time>2015-10-17T08:13:08Z</time>
      </trkpt>
      <trkpt lat="44.01014" lon="4.40606">
        <ele>130.9</ele>
        <time>2015-10-17T08:13:09Z</time>
      </trkpt>
      <trkpt lat="44.01015" lon="4.40624">
        <ele>131.4</ele>
        <time>2015-10-17T08:13:10Z</time>
      </trkpt>
      <trkpt lat="44.01017" lon="4.40641">
        <ele>131.8</ele>
        <time>2015-10-17T08:13:11Z</time>
      </trkpt>
      <trkpt lat="44.01043" lon="4.408">
        <ele>132.3</ele>
        <time>2015-10-17T08:13:21Z</time>
      </trkpt>
      <trkpt lat="44.01063" lon="4.40956">
        <ele>130.9</ele>
        <time>2015-10-17T08:13:30Z</time>
      </trkpt>
      <trkpt lat="44.01092" lon="4.41114">
        <ele>130.9</ele>
        <time>2015-10-17T08:13:41Z</time>
      </trkpt>
      <trkpt lat="44.01112" lon="4.41242">
        <ele>129.9</ele>
        <time>2015-10-17T08:13:53Z</time>
      </trkpt>
      <trkpt lat="44.01127" lon="4.41329">
        <ele>129</ele>
        <time>2015-10-17T08:14:02Z</time>
      </trkpt>
      <trkpt lat="44.01152" lon="4.41484">
        <ele>130.4</ele>
        <time>2015-10-17T08:14:16Z</time>
      </trkpt>
      <trkpt lat="44.01153" lon="4.41499">
        <ele>130.4</ele>
        <time>2015-10-17T08:14:18Z</time>
      </trkpt>
      <trkpt lat="44.01151" lon="4.41527">
        <ele>131.8</ele>
        <time>2015-10-17T08:14:26Z</time>
      </trkpt>
      <trkpt lat="44.01145" lon="4.41541">
        <ele>132.3</ele>
        <time>2015-10-17T08:14:30Z</time>
      </trkpt>
      <trkpt lat="44.01143" lon="4.41548">
        <ele>132.3</ele>
        <time>2015-10-17T08:14:31Z</time>
      </trkpt>
      <trkpt lat="44.01142" lon="4.41555">
        <ele>132.8</ele>
        <time>2015-10-17T08:14:32Z</time>
      </trkpt>
      <trkpt lat="44.01142" lon="4.41597">
        <ele>133.3</ele>
        <time>2015-10-17T08:14:37Z</time>
      </trkpt>
      <trkpt lat="44.0114" lon="4.41646">
        <ele>132.8</ele>
        <time>2015-10-17T08:14:46Z</time>
      </trkpt>
      <trkpt lat="44.01144" lon="4.41711">
        <ele>135.7</ele>
        <time>2015-10-17T08:14:59Z</time>
      </trkpt>
      <trkpt lat="44.01144" lon="4.41743">
        <ele>134.7</ele>
        <time>2015-10-17T08:15:09Z</time>
      </trkpt>
      <trkpt lat="44.01144" lon="4.41754">
        <ele>132.3</ele>
        <time>2015-10-17T08:15:24Z</time>
      </trkpt>
      <trkpt lat="44.01144" lon="4.41761">
        <ele>133.3</ele>
        <time>2015-10-17T08:15:26Z</time>
      </trkpt>
      <trkpt lat="44.01143" lon="4.41764">
        <ele>133.8</ele>
        <time>2015-10-17T08:15:27Z</time>
      </trkpt>
      <trkpt lat="44.01142" lon="4.41767">
        <ele>134.2</ele>
        <time>2015-10-17T08:15:28Z</time>
      </trkpt>
      <trkpt lat="44.0114" lon="4.41769">
        <ele>134.7</ele>
        <time>2015-10-17T08:15:29Z</time>
      </trkpt>
      <trkpt lat="44.01137" lon="4.4177">
        <ele>135.2</ele>
        <time>2015-10-17T08:15:30Z</time>
      </trkpt>
      <trkpt lat="44.01135" lon="4.41772">
        <ele>136.6</ele>
        <time>2015-10-17T08:15:31Z</time>
      </trkpt>
      <trkpt lat="44.01133" lon="4.41774">
        <ele>138.1</ele>
        <time>2015-10-17T08:15:32Z</time>
      </trkpt>
      <trkpt lat="44.01101" lon="4.418">
        <ele>153</ele>
        <time>2015-10-17T08:15:48Z</time>
      </trkpt>
      <trkpt lat="44.01074" lon="4.41836">
        <ele>155.9</ele>
        <time>2015-10-17T08:15:59Z</time>
      </trkpt>
      <trkpt lat="44.01062" lon="4.41876">
        <ele>151.5</ele>
        <time>2015-10-17T08:16:05Z</time>
      </trkpt>
      <trkpt lat="44.01061" lon="4.41883">
        <ele>149.1</ele>
        <time>2015-10-17T08:16:06Z</time>
      </trkpt>
      <trkpt lat="44.0106" lon="4.41891">
        <ele>147.7</ele>
        <time>2015-10-17T08:16:07Z</time>
      </trkpt>
      <trkpt lat="44.01061" lon="4.41899">
        <ele>146.3</ele>
        <time>2015-10-17T08:16:08Z</time>
      </trkpt>
      <trkpt lat="44.01063" lon="4.41908">
        <ele>144.8</ele>
        <time>2015-10-17T08:16:09Z</time>
      </trkpt>
      <trkpt lat="44.01065" lon="4.41918">
        <ele>142.4</ele>
        <time>2015-10-17T08:16:10Z</time>
      </trkpt>
      <trkpt lat="44.01067" lon="4.41928">
        <ele>141</ele>
        <time>2015-10-17T08:16:11Z</time>
      </trkpt>
      <trkpt lat="44.0107" lon="4.41938">
        <ele>139.5</ele>
        <time>2015-10-17T08:16:12Z</time>
      </trkpt>
      <trkpt lat="44.01073" lon="4.41996">
        <ele>131.4</ele>
        <time>2015-10-17T08:16:18Z</time>
      </trkpt>
      <trkpt lat="44.01075" lon="4.42005">
        <ele>129.9</ele>
        <time>2015-10-17T08:16:19Z</time>
      </trkpt>
      <trkpt lat="44.01077" lon="4.42014">
        <ele>129.4</ele>
        <time>2015-10-17T08:16:20Z</time>
      </trkpt>
      <trkpt lat="44.01125" lon="4.42116">
        <ele>125.6</ele>
        <time>2015-10-17T08:16:30Z</time>
      </trkpt>
      <trkpt lat="44.0116" lon="4.42177">
        <ele>126.6</ele>
        <time>2015-10-17T08:16:37Z</time>
      </trkpt>
      <trkpt lat="44.01166" lon="4.42182">
        <ele>126.6</ele>
        <time>2015-10-17T08:16:38Z</time>
      </trkpt>
      <trkpt lat="44.01173" lon="4.42184">
        <ele>126.6</ele>
        <time>2015-10-17T08:16:39Z</time>
      </trkpt>
      <trkpt lat="44.01181" lon="4.42183">
        <ele>127</ele>
        <time>2015-10-17T08:16:40Z</time>
      </trkpt>
      <trkpt lat="44.0119" lon="4.4218">
        <ele>127.5</ele>
        <time>2015-10-17T08:16:41Z</time>
      </trkpt>
      <trkpt lat="44.01199" lon="4.42176">
        <ele>129</ele>
        <time>2015-10-17T08:16:42Z</time>
      </trkpt>
      <trkpt lat="44.01207" lon="4.42176">
        <ele>129.9</ele>
        <time>2015-10-17T08:16:43Z</time>
      </trkpt>
      <trkpt lat="44.01214" lon="4.42177">
        <ele>130.9</ele>
        <time>2015-10-17T08:16:44Z</time>
      </trkpt>
      <trkpt lat="44.01221" lon="4.42176">
        <ele>131.4</ele>
        <time>2015-10-17T08:16:45Z</time>
      </trkpt>
      <trkpt lat="44.0123" lon="4.42175">
        <ele>132.3</ele>
        <time>2015-10-17T08:16:47Z</time>
      </trkpt>
      <trkpt lat="44.01236" lon="4.42178">
        <ele>133.3</ele>
        <time>2015-10-17T08:16:48Z</time>
      </trkpt>
      <trkpt lat="44.0124" lon="4.42182">
        <ele>132.8</ele>
        <time>2015-10-17T08:16:49Z</time>
      </trkpt>
      <trkpt lat="44.01244" lon="4.42187">
        <ele>133.3</ele>
        <time>2015-10-17T08:16:50Z</time>
      </trkpt>
      <trkpt lat="44.01247" lon="4.42192">
        <ele>133.3</ele>
        <time>2015-10-17T08:16:51Z</time>
      </trkpt>
      <trkpt lat="44.01253" lon="4.42196">
        <ele>134.2</ele>
        <time>2015-10-17T08:16:52Z</time>
      </trkpt>
      <trkpt lat="44.01257" lon="4.422">
        <ele>134.2</ele>
        <time>2015-10-17T08:16:53Z</time>
      </trkpt>
      <trkpt lat="44.01262" lon="4.42203">
        <ele>135.2</ele>
        <time>2015-10-17T08:16:54Z</time>
      </trkpt>
      <trkpt lat="44.01268" lon="4.42206">
        <ele>135.7</ele>
        <time>2015-10-17T08:16:55Z</time>
      </trkpt>
      <trkpt lat="44.01279" lon="4.42209">
        <ele>137.6</ele>
        <time>2015-10-17T08:16:57Z</time>
      </trkpt>
      <trkpt lat="44.01285" lon="4.42209">
        <ele>139.1</ele>
        <time>2015-10-17T08:16:58Z</time>
      </trkpt>
      <trkpt lat="44.01311" lon="4.42208">
        <ele>142.4</ele>
        <time>2015-10-17T08:17:03Z</time>
      </trkpt>
      <trkpt lat="44.01329" lon="4.42216">
        <ele>145.3</ele>
        <time>2015-10-17T08:17:07Z</time>
      </trkpt>
      <trkpt lat="44.01334" lon="4.42221">
        <ele>144.3</ele>
        <time>2015-10-17T08:17:08Z</time>
      </trkpt>
      <trkpt lat="44.01406" lon="4.423">
        <ele>138.1</ele>
        <time>2015-10-17T08:17:18Z</time>
      </trkpt>
      <trkpt lat="44.01536" lon="4.4245">
        <ele>129.4</ele>
        <time>2015-10-17T08:17:32Z</time>
      </trkpt>
      <trkpt lat="44.01578" lon="4.42502">
        <ele>125.6</ele>
        <time>2015-10-17T08:17:37Z</time>
      </trkpt>
      <trkpt lat="44.01583" lon="4.42515">
        <ele>125.1</ele>
        <time>2015-10-17T08:17:38Z</time>
      </trkpt>
      <trkpt lat="44.01587" lon="4.4253">
        <ele>124.6</ele>
        <time>2015-10-17T08:17:39Z</time>
      </trkpt>
      <trkpt lat="44.01589" lon="4.42547">
        <ele>124.2</ele>
        <time>2015-10-17T08:17:40Z</time>
      </trkpt>
      <trkpt lat="44.01589" lon="4.42565">
        <ele>123.7</ele>
        <time>2015-10-17T08:17:41Z</time>
      </trkpt>
      <trkpt lat="44.01586" lon="4.42582">
        <ele>122.7</ele>
        <time>2015-10-17T08:17:42Z</time>
      </trkpt>
      <trkpt lat="44.0158" lon="4.42599">
        <ele>121.7</ele>
        <time>2015-10-17T08:17:43Z</time>
      </trkpt>
      <trkpt lat="44.01573" lon="4.42615">
        <ele>121.3</ele>
        <time>2015-10-17T08:17:44Z</time>
      </trkpt>
      <trkpt lat="44.01564" lon="4.42634">
        <ele>120.3</ele>
        <time>2015-10-17T08:17:45Z</time>
      </trkpt>
      <trkpt lat="44.01556" lon="4.42652">
        <ele>119.3</ele>
        <time>2015-10-17T08:17:46Z</time>
      </trkpt>
      <trkpt lat="44.0155" lon="4.4267">
        <ele>118.4</ele>
        <time>2015-10-17T08:17:47Z</time>
      </trkpt>
      <trkpt lat="44.01536" lon="4.42726">
        <ele>116.5</ele>
        <time>2015-10-17T08:17:50Z</time>
      </trkpt>
      <trkpt lat="44.01534" lon="4.42747">
        <ele>116</ele>
        <time>2015-10-17T08:17:51Z</time>
      </trkpt>
      <trkpt lat="44.01534" lon="4.42768">
        <ele>115</ele>
        <time>2015-10-17T08:17:52Z</time>
      </trkpt>
      <trkpt lat="44.01535" lon="4.4279">
        <ele>114.1</ele>
        <time>2015-10-17T08:17:53Z</time>
      </trkpt>
      <trkpt lat="44.01538" lon="4.42813">
        <ele>113.1</ele>
        <time>2015-10-17T08:17:54Z</time>
      </trkpt>
      <trkpt lat="44.01542" lon="4.42835">
        <ele>112.1</ele>
        <time>2015-10-17T08:17:55Z</time>
      </trkpt>
      <trkpt lat="44.01547" lon="4.42858">
        <ele>111.7</ele>
        <time>2015-10-17T08:17:56Z</time>
      </trkpt>
      <trkpt lat="44.01561" lon="4.42901">
        <ele>110.2</ele>
        <time>2015-10-17T08:17:58Z</time>
      </trkpt>
      <trkpt lat="44.0157" lon="4.4292">
        <ele>109.3</ele>
        <time>2015-10-17T08:17:59Z</time>
      </trkpt>
      <trkpt lat="44.0158" lon="4.42936">
        <ele>108.8</ele>
        <time>2015-10-17T08:18:00Z</time>
      </trkpt>
      <trkpt lat="44.01594" lon="4.42944">
        <ele>108.3</ele>
        <time>2015-10-17T08:18:01Z</time>
      </trkpt>
      <trkpt lat="44.0161" lon="4.42949">
        <ele>107.3</ele>
        <time>2015-10-17T08:18:02Z</time>
      </trkpt>
      <trkpt lat="44.01626" lon="4.42951">
        <ele>106.8</ele>
        <time>2015-10-17T08:18:03Z</time>
      </trkpt>
      <trkpt lat="44.01643" lon="4.42951">
        <ele>106.4</ele>
        <time>2015-10-17T08:18:04Z</time>
      </trkpt>
      <trkpt lat="44.01661" lon="4.42948">
        <ele>105.4</ele>
        <time>2015-10-17T08:18:05Z</time>
      </trkpt>
      <trkpt lat="44.01678" lon="4.42942">
        <ele>104.4</ele>
        <time>2015-10-17T08:18:06Z</time>
      </trkpt>
      <trkpt lat="44.01694" lon="4.42935">
        <ele>103.5</ele>
        <time>2015-10-17T08:18:07Z</time>
      </trkpt>
      <trkpt lat="44.0171" lon="4.42925">
        <ele>103</ele>
        <time>2015-10-17T08:18:08Z</time>
      </trkpt>
      <trkpt lat="44.01726" lon="4.42914">
        <ele>101.6</ele>
        <time>2015-10-17T08:18:09Z</time>
      </trkpt>
      <trkpt lat="44.0174" lon="4.42901">
        <ele>101.1</ele>
        <time>2015-10-17T08:18:10Z</time>
      </trkpt>
      <trkpt lat="44.01754" lon="4.42884">
        <ele>100.1</ele>
        <time>2015-10-17T08:18:11Z</time>
      </trkpt>
      <trkpt lat="44.01765" lon="4.42862">
        <ele>99.6</ele>
        <time>2015-10-17T08:18:12Z</time>
      </trkpt>
      <trkpt lat="44.01774" lon="4.4284">
        <ele>98.7</ele>
        <time>2015-10-17T08:18:13Z</time>
      </trkpt>
      <trkpt lat="44.01782" lon="4.42819">
        <ele>98.2</ele>
        <time>2015-10-17T08:18:14Z</time>
      </trkpt>
      <trkpt lat="44.01792" lon="4.428">
        <ele>97.2</ele>
        <time>2015-10-17T08:18:15Z</time>
      </trkpt>
      <trkpt lat="44.01803" lon="4.42784">
        <ele>96.3</ele>
        <time>2015-10-17T08:18:16Z</time>
      </trkpt>
      <trkpt lat="44.01818" lon="4.42774">
        <ele>95.3</ele>
        <time>2015-10-17T08:18:17Z</time>
      </trkpt>
      <trkpt lat="44.01833" lon="4.42769">
        <ele>93.9</ele>
        <time>2015-10-17T08:18:18Z</time>
      </trkpt>
      <trkpt lat="44.01849" lon="4.4277">
        <ele>92.9</ele>
        <time>2015-10-17T08:18:19Z</time>
      </trkpt>
      <trkpt lat="44.01864" lon="4.42778">
        <ele>91.9</ele>
        <time>2015-10-17T08:18:20Z</time>
      </trkpt>
      <trkpt lat="44.0188" lon="4.42793">
        <ele>91</ele>
        <time>2015-10-17T08:18:21Z</time>
      </trkpt>
      <trkpt lat="44.01894" lon="4.42809">
        <ele>90</ele>
        <time>2015-10-17T08:18:22Z</time>
      </trkpt>
      <trkpt lat="44.01906" lon="4.42829">
        <ele>89.1</ele>
        <time>2015-10-17T08:18:23Z</time>
      </trkpt>
      <trkpt lat="44.01914" lon="4.42852">
        <ele>88.6</ele>
        <time>2015-10-17T08:18:24Z</time>
      </trkpt>
      <trkpt lat="44.01921" lon="4.42877">
        <ele>88.1</ele>
        <time>2015-10-17T08:18:25Z</time>
      </trkpt>
      <trkpt lat="44.01928" lon="4.42901">
        <ele>87.6</ele>
        <time>2015-10-17T08:18:26Z</time>
      </trkpt>
      <trkpt lat="44.01988" lon="4.43105">
        <ele>81.9</ele>
        <time>2015-10-17T08:18:35Z</time>
      </trkpt>
      <trkpt lat="44.0205" lon="4.43359">
        <ele>80.9</ele>
        <time>2015-10-17T08:18:44Z</time>
      </trkpt>
      <trkpt lat="44.02111" lon="4.43699">
        <ele>86.2</ele>
        <time>2015-10-17T08:18:56Z</time>
      </trkpt>
      <trkpt lat="44.02126" lon="4.43849">
        <ele>90</ele>
        <time>2015-10-17T08:19:01Z</time>
      </trkpt>
      <trkpt lat="44.02124" lon="4.43879">
        <ele>90.5</ele>
        <time>2015-10-17T08:19:02Z</time>
      </trkpt>
      <trkpt lat="44.0212" lon="4.43908">
        <ele>91.5</ele>
        <time>2015-10-17T08:19:03Z</time>
      </trkpt>
      <trkpt lat="44.02093" lon="4.44131">
        <ele>95.8</ele>
        <time>2015-10-17T08:19:10Z</time>
      </trkpt>
      <trkpt lat="44.02085" lon="4.44642">
        <ele>108.8</ele>
        <time>2015-10-17T08:19:26Z</time>
      </trkpt>
      <trkpt lat="44.0213" lon="4.44929">
        <ele>108.3</ele>
        <time>2015-10-17T08:19:35Z</time>
      </trkpt>
      <trkpt lat="44.022" lon="4.45361">
        <ele>108.8</ele>
        <time>2015-10-17T08:19:49Z</time>
      </trkpt>
      <trkpt lat="44.02255" lon="4.45697">
        <ele>106.8</ele>
        <time>2015-10-17T08:20:00Z</time>
      </trkpt>
      <trkpt lat="44.02339" lon="4.46233">
        <ele>106.4</ele>
        <time>2015-10-17T08:20:17Z</time>
      </trkpt>
      <trkpt lat="44.02389" lon="4.4662">
        <ele>105.9</ele>
        <time>2015-10-17T08:20:30Z</time>
      </trkpt>
      <trkpt lat="44.02396" lon="4.46647">
        <ele>105.9</ele>
        <time>2015-10-17T08:20:31Z</time>
      </trkpt>
      <trkpt lat="44.02404" lon="4.46672">
        <ele>105.9</ele>
        <time>2015-10-17T08:20:32Z</time>
      </trkpt>
      <trkpt lat="44.02415" lon="4.46695">
        <ele>105.4</ele>
        <time>2015-10-17T08:20:33Z</time>
      </trkpt>
      <trkpt lat="44.02429" lon="4.46716">
        <ele>105.4</ele>
        <time>2015-10-17T08:20:34Z</time>
      </trkpt>
      <trkpt lat="44.02445" lon="4.46735">
        <ele>105.4</ele>
        <time>2015-10-17T08:20:35Z</time>
      </trkpt>
      <trkpt lat="44.02461" lon="4.46754">
        <ele>105.4</ele>
        <time>2015-10-17T08:20:36Z</time>
      </trkpt>
      <trkpt lat="44.02632" lon="4.46969">
        <ele>109.7</ele>
        <time>2015-10-17T08:20:48Z</time>
      </trkpt>
      <trkpt lat="44.02734" lon="4.47069">
        <ele>111.2</ele>
        <time>2015-10-17T08:20:56Z</time>
      </trkpt>
      <trkpt lat="44.02746" lon="4.47084">
        <ele>111.2</ele>
        <time>2015-10-17T08:20:57Z</time>
      </trkpt>
      <trkpt lat="44.02757" lon="4.47101">
        <ele>111.2</ele>
        <time>2015-10-17T08:20:58Z</time>
      </trkpt>
      <trkpt lat="44.02845" lon="4.47263">
        <ele>112.1</ele>
        <time>2015-10-17T08:21:05Z</time>
      </trkpt>
      <trkpt lat="44.03037" lon="4.4762">
        <ele>119.8</ele>
        <time>2015-10-17T08:21:19Z</time>
      </trkpt>
      <trkpt lat="44.03058" lon="4.47674">
        <ele>121.3</ele>
        <time>2015-10-17T08:21:21Z</time>
      </trkpt>
      <trkpt lat="44.03065" lon="4.47704">
        <ele>122.2</ele>
        <time>2015-10-17T08:21:22Z</time>
      </trkpt>
      <trkpt lat="44.0307" lon="4.47732">
        <ele>123.2</ele>
        <time>2015-10-17T08:21:23Z</time>
      </trkpt>
      <trkpt lat="44.03074" lon="4.47764">
        <ele>124.2</ele>
        <time>2015-10-17T08:21:24Z</time>
      </trkpt>
      <trkpt lat="44.03078" lon="4.47796">
        <ele>125.1</ele>
        <time>2015-10-17T08:21:25Z</time>
      </trkpt>
      <trkpt lat="44.03133" lon="4.48212">
        <ele>141.5</ele>
        <time>2015-10-17T08:21:38Z</time>
      </trkpt>
      <trkpt lat="44.03211" lon="4.48803">
        <ele>145.3</ele>
        <time>2015-10-17T08:21:56Z</time>
      </trkpt>
      <trkpt lat="44.03234" lon="4.48957">
        <ele>144.8</ele>
        <time>2015-10-17T08:22:03Z</time>
      </trkpt>
      <trkpt lat="44.03235" lon="4.48976">
        <ele>144.8</ele>
        <time>2015-10-17T08:22:04Z</time>
      </trkpt>
      <trkpt lat="44.03234" lon="4.48995">
        <ele>144.3</ele>
        <time>2015-10-17T08:22:05Z</time>
      </trkpt>
      <trkpt lat="44.03208" lon="4.49199">
        <ele>144.3</ele>
        <time>2015-10-17T08:22:17Z</time>
      </trkpt>
      <trkpt lat="44.03201" lon="4.49248">
        <ele>145.3</ele>
        <time>2015-10-17T08:22:20Z</time>
      </trkpt>
      <trkpt lat="44.03196" lon="4.49263">
        <ele>145.8</ele>
        <time>2015-10-17T08:22:21Z</time>
      </trkpt>
      <trkpt lat="44.0319" lon="4.49279">
        <ele>146.3</ele>
        <time>2015-10-17T08:22:22Z</time>
      </trkpt>
      <trkpt lat="44.03181" lon="4.49294">
        <ele>146.3</ele>
        <time>2015-10-17T08:22:23Z</time>
      </trkpt>
      <trkpt lat="44.03172" lon="4.49308">
        <ele>147.2</ele>
        <time>2015-10-17T08:22:24Z</time>
      </trkpt>
      <trkpt lat="44.03161" lon="4.49322">
        <ele>148.2</ele>
        <time>2015-10-17T08:22:25Z</time>
      </trkpt>
      <trkpt lat="44.03079" lon="4.49462">
        <ele>154</ele>
        <time>2015-10-17T08:22:33Z</time>
      </trkpt>
      <trkpt lat="44.03003" lon="4.49674">
        <ele>163.6</ele>
        <time>2015-10-17T08:22:43Z</time>
      </trkpt>
      <trkpt lat="44.02926" lon="4.49907">
        <ele>172.2</ele>
        <time>2015-10-17T08:22:53Z</time>
      </trkpt>
      <trkpt lat="44.02912" lon="4.49953">
        <ele>173.7</ele>
        <time>2015-10-17T08:22:55Z</time>
      </trkpt>
      <trkpt lat="44.02907" lon="4.49976">
        <ele>174.6</ele>
        <time>2015-10-17T08:22:56Z</time>
      </trkpt>
      <trkpt lat="44.02903" lon="4.49998">
        <ele>175.6</ele>
        <time>2015-10-17T08:22:57Z</time>
      </trkpt>
      <trkpt lat="44.02897" lon="4.50018">
        <ele>176.1</ele>
        <time>2015-10-17T08:22:58Z</time>
      </trkpt>
      <trkpt lat="44.02891" lon="4.50037">
        <ele>177</ele>
        <time>2015-10-17T08:22:59Z</time>
      </trkpt>
      <trkpt lat="44.02886" lon="4.50056">
        <ele>177.5</ele>
        <time>2015-10-17T08:23:00Z</time>
      </trkpt>
      <trkpt lat="44.02885" lon="4.50079">
        <ele>178</ele>
        <time>2015-10-17T08:23:01Z</time>
      </trkpt>
      <trkpt lat="44.02888" lon="4.501">
        <ele>178.5</ele>
        <time>2015-10-17T08:23:02Z</time>
      </trkpt>
      <trkpt lat="44.02893" lon="4.50122">
        <ele>179.4</ele>
        <time>2015-10-17T08:23:03Z</time>
      </trkpt>
      <trkpt lat="44.02897" lon="4.50143">
        <ele>179.9</ele>
        <time>2015-10-17T08:23:04Z</time>
      </trkpt>
      <trkpt lat="44.02896" lon="4.50162">
        <ele>180.4</ele>
        <time>2015-10-17T08:23:05Z</time>
      </trkpt>
      <trkpt lat="44.02891" lon="4.5018">
        <ele>181.4</ele>
        <time>2015-10-17T08:23:06Z</time>
      </trkpt>
      <trkpt lat="44.02882" lon="4.50198">
        <ele>182.3</ele>
        <time>2015-10-17T08:23:07Z</time>
      </trkpt>
      <trkpt lat="44.02874" lon="4.50215">
        <ele>182.8</ele>
        <time>2015-10-17T08:23:08Z</time>
      </trkpt>
      <trkpt lat="44.0287" lon="4.50234">
        <ele>183.3</ele>
        <time>2015-10-17T08:23:09Z</time>
      </trkpt>
      <trkpt lat="44.0287" lon="4.50255">
        <ele>184.2</ele>
        <time>2015-10-17T08:23:10Z</time>
      </trkpt>
      <trkpt lat="44.02874" lon="4.50275">
        <ele>184.2</ele>
        <time>2015-10-17T08:23:11Z</time>
      </trkpt>
      <trkpt lat="44.02878" lon="4.50295">
        <ele>185.2</ele>
        <time>2015-10-17T08:23:12Z</time>
      </trkpt>
      <trkpt lat="44.02891" lon="4.50352">
        <ele>187.6</ele>
        <time>2015-10-17T08:23:15Z</time>
      </trkpt>
      <trkpt lat="44.02892" lon="4.50371">
        <ele>188.1</ele>
        <time>2015-10-17T08:23:16Z</time>
      </trkpt>
      <trkpt lat="44.02889" lon="4.50391">
        <ele>189</ele>
        <time>2015-10-17T08:23:17Z</time>
      </trkpt>
      <trkpt lat="44.02882" lon="4.50409">
        <ele>189</ele>
        <time>2015-10-17T08:23:18Z</time>
      </trkpt>
      <trkpt lat="44.02868" lon="4.50419">
        <ele>190.5</ele>
        <time>2015-10-17T08:23:19Z</time>
      </trkpt>
      <trkpt lat="44.02854" lon="4.50431">
        <ele>191.4</ele>
        <time>2015-10-17T08:23:20Z</time>
      </trkpt>
      <trkpt lat="44.02841" lon="4.50445">
        <ele>191.9</ele>
        <time>2015-10-17T08:23:21Z</time>
      </trkpt>
      <trkpt lat="44.02829" lon="4.50463">
        <ele>192.9</ele>
        <time>2015-10-17T08:23:22Z</time>
      </trkpt>
      <trkpt lat="44.02818" lon="4.50483">
        <ele>193.8</ele>
        <time>2015-10-17T08:23:23Z</time>
      </trkpt>
      <trkpt lat="44.02809" lon="4.50505">
        <ele>194.8</ele>
        <time>2015-10-17T08:23:24Z</time>
      </trkpt>
      <trkpt lat="44.02801" lon="4.50528">
        <ele>195.8</ele>
        <time>2015-10-17T08:23:25Z</time>
      </trkpt>
      <trkpt lat="44.02794" lon="4.50552">
        <ele>196.7</ele>
        <time>2015-10-17T08:23:26Z</time>
      </trkpt>
      <trkpt lat="44.02788" lon="4.50576">
        <ele>197.7</ele>
        <time>2015-10-17T08:23:27Z</time>
      </trkpt>
      <trkpt lat="44.02786" lon="4.50602">
        <ele>197.7</ele>
        <time>2015-10-17T08:23:28Z</time>
      </trkpt>
      <trkpt lat="44.02788" lon="4.50629">
        <ele>198.7</ele>
        <time>2015-10-17T08:23:29Z</time>
      </trkpt>
      <trkpt lat="44.02795" lon="4.50654">
        <ele>199.6</ele>
        <time>2015-10-17T08:23:30Z</time>
      </trkpt>
      <trkpt lat="44.02805" lon="4.50677">
        <ele>200.6</ele>
        <time>2015-10-17T08:23:31Z</time>
      </trkpt>
      <trkpt lat="44.02818" lon="4.507">
        <ele>202</ele>
        <time>2015-10-17T08:23:32Z</time>
      </trkpt>
      <trkpt lat="44.02831" lon="4.50721">
        <ele>203</ele>
        <time>2015-10-17T08:23:33Z</time>
      </trkpt>
      <trkpt lat="44.02845" lon="4.50741">
        <ele>203.5</ele>
        <time>2015-10-17T08:23:34Z</time>
      </trkpt>
      <trkpt lat="44.0286" lon="4.50759">
        <ele>204.4</ele>
        <time>2015-10-17T08:23:35Z</time>
      </trkpt>
      <trkpt lat="44.02874" lon="4.50776">
        <ele>204.9</ele>
        <time>2015-10-17T08:23:36Z</time>
      </trkpt>
      <trkpt lat="44.02968" lon="4.50868">
        <ele>208.7</ele>
        <time>2015-10-17T08:23:42Z</time>
      </trkpt>
      <trkpt lat="44.03141" lon="4.51051">
        <ele>216</ele>
        <time>2015-10-17T08:23:53Z</time>
      </trkpt>
      <trkpt lat="44.03153" lon="4.5107">
        <ele>216</ele>
        <time>2015-10-17T08:23:54Z</time>
      </trkpt>
      <trkpt lat="44.03162" lon="4.51091">
        <ele>216</ele>
        <time>2015-10-17T08:23:55Z</time>
      </trkpt>
      <trkpt lat="44.03169" lon="4.51114">
        <ele>216.4</ele>
        <time>2015-10-17T08:23:56Z</time>
      </trkpt>
      <trkpt lat="44.03173" lon="4.51139">
        <ele>216.4</ele>
        <time>2015-10-17T08:23:57Z</time>
      </trkpt>
      <trkpt lat="44.03174" lon="4.51165">
        <ele>216.4</ele>
        <time>2015-10-17T08:23:58Z</time>
      </trkpt>
      <trkpt lat="44.03173" lon="4.51191">
        <ele>216.4</ele>
        <time>2015-10-17T08:23:59Z</time>
      </trkpt>
      <trkpt lat="44.03172" lon="4.51219">
        <ele>216.4</ele>
        <time>2015-10-17T08:24:00Z</time>
      </trkpt>
      <trkpt lat="44.0316" lon="4.51622">
        <ele>211.2</ele>
        <time>2015-10-17T08:24:14Z</time>
      </trkpt>
      <trkpt lat="44.03153" lon="4.51866">
        <ele>206.8</ele>
        <time>2015-10-17T08:24:22Z</time>
      </trkpt>
      <trkpt lat="44.03138" lon="4.52466">
        <ele>203.5</ele>
        <time>2015-10-17T08:24:40Z</time>
      </trkpt>
      <trkpt lat="44.03128" lon="4.52914">
        <ele>202</ele>
        <time>2015-10-17T08:24:54Z</time>
      </trkpt>
      <trkpt lat="44.03115" lon="4.53425">
        <ele>206.3</ele>
        <time>2015-10-17T08:25:10Z</time>
      </trkpt>
      <trkpt lat="44.03118" lon="4.53483">
        <ele>205.9</ele>
        <time>2015-10-17T08:25:12Z</time>
      </trkpt>
      <trkpt lat="44.03124" lon="4.53509">
        <ele>205.4</ele>
        <time>2015-10-17T08:25:13Z</time>
      </trkpt>
      <trkpt lat="44.03134" lon="4.53534">
        <ele>205.4</ele>
        <time>2015-10-17T08:25:14Z</time>
      </trkpt>
      <trkpt lat="44.03149" lon="4.53555">
        <ele>204.9</ele>
        <time>2015-10-17T08:25:15Z</time>
      </trkpt>
      <trkpt lat="44.03165" lon="4.53577">
        <ele>204.4</ele>
        <time>2015-10-17T08:25:16Z</time>
      </trkpt>
      <trkpt lat="44.03182" lon="4.53599">
        <ele>204.4</ele>
        <time>2015-10-17T08:25:17Z</time>
      </trkpt>
      <trkpt lat="44.03272" lon="4.53729">
        <ele>205.4</ele>
        <time>2015-10-17T08:25:23Z</time>
      </trkpt>
      <trkpt lat="44.03283" lon="4.53754">
        <ele>205.9</ele>
        <time>2015-10-17T08:25:24Z</time>
      </trkpt>
      <trkpt lat="44.03383" lon="4.54014">
        <ele>204.9</ele>
        <time>2015-10-17T08:25:33Z</time>
      </trkpt>
      <trkpt lat="44.03491" lon="4.54267">
        <ele>205.9</ele>
        <time>2015-10-17T08:25:43Z</time>
      </trkpt>
      <trkpt lat="44.03506" lon="4.54283">
        <ele>205.4</ele>
        <time>2015-10-17T08:25:44Z</time>
      </trkpt>
      <trkpt lat="44.03524" lon="4.54298">
        <ele>205.4</ele>
        <time>2015-10-17T08:25:45Z</time>
      </trkpt>
      <trkpt lat="44.03686" lon="4.54438">
        <ele>204.9</ele>
        <time>2015-10-17T08:25:54Z</time>
      </trkpt>
      <trkpt lat="44.03756" lon="4.5448">
        <ele>203.9</ele>
        <time>2015-10-17T08:25:58Z</time>
      </trkpt>
      <trkpt lat="44.03771" lon="4.54494">
        <ele>203.5</ele>
        <time>2015-10-17T08:25:59Z</time>
      </trkpt>
      <trkpt lat="44.03784" lon="4.54513">
        <ele>203.5</ele>
        <time>2015-10-17T08:26:00Z</time>
      </trkpt>
      <trkpt lat="44.03797" lon="4.54535">
        <ele>203</ele>
        <time>2015-10-17T08:26:01Z</time>
      </trkpt>
      <trkpt lat="44.0381" lon="4.54559">
        <ele>202</ele>
        <time>2015-10-17T08:26:02Z</time>
      </trkpt>
      <trkpt lat="44.03955" lon="4.54855">
        <ele>191.4</ele>
        <time>2015-10-17T08:26:13Z</time>
      </trkpt>
      <trkpt lat="44.04091" lon="4.55175">
        <ele>185.2</ele>
        <time>2015-10-17T08:26:25Z</time>
      </trkpt>
      <trkpt lat="44.0422" lon="4.55421">
        <ele>183.8</ele>
        <time>2015-10-17T08:26:35Z</time>
      </trkpt>
      <trkpt lat="44.04308" lon="4.55624">
        <ele>187.1</ele>
        <time>2015-10-17T08:26:43Z</time>
      </trkpt>
      <trkpt lat="44.04365" lon="4.55854">
        <ele>194.3</ele>
        <time>2015-10-17T08:26:51Z</time>
      </trkpt>
      <trkpt lat="44.04369" lon="4.55882">
        <ele>195.3</ele>
        <time>2015-10-17T08:26:52Z</time>
      </trkpt>
      <trkpt lat="44.0437" lon="4.55912">
        <ele>196.3</ele>
        <time>2015-10-17T08:26:53Z</time>
      </trkpt>
      <trkpt lat="44.04369" lon="4.55942">
        <ele>196.7</ele>
        <time>2015-10-17T08:26:54Z</time>
      </trkpt>
      <trkpt lat="44.0437" lon="4.56152">
        <ele>200.1</ele>
        <time>2015-10-17T08:27:01Z</time>
      </trkpt>
      <trkpt lat="44.04365" lon="4.563">
        <ele>203</ele>
        <time>2015-10-17T08:27:06Z</time>
      </trkpt>
      <trkpt lat="44.04359" lon="4.56329">
        <ele>203.5</ele>
        <time>2015-10-17T08:27:07Z</time>
      </trkpt>
      <trkpt lat="44.04351" lon="4.56357">
        <ele>203.9</ele>
        <time>2015-10-17T08:27:08Z</time>
      </trkpt>
      <trkpt lat="44.04341" lon="4.56382">
        <ele>203.9</ele>
        <time>2015-10-17T08:27:09Z</time>
      </trkpt>
      <trkpt lat="44.04331" lon="4.56404">
        <ele>204.4</ele>
        <time>2015-10-17T08:27:10Z</time>
      </trkpt>
      <trkpt lat="44.04319" lon="4.56425">
        <ele>204.4</ele>
        <time>2015-10-17T08:27:11Z</time>
      </trkpt>
      <trkpt lat="44.04269" lon="4.56522">
        <ele>205.4</ele>
        <time>2015-10-17T08:27:16Z</time>
      </trkpt>
      <trkpt lat="44.04262" lon="4.56542">
        <ele>205.9</ele>
        <time>2015-10-17T08:27:17Z</time>
      </trkpt>
      <trkpt lat="44.04259" lon="4.56564">
        <ele>205.4</ele>
        <time>2015-10-17T08:27:18Z</time>
      </trkpt>
      <trkpt lat="44.04261" lon="4.56588">
        <ele>205.9</ele>
        <time>2015-10-17T08:27:19Z</time>
      </trkpt>
      <trkpt lat="44.04265" lon="4.5661">
        <ele>205.4</ele>
        <time>2015-10-17T08:27:20Z</time>
      </trkpt>
      <trkpt lat="44.04271" lon="4.56632">
        <ele>205.4</ele>
        <time>2015-10-17T08:27:21Z</time>
      </trkpt>
      <trkpt lat="44.04282" lon="4.5665">
        <ele>205.4</ele>
        <time>2015-10-17T08:27:22Z</time>
      </trkpt>
      <trkpt lat="44.04296" lon="4.56666">
        <ele>205.4</ele>
        <time>2015-10-17T08:27:23Z</time>
      </trkpt>
      <trkpt lat="44.04312" lon="4.56679">
        <ele>205.4</ele>
        <time>2015-10-17T08:27:24Z</time>
      </trkpt>
      <trkpt lat="44.0433" lon="4.56692">
        <ele>205.4</ele>
        <time>2015-10-17T08:27:25Z</time>
      </trkpt>
      <trkpt lat="44.04351" lon="4.56702">
        <ele>206.3</ele>
        <time>2015-10-17T08:27:26Z</time>
      </trkpt>
      <trkpt lat="44.04372" lon="4.56714">
        <ele>207.3</ele>
        <time>2015-10-17T08:27:27Z</time>
      </trkpt>
      <trkpt lat="44.04499" lon="4.56749">
        <ele>208.7</ele>
        <time>2015-10-17T08:27:33Z</time>
      </trkpt>
      <trkpt lat="44.04732" lon="4.56756">
        <ele>215</ele>
        <time>2015-10-17T08:27:44Z</time>
      </trkpt>
      <trkpt lat="44.04864" lon="4.56756">
        <ele>218.8</ele>
        <time>2015-10-17T08:27:50Z</time>
      </trkpt>
      <trkpt lat="44.04885" lon="4.56763">
        <ele>219.3</ele>
        <time>2015-10-17T08:27:51Z</time>
      </trkpt>
      <trkpt lat="44.04907" lon="4.56773">
        <ele>219.8</ele>
        <time>2015-10-17T08:27:52Z</time>
      </trkpt>
      <trkpt lat="44.04992" lon="4.56809">
        <ele>221.7</ele>
        <time>2015-10-17T08:27:56Z</time>
      </trkpt>
      <trkpt lat="44.05014" lon="4.56813">
        <ele>221.7</ele>
        <time>2015-10-17T08:27:57Z</time>
      </trkpt>
      <trkpt lat="44.0525" lon="4.56834">
        <ele>225.6</ele>
        <time>2015-10-17T08:28:08Z</time>
      </trkpt>
      <trkpt lat="44.05271" lon="4.56841">
        <ele>225.6</ele>
        <time>2015-10-17T08:28:09Z</time>
      </trkpt>
      <trkpt lat="44.05292" lon="4.56851">
        <ele>225.6</ele>
        <time>2015-10-17T08:28:10Z</time>
      </trkpt>
      <trkpt lat="44.05313" lon="4.56865">
        <ele>226.1</ele>
        <time>2015-10-17T08:28:11Z</time>
      </trkpt>
      <trkpt lat="44.05576" lon="4.57022">
        <ele>232.3</ele>
        <time>2015-10-17T08:28:24Z</time>
      </trkpt>
      <trkpt lat="44.05678" lon="4.57029">
        <ele>233.7</ele>
        <time>2015-10-17T08:28:31Z</time>
      </trkpt>
      <trkpt lat="44.05694" lon="4.57031">
        <ele>233.7</ele>
        <time>2015-10-17T08:28:33Z</time>
      </trkpt>
      <trkpt lat="44.05699" lon="4.57033">
        <ele>234.2</ele>
        <time>2015-10-17T08:28:34Z</time>
      </trkpt>
      <trkpt lat="44.05701" lon="4.57035">
        <ele>234.2</ele>
        <time>2015-10-17T08:28:35Z</time>
      </trkpt>
      <trkpt lat="44.05702" lon="4.57038">
        <ele>235.2</ele>
        <time>2015-10-17T08:28:45Z</time>
      </trkpt>
      <trkpt lat="44.05705" lon="4.57043">
        <ele>235.7</ele>
        <time>2015-10-17T08:28:54Z</time>
      </trkpt>
      <trkpt lat="44.05711" lon="4.57045">
        <ele>235.7</ele>
        <time>2015-10-17T08:28:57Z</time>
      </trkpt>
      <trkpt lat="44.05719" lon="4.57043">
        <ele>235.7</ele>
        <time>2015-10-17T08:28:58Z</time>
      </trkpt>
      <trkpt lat="44.05791" lon="4.57015">
        <ele>234.2</ele>
        <time>2015-10-17T08:29:03Z</time>
      </trkpt>
      <trkpt lat="44.05809" lon="4.57012">
        <ele>234.2</ele>
        <time>2015-10-17T08:29:04Z</time>
      </trkpt>
      <trkpt lat="44.05828" lon="4.57011">
        <ele>233.7</ele>
        <time>2015-10-17T08:29:05Z</time>
      </trkpt>
      <trkpt lat="44.05845" lon="4.57012">
        <ele>233.3</ele>
        <time>2015-10-17T08:29:06Z</time>
      </trkpt>
      <trkpt lat="44.05863" lon="4.57016">
        <ele>232.8</ele>
        <time>2015-10-17T08:29:07Z</time>
      </trkpt>
      <trkpt lat="44.05881" lon="4.57022">
        <ele>232.3</ele>
        <time>2015-10-17T08:29:08Z</time>
      </trkpt>
      <trkpt lat="44.05898" lon="4.57033">
        <ele>231.8</ele>
        <time>2015-10-17T08:29:09Z</time>
      </trkpt>
      <trkpt lat="44.05914" lon="4.57044">
        <ele>231.3</ele>
        <time>2015-10-17T08:29:10Z</time>
      </trkpt>
      <trkpt lat="44.05931" lon="4.57055">
        <ele>230.4</ele>
        <time>2015-10-17T08:29:11Z</time>
      </trkpt>
      <trkpt lat="44.06139" lon="4.57205">
        <ele>218.8</ele>
        <time>2015-10-17T08:29:24Z</time>
      </trkpt>
      <trkpt lat="44.06224" lon="4.57298">
        <ele>213.6</ele>
        <time>2015-10-17T08:29:30Z</time>
      </trkpt>
      <trkpt lat="44.06234" lon="4.57319">
        <ele>212.1</ele>
        <time>2015-10-17T08:29:31Z</time>
      </trkpt>
      <trkpt lat="44.06243" lon="4.57341">
        <ele>211.2</ele>
        <time>2015-10-17T08:29:32Z</time>
      </trkpt>
      <trkpt lat="44.06251" lon="4.57364">
        <ele>210.2</ele>
        <time>2015-10-17T08:29:33Z</time>
      </trkpt>
      <trkpt lat="44.06258" lon="4.57386">
        <ele>208.7</ele>
        <time>2015-10-17T08:29:34Z</time>
      </trkpt>
      <trkpt lat="44.06296" lon="4.57473">
        <ele>203.9</ele>
        <time>2015-10-17T08:29:38Z</time>
      </trkpt>
      <trkpt lat="44.06309" lon="4.57492">
        <ele>202.5</ele>
        <time>2015-10-17T08:29:39Z</time>
      </trkpt>
      <trkpt lat="44.06324" lon="4.5751">
        <ele>202</ele>
        <time>2015-10-17T08:29:40Z</time>
      </trkpt>
      <trkpt lat="44.0634" lon="4.57523">
        <ele>201.1</ele>
        <time>2015-10-17T08:29:41Z</time>
      </trkpt>
      <trkpt lat="44.06358" lon="4.57534">
        <ele>200.1</ele>
        <time>2015-10-17T08:29:42Z</time>
      </trkpt>
      <trkpt lat="44.06377" lon="4.5754">
        <ele>198.2</ele>
        <time>2015-10-17T08:29:43Z</time>
      </trkpt>
      <trkpt lat="44.06396" lon="4.57546">
        <ele>195.8</ele>
        <time>2015-10-17T08:29:44Z</time>
      </trkpt>
      <trkpt lat="44.06414" lon="4.57549">
        <ele>193.8</ele>
        <time>2015-10-17T08:29:45Z</time>
      </trkpt>
      <trkpt lat="44.06432" lon="4.57551">
        <ele>192.4</ele>
        <time>2015-10-17T08:29:46Z</time>
      </trkpt>
      <trkpt lat="44.06568" lon="4.57591">
        <ele>185.7</ele>
        <time>2015-10-17T08:29:54Z</time>
      </trkpt>
      <trkpt lat="44.06719" lon="4.5771">
        <ele>177</ele>
        <time>2015-10-17T08:30:03Z</time>
      </trkpt>
      <trkpt lat="44.06844" lon="4.57847">
        <ele>169.3</ele>
        <time>2015-10-17T08:30:12Z</time>
      </trkpt>
      <trkpt lat="44.07024" lon="4.58053">
        <ele>158.8</ele>
        <time>2015-10-17T08:30:26Z</time>
      </trkpt>
      <trkpt lat="44.07077" lon="4.58108">
        <ele>155.9</ele>
        <time>2015-10-17T08:30:30Z</time>
      </trkpt>
      <trkpt lat="44.07092" lon="4.58118">
        <ele>155.4</ele>
        <time>2015-10-17T08:30:31Z</time>
      </trkpt>
      <trkpt lat="44.07108" lon="4.58126">
        <ele>154.4</ele>
        <time>2015-10-17T08:30:32Z</time>
      </trkpt>
      <trkpt lat="44.07123" lon="4.58132">
        <ele>153.5</ele>
        <time>2015-10-17T08:30:33Z</time>
      </trkpt>
      <trkpt lat="44.07139" lon="4.58136">
        <ele>153</ele>
        <time>2015-10-17T08:30:34Z</time>
      </trkpt>
      <trkpt lat="44.07214" lon="4.5816">
        <ele>150.6</ele>
        <time>2015-10-17T08:30:39Z</time>
      </trkpt>
      <trkpt lat="44.07229" lon="4.58169">
        <ele>149.6</ele>
        <time>2015-10-17T08:30:40Z</time>
      </trkpt>
      <trkpt lat="44.07243" lon="4.5818">
        <ele>148.7</ele>
        <time>2015-10-17T08:30:41Z</time>
      </trkpt>
      <trkpt lat="44.07369" lon="4.58297">
        <ele>141.9</ele>
        <time>2015-10-17T08:30:50Z</time>
      </trkpt>
      <trkpt lat="44.07539" lon="4.58458">
        <ele>134.7</ele>
        <time>2015-10-17T08:31:02Z</time>
      </trkpt>
      <trkpt lat="44.07628" lon="4.58558">
        <ele>130.4</ele>
        <time>2015-10-17T08:31:10Z</time>
      </trkpt>
      <trkpt lat="44.07748" lon="4.58701">
        <ele>122.2</ele>
        <time>2015-10-17T08:31:21Z</time>
      </trkpt>
      <trkpt lat="44.07785" lon="4.58744">
        <ele>119.3</ele>
        <time>2015-10-17T08:31:26Z</time>
      </trkpt>
      <trkpt lat="44.07877" lon="4.58845">
        <ele>116.9</ele>
        <time>2015-10-17T08:31:34Z</time>
      </trkpt>
      <trkpt lat="44.08098" lon="4.59102">
        <ele>111.7</ele>
        <time>2015-10-17T08:31:50Z</time>
      </trkpt>
      <trkpt lat="44.0824" lon="4.59228">
        <ele>104</ele>
        <time>2015-10-17T08:32:00Z</time>
      </trkpt>
      <trkpt lat="44.08472" lon="4.59357">
        <ele>96.3</ele>
        <time>2015-10-17T08:32:14Z</time>
      </trkpt>
      <trkpt lat="44.08737" lon="4.59507">
        <ele>90</ele>
        <time>2015-10-17T08:32:30Z</time>
      </trkpt>
      <trkpt lat="44.0897" lon="4.59618">
        <ele>87.1</ele>
        <time>2015-10-17T08:32:43Z</time>
      </trkpt>
      <trkpt lat="44.0922" lon="4.59688">
        <ele>83.8</ele>
        <time>2015-10-17T08:32:56Z</time>
      </trkpt>
      <trkpt lat="44.09385" lon="4.59693">
        <ele>81.4</ele>
        <time>2015-10-17T08:33:05Z</time>
      </trkpt>
      <trkpt lat="44.09485" lon="4.59759">
        <ele>80.9</ele>
        <time>2015-10-17T08:33:11Z</time>
      </trkpt>
      <trkpt lat="44.09627" lon="4.5993">
        <ele>79.5</ele>
        <time>2015-10-17T08:33:21Z</time>
      </trkpt>
      <trkpt lat="44.09825" lon="4.60168">
        <ele>76.1</ele>
        <time>2015-10-17T08:33:35Z</time>
      </trkpt>
      <trkpt lat="44.10066" lon="4.60455">
        <ele>74.2</ele>
        <time>2015-10-17T08:33:51Z</time>
      </trkpt>
      <trkpt lat="44.10223" lon="4.60633">
        <ele>73.7</ele>
        <time>2015-10-17T08:34:02Z</time>
      </trkpt>
      <trkpt lat="44.10368" lon="4.60752">
        <ele>75.6</ele>
        <time>2015-10-17T08:34:13Z</time>
      </trkpt>
      <trkpt lat="44.10385" lon="4.60772">
        <ele>75.6</ele>
        <time>2015-10-17T08:34:15Z</time>
      </trkpt>
      <trkpt lat="44.1039" lon="4.60784">
        <ele>75.6</ele>
        <time>2015-10-17T08:34:16Z</time>
      </trkpt>
      <trkpt lat="44.10394" lon="4.60798">
        <ele>75.6</ele>
        <time>2015-10-17T08:34:17Z</time>
      </trkpt>
      <trkpt lat="44.10398" lon="4.60812">
        <ele>75.6</ele>
        <time>2015-10-17T08:34:18Z</time>
      </trkpt>
      <trkpt lat="44.10404" lon="4.60823">
        <ele>75.6</ele>
        <time>2015-10-17T08:34:19Z</time>
      </trkpt>
      <trkpt lat="44.10411" lon="4.60832">
        <ele>75.6</ele>
        <time>2015-10-17T08:34:20Z</time>
      </trkpt>
      <trkpt lat="44.10421" lon="4.60835">
        <ele>75.6</ele>
        <time>2015-10-17T08:34:21Z</time>
      </trkpt>
      <trkpt lat="44.10432" lon="4.60834">
        <ele>75.6</ele>
        <time>2015-10-17T08:34:22Z</time>
      </trkpt>
      <trkpt lat="44.10443" lon="4.60831">
        <ele>75.1</ele>
        <time>2015-10-17T08:34:23Z</time>
      </trkpt>
      <trkpt lat="44.10455" lon="4.6083">
        <ele>75.1</ele>
        <time>2015-10-17T08:34:24Z</time>
      </trkpt>
      <trkpt lat="44.10466" lon="4.60834">
        <ele>75.1</ele>
        <time>2015-10-17T08:34:25Z</time>
      </trkpt>
      <trkpt lat="44.10477" lon="4.60841">
        <ele>75.1</ele>
        <time>2015-10-17T08:34:26Z</time>
      </trkpt>
      <trkpt lat="44.10602" lon="4.6094">
        <ele>77</ele>
        <time>2015-10-17T08:34:36Z</time>
      </trkpt>
      <trkpt lat="44.10773" lon="4.6108">
        <ele>77.5</ele>
        <time>2015-10-17T08:34:46Z</time>
      </trkpt>
      <trkpt lat="44.10998" lon="4.61271">
        <ele>80.9</ele>
        <time>2015-10-17T08:34:58Z</time>
      </trkpt>
      <trkpt lat="44.11236" lon="4.61484">
        <ele>81.4</ele>
        <time>2015-10-17T08:35:11Z</time>
      </trkpt>
      <trkpt lat="44.11273" lon="4.61508">
        <ele>82.8</ele>
        <time>2015-10-17T08:35:13Z</time>
      </trkpt>
      <trkpt lat="44.11292" lon="4.61517">
        <ele>83.3</ele>
        <time>2015-10-17T08:35:14Z</time>
      </trkpt>
      <trkpt lat="44.11312" lon="4.61524">
        <ele>83.8</ele>
        <time>2015-10-17T08:35:15Z</time>
      </trkpt>
      <trkpt lat="44.11333" lon="4.61527">
        <ele>84.3</ele>
        <time>2015-10-17T08:35:16Z</time>
      </trkpt>
      <trkpt lat="44.11355" lon="4.61529">
        <ele>84.7</ele>
        <time>2015-10-17T08:35:17Z</time>
      </trkpt>
      <trkpt lat="44.11722" lon="4.61523">
        <ele>83.3</ele>
        <time>2015-10-17T08:35:34Z</time>
      </trkpt>
      <trkpt lat="44.12015" lon="4.61526">
        <ele>77.5</ele>
        <time>2015-10-17T08:35:47Z</time>
      </trkpt>
      <trkpt lat="44.12238" lon="4.61496">
        <ele>72.7</ele>
        <time>2015-10-17T08:35:57Z</time>
      </trkpt>
      <trkpt lat="44.12596" lon="4.61436">
        <ele>72.2</ele>
        <time>2015-10-17T08:36:13Z</time>
      </trkpt>
      <trkpt lat="44.12885" lon="4.61401">
        <ele>72.2</ele>
        <time>2015-10-17T08:36:26Z</time>
      </trkpt>
      <trkpt lat="44.13197" lon="4.61384">
        <ele>70.3</ele>
        <time>2015-10-17T08:36:40Z</time>
      </trkpt>
      <trkpt lat="44.13505" lon="4.61314">
        <ele>72.2</ele>
        <time>2015-10-17T08:36:54Z</time>
      </trkpt>
      <trkpt lat="44.13701" lon="4.61276">
        <ele>73.2</ele>
        <time>2015-10-17T08:37:04Z</time>
      </trkpt>
      <trkpt lat="44.13863" lon="4.613">
        <ele>74.2</ele>
        <time>2015-10-17T08:37:13Z</time>
      </trkpt>
      <trkpt lat="44.14138" lon="4.61366">
        <ele>70.8</ele>
        <time>2015-10-17T08:37:27Z</time>
      </trkpt>
      <trkpt lat="44.14426" lon="4.61472">
        <ele>67.9</ele>
        <time>2015-10-17T08:37:41Z</time>
      </trkpt>
      <trkpt lat="44.14588" lon="4.61495">
        <ele>66.5</ele>
        <time>2015-10-17T08:37:49Z</time>
      </trkpt>
      <trkpt lat="44.14761" lon="4.61536">
        <ele>64.6</ele>
        <time>2015-10-17T08:37:59Z</time>
      </trkpt>
      <trkpt lat="44.14964" lon="4.61582">
        <ele>61.7</ele>
        <time>2015-10-17T08:38:11Z</time>
      </trkpt>
      <trkpt lat="44.15194" lon="4.61614">
        <ele>59.7</ele>
        <time>2015-10-17T08:38:25Z</time>
      </trkpt>
      <trkpt lat="44.1532" lon="4.61637">
        <ele>58.8</ele>
        <time>2015-10-17T08:38:34Z</time>
      </trkpt>
      <trkpt lat="44.15327" lon="4.61642">
        <ele>59.3</ele>
        <time>2015-10-17T08:38:35Z</time>
      </trkpt>
      <trkpt lat="44.15332" lon="4.6165">
        <ele>59.3</ele>
        <time>2015-10-17T08:38:36Z</time>
      </trkpt>
      <trkpt lat="44.1534" lon="4.61663">
        <ele>59.3</ele>
        <time>2015-10-17T08:38:38Z</time>
      </trkpt>
      <trkpt lat="44.15345" lon="4.61663">
        <ele>59.3</ele>
        <time>2015-10-17T08:38:39Z</time>
      </trkpt>
      <trkpt lat="44.1535" lon="4.61659">
        <ele>59.3</ele>
        <time>2015-10-17T08:38:40Z</time>
      </trkpt>
      <trkpt lat="44.15367" lon="4.61646">
        <ele>59.7</ele>
        <time>2015-10-17T08:38:42Z</time>
      </trkpt>
      <trkpt lat="44.15377" lon="4.61643">
        <ele>59.7</ele>
        <time>2015-10-17T08:38:43Z</time>
      </trkpt>
      <trkpt lat="44.15388" lon="4.61644">
        <ele>60.2</ele>
        <time>2015-10-17T08:38:44Z</time>
      </trkpt>
      <trkpt lat="44.15476" lon="4.6166">
        <ele>61.7</ele>
        <time>2015-10-17T08:38:54Z</time>
      </trkpt>
      <trkpt lat="44.15482" lon="4.61664">
        <ele>62.1</ele>
        <time>2015-10-17T08:38:55Z</time>
      </trkpt>
      <trkpt lat="44.15487" lon="4.61669">
        <ele>62.1</ele>
        <time>2015-10-17T08:38:56Z</time>
      </trkpt>
      <trkpt lat="44.15493" lon="4.61674">
        <ele>62.1</ele>
        <time>2015-10-17T08:38:57Z</time>
      </trkpt>
      <trkpt lat="44.155" lon="4.61678">
        <ele>62.6</ele>
        <time>2015-10-17T08:38:58Z</time>
      </trkpt>
      <trkpt lat="44.15514" lon="4.61674">
        <ele>62.6</ele>
        <time>2015-10-17T08:39:00Z</time>
      </trkpt>
      <trkpt lat="44.15522" lon="4.61669">
        <ele>62.6</ele>
        <time>2015-10-17T08:39:01Z</time>
      </trkpt>
      <trkpt lat="44.1553" lon="4.61665">
        <ele>63.1</ele>
        <time>2015-10-17T08:39:02Z</time>
      </trkpt>
      <trkpt lat="44.15539" lon="4.61663">
        <ele>63.1</ele>
        <time>2015-10-17T08:39:03Z</time>
      </trkpt>
      <trkpt lat="44.1555" lon="4.61664">
        <ele>63.6</ele>
        <time>2015-10-17T08:39:04Z</time>
      </trkpt>
      <trkpt lat="44.1556" lon="4.61666">
        <ele>64.1</ele>
        <time>2015-10-17T08:39:05Z</time>
      </trkpt>
      <trkpt lat="44.15572" lon="4.61669">
        <ele>64.6</ele>
        <time>2015-10-17T08:39:06Z</time>
      </trkpt>
      <trkpt lat="44.15701" lon="4.61707">
        <ele>72.2</ele>
        <time>2015-10-17T08:39:16Z</time>
      </trkpt>
      <trkpt lat="44.15863" lon="4.61756">
        <ele>75.1</ele>
        <time>2015-10-17T08:39:29Z</time>
      </trkpt>
      <trkpt lat="44.16013" lon="4.61801">
        <ele>73.7</ele>
        <time>2015-10-17T08:39:43Z</time>
      </trkpt>
      <trkpt lat="44.16053" lon="4.61812">
        <ele>73.7</ele>
        <time>2015-10-17T08:39:51Z</time>
      </trkpt>
      <trkpt lat="44.16052" lon="4.61815">
        <ele>78.5</ele>
        <time>2015-10-17T08:40:14Z</time>
      </trkpt>
      <trkpt lat="44.16066" lon="4.61818">
        <ele>79</ele>
        <time>2015-10-17T08:40:23Z</time>
      </trkpt>
      <trkpt lat="44.16073" lon="4.61817">
        <ele>78.5</ele>
        <time>2015-10-17T08:40:24Z</time>
      </trkpt>
      <trkpt lat="44.1608" lon="4.61814">
        <ele>78</ele>
        <time>2015-10-17T08:40:25Z</time>
      </trkpt>
      <trkpt lat="44.16087" lon="4.6181">
        <ele>78</ele>
        <time>2015-10-17T08:40:26Z</time>
      </trkpt>
      <trkpt lat="44.16093" lon="4.61805">
        <ele>77.5</ele>
        <time>2015-10-17T08:40:27Z</time>
      </trkpt>
      <trkpt lat="44.16154" lon="4.61764">
        <ele>76.1</ele>
        <time>2015-10-17T08:40:37Z</time>
      </trkpt>
      <trkpt lat="44.16188" lon="4.61742">
        <ele>74.2</ele>
        <time>2015-10-17T08:40:46Z</time>
      </trkpt>
      <trkpt lat="44.16212" lon="4.61733">
        <ele>74.2</ele>
        <time>2015-10-17T08:41:00Z</time>
      </trkpt>
      <trkpt lat="44.16239" lon="4.61726">
        <ele>75.6</ele>
        <time>2015-10-17T08:41:06Z</time>
      </trkpt>
      <trkpt lat="44.16251" lon="4.61725">
        <ele>70.3</ele>
        <time>2015-10-17T08:41:50Z</time>
      </trkpt>
      <trkpt lat="44.1626" lon="4.61726">
        <ele>69.8</ele>
        <time>2015-10-17T08:41:51Z</time>
      </trkpt>
      <trkpt lat="44.16269" lon="4.61727">
        <ele>69.8</ele>
        <time>2015-10-17T08:41:52Z</time>
      </trkpt>
      <trkpt lat="44.16375" lon="4.61755">
        <ele>64.6</ele>
        <time>2015-10-17T08:42:01Z</time>
      </trkpt>
      <trkpt lat="44.16426" lon="4.61783">
        <ele>64.1</ele>
        <time>2015-10-17T08:42:05Z</time>
      </trkpt>
      <trkpt lat="44.16438" lon="4.61793">
        <ele>64.1</ele>
        <time>2015-10-17T08:42:06Z</time>
      </trkpt>
      <trkpt lat="44.1652" lon="4.61893">
        <ele>64.1</ele>
        <time>2015-10-17T08:42:15Z</time>
      </trkpt>
      <trkpt lat="44.16542" lon="4.61933">
        <ele>63.6</ele>
        <time>2015-10-17T08:42:19Z</time>
      </trkpt>
      <trkpt lat="44.16547" lon="4.61939">
        <ele>62.6</ele>
        <time>2015-10-17T08:42:20Z</time>
      </trkpt>
      <trkpt lat="44.16552" lon="4.61941">
        <ele>61.7</ele>
        <time>2015-10-17T08:42:21Z</time>
      </trkpt>
      <trkpt lat="44.16558" lon="4.61943">
        <ele>60.7</ele>
        <time>2015-10-17T08:42:22Z</time>
      </trkpt>
      <trkpt lat="44.16566" lon="4.61941">
        <ele>60.2</ele>
        <time>2015-10-17T08:42:23Z</time>
      </trkpt>
      <trkpt lat="44.16575" lon="4.61938">
        <ele>59.3</ele>
        <time>2015-10-17T08:42:24Z</time>
      </trkpt>
      <trkpt lat="44.16582" lon="4.61935">
        <ele>58.3</ele>
        <time>2015-10-17T08:42:25Z</time>
      </trkpt>
      <trkpt lat="44.16589" lon="4.61933">
        <ele>58.3</ele>
        <time>2015-10-17T08:42:26Z</time>
      </trkpt>
      <trkpt lat="44.16592" lon="4.61931">
        <ele>59.3</ele>
        <time>2015-10-17T08:42:32Z</time>
      </trkpt>
      <trkpt lat="44.16592" lon="4.61929">
        <ele>62.1</ele>
        <time>2015-10-17T08:42:37Z</time>
      </trkpt>
      <trkpt lat="44.16595" lon="4.61928">
        <ele>62.6</ele>
        <time>2015-10-17T08:42:38Z</time>
      </trkpt>
      <trkpt lat="44.16598" lon="4.61927">
        <ele>62.6</ele>
        <time>2015-10-17T08:42:39Z</time>
      </trkpt>
      <trkpt lat="44.16603" lon="4.61927">
        <ele>62.6</ele>
        <time>2015-10-17T08:42:40Z</time>
      </trkpt>
      <trkpt lat="44.16609" lon="4.61928">
        <ele>62.1</ele>
        <time>2015-10-17T08:42:41Z</time>
      </trkpt>
      <trkpt lat="44.16699" lon="4.61928">
        <ele>60.2</ele>
        <time>2015-10-17T08:42:52Z</time>
      </trkpt>
      <trkpt lat="44.16796" lon="4.61924">
        <ele>56.4</ele>
        <time>2015-10-17T08:43:03Z</time>
      </trkpt>
      <trkpt lat="44.16808" lon="4.61923">
        <ele>56.9</ele>
        <time>2015-10-17T08:43:13Z</time>
      </trkpt>
      <trkpt lat="44.16823" lon="4.61925">
        <ele>55.4</ele>
        <time>2015-10-17T08:43:25Z</time>
      </trkpt>
      <trkpt lat="44.16847" lon="4.6193">
        <ele>53</ele>
        <time>2015-10-17T08:43:36Z</time>
      </trkpt>
      <trkpt lat="44.16852" lon="4.61933">
        <ele>53</ele>
        <time>2015-10-17T08:43:37Z</time>
      </trkpt>
      <trkpt lat="44.16858" lon="4.61939">
        <ele>53</ele>
        <time>2015-10-17T08:43:38Z</time>
      </trkpt>
      <trkpt lat="44.16863" lon="4.61946">
        <ele>53</ele>
        <time>2015-10-17T08:43:39Z</time>
      </trkpt>
      <trkpt lat="44.16868" lon="4.61955">
        <ele>53</ele>
        <time>2015-10-17T08:43:40Z</time>
      </trkpt>
      <trkpt lat="44.16874" lon="4.61962">
        <ele>53</ele>
        <time>2015-10-17T08:43:41Z</time>
      </trkpt>
      <trkpt lat="44.16881" lon="4.61966">
        <ele>53</ele>
        <time>2015-10-17T08:43:42Z</time>
      </trkpt>
      <trkpt lat="44.16887" lon="4.61966">
        <ele>53</ele>
        <time>2015-10-17T08:43:43Z</time>
      </trkpt>
      <trkpt lat="44.16892" lon="4.61965">
        <ele>53</ele>
        <time>2015-10-17T08:43:44Z</time>
      </trkpt>
      <trkpt lat="44.16896" lon="4.61962">
        <ele>53</ele>
        <time>2015-10-17T08:43:45Z</time>
      </trkpt>
      <trkpt lat="44.16898" lon="4.6196">
        <ele>52.5</ele>
        <time>2015-10-17T08:43:46Z</time>
      </trkpt>
      <trkpt lat="44.1692" lon="4.61948">
        <ele>51.1</ele>
        <time>2015-10-17T08:43:55Z</time>
      </trkpt>
      <trkpt lat="44.1695" lon="4.61962">
        <ele>51.6</ele>
        <time>2015-10-17T08:44:05Z</time>
      </trkpt>
      <trkpt lat="44.17014" lon="4.61991">
        <ele>51.6</ele>
        <time>2015-10-17T08:44:16Z</time>
      </trkpt>
      <trkpt lat="44.17086" lon="4.62004">
        <ele>50.1</ele>
        <time>2015-10-17T08:44:28Z</time>
      </trkpt>
      <trkpt lat="44.17175" lon="4.62009">
        <ele>49.7</ele>
        <time>2015-10-17T08:44:43Z</time>
      </trkpt>
      <trkpt lat="44.17209" lon="4.62018">
        <ele>50.1</ele>
        <time>2015-10-17T08:44:52Z</time>
      </trkpt>
      <trkpt lat="44.17218" lon="4.62026">
        <ele>50.1</ele>
        <time>2015-10-17T08:44:54Z</time>
      </trkpt>
      <trkpt lat="44.17221" lon="4.62027">
        <ele>50.1</ele>
        <time>2015-10-17T08:44:55Z</time>
      </trkpt>
      <trkpt lat="44.17225" lon="4.62027">
        <ele>50.1</ele>
        <time>2015-10-17T08:44:56Z</time>
      </trkpt>
      <trkpt lat="44.17229" lon="4.62025">
        <ele>50.1</ele>
        <time>2015-10-17T08:44:57Z</time>
      </trkpt>
      <trkpt lat="44.17232" lon="4.62022">
        <ele>50.1</ele>
        <time>2015-10-17T08:44:58Z</time>
      </trkpt>
      <trkpt lat="44.17237" lon="4.62019">
        <ele>50.6</ele>
        <time>2015-10-17T08:44:59Z</time>
      </trkpt>
      <trkpt lat="44.17242" lon="4.62016">
        <ele>50.6</ele>
        <time>2015-10-17T08:45:00Z</time>
      </trkpt>
      <trkpt lat="44.1725" lon="4.62015">
        <ele>50.6</ele>
        <time>2015-10-17T08:45:01Z</time>
      </trkpt>
      <trkpt lat="44.17257" lon="4.62015">
        <ele>51.1</ele>
        <time>2015-10-17T08:45:02Z</time>
      </trkpt>
      <trkpt lat="44.17265" lon="4.62015">
        <ele>51.1</ele>
        <time>2015-10-17T08:45:03Z</time>
      </trkpt>
      <trkpt lat="44.17362" lon="4.62018">
        <ele>52.5</ele>
        <time>2015-10-17T08:45:13Z</time>
      </trkpt>
      <trkpt lat="44.1749" lon="4.62003">
        <ele>53</ele>
        <time>2015-10-17T08:45:25Z</time>
      </trkpt>
      <trkpt lat="44.17581" lon="4.61994">
        <ele>53</ele>
        <time>2015-10-17T08:45:34Z</time>
      </trkpt>
      <trkpt lat="44.17645" lon="4.61993">
        <ele>53.5</ele>
        <time>2015-10-17T08:45:41Z</time>
      </trkpt>
      <trkpt lat="44.17654" lon="4.61991">
        <ele>53.5</ele>
        <time>2015-10-17T08:45:42Z</time>
      </trkpt>
      <trkpt lat="44.17753" lon="4.61976">
        <ele>53.5</ele>
        <time>2015-10-17T08:45:50Z</time>
      </trkpt>
      <trkpt lat="44.17911" lon="4.61954">
        <ele>54.9</ele>
        <time>2015-10-17T08:46:00Z</time>
      </trkpt>
      <trkpt lat="44.18067" lon="4.61971">
        <ele>56.9</ele>
        <time>2015-10-17T08:46:08Z</time>
      </trkpt>
      <trkpt lat="44.18255" lon="4.62049">
        <ele>59.3</ele>
        <time>2015-10-17T08:46:18Z</time>
      </trkpt>
      <trkpt lat="44.18579" lon="4.62183">
        <ele>67.4</ele>
        <time>2015-10-17T08:46:36Z</time>
      </trkpt>
      <trkpt lat="44.18694" lon="4.6223">
        <ele>73.7</ele>
        <time>2015-10-17T08:46:44Z</time>
      </trkpt>
      <trkpt lat="44.18782" lon="4.62271">
        <ele>74.2</ele>
        <time>2015-10-17T08:46:53Z</time>
      </trkpt>
      <trkpt lat="44.18787" lon="4.62277">
        <ele>74.2</ele>
        <time>2015-10-17T08:46:54Z</time>
      </trkpt>
      <trkpt lat="44.18792" lon="4.62283">
        <ele>74.2</ele>
        <time>2015-10-17T08:46:55Z</time>
      </trkpt>
      <trkpt lat="44.18797" lon="4.62291">
        <ele>74.2</ele>
        <time>2015-10-17T08:46:56Z</time>
      </trkpt>
      <trkpt lat="44.18802" lon="4.623">
        <ele>74.2</ele>
        <time>2015-10-17T08:46:57Z</time>
      </trkpt>
      <trkpt lat="44.18809" lon="4.62306">
        <ele>74.2</ele>
        <time>2015-10-17T08:46:58Z</time>
      </trkpt>
      <trkpt lat="44.18817" lon="4.62307">
        <ele>74.2</ele>
        <time>2015-10-17T08:46:59Z</time>
      </trkpt>
      <trkpt lat="44.18826" lon="4.62304">
        <ele>74.6</ele>
        <time>2015-10-17T08:47:00Z</time>
      </trkpt>
      <trkpt lat="44.18836" lon="4.623">
        <ele>74.6</ele>
        <time>2015-10-17T08:47:01Z</time>
      </trkpt>
      <trkpt lat="44.18847" lon="4.62297">
        <ele>74.6</ele>
        <time>2015-10-17T08:47:02Z</time>
      </trkpt>
      <trkpt lat="44.1886" lon="4.62298">
        <ele>74.6</ele>
        <time>2015-10-17T08:47:03Z</time>
      </trkpt>
      <trkpt lat="44.18872" lon="4.62301">
        <ele>74.6</ele>
        <time>2015-10-17T08:47:04Z</time>
      </trkpt>
      <trkpt lat="44.18884" lon="4.62305">
        <ele>74.6</ele>
        <time>2015-10-17T08:47:05Z</time>
      </trkpt>
      <trkpt lat="44.19037" lon="4.62349">
        <ele>76.6</ele>
        <time>2015-10-17T08:47:16Z</time>
      </trkpt>
      <trkpt lat="44.19304" lon="4.62425">
        <ele>81.9</ele>
        <time>2015-10-17T08:47:34Z</time>
      </trkpt>
      <trkpt lat="44.19446" lon="4.62464">
        <ele>84.7</ele>
        <time>2015-10-17T08:47:45Z</time>
      </trkpt>
      <trkpt lat="44.1953" lon="4.62483">
        <ele>86.2</ele>
        <time>2015-10-17T08:47:55Z</time>
      </trkpt>
      <trkpt lat="44.19583" lon="4.62474">
        <ele>88.6</ele>
        <time>2015-10-17T08:48:03Z</time>
      </trkpt>
      <trkpt lat="44.19592" lon="4.62473">
        <ele>89.1</ele>
        <time>2015-10-17T08:48:09Z</time>
      </trkpt>
      <trkpt lat="44.19594" lon="4.62472">
        <ele>89.5</ele>
        <time>2015-10-17T08:48:11Z</time>
      </trkpt>
      <trkpt lat="44.19597" lon="4.6247">
        <ele>89.1</ele>
        <time>2015-10-17T08:48:12Z</time>
      </trkpt>
      <trkpt lat="44.19602" lon="4.62464">
        <ele>89.5</ele>
        <time>2015-10-17T08:48:13Z</time>
      </trkpt>
      <trkpt lat="44.19625" lon="4.6246">
        <ele>91.5</ele>
        <time>2015-10-17T08:48:15Z</time>
      </trkpt>
      <trkpt lat="44.19753" lon="4.62447">
        <ele>100.6</ele>
        <time>2015-10-17T08:48:28Z</time>
      </trkpt>
      <trkpt lat="44.19764" lon="4.6245">
        <ele>100.6</ele>
        <time>2015-10-17T08:48:29Z</time>
      </trkpt>
      <trkpt lat="44.19776" lon="4.62454">
        <ele>101.1</ele>
        <time>2015-10-17T08:48:30Z</time>
      </trkpt>
      <trkpt lat="44.19787" lon="4.6246">
        <ele>101.6</ele>
        <time>2015-10-17T08:48:31Z</time>
      </trkpt>
      <trkpt lat="44.19799" lon="4.62467">
        <ele>101.6</ele>
        <time>2015-10-17T08:48:32Z</time>
      </trkpt>
      <trkpt lat="44.19981" lon="4.62579">
        <ele>103.5</ele>
        <time>2015-10-17T08:48:48Z</time>
      </trkpt>
      <trkpt lat="44.20148" lon="4.62676">
        <ele>104.4</ele>
        <time>2015-10-17T08:49:02Z</time>
      </trkpt>
      <trkpt lat="44.20157" lon="4.62682">
        <ele>104.4</ele>
        <time>2015-10-17T08:49:03Z</time>
      </trkpt>
      <trkpt lat="44.20165" lon="4.62689">
        <ele>104.4</ele>
        <time>2015-10-17T08:49:04Z</time>
      </trkpt>
      <trkpt lat="44.20172" lon="4.62697">
        <ele>104.4</ele>
        <time>2015-10-17T08:49:05Z</time>
      </trkpt>
      <trkpt lat="44.20178" lon="4.62706">
        <ele>104.4</ele>
        <time>2015-10-17T08:49:06Z</time>
      </trkpt>
      <trkpt lat="44.20185" lon="4.62713">
        <ele>104.9</ele>
        <time>2015-10-17T08:49:07Z</time>
      </trkpt>
      <trkpt lat="44.20194" lon="4.62716">
        <ele>104.9</ele>
        <time>2015-10-17T08:49:08Z</time>
      </trkpt>
      <trkpt lat="44.20205" lon="4.62719">
        <ele>104.9</ele>
        <time>2015-10-17T08:49:09Z</time>
      </trkpt>
      <trkpt lat="44.20216" lon="4.62723">
        <ele>104.9</ele>
        <time>2015-10-17T08:49:10Z</time>
      </trkpt>
      <trkpt lat="44.2035" lon="4.62802">
        <ele>105.4</ele>
        <time>2015-10-17T08:49:20Z</time>
      </trkpt>
      <trkpt lat="44.20534" lon="4.62913">
        <ele>107.8</ele>
        <time>2015-10-17T08:49:31Z</time>
      </trkpt>
      <trkpt lat="44.20695" lon="4.62968">
        <ele>115.5</ele>
        <time>2015-10-17T08:49:39Z</time>
      </trkpt>
      <trkpt lat="44.21004" lon="4.63062">
        <ele>128.5</ele>
        <time>2015-10-17T08:49:53Z</time>
      </trkpt>
      <trkpt lat="44.21334" lon="4.63177">
        <ele>137.6</ele>
        <time>2015-10-17T08:50:09Z</time>
      </trkpt>
      <trkpt lat="44.21352" lon="4.6319">
        <ele>138.6</ele>
        <time>2015-10-17T08:50:10Z</time>
      </trkpt>
      <trkpt lat="44.21367" lon="4.63204">
        <ele>139.5</ele>
        <time>2015-10-17T08:50:11Z</time>
      </trkpt>
      <trkpt lat="44.21443" lon="4.63285">
        <ele>142.4</ele>
        <time>2015-10-17T08:50:17Z</time>
      </trkpt>
      <trkpt lat="44.21493" lon="4.63315">
        <ele>142.4</ele>
        <time>2015-10-17T08:50:20Z</time>
      </trkpt>
      <trkpt lat="44.21512" lon="4.6332">
        <ele>141.9</ele>
        <time>2015-10-17T08:50:21Z</time>
      </trkpt>
      <trkpt lat="44.2153" lon="4.63323">
        <ele>141.5</ele>
        <time>2015-10-17T08:50:22Z</time>
      </trkpt>
      <trkpt lat="44.21624" lon="4.63326">
        <ele>137.1</ele>
        <time>2015-10-17T08:50:27Z</time>
      </trkpt>
      <trkpt lat="44.21643" lon="4.63332">
        <ele>136.2</ele>
        <time>2015-10-17T08:50:28Z</time>
      </trkpt>
      <trkpt lat="44.21661" lon="4.6334">
        <ele>135.2</ele>
        <time>2015-10-17T08:50:29Z</time>
      </trkpt>
      <trkpt lat="44.21734" lon="4.63373">
        <ele>131.8</ele>
        <time>2015-10-17T08:50:33Z</time>
      </trkpt>
      <trkpt lat="44.21753" lon="4.63377">
        <ele>130.9</ele>
        <time>2015-10-17T08:50:34Z</time>
      </trkpt>
      <trkpt lat="44.21772" lon="4.63378">
        <ele>130.4</ele>
        <time>2015-10-17T08:50:35Z</time>
      </trkpt>
      <trkpt lat="44.21999" lon="4.63359">
        <ele>117.4</ele>
        <time>2015-10-17T08:50:46Z</time>
      </trkpt>
      <trkpt lat="44.22286" lon="4.63353">
        <ele>97.7</ele>
        <time>2015-10-17T08:50:59Z</time>
      </trkpt>
      <trkpt lat="44.22717" lon="4.63362">
        <ele>71.3</ele>
        <time>2015-10-17T08:51:19Z</time>
      </trkpt>
      <trkpt lat="44.22912" lon="4.63369">
        <ele>71.3</ele>
        <time>2015-10-17T08:51:29Z</time>
      </trkpt>
      <trkpt lat="44.23037" lon="4.63404">
        <ele>74.2</ele>
        <time>2015-10-17T08:51:36Z</time>
      </trkpt>
      <trkpt lat="44.23295" lon="4.63562">
        <ele>72.2</ele>
        <time>2015-10-17T08:51:51Z</time>
      </trkpt>
      <trkpt lat="44.23594" lon="4.63747">
        <ele>70.8</ele>
        <time>2015-10-17T08:52:08Z</time>
      </trkpt>
      <trkpt lat="44.23792" lon="4.63868">
        <ele>60.7</ele>
        <time>2015-10-17T08:52:20Z</time>
      </trkpt>
      <trkpt lat="44.23887" lon="4.63926">
        <ele>57.8</ele>
        <time>2015-10-17T08:52:28Z</time>
      </trkpt>
      <trkpt lat="44.23979" lon="4.63987">
        <ele>57.3</ele>
        <time>2015-10-17T08:52:40Z</time>
      </trkpt>
      <trkpt lat="44.2402" lon="4.64038">
        <ele>57.8</ele>
        <time>2015-10-17T08:52:50Z</time>
      </trkpt>
      <trkpt lat="44.24036" lon="4.6408">
        <ele>59.3</ele>
        <time>2015-10-17T08:53:02Z</time>
      </trkpt>
      <trkpt lat="44.24038" lon="4.64102">
        <ele>59.3</ele>
        <time>2015-10-17T08:53:04Z</time>
      </trkpt>
      <trkpt lat="44.24042" lon="4.64114">
        <ele>59.3</ele>
        <time>2015-10-17T08:53:05Z</time>
      </trkpt>
      <trkpt lat="44.24048" lon="4.64124">
        <ele>59.7</ele>
        <time>2015-10-17T08:53:06Z</time>
      </trkpt>
      <trkpt lat="44.24056" lon="4.6413">
        <ele>59.7</ele>
        <time>2015-10-17T08:53:07Z</time>
      </trkpt>
      <trkpt lat="44.24065" lon="4.64132">
        <ele>59.3</ele>
        <time>2015-10-17T08:53:08Z</time>
      </trkpt>
      <trkpt lat="44.24075" lon="4.64126">
        <ele>59.3</ele>
        <time>2015-10-17T08:53:09Z</time>
      </trkpt>
      <trkpt lat="44.24084" lon="4.64118">
        <ele>58.8</ele>
        <time>2015-10-17T08:53:10Z</time>
      </trkpt>
      <trkpt lat="44.2409" lon="4.64109">
        <ele>58.8</ele>
        <time>2015-10-17T08:53:11Z</time>
      </trkpt>
      <trkpt lat="44.24097" lon="4.64099">
        <ele>58.3</ele>
        <time>2015-10-17T08:53:12Z</time>
      </trkpt>
      <trkpt lat="44.24104" lon="4.64092">
        <ele>58.3</ele>
        <time>2015-10-17T08:53:13Z</time>
      </trkpt>
      <trkpt lat="44.24113" lon="4.64088">
        <ele>58.3</ele>
        <time>2015-10-17T08:53:14Z</time>
      </trkpt>
      <trkpt lat="44.24122" lon="4.64087">
        <ele>58.3</ele>
        <time>2015-10-17T08:53:15Z</time>
      </trkpt>
      <trkpt lat="44.24132" lon="4.64087">
        <ele>58.3</ele>
        <time>2015-10-17T08:53:16Z</time>
      </trkpt>
      <trkpt lat="44.24141" lon="4.64088">
        <ele>58.3</ele>
        <time>2015-10-17T08:53:17Z</time>
      </trkpt>
      <trkpt lat="44.24151" lon="4.64091">
        <ele>58.3</ele>
        <time>2015-10-17T08:53:18Z</time>
      </trkpt>
      <trkpt lat="44.2416" lon="4.64095">
        <ele>58.3</ele>
        <time>2015-10-17T08:53:19Z</time>
      </trkpt>
      <trkpt lat="44.24169" lon="4.64101">
        <ele>58.3</ele>
        <time>2015-10-17T08:53:20Z</time>
      </trkpt>
      <trkpt lat="44.24263" lon="4.6416">
        <ele>58.8</ele>
        <time>2015-10-17T08:53:28Z</time>
      </trkpt>
      <trkpt lat="44.24354" lon="4.64218">
        <ele>58.8</ele>
        <time>2015-10-17T08:53:37Z</time>
      </trkpt>
      <trkpt lat="44.2436" lon="4.64226">
        <ele>58.8</ele>
        <time>2015-10-17T08:53:38Z</time>
      </trkpt>
      <trkpt lat="44.24372" lon="4.64241">
        <ele>58.3</ele>
        <time>2015-10-17T08:53:40Z</time>
      </trkpt>
      <trkpt lat="44.24379" lon="4.64243">
        <ele>58.3</ele>
        <time>2015-10-17T08:53:41Z</time>
      </trkpt>
      <trkpt lat="44.24387" lon="4.64242">
        <ele>58.3</ele>
        <time>2015-10-17T08:53:42Z</time>
      </trkpt>
      <trkpt lat="44.24396" lon="4.64243">
        <ele>58.3</ele>
        <time>2015-10-17T08:53:43Z</time>
      </trkpt>
      <trkpt lat="44.24406" lon="4.64247">
        <ele>58.3</ele>
        <time>2015-10-17T08:53:44Z</time>
      </trkpt>
      <trkpt lat="44.24417" lon="4.64253">
        <ele>57.8</ele>
        <time>2015-10-17T08:53:45Z</time>
      </trkpt>
      <trkpt lat="44.24429" lon="4.6426">
        <ele>57.3</ele>
        <time>2015-10-17T08:53:46Z</time>
      </trkpt>
      <trkpt lat="44.24569" lon="4.64345">
        <ele>55.4</ele>
        <time>2015-10-17T08:53:56Z</time>
      </trkpt>
      <trkpt lat="44.24754" lon="4.64459">
        <ele>54.9</ele>
        <time>2015-10-17T08:54:09Z</time>
      </trkpt>
      <trkpt lat="44.24885" lon="4.64538">
        <ele>55.4</ele>
        <time>2015-10-17T08:54:20Z</time>
      </trkpt>
      <trkpt lat="44.24915" lon="4.64554">
        <ele>56.4</ele>
        <time>2015-10-17T08:54:27Z</time>
      </trkpt>
      <trkpt lat="44.2494" lon="4.64572">
        <ele>58.3</ele>
        <time>2015-10-17T08:54:39Z</time>
      </trkpt>
      <trkpt lat="44.24993" lon="4.64604">
        <ele>58.8</ele>
        <time>2015-10-17T08:54:47Z</time>
      </trkpt>
      <trkpt lat="44.25105" lon="4.6467">
        <ele>57.3</ele>
        <time>2015-10-17T08:54:57Z</time>
      </trkpt>
      <trkpt lat="44.2525" lon="4.64727">
        <ele>57.3</ele>
        <time>2015-10-17T08:55:09Z</time>
      </trkpt>
      <trkpt lat="44.25349" lon="4.64766">
        <ele>58.3</ele>
        <time>2015-10-17T08:55:20Z</time>
      </trkpt>
      <trkpt lat="44.25361" lon="4.64771">
        <ele>59.3</ele>
        <time>2015-10-17T08:55:22Z</time>
      </trkpt>
      <trkpt lat="44.25365" lon="4.64772">
        <ele>60.2</ele>
        <time>2015-10-17T08:55:23Z</time>
      </trkpt>
      <trkpt lat="44.25367" lon="4.64773">
        <ele>60.7</ele>
        <time>2015-10-17T08:55:24Z</time>
      </trkpt>
      <trkpt lat="44.25401" lon="4.64789">
        <ele>68.9</ele>
        <time>2015-10-17T08:55:34Z</time>
      </trkpt>
      <trkpt lat="44.25414" lon="4.64791">
        <ele>71.3</ele>
        <time>2015-10-17T08:55:43Z</time>
      </trkpt>
      <trkpt lat="44.25416" lon="4.64793">
        <ele>82.3</ele>
        <time>2015-10-17T08:56:09Z</time>
      </trkpt>
      <trkpt lat="44.25418" lon="4.64794">
        <ele>81.4</ele>
        <time>2015-10-17T08:56:10Z</time>
      </trkpt>
      <trkpt lat="44.25456" lon="4.64806">
        <ele>73.2</ele>
        <time>2015-10-17T08:56:19Z</time>
      </trkpt>
      <trkpt lat="44.25471" lon="4.64801">
        <ele>67</ele>
        <time>2015-10-17T08:56:27Z</time>
      </trkpt>
      <trkpt lat="44.25473" lon="4.64799">
        <ele>66.5</ele>
        <time>2015-10-17T08:56:31Z</time>
      </trkpt>
      <trkpt lat="44.25474" lon="4.64796">
        <ele>66</ele>
        <time>2015-10-17T08:56:32Z</time>
      </trkpt>
      <trkpt lat="44.25476" lon="4.64792">
        <ele>66</ele>
        <time>2015-10-17T08:56:33Z</time>
      </trkpt>
      <trkpt lat="44.25477" lon="4.64789">
        <ele>66</ele>
        <time>2015-10-17T08:56:34Z</time>
      </trkpt>
      <trkpt lat="44.25477" lon="4.64784">
        <ele>65.5</ele>
        <time>2015-10-17T08:56:35Z</time>
      </trkpt>
      <trkpt lat="44.25477" lon="4.6478">
        <ele>65</ele>
        <time>2015-10-17T08:56:36Z</time>
      </trkpt>
      <trkpt lat="44.25476" lon="4.64775">
        <ele>65</ele>
        <time>2015-10-17T08:56:37Z</time>
      </trkpt>
      <trkpt lat="44.25476" lon="4.64771">
        <ele>64.6</ele>
        <time>2015-10-17T08:56:38Z</time>
      </trkpt>
      <trkpt lat="44.25475" lon="4.64768">
        <ele>64.6</ele>
        <time>2015-10-17T08:56:39Z</time>
      </trkpt>
      <trkpt lat="44.25475" lon="4.64765">
        <ele>64.1</ele>
        <time>2015-10-17T08:56:40Z</time>
      </trkpt>
      <trkpt lat="44.25476" lon="4.64762">
        <ele>63.6</ele>
        <time>2015-10-17T08:56:41Z</time>
      </trkpt>
      <trkpt lat="44.25476" lon="4.6476">
        <ele>63.6</ele>
        <time>2015-10-17T08:56:42Z</time>
      </trkpt>
      <trkpt lat="44.25475" lon="4.64757">
        <ele>63.1</ele>
        <time>2015-10-17T08:56:56Z</time>
      </trkpt>
      <trkpt lat="44.25475" lon="4.64757">
        <ele>63.6</ele>
        <time>2015-10-17T08:57:23Z</time>
      </trkpt>
      <trkpt lat="44.2547" lon="4.64719">
        <ele>62.1</ele>
        <time>2015-10-17T08:57:32Z</time>
      </trkpt>
      <trkpt lat="44.25468" lon="4.64699">
        <ele>59.3</ele>
        <time>2015-10-17T08:57:43Z</time>
      </trkpt>
      <trkpt lat="44.25469" lon="4.64664">
        <ele>56.9</ele>
        <time>2015-10-17T08:57:52Z</time>
      </trkpt>
      <trkpt lat="44.2547" lon="4.6462">
        <ele>57.3</ele>
        <time>2015-10-17T08:58:04Z</time>
      </trkpt>
      <trkpt lat="44.2546" lon="4.64612">
        <ele>57.8</ele>
        <time>2015-10-17T08:58:07Z</time>
      </trkpt>
      <trkpt lat="44.25457" lon="4.64606">
        <ele>57.8</ele>
        <time>2015-10-17T08:58:08Z</time>
      </trkpt>
      <trkpt lat="44.25454" lon="4.64601">
        <ele>57.8</ele>
        <time>2015-10-17T08:58:09Z</time>
      </trkpt>
      <trkpt lat="44.2545" lon="4.64598">
        <ele>57.8</ele>
        <time>2015-10-17T08:58:10Z</time>
      </trkpt>
      <trkpt lat="44.25439" lon="4.64593">
        <ele>57.8</ele>
        <time>2015-10-17T08:58:12Z</time>
      </trkpt>
      <trkpt lat="44.25419" lon="4.64608">
        <ele>57.8</ele>
        <time>2015-10-17T08:58:19Z</time>
      </trkpt>
      <trkpt lat="44.2543" lon="4.64614">
        <ele>59.3</ele>
        <time>2015-10-17T08:58:22Z</time>
      </trkpt>
      <trkpt lat="44.25457" lon="4.6462">
        <ele>59.3</ele>
        <time>2015-10-17T08:58:33Z</time>
      </trkpt>
      <trkpt lat="44.25465" lon="4.64623">
        <ele>59.7</ele>
        <time>2015-10-17T08:58:57Z</time>
      </trkpt>
      <trkpt lat="44.25469" lon="4.64626">
        <ele>61.2</ele>
        <time>2015-10-17T08:59:01Z</time>
      </trkpt>
      <trkpt lat="44.25469" lon="4.64628">
        <ele>61.2</ele>
        <time>2015-10-17T08:59:02Z</time>
      </trkpt>
      <trkpt lat="44.2547" lon="4.64631">
        <ele>61.2</ele>
        <time>2015-10-17T08:59:03Z</time>
      </trkpt>
      <trkpt lat="44.25471" lon="4.64635">
        <ele>61.2</ele>
        <time>2015-10-17T08:59:04Z</time>
      </trkpt>
      <trkpt lat="44.25471" lon="4.6464">
        <ele>61.2</ele>
        <time>2015-10-17T08:59:05Z</time>
      </trkpt>
      <trkpt lat="44.2547" lon="4.64657">
        <ele>61.2</ele>
        <time>2015-10-17T08:59:16Z</time>
      </trkpt>
      <trkpt lat="44.25468" lon="4.64675">
        <ele>60.7</ele>
        <time>2015-10-17T08:59:25Z</time>
      </trkpt>
      <trkpt lat="44.25468" lon="4.64704">
        <ele>60.7</ele>
        <time>2015-10-17T08:59:37Z</time>
      </trkpt>
      <trkpt lat="44.2547" lon="4.64749">
        <ele>61.7</ele>
        <time>2015-10-17T08:59:49Z</time>
      </trkpt>
      <trkpt lat="44.25467" lon="4.6478">
        <ele>58.8</ele>
        <time>2015-10-17T09:01:13Z</time>
      </trkpt>
      <trkpt lat="44.25466" lon="4.64794">
        <ele>58.8</ele>
        <time>2015-10-17T09:01:15Z</time>
      </trkpt>
      <trkpt lat="44.25464" lon="4.648">
        <ele>59.3</ele>
        <time>2015-10-17T09:01:16Z</time>
      </trkpt>
      <trkpt lat="44.25461" lon="4.64806">
        <ele>59.7</ele>
        <time>2015-10-17T09:01:17Z</time>
      </trkpt>
      <trkpt lat="44.25459" lon="4.64811">
        <ele>59.7</ele>
        <time>2015-10-17T09:01:18Z</time>
      </trkpt>
      <trkpt lat="44.25456" lon="4.64818">
        <ele>59.7</ele>
        <time>2015-10-17T09:01:19Z</time>
      </trkpt>
      <trkpt lat="44.25453" lon="4.64825">
        <ele>59.7</ele>
        <time>2015-10-17T09:01:20Z</time>
      </trkpt>
      <trkpt lat="44.25438" lon="4.64919">
        <ele>60.7</ele>
        <time>2015-10-17T09:01:31Z</time>
      </trkpt>
      <trkpt lat="44.2542" lon="4.65048">
        <ele>58.3</ele>
        <time>2015-10-17T09:01:43Z</time>
      </trkpt>
      <trkpt lat="44.25421" lon="4.65057">
        <ele>57.8</ele>
        <time>2015-10-17T09:01:44Z</time>
      </trkpt>
      <trkpt lat="44.25422" lon="4.65067">
        <ele>57.3</ele>
        <time>2015-10-17T09:01:45Z</time>
      </trkpt>
      <trkpt lat="44.25442" lon="4.65192">
        <ele>52.1</ele>
        <time>2015-10-17T09:01:57Z</time>
      </trkpt>
      <trkpt lat="44.25442" lon="4.65203">
        <ele>51.6</ele>
        <time>2015-10-17T09:01:58Z</time>
      </trkpt>
      <trkpt lat="44.25441" lon="4.65213">
        <ele>51.1</ele>
        <time>2015-10-17T09:01:59Z</time>
      </trkpt>
      <trkpt lat="44.25438" lon="4.65239">
        <ele>50.6</ele>
        <time>2015-10-17T09:02:02Z</time>
      </trkpt>
      <trkpt lat="44.25438" lon="4.65245">
        <ele>50.1</ele>
        <time>2015-10-17T09:02:03Z</time>
      </trkpt>
      <trkpt lat="44.2544" lon="4.6525">
        <ele>50.1</ele>
        <time>2015-10-17T09:02:04Z</time>
      </trkpt>
      <trkpt lat="44.25443" lon="4.65253">
        <ele>49.7</ele>
        <time>2015-10-17T09:02:05Z</time>
      </trkpt>
      <trkpt lat="44.25448" lon="4.65253">
        <ele>49.7</ele>
        <time>2015-10-17T09:02:06Z</time>
      </trkpt>
      <trkpt lat="44.25454" lon="4.65252">
        <ele>49.2</ele>
        <time>2015-10-17T09:02:07Z</time>
      </trkpt>
      <trkpt lat="44.2554" lon="4.65233">
        <ele>46.3</ele>
        <time>2015-10-17T09:02:17Z</time>
      </trkpt>
      <trkpt lat="44.25623" lon="4.65199">
        <ele>45.8</ele>
        <time>2015-10-17T09:02:25Z</time>
      </trkpt>
      <trkpt lat="44.25714" lon="4.65149">
        <ele>45.3</ele>
        <time>2015-10-17T09:02:34Z</time>
      </trkpt>
      <trkpt lat="44.25817" lon="4.65068">
        <ele>47.2</ele>
        <time>2015-10-17T09:02:45Z</time>
      </trkpt>
      <trkpt lat="44.2584" lon="4.65049">
        <ele>47.2</ele>
        <time>2015-10-17T09:02:48Z</time>
      </trkpt>
      <trkpt lat="44.25844" lon="4.65043">
        <ele>46.8</ele>
        <time>2015-10-17T09:02:49Z</time>
      </trkpt>
      <trkpt lat="44.25845" lon="4.65035">
        <ele>46.8</ele>
        <time>2015-10-17T09:02:50Z</time>
      </trkpt>
      <trkpt lat="44.25843" lon="4.65026">
        <ele>47.2</ele>
        <time>2015-10-17T09:02:51Z</time>
      </trkpt>
      <trkpt lat="44.25841" lon="4.65015">
        <ele>47.2</ele>
        <time>2015-10-17T09:02:52Z</time>
      </trkpt>
      <trkpt lat="44.25839" lon="4.65005">
        <ele>46.3</ele>
        <time>2015-10-17T09:02:53Z</time>
      </trkpt>
      <trkpt lat="44.25836" lon="4.64995">
        <ele>46.3</ele>
        <time>2015-10-17T09:02:54Z</time>
      </trkpt>
      <trkpt lat="44.25835" lon="4.64984">
        <ele>46.3</ele>
        <time>2015-10-17T09:02:55Z</time>
      </trkpt>
      <trkpt lat="44.25834" lon="4.64974">
        <ele>46.8</ele>
        <time>2015-10-17T09:02:56Z</time>
      </trkpt>
      <trkpt lat="44.25828" lon="4.64907">
        <ele>51.1</ele>
        <time>2015-10-17T09:03:05Z</time>
      </trkpt>
      <trkpt lat="44.25825" lon="4.64905">
        <ele>51.6</ele>
        <time>2015-10-17T09:03:06Z</time>
      </trkpt>
      <trkpt lat="44.25822" lon="4.64905">
        <ele>52.1</ele>
        <time>2015-10-17T09:03:07Z</time>
      </trkpt>
      <trkpt lat="44.25805" lon="4.64911">
        <ele>54.9</ele>
        <time>2015-10-17T09:03:18Z</time>
      </trkpt>
      <trkpt lat="44.25814" lon="4.64915">
        <ele>72.2</ele>
        <time>2015-10-17T09:03:49Z</time>
      </trkpt>
      <trkpt lat="44.25812" lon="4.64916">
        <ele>42</ele>
        <time>2015-10-17T09:04:33Z</time>
      </trkpt>
      <trkpt lat="44.25811" lon="4.64916">
        <ele>50.1</ele>
        <time>2015-10-17T09:05:34Z</time>
      </trkpt>
      <trkpt lat="44.25823" lon="4.64925">
        <ele>92.9</ele>
        <time>2015-10-17T09:37:26Z</time>
      </trkpt>
      <trkpt lat="44.25816" lon="4.6492">
        <ele>85.2</ele>
        <time>2015-10-17T09:37:41Z</time>
      </trkpt>
      <trkpt lat="44.25812" lon="4.64912">
        <ele>64.1</ele>
        <time>2015-10-17T09:38:18Z</time>
      </trkpt>
      <trkpt lat="44.25808" lon="4.64909">
        <ele>54</ele>
        <time>2015-10-17T09:41:41Z</time>
      </trkpt>
      <trkpt lat="44.25815" lon="4.6491">
        <ele>52.5</ele>
        <time>2015-10-17T09:42:58Z</time>
      </trkpt>
      <trkpt lat="44.25826" lon="4.64917">
        <ele>51.6</ele>
        <time>2015-10-17T09:43:07Z</time>
      </trkpt>
      <trkpt lat="44.25836" lon="4.64893">
        <ele>53.5</ele>
        <time>2015-10-17T09:43:18Z</time>
      </trkpt>
      <trkpt lat="44.25844" lon="4.64898">
        <ele>54.5</ele>
        <time>2015-10-17T09:43:21Z</time>
      </trkpt>
      <trkpt lat="44.25846" lon="4.64905">
        <ele>54.5</ele>
        <time>2015-10-17T09:43:22Z</time>
      </trkpt>
      <trkpt lat="44.25848" lon="4.64913">
        <ele>54.5</ele>
        <time>2015-10-17T09:43:23Z</time>
      </trkpt>
      <trkpt lat="44.25849" lon="4.64923">
        <ele>54.5</ele>
        <time>2015-10-17T09:43:24Z</time>
      </trkpt>
      <trkpt lat="44.25871" lon="4.65014">
        <ele>53.5</ele>
        <time>2015-10-17T09:43:34Z</time>
      </trkpt>
      <trkpt lat="44.25906" lon="4.65152">
        <ele>54</ele>
        <time>2015-10-17T09:43:48Z</time>
      </trkpt>
      <trkpt lat="44.25958" lon="4.6534">
        <ele>55.4</ele>
        <time>2015-10-17T09:44:02Z</time>
      </trkpt>
      <trkpt lat="44.26023" lon="4.65579">
        <ele>56.4</ele>
        <time>2015-10-17T09:44:16Z</time>
      </trkpt>
      <trkpt lat="44.26048" lon="4.6571">
        <ele>56.4</ele>
        <time>2015-10-17T09:44:24Z</time>
      </trkpt>
      <trkpt lat="44.26061" lon="4.65964">
        <ele>55.4</ele>
        <time>2015-10-17T09:44:38Z</time>
      </trkpt>
      <trkpt lat="44.26065" lon="4.66">
        <ele>54</ele>
        <time>2015-10-17T09:44:40Z</time>
      </trkpt>
      <trkpt lat="44.26069" lon="4.66017">
        <ele>53.5</ele>
        <time>2015-10-17T09:44:41Z</time>
      </trkpt>
      <trkpt lat="44.26105" lon="4.66175">
        <ele>47.7</ele>
        <time>2015-10-17T09:44:52Z</time>
      </trkpt>
      <trkpt lat="44.26106" lon="4.66189">
        <ele>46.3</ele>
        <time>2015-10-17T09:44:59Z</time>
      </trkpt>
      <trkpt lat="44.26107" lon="4.66212">
        <ele>47.2</ele>
        <time>2015-10-17T09:45:13Z</time>
      </trkpt>
      <trkpt lat="44.261" lon="4.66247">
        <ele>48.7</ele>
        <time>2015-10-17T09:45:27Z</time>
      </trkpt>
      <trkpt lat="44.26095" lon="4.66253">
        <ele>48.7</ele>
        <time>2015-10-17T09:45:32Z</time>
      </trkpt>
      <trkpt lat="44.26089" lon="4.66258">
        <ele>48.7</ele>
        <time>2015-10-17T09:45:33Z</time>
      </trkpt>
      <trkpt lat="44.26081" lon="4.66265">
        <ele>48.2</ele>
        <time>2015-10-17T09:45:34Z</time>
      </trkpt>
      <trkpt lat="44.26075" lon="4.66275">
        <ele>48.2</ele>
        <time>2015-10-17T09:45:35Z</time>
      </trkpt>
      <trkpt lat="44.2607" lon="4.66287">
        <ele>47.7</ele>
        <time>2015-10-17T09:45:36Z</time>
      </trkpt>
      <trkpt lat="44.26071" lon="4.66302">
        <ele>46.8</ele>
        <time>2015-10-17T09:45:37Z</time>
      </trkpt>
      <trkpt lat="44.26075" lon="4.66316">
        <ele>46.3</ele>
        <time>2015-10-17T09:45:38Z</time>
      </trkpt>
      <trkpt lat="44.26082" lon="4.66326">
        <ele>46.3</ele>
        <time>2015-10-17T09:45:39Z</time>
      </trkpt>
      <trkpt lat="44.26091" lon="4.66332">
        <ele>46.3</ele>
        <time>2015-10-17T09:45:40Z</time>
      </trkpt>
      <trkpt lat="44.26101" lon="4.66335">
        <ele>46.3</ele>
        <time>2015-10-17T09:45:41Z</time>
      </trkpt>
      <trkpt lat="44.26112" lon="4.66336">
        <ele>45.8</ele>
        <time>2015-10-17T09:45:42Z</time>
      </trkpt>
      <trkpt lat="44.26123" lon="4.6634">
        <ele>45.8</ele>
        <time>2015-10-17T09:45:43Z</time>
      </trkpt>
      <trkpt lat="44.26133" lon="4.66349">
        <ele>44.8</ele>
        <time>2015-10-17T09:45:44Z</time>
      </trkpt>
      <trkpt lat="44.26142" lon="4.66362">
        <ele>44.4</ele>
        <time>2015-10-17T09:45:45Z</time>
      </trkpt>
      <trkpt lat="44.26149" lon="4.66377">
        <ele>44.8</ele>
        <time>2015-10-17T09:45:46Z</time>
      </trkpt>
      <trkpt lat="44.26155" lon="4.66392">
        <ele>44.8</ele>
        <time>2015-10-17T09:45:47Z</time>
      </trkpt>
      <trkpt lat="44.26161" lon="4.66409">
        <ele>44.8</ele>
        <time>2015-10-17T09:45:48Z</time>
      </trkpt>
      <trkpt lat="44.26201" lon="4.66568">
        <ele>45.3</ele>
        <time>2015-10-17T09:45:56Z</time>
      </trkpt>
      <trkpt lat="44.26264" lon="4.66835">
        <ele>46.8</ele>
        <time>2015-10-17T09:46:08Z</time>
      </trkpt>
      <trkpt lat="44.26326" lon="4.67095">
        <ele>45.3</ele>
        <time>2015-10-17T09:46:19Z</time>
      </trkpt>
      <trkpt lat="44.26428" lon="4.67525">
        <ele>44.4</ele>
        <time>2015-10-17T09:46:35Z</time>
      </trkpt>
      <trkpt lat="44.26471" lon="4.67708">
        <ele>44.8</ele>
        <time>2015-10-17T09:46:43Z</time>
      </trkpt>
      <trkpt lat="44.26512" lon="4.67869">
        <ele>44.8</ele>
        <time>2015-10-17T09:46:52Z</time>
      </trkpt>
      <trkpt lat="44.26517" lon="4.67881">
        <ele>44.8</ele>
        <time>2015-10-17T09:46:53Z</time>
      </trkpt>
      <trkpt lat="44.26523" lon="4.67893">
        <ele>44.8</ele>
        <time>2015-10-17T09:46:54Z</time>
      </trkpt>
      <trkpt lat="44.26557" lon="4.6794">
        <ele>46.3</ele>
        <time>2015-10-17T09:47:01Z</time>
      </trkpt>
      <trkpt lat="44.26564" lon="4.67949">
        <ele>46.8</ele>
        <time>2015-10-17T09:47:03Z</time>
      </trkpt>
      <trkpt lat="44.26566" lon="4.67956">
        <ele>46.8</ele>
        <time>2015-10-17T09:47:04Z</time>
      </trkpt>
      <trkpt lat="44.26568" lon="4.67965">
        <ele>46.8</ele>
        <time>2015-10-17T09:47:05Z</time>
      </trkpt>
      <trkpt lat="44.26568" lon="4.67975">
        <ele>46.8</ele>
        <time>2015-10-17T09:47:06Z</time>
      </trkpt>
      <trkpt lat="44.26567" lon="4.67987">
        <ele>46.8</ele>
        <time>2015-10-17T09:47:07Z</time>
      </trkpt>
      <trkpt lat="44.26567" lon="4.68">
        <ele>46.8</ele>
        <time>2015-10-17T09:47:08Z</time>
      </trkpt>
      <trkpt lat="44.26568" lon="4.68012">
        <ele>46.8</ele>
        <time>2015-10-17T09:47:09Z</time>
      </trkpt>
      <trkpt lat="44.26573" lon="4.68024">
        <ele>47.2</ele>
        <time>2015-10-17T09:47:10Z</time>
      </trkpt>
      <trkpt lat="44.2658" lon="4.68034">
        <ele>47.2</ele>
        <time>2015-10-17T09:47:11Z</time>
      </trkpt>
      <trkpt lat="44.2659" lon="4.6804">
        <ele>47.2</ele>
        <time>2015-10-17T09:47:12Z</time>
      </trkpt>
      <trkpt lat="44.26602" lon="4.68041">
        <ele>47.7</ele>
        <time>2015-10-17T09:47:13Z</time>
      </trkpt>
      <trkpt lat="44.26613" lon="4.68039">
        <ele>47.2</ele>
        <time>2015-10-17T09:47:14Z</time>
      </trkpt>
      <trkpt lat="44.26624" lon="4.68037">
        <ele>47.2</ele>
        <time>2015-10-17T09:47:15Z</time>
      </trkpt>
      <trkpt lat="44.26636" lon="4.68039">
        <ele>47.2</ele>
        <time>2015-10-17T09:47:16Z</time>
      </trkpt>
      <trkpt lat="44.26648" lon="4.68046">
        <ele>47.2</ele>
        <time>2015-10-17T09:47:17Z</time>
      </trkpt>
      <trkpt lat="44.26659" lon="4.68058">
        <ele>47.2</ele>
        <time>2015-10-17T09:47:18Z</time>
      </trkpt>
      <trkpt lat="44.26699" lon="4.68093">
        <ele>46.8</ele>
        <time>2015-10-17T09:47:21Z</time>
      </trkpt>
      <trkpt lat="44.26715" lon="4.68101">
        <ele>46.8</ele>
        <time>2015-10-17T09:47:22Z</time>
      </trkpt>
      <trkpt lat="44.26733" lon="4.68108">
        <ele>46.8</ele>
        <time>2015-10-17T09:47:23Z</time>
      </trkpt>
      <trkpt lat="44.26751" lon="4.68113">
        <ele>46.8</ele>
        <time>2015-10-17T09:47:24Z</time>
      </trkpt>
      <trkpt lat="44.26771" lon="4.68117">
        <ele>46.8</ele>
        <time>2015-10-17T09:47:25Z</time>
      </trkpt>
      <trkpt lat="44.27038" lon="4.68161">
        <ele>47.2</ele>
        <time>2015-10-17T09:47:38Z</time>
      </trkpt>
      <trkpt lat="44.27271" lon="4.68211">
        <ele>47.2</ele>
        <time>2015-10-17T09:47:50Z</time>
      </trkpt>
      <trkpt lat="44.27524" lon="4.68301">
        <ele>50.6</ele>
        <time>2015-10-17T09:48:04Z</time>
      </trkpt>
      <trkpt lat="44.278" lon="4.68365">
        <ele>48.2</ele>
        <time>2015-10-17T09:48:19Z</time>
      </trkpt>
      <trkpt lat="44.28036" lon="4.68434">
        <ele>47.7</ele>
        <time>2015-10-17T09:48:32Z</time>
      </trkpt>
      <trkpt lat="44.28374" lon="4.68537">
        <ele>47.7</ele>
        <time>2015-10-17T09:48:48Z</time>
      </trkpt>
      <trkpt lat="44.28556" lon="4.68626">
        <ele>48.2</ele>
        <time>2015-10-17T09:48:56Z</time>
      </trkpt>
      <trkpt lat="44.28811" lon="4.68806">
        <ele>49.7</ele>
        <time>2015-10-17T09:49:08Z</time>
      </trkpt>
      <trkpt lat="44.29008" lon="4.68841">
        <ele>51.1</ele>
        <time>2015-10-17T09:49:16Z</time>
      </trkpt>
      <trkpt lat="44.29292" lon="4.68907">
        <ele>51.1</ele>
        <time>2015-10-17T09:49:28Z</time>
      </trkpt>
      <trkpt lat="44.29432" lon="4.68951">
        <ele>51.6</ele>
        <time>2015-10-17T09:49:36Z</time>
      </trkpt>
      <trkpt lat="44.29494" lon="4.68966">
        <ele>51.1</ele>
        <time>2015-10-17T09:49:40Z</time>
      </trkpt>
      <trkpt lat="44.2951" lon="4.68965">
        <ele>51.1</ele>
        <time>2015-10-17T09:49:41Z</time>
      </trkpt>
      <trkpt lat="44.29526" lon="4.68961">
        <ele>50.6</ele>
        <time>2015-10-17T09:49:42Z</time>
      </trkpt>
      <trkpt lat="44.29542" lon="4.68953">
        <ele>50.6</ele>
        <time>2015-10-17T09:49:43Z</time>
      </trkpt>
      <trkpt lat="44.29556" lon="4.68943">
        <ele>50.1</ele>
        <time>2015-10-17T09:49:44Z</time>
      </trkpt>
      <trkpt lat="44.2957" lon="4.68932">
        <ele>50.1</ele>
        <time>2015-10-17T09:49:45Z</time>
      </trkpt>
      <trkpt lat="44.29646" lon="4.68873">
        <ele>53</ele>
        <time>2015-10-17T09:49:51Z</time>
      </trkpt>
      <trkpt lat="44.29657" lon="4.68869">
        <ele>53</ele>
        <time>2015-10-17T09:49:52Z</time>
      </trkpt>
      <trkpt lat="44.29668" lon="4.68867">
        <ele>54</ele>
        <time>2015-10-17T09:49:53Z</time>
      </trkpt>
      <trkpt lat="44.29678" lon="4.68869">
        <ele>54</ele>
        <time>2015-10-17T09:49:54Z</time>
      </trkpt>
      <trkpt lat="44.29686" lon="4.68874">
        <ele>54.5</ele>
        <time>2015-10-17T09:49:55Z</time>
      </trkpt>
      <trkpt lat="44.29694" lon="4.68881">
        <ele>54.5</ele>
        <time>2015-10-17T09:49:56Z</time>
      </trkpt>
      <trkpt lat="44.297" lon="4.68892">
        <ele>54.5</ele>
        <time>2015-10-17T09:49:57Z</time>
      </trkpt>
      <trkpt lat="44.29701" lon="4.68909">
        <ele>54.9</ele>
        <time>2015-10-17T09:49:58Z</time>
      </trkpt>
      <trkpt lat="44.29703" lon="4.68926">
        <ele>54.9</ele>
        <time>2015-10-17T09:49:59Z</time>
      </trkpt>
      <trkpt lat="44.29705" lon="4.68943">
        <ele>55.4</ele>
        <time>2015-10-17T09:50:00Z</time>
      </trkpt>
      <trkpt lat="44.29712" lon="4.68978">
        <ele>55.9</ele>
        <time>2015-10-17T09:50:02Z</time>
      </trkpt>
      <trkpt lat="44.29717" lon="4.68996">
        <ele>55.9</ele>
        <time>2015-10-17T09:50:03Z</time>
      </trkpt>
      <trkpt lat="44.29723" lon="4.69012">
        <ele>55.9</ele>
        <time>2015-10-17T09:50:04Z</time>
      </trkpt>
      <trkpt lat="44.29731" lon="4.69027">
        <ele>55.9</ele>
        <time>2015-10-17T09:50:05Z</time>
      </trkpt>
      <trkpt lat="44.2974" lon="4.69041">
        <ele>56.4</ele>
        <time>2015-10-17T09:50:06Z</time>
      </trkpt>
      <trkpt lat="44.2975" lon="4.69053">
        <ele>56.4</ele>
        <time>2015-10-17T09:50:07Z</time>
      </trkpt>
      <trkpt lat="44.2976" lon="4.69063">
        <ele>56.4</ele>
        <time>2015-10-17T09:50:08Z</time>
      </trkpt>
      <trkpt lat="44.29771" lon="4.69071">
        <ele>56.4</ele>
        <time>2015-10-17T09:50:09Z</time>
      </trkpt>
      <trkpt lat="44.29781" lon="4.6908">
        <ele>55.9</ele>
        <time>2015-10-17T09:50:10Z</time>
      </trkpt>
      <trkpt lat="44.2979" lon="4.69092">
        <ele>55.9</ele>
        <time>2015-10-17T09:50:11Z</time>
      </trkpt>
      <trkpt lat="44.29796" lon="4.69108">
        <ele>55.4</ele>
        <time>2015-10-17T09:50:12Z</time>
      </trkpt>
      <trkpt lat="44.29799" lon="4.69128">
        <ele>55.4</ele>
        <time>2015-10-17T09:50:13Z</time>
      </trkpt>
      <trkpt lat="44.29801" lon="4.69149">
        <ele>55.4</ele>
        <time>2015-10-17T09:50:14Z</time>
      </trkpt>
      <trkpt lat="44.29804" lon="4.69171">
        <ele>54.9</ele>
        <time>2015-10-17T09:50:15Z</time>
      </trkpt>
      <trkpt lat="44.29834" lon="4.69409">
        <ele>52.1</ele>
        <time>2015-10-17T09:50:24Z</time>
      </trkpt>
      <trkpt lat="44.2987" lon="4.69691">
        <ele>54</ele>
        <time>2015-10-17T09:50:33Z</time>
      </trkpt>
      <trkpt lat="44.29928" lon="4.70183">
        <ele>60.2</ele>
        <time>2015-10-17T09:50:49Z</time>
      </trkpt>
      <trkpt lat="44.29957" lon="4.70517">
        <ele>58.3</ele>
        <time>2015-10-17T09:51:01Z</time>
      </trkpt>
      <trkpt lat="44.29944" lon="4.7061">
        <ele>55.4</ele>
        <time>2015-10-17T09:51:05Z</time>
      </trkpt>
      <trkpt lat="44.29938" lon="4.7063">
        <ele>54.9</ele>
        <time>2015-10-17T09:51:06Z</time>
      </trkpt>
      <trkpt lat="44.29925" lon="4.70667">
        <ele>53.5</ele>
        <time>2015-10-17T09:51:08Z</time>
      </trkpt>
      <trkpt lat="44.29917" lon="4.70682">
        <ele>52.5</ele>
        <time>2015-10-17T09:51:09Z</time>
      </trkpt>
      <trkpt lat="44.29903" lon="4.70689">
        <ele>52.1</ele>
        <time>2015-10-17T09:51:10Z</time>
      </trkpt>
      <trkpt lat="44.29889" lon="4.70693">
        <ele>51.6</ele>
        <time>2015-10-17T09:51:11Z</time>
      </trkpt>
      <trkpt lat="44.29874" lon="4.70691">
        <ele>51.1</ele>
        <time>2015-10-17T09:51:12Z</time>
      </trkpt>
      <trkpt lat="44.29861" lon="4.70684">
        <ele>50.6</ele>
        <time>2015-10-17T09:51:13Z</time>
      </trkpt>
      <trkpt lat="44.29848" lon="4.70671">
        <ele>50.1</ele>
        <time>2015-10-17T09:51:14Z</time>
      </trkpt>
      <trkpt lat="44.29839" lon="4.70653">
        <ele>50.1</ele>
        <time>2015-10-17T09:51:15Z</time>
      </trkpt>
      <trkpt lat="44.29834" lon="4.70633">
        <ele>49.7</ele>
        <time>2015-10-17T09:51:16Z</time>
      </trkpt>
      <trkpt lat="44.29834" lon="4.70611">
        <ele>49.2</ele>
        <time>2015-10-17T09:51:17Z</time>
      </trkpt>
      <trkpt lat="44.29837" lon="4.70591">
        <ele>48.7</ele>
        <time>2015-10-17T09:51:18Z</time>
      </trkpt>
      <trkpt lat="44.29848" lon="4.70574">
        <ele>48.7</ele>
        <time>2015-10-17T09:51:19Z</time>
      </trkpt>
      <trkpt lat="44.29862" lon="4.70559">
        <ele>48.7</ele>
        <time>2015-10-17T09:51:20Z</time>
      </trkpt>
      <trkpt lat="44.29878" lon="4.70547">
        <ele>48.2</ele>
        <time>2015-10-17T09:51:21Z</time>
      </trkpt>
      <trkpt lat="44.29898" lon="4.70542">
        <ele>48.7</ele>
        <time>2015-10-17T09:51:22Z</time>
      </trkpt>
      <trkpt lat="44.29918" lon="4.70541">
        <ele>49.2</ele>
        <time>2015-10-17T09:51:23Z</time>
      </trkpt>
      <trkpt lat="44.29938" lon="4.70543">
        <ele>49.2</ele>
        <time>2015-10-17T09:51:24Z</time>
      </trkpt>
      <trkpt lat="44.29957" lon="4.70546">
        <ele>49.2</ele>
        <time>2015-10-17T09:51:25Z</time>
      </trkpt>
      <trkpt lat="44.30162" lon="4.70574">
        <ele>50.6</ele>
        <time>2015-10-17T09:51:36Z</time>
      </trkpt>
      <trkpt lat="44.30422" lon="4.7061">
        <ele>51.1</ele>
        <time>2015-10-17T09:51:48Z</time>
      </trkpt>
      <trkpt lat="44.30905" lon="4.70678">
        <ele>51.6</ele>
        <time>2015-10-17T09:52:10Z</time>
      </trkpt>
      <trkpt lat="44.31238" lon="4.70739">
        <ele>52.1</ele>
        <time>2015-10-17T09:52:25Z</time>
      </trkpt>
      <trkpt lat="44.31495" lon="4.7077">
        <ele>52.5</ele>
        <time>2015-10-17T09:52:36Z</time>
      </trkpt>
      <trkpt lat="44.31689" lon="4.70761">
        <ele>53</ele>
        <time>2015-10-17T09:52:45Z</time>
      </trkpt>
      <trkpt lat="44.31839" lon="4.70795">
        <ele>53.5</ele>
        <time>2015-10-17T09:52:53Z</time>
      </trkpt>
      <trkpt lat="44.31881" lon="4.70814">
        <ele>54</ele>
        <time>2015-10-17T09:52:56Z</time>
      </trkpt>
      <trkpt lat="44.3189" lon="4.70825">
        <ele>54</ele>
        <time>2015-10-17T09:52:57Z</time>
      </trkpt>
      <trkpt lat="44.31899" lon="4.70837">
        <ele>54</ele>
        <time>2015-10-17T09:52:58Z</time>
      </trkpt>
      <trkpt lat="44.3192" lon="4.70868">
        <ele>53.5</ele>
        <time>2015-10-17T09:53:00Z</time>
      </trkpt>
      <trkpt lat="44.3193" lon="4.70886">
        <ele>53.5</ele>
        <time>2015-10-17T09:53:01Z</time>
      </trkpt>
      <trkpt lat="44.31987" lon="4.71041">
        <ele>53</ele>
        <time>2015-10-17T09:53:08Z</time>
      </trkpt>
      <trkpt lat="44.32005" lon="4.71232">
        <ele>52.5</ele>
        <time>2015-10-17T09:53:15Z</time>
      </trkpt>
      <trkpt lat="44.3201" lon="4.7159">
        <ele>52.5</ele>
        <time>2015-10-17T09:53:26Z</time>
      </trkpt>
      <trkpt lat="44.32016" lon="4.72185">
        <ele>52.5</ele>
        <time>2015-10-17T09:53:43Z</time>
      </trkpt>
      <trkpt lat="44.32022" lon="4.72649">
        <ele>53</ele>
        <time>2015-10-17T09:53:57Z</time>
      </trkpt>
      <trkpt lat="44.32035" lon="4.72913">
        <ele>54</ele>
        <time>2015-10-17T09:54:06Z</time>
      </trkpt>
      <trkpt lat="44.32042" lon="4.72937">
        <ele>54.5</ele>
        <time>2015-10-17T09:54:07Z</time>
      </trkpt>
      <trkpt lat="44.32067" lon="4.73017">
        <ele>55.9</ele>
        <time>2015-10-17T09:54:12Z</time>
      </trkpt>
      <trkpt lat="44.32067" lon="4.7303">
        <ele>55.9</ele>
        <time>2015-10-17T09:54:13Z</time>
      </trkpt>
      <trkpt lat="44.32066" lon="4.73042">
        <ele>56.4</ele>
        <time>2015-10-17T09:54:14Z</time>
      </trkpt>
      <trkpt lat="44.32067" lon="4.73054">
        <ele>56.4</ele>
        <time>2015-10-17T09:54:15Z</time>
      </trkpt>
      <trkpt lat="44.32071" lon="4.73064">
        <ele>55.9</ele>
        <time>2015-10-17T09:54:16Z</time>
      </trkpt>
      <trkpt lat="44.32077" lon="4.73072">
        <ele>55.9</ele>
        <time>2015-10-17T09:54:17Z</time>
      </trkpt>
      <trkpt lat="44.32086" lon="4.73076">
        <ele>55.9</ele>
        <time>2015-10-17T09:54:18Z</time>
      </trkpt>
      <trkpt lat="44.32096" lon="4.73078">
        <ele>55.9</ele>
        <time>2015-10-17T09:54:19Z</time>
      </trkpt>
      <trkpt lat="44.32106" lon="4.7308">
        <ele>56.4</ele>
        <time>2015-10-17T09:54:20Z</time>
      </trkpt>
      <trkpt lat="44.32118" lon="4.73085">
        <ele>56.4</ele>
        <time>2015-10-17T09:54:21Z</time>
      </trkpt>
      <trkpt lat="44.32129" lon="4.73092">
        <ele>56.4</ele>
        <time>2015-10-17T09:54:22Z</time>
      </trkpt>
      <trkpt lat="44.32141" lon="4.73103">
        <ele>56.4</ele>
        <time>2015-10-17T09:54:23Z</time>
      </trkpt>
      <trkpt lat="44.32152" lon="4.73116">
        <ele>56.4</ele>
        <time>2015-10-17T09:54:24Z</time>
      </trkpt>
      <trkpt lat="44.32163" lon="4.73132">
        <ele>56.4</ele>
        <time>2015-10-17T09:54:25Z</time>
      </trkpt>
      <trkpt lat="44.32172" lon="4.7315">
        <ele>56.4</ele>
        <time>2015-10-17T09:54:26Z</time>
      </trkpt>
      <trkpt lat="44.32182" lon="4.73169">
        <ele>55.9</ele>
        <time>2015-10-17T09:54:27Z</time>
      </trkpt>
      <trkpt lat="44.32259" lon="4.73376">
        <ele>59.7</ele>
        <time>2015-10-17T09:54:36Z</time>
      </trkpt>
      <trkpt lat="44.32296" lon="4.73568">
        <ele>68.4</ele>
        <time>2015-10-17T09:54:44Z</time>
      </trkpt>
      <trkpt lat="44.32343" lon="4.73868">
        <ele>73.7</ele>
        <time>2015-10-17T09:54:59Z</time>
      </trkpt>
      <trkpt lat="44.32376" lon="4.74089">
        <ele>63.1</ele>
        <time>2015-10-17T09:55:12Z</time>
      </trkpt>
      <trkpt lat="44.32375" lon="4.74103">
        <ele>58.8</ele>
        <time>2015-10-17T09:55:33Z</time>
      </trkpt>
      <trkpt lat="44.32373" lon="4.74112">
        <ele>58.8</ele>
        <time>2015-10-17T09:55:39Z</time>
      </trkpt>
      <trkpt lat="44.3237" lon="4.7412">
        <ele>58.8</ele>
        <time>2015-10-17T09:55:40Z</time>
      </trkpt>
      <trkpt lat="44.32367" lon="4.7413">
        <ele>58.8</ele>
        <time>2015-10-17T09:55:41Z</time>
      </trkpt>
      <trkpt lat="44.32366" lon="4.74143">
        <ele>58.8</ele>
        <time>2015-10-17T09:55:42Z</time>
      </trkpt>
      <trkpt lat="44.32368" lon="4.74155">
        <ele>58.3</ele>
        <time>2015-10-17T09:55:43Z</time>
      </trkpt>
      <trkpt lat="44.32373" lon="4.74165">
        <ele>58.3</ele>
        <time>2015-10-17T09:55:44Z</time>
      </trkpt>
      <trkpt lat="44.3238" lon="4.74171">
        <ele>58.3</ele>
        <time>2015-10-17T09:55:45Z</time>
      </trkpt>
      <trkpt lat="44.32389" lon="4.74175">
        <ele>58.3</ele>
        <time>2015-10-17T09:55:46Z</time>
      </trkpt>
      <trkpt lat="44.32398" lon="4.74174">
        <ele>58.3</ele>
        <time>2015-10-17T09:55:47Z</time>
      </trkpt>
      <trkpt lat="44.32408" lon="4.74167">
        <ele>58.8</ele>
        <time>2015-10-17T09:55:48Z</time>
      </trkpt>
      <trkpt lat="44.32417" lon="4.74158">
        <ele>58.8</ele>
        <time>2015-10-17T09:55:49Z</time>
      </trkpt>
      <trkpt lat="44.32428" lon="4.74151">
        <ele>58.8</ele>
        <time>2015-10-17T09:55:50Z</time>
      </trkpt>
      <trkpt lat="44.32441" lon="4.74145">
        <ele>58.8</ele>
        <time>2015-10-17T09:55:51Z</time>
      </trkpt>
      <trkpt lat="44.32455" lon="4.74139">
        <ele>59.3</ele>
        <time>2015-10-17T09:55:52Z</time>
      </trkpt>
      <trkpt lat="44.32601" lon="4.74076">
        <ele>60.2</ele>
        <time>2015-10-17T09:56:01Z</time>
      </trkpt>
      <trkpt lat="44.32802" lon="4.73996">
        <ele>62.1</ele>
        <time>2015-10-17T09:56:11Z</time>
      </trkpt>
      <trkpt lat="44.32973" lon="4.73966">
        <ele>62.6</ele>
        <time>2015-10-17T09:56:18Z</time>
      </trkpt>
      <trkpt lat="44.33342" lon="4.73925">
        <ele>63.1</ele>
        <time>2015-10-17T09:56:33Z</time>
      </trkpt>
      <trkpt lat="44.33643" lon="4.73916">
        <ele>64.1</ele>
        <time>2015-10-17T09:56:45Z</time>
      </trkpt>
      <trkpt lat="44.33744" lon="4.73951">
        <ele>65</ele>
        <time>2015-10-17T09:56:51Z</time>
      </trkpt>
      <trkpt lat="44.33755" lon="4.73955">
        <ele>65.5</ele>
        <time>2015-10-17T09:56:52Z</time>
      </trkpt>
      <trkpt lat="44.33767" lon="4.73951">
        <ele>65.5</ele>
        <time>2015-10-17T09:56:53Z</time>
      </trkpt>
      <trkpt lat="44.3378" lon="4.73945">
        <ele>65.5</ele>
        <time>2015-10-17T09:56:54Z</time>
      </trkpt>
      <trkpt lat="44.33796" lon="4.7394">
        <ele>66</ele>
        <time>2015-10-17T09:56:55Z</time>
      </trkpt>
      <trkpt lat="44.33815" lon="4.73939">
        <ele>66.5</ele>
        <time>2015-10-17T09:56:56Z</time>
      </trkpt>
      <trkpt lat="44.33834" lon="4.73941">
        <ele>66.5</ele>
        <time>2015-10-17T09:56:57Z</time>
      </trkpt>
      <trkpt lat="44.33853" lon="4.73945">
        <ele>66.5</ele>
        <time>2015-10-17T09:56:58Z</time>
      </trkpt>
      <trkpt lat="44.34015" lon="4.73945">
        <ele>65</ele>
        <time>2015-10-17T09:57:06Z</time>
      </trkpt>
      <trkpt lat="44.34298" lon="4.73921">
        <ele>64.1</ele>
        <time>2015-10-17T09:57:19Z</time>
      </trkpt>
      <trkpt lat="44.34699" lon="4.73886">
        <ele>65</ele>
        <time>2015-10-17T09:57:36Z</time>
      </trkpt>
      <trkpt lat="44.35141" lon="4.7385">
        <ele>64.6</ele>
        <time>2015-10-17T09:57:54Z</time>
      </trkpt>
      <trkpt lat="44.35296" lon="4.73868">
        <ele>65</ele>
        <time>2015-10-17T09:58:01Z</time>
      </trkpt>
      <trkpt lat="44.35364" lon="4.73884">
        <ele>65.5</ele>
        <time>2015-10-17T09:58:07Z</time>
      </trkpt>
      <trkpt lat="44.35368" lon="4.73888">
        <ele>65.5</ele>
        <time>2015-10-17T09:58:09Z</time>
      </trkpt>
      <trkpt lat="44.35373" lon="4.73893">
        <ele>65</ele>
        <time>2015-10-17T09:58:10Z</time>
      </trkpt>
      <trkpt lat="44.35379" lon="4.73898">
        <ele>64.6</ele>
        <time>2015-10-17T09:58:11Z</time>
      </trkpt>
      <trkpt lat="44.35388" lon="4.73901">
        <ele>64.6</ele>
        <time>2015-10-17T09:58:12Z</time>
      </trkpt>
      <trkpt lat="44.35398" lon="4.73899">
        <ele>64.1</ele>
        <time>2015-10-17T09:58:13Z</time>
      </trkpt>
      <trkpt lat="44.35409" lon="4.73896">
        <ele>64.1</ele>
        <time>2015-10-17T09:58:14Z</time>
      </trkpt>
      <trkpt lat="44.35423" lon="4.73895">
        <ele>64.1</ele>
        <time>2015-10-17T09:58:15Z</time>
      </trkpt>
      <trkpt lat="44.35438" lon="4.73895">
        <ele>63.6</ele>
        <time>2015-10-17T09:58:16Z</time>
      </trkpt>
      <trkpt lat="44.35584" lon="4.73911">
        <ele>63.1</ele>
        <time>2015-10-17T09:58:24Z</time>
      </trkpt>
      <trkpt lat="44.35878" lon="4.73957">
        <ele>63.6</ele>
        <time>2015-10-17T09:58:38Z</time>
      </trkpt>
      <trkpt lat="44.36215" lon="4.73992">
        <ele>65</ele>
        <time>2015-10-17T09:58:53Z</time>
      </trkpt>
      <trkpt lat="44.36399" lon="4.73996">
        <ele>66.5</ele>
        <time>2015-10-17T09:59:02Z</time>
      </trkpt>
      <trkpt lat="44.3645" lon="4.73996">
        <ele>67</ele>
        <time>2015-10-17T09:59:06Z</time>
      </trkpt>
      <trkpt lat="44.36459" lon="4.73999">
        <ele>67.4</ele>
        <time>2015-10-17T09:59:07Z</time>
      </trkpt>
      <trkpt lat="44.36477" lon="4.74007">
        <ele>67.4</ele>
        <time>2015-10-17T09:59:09Z</time>
      </trkpt>
      <trkpt lat="44.36487" lon="4.74005">
        <ele>67.4</ele>
        <time>2015-10-17T09:59:10Z</time>
      </trkpt>
      <trkpt lat="44.36498" lon="4.73998">
        <ele>67.4</ele>
        <time>2015-10-17T09:59:11Z</time>
      </trkpt>
      <trkpt lat="44.3651" lon="4.73993">
        <ele>67.4</ele>
        <time>2015-10-17T09:59:12Z</time>
      </trkpt>
      <trkpt lat="44.36523" lon="4.73991">
        <ele>67.9</ele>
        <time>2015-10-17T09:59:13Z</time>
      </trkpt>
      <trkpt lat="44.36538" lon="4.73991">
        <ele>67.9</ele>
        <time>2015-10-17T09:59:14Z</time>
      </trkpt>
      <trkpt lat="44.36654" lon="4.74002">
        <ele>69.4</ele>
        <time>2015-10-17T09:59:23Z</time>
      </trkpt>
      <trkpt lat="44.3678" lon="4.74016">
        <ele>66.5</ele>
        <time>2015-10-17T09:59:33Z</time>
      </trkpt>
      <trkpt lat="44.36881" lon="4.74027">
        <ele>65.5</ele>
        <time>2015-10-17T09:59:37Z</time>
      </trkpt>
      <trkpt lat="44.37182" lon="4.74051">
        <ele>64.1</ele>
        <time>2015-10-17T09:59:48Z</time>
      </trkpt>
      <trkpt lat="44.37508" lon="4.74066">
        <ele>65.5</ele>
        <time>2015-10-17T10:00:01Z</time>
      </trkpt>
      <trkpt lat="44.37777" lon="4.74078">
        <ele>67</ele>
        <time>2015-10-17T10:00:12Z</time>
      </trkpt>
      <trkpt lat="44.38159" lon="4.74098">
        <ele>66.5</ele>
        <time>2015-10-17T10:00:28Z</time>
      </trkpt>
      <trkpt lat="44.38386" lon="4.7412">
        <ele>66.5</ele>
        <time>2015-10-17T10:00:39Z</time>
      </trkpt>
      <trkpt lat="44.38433" lon="4.74132">
        <ele>67.4</ele>
        <time>2015-10-17T10:00:44Z</time>
      </trkpt>
      <trkpt lat="44.3843" lon="4.74134">
        <ele>67.4</ele>
        <time>2015-10-17T10:00:50Z</time>
      </trkpt>
      <trkpt lat="44.38435" lon="4.74139">
        <ele>67.4</ele>
        <time>2015-10-17T10:00:56Z</time>
      </trkpt>
      <trkpt lat="44.3844" lon="4.74146">
        <ele>67</ele>
        <time>2015-10-17T10:00:57Z</time>
      </trkpt>
      <trkpt lat="44.38444" lon="4.74155">
        <ele>67</ele>
        <time>2015-10-17T10:00:58Z</time>
      </trkpt>
      <trkpt lat="44.38446" lon="4.74167">
        <ele>66.5</ele>
        <time>2015-10-17T10:00:59Z</time>
      </trkpt>
      <trkpt lat="44.38446" lon="4.74181">
        <ele>66.5</ele>
        <time>2015-10-17T10:01:00Z</time>
      </trkpt>
      <trkpt lat="44.38444" lon="4.74195">
        <ele>67</ele>
        <time>2015-10-17T10:01:01Z</time>
      </trkpt>
      <trkpt lat="44.38442" lon="4.7421">
        <ele>67</ele>
        <time>2015-10-17T10:01:02Z</time>
      </trkpt>
      <trkpt lat="44.38439" lon="4.74257">
        <ele>67</ele>
        <time>2015-10-17T10:01:05Z</time>
      </trkpt>
      <trkpt lat="44.38447" lon="4.74336">
        <ele>66.5</ele>
        <time>2015-10-17T10:01:09Z</time>
      </trkpt>
      <trkpt lat="44.38453" lon="4.74357">
        <ele>66.5</ele>
        <time>2015-10-17T10:01:10Z</time>
      </trkpt>
      <trkpt lat="44.38462" lon="4.74378">
        <ele>67</ele>
        <time>2015-10-17T10:01:11Z</time>
      </trkpt>
      <trkpt lat="44.38572" lon="4.74626">
        <ele>69.8</ele>
        <time>2015-10-17T10:01:22Z</time>
      </trkpt>
      <trkpt lat="44.38664" lon="4.74877">
        <ele>73.7</ele>
        <time>2015-10-17T10:01:33Z</time>
      </trkpt>
      <trkpt lat="44.38693" lon="4.74972">
        <ele>76.6</ele>
        <time>2015-10-17T10:01:37Z</time>
      </trkpt>
      <trkpt lat="44.38704" lon="4.74994">
        <ele>78</ele>
        <time>2015-10-17T10:01:38Z</time>
      </trkpt>
      <trkpt lat="44.38785" lon="4.75162">
        <ele>90</ele>
        <time>2015-10-17T10:01:46Z</time>
      </trkpt>
      <trkpt lat="44.38798" lon="4.75179">
        <ele>91.5</ele>
        <time>2015-10-17T10:01:47Z</time>
      </trkpt>
      <trkpt lat="44.38812" lon="4.75194">
        <ele>92.9</ele>
        <time>2015-10-17T10:01:48Z</time>
      </trkpt>
      <trkpt lat="44.38826" lon="4.75206">
        <ele>94.8</ele>
        <time>2015-10-17T10:01:49Z</time>
      </trkpt>
      <trkpt lat="44.38841" lon="4.75218">
        <ele>96.8</ele>
        <time>2015-10-17T10:01:50Z</time>
      </trkpt>
      <trkpt lat="44.38871" lon="4.75243">
        <ele>100.1</ele>
        <time>2015-10-17T10:01:52Z</time>
      </trkpt>
      <trkpt lat="44.38884" lon="4.75258">
        <ele>102</ele>
        <time>2015-10-17T10:01:53Z</time>
      </trkpt>
      <trkpt lat="44.38895" lon="4.75275">
        <ele>103.5</ele>
        <time>2015-10-17T10:01:54Z</time>
      </trkpt>
      <trkpt lat="44.38906" lon="4.75294">
        <ele>105.4</ele>
        <time>2015-10-17T10:01:55Z</time>
      </trkpt>
      <trkpt lat="44.38917" lon="4.75312">
        <ele>107.3</ele>
        <time>2015-10-17T10:01:56Z</time>
      </trkpt>
      <trkpt lat="44.38928" lon="4.7533">
        <ele>108.8</ele>
        <time>2015-10-17T10:01:57Z</time>
      </trkpt>
      <trkpt lat="44.38941" lon="4.75345">
        <ele>110.7</ele>
        <time>2015-10-17T10:01:58Z</time>
      </trkpt>
      <trkpt lat="44.38956" lon="4.75359">
        <ele>112.1</ele>
        <time>2015-10-17T10:01:59Z</time>
      </trkpt>
      <trkpt lat="44.39024" lon="4.75424">
        <ele>119.3</ele>
        <time>2015-10-17T10:02:04Z</time>
      </trkpt>
      <trkpt lat="44.39032" lon="4.75438">
        <ele>120.8</ele>
        <time>2015-10-17T10:02:05Z</time>
      </trkpt>
      <trkpt lat="44.39039" lon="4.75451">
        <ele>121.7</ele>
        <time>2015-10-17T10:02:06Z</time>
      </trkpt>
      <trkpt lat="44.39048" lon="4.75471">
        <ele>123.7</ele>
        <time>2015-10-17T10:02:08Z</time>
      </trkpt>
      <trkpt lat="44.39052" lon="4.75474">
        <ele>124.6</ele>
        <time>2015-10-17T10:02:09Z</time>
      </trkpt>
      <trkpt lat="44.39068" lon="4.75456">
        <ele>127</ele>
        <time>2015-10-17T10:02:12Z</time>
      </trkpt>
      <trkpt lat="44.39064" lon="4.75443">
        <ele>128</ele>
        <time>2015-10-17T10:02:13Z</time>
      </trkpt>
      <trkpt lat="44.3906" lon="4.75433">
        <ele>129</ele>
        <time>2015-10-17T10:02:14Z</time>
      </trkpt>
      <trkpt lat="44.39053" lon="4.75418">
        <ele>129.4</ele>
        <time>2015-10-17T10:02:15Z</time>
      </trkpt>
      <trkpt lat="44.39046" lon="4.75401">
        <ele>129.9</ele>
        <time>2015-10-17T10:02:16Z</time>
      </trkpt>
      <trkpt lat="44.39011" lon="4.753">
        <ele>136.6</ele>
        <time>2015-10-17T10:02:22Z</time>
      </trkpt>
      <trkpt lat="44.39009" lon="4.75287">
        <ele>137.6</ele>
        <time>2015-10-17T10:02:23Z</time>
      </trkpt>
      <trkpt lat="44.39009" lon="4.75273">
        <ele>138.1</ele>
        <time>2015-10-17T10:02:24Z</time>
      </trkpt>
      <trkpt lat="44.39016" lon="4.75263">
        <ele>138.6</ele>
        <time>2015-10-17T10:02:25Z</time>
      </trkpt>
      <trkpt lat="44.39026" lon="4.75256">
        <ele>139.5</ele>
        <time>2015-10-17T10:02:26Z</time>
      </trkpt>
      <trkpt lat="44.39036" lon="4.75253">
        <ele>141</ele>
        <time>2015-10-17T10:02:27Z</time>
      </trkpt>
      <trkpt lat="44.39049" lon="4.75254">
        <ele>141.5</ele>
        <time>2015-10-17T10:02:28Z</time>
      </trkpt>
      <trkpt lat="44.39062" lon="4.75254">
        <ele>141.9</ele>
        <time>2015-10-17T10:02:29Z</time>
      </trkpt>
      <trkpt lat="44.39098" lon="4.75257">
        <ele>144.3</ele>
        <time>2015-10-17T10:02:32Z</time>
      </trkpt>
      <trkpt lat="44.39108" lon="4.75264">
        <ele>144.3</ele>
        <time>2015-10-17T10:02:33Z</time>
      </trkpt>
      <trkpt lat="44.39114" lon="4.75279">
        <ele>145.3</ele>
        <time>2015-10-17T10:02:34Z</time>
      </trkpt>
      <trkpt lat="44.39119" lon="4.75295">
        <ele>146.3</ele>
        <time>2015-10-17T10:02:35Z</time>
      </trkpt>
      <trkpt lat="44.39124" lon="4.75312">
        <ele>147.2</ele>
        <time>2015-10-17T10:02:36Z</time>
      </trkpt>
      <trkpt lat="44.39167" lon="4.75423">
        <ele>152.5</ele>
        <time>2015-10-17T10:02:43Z</time>
      </trkpt>
      <trkpt lat="44.39175" lon="4.75436">
        <ele>153</ele>
        <time>2015-10-17T10:02:44Z</time>
      </trkpt>
      <trkpt lat="44.39184" lon="4.75448">
        <ele>154</ele>
        <time>2015-10-17T10:02:45Z</time>
      </trkpt>
      <trkpt lat="44.39195" lon="4.75459">
        <ele>154.9</ele>
        <time>2015-10-17T10:02:46Z</time>
      </trkpt>
      <trkpt lat="44.39206" lon="4.75469">
        <ele>155.9</ele>
        <time>2015-10-17T10:02:47Z</time>
      </trkpt>
      <trkpt lat="44.39292" lon="4.75555">
        <ele>164.5</ele>
        <time>2015-10-17T10:02:56Z</time>
      </trkpt>
      <trkpt lat="44.39299" lon="4.75564">
        <ele>165</ele>
        <time>2015-10-17T10:02:57Z</time>
      </trkpt>
      <trkpt lat="44.39306" lon="4.7557">
        <ele>165.5</ele>
        <time>2015-10-17T10:02:58Z</time>
      </trkpt>
      <trkpt lat="44.39312" lon="4.75574">
        <ele>166</ele>
        <time>2015-10-17T10:02:59Z</time>
      </trkpt>
      <trkpt lat="44.39318" lon="4.75575">
        <ele>166.5</ele>
        <time>2015-10-17T10:03:00Z</time>
      </trkpt>
      <trkpt lat="44.39323" lon="4.75577">
        <ele>166.5</ele>
        <time>2015-10-17T10:03:01Z</time>
      </trkpt>
      <trkpt lat="44.39327" lon="4.75581">
        <ele>166.5</ele>
        <time>2015-10-17T10:03:02Z</time>
      </trkpt>
      <trkpt lat="44.39331" lon="4.75587">
        <ele>166.5</ele>
        <time>2015-10-17T10:03:03Z</time>
      </trkpt>
      <trkpt lat="44.39335" lon="4.75595">
        <ele>166</ele>
        <time>2015-10-17T10:03:04Z</time>
      </trkpt>
      <trkpt lat="44.39339" lon="4.75605">
        <ele>165.5</ele>
        <time>2015-10-17T10:03:05Z</time>
      </trkpt>
      <trkpt lat="44.39343" lon="4.75616">
        <ele>165</ele>
        <time>2015-10-17T10:03:06Z</time>
      </trkpt>
      <trkpt lat="44.39346" lon="4.75629">
        <ele>164.5</ele>
        <time>2015-10-17T10:03:07Z</time>
      </trkpt>
      <trkpt lat="44.3939" lon="4.75789">
        <ele>155.9</ele>
        <time>2015-10-17T10:03:19Z</time>
      </trkpt>
      <trkpt lat="44.39406" lon="4.75922">
        <ele>154.4</ele>
        <time>2015-10-17T10:03:27Z</time>
      </trkpt>
      <trkpt lat="44.39406" lon="4.75939">
        <ele>154.4</ele>
        <time>2015-10-17T10:03:28Z</time>
      </trkpt>
      <trkpt lat="44.39409" lon="4.76074">
        <ele>153</ele>
        <time>2015-10-17T10:03:37Z</time>
      </trkpt>
      <trkpt lat="44.39413" lon="4.76104">
        <ele>152</ele>
        <time>2015-10-17T10:03:39Z</time>
      </trkpt>
      <trkpt lat="44.39411" lon="4.76137">
        <ele>151.5</ele>
        <time>2015-10-17T10:03:41Z</time>
      </trkpt>
      <trkpt lat="44.39409" lon="4.76153">
        <ele>151.5</ele>
        <time>2015-10-17T10:03:42Z</time>
      </trkpt>
      <trkpt lat="44.39405" lon="4.7617">
        <ele>151.1</ele>
        <time>2015-10-17T10:03:43Z</time>
      </trkpt>
      <trkpt lat="44.39401" lon="4.76185">
        <ele>151.1</ele>
        <time>2015-10-17T10:03:44Z</time>
      </trkpt>
      <trkpt lat="44.39393" lon="4.76197">
        <ele>150.1</ele>
        <time>2015-10-17T10:03:45Z</time>
      </trkpt>
      <trkpt lat="44.39383" lon="4.76207">
        <ele>149.1</ele>
        <time>2015-10-17T10:03:46Z</time>
      </trkpt>
      <trkpt lat="44.39371" lon="4.76216">
        <ele>149.6</ele>
        <time>2015-10-17T10:03:47Z</time>
      </trkpt>
      <trkpt lat="44.39358" lon="4.76225">
        <ele>150.6</ele>
        <time>2015-10-17T10:03:48Z</time>
      </trkpt>
      <trkpt lat="44.39332" lon="4.76243">
        <ele>150.6</ele>
        <time>2015-10-17T10:03:50Z</time>
      </trkpt>
      <trkpt lat="44.39317" lon="4.76249">
        <ele>151.1</ele>
        <time>2015-10-17T10:03:51Z</time>
      </trkpt>
      <trkpt lat="44.39268" lon="4.76267">
        <ele>154</ele>
        <time>2015-10-17T10:03:55Z</time>
      </trkpt>
      <trkpt lat="44.39263" lon="4.76274">
        <ele>154.9</ele>
        <time>2015-10-17T10:03:56Z</time>
      </trkpt>
      <trkpt lat="44.39262" lon="4.76284">
        <ele>155.4</ele>
        <time>2015-10-17T10:03:57Z</time>
      </trkpt>
      <trkpt lat="44.39266" lon="4.76299">
        <ele>155.9</ele>
        <time>2015-10-17T10:03:58Z</time>
      </trkpt>
      <trkpt lat="44.39271" lon="4.76314">
        <ele>156.4</ele>
        <time>2015-10-17T10:03:59Z</time>
      </trkpt>
      <trkpt lat="44.39278" lon="4.76331">
        <ele>156.8</ele>
        <time>2015-10-17T10:04:00Z</time>
      </trkpt>
      <trkpt lat="44.39286" lon="4.76347">
        <ele>157.3</ele>
        <time>2015-10-17T10:04:01Z</time>
      </trkpt>
      <trkpt lat="44.39296" lon="4.76363">
        <ele>157.8</ele>
        <time>2015-10-17T10:04:02Z</time>
      </trkpt>
      <trkpt lat="44.39377" lon="4.76505">
        <ele>159.7</ele>
        <time>2015-10-17T10:04:11Z</time>
      </trkpt>
      <trkpt lat="44.39384" lon="4.76523">
        <ele>159.2</ele>
        <time>2015-10-17T10:04:12Z</time>
      </trkpt>
      <trkpt lat="44.3939" lon="4.7654">
        <ele>158.8</ele>
        <time>2015-10-17T10:04:13Z</time>
      </trkpt>
      <trkpt lat="44.3941" lon="4.76635">
        <ele>155.9</ele>
        <time>2015-10-17T10:04:18Z</time>
      </trkpt>
      <trkpt lat="44.3941" lon="4.76655">
        <ele>155.9</ele>
        <time>2015-10-17T10:04:19Z</time>
      </trkpt>
      <trkpt lat="44.39408" lon="4.76674">
        <ele>155.4</ele>
        <time>2015-10-17T10:04:20Z</time>
      </trkpt>
      <trkpt lat="44.39399" lon="4.76753">
        <ele>153.5</ele>
        <time>2015-10-17T10:04:24Z</time>
      </trkpt>
      <trkpt lat="44.394" lon="4.76963">
        <ele>149.6</ele>
        <time>2015-10-17T10:04:35Z</time>
      </trkpt>
      <trkpt lat="44.39415" lon="4.7704">
        <ele>148.2</ele>
        <time>2015-10-17T10:04:39Z</time>
      </trkpt>
      <trkpt lat="44.39423" lon="4.77059">
        <ele>148.2</ele>
        <time>2015-10-17T10:04:40Z</time>
      </trkpt>
      <trkpt lat="44.39466" lon="4.77163">
        <ele>147.2</ele>
        <time>2015-10-17T10:04:46Z</time>
      </trkpt>
      <trkpt lat="44.39475" lon="4.77177">
        <ele>146.3</ele>
        <time>2015-10-17T10:04:47Z</time>
      </trkpt>
      <trkpt lat="44.39487" lon="4.77187">
        <ele>145.8</ele>
        <time>2015-10-17T10:04:48Z</time>
      </trkpt>
      <trkpt lat="44.395" lon="4.77194">
        <ele>143.4</ele>
        <time>2015-10-17T10:04:49Z</time>
      </trkpt>
      <trkpt lat="44.39514" lon="4.772">
        <ele>142.4</ele>
        <time>2015-10-17T10:04:50Z</time>
      </trkpt>
      <trkpt lat="44.39528" lon="4.77207">
        <ele>141</ele>
        <time>2015-10-17T10:04:51Z</time>
      </trkpt>
      <trkpt lat="44.39578" lon="4.77254">
        <ele>140</ele>
        <time>2015-10-17T10:04:56Z</time>
      </trkpt>
      <trkpt lat="44.39578" lon="4.77268">
        <ele>140.5</ele>
        <time>2015-10-17T10:04:57Z</time>
      </trkpt>
      <trkpt lat="44.39576" lon="4.77281">
        <ele>141</ele>
        <time>2015-10-17T10:04:58Z</time>
      </trkpt>
      <trkpt lat="44.39571" lon="4.77293">
        <ele>141.5</ele>
        <time>2015-10-17T10:04:59Z</time>
      </trkpt>
      <trkpt lat="44.39559" lon="4.773">
        <ele>141.5</ele>
        <time>2015-10-17T10:05:00Z</time>
      </trkpt>
      <trkpt lat="44.39548" lon="4.7731">
        <ele>140.5</ele>
        <time>2015-10-17T10:05:01Z</time>
      </trkpt>
      <trkpt lat="44.39537" lon="4.7732">
        <ele>139.5</ele>
        <time>2015-10-17T10:05:02Z</time>
      </trkpt>
      <trkpt lat="44.39528" lon="4.77336">
        <ele>139.1</ele>
        <time>2015-10-17T10:05:03Z</time>
      </trkpt>
      <trkpt lat="44.39511" lon="4.77369">
        <ele>140.5</ele>
        <time>2015-10-17T10:05:05Z</time>
      </trkpt>
      <trkpt lat="44.39506" lon="4.77386">
        <ele>140</ele>
        <time>2015-10-17T10:05:06Z</time>
      </trkpt>
      <trkpt lat="44.39501" lon="4.77403">
        <ele>140</ele>
        <time>2015-10-17T10:05:07Z</time>
      </trkpt>
      <trkpt lat="44.39494" lon="4.77432">
        <ele>140.5</ele>
        <time>2015-10-17T10:05:09Z</time>
      </trkpt>
      <trkpt lat="44.39493" lon="4.77443">
        <ele>141</ele>
        <time>2015-10-17T10:05:10Z</time>
      </trkpt>
      <trkpt lat="44.39492" lon="4.7745">
        <ele>141.9</ele>
        <time>2015-10-17T10:05:11Z</time>
      </trkpt>
      <trkpt lat="44.3949" lon="4.7746">
        <ele>145.8</ele>
        <time>2015-10-17T10:05:17Z</time>
      </trkpt>
      <trkpt lat="44.39485" lon="4.77469">
        <ele>153</ele>
        <time>2015-10-17T10:05:32Z</time>
      </trkpt>
      <trkpt lat="44.39467" lon="4.77527">
        <ele>154.9</ele>
        <time>2015-10-17T10:05:40Z</time>
      </trkpt>
      <trkpt lat="44.39465" lon="4.77536">
        <ele>155.4</ele>
        <time>2015-10-17T10:05:41Z</time>
      </trkpt>
      <trkpt lat="44.39464" lon="4.77544">
        <ele>155.9</ele>
        <time>2015-10-17T10:05:42Z</time>
      </trkpt>
      <trkpt lat="44.39463" lon="4.77554">
        <ele>156.4</ele>
        <time>2015-10-17T10:05:43Z</time>
      </trkpt>
      <trkpt lat="44.39463" lon="4.77563">
        <ele>156.4</ele>
        <time>2015-10-17T10:05:44Z</time>
      </trkpt>
      <trkpt lat="44.39463" lon="4.77572">
        <ele>156.8</ele>
        <time>2015-10-17T10:05:45Z</time>
      </trkpt>
      <trkpt lat="44.39471" lon="4.7763">
        <ele>157.8</ele>
        <time>2015-10-17T10:05:54Z</time>
      </trkpt>
      <trkpt lat="44.39477" lon="4.77654">
        <ele>161.6</ele>
        <time>2015-10-17T10:06:14Z</time>
      </trkpt>
      <trkpt lat="44.39488" lon="4.77698">
        <ele>161.6</ele>
        <time>2015-10-17T10:06:22Z</time>
      </trkpt>
      <trkpt lat="44.3949" lon="4.77712">
        <ele>161.2</ele>
        <time>2015-10-17T10:06:23Z</time>
      </trkpt>
      <trkpt lat="44.3949" lon="4.77727">
        <ele>161.2</ele>
        <time>2015-10-17T10:06:24Z</time>
      </trkpt>
      <trkpt lat="44.39489" lon="4.77742">
        <ele>161.2</ele>
        <time>2015-10-17T10:06:25Z</time>
      </trkpt>
      <trkpt lat="44.39464" lon="4.77899">
        <ele>162.1</ele>
        <time>2015-10-17T10:06:34Z</time>
      </trkpt>
      <trkpt lat="44.39421" lon="4.78087">
        <ele>166</ele>
        <time>2015-10-17T10:06:43Z</time>
      </trkpt>
      <trkpt lat="44.394" lon="4.78159">
        <ele>169.3</ele>
        <time>2015-10-17T10:06:47Z</time>
      </trkpt>
      <trkpt lat="44.39398" lon="4.78177">
        <ele>170.3</ele>
        <time>2015-10-17T10:06:48Z</time>
      </trkpt>
      <trkpt lat="44.39398" lon="4.78194">
        <ele>171.3</ele>
        <time>2015-10-17T10:06:49Z</time>
      </trkpt>
      <trkpt lat="44.39403" lon="4.78212">
        <ele>172.2</ele>
        <time>2015-10-17T10:06:50Z</time>
      </trkpt>
      <trkpt lat="44.3941" lon="4.78228">
        <ele>173.7</ele>
        <time>2015-10-17T10:06:51Z</time>
      </trkpt>
      <trkpt lat="44.39419" lon="4.78244">
        <ele>175.1</ele>
        <time>2015-10-17T10:06:52Z</time>
      </trkpt>
      <trkpt lat="44.39428" lon="4.78261">
        <ele>176.5</ele>
        <time>2015-10-17T10:06:53Z</time>
      </trkpt>
      <trkpt lat="44.39539" lon="4.78474">
        <ele>192.9</ele>
        <time>2015-10-17T10:07:05Z</time>
      </trkpt>
      <trkpt lat="44.3955" lon="4.78488">
        <ele>193.8</ele>
        <time>2015-10-17T10:07:06Z</time>
      </trkpt>
      <trkpt lat="44.3957" lon="4.78514">
        <ele>195.8</ele>
        <time>2015-10-17T10:07:08Z</time>
      </trkpt>
      <trkpt lat="44.39574" lon="4.78528">
        <ele>196.3</ele>
        <time>2015-10-17T10:07:09Z</time>
      </trkpt>
      <trkpt lat="44.39575" lon="4.78545">
        <ele>197.7</ele>
        <time>2015-10-17T10:07:10Z</time>
      </trkpt>
      <trkpt lat="44.39573" lon="4.78564">
        <ele>199.1</ele>
        <time>2015-10-17T10:07:11Z</time>
      </trkpt>
      <trkpt lat="44.39568" lon="4.78585">
        <ele>200.6</ele>
        <time>2015-10-17T10:07:12Z</time>
      </trkpt>
      <trkpt lat="44.39565" lon="4.78609">
        <ele>202</ele>
        <time>2015-10-17T10:07:13Z</time>
      </trkpt>
      <trkpt lat="44.39565" lon="4.78636">
        <ele>203</ele>
        <time>2015-10-17T10:07:14Z</time>
      </trkpt>
      <trkpt lat="44.39565" lon="4.78663">
        <ele>204.4</ele>
        <time>2015-10-17T10:07:15Z</time>
      </trkpt>
      <trkpt lat="44.39567" lon="4.78688">
        <ele>205.9</ele>
        <time>2015-10-17T10:07:16Z</time>
      </trkpt>
      <trkpt lat="44.3957" lon="4.78711">
        <ele>206.8</ele>
        <time>2015-10-17T10:07:17Z</time>
      </trkpt>
      <trkpt lat="44.39573" lon="4.78731">
        <ele>208.3</ele>
        <time>2015-10-17T10:07:18Z</time>
      </trkpt>
      <trkpt lat="44.39577" lon="4.78749">
        <ele>209.2</ele>
        <time>2015-10-17T10:07:19Z</time>
      </trkpt>
      <trkpt lat="44.39584" lon="4.7876">
        <ele>210.2</ele>
        <time>2015-10-17T10:07:20Z</time>
      </trkpt>
      <trkpt lat="44.39594" lon="4.78769">
        <ele>210.7</ele>
        <time>2015-10-17T10:07:21Z</time>
      </trkpt>
      <trkpt lat="44.39608" lon="4.78776">
        <ele>211.2</ele>
        <time>2015-10-17T10:07:22Z</time>
      </trkpt>
      <trkpt lat="44.39623" lon="4.78783">
        <ele>211.2</ele>
        <time>2015-10-17T10:07:23Z</time>
      </trkpt>
      <trkpt lat="44.39747" lon="4.78875">
        <ele>203.5</ele>
        <time>2015-10-17T10:07:31Z</time>
      </trkpt>
      <trkpt lat="44.39776" lon="4.78908">
        <ele>201.1</ele>
        <time>2015-10-17T10:07:33Z</time>
      </trkpt>
      <trkpt lat="44.39788" lon="4.78928">
        <ele>199.6</ele>
        <time>2015-10-17T10:07:34Z</time>
      </trkpt>
      <trkpt lat="44.39798" lon="4.78951">
        <ele>198.2</ele>
        <time>2015-10-17T10:07:35Z</time>
      </trkpt>
      <trkpt lat="44.39823" lon="4.79033">
        <ele>195.3</ele>
        <time>2015-10-17T10:07:39Z</time>
      </trkpt>
      <trkpt lat="44.39822" lon="4.79049">
        <ele>194.8</ele>
        <time>2015-10-17T10:07:40Z</time>
      </trkpt>
      <trkpt lat="44.39818" lon="4.79066">
        <ele>194.3</ele>
        <time>2015-10-17T10:07:41Z</time>
      </trkpt>
      <trkpt lat="44.3981" lon="4.79083">
        <ele>193.8</ele>
        <time>2015-10-17T10:07:42Z</time>
      </trkpt>
      <trkpt lat="44.39801" lon="4.79099">
        <ele>192.9</ele>
        <time>2015-10-17T10:07:43Z</time>
      </trkpt>
      <trkpt lat="44.39792" lon="4.79115">
        <ele>192.4</ele>
        <time>2015-10-17T10:07:44Z</time>
      </trkpt>
      <trkpt lat="44.39786" lon="4.79132">
        <ele>191.9</ele>
        <time>2015-10-17T10:07:45Z</time>
      </trkpt>
      <trkpt lat="44.39783" lon="4.79151">
        <ele>191</ele>
        <time>2015-10-17T10:07:46Z</time>
      </trkpt>
      <trkpt lat="44.39784" lon="4.79172">
        <ele>190</ele>
        <time>2015-10-17T10:07:47Z</time>
      </trkpt>
      <trkpt lat="44.39785" lon="4.79194">
        <ele>189</ele>
        <time>2015-10-17T10:07:48Z</time>
      </trkpt>
      <trkpt lat="44.39789" lon="4.79287">
        <ele>184.7</ele>
        <time>2015-10-17T10:07:53Z</time>
      </trkpt>
      <trkpt lat="44.39794" lon="4.79302">
        <ele>183.8</ele>
        <time>2015-10-17T10:07:54Z</time>
      </trkpt>
      <trkpt lat="44.39802" lon="4.79317">
        <ele>182.8</ele>
        <time>2015-10-17T10:07:55Z</time>
      </trkpt>
      <trkpt lat="44.39828" lon="4.79372">
        <ele>179.4</ele>
        <time>2015-10-17T10:07:59Z</time>
      </trkpt>
      <trkpt lat="44.39832" lon="4.79387">
        <ele>178.5</ele>
        <time>2015-10-17T10:08:00Z</time>
      </trkpt>
      <trkpt lat="44.39834" lon="4.79403">
        <ele>177.5</ele>
        <time>2015-10-17T10:08:01Z</time>
      </trkpt>
      <trkpt lat="44.39833" lon="4.79421">
        <ele>177</ele>
        <time>2015-10-17T10:08:02Z</time>
      </trkpt>
      <trkpt lat="44.39831" lon="4.79439">
        <ele>176.1</ele>
        <time>2015-10-17T10:08:03Z</time>
      </trkpt>
      <trkpt lat="44.39827" lon="4.79458">
        <ele>175.1</ele>
        <time>2015-10-17T10:08:04Z</time>
      </trkpt>
      <trkpt lat="44.39825" lon="4.79478">
        <ele>174.1</ele>
        <time>2015-10-17T10:08:05Z</time>
      </trkpt>
      <trkpt lat="44.39825" lon="4.79499">
        <ele>173.2</ele>
        <time>2015-10-17T10:08:06Z</time>
      </trkpt>
      <trkpt lat="44.39826" lon="4.79518">
        <ele>172.2</ele>
        <time>2015-10-17T10:08:07Z</time>
      </trkpt>
      <trkpt lat="44.3983" lon="4.79536">
        <ele>171.3</ele>
        <time>2015-10-17T10:08:08Z</time>
      </trkpt>
      <trkpt lat="44.39836" lon="4.79551">
        <ele>170.3</ele>
        <time>2015-10-17T10:08:09Z</time>
      </trkpt>
      <trkpt lat="44.39843" lon="4.79566">
        <ele>169.3</ele>
        <time>2015-10-17T10:08:10Z</time>
      </trkpt>
      <trkpt lat="44.3985" lon="4.7958">
        <ele>168.9</ele>
        <time>2015-10-17T10:08:11Z</time>
      </trkpt>
      <trkpt lat="44.39877" lon="4.79634">
        <ele>165</ele>
        <time>2015-10-17T10:08:15Z</time>
      </trkpt>
      <trkpt lat="44.39886" lon="4.79645">
        <ele>164</ele>
        <time>2015-10-17T10:08:16Z</time>
      </trkpt>
      <trkpt lat="44.39896" lon="4.79654">
        <ele>163.1</ele>
        <time>2015-10-17T10:08:17Z</time>
      </trkpt>
      <trkpt lat="44.39907" lon="4.7966">
        <ele>162.6</ele>
        <time>2015-10-17T10:08:18Z</time>
      </trkpt>
      <trkpt lat="44.39919" lon="4.79665">
        <ele>162.1</ele>
        <time>2015-10-17T10:08:19Z</time>
      </trkpt>
      <trkpt lat="44.3993" lon="4.79669">
        <ele>161.6</ele>
        <time>2015-10-17T10:08:20Z</time>
      </trkpt>
      <trkpt lat="44.39941" lon="4.79672">
        <ele>160.7</ele>
        <time>2015-10-17T10:08:21Z</time>
      </trkpt>
      <trkpt lat="44.39951" lon="4.79673">
        <ele>160.2</ele>
        <time>2015-10-17T10:08:22Z</time>
      </trkpt>
      <trkpt lat="44.39962" lon="4.79673">
        <ele>159.2</ele>
        <time>2015-10-17T10:08:23Z</time>
      </trkpt>
      <trkpt lat="44.3998" lon="4.79674">
        <ele>157.8</ele>
        <time>2015-10-17T10:08:25Z</time>
      </trkpt>
      <trkpt lat="44.39987" lon="4.79677">
        <ele>157.3</ele>
        <time>2015-10-17T10:08:26Z</time>
      </trkpt>
      <trkpt lat="44.39989" lon="4.79683">
        <ele>156.4</ele>
        <time>2015-10-17T10:08:27Z</time>
      </trkpt>
      <trkpt lat="44.39988" lon="4.79691">
        <ele>156.4</ele>
        <time>2015-10-17T10:08:28Z</time>
      </trkpt>
      <trkpt lat="44.39984" lon="4.79699">
        <ele>155.4</ele>
        <time>2015-10-17T10:08:29Z</time>
      </trkpt>
      <trkpt lat="44.39979" lon="4.79705">
        <ele>154.9</ele>
        <time>2015-10-17T10:08:30Z</time>
      </trkpt>
      <trkpt lat="44.39971" lon="4.7971">
        <ele>154</ele>
        <time>2015-10-17T10:08:31Z</time>
      </trkpt>
      <trkpt lat="44.39965" lon="4.79715">
        <ele>153</ele>
        <time>2015-10-17T10:08:32Z</time>
      </trkpt>
      <trkpt lat="44.39907" lon="4.79764">
        <ele>151.1</ele>
        <time>2015-10-17T10:08:44Z</time>
      </trkpt>
      <trkpt lat="44.39902" lon="4.79771">
        <ele>151.5</ele>
        <time>2015-10-17T10:08:55Z</time>
      </trkpt>
      <trkpt lat="44.39898" lon="4.79777">
        <ele>151.5</ele>
        <time>2015-10-17T10:09:02Z</time>
      </trkpt>
      <trkpt lat="44.39899" lon="4.7978">
        <ele>151.5</ele>
        <time>2015-10-17T10:09:11Z</time>
      </trkpt>
      <trkpt lat="44.39901" lon="4.79784">
        <ele>151.5</ele>
        <time>2015-10-17T10:09:12Z</time>
      </trkpt>
      <trkpt lat="44.39907" lon="4.79791">
        <ele>151.5</ele>
        <time>2015-10-17T10:09:13Z</time>
      </trkpt>
      <trkpt lat="44.39916" lon="4.79797">
        <ele>151.1</ele>
        <time>2015-10-17T10:09:14Z</time>
      </trkpt>
      <trkpt lat="44.39926" lon="4.79805">
        <ele>150.6</ele>
        <time>2015-10-17T10:09:15Z</time>
      </trkpt>
      <trkpt lat="44.40065" lon="4.79898">
        <ele>145.8</ele>
        <time>2015-10-17T10:09:26Z</time>
      </trkpt>
      <trkpt lat="44.40169" lon="4.79958">
        <ele>141.5</ele>
        <time>2015-10-17T10:09:33Z</time>
      </trkpt>
      <trkpt lat="44.40182" lon="4.79972">
        <ele>140.5</ele>
        <time>2015-10-17T10:09:34Z</time>
      </trkpt>
      <trkpt lat="44.40194" lon="4.79987">
        <ele>140</ele>
        <time>2015-10-17T10:09:35Z</time>
      </trkpt>
      <trkpt lat="44.40205" lon="4.80004">
        <ele>139.5</ele>
        <time>2015-10-17T10:09:36Z</time>
      </trkpt>
      <trkpt lat="44.40216" lon="4.80021">
        <ele>138.6</ele>
        <time>2015-10-17T10:09:37Z</time>
      </trkpt>
      <trkpt lat="44.40239" lon="4.80052">
        <ele>137.1</ele>
        <time>2015-10-17T10:09:39Z</time>
      </trkpt>
      <trkpt lat="44.40253" lon="4.80065">
        <ele>136.2</ele>
        <time>2015-10-17T10:09:40Z</time>
      </trkpt>
      <trkpt lat="44.40268" lon="4.80075">
        <ele>135.7</ele>
        <time>2015-10-17T10:09:41Z</time>
      </trkpt>
      <trkpt lat="44.40284" lon="4.80082">
        <ele>134.7</ele>
        <time>2015-10-17T10:09:42Z</time>
      </trkpt>
      <trkpt lat="44.40301" lon="4.80086">
        <ele>134.2</ele>
        <time>2015-10-17T10:09:43Z</time>
      </trkpt>
      <trkpt lat="44.40318" lon="4.80087">
        <ele>133.3</ele>
        <time>2015-10-17T10:09:44Z</time>
      </trkpt>
      <trkpt lat="44.40336" lon="4.80086">
        <ele>132.8</ele>
        <time>2015-10-17T10:09:45Z</time>
      </trkpt>
      <trkpt lat="44.40354" lon="4.80086">
        <ele>131.8</ele>
        <time>2015-10-17T10:09:46Z</time>
      </trkpt>
      <trkpt lat="44.40458" lon="4.8008">
        <ele>129</ele>
        <time>2015-10-17T10:09:52Z</time>
      </trkpt>
      <trkpt lat="44.40473" lon="4.80085">
        <ele>128.5</ele>
        <time>2015-10-17T10:09:53Z</time>
      </trkpt>
      <trkpt lat="44.40488" lon="4.80095">
        <ele>127.5</ele>
        <time>2015-10-17T10:09:54Z</time>
      </trkpt>
      <trkpt lat="44.405" lon="4.80111">
        <ele>126.6</ele>
        <time>2015-10-17T10:09:55Z</time>
      </trkpt>
      <trkpt lat="44.40509" lon="4.80131">
        <ele>125.6</ele>
        <time>2015-10-17T10:09:56Z</time>
      </trkpt>
      <trkpt lat="44.40517" lon="4.80152">
        <ele>125.1</ele>
        <time>2015-10-17T10:09:57Z</time>
      </trkpt>
      <trkpt lat="44.40525" lon="4.80172">
        <ele>124.6</ele>
        <time>2015-10-17T10:09:58Z</time>
      </trkpt>
      <trkpt lat="44.40535" lon="4.80192">
        <ele>124.2</ele>
        <time>2015-10-17T10:09:59Z</time>
      </trkpt>
      <trkpt lat="44.40547" lon="4.8021">
        <ele>123.7</ele>
        <time>2015-10-17T10:10:00Z</time>
      </trkpt>
      <trkpt lat="44.4056" lon="4.80227">
        <ele>122.7</ele>
        <time>2015-10-17T10:10:01Z</time>
      </trkpt>
      <trkpt lat="44.40686" lon="4.80338">
        <ele>116.5</ele>
        <time>2015-10-17T10:10:09Z</time>
      </trkpt>
      <trkpt lat="44.40821" lon="4.80435">
        <ele>113.1</ele>
        <time>2015-10-17T10:10:17Z</time>
      </trkpt>
      <trkpt lat="44.40969" lon="4.80543">
        <ele>112.6</ele>
        <time>2015-10-17T10:10:26Z</time>
      </trkpt>
      <trkpt lat="44.41098" lon="4.80589">
        <ele>110.7</ele>
        <time>2015-10-17T10:10:34Z</time>
      </trkpt>
      <trkpt lat="44.41242" lon="4.80619">
        <ele>107.8</ele>
        <time>2015-10-17T10:10:42Z</time>
      </trkpt>
      <trkpt lat="44.41421" lon="4.80677">
        <ele>104.4</ele>
        <time>2015-10-17T10:10:51Z</time>
      </trkpt>
      <trkpt lat="44.41482" lon="4.80699">
        <ele>104.9</ele>
        <time>2015-10-17T10:10:54Z</time>
      </trkpt>
      <trkpt lat="44.41504" lon="4.80702">
        <ele>104.9</ele>
        <time>2015-10-17T10:10:55Z</time>
      </trkpt>
      <trkpt lat="44.41767" lon="4.80708">
        <ele>104.4</ele>
        <time>2015-10-17T10:11:08Z</time>
      </trkpt>
      <trkpt lat="44.41884" lon="4.8071">
        <ele>104.9</ele>
        <time>2015-10-17T10:11:16Z</time>
      </trkpt>
      <trkpt lat="44.41928" lon="4.80711">
        <ele>106.8</ele>
        <time>2015-10-17T10:11:22Z</time>
      </trkpt>
      <trkpt lat="44.41932" lon="4.80713">
        <ele>106.8</ele>
        <time>2015-10-17T10:11:23Z</time>
      </trkpt>
      <trkpt lat="44.41934" lon="4.80714">
        <ele>107.3</ele>
        <time>2015-10-17T10:11:24Z</time>
      </trkpt>
      <trkpt lat="44.41936" lon="4.80716">
        <ele>107.3</ele>
        <time>2015-10-17T10:11:25Z</time>
      </trkpt>
      <trkpt lat="44.41935" lon="4.80716">
        <ele>107.8</ele>
        <time>2015-10-17T10:11:36Z</time>
      </trkpt>
      <trkpt lat="44.41937" lon="4.80721">
        <ele>107.3</ele>
        <time>2015-10-17T10:11:42Z</time>
      </trkpt>
      <trkpt lat="44.41937" lon="4.80732">
        <ele>107.3</ele>
        <time>2015-10-17T10:11:43Z</time>
      </trkpt>
      <trkpt lat="44.4195" lon="4.80827">
        <ele>107.3</ele>
        <time>2015-10-17T10:11:48Z</time>
      </trkpt>
      <trkpt lat="44.41989" lon="4.81053">
        <ele>108.3</ele>
        <time>2015-10-17T10:11:57Z</time>
      </trkpt>
      <trkpt lat="44.42001" lon="4.81252">
        <ele>109.7</ele>
        <time>2015-10-17T10:12:05Z</time>
      </trkpt>
      <trkpt lat="44.42006" lon="4.81324">
        <ele>110.2</ele>
        <time>2015-10-17T10:12:08Z</time>
      </trkpt>
      <trkpt lat="44.4201" lon="4.81347">
        <ele>110.7</ele>
        <time>2015-10-17T10:12:09Z</time>
      </trkpt>
      <trkpt lat="44.42085" lon="4.81575">
        <ele>115.5</ele>
        <time>2015-10-17T10:12:20Z</time>
      </trkpt>
      <trkpt lat="44.42131" lon="4.81722">
        <ele>116.5</ele>
        <time>2015-10-17T10:12:29Z</time>
      </trkpt>
      <trkpt lat="44.42166" lon="4.81932">
        <ele>116.5</ele>
        <time>2015-10-17T10:12:39Z</time>
      </trkpt>
      <trkpt lat="44.42193" lon="4.82149">
        <ele>117.4</ele>
        <time>2015-10-17T10:12:47Z</time>
      </trkpt>
      <trkpt lat="44.42196" lon="4.82231">
        <ele>117.9</ele>
        <time>2015-10-17T10:12:50Z</time>
      </trkpt>
      <trkpt lat="44.42183" lon="4.82463">
        <ele>120.3</ele>
        <time>2015-10-17T10:12:58Z</time>
      </trkpt>
      <trkpt lat="44.42149" lon="4.82808">
        <ele>123.2</ele>
        <time>2015-10-17T10:13:10Z</time>
      </trkpt>
      <trkpt lat="44.4212" lon="4.83072">
        <ele>123.7</ele>
        <time>2015-10-17T10:13:18Z</time>
      </trkpt>
      <trkpt lat="44.42088" lon="4.83341">
        <ele>124.2</ele>
        <time>2015-10-17T10:13:25Z</time>
      </trkpt>
      <trkpt lat="44.42051" lon="4.83546">
        <ele>124.6</ele>
        <time>2015-10-17T10:13:32Z</time>
      </trkpt>
      <trkpt lat="44.42051" lon="4.83579">
        <ele>124.6</ele>
        <time>2015-10-17T10:13:33Z</time>
      </trkpt>
      <trkpt lat="44.42053" lon="4.83845">
        <ele>124.2</ele>
        <time>2015-10-17T10:13:40Z</time>
      </trkpt>
      <trkpt lat="44.42056" lon="4.84249">
        <ele>128.5</ele>
        <time>2015-10-17T10:13:51Z</time>
      </trkpt>
      <trkpt lat="44.42087" lon="4.8445">
        <ele>129.4</ele>
        <time>2015-10-17T10:13:57Z</time>
      </trkpt>
      <trkpt lat="44.42105" lon="4.84576">
        <ele>129.4</ele>
        <time>2015-10-17T10:14:01Z</time>
      </trkpt>
      <trkpt lat="44.42103" lon="4.84608">
        <ele>129.4</ele>
        <time>2015-10-17T10:14:02Z</time>
      </trkpt>
      <trkpt lat="44.42097" lon="4.8464">
        <ele>129.9</ele>
        <time>2015-10-17T10:14:03Z</time>
      </trkpt>
      <trkpt lat="44.42088" lon="4.84671">
        <ele>129.9</ele>
        <time>2015-10-17T10:14:04Z</time>
      </trkpt>
      <trkpt lat="44.42073" lon="4.847">
        <ele>129.4</ele>
        <time>2015-10-17T10:14:05Z</time>
      </trkpt>
      <trkpt lat="44.42056" lon="4.84726">
        <ele>129.4</ele>
        <time>2015-10-17T10:14:06Z</time>
      </trkpt>
      <trkpt lat="44.42037" lon="4.8475">
        <ele>129.4</ele>
        <time>2015-10-17T10:14:07Z</time>
      </trkpt>
      <trkpt lat="44.42018" lon="4.84772">
        <ele>129.4</ele>
        <time>2015-10-17T10:14:08Z</time>
      </trkpt>
      <trkpt lat="44.42" lon="4.84795">
        <ele>129.4</ele>
        <time>2015-10-17T10:14:09Z</time>
      </trkpt>
      <trkpt lat="44.41971" lon="4.84842">
        <ele>130.4</ele>
        <time>2015-10-17T10:14:11Z</time>
      </trkpt>
      <trkpt lat="44.41962" lon="4.8487">
        <ele>130.4</ele>
        <time>2015-10-17T10:14:12Z</time>
      </trkpt>
      <trkpt lat="44.41954" lon="4.84901">
        <ele>130.9</ele>
        <time>2015-10-17T10:14:13Z</time>
      </trkpt>
      <trkpt lat="44.41951" lon="4.84934">
        <ele>131.4</ele>
        <time>2015-10-17T10:14:14Z</time>
      </trkpt>
      <trkpt lat="44.41949" lon="4.84969">
        <ele>131.8</ele>
        <time>2015-10-17T10:14:15Z</time>
      </trkpt>
      <trkpt lat="44.4195" lon="4.85004">
        <ele>132.8</ele>
        <time>2015-10-17T10:14:16Z</time>
      </trkpt>
      <trkpt lat="44.41952" lon="4.85038">
        <ele>134.2</ele>
        <time>2015-10-17T10:14:17Z</time>
      </trkpt>
      <trkpt lat="44.41954" lon="4.85069">
        <ele>135.2</ele>
        <time>2015-10-17T10:14:18Z</time>
      </trkpt>
      <trkpt lat="44.41966" lon="4.85205">
        <ele>138.6</ele>
        <time>2015-10-17T10:14:23Z</time>
      </trkpt>
      <trkpt lat="44.41976" lon="4.85228">
        <ele>139.5</ele>
        <time>2015-10-17T10:14:24Z</time>
      </trkpt>
      <trkpt lat="44.41987" lon="4.8525">
        <ele>140</ele>
        <time>2015-10-17T10:14:25Z</time>
      </trkpt>
      <trkpt lat="44.42003" lon="4.85265">
        <ele>141</ele>
        <time>2015-10-17T10:14:26Z</time>
      </trkpt>
      <trkpt lat="44.42022" lon="4.85276">
        <ele>141.5</ele>
        <time>2015-10-17T10:14:27Z</time>
      </trkpt>
      <trkpt lat="44.4204" lon="4.85287">
        <ele>141.9</ele>
        <time>2015-10-17T10:14:28Z</time>
      </trkpt>
      <trkpt lat="44.42057" lon="4.85296">
        <ele>142.4</ele>
        <time>2015-10-17T10:14:29Z</time>
      </trkpt>
      <trkpt lat="44.42089" lon="4.85318">
        <ele>144.3</ele>
        <time>2015-10-17T10:14:31Z</time>
      </trkpt>
      <trkpt lat="44.42102" lon="4.85332">
        <ele>144.8</ele>
        <time>2015-10-17T10:14:32Z</time>
      </trkpt>
      <trkpt lat="44.42115" lon="4.85348">
        <ele>145.3</ele>
        <time>2015-10-17T10:14:33Z</time>
      </trkpt>
      <trkpt lat="44.42158" lon="4.85418">
        <ele>147.2</ele>
        <time>2015-10-17T10:14:37Z</time>
      </trkpt>
      <trkpt lat="44.42166" lon="4.85439">
        <ele>147.7</ele>
        <time>2015-10-17T10:14:38Z</time>
      </trkpt>
      <trkpt lat="44.42171" lon="4.85461">
        <ele>148.7</ele>
        <time>2015-10-17T10:14:39Z</time>
      </trkpt>
      <trkpt lat="44.42176" lon="4.85484">
        <ele>149.1</ele>
        <time>2015-10-17T10:14:40Z</time>
      </trkpt>
      <trkpt lat="44.42179" lon="4.85509">
        <ele>149.1</ele>
        <time>2015-10-17T10:14:41Z</time>
      </trkpt>
      <trkpt lat="44.42181" lon="4.85535">
        <ele>149.6</ele>
        <time>2015-10-17T10:14:42Z</time>
      </trkpt>
      <trkpt lat="44.422" lon="4.85818">
        <ele>150.1</ele>
        <time>2015-10-17T10:14:52Z</time>
      </trkpt>
      <trkpt lat="44.42203" lon="4.85982">
        <ele>151.5</ele>
        <time>2015-10-17T10:14:57Z</time>
      </trkpt>
      <trkpt lat="44.42198" lon="4.86007">
        <ele>151.5</ele>
        <time>2015-10-17T10:14:58Z</time>
      </trkpt>
      <trkpt lat="44.4219" lon="4.86029">
        <ele>151.5</ele>
        <time>2015-10-17T10:14:59Z</time>
      </trkpt>
      <trkpt lat="44.42181" lon="4.86051">
        <ele>151.5</ele>
        <time>2015-10-17T10:15:00Z</time>
      </trkpt>
      <trkpt lat="44.42168" lon="4.8607">
        <ele>150.6</ele>
        <time>2015-10-17T10:15:01Z</time>
      </trkpt>
      <trkpt lat="44.42156" lon="4.86088">
        <ele>150.1</ele>
        <time>2015-10-17T10:15:02Z</time>
      </trkpt>
      <trkpt lat="44.42143" lon="4.86105">
        <ele>150.1</ele>
        <time>2015-10-17T10:15:03Z</time>
      </trkpt>
      <trkpt lat="44.42059" lon="4.86223">
        <ele>150.6</ele>
        <time>2015-10-17T10:15:10Z</time>
      </trkpt>
      <trkpt lat="44.4205" lon="4.86244">
        <ele>151.1</ele>
        <time>2015-10-17T10:15:11Z</time>
      </trkpt>
      <trkpt lat="44.42044" lon="4.86265">
        <ele>150.6</ele>
        <time>2015-10-17T10:15:12Z</time>
      </trkpt>
      <trkpt lat="44.42039" lon="4.86286">
        <ele>150.6</ele>
        <time>2015-10-17T10:15:13Z</time>
      </trkpt>
      <trkpt lat="44.42036" lon="4.86306">
        <ele>150.6</ele>
        <time>2015-10-17T10:15:14Z</time>
      </trkpt>
      <trkpt lat="44.42035" lon="4.86327">
        <ele>150.6</ele>
        <time>2015-10-17T10:15:15Z</time>
      </trkpt>
      <trkpt lat="44.42035" lon="4.86348">
        <ele>150.1</ele>
        <time>2015-10-17T10:15:16Z</time>
      </trkpt>
      <trkpt lat="44.42038" lon="4.86369">
        <ele>150.6</ele>
        <time>2015-10-17T10:15:17Z</time>
      </trkpt>
      <trkpt lat="44.42043" lon="4.86389">
        <ele>151.1</ele>
        <time>2015-10-17T10:15:18Z</time>
      </trkpt>
      <trkpt lat="44.42051" lon="4.86408">
        <ele>153.5</ele>
        <time>2015-10-17T10:15:19Z</time>
      </trkpt>
      <trkpt lat="44.42059" lon="4.86426">
        <ele>154.4</ele>
        <time>2015-10-17T10:15:20Z</time>
      </trkpt>
      <trkpt lat="44.42089" lon="4.86519">
        <ele>157.3</ele>
        <time>2015-10-17T10:15:25Z</time>
      </trkpt>
      <trkpt lat="44.42092" lon="4.86539">
        <ele>157.8</ele>
        <time>2015-10-17T10:15:26Z</time>
      </trkpt>
      <trkpt lat="44.42092" lon="4.86561">
        <ele>158.8</ele>
        <time>2015-10-17T10:15:27Z</time>
      </trkpt>
      <trkpt lat="44.42092" lon="4.86582">
        <ele>159.2</ele>
        <time>2015-10-17T10:15:28Z</time>
      </trkpt>
      <trkpt lat="44.4209" lon="4.86602">
        <ele>159.7</ele>
        <time>2015-10-17T10:15:29Z</time>
      </trkpt>
      <trkpt lat="44.42081" lon="4.86679">
        <ele>161.6</ele>
        <time>2015-10-17T10:15:33Z</time>
      </trkpt>
      <trkpt lat="44.42076" lon="4.86697">
        <ele>162.1</ele>
        <time>2015-10-17T10:15:34Z</time>
      </trkpt>
      <trkpt lat="44.4207" lon="4.86714">
        <ele>162.1</ele>
        <time>2015-10-17T10:15:35Z</time>
      </trkpt>
      <trkpt lat="44.42062" lon="4.8673">
        <ele>162.6</ele>
        <time>2015-10-17T10:15:36Z</time>
      </trkpt>
      <trkpt lat="44.42054" lon="4.86745">
        <ele>163.1</ele>
        <time>2015-10-17T10:15:37Z</time>
      </trkpt>
      <trkpt lat="44.42033" lon="4.8679">
        <ele>163.6</ele>
        <time>2015-10-17T10:15:40Z</time>
      </trkpt>
      <trkpt lat="44.42029" lon="4.86808">
        <ele>164</ele>
        <time>2015-10-17T10:15:41Z</time>
      </trkpt>
      <trkpt lat="44.42026" lon="4.86827">
        <ele>164</ele>
        <time>2015-10-17T10:15:42Z</time>
      </trkpt>
      <trkpt lat="44.42026" lon="4.86846">
        <ele>163.6</ele>
        <time>2015-10-17T10:15:43Z</time>
      </trkpt>
      <trkpt lat="44.42028" lon="4.86867">
        <ele>163.6</ele>
        <time>2015-10-17T10:15:44Z</time>
      </trkpt>
      <trkpt lat="44.42031" lon="4.86888">
        <ele>163.6</ele>
        <time>2015-10-17T10:15:45Z</time>
      </trkpt>
      <trkpt lat="44.42037" lon="4.86911">
        <ele>163.1</ele>
        <time>2015-10-17T10:15:46Z</time>
      </trkpt>
      <trkpt lat="44.42044" lon="4.86935">
        <ele>162.6</ele>
        <time>2015-10-17T10:15:47Z</time>
      </trkpt>
      <trkpt lat="44.42097" lon="4.87137">
        <ele>160.2</ele>
        <time>2015-10-17T10:15:54Z</time>
      </trkpt>
      <trkpt lat="44.42177" lon="4.87429">
        <ele>160.2</ele>
        <time>2015-10-17T10:16:03Z</time>
      </trkpt>
      <trkpt lat="44.4225" lon="4.87717">
        <ele>169.3</ele>
        <time>2015-10-17T10:16:12Z</time>
      </trkpt>
      <trkpt lat="44.42336" lon="4.88064">
        <ele>179.4</ele>
        <time>2015-10-17T10:16:24Z</time>
      </trkpt>
      <trkpt lat="44.42356" lon="4.88195">
        <ele>183.8</ele>
        <time>2015-10-17T10:16:29Z</time>
      </trkpt>
      <trkpt lat="44.42356" lon="4.8822">
        <ele>184.7</ele>
        <time>2015-10-17T10:16:30Z</time>
      </trkpt>
      <trkpt lat="44.42354" lon="4.88245">
        <ele>185.7</ele>
        <time>2015-10-17T10:16:31Z</time>
      </trkpt>
      <trkpt lat="44.4235" lon="4.88269">
        <ele>186.6</ele>
        <time>2015-10-17T10:16:32Z</time>
      </trkpt>
      <trkpt lat="44.42345" lon="4.88295">
        <ele>187.6</ele>
        <time>2015-10-17T10:16:33Z</time>
      </trkpt>
      <trkpt lat="44.42326" lon="4.88413">
        <ele>192.4</ele>
        <time>2015-10-17T10:16:37Z</time>
      </trkpt>
      <trkpt lat="44.42327" lon="4.88439">
        <ele>193.4</ele>
        <time>2015-10-17T10:16:38Z</time>
      </trkpt>
      <trkpt lat="44.42329" lon="4.88618">
        <ele>200.6</ele>
        <time>2015-10-17T10:16:46Z</time>
      </trkpt>
      <trkpt lat="44.42325" lon="4.88638">
        <ele>201.1</ele>
        <time>2015-10-17T10:16:47Z</time>
      </trkpt>
      <trkpt lat="44.42319" lon="4.88659">
        <ele>202</ele>
        <time>2015-10-17T10:16:48Z</time>
      </trkpt>
      <trkpt lat="44.42312" lon="4.8868">
        <ele>202.5</ele>
        <time>2015-10-17T10:16:49Z</time>
      </trkpt>
      <trkpt lat="44.42304" lon="4.88702">
        <ele>203.5</ele>
        <time>2015-10-17T10:16:50Z</time>
      </trkpt>
      <trkpt lat="44.42205" lon="4.88967">
        <ele>207.3</ele>
        <time>2015-10-17T10:17:01Z</time>
      </trkpt>
      <trkpt lat="44.42118" lon="4.89199">
        <ele>204.4</ele>
        <time>2015-10-17T10:17:10Z</time>
      </trkpt>
      <trkpt lat="44.42018" lon="4.89463">
        <ele>207.8</ele>
        <time>2015-10-17T10:17:20Z</time>
      </trkpt>
      <trkpt lat="44.41943" lon="4.89667">
        <ele>207.8</ele>
        <time>2015-10-17T10:17:29Z</time>
      </trkpt>
      <trkpt lat="44.41906" lon="4.89761">
        <ele>206.8</ele>
        <time>2015-10-17T10:17:35Z</time>
      </trkpt>
      <trkpt lat="44.41903" lon="4.8978">
        <ele>206.8</ele>
        <time>2015-10-17T10:17:36Z</time>
      </trkpt>
      <trkpt lat="44.41902" lon="4.898">
        <ele>206.3</ele>
        <time>2015-10-17T10:17:37Z</time>
      </trkpt>
      <trkpt lat="44.41903" lon="4.8984">
        <ele>205.9</ele>
        <time>2015-10-17T10:17:39Z</time>
      </trkpt>
      <trkpt lat="44.41906" lon="4.90032">
        <ele>201.5</ele>
        <time>2015-10-17T10:17:49Z</time>
      </trkpt>
      <trkpt lat="44.41902" lon="4.9005">
        <ele>200.6</ele>
        <time>2015-10-17T10:17:50Z</time>
      </trkpt>
      <trkpt lat="44.41897" lon="4.90068">
        <ele>199.6</ele>
        <time>2015-10-17T10:17:51Z</time>
      </trkpt>
      <trkpt lat="44.41891" lon="4.90084">
        <ele>199.1</ele>
        <time>2015-10-17T10:17:52Z</time>
      </trkpt>
      <trkpt lat="44.41884" lon="4.901">
        <ele>198.2</ele>
        <time>2015-10-17T10:17:53Z</time>
      </trkpt>
      <trkpt lat="44.41875" lon="4.90114">
        <ele>197.2</ele>
        <time>2015-10-17T10:17:54Z</time>
      </trkpt>
      <trkpt lat="44.41865" lon="4.90128">
        <ele>196.3</ele>
        <time>2015-10-17T10:17:55Z</time>
      </trkpt>
      <trkpt lat="44.41853" lon="4.90141">
        <ele>195.8</ele>
        <time>2015-10-17T10:17:56Z</time>
      </trkpt>
      <trkpt lat="44.41841" lon="4.90152">
        <ele>194.8</ele>
        <time>2015-10-17T10:17:57Z</time>
      </trkpt>
      <trkpt lat="44.41827" lon="4.90161">
        <ele>193.8</ele>
        <time>2015-10-17T10:17:58Z</time>
      </trkpt>
      <trkpt lat="44.41813" lon="4.90168">
        <ele>193.4</ele>
        <time>2015-10-17T10:17:59Z</time>
      </trkpt>
      <trkpt lat="44.41798" lon="4.90173">
        <ele>192.4</ele>
        <time>2015-10-17T10:18:00Z</time>
      </trkpt>
      <trkpt lat="44.41783" lon="4.90175">
        <ele>191.4</ele>
        <time>2015-10-17T10:18:01Z</time>
      </trkpt>
      <trkpt lat="44.41767" lon="4.90175">
        <ele>190.5</ele>
        <time>2015-10-17T10:18:02Z</time>
      </trkpt>
      <trkpt lat="44.41751" lon="4.90172">
        <ele>190.5</ele>
        <time>2015-10-17T10:18:03Z</time>
      </trkpt>
      <trkpt lat="44.41632" lon="4.90162">
        <ele>188.1</ele>
        <time>2015-10-17T10:18:10Z</time>
      </trkpt>
      <trkpt lat="44.41616" lon="4.90165">
        <ele>187.6</ele>
        <time>2015-10-17T10:18:11Z</time>
      </trkpt>
      <trkpt lat="44.416" lon="4.90173">
        <ele>187.1</ele>
        <time>2015-10-17T10:18:12Z</time>
      </trkpt>
      <trkpt lat="44.41585" lon="4.90186">
        <ele>186.6</ele>
        <time>2015-10-17T10:18:13Z</time>
      </trkpt>
      <trkpt lat="44.41571" lon="4.90205">
        <ele>186.2</ele>
        <time>2015-10-17T10:18:14Z</time>
      </trkpt>
      <trkpt lat="44.41556" lon="4.9023">
        <ele>185.7</ele>
        <time>2015-10-17T10:18:15Z</time>
      </trkpt>
      <trkpt lat="44.41539" lon="4.90256">
        <ele>185.7</ele>
        <time>2015-10-17T10:18:16Z</time>
      </trkpt>
      <trkpt lat="44.41447" lon="4.90398">
        <ele>185.2</ele>
        <time>2015-10-17T10:18:22Z</time>
      </trkpt>
      <trkpt lat="44.41441" lon="4.90422">
        <ele>185.2</ele>
        <time>2015-10-17T10:18:23Z</time>
      </trkpt>
      <trkpt lat="44.41438" lon="4.90449">
        <ele>184.7</ele>
        <time>2015-10-17T10:18:24Z</time>
      </trkpt>
      <trkpt lat="44.41442" lon="4.90478">
        <ele>184.7</ele>
        <time>2015-10-17T10:18:25Z</time>
      </trkpt>
      <trkpt lat="44.41448" lon="4.90506">
        <ele>184.7</ele>
        <time>2015-10-17T10:18:26Z</time>
      </trkpt>
      <trkpt lat="44.41455" lon="4.90533">
        <ele>185.7</ele>
        <time>2015-10-17T10:18:27Z</time>
      </trkpt>
      <trkpt lat="44.41464" lon="4.90558">
        <ele>186.6</ele>
        <time>2015-10-17T10:18:28Z</time>
      </trkpt>
      <trkpt lat="44.41473" lon="4.90581">
        <ele>187.1</ele>
        <time>2015-10-17T10:18:29Z</time>
      </trkpt>
      <trkpt lat="44.41482" lon="4.90603">
        <ele>187.6</ele>
        <time>2015-10-17T10:18:30Z</time>
      </trkpt>
      <trkpt lat="44.41559" lon="4.90726">
        <ele>189.5</ele>
        <time>2015-10-17T10:18:37Z</time>
      </trkpt>
      <trkpt lat="44.41581" lon="4.90757">
        <ele>189.5</ele>
        <time>2015-10-17T10:18:39Z</time>
      </trkpt>
      <trkpt lat="44.4159" lon="4.90775">
        <ele>189.5</ele>
        <time>2015-10-17T10:18:40Z</time>
      </trkpt>
      <trkpt lat="44.41596" lon="4.90795">
        <ele>189.5</ele>
        <time>2015-10-17T10:18:41Z</time>
      </trkpt>
      <trkpt lat="44.416" lon="4.90816">
        <ele>189.5</ele>
        <time>2015-10-17T10:18:42Z</time>
      </trkpt>
      <trkpt lat="44.41604" lon="4.90836">
        <ele>190</ele>
        <time>2015-10-17T10:18:43Z</time>
      </trkpt>
      <trkpt lat="44.4162" lon="4.90925">
        <ele>191.4</ele>
        <time>2015-10-17T10:18:48Z</time>
      </trkpt>
      <trkpt lat="44.41626" lon="4.90939">
        <ele>191.4</ele>
        <time>2015-10-17T10:18:49Z</time>
      </trkpt>
      <trkpt lat="44.41637" lon="4.90947">
        <ele>191.9</ele>
        <time>2015-10-17T10:18:50Z</time>
      </trkpt>
      <trkpt lat="44.41646" lon="4.90955">
        <ele>191.9</ele>
        <time>2015-10-17T10:18:51Z</time>
      </trkpt>
      <trkpt lat="44.41656" lon="4.90962">
        <ele>191.9</ele>
        <time>2015-10-17T10:18:52Z</time>
      </trkpt>
      <trkpt lat="44.41694" lon="4.90999">
        <ele>191.4</ele>
        <time>2015-10-17T10:18:57Z</time>
      </trkpt>
      <trkpt lat="44.41698" lon="4.91009">
        <ele>191</ele>
        <time>2015-10-17T10:18:58Z</time>
      </trkpt>
      <trkpt lat="44.41701" lon="4.91019">
        <ele>191</ele>
        <time>2015-10-17T10:18:59Z</time>
      </trkpt>
      <trkpt lat="44.41702" lon="4.91028">
        <ele>191</ele>
        <time>2015-10-17T10:19:00Z</time>
      </trkpt>
      <trkpt lat="44.41703" lon="4.91035">
        <ele>191</ele>
        <time>2015-10-17T10:19:01Z</time>
      </trkpt>
      <trkpt lat="44.41703" lon="4.91043">
        <ele>191.9</ele>
        <time>2015-10-17T10:19:10Z</time>
      </trkpt>
      <trkpt lat="44.41704" lon="4.91046">
        <ele>191.9</ele>
        <time>2015-10-17T10:19:11Z</time>
      </trkpt>
      <trkpt lat="44.41708" lon="4.91049">
        <ele>191.9</ele>
        <time>2015-10-17T10:19:12Z</time>
      </trkpt>
      <trkpt lat="44.41714" lon="4.91052">
        <ele>191.9</ele>
        <time>2015-10-17T10:19:13Z</time>
      </trkpt>
      <trkpt lat="44.41721" lon="4.91054">
        <ele>191.9</ele>
        <time>2015-10-17T10:19:14Z</time>
      </trkpt>
      <trkpt lat="44.4173" lon="4.91055">
        <ele>192.4</ele>
        <time>2015-10-17T10:19:15Z</time>
      </trkpt>
      <trkpt lat="44.4174" lon="4.91054">
        <ele>192.4</ele>
        <time>2015-10-17T10:19:16Z</time>
      </trkpt>
      <trkpt lat="44.41749" lon="4.91053">
        <ele>192.9</ele>
        <time>2015-10-17T10:19:17Z</time>
      </trkpt>
      <trkpt lat="44.41869" lon="4.91042">
        <ele>195.8</ele>
        <time>2015-10-17T10:19:28Z</time>
      </trkpt>
      <trkpt lat="44.41953" lon="4.91033">
        <ele>197.7</ele>
        <time>2015-10-17T10:19:37Z</time>
      </trkpt>
      <trkpt lat="44.41961" lon="4.91034">
        <ele>197.7</ele>
        <time>2015-10-17T10:19:38Z</time>
      </trkpt>
      <trkpt lat="44.41972" lon="4.91036">
        <ele>196.7</ele>
        <time>2015-10-17T10:19:40Z</time>
      </trkpt>
      <trkpt lat="44.41978" lon="4.91034">
        <ele>196.7</ele>
        <time>2015-10-17T10:19:41Z</time>
      </trkpt>
      <trkpt lat="44.41983" lon="4.9103">
        <ele>197.2</ele>
        <time>2015-10-17T10:19:42Z</time>
      </trkpt>
      <trkpt lat="44.4202" lon="4.90995">
        <ele>201.1</ele>
        <time>2015-10-17T10:19:48Z</time>
      </trkpt>
      <trkpt lat="44.42027" lon="4.90987">
        <ele>202</ele>
        <time>2015-10-17T10:19:49Z</time>
      </trkpt>
      <trkpt lat="44.42032" lon="4.90978">
        <ele>202.5</ele>
        <time>2015-10-17T10:19:50Z</time>
      </trkpt>
      <trkpt lat="44.42037" lon="4.90971">
        <ele>203.5</ele>
        <time>2015-10-17T10:19:51Z</time>
      </trkpt>
      <trkpt lat="44.42042" lon="4.90964">
        <ele>204.4</ele>
        <time>2015-10-17T10:19:52Z</time>
      </trkpt>
      <trkpt lat="44.42045" lon="4.90958">
        <ele>204.4</ele>
        <time>2015-10-17T10:19:53Z</time>
      </trkpt>
      <trkpt lat="44.42048" lon="4.90949">
        <ele>207.8</ele>
        <time>2015-10-17T10:19:54Z</time>
      </trkpt>
      <trkpt lat="44.42053" lon="4.90946">
        <ele>208.7</ele>
        <time>2015-10-17T10:19:55Z</time>
      </trkpt>
      <trkpt lat="44.42092" lon="4.9091">
        <ele>208.7</ele>
        <time>2015-10-17T10:20:03Z</time>
      </trkpt>
      <trkpt lat="44.42095" lon="4.90903">
        <ele>208.3</ele>
        <time>2015-10-17T10:20:04Z</time>
      </trkpt>
      <trkpt lat="44.42098" lon="4.90896">
        <ele>208.3</ele>
        <time>2015-10-17T10:20:05Z</time>
      </trkpt>
      <trkpt lat="44.42101" lon="4.9089">
        <ele>208.3</ele>
        <time>2015-10-17T10:20:06Z</time>
      </trkpt>
      <trkpt lat="44.42102" lon="4.90884">
        <ele>208.3</ele>
        <time>2015-10-17T10:20:07Z</time>
      </trkpt>
      <trkpt lat="44.42103" lon="4.90878">
        <ele>207.8</ele>
        <time>2015-10-17T10:20:08Z</time>
      </trkpt>
      <trkpt lat="44.42104" lon="4.90874">
        <ele>206.8</ele>
        <time>2015-10-17T10:20:09Z</time>
      </trkpt>
      <trkpt lat="44.42101" lon="4.90868">
        <ele>205.4</ele>
        <time>2015-10-17T10:20:11Z</time>
      </trkpt>
      <trkpt lat="44.42099" lon="4.90864">
        <ele>204.4</ele>
        <time>2015-10-17T10:20:12Z</time>
      </trkpt>
      <trkpt lat="44.42098" lon="4.9086">
        <ele>204.4</ele>
        <time>2015-10-17T10:20:13Z</time>
      </trkpt>
      <trkpt lat="44.42098" lon="4.90856">
        <ele>203.9</ele>
        <time>2015-10-17T10:20:14Z</time>
      </trkpt>
      <trkpt lat="44.42099" lon="4.90853">
        <ele>203.9</ele>
        <time>2015-10-17T10:20:15Z</time>
      </trkpt>
      <trkpt lat="44.42101" lon="4.90851">
        <ele>203.9</ele>
        <time>2015-10-17T10:20:16Z</time>
      </trkpt>
      <trkpt lat="44.42105" lon="4.90849">
        <ele>203.5</ele>
        <time>2015-10-17T10:20:17Z</time>
      </trkpt>
      <trkpt lat="44.42109" lon="4.90848">
        <ele>203</ele>
        <time>2015-10-17T10:20:18Z</time>
      </trkpt>
      <trkpt lat="44.42163" lon="4.90827">
        <ele>205.4</ele>
        <time>2015-10-17T10:20:27Z</time>
      </trkpt>
      <trkpt lat="44.42257" lon="4.90791">
        <ele>209.2</ele>
        <time>2015-10-17T10:20:37Z</time>
      </trkpt>
      <trkpt lat="44.42398" lon="4.9074">
        <ele>217.4</ele>
        <time>2015-10-17T10:20:47Z</time>
      </trkpt>
      <trkpt lat="44.42588" lon="4.90675">
        <ele>225.1</ele>
        <time>2015-10-17T10:20:59Z</time>
      </trkpt>
      <trkpt lat="44.42759" lon="4.90673">
        <ele>218.8</ele>
        <time>2015-10-17T10:21:08Z</time>
      </trkpt>
      <trkpt lat="44.42958" lon="4.90673">
        <ele>224.6</ele>
        <time>2015-10-17T10:21:18Z</time>
      </trkpt>
      <trkpt lat="44.43027" lon="4.90644">
        <ele>226.5</ele>
        <time>2015-10-17T10:21:22Z</time>
      </trkpt>
      <trkpt lat="44.43041" lon="4.90631">
        <ele>227</ele>
        <time>2015-10-17T10:21:23Z</time>
      </trkpt>
      <trkpt lat="44.43052" lon="4.90609">
        <ele>226.1</ele>
        <time>2015-10-17T10:21:24Z</time>
      </trkpt>
      <trkpt lat="44.4306" lon="4.90587">
        <ele>225.6</ele>
        <time>2015-10-17T10:21:25Z</time>
      </trkpt>
      <trkpt lat="44.43062" lon="4.90565">
        <ele>225.6</ele>
        <time>2015-10-17T10:21:26Z</time>
      </trkpt>
      <trkpt lat="44.43063" lon="4.90544">
        <ele>224.6</ele>
        <time>2015-10-17T10:21:27Z</time>
      </trkpt>
      <trkpt lat="44.43062" lon="4.90525">
        <ele>223.6</ele>
        <time>2015-10-17T10:21:28Z</time>
      </trkpt>
      <trkpt lat="44.43062" lon="4.90509">
        <ele>222.7</ele>
        <time>2015-10-17T10:21:29Z</time>
      </trkpt>
      <trkpt lat="44.43065" lon="4.90498">
        <ele>222.2</ele>
        <time>2015-10-17T10:21:30Z</time>
      </trkpt>
      <trkpt lat="44.43072" lon="4.90492">
        <ele>220.8</ele>
        <time>2015-10-17T10:21:31Z</time>
      </trkpt>
      <trkpt lat="44.4308" lon="4.90488">
        <ele>220.3</ele>
        <time>2015-10-17T10:21:32Z</time>
      </trkpt>
      <trkpt lat="44.4309" lon="4.9049">
        <ele>219.8</ele>
        <time>2015-10-17T10:21:33Z</time>
      </trkpt>
      <trkpt lat="44.431" lon="4.905">
        <ele>218.4</ele>
        <time>2015-10-17T10:21:34Z</time>
      </trkpt>
      <trkpt lat="44.43109" lon="4.90516">
        <ele>217.9</ele>
        <time>2015-10-17T10:21:35Z</time>
      </trkpt>
      <trkpt lat="44.43117" lon="4.90533">
        <ele>216.9</ele>
        <time>2015-10-17T10:21:36Z</time>
      </trkpt>
      <trkpt lat="44.43126" lon="4.90555">
        <ele>215.5</ele>
        <time>2015-10-17T10:21:37Z</time>
      </trkpt>
      <trkpt lat="44.43135" lon="4.90576">
        <ele>213.1</ele>
        <time>2015-10-17T10:21:38Z</time>
      </trkpt>
      <trkpt lat="44.43226" lon="4.90698">
        <ele>203.9</ele>
        <time>2015-10-17T10:21:45Z</time>
      </trkpt>
      <trkpt lat="44.43243" lon="4.90709">
        <ele>203</ele>
        <time>2015-10-17T10:21:46Z</time>
      </trkpt>
      <trkpt lat="44.43305" lon="4.90744">
        <ele>197.7</ele>
        <time>2015-10-17T10:21:50Z</time>
      </trkpt>
      <trkpt lat="44.43321" lon="4.90744">
        <ele>196.7</ele>
        <time>2015-10-17T10:21:51Z</time>
      </trkpt>
      <trkpt lat="44.43338" lon="4.90739">
        <ele>195.8</ele>
        <time>2015-10-17T10:21:52Z</time>
      </trkpt>
      <trkpt lat="44.43354" lon="4.90731">
        <ele>194.3</ele>
        <time>2015-10-17T10:21:53Z</time>
      </trkpt>
      <trkpt lat="44.43369" lon="4.90719">
        <ele>193.8</ele>
        <time>2015-10-17T10:21:54Z</time>
      </trkpt>
      <trkpt lat="44.43383" lon="4.90705">
        <ele>192.9</ele>
        <time>2015-10-17T10:21:55Z</time>
      </trkpt>
      <trkpt lat="44.43495" lon="4.90609">
        <ele>191.9</ele>
        <time>2015-10-17T10:22:04Z</time>
      </trkpt>
      <trkpt lat="44.43501" lon="4.90608">
        <ele>192.4</ele>
        <time>2015-10-17T10:22:05Z</time>
      </trkpt>
      <trkpt lat="44.43504" lon="4.90612">
        <ele>192.4</ele>
        <time>2015-10-17T10:22:06Z</time>
      </trkpt>
      <trkpt lat="44.43507" lon="4.90618">
        <ele>192.9</ele>
        <time>2015-10-17T10:22:07Z</time>
      </trkpt>
      <trkpt lat="44.4351" lon="4.90627">
        <ele>193.4</ele>
        <time>2015-10-17T10:22:08Z</time>
      </trkpt>
      <trkpt lat="44.43513" lon="4.90637">
        <ele>194.3</ele>
        <time>2015-10-17T10:22:09Z</time>
      </trkpt>
      <trkpt lat="44.43554" lon="4.90725">
        <ele>197.7</ele>
        <time>2015-10-17T10:22:15Z</time>
      </trkpt>
      <trkpt lat="44.43631" lon="4.90903">
        <ele>203</ele>
        <time>2015-10-17T10:22:23Z</time>
      </trkpt>
      <trkpt lat="44.43701" lon="4.91117">
        <ele>206.8</ele>
        <time>2015-10-17T10:22:32Z</time>
      </trkpt>
      <trkpt lat="44.43821" lon="4.91321">
        <ele>213.1</ele>
        <time>2015-10-17T10:22:42Z</time>
      </trkpt>
      <trkpt lat="44.43973" lon="4.91467">
        <ele>217.4</ele>
        <time>2015-10-17T10:22:51Z</time>
      </trkpt>
      <trkpt lat="44.4418" lon="4.91651">
        <ele>223.2</ele>
        <time>2015-10-17T10:23:02Z</time>
      </trkpt>
      <trkpt lat="44.44427" lon="4.91872">
        <ele>230.4</ele>
        <time>2015-10-17T10:23:16Z</time>
      </trkpt>
      <trkpt lat="44.4444" lon="4.9189">
        <ele>230.9</ele>
        <time>2015-10-17T10:23:17Z</time>
      </trkpt>
      <trkpt lat="44.44452" lon="4.91911">
        <ele>231.3</ele>
        <time>2015-10-17T10:23:18Z</time>
      </trkpt>
      <trkpt lat="44.44464" lon="4.91934">
        <ele>231.8</ele>
        <time>2015-10-17T10:23:19Z</time>
      </trkpt>
      <trkpt lat="44.44476" lon="4.91958">
        <ele>231.8</ele>
        <time>2015-10-17T10:23:20Z</time>
      </trkpt>
      <trkpt lat="44.44652" lon="4.92319">
        <ele>238.5</ele>
        <time>2015-10-17T10:23:34Z</time>
      </trkpt>
      <trkpt lat="44.44813" lon="4.92546">
        <ele>241.9</ele>
        <time>2015-10-17T10:23:44Z</time>
      </trkpt>
      <trkpt lat="44.44886" lon="4.9267">
        <ele>242.9</ele>
        <time>2015-10-17T10:23:50Z</time>
      </trkpt>
      <trkpt lat="44.44898" lon="4.92686">
        <ele>242.9</ele>
        <time>2015-10-17T10:23:51Z</time>
      </trkpt>
      <trkpt lat="44.44914" lon="4.92693">
        <ele>242.9</ele>
        <time>2015-10-17T10:23:52Z</time>
      </trkpt>
      <trkpt lat="44.44932" lon="4.92698">
        <ele>242.4</ele>
        <time>2015-10-17T10:23:53Z</time>
      </trkpt>
      <trkpt lat="44.4495" lon="4.92702">
        <ele>242.4</ele>
        <time>2015-10-17T10:23:54Z</time>
      </trkpt>
      <trkpt lat="44.44969" lon="4.92707">
        <ele>242.4</ele>
        <time>2015-10-17T10:23:55Z</time>
      </trkpt>
      <trkpt lat="44.45014" lon="4.92724">
        <ele>242.4</ele>
        <time>2015-10-17T10:23:58Z</time>
      </trkpt>
      <trkpt lat="44.45024" lon="4.92737">
        <ele>241.9</ele>
        <time>2015-10-17T10:23:59Z</time>
      </trkpt>
      <trkpt lat="44.4503" lon="4.92755">
        <ele>241.9</ele>
        <time>2015-10-17T10:24:00Z</time>
      </trkpt>
      <trkpt lat="44.45035" lon="4.92774">
        <ele>242.4</ele>
        <time>2015-10-17T10:24:01Z</time>
      </trkpt>
      <trkpt lat="44.45038" lon="4.92794">
        <ele>242.9</ele>
        <time>2015-10-17T10:24:02Z</time>
      </trkpt>
      <trkpt lat="44.4504" lon="4.92815">
        <ele>242.9</ele>
        <time>2015-10-17T10:24:03Z</time>
      </trkpt>
      <trkpt lat="44.45037" lon="4.92836">
        <ele>243.4</ele>
        <time>2015-10-17T10:24:04Z</time>
      </trkpt>
      <trkpt lat="44.4503" lon="4.92854">
        <ele>243.8</ele>
        <time>2015-10-17T10:24:05Z</time>
      </trkpt>
      <trkpt lat="44.45017" lon="4.92869">
        <ele>244.3</ele>
        <time>2015-10-17T10:24:06Z</time>
      </trkpt>
      <trkpt lat="44.45004" lon="4.92884">
        <ele>244.8</ele>
        <time>2015-10-17T10:24:07Z</time>
      </trkpt>
      <trkpt lat="44.4499" lon="4.92899">
        <ele>245.8</ele>
        <time>2015-10-17T10:24:08Z</time>
      </trkpt>
      <trkpt lat="44.44946" lon="4.92955">
        <ele>248.6</ele>
        <time>2015-10-17T10:24:12Z</time>
      </trkpt>
      <trkpt lat="44.44943" lon="4.92971">
        <ele>249.6</ele>
        <time>2015-10-17T10:24:13Z</time>
      </trkpt>
      <trkpt lat="44.44944" lon="4.92988">
        <ele>250.1</ele>
        <time>2015-10-17T10:24:14Z</time>
      </trkpt>
      <trkpt lat="44.44949" lon="4.93002">
        <ele>250.6</ele>
        <time>2015-10-17T10:24:15Z</time>
      </trkpt>
      <trkpt lat="44.44957" lon="4.93012">
        <ele>251</ele>
        <time>2015-10-17T10:24:16Z</time>
      </trkpt>
      <trkpt lat="44.4497" lon="4.93016">
        <ele>251.5</ele>
        <time>2015-10-17T10:24:17Z</time>
      </trkpt>
      <trkpt lat="44.44986" lon="4.93019">
        <ele>252</ele>
        <time>2015-10-17T10:24:18Z</time>
      </trkpt>
      <trkpt lat="44.45002" lon="4.93021">
        <ele>253</ele>
        <time>2015-10-17T10:24:19Z</time>
      </trkpt>
      <trkpt lat="44.45088" lon="4.93046">
        <ele>257.8</ele>
        <time>2015-10-17T10:24:25Z</time>
      </trkpt>
      <trkpt lat="44.45097" lon="4.93054">
        <ele>258.3</ele>
        <time>2015-10-17T10:24:26Z</time>
      </trkpt>
      <trkpt lat="44.45103" lon="4.93062">
        <ele>258.7</ele>
        <time>2015-10-17T10:24:27Z</time>
      </trkpt>
      <trkpt lat="44.45108" lon="4.93068">
        <ele>259.2</ele>
        <time>2015-10-17T10:24:28Z</time>
      </trkpt>
      <trkpt lat="44.45112" lon="4.93069">
        <ele>259.7</ele>
        <time>2015-10-17T10:24:29Z</time>
      </trkpt>
      <trkpt lat="44.45114" lon="4.93068">
        <ele>260.2</ele>
        <time>2015-10-17T10:24:36Z</time>
      </trkpt>
      <trkpt lat="44.45118" lon="4.93057">
        <ele>260.7</ele>
        <time>2015-10-17T10:24:41Z</time>
      </trkpt>
      <trkpt lat="44.4512" lon="4.93046">
        <ele>261.1</ele>
        <time>2015-10-17T10:24:42Z</time>
      </trkpt>
      <trkpt lat="44.45132" lon="4.93004">
        <ele>262.6</ele>
        <time>2015-10-17T10:24:45Z</time>
      </trkpt>
      <trkpt lat="44.45139" lon="4.92989">
        <ele>263.1</ele>
        <time>2015-10-17T10:24:46Z</time>
      </trkpt>
      <trkpt lat="44.45148" lon="4.92975">
        <ele>263.1</ele>
        <time>2015-10-17T10:24:47Z</time>
      </trkpt>
      <trkpt lat="44.45159" lon="4.92962">
        <ele>263.5</ele>
        <time>2015-10-17T10:24:48Z</time>
      </trkpt>
      <trkpt lat="44.45176" lon="4.92952">
        <ele>264.5</ele>
        <time>2015-10-17T10:24:49Z</time>
      </trkpt>
      <trkpt lat="44.45192" lon="4.92945">
        <ele>265</ele>
        <time>2015-10-17T10:24:50Z</time>
      </trkpt>
      <trkpt lat="44.45209" lon="4.92939">
        <ele>265.5</ele>
        <time>2015-10-17T10:24:51Z</time>
      </trkpt>
      <trkpt lat="44.45243" lon="4.9293">
        <ele>267.4</ele>
        <time>2015-10-17T10:24:53Z</time>
      </trkpt>
      <trkpt lat="44.45262" lon="4.92931">
        <ele>267.9</ele>
        <time>2015-10-17T10:24:54Z</time>
      </trkpt>
      <trkpt lat="44.4528" lon="4.92932">
        <ele>268.8</ele>
        <time>2015-10-17T10:24:55Z</time>
      </trkpt>
      <trkpt lat="44.4544" lon="4.92946">
        <ele>274.1</ele>
        <time>2015-10-17T10:25:03Z</time>
      </trkpt>
      <trkpt lat="44.45589" lon="4.92968">
        <ele>275.1</ele>
        <time>2015-10-17T10:25:10Z</time>
      </trkpt>
      <trkpt lat="44.45779" lon="4.93067">
        <ele>279.4</ele>
        <time>2015-10-17T10:25:19Z</time>
      </trkpt>
      <trkpt lat="44.46001" lon="4.93192">
        <ele>288.5</ele>
        <time>2015-10-17T10:25:30Z</time>
      </trkpt>
      <trkpt lat="44.46395" lon="4.93385">
        <ele>308.2</ele>
        <time>2015-10-17T10:25:49Z</time>
      </trkpt>
      <trkpt lat="44.4668" lon="4.93528">
        <ele>323.1</ele>
        <time>2015-10-17T10:26:03Z</time>
      </trkpt>
      <trkpt lat="44.46695" lon="4.9354">
        <ele>324.1</ele>
        <time>2015-10-17T10:26:04Z</time>
      </trkpt>
      <trkpt lat="44.46709" lon="4.93554">
        <ele>325.5</ele>
        <time>2015-10-17T10:26:05Z</time>
      </trkpt>
      <trkpt lat="44.46722" lon="4.9357">
        <ele>326.5</ele>
        <time>2015-10-17T10:26:06Z</time>
      </trkpt>
      <trkpt lat="44.46734" lon="4.93588">
        <ele>328</ele>
        <time>2015-10-17T10:26:07Z</time>
      </trkpt>
      <trkpt lat="44.46745" lon="4.93607">
        <ele>328.9</ele>
        <time>2015-10-17T10:26:08Z</time>
      </trkpt>
      <trkpt lat="44.46848" lon="4.9378">
        <ele>338</ele>
        <time>2015-10-17T10:26:18Z</time>
      </trkpt>
      <trkpt lat="44.46865" lon="4.93792">
        <ele>339.5</ele>
        <time>2015-10-17T10:26:19Z</time>
      </trkpt>
      <trkpt lat="44.46884" lon="4.93806">
        <ele>340.4</ele>
        <time>2015-10-17T10:26:20Z</time>
      </trkpt>
      <trkpt lat="44.46941" lon="4.93857">
        <ele>344.3</ele>
        <time>2015-10-17T10:26:23Z</time>
      </trkpt>
      <trkpt lat="44.46957" lon="4.93881">
        <ele>345.7</ele>
        <time>2015-10-17T10:26:24Z</time>
      </trkpt>
      <trkpt lat="44.46969" lon="4.9391">
        <ele>347.2</ele>
        <time>2015-10-17T10:26:25Z</time>
      </trkpt>
      <trkpt lat="44.4698" lon="4.93939">
        <ele>348.6</ele>
        <time>2015-10-17T10:26:26Z</time>
      </trkpt>
      <trkpt lat="44.4699" lon="4.93966">
        <ele>350.1</ele>
        <time>2015-10-17T10:26:27Z</time>
      </trkpt>
      <trkpt lat="44.47002" lon="4.93992">
        <ele>351</ele>
        <time>2015-10-17T10:26:28Z</time>
      </trkpt>
      <trkpt lat="44.47015" lon="4.94014">
        <ele>352.5</ele>
        <time>2015-10-17T10:26:29Z</time>
      </trkpt>
      <trkpt lat="44.47032" lon="4.94034">
        <ele>353.9</ele>
        <time>2015-10-17T10:26:30Z</time>
      </trkpt>
      <trkpt lat="44.47052" lon="4.94051">
        <ele>354.9</ele>
        <time>2015-10-17T10:26:31Z</time>
      </trkpt>
      <trkpt lat="44.47074" lon="4.94066">
        <ele>355.8</ele>
        <time>2015-10-17T10:26:32Z</time>
      </trkpt>
      <trkpt lat="44.47096" lon="4.94079">
        <ele>357.3</ele>
        <time>2015-10-17T10:26:33Z</time>
      </trkpt>
      <trkpt lat="44.47117" lon="4.9409">
        <ele>358.2</ele>
        <time>2015-10-17T10:26:34Z</time>
      </trkpt>
      <trkpt lat="44.4716" lon="4.94109">
        <ele>360.6</ele>
        <time>2015-10-17T10:26:36Z</time>
      </trkpt>
      <trkpt lat="44.47182" lon="4.94114">
        <ele>362.1</ele>
        <time>2015-10-17T10:26:37Z</time>
      </trkpt>
      <trkpt lat="44.47443" lon="4.94147">
        <ele>377</ele>
        <time>2015-10-17T10:26:49Z</time>
      </trkpt>
      <trkpt lat="44.47528" lon="4.94165">
        <ele>382.3</ele>
        <time>2015-10-17T10:26:53Z</time>
      </trkpt>
      <trkpt lat="44.47549" lon="4.94176">
        <ele>383.2</ele>
        <time>2015-10-17T10:26:54Z</time>
      </trkpt>
      <trkpt lat="44.4771" lon="4.94271">
        <ele>392.8</ele>
        <time>2015-10-17T10:27:02Z</time>
      </trkpt>
      <trkpt lat="44.4773" lon="4.94274">
        <ele>394.3</ele>
        <time>2015-10-17T10:27:03Z</time>
      </trkpt>
      <trkpt lat="44.4775" lon="4.94275">
        <ele>395.2</ele>
        <time>2015-10-17T10:27:04Z</time>
      </trkpt>
      <trkpt lat="44.47792" lon="4.94274">
        <ele>397.6</ele>
        <time>2015-10-17T10:27:06Z</time>
      </trkpt>
      <trkpt lat="44.47814" lon="4.94279">
        <ele>399.1</ele>
        <time>2015-10-17T10:27:07Z</time>
      </trkpt>
      <trkpt lat="44.47834" lon="4.94288">
        <ele>400.1</ele>
        <time>2015-10-17T10:27:08Z</time>
      </trkpt>
      <trkpt lat="44.47874" lon="4.94299">
        <ele>402.5</ele>
        <time>2015-10-17T10:27:10Z</time>
      </trkpt>
      <trkpt lat="44.47895" lon="4.94299">
        <ele>403.4</ele>
        <time>2015-10-17T10:27:11Z</time>
      </trkpt>
      <trkpt lat="44.47917" lon="4.94297">
        <ele>404.4</ele>
        <time>2015-10-17T10:27:12Z</time>
      </trkpt>
      <trkpt lat="44.48" lon="4.94304">
        <ele>408.7</ele>
        <time>2015-10-17T10:27:16Z</time>
      </trkpt>
      <trkpt lat="44.4802" lon="4.94316">
        <ele>410.1</ele>
        <time>2015-10-17T10:27:17Z</time>
      </trkpt>
      <trkpt lat="44.48038" lon="4.94332">
        <ele>411.1</ele>
        <time>2015-10-17T10:27:18Z</time>
      </trkpt>
      <trkpt lat="44.48093" lon="4.94375">
        <ele>415</ele>
        <time>2015-10-17T10:27:21Z</time>
      </trkpt>
      <trkpt lat="44.48112" lon="4.94383">
        <ele>416.4</ele>
        <time>2015-10-17T10:27:22Z</time>
      </trkpt>
      <trkpt lat="44.48133" lon="4.94387">
        <ele>417.4</ele>
        <time>2015-10-17T10:27:23Z</time>
      </trkpt>
      <trkpt lat="44.48155" lon="4.94383">
        <ele>418.3</ele>
        <time>2015-10-17T10:27:24Z</time>
      </trkpt>
      <trkpt lat="44.48177" lon="4.94375">
        <ele>419.8</ele>
        <time>2015-10-17T10:27:25Z</time>
      </trkpt>
      <trkpt lat="44.48199" lon="4.94363">
        <ele>420.7</ele>
        <time>2015-10-17T10:27:26Z</time>
      </trkpt>
      <trkpt lat="44.48219" lon="4.94349">
        <ele>422.2</ele>
        <time>2015-10-17T10:27:27Z</time>
      </trkpt>
      <trkpt lat="44.4824" lon="4.94332">
        <ele>423.1</ele>
        <time>2015-10-17T10:27:28Z</time>
      </trkpt>
      <trkpt lat="44.48261" lon="4.94316">
        <ele>424.6</ele>
        <time>2015-10-17T10:27:29Z</time>
      </trkpt>
      <trkpt lat="44.48284" lon="4.94302">
        <ele>425.5</ele>
        <time>2015-10-17T10:27:30Z</time>
      </trkpt>
      <trkpt lat="44.48307" lon="4.94291">
        <ele>427</ele>
        <time>2015-10-17T10:27:31Z</time>
      </trkpt>
      <trkpt lat="44.4833" lon="4.94282">
        <ele>428.4</ele>
        <time>2015-10-17T10:27:32Z</time>
      </trkpt>
      <trkpt lat="44.48354" lon="4.94277">
        <ele>429.9</ele>
        <time>2015-10-17T10:27:33Z</time>
      </trkpt>
      <trkpt lat="44.48378" lon="4.94275">
        <ele>431.3</ele>
        <time>2015-10-17T10:27:34Z</time>
      </trkpt>
      <trkpt lat="44.48401" lon="4.94276">
        <ele>432.7</ele>
        <time>2015-10-17T10:27:35Z</time>
      </trkpt>
      <trkpt lat="44.48469" lon="4.94275">
        <ele>436.1</ele>
        <time>2015-10-17T10:27:38Z</time>
      </trkpt>
      <trkpt lat="44.4849" lon="4.94269">
        <ele>437.1</ele>
        <time>2015-10-17T10:27:39Z</time>
      </trkpt>
      <trkpt lat="44.48551" lon="4.94252">
        <ele>439.9</ele>
        <time>2015-10-17T10:27:42Z</time>
      </trkpt>
      <trkpt lat="44.48571" lon="4.94256">
        <ele>440.9</ele>
        <time>2015-10-17T10:27:43Z</time>
      </trkpt>
      <trkpt lat="44.4859" lon="4.94268">
        <ele>441.4</ele>
        <time>2015-10-17T10:27:44Z</time>
      </trkpt>
      <trkpt lat="44.48608" lon="4.94283">
        <ele>442.3</ele>
        <time>2015-10-17T10:27:45Z</time>
      </trkpt>
      <trkpt lat="44.48625" lon="4.94301">
        <ele>443.8</ele>
        <time>2015-10-17T10:27:46Z</time>
      </trkpt>
      <trkpt lat="44.48643" lon="4.94317">
        <ele>444.8</ele>
        <time>2015-10-17T10:27:47Z</time>
      </trkpt>
      <trkpt lat="44.48662" lon="4.9433">
        <ele>445.7</ele>
        <time>2015-10-17T10:27:48Z</time>
      </trkpt>
      <trkpt lat="44.48682" lon="4.94338">
        <ele>446.7</ele>
        <time>2015-10-17T10:27:49Z</time>
      </trkpt>
      <trkpt lat="44.48703" lon="4.9434">
        <ele>447.6</ele>
        <time>2015-10-17T10:27:50Z</time>
      </trkpt>
      <trkpt lat="44.48725" lon="4.9434">
        <ele>448.6</ele>
        <time>2015-10-17T10:27:51Z</time>
      </trkpt>
      <trkpt lat="44.48747" lon="4.94339">
        <ele>450</ele>
        <time>2015-10-17T10:27:52Z</time>
      </trkpt>
      <trkpt lat="44.48769" lon="4.94342">
        <ele>451</ele>
        <time>2015-10-17T10:27:53Z</time>
      </trkpt>
      <trkpt lat="44.48791" lon="4.94352">
        <ele>452</ele>
        <time>2015-10-17T10:27:54Z</time>
      </trkpt>
      <trkpt lat="44.48813" lon="4.94363">
        <ele>453.4</ele>
        <time>2015-10-17T10:27:55Z</time>
      </trkpt>
      <trkpt lat="44.48835" lon="4.94376">
        <ele>454.4</ele>
        <time>2015-10-17T10:27:56Z</time>
      </trkpt>
      <trkpt lat="44.48854" lon="4.94392">
        <ele>455.8</ele>
        <time>2015-10-17T10:27:57Z</time>
      </trkpt>
      <trkpt lat="44.48873" lon="4.94408">
        <ele>457.2</ele>
        <time>2015-10-17T10:27:58Z</time>
      </trkpt>
      <trkpt lat="44.48908" lon="4.94434">
        <ele>459.2</ele>
        <time>2015-10-17T10:28:00Z</time>
      </trkpt>
      <trkpt lat="44.48927" lon="4.94439">
        <ele>460.6</ele>
        <time>2015-10-17T10:28:01Z</time>
      </trkpt>
      <trkpt lat="44.48947" lon="4.94437">
        <ele>461.6</ele>
        <time>2015-10-17T10:28:02Z</time>
      </trkpt>
      <trkpt lat="44.48969" lon="4.94432">
        <ele>462.5</ele>
        <time>2015-10-17T10:28:03Z</time>
      </trkpt>
      <trkpt lat="44.48991" lon="4.94425">
        <ele>463.5</ele>
        <time>2015-10-17T10:28:04Z</time>
      </trkpt>
      <trkpt lat="44.49015" lon="4.94418">
        <ele>464.9</ele>
        <time>2015-10-17T10:28:05Z</time>
      </trkpt>
      <trkpt lat="44.49174" lon="4.94394">
        <ele>473.6</ele>
        <time>2015-10-17T10:28:12Z</time>
      </trkpt>
      <trkpt lat="44.49194" lon="4.9438">
        <ele>474.1</ele>
        <time>2015-10-17T10:28:13Z</time>
      </trkpt>
      <trkpt lat="44.49211" lon="4.94359">
        <ele>475.5</ele>
        <time>2015-10-17T10:28:14Z</time>
      </trkpt>
      <trkpt lat="44.49227" lon="4.94336">
        <ele>477.4</ele>
        <time>2015-10-17T10:28:15Z</time>
      </trkpt>
      <trkpt lat="44.49241" lon="4.9431">
        <ele>478.4</ele>
        <time>2015-10-17T10:28:16Z</time>
      </trkpt>
      <trkpt lat="44.49253" lon="4.94281">
        <ele>479.4</ele>
        <time>2015-10-17T10:28:17Z</time>
      </trkpt>
      <trkpt lat="44.49263" lon="4.9425">
        <ele>480.3</ele>
        <time>2015-10-17T10:28:18Z</time>
      </trkpt>
      <trkpt lat="44.4927" lon="4.94217">
        <ele>481.3</ele>
        <time>2015-10-17T10:28:19Z</time>
      </trkpt>
      <trkpt lat="44.49278" lon="4.94185">
        <ele>482.7</ele>
        <time>2015-10-17T10:28:20Z</time>
      </trkpt>
      <trkpt lat="44.49339" lon="4.93967">
        <ele>490.9</ele>
        <time>2015-10-17T10:28:28Z</time>
      </trkpt>
      <trkpt lat="44.49351" lon="4.93953">
        <ele>491.4</ele>
        <time>2015-10-17T10:28:29Z</time>
      </trkpt>
      <trkpt lat="44.49366" lon="4.93941">
        <ele>491.9</ele>
        <time>2015-10-17T10:28:30Z</time>
      </trkpt>
      <trkpt lat="44.49382" lon="4.9393">
        <ele>491.9</ele>
        <time>2015-10-17T10:28:31Z</time>
      </trkpt>
      <trkpt lat="44.494" lon="4.93921">
        <ele>491.4</ele>
        <time>2015-10-17T10:28:32Z</time>
      </trkpt>
      <trkpt lat="44.49463" lon="4.93881">
        <ele>490.9</ele>
        <time>2015-10-17T10:28:36Z</time>
      </trkpt>
      <trkpt lat="44.49471" lon="4.93864">
        <ele>490.4</ele>
        <time>2015-10-17T10:28:37Z</time>
      </trkpt>
      <trkpt lat="44.49475" lon="4.93846">
        <ele>490.4</ele>
        <time>2015-10-17T10:28:38Z</time>
      </trkpt>
      <trkpt lat="44.49473" lon="4.93826">
        <ele>489.9</ele>
        <time>2015-10-17T10:28:39Z</time>
      </trkpt>
      <trkpt lat="44.4947" lon="4.93806">
        <ele>490.4</ele>
        <time>2015-10-17T10:28:40Z</time>
      </trkpt>
      <trkpt lat="44.49467" lon="4.93782">
        <ele>490.4</ele>
        <time>2015-10-17T10:28:41Z</time>
      </trkpt>
      <trkpt lat="44.49469" lon="4.93758">
        <ele>489.9</ele>
        <time>2015-10-17T10:28:42Z</time>
      </trkpt>
      <trkpt lat="44.49474" lon="4.93733">
        <ele>489</ele>
        <time>2015-10-17T10:28:43Z</time>
      </trkpt>
      <trkpt lat="44.49481" lon="4.93707">
        <ele>488.5</ele>
        <time>2015-10-17T10:28:44Z</time>
      </trkpt>
      <trkpt lat="44.49488" lon="4.93682">
        <ele>487.5</ele>
        <time>2015-10-17T10:28:45Z</time>
      </trkpt>
      <trkpt lat="44.49497" lon="4.93658">
        <ele>487.1</ele>
        <time>2015-10-17T10:28:46Z</time>
      </trkpt>
      <trkpt lat="44.49507" lon="4.93637">
        <ele>486.6</ele>
        <time>2015-10-17T10:28:47Z</time>
      </trkpt>
      <trkpt lat="44.49519" lon="4.93621">
        <ele>485.6</ele>
        <time>2015-10-17T10:28:48Z</time>
      </trkpt>
      <trkpt lat="44.49532" lon="4.93611">
        <ele>484.6</ele>
        <time>2015-10-17T10:28:49Z</time>
      </trkpt>
      <trkpt lat="44.49546" lon="4.93606">
        <ele>484.2</ele>
        <time>2015-10-17T10:28:50Z</time>
      </trkpt>
      <trkpt lat="44.4956" lon="4.93611">
        <ele>484.2</ele>
        <time>2015-10-17T10:28:51Z</time>
      </trkpt>
      <trkpt lat="44.49576" lon="4.93622">
        <ele>483.7</ele>
        <time>2015-10-17T10:28:52Z</time>
      </trkpt>
      <trkpt lat="44.49591" lon="4.93632">
        <ele>483.7</ele>
        <time>2015-10-17T10:28:53Z</time>
      </trkpt>
      <trkpt lat="44.49623" lon="4.93648">
        <ele>483.2</ele>
        <time>2015-10-17T10:28:55Z</time>
      </trkpt>
      <trkpt lat="44.4964" lon="4.93649">
        <ele>482.2</ele>
        <time>2015-10-17T10:28:56Z</time>
      </trkpt>
      <trkpt lat="44.49656" lon="4.93642">
        <ele>481.8</ele>
        <time>2015-10-17T10:28:57Z</time>
      </trkpt>
      <trkpt lat="44.49671" lon="4.93628">
        <ele>481.8</ele>
        <time>2015-10-17T10:28:58Z</time>
      </trkpt>
      <trkpt lat="44.49686" lon="4.93617">
        <ele>481.3</ele>
        <time>2015-10-17T10:28:59Z</time>
      </trkpt>
      <trkpt lat="44.497" lon="4.93609">
        <ele>480.8</ele>
        <time>2015-10-17T10:29:00Z</time>
      </trkpt>
      <trkpt lat="44.49713" lon="4.93608">
        <ele>479.8</ele>
        <time>2015-10-17T10:29:01Z</time>
      </trkpt>
      <trkpt lat="44.49727" lon="4.93617">
        <ele>478.9</ele>
        <time>2015-10-17T10:29:02Z</time>
      </trkpt>
      <trkpt lat="44.49737" lon="4.93638">
        <ele>477.4</ele>
        <time>2015-10-17T10:29:03Z</time>
      </trkpt>
      <trkpt lat="44.49744" lon="4.93661">
        <ele>476.5</ele>
        <time>2015-10-17T10:29:04Z</time>
      </trkpt>
      <trkpt lat="44.49749" lon="4.93684">
        <ele>475.5</ele>
        <time>2015-10-17T10:29:05Z</time>
      </trkpt>
      <trkpt lat="44.49755" lon="4.93704">
        <ele>475</ele>
        <time>2015-10-17T10:29:06Z</time>
      </trkpt>
      <trkpt lat="44.49763" lon="4.93719">
        <ele>474.1</ele>
        <time>2015-10-17T10:29:07Z</time>
      </trkpt>
      <trkpt lat="44.49774" lon="4.93725">
        <ele>472.6</ele>
        <time>2015-10-17T10:29:08Z</time>
      </trkpt>
      <trkpt lat="44.49789" lon="4.93724">
        <ele>471.7</ele>
        <time>2015-10-17T10:29:09Z</time>
      </trkpt>
      <trkpt lat="44.49806" lon="4.93714">
        <ele>470.7</ele>
        <time>2015-10-17T10:29:10Z</time>
      </trkpt>
      <trkpt lat="44.4982" lon="4.93696">
        <ele>470.2</ele>
        <time>2015-10-17T10:29:11Z</time>
      </trkpt>
      <trkpt lat="44.49835" lon="4.9368">
        <ele>469.7</ele>
        <time>2015-10-17T10:29:12Z</time>
      </trkpt>
      <trkpt lat="44.49851" lon="4.93665">
        <ele>468.3</ele>
        <time>2015-10-17T10:29:13Z</time>
      </trkpt>
      <trkpt lat="44.49871" lon="4.93652">
        <ele>467.8</ele>
        <time>2015-10-17T10:29:14Z</time>
      </trkpt>
      <trkpt lat="44.49891" lon="4.93642">
        <ele>466.9</ele>
        <time>2015-10-17T10:29:15Z</time>
      </trkpt>
      <trkpt lat="44.49913" lon="4.93634">
        <ele>465.9</ele>
        <time>2015-10-17T10:29:16Z</time>
      </trkpt>
      <trkpt lat="44.49975" lon="4.93619">
        <ele>462.5</ele>
        <time>2015-10-17T10:29:19Z</time>
      </trkpt>
      <trkpt lat="44.49994" lon="4.93619">
        <ele>461.6</ele>
        <time>2015-10-17T10:29:20Z</time>
      </trkpt>
      <trkpt lat="44.50011" lon="4.9362">
        <ele>460.1</ele>
        <time>2015-10-17T10:29:21Z</time>
      </trkpt>
      <trkpt lat="44.50024" lon="4.93627">
        <ele>458.7</ele>
        <time>2015-10-17T10:29:22Z</time>
      </trkpt>
      <trkpt lat="44.50033" lon="4.93638">
        <ele>457.7</ele>
        <time>2015-10-17T10:29:23Z</time>
      </trkpt>
      <trkpt lat="44.50038" lon="4.93653">
        <ele>456.3</ele>
        <time>2015-10-17T10:29:24Z</time>
      </trkpt>
      <trkpt lat="44.50038" lon="4.93669">
        <ele>455.3</ele>
        <time>2015-10-17T10:29:25Z</time>
      </trkpt>
      <trkpt lat="44.50032" lon="4.93684">
        <ele>454.8</ele>
        <time>2015-10-17T10:29:26Z</time>
      </trkpt>
      <trkpt lat="44.50023" lon="4.93699">
        <ele>453.4</ele>
        <time>2015-10-17T10:29:27Z</time>
      </trkpt>
      <trkpt lat="44.50014" lon="4.93715">
        <ele>452.9</ele>
        <time>2015-10-17T10:29:28Z</time>
      </trkpt>
      <trkpt lat="44.50002" lon="4.93732">
        <ele>452</ele>
        <time>2015-10-17T10:29:29Z</time>
      </trkpt>
      <trkpt lat="44.49993" lon="4.9375">
        <ele>451</ele>
        <time>2015-10-17T10:29:30Z</time>
      </trkpt>
      <trkpt lat="44.49986" lon="4.93769">
        <ele>450.5</ele>
        <time>2015-10-17T10:29:31Z</time>
      </trkpt>
      <trkpt lat="44.49982" lon="4.93789">
        <ele>449.6</ele>
        <time>2015-10-17T10:29:32Z</time>
      </trkpt>
      <trkpt lat="44.4998" lon="4.93809">
        <ele>448.6</ele>
        <time>2015-10-17T10:29:33Z</time>
      </trkpt>
      <trkpt lat="44.49978" lon="4.93828">
        <ele>447.6</ele>
        <time>2015-10-17T10:29:34Z</time>
      </trkpt>
      <trkpt lat="44.49962" lon="4.94021">
        <ele>439.9</ele>
        <time>2015-10-17T10:29:46Z</time>
      </trkpt>
      <trkpt lat="44.49962" lon="4.94035">
        <ele>439.5</ele>
        <time>2015-10-17T10:29:47Z</time>
      </trkpt>
      <trkpt lat="44.49965" lon="4.94048">
        <ele>439</ele>
        <time>2015-10-17T10:29:48Z</time>
      </trkpt>
      <trkpt lat="44.49969" lon="4.9406">
        <ele>438.5</ele>
        <time>2015-10-17T10:29:49Z</time>
      </trkpt>
      <trkpt lat="44.49974" lon="4.94071">
        <ele>438</ele>
        <time>2015-10-17T10:29:50Z</time>
      </trkpt>
      <trkpt lat="44.49982" lon="4.9408">
        <ele>437.1</ele>
        <time>2015-10-17T10:29:51Z</time>
      </trkpt>
      <trkpt lat="44.49991" lon="4.94087">
        <ele>436.6</ele>
        <time>2015-10-17T10:29:52Z</time>
      </trkpt>
      <trkpt lat="44.50001" lon="4.94094">
        <ele>435.6</ele>
        <time>2015-10-17T10:29:53Z</time>
      </trkpt>
      <trkpt lat="44.50011" lon="4.941">
        <ele>435.1</ele>
        <time>2015-10-17T10:29:54Z</time>
      </trkpt>
      <trkpt lat="44.50145" lon="4.94185">
        <ele>426.5</ele>
        <time>2015-10-17T10:30:08Z</time>
      </trkpt>
      <trkpt lat="44.50216" lon="4.9423">
        <ele>422.6</ele>
        <time>2015-10-17T10:30:15Z</time>
      </trkpt>
      <trkpt lat="44.50226" lon="4.94233">
        <ele>422.2</ele>
        <time>2015-10-17T10:30:16Z</time>
      </trkpt>
      <trkpt lat="44.50238" lon="4.94228">
        <ele>421.2</ele>
        <time>2015-10-17T10:30:17Z</time>
      </trkpt>
      <trkpt lat="44.50249" lon="4.9422">
        <ele>420.7</ele>
        <time>2015-10-17T10:30:18Z</time>
      </trkpt>
      <trkpt lat="44.50259" lon="4.94209">
        <ele>420.2</ele>
        <time>2015-10-17T10:30:19Z</time>
      </trkpt>
      <trkpt lat="44.50267" lon="4.94196">
        <ele>419.3</ele>
        <time>2015-10-17T10:30:20Z</time>
      </trkpt>
      <trkpt lat="44.50275" lon="4.94183">
        <ele>419.3</ele>
        <time>2015-10-17T10:30:21Z</time>
      </trkpt>
      <trkpt lat="44.50284" lon="4.9417">
        <ele>418.8</ele>
        <time>2015-10-17T10:30:22Z</time>
      </trkpt>
      <trkpt lat="44.50294" lon="4.94159">
        <ele>418.3</ele>
        <time>2015-10-17T10:30:23Z</time>
      </trkpt>
      <trkpt lat="44.50307" lon="4.9415">
        <ele>418.3</ele>
        <time>2015-10-17T10:30:24Z</time>
      </trkpt>
      <trkpt lat="44.50321" lon="4.94143">
        <ele>417.8</ele>
        <time>2015-10-17T10:30:25Z</time>
      </trkpt>
      <trkpt lat="44.50336" lon="4.94137">
        <ele>417.8</ele>
        <time>2015-10-17T10:30:26Z</time>
      </trkpt>
      <trkpt lat="44.50352" lon="4.94132">
        <ele>417.8</ele>
        <time>2015-10-17T10:30:27Z</time>
      </trkpt>
      <trkpt lat="44.5047" lon="4.94086">
        <ele>413</ele>
        <time>2015-10-17T10:30:34Z</time>
      </trkpt>
      <trkpt lat="44.50486" lon="4.94072">
        <ele>411.6</ele>
        <time>2015-10-17T10:30:35Z</time>
      </trkpt>
      <trkpt lat="44.50502" lon="4.94054">
        <ele>410.1</ele>
        <time>2015-10-17T10:30:36Z</time>
      </trkpt>
      <trkpt lat="44.50645" lon="4.93896">
        <ele>399.1</ele>
        <time>2015-10-17T10:30:45Z</time>
      </trkpt>
      <trkpt lat="44.5068" lon="4.93868">
        <ele>396.7</ele>
        <time>2015-10-17T10:30:47Z</time>
      </trkpt>
      <trkpt lat="44.50699" lon="4.9386">
        <ele>396.2</ele>
        <time>2015-10-17T10:30:48Z</time>
      </trkpt>
      <trkpt lat="44.5072" lon="4.93856">
        <ele>395.2</ele>
        <time>2015-10-17T10:30:49Z</time>
      </trkpt>
      <trkpt lat="44.5074" lon="4.93854">
        <ele>394.3</ele>
        <time>2015-10-17T10:30:50Z</time>
      </trkpt>
      <trkpt lat="44.50761" lon="4.93849">
        <ele>392.8</ele>
        <time>2015-10-17T10:30:51Z</time>
      </trkpt>
      <trkpt lat="44.50781" lon="4.93841">
        <ele>391.4</ele>
        <time>2015-10-17T10:30:52Z</time>
      </trkpt>
      <trkpt lat="44.50801" lon="4.93831">
        <ele>390.4</ele>
        <time>2015-10-17T10:30:53Z</time>
      </trkpt>
      <trkpt lat="44.50819" lon="4.93817">
        <ele>389</ele>
        <time>2015-10-17T10:30:54Z</time>
      </trkpt>
      <trkpt lat="44.50836" lon="4.93801">
        <ele>387.6</ele>
        <time>2015-10-17T10:30:55Z</time>
      </trkpt>
      <trkpt lat="44.50851" lon="4.93783">
        <ele>386.6</ele>
        <time>2015-10-17T10:30:56Z</time>
      </trkpt>
      <trkpt lat="44.50862" lon="4.93763">
        <ele>386.1</ele>
        <time>2015-10-17T10:30:57Z</time>
      </trkpt>
      <trkpt lat="44.50872" lon="4.93744">
        <ele>385.2</ele>
        <time>2015-10-17T10:30:58Z</time>
      </trkpt>
      <trkpt lat="44.50883" lon="4.93729">
        <ele>384.2</ele>
        <time>2015-10-17T10:30:59Z</time>
      </trkpt>
      <trkpt lat="44.50894" lon="4.93718">
        <ele>382.7</ele>
        <time>2015-10-17T10:31:00Z</time>
      </trkpt>
      <trkpt lat="44.50909" lon="4.93713">
        <ele>381.3</ele>
        <time>2015-10-17T10:31:01Z</time>
      </trkpt>
      <trkpt lat="44.50924" lon="4.93715">
        <ele>380.3</ele>
        <time>2015-10-17T10:31:02Z</time>
      </trkpt>
      <trkpt lat="44.50937" lon="4.93722">
        <ele>378.9</ele>
        <time>2015-10-17T10:31:03Z</time>
      </trkpt>
      <trkpt lat="44.50946" lon="4.93734">
        <ele>377.5</ele>
        <time>2015-10-17T10:31:04Z</time>
      </trkpt>
      <trkpt lat="44.50955" lon="4.93764">
        <ele>376.5</ele>
        <time>2015-10-17T10:31:06Z</time>
      </trkpt>
      <trkpt lat="44.50952" lon="4.93778">
        <ele>375.5</ele>
        <time>2015-10-17T10:31:07Z</time>
      </trkpt>
      <trkpt lat="44.5095" lon="4.93794">
        <ele>375.1</ele>
        <time>2015-10-17T10:31:08Z</time>
      </trkpt>
      <trkpt lat="44.50952" lon="4.93807">
        <ele>374.1</ele>
        <time>2015-10-17T10:31:09Z</time>
      </trkpt>
      <trkpt lat="44.50958" lon="4.93815">
        <ele>373.6</ele>
        <time>2015-10-17T10:31:10Z</time>
      </trkpt>
      <trkpt lat="44.50968" lon="4.93816">
        <ele>372.7</ele>
        <time>2015-10-17T10:31:11Z</time>
      </trkpt>
      <trkpt lat="44.50982" lon="4.93811">
        <ele>372.2</ele>
        <time>2015-10-17T10:31:12Z</time>
      </trkpt>
      <trkpt lat="44.50998" lon="4.93807">
        <ele>371.2</ele>
        <time>2015-10-17T10:31:13Z</time>
      </trkpt>
      <trkpt lat="44.51018" lon="4.938">
        <ele>370.2</ele>
        <time>2015-10-17T10:31:14Z</time>
      </trkpt>
      <trkpt lat="44.51036" lon="4.93794">
        <ele>370.2</ele>
        <time>2015-10-17T10:31:15Z</time>
      </trkpt>
      <trkpt lat="44.51115" lon="4.93771">
        <ele>367.4</ele>
        <time>2015-10-17T10:31:19Z</time>
      </trkpt>
      <trkpt lat="44.51136" lon="4.93772">
        <ele>365.9</ele>
        <time>2015-10-17T10:31:20Z</time>
      </trkpt>
      <trkpt lat="44.51307" lon="4.93776">
        <ele>356.8</ele>
        <time>2015-10-17T10:31:28Z</time>
      </trkpt>
      <trkpt lat="44.51491" lon="4.93739">
        <ele>347.7</ele>
        <time>2015-10-17T10:31:37Z</time>
      </trkpt>
      <trkpt lat="44.51512" lon="4.93745">
        <ele>345.7</ele>
        <time>2015-10-17T10:31:38Z</time>
      </trkpt>
      <trkpt lat="44.51532" lon="4.93753">
        <ele>343.8</ele>
        <time>2015-10-17T10:31:39Z</time>
      </trkpt>
      <trkpt lat="44.51592" lon="4.93778">
        <ele>340</ele>
        <time>2015-10-17T10:31:42Z</time>
      </trkpt>
      <trkpt lat="44.51613" lon="4.93781">
        <ele>338.5</ele>
        <time>2015-10-17T10:31:43Z</time>
      </trkpt>
      <trkpt lat="44.51754" lon="4.93815">
        <ele>330.4</ele>
        <time>2015-10-17T10:31:51Z</time>
      </trkpt>
      <trkpt lat="44.51765" lon="4.93829">
        <ele>329.4</ele>
        <time>2015-10-17T10:31:52Z</time>
      </trkpt>
      <trkpt lat="44.51771" lon="4.93847">
        <ele>328.4</ele>
        <time>2015-10-17T10:31:53Z</time>
      </trkpt>
      <trkpt lat="44.51773" lon="4.93871">
        <ele>327.5</ele>
        <time>2015-10-17T10:31:54Z</time>
      </trkpt>
      <trkpt lat="44.51775" lon="4.93895">
        <ele>326.5</ele>
        <time>2015-10-17T10:31:55Z</time>
      </trkpt>
      <trkpt lat="44.51775" lon="4.93921">
        <ele>325.5</ele>
        <time>2015-10-17T10:31:56Z</time>
      </trkpt>
      <trkpt lat="44.51775" lon="4.93946">
        <ele>325.1</ele>
        <time>2015-10-17T10:31:57Z</time>
      </trkpt>
      <trkpt lat="44.51766" lon="4.94005">
        <ele>322.2</ele>
        <time>2015-10-17T10:32:00Z</time>
      </trkpt>
      <trkpt lat="44.51756" lon="4.94019">
        <ele>321.2</ele>
        <time>2015-10-17T10:32:01Z</time>
      </trkpt>
      <trkpt lat="44.51747" lon="4.94032">
        <ele>320.7</ele>
        <time>2015-10-17T10:32:02Z</time>
      </trkpt>
      <trkpt lat="44.51736" lon="4.94043">
        <ele>320.3</ele>
        <time>2015-10-17T10:32:03Z</time>
      </trkpt>
      <trkpt lat="44.51729" lon="4.94056">
        <ele>319.3</ele>
        <time>2015-10-17T10:32:04Z</time>
      </trkpt>
      <trkpt lat="44.51728" lon="4.94068">
        <ele>318.8</ele>
        <time>2015-10-17T10:32:05Z</time>
      </trkpt>
      <trkpt lat="44.51727" lon="4.94079">
        <ele>318.3</ele>
        <time>2015-10-17T10:32:06Z</time>
      </trkpt>
      <trkpt lat="44.51739" lon="4.94077">
        <ele>317.4</ele>
        <time>2015-10-17T10:32:08Z</time>
      </trkpt>
      <trkpt lat="44.51754" lon="4.94072">
        <ele>317.4</ele>
        <time>2015-10-17T10:32:09Z</time>
      </trkpt>
      <trkpt lat="44.51769" lon="4.94067">
        <ele>316.4</ele>
        <time>2015-10-17T10:32:10Z</time>
      </trkpt>
      <trkpt lat="44.51783" lon="4.94057">
        <ele>315.9</ele>
        <time>2015-10-17T10:32:11Z</time>
      </trkpt>
      <trkpt lat="44.51797" lon="4.94046">
        <ele>315.9</ele>
        <time>2015-10-17T10:32:12Z</time>
      </trkpt>
      <trkpt lat="44.51809" lon="4.94035">
        <ele>315.9</ele>
        <time>2015-10-17T10:32:13Z</time>
      </trkpt>
      <trkpt lat="44.51841" lon="4.94005">
        <ele>313.5</ele>
        <time>2015-10-17T10:32:16Z</time>
      </trkpt>
      <trkpt lat="44.51844" lon="4.93989">
        <ele>314</ele>
        <time>2015-10-17T10:32:17Z</time>
      </trkpt>
      <trkpt lat="44.51842" lon="4.93973">
        <ele>314</ele>
        <time>2015-10-17T10:32:18Z</time>
      </trkpt>
      <trkpt lat="44.51841" lon="4.93955">
        <ele>313.5</ele>
        <time>2015-10-17T10:32:19Z</time>
      </trkpt>
      <trkpt lat="44.51839" lon="4.93936">
        <ele>313.5</ele>
        <time>2015-10-17T10:32:20Z</time>
      </trkpt>
      <trkpt lat="44.5184" lon="4.93915">
        <ele>312.6</ele>
        <time>2015-10-17T10:32:21Z</time>
      </trkpt>
      <trkpt lat="44.51843" lon="4.93892">
        <ele>312.1</ele>
        <time>2015-10-17T10:32:22Z</time>
      </trkpt>
      <trkpt lat="44.51884" lon="4.93722">
        <ele>315.9</ele>
        <time>2015-10-17T10:32:30Z</time>
      </trkpt>
      <trkpt lat="44.51895" lon="4.93707">
        <ele>317.4</ele>
        <time>2015-10-17T10:32:31Z</time>
      </trkpt>
      <trkpt lat="44.51912" lon="4.93698">
        <ele>317.9</ele>
        <time>2015-10-17T10:32:32Z</time>
      </trkpt>
      <trkpt lat="44.51928" lon="4.9369">
        <ele>318.3</ele>
        <time>2015-10-17T10:32:33Z</time>
      </trkpt>
      <trkpt lat="44.5202" lon="4.93654">
        <ele>317.9</ele>
        <time>2015-10-17T10:32:39Z</time>
      </trkpt>
      <trkpt lat="44.52036" lon="4.93653">
        <ele>317.4</ele>
        <time>2015-10-17T10:32:40Z</time>
      </trkpt>
      <trkpt lat="44.52066" lon="4.93652">
        <ele>316.4</ele>
        <time>2015-10-17T10:32:42Z</time>
      </trkpt>
      <trkpt lat="44.52124" lon="4.93644">
        <ele>313.1</ele>
        <time>2015-10-17T10:32:46Z</time>
      </trkpt>
      <trkpt lat="44.52139" lon="4.93651">
        <ele>311.1</ele>
        <time>2015-10-17T10:32:47Z</time>
      </trkpt>
      <trkpt lat="44.52151" lon="4.93663">
        <ele>310.2</ele>
        <time>2015-10-17T10:32:48Z</time>
      </trkpt>
      <trkpt lat="44.52164" lon="4.93677">
        <ele>310.2</ele>
        <time>2015-10-17T10:32:49Z</time>
      </trkpt>
      <trkpt lat="44.52176" lon="4.9369">
        <ele>309.2</ele>
        <time>2015-10-17T10:32:50Z</time>
      </trkpt>
      <trkpt lat="44.52188" lon="4.937">
        <ele>308.2</ele>
        <time>2015-10-17T10:32:51Z</time>
      </trkpt>
      <trkpt lat="44.52203" lon="4.93705">
        <ele>307.3</ele>
        <time>2015-10-17T10:32:52Z</time>
      </trkpt>
      <trkpt lat="44.52218" lon="4.93704">
        <ele>306.3</ele>
        <time>2015-10-17T10:32:53Z</time>
      </trkpt>
      <trkpt lat="44.52234" lon="4.93701">
        <ele>305.8</ele>
        <time>2015-10-17T10:32:54Z</time>
      </trkpt>
      <trkpt lat="44.5225" lon="4.937">
        <ele>304.9</ele>
        <time>2015-10-17T10:32:55Z</time>
      </trkpt>
      <trkpt lat="44.52265" lon="4.93705">
        <ele>303.4</ele>
        <time>2015-10-17T10:32:56Z</time>
      </trkpt>
      <trkpt lat="44.5228" lon="4.93713">
        <ele>302.5</ele>
        <time>2015-10-17T10:32:57Z</time>
      </trkpt>
      <trkpt lat="44.52293" lon="4.93714">
        <ele>302</ele>
        <time>2015-10-17T10:32:58Z</time>
      </trkpt>
      <trkpt lat="44.52304" lon="4.93709">
        <ele>299.6</ele>
        <time>2015-10-17T10:32:59Z</time>
      </trkpt>
      <trkpt lat="44.52314" lon="4.93699">
        <ele>298.2</ele>
        <time>2015-10-17T10:33:00Z</time>
      </trkpt>
      <trkpt lat="44.52325" lon="4.93686">
        <ele>297.2</ele>
        <time>2015-10-17T10:33:01Z</time>
      </trkpt>
      <trkpt lat="44.52337" lon="4.93671">
        <ele>296.2</ele>
        <time>2015-10-17T10:33:02Z</time>
      </trkpt>
      <trkpt lat="44.52353" lon="4.93658">
        <ele>296.2</ele>
        <time>2015-10-17T10:33:03Z</time>
      </trkpt>
      <trkpt lat="44.52369" lon="4.93645">
        <ele>296.2</ele>
        <time>2015-10-17T10:33:04Z</time>
      </trkpt>
      <trkpt lat="44.52387" lon="4.93636">
        <ele>295.3</ele>
        <time>2015-10-17T10:33:05Z</time>
      </trkpt>
      <trkpt lat="44.52573" lon="4.93526">
        <ele>285.7</ele>
        <time>2015-10-17T10:33:15Z</time>
      </trkpt>
      <trkpt lat="44.5279" lon="4.9339">
        <ele>275.1</ele>
        <time>2015-10-17T10:33:26Z</time>
      </trkpt>
      <trkpt lat="44.53017" lon="4.93207">
        <ele>259.7</ele>
        <time>2015-10-17T10:33:38Z</time>
      </trkpt>
      <trkpt lat="44.53039" lon="4.93201">
        <ele>258.3</ele>
        <time>2015-10-17T10:33:39Z</time>
      </trkpt>
      <trkpt lat="44.53063" lon="4.93202">
        <ele>257.3</ele>
        <time>2015-10-17T10:33:40Z</time>
      </trkpt>
      <trkpt lat="44.53087" lon="4.93208">
        <ele>256.3</ele>
        <time>2015-10-17T10:33:41Z</time>
      </trkpt>
      <trkpt lat="44.53112" lon="4.93215">
        <ele>255.9</ele>
        <time>2015-10-17T10:33:42Z</time>
      </trkpt>
      <trkpt lat="44.53136" lon="4.93221">
        <ele>254.9</ele>
        <time>2015-10-17T10:33:43Z</time>
      </trkpt>
      <trkpt lat="44.53333" lon="4.93265">
        <ele>249.1</ele>
        <time>2015-10-17T10:33:52Z</time>
      </trkpt>
      <trkpt lat="44.53599" lon="4.93323">
        <ele>235.7</ele>
        <time>2015-10-17T10:34:05Z</time>
      </trkpt>
      <trkpt lat="44.53708" lon="4.93348">
        <ele>230.9</ele>
        <time>2015-10-17T10:34:12Z</time>
      </trkpt>
      <trkpt lat="44.53883" lon="4.93384">
        <ele>226.5</ele>
        <time>2015-10-17T10:34:25Z</time>
      </trkpt>
      <trkpt lat="44.5415" lon="4.93442">
        <ele>219.8</ele>
        <time>2015-10-17T10:34:40Z</time>
      </trkpt>
      <trkpt lat="44.54283" lon="4.9347">
        <ele>218.4</ele>
        <time>2015-10-17T10:34:49Z</time>
      </trkpt>
      <trkpt lat="44.54367" lon="4.93488">
        <ele>219.3</ele>
        <time>2015-10-17T10:34:57Z</time>
      </trkpt>
      <trkpt lat="44.54462" lon="4.93509">
        <ele>222.2</ele>
        <time>2015-10-17T10:35:08Z</time>
      </trkpt>
      <trkpt lat="44.54467" lon="4.93506">
        <ele>224.6</ele>
        <time>2015-10-17T10:35:15Z</time>
      </trkpt>
      <trkpt lat="44.54471" lon="4.93501">
        <ele>225.6</ele>
        <time>2015-10-17T10:35:20Z</time>
      </trkpt>
      <trkpt lat="44.54473" lon="4.93496">
        <ele>225.1</ele>
        <time>2015-10-17T10:35:21Z</time>
      </trkpt>
      <trkpt lat="44.54473" lon="4.93489">
        <ele>225.1</ele>
        <time>2015-10-17T10:35:22Z</time>
      </trkpt>
      <trkpt lat="44.54475" lon="4.9346">
        <ele>223.6</ele>
        <time>2015-10-17T10:35:26Z</time>
      </trkpt>
      <trkpt lat="44.54476" lon="4.93456">
        <ele>223.6</ele>
        <time>2015-10-17T10:35:27Z</time>
      </trkpt>
      <trkpt lat="44.54478" lon="4.93454">
        <ele>223.6</ele>
        <time>2015-10-17T10:35:28Z</time>
      </trkpt>
      <trkpt lat="44.5448" lon="4.93453">
        <ele>224.1</ele>
        <time>2015-10-17T10:35:29Z</time>
      </trkpt>
      <trkpt lat="44.54482" lon="4.93452">
        <ele>224.1</ele>
        <time>2015-10-17T10:35:30Z</time>
      </trkpt>
      <trkpt lat="44.54486" lon="4.93454">
        <ele>225.6</ele>
        <time>2015-10-17T10:35:36Z</time>
      </trkpt>
      <trkpt lat="44.54486" lon="4.93455">
        <ele>225.6</ele>
        <time>2015-10-17T10:35:37Z</time>
      </trkpt>
      <trkpt lat="44.54487" lon="4.93464">
        <ele>224.1</ele>
        <time>2015-10-17T10:35:41Z</time>
      </trkpt>
      <trkpt lat="44.54488" lon="4.93466">
        <ele>225.1</ele>
        <time>2015-10-17T10:35:54Z</time>
      </trkpt>
      <trkpt lat="44.54489" lon="4.93469">
        <ele>224.6</ele>
        <time>2015-10-17T10:36:12Z</time>
      </trkpt>
      <trkpt lat="44.54489" lon="4.93471">
        <ele>221.7</ele>
        <time>2015-10-17T10:36:38Z</time>
      </trkpt>
      <trkpt lat="44.54488" lon="4.93471">
        <ele>220.8</ele>
        <time>2015-10-17T10:36:48Z</time>
      </trkpt>
      <trkpt lat="44.54492" lon="4.93477">
        <ele>259.2</ele>
        <time>2015-10-17T11:48:47Z</time>
      </trkpt>
      <trkpt lat="44.54487" lon="4.93467">
        <ele>237.1</ele>
        <time>2015-10-17T11:49:26Z</time>
      </trkpt>
      <trkpt lat="44.54494" lon="4.93468">
        <ele>221.2</ele>
        <time>2015-10-17T11:50:20Z</time>
      </trkpt>
      <trkpt lat="44.54496" lon="4.93469">
        <ele>222.7</ele>
        <time>2015-10-17T11:50:47Z</time>
      </trkpt>
      <trkpt lat="44.54485" lon="4.93458">
        <ele>221.7</ele>
        <time>2015-10-17T11:50:58Z</time>
      </trkpt>
      <trkpt lat="44.54484" lon="4.93458">
        <ele>219.8</ele>
        <time>2015-10-17T11:51:04Z</time>
      </trkpt>
      <trkpt lat="44.54478" lon="4.93471">
        <ele>218.8</ele>
        <time>2015-10-17T11:51:08Z</time>
      </trkpt>
      <trkpt lat="44.54473" lon="4.93536">
        <ele>219.8</ele>
        <time>2015-10-17T11:51:21Z</time>
      </trkpt>
      <trkpt lat="44.54469" lon="4.93567">
        <ele>220.8</ele>
        <time>2015-10-17T11:51:32Z</time>
      </trkpt>
      <trkpt lat="44.54475" lon="4.93579">
        <ele>227.5</ele>
        <time>2015-10-17T11:52:31Z</time>
      </trkpt>
      <trkpt lat="44.54475" lon="4.93586">
        <ele>227.5</ele>
        <time>2015-10-17T11:52:32Z</time>
      </trkpt>
      <trkpt lat="44.54476" lon="4.93604">
        <ele>226.5</ele>
        <time>2015-10-17T11:52:34Z</time>
      </trkpt>
      <trkpt lat="44.54476" lon="4.93613">
        <ele>226.5</ele>
        <time>2015-10-17T11:52:35Z</time>
      </trkpt>
      <trkpt lat="44.54475" lon="4.93622">
        <ele>226.1</ele>
        <time>2015-10-17T11:52:36Z</time>
      </trkpt>
      <trkpt lat="44.54455" lon="4.93741">
        <ele>226.5</ele>
        <time>2015-10-17T11:52:46Z</time>
      </trkpt>
      <trkpt lat="44.54425" lon="4.93884">
        <ele>226.5</ele>
        <time>2015-10-17T11:52:57Z</time>
      </trkpt>
      <trkpt lat="44.54393" lon="4.94045">
        <ele>227.5</ele>
        <time>2015-10-17T11:53:08Z</time>
      </trkpt>
      <trkpt lat="44.54356" lon="4.94177">
        <ele>228.5</ele>
        <time>2015-10-17T11:53:16Z</time>
      </trkpt>
      <trkpt lat="44.54353" lon="4.94196">
        <ele>228.9</ele>
        <time>2015-10-17T11:53:17Z</time>
      </trkpt>
      <trkpt lat="44.54326" lon="4.94425">
        <ele>233.3</ele>
        <time>2015-10-17T11:53:29Z</time>
      </trkpt>
      <trkpt lat="44.54326" lon="4.94445">
        <ele>233.7</ele>
        <time>2015-10-17T11:53:30Z</time>
      </trkpt>
      <trkpt lat="44.54328" lon="4.94464">
        <ele>233.7</ele>
        <time>2015-10-17T11:53:31Z</time>
      </trkpt>
      <trkpt lat="44.54337" lon="4.94582">
        <ele>235.7</ele>
        <time>2015-10-17T11:53:37Z</time>
      </trkpt>
      <trkpt lat="44.54334" lon="4.94601">
        <ele>235.7</ele>
        <time>2015-10-17T11:53:38Z</time>
      </trkpt>
      <trkpt lat="44.5433" lon="4.9462">
        <ele>236.1</ele>
        <time>2015-10-17T11:53:39Z</time>
      </trkpt>
      <trkpt lat="44.54323" lon="4.94637">
        <ele>236.1</ele>
        <time>2015-10-17T11:53:40Z</time>
      </trkpt>
      <trkpt lat="44.54314" lon="4.94654">
        <ele>236.1</ele>
        <time>2015-10-17T11:53:41Z</time>
      </trkpt>
      <trkpt lat="44.54305" lon="4.94671">
        <ele>236.1</ele>
        <time>2015-10-17T11:53:42Z</time>
      </trkpt>
      <trkpt lat="44.54257" lon="4.94825">
        <ele>237.1</ele>
        <time>2015-10-17T11:53:50Z</time>
      </trkpt>
      <trkpt lat="44.54222" lon="4.95108">
        <ele>241</ele>
        <time>2015-10-17T11:54:02Z</time>
      </trkpt>
      <trkpt lat="44.54218" lon="4.9518">
        <ele>241</ele>
        <time>2015-10-17T11:54:05Z</time>
      </trkpt>
      <trkpt lat="44.54214" lon="4.95203">
        <ele>241</ele>
        <time>2015-10-17T11:54:06Z</time>
      </trkpt>
      <trkpt lat="44.54206" lon="4.95225">
        <ele>241</ele>
        <time>2015-10-17T11:54:07Z</time>
      </trkpt>
      <trkpt lat="44.54196" lon="4.95246">
        <ele>240.5</ele>
        <time>2015-10-17T11:54:08Z</time>
      </trkpt>
      <trkpt lat="44.54183" lon="4.95266">
        <ele>240.5</ele>
        <time>2015-10-17T11:54:09Z</time>
      </trkpt>
      <trkpt lat="44.54099" lon="4.95407">
        <ele>238.5</ele>
        <time>2015-10-17T11:54:16Z</time>
      </trkpt>
      <trkpt lat="44.54091" lon="4.9543">
        <ele>238.1</ele>
        <time>2015-10-17T11:54:17Z</time>
      </trkpt>
      <trkpt lat="44.54087" lon="4.95455">
        <ele>237.1</ele>
        <time>2015-10-17T11:54:18Z</time>
      </trkpt>
      <trkpt lat="44.5409" lon="4.95482">
        <ele>237.1</ele>
        <time>2015-10-17T11:54:19Z</time>
      </trkpt>
      <trkpt lat="44.54094" lon="4.95509">
        <ele>237.1</ele>
        <time>2015-10-17T11:54:20Z</time>
      </trkpt>
      <trkpt lat="44.54096" lon="4.95536">
        <ele>236.6</ele>
        <time>2015-10-17T11:54:21Z</time>
      </trkpt>
      <trkpt lat="44.54096" lon="4.95563">
        <ele>236.6</ele>
        <time>2015-10-17T11:54:22Z</time>
      </trkpt>
      <trkpt lat="44.54092" lon="4.9559">
        <ele>236.6</ele>
        <time>2015-10-17T11:54:23Z</time>
      </trkpt>
      <trkpt lat="44.54087" lon="4.95617">
        <ele>236.6</ele>
        <time>2015-10-17T11:54:24Z</time>
      </trkpt>
      <trkpt lat="44.54081" lon="4.95644">
        <ele>237.6</ele>
        <time>2015-10-17T11:54:25Z</time>
      </trkpt>
      <trkpt lat="44.54057" lon="4.95723">
        <ele>239</ele>
        <time>2015-10-17T11:54:28Z</time>
      </trkpt>
      <trkpt lat="44.54045" lon="4.95749">
        <ele>239.5</ele>
        <time>2015-10-17T11:54:29Z</time>
      </trkpt>
      <trkpt lat="44.5392" lon="4.95956">
        <ele>242.9</ele>
        <time>2015-10-17T11:54:38Z</time>
      </trkpt>
      <trkpt lat="44.5388" lon="4.96019">
        <ele>243.4</ele>
        <time>2015-10-17T11:54:41Z</time>
      </trkpt>
      <trkpt lat="44.53869" lon="4.96043">
        <ele>243.4</ele>
        <time>2015-10-17T11:54:42Z</time>
      </trkpt>
      <trkpt lat="44.53862" lon="4.96069">
        <ele>244.3</ele>
        <time>2015-10-17T11:54:43Z</time>
      </trkpt>
      <trkpt lat="44.53857" lon="4.96095">
        <ele>244.8</ele>
        <time>2015-10-17T11:54:44Z</time>
      </trkpt>
      <trkpt lat="44.53854" lon="4.9612">
        <ele>245.3</ele>
        <time>2015-10-17T11:54:45Z</time>
      </trkpt>
      <trkpt lat="44.53832" lon="4.96218">
        <ele>247.2</ele>
        <time>2015-10-17T11:54:50Z</time>
      </trkpt>
      <trkpt lat="44.53826" lon="4.9623">
        <ele>247.7</ele>
        <time>2015-10-17T11:54:51Z</time>
      </trkpt>
      <trkpt lat="44.53821" lon="4.9624">
        <ele>248.2</ele>
        <time>2015-10-17T11:54:52Z</time>
      </trkpt>
      <trkpt lat="44.53816" lon="4.96249">
        <ele>248.2</ele>
        <time>2015-10-17T11:54:53Z</time>
      </trkpt>
      <trkpt lat="44.5381" lon="4.96257">
        <ele>248.2</ele>
        <time>2015-10-17T11:54:54Z</time>
      </trkpt>
      <trkpt lat="44.53733" lon="4.96334">
        <ele>246.7</ele>
        <time>2015-10-17T11:55:03Z</time>
      </trkpt>
      <trkpt lat="44.5362" lon="4.964">
        <ele>248.6</ele>
        <time>2015-10-17T11:55:11Z</time>
      </trkpt>
      <trkpt lat="44.53535" lon="4.96438">
        <ele>251</ele>
        <time>2015-10-17T11:55:16Z</time>
      </trkpt>
      <trkpt lat="44.5352" lon="4.96451">
        <ele>251.5</ele>
        <time>2015-10-17T11:55:17Z</time>
      </trkpt>
      <trkpt lat="44.53505" lon="4.96467">
        <ele>252</ele>
        <time>2015-10-17T11:55:18Z</time>
      </trkpt>
      <trkpt lat="44.53491" lon="4.96484">
        <ele>252.5</ele>
        <time>2015-10-17T11:55:19Z</time>
      </trkpt>
      <trkpt lat="44.53478" lon="4.96504">
        <ele>253</ele>
        <time>2015-10-17T11:55:20Z</time>
      </trkpt>
      <trkpt lat="44.53465" lon="4.96523">
        <ele>253.4</ele>
        <time>2015-10-17T11:55:21Z</time>
      </trkpt>
      <trkpt lat="44.53362" lon="4.96625">
        <ele>256.3</ele>
        <time>2015-10-17T11:55:27Z</time>
      </trkpt>
      <trkpt lat="44.53159" lon="4.9674">
        <ele>261.6</ele>
        <time>2015-10-17T11:55:37Z</time>
      </trkpt>
      <trkpt lat="44.53111" lon="4.96796">
        <ele>262.6</ele>
        <time>2015-10-17T11:55:40Z</time>
      </trkpt>
      <trkpt lat="44.53096" lon="4.96819">
        <ele>262.6</ele>
        <time>2015-10-17T11:55:41Z</time>
      </trkpt>
      <trkpt lat="44.52945" lon="4.97061">
        <ele>264</ele>
        <time>2015-10-17T11:55:51Z</time>
      </trkpt>
      <trkpt lat="44.52782" lon="4.97315">
        <ele>265.5</ele>
        <time>2015-10-17T11:56:01Z</time>
      </trkpt>
      <trkpt lat="44.52575" lon="4.97666">
        <ele>267.4</ele>
        <time>2015-10-17T11:56:14Z</time>
      </trkpt>
      <trkpt lat="44.52566" lon="4.97698">
        <ele>268.4</ele>
        <time>2015-10-17T11:56:15Z</time>
      </trkpt>
      <trkpt lat="44.5256" lon="4.97732">
        <ele>268.8</ele>
        <time>2015-10-17T11:56:16Z</time>
      </trkpt>
      <trkpt lat="44.52549" lon="4.97836">
        <ele>272.2</ele>
        <time>2015-10-17T11:56:19Z</time>
      </trkpt>
      <trkpt lat="44.5255" lon="4.97871">
        <ele>273.6</ele>
        <time>2015-10-17T11:56:20Z</time>
      </trkpt>
      <trkpt lat="44.52556" lon="4.98134">
        <ele>281.8</ele>
        <time>2015-10-17T11:56:28Z</time>
      </trkpt>
      <trkpt lat="44.52559" lon="4.98164">
        <ele>282.8</ele>
        <time>2015-10-17T11:56:29Z</time>
      </trkpt>
      <trkpt lat="44.52565" lon="4.98194">
        <ele>283.7</ele>
        <time>2015-10-17T11:56:30Z</time>
      </trkpt>
      <trkpt lat="44.52573" lon="4.98223">
        <ele>284.2</ele>
        <time>2015-10-17T11:56:31Z</time>
      </trkpt>
      <trkpt lat="44.52691" lon="4.9859">
        <ele>289.5</ele>
        <time>2015-10-17T11:56:44Z</time>
      </trkpt>
      <trkpt lat="44.52702" lon="4.98615">
        <ele>290</ele>
        <time>2015-10-17T11:56:45Z</time>
      </trkpt>
      <trkpt lat="44.52715" lon="4.9864">
        <ele>290</ele>
        <time>2015-10-17T11:56:46Z</time>
      </trkpt>
      <trkpt lat="44.52729" lon="4.98663">
        <ele>290.5</ele>
        <time>2015-10-17T11:56:47Z</time>
      </trkpt>
      <trkpt lat="44.52745" lon="4.98685">
        <ele>290.9</ele>
        <time>2015-10-17T11:56:48Z</time>
      </trkpt>
      <trkpt lat="44.52762" lon="4.98707">
        <ele>290.9</ele>
        <time>2015-10-17T11:56:49Z</time>
      </trkpt>
      <trkpt lat="44.53012" lon="4.99035">
        <ele>295.3</ele>
        <time>2015-10-17T11:57:04Z</time>
      </trkpt>
      <trkpt lat="44.5309" lon="4.99242">
        <ele>292.9</ele>
        <time>2015-10-17T11:57:11Z</time>
      </trkpt>
      <trkpt lat="44.5324" lon="4.99809">
        <ele>298.6</ele>
        <time>2015-10-17T11:57:29Z</time>
      </trkpt>
      <trkpt lat="44.53253" lon="5.0001">
        <ele>301</ele>
        <time>2015-10-17T11:57:35Z</time>
      </trkpt>
      <trkpt lat="44.53216" lon="5.00205">
        <ele>304.9</ele>
        <time>2015-10-17T11:57:41Z</time>
      </trkpt>
      <trkpt lat="44.53156" lon="5.00545">
        <ele>309.2</ele>
        <time>2015-10-17T11:57:52Z</time>
      </trkpt>
      <trkpt lat="44.53132" lon="5.00804">
        <ele>315.9</ele>
        <time>2015-10-17T11:58:01Z</time>
      </trkpt>
      <trkpt lat="44.53108" lon="5.0108">
        <ele>318.8</ele>
        <time>2015-10-17T11:58:11Z</time>
      </trkpt>
      <trkpt lat="44.53063" lon="5.01306">
        <ele>322.2</ele>
        <time>2015-10-17T11:58:19Z</time>
      </trkpt>
      <trkpt lat="44.5296" lon="5.01688">
        <ele>322.2</ele>
        <time>2015-10-17T11:58:34Z</time>
      </trkpt>
      <trkpt lat="44.52957" lon="5.01716">
        <ele>322.2</ele>
        <time>2015-10-17T11:58:35Z</time>
      </trkpt>
      <trkpt lat="44.52957" lon="5.01745">
        <ele>322.2</ele>
        <time>2015-10-17T11:58:36Z</time>
      </trkpt>
      <trkpt lat="44.52965" lon="5.01947">
        <ele>322.2</ele>
        <time>2015-10-17T11:58:44Z</time>
      </trkpt>
      <trkpt lat="44.52963" lon="5.02335">
        <ele>328.9</ele>
        <time>2015-10-17T11:59:00Z</time>
      </trkpt>
      <trkpt lat="44.52958" lon="5.02434">
        <ele>331.3</ele>
        <time>2015-10-17T11:59:04Z</time>
      </trkpt>
      <trkpt lat="44.52953" lon="5.02458">
        <ele>332.3</ele>
        <time>2015-10-17T11:59:05Z</time>
      </trkpt>
      <trkpt lat="44.52946" lon="5.02481">
        <ele>332.8</ele>
        <time>2015-10-17T11:59:06Z</time>
      </trkpt>
      <trkpt lat="44.52937" lon="5.02502">
        <ele>333.2</ele>
        <time>2015-10-17T11:59:07Z</time>
      </trkpt>
      <trkpt lat="44.52928" lon="5.02523">
        <ele>333.7</ele>
        <time>2015-10-17T11:59:08Z</time>
      </trkpt>
      <trkpt lat="44.52917" lon="5.02543">
        <ele>334.2</ele>
        <time>2015-10-17T11:59:09Z</time>
      </trkpt>
      <trkpt lat="44.52812" lon="5.02678">
        <ele>334.2</ele>
        <time>2015-10-17T11:59:17Z</time>
      </trkpt>
      <trkpt lat="44.52681" lon="5.02849">
        <ele>334.7</ele>
        <time>2015-10-17T11:59:27Z</time>
      </trkpt>
      <trkpt lat="44.52672" lon="5.02872">
        <ele>334.7</ele>
        <time>2015-10-17T11:59:28Z</time>
      </trkpt>
      <trkpt lat="44.52664" lon="5.02895">
        <ele>335.2</ele>
        <time>2015-10-17T11:59:29Z</time>
      </trkpt>
      <trkpt lat="44.52595" lon="5.03189">
        <ele>336.1</ele>
        <time>2015-10-17T11:59:41Z</time>
      </trkpt>
      <trkpt lat="44.52564" lon="5.03481">
        <ele>340.4</ele>
        <time>2015-10-17T11:59:53Z</time>
      </trkpt>
      <trkpt lat="44.52533" lon="5.03841">
        <ele>348.6</ele>
        <time>2015-10-17T12:00:07Z</time>
      </trkpt>
      <trkpt lat="44.52467" lon="5.0403">
        <ele>351.5</ele>
        <time>2015-10-17T12:00:15Z</time>
      </trkpt>
      <trkpt lat="44.52378" lon="5.04292">
        <ele>349.6</ele>
        <time>2015-10-17T12:00:26Z</time>
      </trkpt>
      <trkpt lat="44.52315" lon="5.04625">
        <ele>349.1</ele>
        <time>2015-10-17T12:00:40Z</time>
      </trkpt>
      <trkpt lat="44.52301" lon="5.04659">
        <ele>349.1</ele>
        <time>2015-10-17T12:00:42Z</time>
      </trkpt>
      <trkpt lat="44.52294" lon="5.04671">
        <ele>349.1</ele>
        <time>2015-10-17T12:00:43Z</time>
      </trkpt>
      <trkpt lat="44.52286" lon="5.0468">
        <ele>348.1</ele>
        <time>2015-10-17T12:00:44Z</time>
      </trkpt>
      <trkpt lat="44.52277" lon="5.04686">
        <ele>348.1</ele>
        <time>2015-10-17T12:00:45Z</time>
      </trkpt>
      <trkpt lat="44.52269" lon="5.04692">
        <ele>348.6</ele>
        <time>2015-10-17T12:00:46Z</time>
      </trkpt>
      <trkpt lat="44.52262" lon="5.04705">
        <ele>349.1</ele>
        <time>2015-10-17T12:00:47Z</time>
      </trkpt>
      <trkpt lat="44.52255" lon="5.0472">
        <ele>349.6</ele>
        <time>2015-10-17T12:00:48Z</time>
      </trkpt>
      <trkpt lat="44.52247" lon="5.04735">
        <ele>350.1</ele>
        <time>2015-10-17T12:00:49Z</time>
      </trkpt>
      <trkpt lat="44.52236" lon="5.0475">
        <ele>350.1</ele>
        <time>2015-10-17T12:00:50Z</time>
      </trkpt>
      <trkpt lat="44.52176" lon="5.0484">
        <ele>352.9</ele>
        <time>2015-10-17T12:00:56Z</time>
      </trkpt>
      <trkpt lat="44.52169" lon="5.04858">
        <ele>352.9</ele>
        <time>2015-10-17T12:00:57Z</time>
      </trkpt>
      <trkpt lat="44.52165" lon="5.04879">
        <ele>353.9</ele>
        <time>2015-10-17T12:00:58Z</time>
      </trkpt>
      <trkpt lat="44.52162" lon="5.049">
        <ele>354.9</ele>
        <time>2015-10-17T12:00:59Z</time>
      </trkpt>
      <trkpt lat="44.52161" lon="5.04922">
        <ele>355.3</ele>
        <time>2015-10-17T12:01:00Z</time>
      </trkpt>
      <trkpt lat="44.52159" lon="5.04944">
        <ele>356.3</ele>
        <time>2015-10-17T12:01:01Z</time>
      </trkpt>
      <trkpt lat="44.52139" lon="5.05238">
        <ele>363.5</ele>
        <time>2015-10-17T12:01:13Z</time>
      </trkpt>
      <trkpt lat="44.5213" lon="5.05515">
        <ele>371.2</ele>
        <time>2015-10-17T12:01:25Z</time>
      </trkpt>
      <trkpt lat="44.52126" lon="5.05617">
        <ele>373.6</ele>
        <time>2015-10-17T12:01:32Z</time>
      </trkpt>
      <trkpt lat="44.52124" lon="5.05626">
        <ele>374.1</ele>
        <time>2015-10-17T12:01:33Z</time>
      </trkpt>
      <trkpt lat="44.5212" lon="5.05634">
        <ele>374.1</ele>
        <time>2015-10-17T12:01:34Z</time>
      </trkpt>
      <trkpt lat="44.52115" lon="5.05639">
        <ele>373.6</ele>
        <time>2015-10-17T12:01:35Z</time>
      </trkpt>
      <trkpt lat="44.52111" lon="5.05642">
        <ele>373.1</ele>
        <time>2015-10-17T12:01:36Z</time>
      </trkpt>
      <trkpt lat="44.52106" lon="5.05642">
        <ele>373.1</ele>
        <time>2015-10-17T12:01:37Z</time>
      </trkpt>
      <trkpt lat="44.52102" lon="5.05641">
        <ele>372.7</ele>
        <time>2015-10-17T12:01:38Z</time>
      </trkpt>
      <trkpt lat="44.52098" lon="5.05639">
        <ele>372.7</ele>
        <time>2015-10-17T12:01:39Z</time>
      </trkpt>
      <trkpt lat="44.52095" lon="5.05637">
        <ele>372.7</ele>
        <time>2015-10-17T12:01:40Z</time>
      </trkpt>
      <trkpt lat="44.52077" lon="5.05627">
        <ele>372.7</ele>
        <time>2015-10-17T12:01:44Z</time>
      </trkpt>
      <trkpt lat="44.52073" lon="5.05625">
        <ele>372.7</ele>
        <time>2015-10-17T12:01:45Z</time>
      </trkpt>
      <trkpt lat="44.52069" lon="5.05625">
        <ele>372.7</ele>
        <time>2015-10-17T12:01:46Z</time>
      </trkpt>
      <trkpt lat="44.52065" lon="5.05626">
        <ele>372.2</ele>
        <time>2015-10-17T12:01:47Z</time>
      </trkpt>
      <trkpt lat="44.52063" lon="5.0563">
        <ele>372.2</ele>
        <time>2015-10-17T12:01:48Z</time>
      </trkpt>
      <trkpt lat="44.52063" lon="5.05634">
        <ele>372.2</ele>
        <time>2015-10-17T12:01:49Z</time>
      </trkpt>
      <trkpt lat="44.52065" lon="5.05638">
        <ele>371.7</ele>
        <time>2015-10-17T12:01:50Z</time>
      </trkpt>
      <trkpt lat="44.52068" lon="5.0564">
        <ele>371.7</ele>
        <time>2015-10-17T12:01:51Z</time>
      </trkpt>
      <trkpt lat="44.5207" lon="5.05642">
        <ele>371.2</ele>
        <time>2015-10-17T12:01:52Z</time>
      </trkpt>
      <trkpt lat="44.52073" lon="5.05643">
        <ele>370.7</ele>
        <time>2015-10-17T12:01:53Z</time>
      </trkpt>
      <trkpt lat="44.52079" lon="5.05645">
        <ele>368.8</ele>
        <time>2015-10-17T12:02:04Z</time>
      </trkpt>
      <trkpt lat="44.52077" lon="5.05643">
        <ele>367.4</ele>
        <time>2015-10-17T12:03:21Z</time>
      </trkpt>
      <trkpt lat="44.52082" lon="5.05646">
        <ele>370.2</ele>
        <time>2015-10-17T12:05:12Z</time>
      </trkpt>
      <trkpt lat="44.52083" lon="5.05646">
        <ele>371.2</ele>
        <time>2015-10-17T12:06:40Z</time>
      </trkpt>
      <trkpt lat="44.52081" lon="5.05649">
        <ele>370.2</ele>
        <time>2015-10-17T12:07:21Z</time>
      </trkpt>
      <trkpt lat="44.52083" lon="5.05649">
        <ele>375.1</ele>
        <time>2015-10-17T12:08:03Z</time>
      </trkpt>
      <trkpt lat="44.52088" lon="5.05651">
        <ele>373.1</ele>
        <time>2015-10-17T12:08:37Z</time>
      </trkpt>
      <trkpt lat="44.5209" lon="5.0565">
        <ele>372.7</ele>
        <time>2015-10-17T12:08:38Z</time>
      </trkpt>
      <trkpt lat="44.52092" lon="5.0565">
        <ele>371.7</ele>
        <time>2015-10-17T12:08:39Z</time>
      </trkpt>
      <trkpt lat="44.52097" lon="5.05649">
        <ele>370.7</ele>
        <time>2015-10-17T12:08:41Z</time>
      </trkpt>
      <trkpt lat="44.52099" lon="5.0565">
        <ele>370.7</ele>
        <time>2015-10-17T12:08:42Z</time>
      </trkpt>
      <trkpt lat="44.52099" lon="5.05652">
        <ele>370.2</ele>
        <time>2015-10-17T12:08:43Z</time>
      </trkpt>
      <trkpt lat="44.52099" lon="5.05655">
        <ele>370.2</ele>
        <time>2015-10-17T12:08:44Z</time>
      </trkpt>
      <trkpt lat="44.52098" lon="5.05657">
        <ele>369.8</ele>
        <time>2015-10-17T12:08:45Z</time>
      </trkpt>
      <trkpt lat="44.52096" lon="5.05659">
        <ele>369.3</ele>
        <time>2015-10-17T12:08:46Z</time>
      </trkpt>
      <trkpt lat="44.52095" lon="5.05661">
        <ele>368.8</ele>
        <time>2015-10-17T12:08:47Z</time>
      </trkpt>
      <trkpt lat="44.52095" lon="5.05664">
        <ele>368.3</ele>
        <time>2015-10-17T12:08:48Z</time>
      </trkpt>
      <trkpt lat="44.52095" lon="5.05666">
        <ele>367.8</ele>
        <time>2015-10-17T12:08:49Z</time>
      </trkpt>
      <trkpt lat="44.52096" lon="5.05667">
        <ele>367.4</ele>
        <time>2015-10-17T12:08:50Z</time>
      </trkpt>
      <trkpt lat="44.52098" lon="5.05666">
        <ele>367.4</ele>
        <time>2015-10-17T12:08:51Z</time>
      </trkpt>
      <trkpt lat="44.52099" lon="5.05666">
        <ele>367.4</ele>
        <time>2015-10-17T12:08:52Z</time>
      </trkpt>
      <trkpt lat="44.521" lon="5.05664">
        <ele>366.9</ele>
        <time>2015-10-17T12:08:53Z</time>
      </trkpt>
      <trkpt lat="44.52101" lon="5.05662">
        <ele>366.9</ele>
        <time>2015-10-17T12:08:54Z</time>
      </trkpt>
      <trkpt lat="44.52101" lon="5.05658">
        <ele>366.4</ele>
        <time>2015-10-17T12:09:09Z</time>
      </trkpt>
      <trkpt lat="44.52103" lon="5.05651">
        <ele>368.8</ele>
        <time>2015-10-17T12:21:20Z</time>
      </trkpt>
      <trkpt lat="44.52102" lon="5.05647">
        <ele>368.8</ele>
        <time>2015-10-17T12:21:21Z</time>
      </trkpt>
      <trkpt lat="44.52102" lon="5.05644">
        <ele>369.3</ele>
        <time>2015-10-17T12:21:22Z</time>
      </trkpt>
      <trkpt lat="44.52103" lon="5.05642">
        <ele>369.3</ele>
        <time>2015-10-17T12:21:23Z</time>
      </trkpt>
      <trkpt lat="44.52104" lon="5.0564">
        <ele>369.3</ele>
        <time>2015-10-17T12:21:24Z</time>
      </trkpt>
      <trkpt lat="44.52107" lon="5.05639">
        <ele>369.8</ele>
        <time>2015-10-17T12:21:25Z</time>
      </trkpt>
      <trkpt lat="44.5211" lon="5.0564">
        <ele>369.8</ele>
        <time>2015-10-17T12:21:26Z</time>
      </trkpt>
      <trkpt lat="44.52113" lon="5.05642">
        <ele>370.2</ele>
        <time>2015-10-17T12:21:27Z</time>
      </trkpt>
      <trkpt lat="44.52116" lon="5.05643">
        <ele>370.2</ele>
        <time>2015-10-17T12:21:28Z</time>
      </trkpt>
      <trkpt lat="44.52118" lon="5.05645">
        <ele>370.7</ele>
        <time>2015-10-17T12:21:29Z</time>
      </trkpt>
      <trkpt lat="44.52121" lon="5.0565">
        <ele>371.2</ele>
        <time>2015-10-17T12:21:33Z</time>
      </trkpt>
      <trkpt lat="44.52122" lon="5.05654">
        <ele>371.2</ele>
        <time>2015-10-17T12:21:34Z</time>
      </trkpt>
      <trkpt lat="44.52122" lon="5.05662">
        <ele>371.2</ele>
        <time>2015-10-17T12:21:35Z</time>
      </trkpt>
      <trkpt lat="44.52123" lon="5.05685">
        <ele>371.7</ele>
        <time>2015-10-17T12:21:37Z</time>
      </trkpt>
      <trkpt lat="44.52125" lon="5.05698">
        <ele>371.7</ele>
        <time>2015-10-17T12:21:38Z</time>
      </trkpt>
      <trkpt lat="44.52127" lon="5.05712">
        <ele>371.7</ele>
        <time>2015-10-17T12:21:39Z</time>
      </trkpt>
      <trkpt lat="44.52131" lon="5.05726">
        <ele>371.7</ele>
        <time>2015-10-17T12:21:40Z</time>
      </trkpt>
      <trkpt lat="44.52135" lon="5.0574">
        <ele>372.2</ele>
        <time>2015-10-17T12:21:41Z</time>
      </trkpt>
      <trkpt lat="44.52145" lon="5.05768">
        <ele>372.2</ele>
        <time>2015-10-17T12:21:43Z</time>
      </trkpt>
      <trkpt lat="44.5215" lon="5.05782">
        <ele>372.2</ele>
        <time>2015-10-17T12:21:44Z</time>
      </trkpt>
      <trkpt lat="44.52234" lon="5.06029">
        <ele>373.6</ele>
        <time>2015-10-17T12:22:00Z</time>
      </trkpt>
      <trkpt lat="44.52326" lon="5.06295">
        <ele>375.1</ele>
        <time>2015-10-17T12:22:17Z</time>
      </trkpt>
      <trkpt lat="44.52333" lon="5.06319">
        <ele>375.1</ele>
        <time>2015-10-17T12:22:20Z</time>
      </trkpt>
      <trkpt lat="44.52336" lon="5.06324">
        <ele>374.6</ele>
        <time>2015-10-17T12:22:21Z</time>
      </trkpt>
      <trkpt lat="44.52341" lon="5.06323">
        <ele>374.1</ele>
        <time>2015-10-17T12:22:22Z</time>
      </trkpt>
      <trkpt lat="44.52345" lon="5.0632">
        <ele>374.1</ele>
        <time>2015-10-17T12:22:23Z</time>
      </trkpt>
      <trkpt lat="44.52348" lon="5.0631">
        <ele>374.6</ele>
        <time>2015-10-17T12:22:24Z</time>
      </trkpt>
      <trkpt lat="44.52352" lon="5.06301">
        <ele>375.1</ele>
        <time>2015-10-17T12:22:25Z</time>
      </trkpt>
      <trkpt lat="44.52357" lon="5.06293">
        <ele>375.1</ele>
        <time>2015-10-17T12:22:26Z</time>
      </trkpt>
      <trkpt lat="44.5242" lon="5.06178">
        <ele>380.3</ele>
        <time>2015-10-17T12:22:36Z</time>
      </trkpt>
      <trkpt lat="44.52444" lon="5.06138">
        <ele>382.3</ele>
        <time>2015-10-17T12:22:40Z</time>
      </trkpt>
      <trkpt lat="44.5245" lon="5.06131">
        <ele>382.7</ele>
        <time>2015-10-17T12:22:41Z</time>
      </trkpt>
      <trkpt lat="44.52461" lon="5.06118">
        <ele>383.7</ele>
        <time>2015-10-17T12:22:43Z</time>
      </trkpt>
      <trkpt lat="44.52465" lon="5.06109">
        <ele>384.2</ele>
        <time>2015-10-17T12:22:44Z</time>
      </trkpt>
      <trkpt lat="44.5247" lon="5.06099">
        <ele>384.7</ele>
        <time>2015-10-17T12:22:45Z</time>
      </trkpt>
      <trkpt lat="44.52473" lon="5.06088">
        <ele>385.2</ele>
        <time>2015-10-17T12:22:46Z</time>
      </trkpt>
      <trkpt lat="44.52477" lon="5.06076">
        <ele>385.6</ele>
        <time>2015-10-17T12:22:47Z</time>
      </trkpt>
      <trkpt lat="44.52485" lon="5.06055">
        <ele>386.1</ele>
        <time>2015-10-17T12:22:49Z</time>
      </trkpt>
      <trkpt lat="44.5249" lon="5.06045">
        <ele>386.6</ele>
        <time>2015-10-17T12:22:50Z</time>
      </trkpt>
      <trkpt lat="44.5252" lon="5.05994">
        <ele>389</ele>
        <time>2015-10-17T12:22:55Z</time>
      </trkpt>
      <trkpt lat="44.52528" lon="5.05985">
        <ele>389.5</ele>
        <time>2015-10-17T12:22:56Z</time>
      </trkpt>
      <trkpt lat="44.52537" lon="5.05979">
        <ele>390</ele>
        <time>2015-10-17T12:22:57Z</time>
      </trkpt>
      <trkpt lat="44.52547" lon="5.05974">
        <ele>390.9</ele>
        <time>2015-10-17T12:22:58Z</time>
      </trkpt>
      <trkpt lat="44.52559" lon="5.05972">
        <ele>391.4</ele>
        <time>2015-10-17T12:22:59Z</time>
      </trkpt>
      <trkpt lat="44.52572" lon="5.05973">
        <ele>391.9</ele>
        <time>2015-10-17T12:23:00Z</time>
      </trkpt>
      <trkpt lat="44.52584" lon="5.05974">
        <ele>392.8</ele>
        <time>2015-10-17T12:23:01Z</time>
      </trkpt>
      <trkpt lat="44.52622" lon="5.05978">
        <ele>394.3</ele>
        <time>2015-10-17T12:23:04Z</time>
      </trkpt>
      <trkpt lat="44.52635" lon="5.05984">
        <ele>395.2</ele>
        <time>2015-10-17T12:23:05Z</time>
      </trkpt>
      <trkpt lat="44.52647" lon="5.05992">
        <ele>395.7</ele>
        <time>2015-10-17T12:23:06Z</time>
      </trkpt>
      <trkpt lat="44.5266" lon="5.06002">
        <ele>396.2</ele>
        <time>2015-10-17T12:23:07Z</time>
      </trkpt>
      <trkpt lat="44.52673" lon="5.06014">
        <ele>396.2</ele>
        <time>2015-10-17T12:23:08Z</time>
      </trkpt>
      <trkpt lat="44.52686" lon="5.06027">
        <ele>396.7</ele>
        <time>2015-10-17T12:23:09Z</time>
      </trkpt>
      <trkpt lat="44.52698" lon="5.06041">
        <ele>396.7</ele>
        <time>2015-10-17T12:23:10Z</time>
      </trkpt>
      <trkpt lat="44.52828" lon="5.0621">
        <ele>401</ele>
        <time>2015-10-17T12:23:21Z</time>
      </trkpt>
      <trkpt lat="44.52988" lon="5.06378">
        <ele>402.9</ele>
        <time>2015-10-17T12:23:33Z</time>
      </trkpt>
      <trkpt lat="44.53049" lon="5.06466">
        <ele>402.5</ele>
        <time>2015-10-17T12:23:38Z</time>
      </trkpt>
      <trkpt lat="44.53057" lon="5.0649">
        <ele>402</ele>
        <time>2015-10-17T12:23:39Z</time>
      </trkpt>
      <trkpt lat="44.53064" lon="5.06514">
        <ele>401.5</ele>
        <time>2015-10-17T12:23:40Z</time>
      </trkpt>
      <trkpt lat="44.53069" lon="5.06539">
        <ele>400.5</ele>
        <time>2015-10-17T12:23:41Z</time>
      </trkpt>
      <trkpt lat="44.53073" lon="5.06563">
        <ele>399.6</ele>
        <time>2015-10-17T12:23:42Z</time>
      </trkpt>
      <trkpt lat="44.53074" lon="5.06587">
        <ele>399.6</ele>
        <time>2015-10-17T12:23:43Z</time>
      </trkpt>
      <trkpt lat="44.53075" lon="5.06609">
        <ele>399.1</ele>
        <time>2015-10-17T12:23:44Z</time>
      </trkpt>
      <trkpt lat="44.53078" lon="5.06702">
        <ele>398.6</ele>
        <time>2015-10-17T12:23:49Z</time>
      </trkpt>
      <trkpt lat="44.53076" lon="5.06715">
        <ele>398.1</ele>
        <time>2015-10-17T12:23:50Z</time>
      </trkpt>
      <trkpt lat="44.53071" lon="5.06737">
        <ele>397.2</ele>
        <time>2015-10-17T12:23:52Z</time>
      </trkpt>
      <trkpt lat="44.53071" lon="5.06745">
        <ele>396.7</ele>
        <time>2015-10-17T12:23:53Z</time>
      </trkpt>
      <trkpt lat="44.53075" lon="5.06748">
        <ele>397.2</ele>
        <time>2015-10-17T12:23:54Z</time>
      </trkpt>
      <trkpt lat="44.53082" lon="5.0675">
        <ele>396.7</ele>
        <time>2015-10-17T12:23:55Z</time>
      </trkpt>
      <trkpt lat="44.53091" lon="5.06749">
        <ele>396.7</ele>
        <time>2015-10-17T12:23:56Z</time>
      </trkpt>
      <trkpt lat="44.531" lon="5.06747">
        <ele>396.7</ele>
        <time>2015-10-17T12:23:57Z</time>
      </trkpt>
      <trkpt lat="44.53111" lon="5.06746">
        <ele>397.2</ele>
        <time>2015-10-17T12:23:58Z</time>
      </trkpt>
      <trkpt lat="44.53122" lon="5.06749">
        <ele>397.6</ele>
        <time>2015-10-17T12:23:59Z</time>
      </trkpt>
      <trkpt lat="44.53135" lon="5.06754">
        <ele>398.6</ele>
        <time>2015-10-17T12:24:00Z</time>
      </trkpt>
      <trkpt lat="44.53291" lon="5.06829">
        <ele>407.3</ele>
        <time>2015-10-17T12:24:11Z</time>
      </trkpt>
      <trkpt lat="44.5352" lon="5.07004">
        <ele>418.3</ele>
        <time>2015-10-17T12:24:25Z</time>
      </trkpt>
      <trkpt lat="44.53698" lon="5.07176">
        <ele>424.1</ele>
        <time>2015-10-17T12:24:35Z</time>
      </trkpt>
      <trkpt lat="44.53919" lon="5.07411">
        <ele>431.3</ele>
        <time>2015-10-17T12:24:47Z</time>
      </trkpt>
      <trkpt lat="44.53962" lon="5.07454">
        <ele>432.3</ele>
        <time>2015-10-17T12:24:50Z</time>
      </trkpt>
      <trkpt lat="44.53977" lon="5.07457">
        <ele>432.7</ele>
        <time>2015-10-17T12:24:51Z</time>
      </trkpt>
      <trkpt lat="44.53992" lon="5.07457">
        <ele>433.2</ele>
        <time>2015-10-17T12:24:52Z</time>
      </trkpt>
      <trkpt lat="44.54009" lon="5.07459">
        <ele>433.2</ele>
        <time>2015-10-17T12:24:53Z</time>
      </trkpt>
      <trkpt lat="44.54026" lon="5.07468">
        <ele>433.7</ele>
        <time>2015-10-17T12:24:54Z</time>
      </trkpt>
      <trkpt lat="44.54043" lon="5.07485">
        <ele>433.7</ele>
        <time>2015-10-17T12:24:55Z</time>
      </trkpt>
      <trkpt lat="44.5406" lon="5.07504">
        <ele>434.2</ele>
        <time>2015-10-17T12:24:56Z</time>
      </trkpt>
      <trkpt lat="44.54078" lon="5.07524">
        <ele>434.7</ele>
        <time>2015-10-17T12:24:57Z</time>
      </trkpt>
      <trkpt lat="44.54221" lon="5.07635">
        <ele>439.5</ele>
        <time>2015-10-17T12:25:04Z</time>
      </trkpt>
      <trkpt lat="44.5432" lon="5.07721">
        <ele>442.8</ele>
        <time>2015-10-17T12:25:09Z</time>
      </trkpt>
      <trkpt lat="44.54341" lon="5.07734">
        <ele>443.3</ele>
        <time>2015-10-17T12:25:10Z</time>
      </trkpt>
      <trkpt lat="44.54495" lon="5.07808">
        <ele>448.1</ele>
        <time>2015-10-17T12:25:17Z</time>
      </trkpt>
      <trkpt lat="44.54518" lon="5.07813">
        <ele>449.1</ele>
        <time>2015-10-17T12:25:18Z</time>
      </trkpt>
      <trkpt lat="44.54611" lon="5.07836">
        <ele>452.9</ele>
        <time>2015-10-17T12:25:22Z</time>
      </trkpt>
      <trkpt lat="44.54633" lon="5.07849">
        <ele>453.9</ele>
        <time>2015-10-17T12:25:23Z</time>
      </trkpt>
      <trkpt lat="44.54654" lon="5.07864">
        <ele>454.8</ele>
        <time>2015-10-17T12:25:24Z</time>
      </trkpt>
      <trkpt lat="44.54674" lon="5.07881">
        <ele>455.8</ele>
        <time>2015-10-17T12:25:25Z</time>
      </trkpt>
      <trkpt lat="44.54693" lon="5.079">
        <ele>456.8</ele>
        <time>2015-10-17T12:25:26Z</time>
      </trkpt>
      <trkpt lat="44.54812" lon="5.08003">
        <ele>462.1</ele>
        <time>2015-10-17T12:25:32Z</time>
      </trkpt>
      <trkpt lat="44.54829" lon="5.08025">
        <ele>463</ele>
        <time>2015-10-17T12:25:33Z</time>
      </trkpt>
      <trkpt lat="44.54886" lon="5.08114">
        <ele>466.4</ele>
        <time>2015-10-17T12:25:37Z</time>
      </trkpt>
      <trkpt lat="44.54897" lon="5.08138">
        <ele>467.3</ele>
        <time>2015-10-17T12:25:38Z</time>
      </trkpt>
      <trkpt lat="44.54904" lon="5.08163">
        <ele>468.3</ele>
        <time>2015-10-17T12:25:39Z</time>
      </trkpt>
      <trkpt lat="44.54918" lon="5.08211">
        <ele>470.7</ele>
        <time>2015-10-17T12:25:41Z</time>
      </trkpt>
      <trkpt lat="44.54929" lon="5.08232">
        <ele>471.7</ele>
        <time>2015-10-17T12:25:42Z</time>
      </trkpt>
      <trkpt lat="44.54943" lon="5.08246">
        <ele>472.6</ele>
        <time>2015-10-17T12:25:43Z</time>
      </trkpt>
      <trkpt lat="44.54959" lon="5.08259">
        <ele>473.6</ele>
        <time>2015-10-17T12:25:44Z</time>
      </trkpt>
      <trkpt lat="44.54977" lon="5.08273">
        <ele>474.6</ele>
        <time>2015-10-17T12:25:45Z</time>
      </trkpt>
      <trkpt lat="44.54994" lon="5.08289">
        <ele>476</ele>
        <time>2015-10-17T12:25:46Z</time>
      </trkpt>
      <trkpt lat="44.5501" lon="5.08308">
        <ele>477.4</ele>
        <time>2015-10-17T12:25:47Z</time>
      </trkpt>
      <trkpt lat="44.55025" lon="5.08327">
        <ele>478.4</ele>
        <time>2015-10-17T12:25:48Z</time>
      </trkpt>
      <trkpt lat="44.55037" lon="5.08349">
        <ele>479.4</ele>
        <time>2015-10-17T12:25:49Z</time>
      </trkpt>
      <trkpt lat="44.55046" lon="5.08372">
        <ele>480.8</ele>
        <time>2015-10-17T12:25:50Z</time>
      </trkpt>
      <trkpt lat="44.55053" lon="5.08395">
        <ele>481.8</ele>
        <time>2015-10-17T12:25:51Z</time>
      </trkpt>
      <trkpt lat="44.55062" lon="5.08418">
        <ele>482.7</ele>
        <time>2015-10-17T12:25:52Z</time>
      </trkpt>
      <trkpt lat="44.55073" lon="5.08438">
        <ele>484.2</ele>
        <time>2015-10-17T12:25:53Z</time>
      </trkpt>
      <trkpt lat="44.55087" lon="5.08456">
        <ele>485.1</ele>
        <time>2015-10-17T12:25:54Z</time>
      </trkpt>
      <trkpt lat="44.55208" lon="5.08641">
        <ele>496.7</ele>
        <time>2015-10-17T12:26:03Z</time>
      </trkpt>
      <trkpt lat="44.55304" lon="5.08826">
        <ele>508.7</ele>
        <time>2015-10-17T12:26:12Z</time>
      </trkpt>
      <trkpt lat="44.5531" lon="5.08832">
        <ele>510.1</ele>
        <time>2015-10-17T12:26:13Z</time>
      </trkpt>
      <trkpt lat="44.55319" lon="5.08834">
        <ele>510.6</ele>
        <time>2015-10-17T12:26:14Z</time>
      </trkpt>
      <trkpt lat="44.55325" lon="5.08831">
        <ele>510.6</ele>
        <time>2015-10-17T12:26:15Z</time>
      </trkpt>
      <trkpt lat="44.55329" lon="5.08821">
        <ele>511.1</ele>
        <time>2015-10-17T12:26:16Z</time>
      </trkpt>
      <trkpt lat="44.5533" lon="5.08804">
        <ele>512</ele>
        <time>2015-10-17T12:26:17Z</time>
      </trkpt>
      <trkpt lat="44.55332" lon="5.08788">
        <ele>513.5</ele>
        <time>2015-10-17T12:26:18Z</time>
      </trkpt>
      <trkpt lat="44.55333" lon="5.08767">
        <ele>514.4</ele>
        <time>2015-10-17T12:26:19Z</time>
      </trkpt>
      <trkpt lat="44.55331" lon="5.08737">
        <ele>517.3</ele>
        <time>2015-10-17T12:26:20Z</time>
      </trkpt>
      <trkpt lat="44.55333" lon="5.08713">
        <ele>518.3</ele>
        <time>2015-10-17T12:26:21Z</time>
      </trkpt>
      <trkpt lat="44.55342" lon="5.08622">
        <ele>523.6</ele>
        <time>2015-10-17T12:26:26Z</time>
      </trkpt>
      <trkpt lat="44.55355" lon="5.08645">
        <ele>526.5</ele>
        <time>2015-10-17T12:26:30Z</time>
      </trkpt>
      <trkpt lat="44.55355" lon="5.08661">
        <ele>527.4</ele>
        <time>2015-10-17T12:26:31Z</time>
      </trkpt>
      <trkpt lat="44.55357" lon="5.08678">
        <ele>527.9</ele>
        <time>2015-10-17T12:26:32Z</time>
      </trkpt>
      <trkpt lat="44.55361" lon="5.08696">
        <ele>528.9</ele>
        <time>2015-10-17T12:26:33Z</time>
      </trkpt>
      <trkpt lat="44.55369" lon="5.08714">
        <ele>529.8</ele>
        <time>2015-10-17T12:26:34Z</time>
      </trkpt>
      <trkpt lat="44.5538" lon="5.08729">
        <ele>530.3</ele>
        <time>2015-10-17T12:26:35Z</time>
      </trkpt>
      <trkpt lat="44.55393" lon="5.08741">
        <ele>531.8</ele>
        <time>2015-10-17T12:26:36Z</time>
      </trkpt>
      <trkpt lat="44.55409" lon="5.08751">
        <ele>533.7</ele>
        <time>2015-10-17T12:26:37Z</time>
      </trkpt>
      <trkpt lat="44.55426" lon="5.0876">
        <ele>535.6</ele>
        <time>2015-10-17T12:26:38Z</time>
      </trkpt>
      <trkpt lat="44.5546" lon="5.08782">
        <ele>538</ele>
        <time>2015-10-17T12:26:40Z</time>
      </trkpt>
      <trkpt lat="44.55473" lon="5.08795">
        <ele>539.4</ele>
        <time>2015-10-17T12:26:41Z</time>
      </trkpt>
      <trkpt lat="44.55484" lon="5.08812">
        <ele>540.4</ele>
        <time>2015-10-17T12:26:42Z</time>
      </trkpt>
      <trkpt lat="44.55492" lon="5.08831">
        <ele>541.4</ele>
        <time>2015-10-17T12:26:43Z</time>
      </trkpt>
      <trkpt lat="44.55498" lon="5.0885">
        <ele>542.3</ele>
        <time>2015-10-17T12:26:44Z</time>
      </trkpt>
      <trkpt lat="44.55502" lon="5.08869">
        <ele>543.3</ele>
        <time>2015-10-17T12:26:45Z</time>
      </trkpt>
      <trkpt lat="44.55501" lon="5.08887">
        <ele>544.2</ele>
        <time>2015-10-17T12:26:46Z</time>
      </trkpt>
      <trkpt lat="44.55499" lon="5.08903">
        <ele>545.2</ele>
        <time>2015-10-17T12:26:47Z</time>
      </trkpt>
      <trkpt lat="44.55497" lon="5.08914">
        <ele>546.2</ele>
        <time>2015-10-17T12:26:48Z</time>
      </trkpt>
      <trkpt lat="44.55502" lon="5.0892">
        <ele>546.7</ele>
        <time>2015-10-17T12:26:49Z</time>
      </trkpt>
      <trkpt lat="44.55511" lon="5.08921">
        <ele>547.6</ele>
        <time>2015-10-17T12:26:50Z</time>
      </trkpt>
      <trkpt lat="44.55523" lon="5.0892">
        <ele>548.1</ele>
        <time>2015-10-17T12:26:51Z</time>
      </trkpt>
      <trkpt lat="44.55537" lon="5.08916">
        <ele>549.1</ele>
        <time>2015-10-17T12:26:52Z</time>
      </trkpt>
      <trkpt lat="44.55553" lon="5.08914">
        <ele>549.5</ele>
        <time>2015-10-17T12:26:53Z</time>
      </trkpt>
      <trkpt lat="44.5557" lon="5.08914">
        <ele>550.5</ele>
        <time>2015-10-17T12:26:54Z</time>
      </trkpt>
      <trkpt lat="44.55585" lon="5.08916">
        <ele>551.5</ele>
        <time>2015-10-17T12:26:55Z</time>
      </trkpt>
      <trkpt lat="44.556" lon="5.0892">
        <ele>552.9</ele>
        <time>2015-10-17T12:26:56Z</time>
      </trkpt>
      <trkpt lat="44.55611" lon="5.08926">
        <ele>553.9</ele>
        <time>2015-10-17T12:26:57Z</time>
      </trkpt>
      <trkpt lat="44.5562" lon="5.08938">
        <ele>554.8</ele>
        <time>2015-10-17T12:26:58Z</time>
      </trkpt>
      <trkpt lat="44.55624" lon="5.08955">
        <ele>555.8</ele>
        <time>2015-10-17T12:26:59Z</time>
      </trkpt>
      <trkpt lat="44.55625" lon="5.08971">
        <ele>556.7</ele>
        <time>2015-10-17T12:27:00Z</time>
      </trkpt>
      <trkpt lat="44.55626" lon="5.08985">
        <ele>557.2</ele>
        <time>2015-10-17T12:27:01Z</time>
      </trkpt>
      <trkpt lat="44.5563" lon="5.08996">
        <ele>558.2</ele>
        <time>2015-10-17T12:27:02Z</time>
      </trkpt>
      <trkpt lat="44.55638" lon="5.09004">
        <ele>558.7</ele>
        <time>2015-10-17T12:27:03Z</time>
      </trkpt>
      <trkpt lat="44.5565" lon="5.09008">
        <ele>559.1</ele>
        <time>2015-10-17T12:27:04Z</time>
      </trkpt>
      <trkpt lat="44.55665" lon="5.09011">
        <ele>560.1</ele>
        <time>2015-10-17T12:27:05Z</time>
      </trkpt>
      <trkpt lat="44.55681" lon="5.09014">
        <ele>561.1</ele>
        <time>2015-10-17T12:27:06Z</time>
      </trkpt>
      <trkpt lat="44.55771" lon="5.09031">
        <ele>568.8</ele>
        <time>2015-10-17T12:27:12Z</time>
      </trkpt>
      <trkpt lat="44.55778" lon="5.0903">
        <ele>569.2</ele>
        <time>2015-10-17T12:27:13Z</time>
      </trkpt>
      <trkpt lat="44.55782" lon="5.09025">
        <ele>569.2</ele>
        <time>2015-10-17T12:27:14Z</time>
      </trkpt>
      <trkpt lat="44.55781" lon="5.09018">
        <ele>569.7</ele>
        <time>2015-10-17T12:27:15Z</time>
      </trkpt>
      <trkpt lat="44.55775" lon="5.09006">
        <ele>571.2</ele>
        <time>2015-10-17T12:27:16Z</time>
      </trkpt>
      <trkpt lat="44.55766" lon="5.08998">
        <ele>572.6</ele>
        <time>2015-10-17T12:27:17Z</time>
      </trkpt>
      <trkpt lat="44.55754" lon="5.08993">
        <ele>573.1</ele>
        <time>2015-10-17T12:27:18Z</time>
      </trkpt>
      <trkpt lat="44.5574" lon="5.08986">
        <ele>573.6</ele>
        <time>2015-10-17T12:27:19Z</time>
      </trkpt>
      <trkpt lat="44.55726" lon="5.08978">
        <ele>574.5</ele>
        <time>2015-10-17T12:27:20Z</time>
      </trkpt>
      <trkpt lat="44.55714" lon="5.08967">
        <ele>575</ele>
        <time>2015-10-17T12:27:21Z</time>
      </trkpt>
      <trkpt lat="44.55704" lon="5.08953">
        <ele>576</ele>
        <time>2015-10-17T12:27:22Z</time>
      </trkpt>
      <trkpt lat="44.55699" lon="5.08936">
        <ele>576.9</ele>
        <time>2015-10-17T12:27:23Z</time>
      </trkpt>
      <trkpt lat="44.557" lon="5.08917">
        <ele>577.9</ele>
        <time>2015-10-17T12:27:24Z</time>
      </trkpt>
      <trkpt lat="44.55702" lon="5.089">
        <ele>578.9</ele>
        <time>2015-10-17T12:27:25Z</time>
      </trkpt>
      <trkpt lat="44.55708" lon="5.08882">
        <ele>579.8</ele>
        <time>2015-10-17T12:27:26Z</time>
      </trkpt>
      <trkpt lat="44.55714" lon="5.08865">
        <ele>580.8</ele>
        <time>2015-10-17T12:27:27Z</time>
      </trkpt>
      <trkpt lat="44.55716" lon="5.08849">
        <ele>581.3</ele>
        <time>2015-10-17T12:27:28Z</time>
      </trkpt>
      <trkpt lat="44.55715" lon="5.08836">
        <ele>581.7</ele>
        <time>2015-10-17T12:27:29Z</time>
      </trkpt>
      <trkpt lat="44.55708" lon="5.08827">
        <ele>582.2</ele>
        <time>2015-10-17T12:27:30Z</time>
      </trkpt>
      <trkpt lat="44.55699" lon="5.08821">
        <ele>582.7</ele>
        <time>2015-10-17T12:27:31Z</time>
      </trkpt>
      <trkpt lat="44.55689" lon="5.08816">
        <ele>583.2</ele>
        <time>2015-10-17T12:27:32Z</time>
      </trkpt>
      <trkpt lat="44.55681" lon="5.08808">
        <ele>583.7</ele>
        <time>2015-10-17T12:27:33Z</time>
      </trkpt>
      <trkpt lat="44.55677" lon="5.08794">
        <ele>584.6</ele>
        <time>2015-10-17T12:27:34Z</time>
      </trkpt>
      <trkpt lat="44.55678" lon="5.08777">
        <ele>585.1</ele>
        <time>2015-10-17T12:27:35Z</time>
      </trkpt>
      <trkpt lat="44.55681" lon="5.08761">
        <ele>586.1</ele>
        <time>2015-10-17T12:27:36Z</time>
      </trkpt>
      <trkpt lat="44.55685" lon="5.08749">
        <ele>586.5</ele>
        <time>2015-10-17T12:27:37Z</time>
      </trkpt>
      <trkpt lat="44.55689" lon="5.08744">
        <ele>587.5</ele>
        <time>2015-10-17T12:27:38Z</time>
      </trkpt>
      <trkpt lat="44.55701" lon="5.08756">
        <ele>589</ele>
        <time>2015-10-17T12:27:40Z</time>
      </trkpt>
      <trkpt lat="44.55707" lon="5.08768">
        <ele>589</ele>
        <time>2015-10-17T12:27:41Z</time>
      </trkpt>
      <trkpt lat="44.55714" lon="5.08783">
        <ele>589.4</ele>
        <time>2015-10-17T12:27:42Z</time>
      </trkpt>
      <trkpt lat="44.55723" lon="5.08801">
        <ele>590.4</ele>
        <time>2015-10-17T12:27:43Z</time>
      </trkpt>
      <trkpt lat="44.55762" lon="5.08864">
        <ele>593.8</ele>
        <time>2015-10-17T12:27:47Z</time>
      </trkpt>
      <trkpt lat="44.55775" lon="5.08874">
        <ele>594.7</ele>
        <time>2015-10-17T12:27:48Z</time>
      </trkpt>
      <trkpt lat="44.55789" lon="5.08883">
        <ele>596.2</ele>
        <time>2015-10-17T12:27:49Z</time>
      </trkpt>
      <trkpt lat="44.55833" lon="5.08901">
        <ele>599.5</ele>
        <time>2015-10-17T12:27:52Z</time>
      </trkpt>
      <trkpt lat="44.55847" lon="5.08898">
        <ele>600.5</ele>
        <time>2015-10-17T12:27:53Z</time>
      </trkpt>
      <trkpt lat="44.55861" lon="5.08893">
        <ele>601</ele>
        <time>2015-10-17T12:27:54Z</time>
      </trkpt>
      <trkpt lat="44.55873" lon="5.08884">
        <ele>601.4</ele>
        <time>2015-10-17T12:27:55Z</time>
      </trkpt>
      <trkpt lat="44.55886" lon="5.08873">
        <ele>602.4</ele>
        <time>2015-10-17T12:27:56Z</time>
      </trkpt>
      <trkpt lat="44.55899" lon="5.08864">
        <ele>603.4</ele>
        <time>2015-10-17T12:27:57Z</time>
      </trkpt>
      <trkpt lat="44.55911" lon="5.08861">
        <ele>604.3</ele>
        <time>2015-10-17T12:27:58Z</time>
      </trkpt>
      <trkpt lat="44.55925" lon="5.08863">
        <ele>605.3</ele>
        <time>2015-10-17T12:27:59Z</time>
      </trkpt>
      <trkpt lat="44.55941" lon="5.08868">
        <ele>606.3</ele>
        <time>2015-10-17T12:28:00Z</time>
      </trkpt>
      <trkpt lat="44.55958" lon="5.08872">
        <ele>607.7</ele>
        <time>2015-10-17T12:28:01Z</time>
      </trkpt>
      <trkpt lat="44.56127" lon="5.08909">
        <ele>620.7</ele>
        <time>2015-10-17T12:28:10Z</time>
      </trkpt>
      <trkpt lat="44.56211" lon="5.08929">
        <ele>626.9</ele>
        <time>2015-10-17T12:28:16Z</time>
      </trkpt>
      <trkpt lat="44.56221" lon="5.08935">
        <ele>627.4</ele>
        <time>2015-10-17T12:28:17Z</time>
      </trkpt>
      <trkpt lat="44.56225" lon="5.08947">
        <ele>628.4</ele>
        <time>2015-10-17T12:28:18Z</time>
      </trkpt>
      <trkpt lat="44.56226" lon="5.08962">
        <ele>628.8</ele>
        <time>2015-10-17T12:28:19Z</time>
      </trkpt>
      <trkpt lat="44.56222" lon="5.08977">
        <ele>629.8</ele>
        <time>2015-10-17T12:28:20Z</time>
      </trkpt>
      <trkpt lat="44.56215" lon="5.08993">
        <ele>630.8</ele>
        <time>2015-10-17T12:28:21Z</time>
      </trkpt>
      <trkpt lat="44.56206" lon="5.0901">
        <ele>632.2</ele>
        <time>2015-10-17T12:28:22Z</time>
      </trkpt>
      <trkpt lat="44.56195" lon="5.09027">
        <ele>633.2</ele>
        <time>2015-10-17T12:28:23Z</time>
      </trkpt>
      <trkpt lat="44.56167" lon="5.09082">
        <ele>635.6</ele>
        <time>2015-10-17T12:28:26Z</time>
      </trkpt>
      <trkpt lat="44.56163" lon="5.09104">
        <ele>636.5</ele>
        <time>2015-10-17T12:28:27Z</time>
      </trkpt>
      <trkpt lat="44.56162" lon="5.09127">
        <ele>637</ele>
        <time>2015-10-17T12:28:28Z</time>
      </trkpt>
      <trkpt lat="44.56164" lon="5.09153">
        <ele>637.5</ele>
        <time>2015-10-17T12:28:29Z</time>
      </trkpt>
      <trkpt lat="44.56167" lon="5.09179">
        <ele>638</ele>
        <time>2015-10-17T12:28:30Z</time>
      </trkpt>
      <trkpt lat="44.56194" lon="5.09404">
        <ele>639.4</ele>
        <time>2015-10-17T12:28:38Z</time>
      </trkpt>
      <trkpt lat="44.56217" lon="5.09547">
        <ele>639.9</ele>
        <time>2015-10-17T12:28:43Z</time>
      </trkpt>
      <trkpt lat="44.56217" lon="5.09574">
        <ele>640.4</ele>
        <time>2015-10-17T12:28:44Z</time>
      </trkpt>
      <trkpt lat="44.56215" lon="5.096">
        <ele>640.4</ele>
        <time>2015-10-17T12:28:45Z</time>
      </trkpt>
      <trkpt lat="44.56212" lon="5.09649">
        <ele>640.4</ele>
        <time>2015-10-17T12:28:47Z</time>
      </trkpt>
      <trkpt lat="44.56214" lon="5.09673">
        <ele>640.4</ele>
        <time>2015-10-17T12:28:48Z</time>
      </trkpt>
      <trkpt lat="44.56222" lon="5.09693">
        <ele>640.4</ele>
        <time>2015-10-17T12:28:49Z</time>
      </trkpt>
      <trkpt lat="44.56232" lon="5.09714">
        <ele>640.4</ele>
        <time>2015-10-17T12:28:50Z</time>
      </trkpt>
      <trkpt lat="44.56245" lon="5.09733">
        <ele>640.9</ele>
        <time>2015-10-17T12:28:51Z</time>
      </trkpt>
      <trkpt lat="44.5626" lon="5.09752">
        <ele>640.9</ele>
        <time>2015-10-17T12:28:52Z</time>
      </trkpt>
      <trkpt lat="44.56403" lon="5.09935">
        <ele>640.4</ele>
        <time>2015-10-17T12:29:02Z</time>
      </trkpt>
      <trkpt lat="44.56584" lon="5.10204">
        <ele>631.7</ele>
        <time>2015-10-17T12:29:14Z</time>
      </trkpt>
      <trkpt lat="44.56758" lon="5.10457">
        <ele>626.9</ele>
        <time>2015-10-17T12:29:25Z</time>
      </trkpt>
      <trkpt lat="44.56776" lon="5.10473">
        <ele>626.4</ele>
        <time>2015-10-17T12:29:26Z</time>
      </trkpt>
      <trkpt lat="44.56795" lon="5.10487">
        <ele>626.4</ele>
        <time>2015-10-17T12:29:27Z</time>
      </trkpt>
      <trkpt lat="44.56846" lon="5.10526">
        <ele>625</ele>
        <time>2015-10-17T12:29:30Z</time>
      </trkpt>
      <trkpt lat="44.56856" lon="5.10541">
        <ele>624.5</ele>
        <time>2015-10-17T12:29:31Z</time>
      </trkpt>
      <trkpt lat="44.56864" lon="5.1056">
        <ele>624</ele>
        <time>2015-10-17T12:29:32Z</time>
      </trkpt>
      <trkpt lat="44.56871" lon="5.10581">
        <ele>624</ele>
        <time>2015-10-17T12:29:33Z</time>
      </trkpt>
      <trkpt lat="44.56876" lon="5.10601">
        <ele>623.6</ele>
        <time>2015-10-17T12:29:34Z</time>
      </trkpt>
      <trkpt lat="44.56891" lon="5.10635">
        <ele>623.1</ele>
        <time>2015-10-17T12:29:36Z</time>
      </trkpt>
      <trkpt lat="44.56904" lon="5.10646">
        <ele>622.6</ele>
        <time>2015-10-17T12:29:37Z</time>
      </trkpt>
      <trkpt lat="44.56917" lon="5.10652">
        <ele>621.6</ele>
        <time>2015-10-17T12:29:38Z</time>
      </trkpt>
      <trkpt lat="44.56933" lon="5.10652">
        <ele>620.2</ele>
        <time>2015-10-17T12:29:39Z</time>
      </trkpt>
      <trkpt lat="44.56949" lon="5.10647">
        <ele>619.7</ele>
        <time>2015-10-17T12:29:40Z</time>
      </trkpt>
      <trkpt lat="44.56964" lon="5.10639">
        <ele>619.2</ele>
        <time>2015-10-17T12:29:41Z</time>
      </trkpt>
      <trkpt lat="44.56978" lon="5.10625">
        <ele>619.2</ele>
        <time>2015-10-17T12:29:42Z</time>
      </trkpt>
      <trkpt lat="44.56992" lon="5.10609">
        <ele>620.2</ele>
        <time>2015-10-17T12:29:43Z</time>
      </trkpt>
      <trkpt lat="44.57007" lon="5.10594">
        <ele>620.7</ele>
        <time>2015-10-17T12:29:44Z</time>
      </trkpt>
      <trkpt lat="44.57033" lon="5.10566">
        <ele>623.1</ele>
        <time>2015-10-17T12:29:46Z</time>
      </trkpt>
      <trkpt lat="44.57047" lon="5.10562">
        <ele>623.6</ele>
        <time>2015-10-17T12:29:47Z</time>
      </trkpt>
      <trkpt lat="44.57063" lon="5.10563">
        <ele>623.6</ele>
        <time>2015-10-17T12:29:48Z</time>
      </trkpt>
      <trkpt lat="44.5708" lon="5.10567">
        <ele>624</ele>
        <time>2015-10-17T12:29:49Z</time>
      </trkpt>
      <trkpt lat="44.57097" lon="5.10576">
        <ele>624.5</ele>
        <time>2015-10-17T12:29:50Z</time>
      </trkpt>
      <trkpt lat="44.57115" lon="5.10586">
        <ele>625.5</ele>
        <time>2015-10-17T12:29:51Z</time>
      </trkpt>
      <trkpt lat="44.57216" lon="5.10659">
        <ele>628.8</ele>
        <time>2015-10-17T12:29:57Z</time>
      </trkpt>
      <trkpt lat="44.57231" lon="5.10679">
        <ele>628.8</ele>
        <time>2015-10-17T12:29:58Z</time>
      </trkpt>
      <trkpt lat="44.57288" lon="5.1077">
        <ele>631.7</ele>
        <time>2015-10-17T12:30:03Z</time>
      </trkpt>
      <trkpt lat="44.573" lon="5.1078">
        <ele>631.7</ele>
        <time>2015-10-17T12:30:04Z</time>
      </trkpt>
      <trkpt lat="44.57314" lon="5.10784">
        <ele>631.2</ele>
        <time>2015-10-17T12:30:05Z</time>
      </trkpt>
      <trkpt lat="44.57327" lon="5.10781">
        <ele>631.2</ele>
        <time>2015-10-17T12:30:06Z</time>
      </trkpt>
      <trkpt lat="44.57338" lon="5.10772">
        <ele>631.2</ele>
        <time>2015-10-17T12:30:07Z</time>
      </trkpt>
      <trkpt lat="44.5735" lon="5.10758">
        <ele>633.2</ele>
        <time>2015-10-17T12:30:08Z</time>
      </trkpt>
      <trkpt lat="44.57358" lon="5.1074">
        <ele>634.6</ele>
        <time>2015-10-17T12:30:09Z</time>
      </trkpt>
      <trkpt lat="44.57368" lon="5.10726">
        <ele>635.6</ele>
        <time>2015-10-17T12:30:10Z</time>
      </trkpt>
      <trkpt lat="44.57378" lon="5.10713">
        <ele>636.1</ele>
        <time>2015-10-17T12:30:11Z</time>
      </trkpt>
      <trkpt lat="44.5739" lon="5.10704">
        <ele>637</ele>
        <time>2015-10-17T12:30:12Z</time>
      </trkpt>
      <trkpt lat="44.57403" lon="5.107">
        <ele>638.5</ele>
        <time>2015-10-17T12:30:13Z</time>
      </trkpt>
      <trkpt lat="44.57418" lon="5.10699">
        <ele>640.4</ele>
        <time>2015-10-17T12:30:14Z</time>
      </trkpt>
      <trkpt lat="44.57436" lon="5.10704">
        <ele>642.3</ele>
        <time>2015-10-17T12:30:15Z</time>
      </trkpt>
      <trkpt lat="44.57453" lon="5.1071">
        <ele>643.7</ele>
        <time>2015-10-17T12:30:16Z</time>
      </trkpt>
      <trkpt lat="44.57472" lon="5.10712">
        <ele>644.7</ele>
        <time>2015-10-17T12:30:17Z</time>
      </trkpt>
      <trkpt lat="44.57566" lon="5.10698">
        <ele>646.6</ele>
        <time>2015-10-17T12:30:22Z</time>
      </trkpt>
      <trkpt lat="44.57582" lon="5.10682">
        <ele>647.6</ele>
        <time>2015-10-17T12:30:23Z</time>
      </trkpt>
      <trkpt lat="44.57599" lon="5.10667">
        <ele>649</ele>
        <time>2015-10-17T12:30:24Z</time>
      </trkpt>
      <trkpt lat="44.57614" lon="5.10648">
        <ele>649.5</ele>
        <time>2015-10-17T12:30:25Z</time>
      </trkpt>
      <trkpt lat="44.57629" lon="5.10631">
        <ele>648.6</ele>
        <time>2015-10-17T12:30:26Z</time>
      </trkpt>
      <trkpt lat="44.57695" lon="5.10576">
        <ele>651.4</ele>
        <time>2015-10-17T12:30:30Z</time>
      </trkpt>
      <trkpt lat="44.57714" lon="5.10568">
        <ele>652.4</ele>
        <time>2015-10-17T12:30:31Z</time>
      </trkpt>
      <trkpt lat="44.57732" lon="5.10564">
        <ele>653.4</ele>
        <time>2015-10-17T12:30:32Z</time>
      </trkpt>
      <trkpt lat="44.5775" lon="5.10564">
        <ele>653.8</ele>
        <time>2015-10-17T12:30:33Z</time>
      </trkpt>
      <trkpt lat="44.57766" lon="5.10566">
        <ele>654.3</ele>
        <time>2015-10-17T12:30:34Z</time>
      </trkpt>
      <trkpt lat="44.57777" lon="5.10572">
        <ele>655.3</ele>
        <time>2015-10-17T12:30:35Z</time>
      </trkpt>
      <trkpt lat="44.57788" lon="5.1059">
        <ele>651.9</ele>
        <time>2015-10-17T12:30:36Z</time>
      </trkpt>
      <trkpt lat="44.57796" lon="5.10612">
        <ele>650</ele>
        <time>2015-10-17T12:30:37Z</time>
      </trkpt>
      <trkpt lat="44.57797" lon="5.10632">
        <ele>650.5</ele>
        <time>2015-10-17T12:30:38Z</time>
      </trkpt>
      <trkpt lat="44.57794" lon="5.10651">
        <ele>651.4</ele>
        <time>2015-10-17T12:30:39Z</time>
      </trkpt>
      <trkpt lat="44.57785" lon="5.10669">
        <ele>651.9</ele>
        <time>2015-10-17T12:30:40Z</time>
      </trkpt>
      <trkpt lat="44.57778" lon="5.1069">
        <ele>654.8</ele>
        <time>2015-10-17T12:30:41Z</time>
      </trkpt>
      <trkpt lat="44.57762" lon="5.10713">
        <ele>653.4</ele>
        <time>2015-10-17T12:30:42Z</time>
      </trkpt>
      <trkpt lat="44.57749" lon="5.10734">
        <ele>652.9</ele>
        <time>2015-10-17T12:30:43Z</time>
      </trkpt>
      <trkpt lat="44.57738" lon="5.10756">
        <ele>652.4</ele>
        <time>2015-10-17T12:30:44Z</time>
      </trkpt>
      <trkpt lat="44.57695" lon="5.10818">
        <ele>658.6</ele>
        <time>2015-10-17T12:30:49Z</time>
      </trkpt>
      <trkpt lat="44.57713" lon="5.10841">
        <ele>658.6</ele>
        <time>2015-10-17T12:30:51Z</time>
      </trkpt>
      <trkpt lat="44.57726" lon="5.10845">
        <ele>658.2</ele>
        <time>2015-10-17T12:30:52Z</time>
      </trkpt>
      <trkpt lat="44.57739" lon="5.10855">
        <ele>659.1</ele>
        <time>2015-10-17T12:30:53Z</time>
      </trkpt>
      <trkpt lat="44.57756" lon="5.10863">
        <ele>659.6</ele>
        <time>2015-10-17T12:30:54Z</time>
      </trkpt>
      <trkpt lat="44.57772" lon="5.10872">
        <ele>660.1</ele>
        <time>2015-10-17T12:30:55Z</time>
      </trkpt>
      <trkpt lat="44.57784" lon="5.10884">
        <ele>659.6</ele>
        <time>2015-10-17T12:30:56Z</time>
      </trkpt>
      <trkpt lat="44.57796" lon="5.10897">
        <ele>657.2</ele>
        <time>2015-10-17T12:30:57Z</time>
      </trkpt>
      <trkpt lat="44.5781" lon="5.1091">
        <ele>655.3</ele>
        <time>2015-10-17T12:30:58Z</time>
      </trkpt>
      <trkpt lat="44.57826" lon="5.10922">
        <ele>654.3</ele>
        <time>2015-10-17T12:30:59Z</time>
      </trkpt>
      <trkpt lat="44.57975" lon="5.11002">
        <ele>645.7</ele>
        <time>2015-10-17T12:31:07Z</time>
      </trkpt>
      <trkpt lat="44.57994" lon="5.11007">
        <ele>644.7</ele>
        <time>2015-10-17T12:31:08Z</time>
      </trkpt>
      <trkpt lat="44.58014" lon="5.11009">
        <ele>643.3</ele>
        <time>2015-10-17T12:31:09Z</time>
      </trkpt>
      <trkpt lat="44.58147" lon="5.11031">
        <ele>636.1</ele>
        <time>2015-10-17T12:31:16Z</time>
      </trkpt>
      <trkpt lat="44.58164" lon="5.1103">
        <ele>634.6</ele>
        <time>2015-10-17T12:31:17Z</time>
      </trkpt>
      <trkpt lat="44.58234" lon="5.11017">
        <ele>630.3</ele>
        <time>2015-10-17T12:31:23Z</time>
      </trkpt>
      <trkpt lat="44.58238" lon="5.1102">
        <ele>629.3</ele>
        <time>2015-10-17T12:31:24Z</time>
      </trkpt>
      <trkpt lat="44.58237" lon="5.11029">
        <ele>629.3</ele>
        <time>2015-10-17T12:31:25Z</time>
      </trkpt>
      <trkpt lat="44.58235" lon="5.11038">
        <ele>628.8</ele>
        <time>2015-10-17T12:31:26Z</time>
      </trkpt>
      <trkpt lat="44.5823" lon="5.11049">
        <ele>629.3</ele>
        <time>2015-10-17T12:31:27Z</time>
      </trkpt>
      <trkpt lat="44.58223" lon="5.11061">
        <ele>629.3</ele>
        <time>2015-10-17T12:31:28Z</time>
      </trkpt>
      <trkpt lat="44.58216" lon="5.11076">
        <ele>628.8</ele>
        <time>2015-10-17T12:31:29Z</time>
      </trkpt>
      <trkpt lat="44.58185" lon="5.11122">
        <ele>625.5</ele>
        <time>2015-10-17T12:31:32Z</time>
      </trkpt>
      <trkpt lat="44.58172" lon="5.11135">
        <ele>624.5</ele>
        <time>2015-10-17T12:31:33Z</time>
      </trkpt>
      <trkpt lat="44.58158" lon="5.11145">
        <ele>623.6</ele>
        <time>2015-10-17T12:31:34Z</time>
      </trkpt>
      <trkpt lat="44.58142" lon="5.11153">
        <ele>622.6</ele>
        <time>2015-10-17T12:31:35Z</time>
      </trkpt>
      <trkpt lat="44.58126" lon="5.11157">
        <ele>621.6</ele>
        <time>2015-10-17T12:31:36Z</time>
      </trkpt>
      <trkpt lat="44.58111" lon="5.11161">
        <ele>620.7</ele>
        <time>2015-10-17T12:31:37Z</time>
      </trkpt>
      <trkpt lat="44.58083" lon="5.1117">
        <ele>619.7</ele>
        <time>2015-10-17T12:31:39Z</time>
      </trkpt>
      <trkpt lat="44.58072" lon="5.1118">
        <ele>618.8</ele>
        <time>2015-10-17T12:31:40Z</time>
      </trkpt>
      <trkpt lat="44.58065" lon="5.11193">
        <ele>617.8</ele>
        <time>2015-10-17T12:31:41Z</time>
      </trkpt>
      <trkpt lat="44.58063" lon="5.11209">
        <ele>617.3</ele>
        <time>2015-10-17T12:31:42Z</time>
      </trkpt>
      <trkpt lat="44.58066" lon="5.11223">
        <ele>616.8</ele>
        <time>2015-10-17T12:31:43Z</time>
      </trkpt>
      <trkpt lat="44.58076" lon="5.11235">
        <ele>616.3</ele>
        <time>2015-10-17T12:31:44Z</time>
      </trkpt>
      <trkpt lat="44.58089" lon="5.11245">
        <ele>615.4</ele>
        <time>2015-10-17T12:31:45Z</time>
      </trkpt>
      <trkpt lat="44.58104" lon="5.11255">
        <ele>614.4</ele>
        <time>2015-10-17T12:31:46Z</time>
      </trkpt>
      <trkpt lat="44.58121" lon="5.11264">
        <ele>613.5</ele>
        <time>2015-10-17T12:31:47Z</time>
      </trkpt>
      <trkpt lat="44.58238" lon="5.11316">
        <ele>607.2</ele>
        <time>2015-10-17T12:31:53Z</time>
      </trkpt>
      <trkpt lat="44.58334" lon="5.11396">
        <ele>600.5</ele>
        <time>2015-10-17T12:31:59Z</time>
      </trkpt>
      <trkpt lat="44.58347" lon="5.11412">
        <ele>599</ele>
        <time>2015-10-17T12:32:00Z</time>
      </trkpt>
      <trkpt lat="44.58391" lon="5.11482">
        <ele>596.2</ele>
        <time>2015-10-17T12:32:04Z</time>
      </trkpt>
      <trkpt lat="44.58399" lon="5.11503">
        <ele>595.2</ele>
        <time>2015-10-17T12:32:05Z</time>
      </trkpt>
      <trkpt lat="44.58421" lon="5.11569">
        <ele>593.3</ele>
        <time>2015-10-17T12:32:08Z</time>
      </trkpt>
      <trkpt lat="44.58432" lon="5.11589">
        <ele>592.3</ele>
        <time>2015-10-17T12:32:09Z</time>
      </trkpt>
      <trkpt lat="44.58445" lon="5.11606">
        <ele>591.4</ele>
        <time>2015-10-17T12:32:10Z</time>
      </trkpt>
      <trkpt lat="44.58506" lon="5.11689">
        <ele>587</ele>
        <time>2015-10-17T12:32:15Z</time>
      </trkpt>
      <trkpt lat="44.58514" lon="5.11709">
        <ele>586.1</ele>
        <time>2015-10-17T12:32:16Z</time>
      </trkpt>
      <trkpt lat="44.5852" lon="5.11731">
        <ele>585.1</ele>
        <time>2015-10-17T12:32:17Z</time>
      </trkpt>
      <trkpt lat="44.58542" lon="5.1182">
        <ele>581.3</ele>
        <time>2015-10-17T12:32:21Z</time>
      </trkpt>
      <trkpt lat="44.58541" lon="5.11842">
        <ele>580.3</ele>
        <time>2015-10-17T12:32:22Z</time>
      </trkpt>
      <trkpt lat="44.58536" lon="5.11862">
        <ele>578.9</ele>
        <time>2015-10-17T12:32:23Z</time>
      </trkpt>
      <trkpt lat="44.58531" lon="5.1188">
        <ele>577.9</ele>
        <time>2015-10-17T12:32:24Z</time>
      </trkpt>
      <trkpt lat="44.58526" lon="5.11897">
        <ele>576.9</ele>
        <time>2015-10-17T12:32:25Z</time>
      </trkpt>
      <trkpt lat="44.58525" lon="5.11915">
        <ele>576</ele>
        <time>2015-10-17T12:32:26Z</time>
      </trkpt>
      <trkpt lat="44.58528" lon="5.11931">
        <ele>576</ele>
        <time>2015-10-17T12:32:27Z</time>
      </trkpt>
      <trkpt lat="44.58534" lon="5.11943">
        <ele>575</ele>
        <time>2015-10-17T12:32:28Z</time>
      </trkpt>
      <trkpt lat="44.58542" lon="5.11949">
        <ele>574.5</ele>
        <time>2015-10-17T12:32:29Z</time>
      </trkpt>
      <trkpt lat="44.58552" lon="5.11948">
        <ele>574</ele>
        <time>2015-10-17T12:32:30Z</time>
      </trkpt>
      <trkpt lat="44.58562" lon="5.11944">
        <ele>573.1</ele>
        <time>2015-10-17T12:32:31Z</time>
      </trkpt>
      <trkpt lat="44.58569" lon="5.1193">
        <ele>572.6</ele>
        <time>2015-10-17T12:32:32Z</time>
      </trkpt>
      <trkpt lat="44.58576" lon="5.11914">
        <ele>572.6</ele>
        <time>2015-10-17T12:32:33Z</time>
      </trkpt>
      <trkpt lat="44.58584" lon="5.11897">
        <ele>571.6</ele>
        <time>2015-10-17T12:32:34Z</time>
      </trkpt>
      <trkpt lat="44.58621" lon="5.11826">
        <ele>569.2</ele>
        <time>2015-10-17T12:32:39Z</time>
      </trkpt>
      <trkpt lat="44.58629" lon="5.11824">
        <ele>568.3</ele>
        <time>2015-10-17T12:32:40Z</time>
      </trkpt>
      <trkpt lat="44.58637" lon="5.11829">
        <ele>567.3</ele>
        <time>2015-10-17T12:32:41Z</time>
      </trkpt>
      <trkpt lat="44.58643" lon="5.11839">
        <ele>566.8</ele>
        <time>2015-10-17T12:32:42Z</time>
      </trkpt>
      <trkpt lat="44.58644" lon="5.11856">
        <ele>565.9</ele>
        <time>2015-10-17T12:32:43Z</time>
      </trkpt>
      <trkpt lat="44.58641" lon="5.11875">
        <ele>565.4</ele>
        <time>2015-10-17T12:32:44Z</time>
      </trkpt>
      <trkpt lat="44.58635" lon="5.11893">
        <ele>564</ele>
        <time>2015-10-17T12:32:45Z</time>
      </trkpt>
      <trkpt lat="44.58626" lon="5.11913">
        <ele>563</ele>
        <time>2015-10-17T12:32:46Z</time>
      </trkpt>
      <trkpt lat="44.58615" lon="5.11932">
        <ele>562</ele>
        <time>2015-10-17T12:32:47Z</time>
      </trkpt>
      <trkpt lat="44.58604" lon="5.1195">
        <ele>561.1</ele>
        <time>2015-10-17T12:32:48Z</time>
      </trkpt>
      <trkpt lat="44.58592" lon="5.11967">
        <ele>560.6</ele>
        <time>2015-10-17T12:32:49Z</time>
      </trkpt>
      <trkpt lat="44.58579" lon="5.11981">
        <ele>559.6</ele>
        <time>2015-10-17T12:32:50Z</time>
      </trkpt>
      <trkpt lat="44.58567" lon="5.11995">
        <ele>558.7</ele>
        <time>2015-10-17T12:32:51Z</time>
      </trkpt>
      <trkpt lat="44.58556" lon="5.12014">
        <ele>557.7</ele>
        <time>2015-10-17T12:32:52Z</time>
      </trkpt>
      <trkpt lat="44.58549" lon="5.12035">
        <ele>556.7</ele>
        <time>2015-10-17T12:32:53Z</time>
      </trkpt>
      <trkpt lat="44.58545" lon="5.12059">
        <ele>555.8</ele>
        <time>2015-10-17T12:32:54Z</time>
      </trkpt>
      <trkpt lat="44.58542" lon="5.12084">
        <ele>554.8</ele>
        <time>2015-10-17T12:32:55Z</time>
      </trkpt>
      <trkpt lat="44.58539" lon="5.12108">
        <ele>553.9</ele>
        <time>2015-10-17T12:32:56Z</time>
      </trkpt>
      <trkpt lat="44.58534" lon="5.1213">
        <ele>552.9</ele>
        <time>2015-10-17T12:32:57Z</time>
      </trkpt>
      <trkpt lat="44.58527" lon="5.1215">
        <ele>551.5</ele>
        <time>2015-10-17T12:32:58Z</time>
      </trkpt>
      <trkpt lat="44.58517" lon="5.12168">
        <ele>551</ele>
        <time>2015-10-17T12:32:59Z</time>
      </trkpt>
      <trkpt lat="44.58502" lon="5.12182">
        <ele>549.5</ele>
        <time>2015-10-17T12:33:00Z</time>
      </trkpt>
      <trkpt lat="44.58485" lon="5.12194">
        <ele>548.1</ele>
        <time>2015-10-17T12:33:01Z</time>
      </trkpt>
      <trkpt lat="44.58466" lon="5.12204">
        <ele>547.1</ele>
        <time>2015-10-17T12:33:02Z</time>
      </trkpt>
      <trkpt lat="44.58342" lon="5.12299">
        <ele>539</ele>
        <time>2015-10-17T12:33:09Z</time>
      </trkpt>
      <trkpt lat="44.58326" lon="5.12315">
        <ele>538</ele>
        <time>2015-10-17T12:33:10Z</time>
      </trkpt>
      <trkpt lat="44.58311" lon="5.12332">
        <ele>536.6</ele>
        <time>2015-10-17T12:33:11Z</time>
      </trkpt>
      <trkpt lat="44.58297" lon="5.12351">
        <ele>535.6</ele>
        <time>2015-10-17T12:33:12Z</time>
      </trkpt>
      <trkpt lat="44.58285" lon="5.1237">
        <ele>534.2</ele>
        <time>2015-10-17T12:33:13Z</time>
      </trkpt>
      <trkpt lat="44.58274" lon="5.1239">
        <ele>533.7</ele>
        <time>2015-10-17T12:33:14Z</time>
      </trkpt>
      <trkpt lat="44.58265" lon="5.1241">
        <ele>532.7</ele>
        <time>2015-10-17T12:33:15Z</time>
      </trkpt>
      <trkpt lat="44.58257" lon="5.12429">
        <ele>531.8</ele>
        <time>2015-10-17T12:33:16Z</time>
      </trkpt>
      <trkpt lat="44.58247" lon="5.12446">
        <ele>531.3</ele>
        <time>2015-10-17T12:33:17Z</time>
      </trkpt>
      <trkpt lat="44.58235" lon="5.1246">
        <ele>529.8</ele>
        <time>2015-10-17T12:33:18Z</time>
      </trkpt>
      <trkpt lat="44.58221" lon="5.12467">
        <ele>528.9</ele>
        <time>2015-10-17T12:33:19Z</time>
      </trkpt>
      <trkpt lat="44.58206" lon="5.12474">
        <ele>527.9</ele>
        <time>2015-10-17T12:33:20Z</time>
      </trkpt>
      <trkpt lat="44.58191" lon="5.12483">
        <ele>526.5</ele>
        <time>2015-10-17T12:33:21Z</time>
      </trkpt>
      <trkpt lat="44.58179" lon="5.12496">
        <ele>525.5</ele>
        <time>2015-10-17T12:33:22Z</time>
      </trkpt>
      <trkpt lat="44.58169" lon="5.12512">
        <ele>524.1</ele>
        <time>2015-10-17T12:33:23Z</time>
      </trkpt>
      <trkpt lat="44.5816" lon="5.12528">
        <ele>523.1</ele>
        <time>2015-10-17T12:33:24Z</time>
      </trkpt>
      <trkpt lat="44.58151" lon="5.12542">
        <ele>521.7</ele>
        <time>2015-10-17T12:33:25Z</time>
      </trkpt>
      <trkpt lat="44.58139" lon="5.12552">
        <ele>520.2</ele>
        <time>2015-10-17T12:33:26Z</time>
      </trkpt>
      <trkpt lat="44.58126" lon="5.12552">
        <ele>517.8</ele>
        <time>2015-10-17T12:33:27Z</time>
      </trkpt>
      <trkpt lat="44.58109" lon="5.12539">
        <ele>517.8</ele>
        <time>2015-10-17T12:33:28Z</time>
      </trkpt>
      <trkpt lat="44.58094" lon="5.12529">
        <ele>516.9</ele>
        <time>2015-10-17T12:33:29Z</time>
      </trkpt>
      <trkpt lat="44.58079" lon="5.12521">
        <ele>515.4</ele>
        <time>2015-10-17T12:33:30Z</time>
      </trkpt>
      <trkpt lat="44.58064" lon="5.12517">
        <ele>514.4</ele>
        <time>2015-10-17T12:33:31Z</time>
      </trkpt>
      <trkpt lat="44.58048" lon="5.12516">
        <ele>513</ele>
        <time>2015-10-17T12:33:32Z</time>
      </trkpt>
      <trkpt lat="44.58033" lon="5.12518">
        <ele>512</ele>
        <time>2015-10-17T12:33:33Z</time>
      </trkpt>
      <trkpt lat="44.58018" lon="5.12524">
        <ele>510.6</ele>
        <time>2015-10-17T12:33:34Z</time>
      </trkpt>
      <trkpt lat="44.58004" lon="5.12536">
        <ele>508.7</ele>
        <time>2015-10-17T12:33:35Z</time>
      </trkpt>
      <trkpt lat="44.57992" lon="5.12553">
        <ele>507.2</ele>
        <time>2015-10-17T12:33:36Z</time>
      </trkpt>
      <trkpt lat="44.57981" lon="5.12571">
        <ele>505.8</ele>
        <time>2015-10-17T12:33:37Z</time>
      </trkpt>
      <trkpt lat="44.57971" lon="5.12591">
        <ele>504.4</ele>
        <time>2015-10-17T12:33:38Z</time>
      </trkpt>
      <trkpt lat="44.5796" lon="5.12612">
        <ele>503.4</ele>
        <time>2015-10-17T12:33:39Z</time>
      </trkpt>
      <trkpt lat="44.57934" lon="5.12651">
        <ele>500.5</ele>
        <time>2015-10-17T12:33:41Z</time>
      </trkpt>
      <trkpt lat="44.57918" lon="5.12666">
        <ele>499.5</ele>
        <time>2015-10-17T12:33:42Z</time>
      </trkpt>
      <trkpt lat="44.57837" lon="5.12743">
        <ele>491.9</ele>
        <time>2015-10-17T12:33:48Z</time>
      </trkpt>
      <trkpt lat="44.57835" lon="5.12754">
        <ele>490.9</ele>
        <time>2015-10-17T12:33:49Z</time>
      </trkpt>
      <trkpt lat="44.57837" lon="5.12765">
        <ele>489.5</ele>
        <time>2015-10-17T12:33:50Z</time>
      </trkpt>
      <trkpt lat="44.57846" lon="5.12771">
        <ele>489.5</ele>
        <time>2015-10-17T12:33:51Z</time>
      </trkpt>
      <trkpt lat="44.57855" lon="5.12772">
        <ele>489.5</ele>
        <time>2015-10-17T12:33:52Z</time>
      </trkpt>
      <trkpt lat="44.57866" lon="5.12766">
        <ele>489.5</ele>
        <time>2015-10-17T12:33:53Z</time>
      </trkpt>
      <trkpt lat="44.57877" lon="5.12759">
        <ele>489.5</ele>
        <time>2015-10-17T12:33:54Z</time>
      </trkpt>
      <trkpt lat="44.5789" lon="5.12754">
        <ele>488</ele>
        <time>2015-10-17T12:33:55Z</time>
      </trkpt>
      <trkpt lat="44.57905" lon="5.12756">
        <ele>487.1</ele>
        <time>2015-10-17T12:33:56Z</time>
      </trkpt>
      <trkpt lat="44.57919" lon="5.12761">
        <ele>486.1</ele>
        <time>2015-10-17T12:33:57Z</time>
      </trkpt>
      <trkpt lat="44.57932" lon="5.12765">
        <ele>485.1</ele>
        <time>2015-10-17T12:33:58Z</time>
      </trkpt>
      <trkpt lat="44.57945" lon="5.12765">
        <ele>484.2</ele>
        <time>2015-10-17T12:33:59Z</time>
      </trkpt>
      <trkpt lat="44.57957" lon="5.12757">
        <ele>483.7</ele>
        <time>2015-10-17T12:34:00Z</time>
      </trkpt>
      <trkpt lat="44.57968" lon="5.1275">
        <ele>483.2</ele>
        <time>2015-10-17T12:34:01Z</time>
      </trkpt>
      <trkpt lat="44.57975" lon="5.12733">
        <ele>482.7</ele>
        <time>2015-10-17T12:34:02Z</time>
      </trkpt>
      <trkpt lat="44.57983" lon="5.12718">
        <ele>481.8</ele>
        <time>2015-10-17T12:34:03Z</time>
      </trkpt>
      <trkpt lat="44.57993" lon="5.12707">
        <ele>480.8</ele>
        <time>2015-10-17T12:34:04Z</time>
      </trkpt>
      <trkpt lat="44.58006" lon="5.12703">
        <ele>480.3</ele>
        <time>2015-10-17T12:34:05Z</time>
      </trkpt>
      <trkpt lat="44.58019" lon="5.12707">
        <ele>479.4</ele>
        <time>2015-10-17T12:34:06Z</time>
      </trkpt>
      <trkpt lat="44.58028" lon="5.12717">
        <ele>477.9</ele>
        <time>2015-10-17T12:34:07Z</time>
      </trkpt>
      <trkpt lat="44.58037" lon="5.12733">
        <ele>477</ele>
        <time>2015-10-17T12:34:08Z</time>
      </trkpt>
      <trkpt lat="44.58045" lon="5.1275">
        <ele>475</ele>
        <time>2015-10-17T12:34:09Z</time>
      </trkpt>
      <trkpt lat="44.58048" lon="5.12771">
        <ele>473.6</ele>
        <time>2015-10-17T12:34:10Z</time>
      </trkpt>
      <trkpt lat="44.58048" lon="5.12793">
        <ele>472.6</ele>
        <time>2015-10-17T12:34:11Z</time>
      </trkpt>
      <trkpt lat="44.58044" lon="5.12816">
        <ele>471.7</ele>
        <time>2015-10-17T12:34:12Z</time>
      </trkpt>
      <trkpt lat="44.58038" lon="5.12839">
        <ele>470.2</ele>
        <time>2015-10-17T12:34:13Z</time>
      </trkpt>
      <trkpt lat="44.5803" lon="5.12862">
        <ele>468.8</ele>
        <time>2015-10-17T12:34:14Z</time>
      </trkpt>
      <trkpt lat="44.58023" lon="5.12884">
        <ele>467.8</ele>
        <time>2015-10-17T12:34:15Z</time>
      </trkpt>
      <trkpt lat="44.58019" lon="5.12905">
        <ele>466.4</ele>
        <time>2015-10-17T12:34:16Z</time>
      </trkpt>
      <trkpt lat="44.58017" lon="5.12928">
        <ele>464.9</ele>
        <time>2015-10-17T12:34:17Z</time>
      </trkpt>
      <trkpt lat="44.58018" lon="5.1295">
        <ele>464</ele>
        <time>2015-10-17T12:34:18Z</time>
      </trkpt>
      <trkpt lat="44.58019" lon="5.12971">
        <ele>463</ele>
        <time>2015-10-17T12:34:19Z</time>
      </trkpt>
      <trkpt lat="44.58023" lon="5.1299">
        <ele>461.6</ele>
        <time>2015-10-17T12:34:20Z</time>
      </trkpt>
      <trkpt lat="44.58032" lon="5.13005">
        <ele>459.7</ele>
        <time>2015-10-17T12:34:21Z</time>
      </trkpt>
      <trkpt lat="44.58045" lon="5.13018">
        <ele>458.7</ele>
        <time>2015-10-17T12:34:22Z</time>
      </trkpt>
      <trkpt lat="44.58059" lon="5.13031">
        <ele>457.7</ele>
        <time>2015-10-17T12:34:23Z</time>
      </trkpt>
      <trkpt lat="44.58073" lon="5.13047">
        <ele>456.3</ele>
        <time>2015-10-17T12:34:24Z</time>
      </trkpt>
      <trkpt lat="44.58085" lon="5.13067">
        <ele>455.3</ele>
        <time>2015-10-17T12:34:25Z</time>
      </trkpt>
      <trkpt lat="44.58094" lon="5.13089">
        <ele>453.9</ele>
        <time>2015-10-17T12:34:26Z</time>
      </trkpt>
      <trkpt lat="44.58102" lon="5.1311">
        <ele>452.4</ele>
        <time>2015-10-17T12:34:27Z</time>
      </trkpt>
      <trkpt lat="44.58111" lon="5.13129">
        <ele>451.5</ele>
        <time>2015-10-17T12:34:28Z</time>
      </trkpt>
      <trkpt lat="44.58122" lon="5.13145">
        <ele>449.6</ele>
        <time>2015-10-17T12:34:29Z</time>
      </trkpt>
      <trkpt lat="44.58135" lon="5.13155">
        <ele>448.6</ele>
        <time>2015-10-17T12:34:30Z</time>
      </trkpt>
      <trkpt lat="44.58148" lon="5.13163">
        <ele>448.1</ele>
        <time>2015-10-17T12:34:31Z</time>
      </trkpt>
      <trkpt lat="44.5816" lon="5.13172">
        <ele>446.7</ele>
        <time>2015-10-17T12:34:32Z</time>
      </trkpt>
      <trkpt lat="44.58169" lon="5.13185">
        <ele>445.7</ele>
        <time>2015-10-17T12:34:33Z</time>
      </trkpt>
      <trkpt lat="44.58173" lon="5.13204">
        <ele>444.3</ele>
        <time>2015-10-17T12:34:34Z</time>
      </trkpt>
      <trkpt lat="44.58172" lon="5.13225">
        <ele>442.8</ele>
        <time>2015-10-17T12:34:35Z</time>
      </trkpt>
      <trkpt lat="44.58168" lon="5.13246">
        <ele>441.9</ele>
        <time>2015-10-17T12:34:36Z</time>
      </trkpt>
      <trkpt lat="44.58165" lon="5.13268">
        <ele>440.9</ele>
        <time>2015-10-17T12:34:37Z</time>
      </trkpt>
      <trkpt lat="44.58164" lon="5.13289">
        <ele>439.9</ele>
        <time>2015-10-17T12:34:38Z</time>
      </trkpt>
      <trkpt lat="44.58167" lon="5.1331">
        <ele>439</ele>
        <time>2015-10-17T12:34:39Z</time>
      </trkpt>
      <trkpt lat="44.58172" lon="5.13329">
        <ele>437.5</ele>
        <time>2015-10-17T12:34:40Z</time>
      </trkpt>
      <trkpt lat="44.58181" lon="5.13344">
        <ele>436.1</ele>
        <time>2015-10-17T12:34:41Z</time>
      </trkpt>
      <trkpt lat="44.58194" lon="5.13354">
        <ele>434.7</ele>
        <time>2015-10-17T12:34:42Z</time>
      </trkpt>
      <trkpt lat="44.58208" lon="5.13363">
        <ele>434.2</ele>
        <time>2015-10-17T12:34:43Z</time>
      </trkpt>
      <trkpt lat="44.58224" lon="5.13375">
        <ele>432.7</ele>
        <time>2015-10-17T12:34:44Z</time>
      </trkpt>
      <trkpt lat="44.58238" lon="5.13393">
        <ele>430.8</ele>
        <time>2015-10-17T12:34:45Z</time>
      </trkpt>
      <trkpt lat="44.58249" lon="5.13414">
        <ele>429.4</ele>
        <time>2015-10-17T12:34:46Z</time>
      </trkpt>
      <trkpt lat="44.58256" lon="5.13437">
        <ele>427.9</ele>
        <time>2015-10-17T12:34:47Z</time>
      </trkpt>
      <trkpt lat="44.58261" lon="5.1346">
        <ele>427</ele>
        <time>2015-10-17T12:34:48Z</time>
      </trkpt>
      <trkpt lat="44.58264" lon="5.1348">
        <ele>426</ele>
        <time>2015-10-17T12:34:49Z</time>
      </trkpt>
      <trkpt lat="44.58267" lon="5.13493">
        <ele>425.5</ele>
        <time>2015-10-17T12:34:50Z</time>
      </trkpt>
      <trkpt lat="44.58274" lon="5.13502">
        <ele>424.1</ele>
        <time>2015-10-17T12:34:51Z</time>
      </trkpt>
      <trkpt lat="44.58284" lon="5.13505">
        <ele>423.1</ele>
        <time>2015-10-17T12:34:52Z</time>
      </trkpt>
      <trkpt lat="44.58297" lon="5.13502">
        <ele>422.2</ele>
        <time>2015-10-17T12:34:53Z</time>
      </trkpt>
      <trkpt lat="44.5831" lon="5.13496">
        <ele>421.2</ele>
        <time>2015-10-17T12:34:54Z</time>
      </trkpt>
      <trkpt lat="44.58322" lon="5.13488">
        <ele>419.8</ele>
        <time>2015-10-17T12:34:55Z</time>
      </trkpt>
      <trkpt lat="44.58334" lon="5.1348">
        <ele>419.3</ele>
        <time>2015-10-17T12:34:56Z</time>
      </trkpt>
      <trkpt lat="44.58386" lon="5.1344">
        <ele>414.5</ele>
        <time>2015-10-17T12:35:01Z</time>
      </trkpt>
      <trkpt lat="44.58396" lon="5.13436">
        <ele>413.5</ele>
        <time>2015-10-17T12:35:02Z</time>
      </trkpt>
      <trkpt lat="44.58467" lon="5.13416">
        <ele>407.7</ele>
        <time>2015-10-17T12:35:11Z</time>
      </trkpt>
      <trkpt lat="44.5848" lon="5.1341">
        <ele>407.3</ele>
        <time>2015-10-17T12:35:13Z</time>
      </trkpt>
      <trkpt lat="44.58527" lon="5.13383">
        <ele>405.8</ele>
        <time>2015-10-17T12:35:21Z</time>
      </trkpt>
      <trkpt lat="44.58533" lon="5.13381">
        <ele>405.8</ele>
        <time>2015-10-17T12:35:22Z</time>
      </trkpt>
      <trkpt lat="44.5854" lon="5.13381">
        <ele>405.3</ele>
        <time>2015-10-17T12:35:23Z</time>
      </trkpt>
      <trkpt lat="44.58592" lon="5.13398">
        <ele>407.7</ele>
        <time>2015-10-17T12:35:34Z</time>
      </trkpt>
      <trkpt lat="44.58593" lon="5.13399">
        <ele>408.2</ele>
        <time>2015-10-17T12:35:48Z</time>
      </trkpt>
      <trkpt lat="44.58593" lon="5.134">
        <ele>407.7</ele>
        <time>2015-10-17T12:36:29Z</time>
      </trkpt>
      <trkpt lat="44.58619" lon="5.13405">
        <ele>409.2</ele>
        <time>2015-10-17T12:36:43Z</time>
      </trkpt>
      <trkpt lat="44.58637" lon="5.13407">
        <ele>409.7</ele>
        <time>2015-10-17T12:36:46Z</time>
      </trkpt>
      <trkpt lat="44.58643" lon="5.13405">
        <ele>410.6</ele>
        <time>2015-10-17T12:36:47Z</time>
      </trkpt>
      <trkpt lat="44.5865" lon="5.13402">
        <ele>410.1</ele>
        <time>2015-10-17T12:36:48Z</time>
      </trkpt>
      <trkpt lat="44.58656" lon="5.13398">
        <ele>409.2</ele>
        <time>2015-10-17T12:36:49Z</time>
      </trkpt>
      <trkpt lat="44.58662" lon="5.13393">
        <ele>408.2</ele>
        <time>2015-10-17T12:36:50Z</time>
      </trkpt>
      <trkpt lat="44.58691" lon="5.13365">
        <ele>408.7</ele>
        <time>2015-10-17T12:36:55Z</time>
      </trkpt>
      <trkpt lat="44.58697" lon="5.13366">
        <ele>408.2</ele>
        <time>2015-10-17T12:36:56Z</time>
      </trkpt>
      <trkpt lat="44.58703" lon="5.13371">
        <ele>407.7</ele>
        <time>2015-10-17T12:36:57Z</time>
      </trkpt>
      <trkpt lat="44.58708" lon="5.13379">
        <ele>407.7</ele>
        <time>2015-10-17T12:36:58Z</time>
      </trkpt>
      <trkpt lat="44.58712" lon="5.1339">
        <ele>407.3</ele>
        <time>2015-10-17T12:36:59Z</time>
      </trkpt>
      <trkpt lat="44.58716" lon="5.13399">
        <ele>407.3</ele>
        <time>2015-10-17T12:37:00Z</time>
      </trkpt>
      <trkpt lat="44.5872" lon="5.13409">
        <ele>407.3</ele>
        <time>2015-10-17T12:37:01Z</time>
      </trkpt>
      <trkpt lat="44.5873" lon="5.13434">
        <ele>406.3</ele>
        <time>2015-10-17T12:37:08Z</time>
      </trkpt>
      <trkpt lat="44.5873" lon="5.13435">
        <ele>405.8</ele>
        <time>2015-10-17T12:37:27Z</time>
      </trkpt>
      <trkpt lat="44.58733" lon="5.13435">
        <ele>405.8</ele>
        <time>2015-10-17T12:37:28Z</time>
      </trkpt>
      <trkpt lat="44.58738" lon="5.13434">
        <ele>405.3</ele>
        <time>2015-10-17T12:37:29Z</time>
      </trkpt>
      <trkpt lat="44.58744" lon="5.1343">
        <ele>404.9</ele>
        <time>2015-10-17T12:37:30Z</time>
      </trkpt>
      <trkpt lat="44.58751" lon="5.13426">
        <ele>404.4</ele>
        <time>2015-10-17T12:37:31Z</time>
      </trkpt>
      <trkpt lat="44.58844" lon="5.13364">
        <ele>405.3</ele>
        <time>2015-10-17T12:37:41Z</time>
      </trkpt>
      <trkpt lat="44.58968" lon="5.13281">
        <ele>408.7</ele>
        <time>2015-10-17T12:37:53Z</time>
      </trkpt>
      <trkpt lat="44.59088" lon="5.13203">
        <ele>410.1</ele>
        <time>2015-10-17T12:38:04Z</time>
      </trkpt>
      <trkpt lat="44.59097" lon="5.13199">
        <ele>410.1</ele>
        <time>2015-10-17T12:38:05Z</time>
      </trkpt>
      <trkpt lat="44.59105" lon="5.13201">
        <ele>410.1</ele>
        <time>2015-10-17T12:38:06Z</time>
      </trkpt>
      <trkpt lat="44.59111" lon="5.1321">
        <ele>410.1</ele>
        <time>2015-10-17T12:38:07Z</time>
      </trkpt>
      <trkpt lat="44.59115" lon="5.13219">
        <ele>410.1</ele>
        <time>2015-10-17T12:38:08Z</time>
      </trkpt>
      <trkpt lat="44.59118" lon="5.13232">
        <ele>410.1</ele>
        <time>2015-10-17T12:38:09Z</time>
      </trkpt>
      <trkpt lat="44.5912" lon="5.13246">
        <ele>410.6</ele>
        <time>2015-10-17T12:38:10Z</time>
      </trkpt>
      <trkpt lat="44.59139" lon="5.13375">
        <ele>411.1</ele>
        <time>2015-10-17T12:38:16Z</time>
      </trkpt>
      <trkpt lat="44.59158" lon="5.13519">
        <ele>413</ele>
        <time>2015-10-17T12:38:22Z</time>
      </trkpt>
      <trkpt lat="44.59165" lon="5.13542">
        <ele>413.5</ele>
        <time>2015-10-17T12:38:23Z</time>
      </trkpt>
      <trkpt lat="44.59174" lon="5.13565">
        <ele>413.5</ele>
        <time>2015-10-17T12:38:24Z</time>
      </trkpt>
      <trkpt lat="44.5923" lon="5.13706">
        <ele>415.9</ele>
        <time>2015-10-17T12:38:30Z</time>
      </trkpt>
      <trkpt lat="44.59242" lon="5.13723">
        <ele>416.4</ele>
        <time>2015-10-17T12:38:31Z</time>
      </trkpt>
      <trkpt lat="44.59256" lon="5.13737">
        <ele>416.9</ele>
        <time>2015-10-17T12:38:32Z</time>
      </trkpt>
      <trkpt lat="44.59272" lon="5.13749">
        <ele>417.4</ele>
        <time>2015-10-17T12:38:33Z</time>
      </trkpt>
      <trkpt lat="44.59286" lon="5.1376">
        <ele>417.4</ele>
        <time>2015-10-17T12:38:34Z</time>
      </trkpt>
      <trkpt lat="44.59299" lon="5.13774">
        <ele>417.4</ele>
        <time>2015-10-17T12:38:35Z</time>
      </trkpt>
      <trkpt lat="44.59308" lon="5.13793">
        <ele>417.4</ele>
        <time>2015-10-17T12:38:36Z</time>
      </trkpt>
      <trkpt lat="44.59315" lon="5.13815">
        <ele>417.8</ele>
        <time>2015-10-17T12:38:37Z</time>
      </trkpt>
      <trkpt lat="44.59321" lon="5.13838">
        <ele>418.3</ele>
        <time>2015-10-17T12:38:38Z</time>
      </trkpt>
      <trkpt lat="44.59326" lon="5.13862">
        <ele>418.3</ele>
        <time>2015-10-17T12:38:39Z</time>
      </trkpt>
      <trkpt lat="44.59339" lon="5.13907">
        <ele>418.8</ele>
        <time>2015-10-17T12:38:41Z</time>
      </trkpt>
      <trkpt lat="44.59349" lon="5.13927">
        <ele>419.3</ele>
        <time>2015-10-17T12:38:42Z</time>
      </trkpt>
      <trkpt lat="44.59362" lon="5.13945">
        <ele>419.8</ele>
        <time>2015-10-17T12:38:43Z</time>
      </trkpt>
      <trkpt lat="44.59404" lon="5.13997">
        <ele>422.2</ele>
        <time>2015-10-17T12:38:46Z</time>
      </trkpt>
      <trkpt lat="44.59414" lon="5.14018">
        <ele>422.6</ele>
        <time>2015-10-17T12:38:47Z</time>
      </trkpt>
      <trkpt lat="44.59421" lon="5.14042">
        <ele>423.1</ele>
        <time>2015-10-17T12:38:48Z</time>
      </trkpt>
      <trkpt lat="44.59427" lon="5.14068">
        <ele>423.6</ele>
        <time>2015-10-17T12:38:49Z</time>
      </trkpt>
      <trkpt lat="44.59432" lon="5.14094">
        <ele>424.1</ele>
        <time>2015-10-17T12:38:50Z</time>
      </trkpt>
      <trkpt lat="44.59473" lon="5.14243">
        <ele>427.4</ele>
        <time>2015-10-17T12:38:56Z</time>
      </trkpt>
      <trkpt lat="44.59485" lon="5.14259">
        <ele>427.9</ele>
        <time>2015-10-17T12:38:57Z</time>
      </trkpt>
      <trkpt lat="44.59499" lon="5.14271">
        <ele>428.4</ele>
        <time>2015-10-17T12:38:58Z</time>
      </trkpt>
      <trkpt lat="44.59516" lon="5.14276">
        <ele>428.9</ele>
        <time>2015-10-17T12:38:59Z</time>
      </trkpt>
      <trkpt lat="44.59532" lon="5.14276">
        <ele>429.4</ele>
        <time>2015-10-17T12:39:00Z</time>
      </trkpt>
      <trkpt lat="44.59548" lon="5.14275">
        <ele>429.9</ele>
        <time>2015-10-17T12:39:01Z</time>
      </trkpt>
      <trkpt lat="44.59563" lon="5.14278">
        <ele>430.8</ele>
        <time>2015-10-17T12:39:02Z</time>
      </trkpt>
      <trkpt lat="44.59579" lon="5.14288">
        <ele>431.3</ele>
        <time>2015-10-17T12:39:03Z</time>
      </trkpt>
      <trkpt lat="44.59594" lon="5.14299">
        <ele>432.3</ele>
        <time>2015-10-17T12:39:04Z</time>
      </trkpt>
      <trkpt lat="44.59608" lon="5.14314">
        <ele>432.7</ele>
        <time>2015-10-17T12:39:05Z</time>
      </trkpt>
      <trkpt lat="44.59619" lon="5.1433">
        <ele>433.2</ele>
        <time>2015-10-17T12:39:06Z</time>
      </trkpt>
      <trkpt lat="44.59625" lon="5.14353">
        <ele>433.2</ele>
        <time>2015-10-17T12:39:07Z</time>
      </trkpt>
      <trkpt lat="44.5963" lon="5.14376">
        <ele>434.2</ele>
        <time>2015-10-17T12:39:08Z</time>
      </trkpt>
      <trkpt lat="44.59633" lon="5.14401">
        <ele>435.1</ele>
        <time>2015-10-17T12:39:09Z</time>
      </trkpt>
      <trkpt lat="44.59635" lon="5.14427">
        <ele>436.1</ele>
        <time>2015-10-17T12:39:10Z</time>
      </trkpt>
      <trkpt lat="44.59638" lon="5.14453">
        <ele>437.1</ele>
        <time>2015-10-17T12:39:11Z</time>
      </trkpt>
      <trkpt lat="44.59643" lon="5.14479">
        <ele>437.5</ele>
        <time>2015-10-17T12:39:12Z</time>
      </trkpt>
      <trkpt lat="44.59678" lon="5.14601">
        <ele>441.4</ele>
        <time>2015-10-17T12:39:17Z</time>
      </trkpt>
      <trkpt lat="44.59687" lon="5.14615">
        <ele>441.9</ele>
        <time>2015-10-17T12:39:18Z</time>
      </trkpt>
      <trkpt lat="44.597" lon="5.14626">
        <ele>442.8</ele>
        <time>2015-10-17T12:39:19Z</time>
      </trkpt>
      <trkpt lat="44.59714" lon="5.14633">
        <ele>442.8</ele>
        <time>2015-10-17T12:39:20Z</time>
      </trkpt>
      <trkpt lat="44.59729" lon="5.14639">
        <ele>442.8</ele>
        <time>2015-10-17T12:39:21Z</time>
      </trkpt>
      <trkpt lat="44.59745" lon="5.14649">
        <ele>443.3</ele>
        <time>2015-10-17T12:39:22Z</time>
      </trkpt>
      <trkpt lat="44.59758" lon="5.14664">
        <ele>443.3</ele>
        <time>2015-10-17T12:39:23Z</time>
      </trkpt>
      <trkpt lat="44.59767" lon="5.14685">
        <ele>443.3</ele>
        <time>2015-10-17T12:39:24Z</time>
      </trkpt>
      <trkpt lat="44.59775" lon="5.14708">
        <ele>443.8</ele>
        <time>2015-10-17T12:39:25Z</time>
      </trkpt>
      <trkpt lat="44.59782" lon="5.14732">
        <ele>444.3</ele>
        <time>2015-10-17T12:39:26Z</time>
      </trkpt>
      <trkpt lat="44.59801" lon="5.14777">
        <ele>444.8</ele>
        <time>2015-10-17T12:39:28Z</time>
      </trkpt>
      <trkpt lat="44.59811" lon="5.14797">
        <ele>445.2</ele>
        <time>2015-10-17T12:39:29Z</time>
      </trkpt>
      <trkpt lat="44.59844" lon="5.14856">
        <ele>447.6</ele>
        <time>2015-10-17T12:39:32Z</time>
      </trkpt>
      <trkpt lat="44.59851" lon="5.1488">
        <ele>448.6</ele>
        <time>2015-10-17T12:39:33Z</time>
      </trkpt>
      <trkpt lat="44.59856" lon="5.14904">
        <ele>450</ele>
        <time>2015-10-17T12:39:34Z</time>
      </trkpt>
      <trkpt lat="44.59858" lon="5.14929">
        <ele>451</ele>
        <time>2015-10-17T12:39:35Z</time>
      </trkpt>
      <trkpt lat="44.59857" lon="5.14953">
        <ele>451.5</ele>
        <time>2015-10-17T12:39:36Z</time>
      </trkpt>
      <trkpt lat="44.59855" lon="5.14975">
        <ele>452.4</ele>
        <time>2015-10-17T12:39:37Z</time>
      </trkpt>
      <trkpt lat="44.59853" lon="5.14995">
        <ele>452.9</ele>
        <time>2015-10-17T12:39:38Z</time>
      </trkpt>
      <trkpt lat="44.59849" lon="5.15014">
        <ele>453.9</ele>
        <time>2015-10-17T12:39:39Z</time>
      </trkpt>
      <trkpt lat="44.59848" lon="5.15031">
        <ele>454.4</ele>
        <time>2015-10-17T12:39:40Z</time>
      </trkpt>
      <trkpt lat="44.59852" lon="5.15044">
        <ele>454.8</ele>
        <time>2015-10-17T12:39:41Z</time>
      </trkpt>
      <trkpt lat="44.59863" lon="5.15056">
        <ele>454.8</ele>
        <time>2015-10-17T12:39:42Z</time>
      </trkpt>
      <trkpt lat="44.59876" lon="5.15067">
        <ele>454.8</ele>
        <time>2015-10-17T12:39:43Z</time>
      </trkpt>
      <trkpt lat="44.5989" lon="5.1508">
        <ele>454.8</ele>
        <time>2015-10-17T12:39:44Z</time>
      </trkpt>
      <trkpt lat="44.59929" lon="5.15122">
        <ele>455.8</ele>
        <time>2015-10-17T12:39:47Z</time>
      </trkpt>
      <trkpt lat="44.5994" lon="5.15139">
        <ele>456.3</ele>
        <time>2015-10-17T12:39:48Z</time>
      </trkpt>
      <trkpt lat="44.59949" lon="5.15158">
        <ele>456.8</ele>
        <time>2015-10-17T12:39:49Z</time>
      </trkpt>
      <trkpt lat="44.59956" lon="5.15179">
        <ele>457.2</ele>
        <time>2015-10-17T12:39:50Z</time>
      </trkpt>
      <trkpt lat="44.59961" lon="5.15202">
        <ele>457.7</ele>
        <time>2015-10-17T12:39:51Z</time>
      </trkpt>
      <trkpt lat="44.59963" lon="5.15227">
        <ele>458.2</ele>
        <time>2015-10-17T12:39:52Z</time>
      </trkpt>
      <trkpt lat="44.59961" lon="5.15252">
        <ele>458.2</ele>
        <time>2015-10-17T12:39:53Z</time>
      </trkpt>
      <trkpt lat="44.59959" lon="5.15278">
        <ele>458.2</ele>
        <time>2015-10-17T12:39:54Z</time>
      </trkpt>
      <trkpt lat="44.59951" lon="5.15368">
        <ele>458.7</ele>
        <time>2015-10-17T12:39:58Z</time>
      </trkpt>
      <trkpt lat="44.59945" lon="5.15386">
        <ele>459.2</ele>
        <time>2015-10-17T12:39:59Z</time>
      </trkpt>
      <trkpt lat="44.59935" lon="5.15403">
        <ele>459.7</ele>
        <time>2015-10-17T12:40:00Z</time>
      </trkpt>
      <trkpt lat="44.5985" lon="5.1555">
        <ele>463.5</ele>
        <time>2015-10-17T12:40:07Z</time>
      </trkpt>
      <trkpt lat="44.59782" lon="5.15678">
        <ele>467.8</ele>
        <time>2015-10-17T12:40:13Z</time>
      </trkpt>
      <trkpt lat="44.59775" lon="5.15703">
        <ele>468.3</ele>
        <time>2015-10-17T12:40:14Z</time>
      </trkpt>
      <trkpt lat="44.59762" lon="5.15756">
        <ele>469.3</ele>
        <time>2015-10-17T12:40:16Z</time>
      </trkpt>
      <trkpt lat="44.59752" lon="5.15782">
        <ele>469.7</ele>
        <time>2015-10-17T12:40:17Z</time>
      </trkpt>
      <trkpt lat="44.59636" lon="5.16025">
        <ele>477</ele>
        <time>2015-10-17T12:40:27Z</time>
      </trkpt>
      <trkpt lat="44.59624" lon="5.16047">
        <ele>477.9</ele>
        <time>2015-10-17T12:40:28Z</time>
      </trkpt>
      <trkpt lat="44.59615" lon="5.1607">
        <ele>478.4</ele>
        <time>2015-10-17T12:40:29Z</time>
      </trkpt>
      <trkpt lat="44.59607" lon="5.16095">
        <ele>478.9</ele>
        <time>2015-10-17T12:40:30Z</time>
      </trkpt>
      <trkpt lat="44.59592" lon="5.16146">
        <ele>480.3</ele>
        <time>2015-10-17T12:40:32Z</time>
      </trkpt>
      <trkpt lat="44.59576" lon="5.16191">
        <ele>481.8</ele>
        <time>2015-10-17T12:40:34Z</time>
      </trkpt>
      <trkpt lat="44.59571" lon="5.16215">
        <ele>482.2</ele>
        <time>2015-10-17T12:40:35Z</time>
      </trkpt>
      <trkpt lat="44.59568" lon="5.16241">
        <ele>483.2</ele>
        <time>2015-10-17T12:40:36Z</time>
      </trkpt>
      <trkpt lat="44.59567" lon="5.1632">
        <ele>486.1</ele>
        <time>2015-10-17T12:40:39Z</time>
      </trkpt>
      <trkpt lat="44.5957" lon="5.16345">
        <ele>487.1</ele>
        <time>2015-10-17T12:40:40Z</time>
      </trkpt>
      <trkpt lat="44.59575" lon="5.1637">
        <ele>488</ele>
        <time>2015-10-17T12:40:41Z</time>
      </trkpt>
      <trkpt lat="44.59636" lon="5.1663">
        <ele>499.5</ele>
        <time>2015-10-17T12:40:52Z</time>
      </trkpt>
      <trkpt lat="44.59664" lon="5.16814">
        <ele>510.1</ele>
        <time>2015-10-17T12:41:01Z</time>
      </trkpt>
      <trkpt lat="44.59671" lon="5.16827">
        <ele>511.6</ele>
        <time>2015-10-17T12:41:02Z</time>
      </trkpt>
      <trkpt lat="44.59681" lon="5.16837">
        <ele>512.5</ele>
        <time>2015-10-17T12:41:03Z</time>
      </trkpt>
      <trkpt lat="44.59691" lon="5.16846">
        <ele>513</ele>
        <time>2015-10-17T12:41:04Z</time>
      </trkpt>
      <trkpt lat="44.59702" lon="5.16854">
        <ele>514.4</ele>
        <time>2015-10-17T12:41:05Z</time>
      </trkpt>
      <trkpt lat="44.59714" lon="5.16862">
        <ele>515.4</ele>
        <time>2015-10-17T12:41:06Z</time>
      </trkpt>
      <trkpt lat="44.59727" lon="5.16868">
        <ele>516.4</ele>
        <time>2015-10-17T12:41:07Z</time>
      </trkpt>
      <trkpt lat="44.59739" lon="5.16872">
        <ele>517.3</ele>
        <time>2015-10-17T12:41:08Z</time>
      </trkpt>
      <trkpt lat="44.59751" lon="5.16872">
        <ele>517.8</ele>
        <time>2015-10-17T12:41:09Z</time>
      </trkpt>
      <trkpt lat="44.59764" lon="5.16868">
        <ele>518.8</ele>
        <time>2015-10-17T12:41:10Z</time>
      </trkpt>
      <trkpt lat="44.59777" lon="5.16864">
        <ele>519.3</ele>
        <time>2015-10-17T12:41:11Z</time>
      </trkpt>
      <trkpt lat="44.59791" lon="5.16863">
        <ele>519.7</ele>
        <time>2015-10-17T12:41:12Z</time>
      </trkpt>
      <trkpt lat="44.59804" lon="5.16867">
        <ele>520.2</ele>
        <time>2015-10-17T12:41:13Z</time>
      </trkpt>
      <trkpt lat="44.59817" lon="5.16879">
        <ele>519.7</ele>
        <time>2015-10-17T12:41:14Z</time>
      </trkpt>
      <trkpt lat="44.5983" lon="5.1689">
        <ele>519.7</ele>
        <time>2015-10-17T12:41:15Z</time>
      </trkpt>
      <trkpt lat="44.59943" lon="5.16996">
        <ele>520.7</ele>
        <time>2015-10-17T12:41:23Z</time>
      </trkpt>
      <trkpt lat="44.59969" lon="5.17017">
        <ele>521.7</ele>
        <time>2015-10-17T12:41:25Z</time>
      </trkpt>
      <trkpt lat="44.59979" lon="5.17029">
        <ele>522.1</ele>
        <time>2015-10-17T12:41:26Z</time>
      </trkpt>
      <trkpt lat="44.59988" lon="5.17044">
        <ele>522.6</ele>
        <time>2015-10-17T12:41:27Z</time>
      </trkpt>
      <trkpt lat="44.59997" lon="5.17058">
        <ele>523.1</ele>
        <time>2015-10-17T12:41:28Z</time>
      </trkpt>
      <trkpt lat="44.60009" lon="5.17071">
        <ele>523.6</ele>
        <time>2015-10-17T12:41:29Z</time>
      </trkpt>
      <trkpt lat="44.60022" lon="5.17082">
        <ele>525</ele>
        <time>2015-10-17T12:41:30Z</time>
      </trkpt>
      <trkpt lat="44.60034" lon="5.17094">
        <ele>526</ele>
        <time>2015-10-17T12:41:31Z</time>
      </trkpt>
      <trkpt lat="44.60045" lon="5.17107">
        <ele>527.4</ele>
        <time>2015-10-17T12:41:32Z</time>
      </trkpt>
      <trkpt lat="44.60054" lon="5.17124">
        <ele>528.4</ele>
        <time>2015-10-17T12:41:33Z</time>
      </trkpt>
      <trkpt lat="44.60063" lon="5.17141">
        <ele>529.8</ele>
        <time>2015-10-17T12:41:34Z</time>
      </trkpt>
      <trkpt lat="44.60091" lon="5.17193">
        <ele>533.7</ele>
        <time>2015-10-17T12:41:37Z</time>
      </trkpt>
      <trkpt lat="44.60097" lon="5.17213">
        <ele>535.6</ele>
        <time>2015-10-17T12:41:38Z</time>
      </trkpt>
      <trkpt lat="44.60107" lon="5.17252">
        <ele>538.5</ele>
        <time>2015-10-17T12:41:40Z</time>
      </trkpt>
      <trkpt lat="44.60115" lon="5.17269">
        <ele>539.4</ele>
        <time>2015-10-17T12:41:41Z</time>
      </trkpt>
      <trkpt lat="44.60126" lon="5.17286">
        <ele>541.4</ele>
        <time>2015-10-17T12:41:42Z</time>
      </trkpt>
      <trkpt lat="44.60165" lon="5.17333">
        <ele>544.7</ele>
        <time>2015-10-17T12:41:45Z</time>
      </trkpt>
      <trkpt lat="44.60179" lon="5.17347">
        <ele>545.7</ele>
        <time>2015-10-17T12:41:46Z</time>
      </trkpt>
      <trkpt lat="44.60238" lon="5.17397">
        <ele>550.5</ele>
        <time>2015-10-17T12:41:50Z</time>
      </trkpt>
      <trkpt lat="44.6025" lon="5.17412">
        <ele>551.5</ele>
        <time>2015-10-17T12:41:51Z</time>
      </trkpt>
      <trkpt lat="44.60303" lon="5.17501">
        <ele>557.2</ele>
        <time>2015-10-17T12:41:56Z</time>
      </trkpt>
      <trkpt lat="44.60308" lon="5.17521">
        <ele>558.2</ele>
        <time>2015-10-17T12:41:57Z</time>
      </trkpt>
      <trkpt lat="44.60305" lon="5.17541">
        <ele>559.1</ele>
        <time>2015-10-17T12:41:58Z</time>
      </trkpt>
      <trkpt lat="44.60303" lon="5.17562">
        <ele>560.6</ele>
        <time>2015-10-17T12:41:59Z</time>
      </trkpt>
      <trkpt lat="44.60299" lon="5.17581">
        <ele>562</ele>
        <time>2015-10-17T12:42:00Z</time>
      </trkpt>
      <trkpt lat="44.60298" lon="5.17598">
        <ele>563.5</ele>
        <time>2015-10-17T12:42:01Z</time>
      </trkpt>
      <trkpt lat="44.603" lon="5.17611">
        <ele>564</ele>
        <time>2015-10-17T12:42:02Z</time>
      </trkpt>
      <trkpt lat="44.60304" lon="5.17619">
        <ele>564.9</ele>
        <time>2015-10-17T12:42:03Z</time>
      </trkpt>
      <trkpt lat="44.60313" lon="5.17621">
        <ele>565.9</ele>
        <time>2015-10-17T12:42:04Z</time>
      </trkpt>
      <trkpt lat="44.60322" lon="5.17619">
        <ele>566.4</ele>
        <time>2015-10-17T12:42:05Z</time>
      </trkpt>
      <trkpt lat="44.60331" lon="5.17611">
        <ele>566.8</ele>
        <time>2015-10-17T12:42:06Z</time>
      </trkpt>
      <trkpt lat="44.6034" lon="5.176">
        <ele>567.8</ele>
        <time>2015-10-17T12:42:07Z</time>
      </trkpt>
      <trkpt lat="44.60347" lon="5.17586">
        <ele>568.8</ele>
        <time>2015-10-17T12:42:08Z</time>
      </trkpt>
      <trkpt lat="44.60352" lon="5.17571">
        <ele>569.2</ele>
        <time>2015-10-17T12:42:09Z</time>
      </trkpt>
      <trkpt lat="44.60355" lon="5.17555">
        <ele>570.7</ele>
        <time>2015-10-17T12:42:10Z</time>
      </trkpt>
      <trkpt lat="44.60357" lon="5.1754">
        <ele>571.6</ele>
        <time>2015-10-17T12:42:11Z</time>
      </trkpt>
      <trkpt lat="44.60361" lon="5.17527">
        <ele>572.6</ele>
        <time>2015-10-17T12:42:12Z</time>
      </trkpt>
      <trkpt lat="44.60366" lon="5.17518">
        <ele>573.1</ele>
        <time>2015-10-17T12:42:13Z</time>
      </trkpt>
      <trkpt lat="44.60373" lon="5.17516">
        <ele>574</ele>
        <time>2015-10-17T12:42:14Z</time>
      </trkpt>
      <trkpt lat="44.60382" lon="5.17516">
        <ele>575.5</ele>
        <time>2015-10-17T12:42:15Z</time>
      </trkpt>
      <trkpt lat="44.60393" lon="5.17522">
        <ele>576</ele>
        <time>2015-10-17T12:42:16Z</time>
      </trkpt>
      <trkpt lat="44.60405" lon="5.17529">
        <ele>577.4</ele>
        <time>2015-10-17T12:42:17Z</time>
      </trkpt>
      <trkpt lat="44.60416" lon="5.17537">
        <ele>578.4</ele>
        <time>2015-10-17T12:42:18Z</time>
      </trkpt>
      <trkpt lat="44.60427" lon="5.17545">
        <ele>579.8</ele>
        <time>2015-10-17T12:42:19Z</time>
      </trkpt>
      <trkpt lat="44.60437" lon="5.1755">
        <ele>580.3</ele>
        <time>2015-10-17T12:42:20Z</time>
      </trkpt>
      <trkpt lat="44.60445" lon="5.17548">
        <ele>581.3</ele>
        <time>2015-10-17T12:42:21Z</time>
      </trkpt>
      <trkpt lat="44.60453" lon="5.1754">
        <ele>582.2</ele>
        <time>2015-10-17T12:42:22Z</time>
      </trkpt>
      <trkpt lat="44.60459" lon="5.17527">
        <ele>583.2</ele>
        <time>2015-10-17T12:42:23Z</time>
      </trkpt>
      <trkpt lat="44.60466" lon="5.17512">
        <ele>584.6</ele>
        <time>2015-10-17T12:42:24Z</time>
      </trkpt>
      <trkpt lat="44.60473" lon="5.17498">
        <ele>585.6</ele>
        <time>2015-10-17T12:42:25Z</time>
      </trkpt>
      <trkpt lat="44.60481" lon="5.17486">
        <ele>586.5</ele>
        <time>2015-10-17T12:42:26Z</time>
      </trkpt>
      <trkpt lat="44.60489" lon="5.17478">
        <ele>587.5</ele>
        <time>2015-10-17T12:42:27Z</time>
      </trkpt>
      <trkpt lat="44.605" lon="5.17472">
        <ele>588.5</ele>
        <time>2015-10-17T12:42:28Z</time>
      </trkpt>
      <trkpt lat="44.60511" lon="5.17468">
        <ele>589.4</ele>
        <time>2015-10-17T12:42:29Z</time>
      </trkpt>
      <trkpt lat="44.60524" lon="5.17464">
        <ele>590.4</ele>
        <time>2015-10-17T12:42:30Z</time>
      </trkpt>
      <trkpt lat="44.60551" lon="5.17457">
        <ele>593.3</ele>
        <time>2015-10-17T12:42:32Z</time>
      </trkpt>
      <trkpt lat="44.60564" lon="5.17456">
        <ele>594.2</ele>
        <time>2015-10-17T12:42:33Z</time>
      </trkpt>
      <trkpt lat="44.60577" lon="5.17457">
        <ele>595.7</ele>
        <time>2015-10-17T12:42:34Z</time>
      </trkpt>
      <trkpt lat="44.60589" lon="5.17458">
        <ele>596.6</ele>
        <time>2015-10-17T12:42:35Z</time>
      </trkpt>
      <trkpt lat="44.606" lon="5.17455">
        <ele>597.6</ele>
        <time>2015-10-17T12:42:36Z</time>
      </trkpt>
      <trkpt lat="44.60612" lon="5.17448">
        <ele>598.6</ele>
        <time>2015-10-17T12:42:37Z</time>
      </trkpt>
      <trkpt lat="44.60623" lon="5.17437">
        <ele>599.5</ele>
        <time>2015-10-17T12:42:38Z</time>
      </trkpt>
      <trkpt lat="44.60633" lon="5.17425">
        <ele>600.5</ele>
        <time>2015-10-17T12:42:39Z</time>
      </trkpt>
      <trkpt lat="44.60644" lon="5.17413">
        <ele>601.9</ele>
        <time>2015-10-17T12:42:40Z</time>
      </trkpt>
      <trkpt lat="44.60657" lon="5.17405">
        <ele>602.9</ele>
        <time>2015-10-17T12:42:41Z</time>
      </trkpt>
      <trkpt lat="44.6076" lon="5.17352">
        <ele>613</ele>
        <time>2015-10-17T12:42:49Z</time>
      </trkpt>
      <trkpt lat="44.60794" lon="5.17335">
        <ele>615.9</ele>
        <time>2015-10-17T12:42:53Z</time>
      </trkpt>
      <trkpt lat="44.60801" lon="5.17335">
        <ele>616.3</ele>
        <time>2015-10-17T12:42:54Z</time>
      </trkpt>
      <trkpt lat="44.60809" lon="5.17338">
        <ele>616.8</ele>
        <time>2015-10-17T12:42:55Z</time>
      </trkpt>
      <trkpt lat="44.60817" lon="5.17343">
        <ele>617.8</ele>
        <time>2015-10-17T12:42:56Z</time>
      </trkpt>
      <trkpt lat="44.60825" lon="5.17349">
        <ele>618.3</ele>
        <time>2015-10-17T12:42:57Z</time>
      </trkpt>
      <trkpt lat="44.60843" lon="5.1736">
        <ele>619.7</ele>
        <time>2015-10-17T12:42:59Z</time>
      </trkpt>
      <trkpt lat="44.60854" lon="5.17363">
        <ele>620.7</ele>
        <time>2015-10-17T12:43:00Z</time>
      </trkpt>
      <trkpt lat="44.60867" lon="5.17365">
        <ele>621.6</ele>
        <time>2015-10-17T12:43:01Z</time>
      </trkpt>
      <trkpt lat="44.60879" lon="5.17366">
        <ele>622.6</ele>
        <time>2015-10-17T12:43:02Z</time>
      </trkpt>
      <trkpt lat="44.60892" lon="5.17365">
        <ele>623.6</ele>
        <time>2015-10-17T12:43:03Z</time>
      </trkpt>
      <trkpt lat="44.60929" lon="5.17369">
        <ele>626.9</ele>
        <time>2015-10-17T12:43:06Z</time>
      </trkpt>
      <trkpt lat="44.60942" lon="5.17375">
        <ele>627.9</ele>
        <time>2015-10-17T12:43:07Z</time>
      </trkpt>
      <trkpt lat="44.60955" lon="5.17382">
        <ele>629.3</ele>
        <time>2015-10-17T12:43:08Z</time>
      </trkpt>
      <trkpt lat="44.60967" lon="5.17391">
        <ele>630.3</ele>
        <time>2015-10-17T12:43:09Z</time>
      </trkpt>
      <trkpt lat="44.6098" lon="5.17401">
        <ele>631.7</ele>
        <time>2015-10-17T12:43:10Z</time>
      </trkpt>
      <trkpt lat="44.61057" lon="5.17462">
        <ele>640.4</ele>
        <time>2015-10-17T12:43:16Z</time>
      </trkpt>
      <trkpt lat="44.61069" lon="5.17468">
        <ele>641.3</ele>
        <time>2015-10-17T12:43:17Z</time>
      </trkpt>
      <trkpt lat="44.61082" lon="5.17469">
        <ele>642.8</ele>
        <time>2015-10-17T12:43:18Z</time>
      </trkpt>
      <trkpt lat="44.61096" lon="5.17468">
        <ele>644.2</ele>
        <time>2015-10-17T12:43:19Z</time>
      </trkpt>
      <trkpt lat="44.61111" lon="5.17466">
        <ele>645.2</ele>
        <time>2015-10-17T12:43:20Z</time>
      </trkpt>
      <trkpt lat="44.61208" lon="5.17482">
        <ele>654.8</ele>
        <time>2015-10-17T12:43:27Z</time>
      </trkpt>
      <trkpt lat="44.61225" lon="5.17487">
        <ele>657.2</ele>
        <time>2015-10-17T12:43:29Z</time>
      </trkpt>
      <trkpt lat="44.61229" lon="5.17491">
        <ele>657.7</ele>
        <time>2015-10-17T12:43:30Z</time>
      </trkpt>
      <trkpt lat="44.61231" lon="5.17497">
        <ele>658.6</ele>
        <time>2015-10-17T12:43:31Z</time>
      </trkpt>
      <trkpt lat="44.61229" lon="5.17503">
        <ele>659.6</ele>
        <time>2015-10-17T12:43:32Z</time>
      </trkpt>
      <trkpt lat="44.61225" lon="5.17505">
        <ele>660.1</ele>
        <time>2015-10-17T12:43:33Z</time>
      </trkpt>
      <trkpt lat="44.61219" lon="5.17506">
        <ele>661</ele>
        <time>2015-10-17T12:43:34Z</time>
      </trkpt>
      <trkpt lat="44.61211" lon="5.17506">
        <ele>661.5</ele>
        <time>2015-10-17T12:43:35Z</time>
      </trkpt>
      <trkpt lat="44.61202" lon="5.17506">
        <ele>662</ele>
        <time>2015-10-17T12:43:36Z</time>
      </trkpt>
      <trkpt lat="44.61191" lon="5.17508">
        <ele>663</ele>
        <time>2015-10-17T12:43:37Z</time>
      </trkpt>
      <trkpt lat="44.61181" lon="5.17513">
        <ele>663.5</ele>
        <time>2015-10-17T12:43:38Z</time>
      </trkpt>
      <trkpt lat="44.6117" lon="5.1752">
        <ele>664.4</ele>
        <time>2015-10-17T12:43:39Z</time>
      </trkpt>
      <trkpt lat="44.61111" lon="5.17553">
        <ele>668.7</ele>
        <time>2015-10-17T12:43:44Z</time>
      </trkpt>
      <trkpt lat="44.61098" lon="5.17557">
        <ele>670.2</ele>
        <time>2015-10-17T12:43:45Z</time>
      </trkpt>
      <trkpt lat="44.61084" lon="5.17559">
        <ele>671.1</ele>
        <time>2015-10-17T12:43:46Z</time>
      </trkpt>
      <trkpt lat="44.6107" lon="5.17559">
        <ele>672.6</ele>
        <time>2015-10-17T12:43:47Z</time>
      </trkpt>
      <trkpt lat="44.61056" lon="5.17557">
        <ele>674</ele>
        <time>2015-10-17T12:43:48Z</time>
      </trkpt>
      <trkpt lat="44.61042" lon="5.17554">
        <ele>675.5</ele>
        <time>2015-10-17T12:43:49Z</time>
      </trkpt>
      <trkpt lat="44.61012" lon="5.17551">
        <ele>678.4</ele>
        <time>2015-10-17T12:43:51Z</time>
      </trkpt>
      <trkpt lat="44.60951" lon="5.17557">
        <ele>683.6</ele>
        <time>2015-10-17T12:43:56Z</time>
      </trkpt>
      <trkpt lat="44.6094" lon="5.17561">
        <ele>684.6</ele>
        <time>2015-10-17T12:43:57Z</time>
      </trkpt>
      <trkpt lat="44.6093" lon="5.17569">
        <ele>685.1</ele>
        <time>2015-10-17T12:43:58Z</time>
      </trkpt>
      <trkpt lat="44.60921" lon="5.17579">
        <ele>686.5</ele>
        <time>2015-10-17T12:43:59Z</time>
      </trkpt>
      <trkpt lat="44.60913" lon="5.17588">
        <ele>687</ele>
        <time>2015-10-17T12:44:00Z</time>
      </trkpt>
      <trkpt lat="44.60907" lon="5.17597">
        <ele>688</ele>
        <time>2015-10-17T12:44:01Z</time>
      </trkpt>
      <trkpt lat="44.60907" lon="5.17606">
        <ele>688.9</ele>
        <time>2015-10-17T12:44:02Z</time>
      </trkpt>
      <trkpt lat="44.60913" lon="5.17614">
        <ele>689.4</ele>
        <time>2015-10-17T12:44:03Z</time>
      </trkpt>
      <trkpt lat="44.60921" lon="5.17617">
        <ele>689.9</ele>
        <time>2015-10-17T12:44:04Z</time>
      </trkpt>
      <trkpt lat="44.6093" lon="5.17613">
        <ele>690.4</ele>
        <time>2015-10-17T12:44:05Z</time>
      </trkpt>
      <trkpt lat="44.6094" lon="5.17609">
        <ele>691.3</ele>
        <time>2015-10-17T12:44:06Z</time>
      </trkpt>
      <trkpt lat="44.60949" lon="5.17606">
        <ele>691.8</ele>
        <time>2015-10-17T12:44:07Z</time>
      </trkpt>
      <trkpt lat="44.6096" lon="5.17605">
        <ele>692.8</ele>
        <time>2015-10-17T12:44:08Z</time>
      </trkpt>
      <trkpt lat="44.60971" lon="5.17607">
        <ele>693.7</ele>
        <time>2015-10-17T12:44:09Z</time>
      </trkpt>
      <trkpt lat="44.60984" lon="5.1761">
        <ele>695.2</ele>
        <time>2015-10-17T12:44:10Z</time>
      </trkpt>
      <trkpt lat="44.61082" lon="5.17648">
        <ele>704.3</ele>
        <time>2015-10-17T12:44:17Z</time>
      </trkpt>
      <trkpt lat="44.61095" lon="5.17651">
        <ele>705.3</ele>
        <time>2015-10-17T12:44:18Z</time>
      </trkpt>
      <trkpt lat="44.61107" lon="5.17651">
        <ele>706.2</ele>
        <time>2015-10-17T12:44:19Z</time>
      </trkpt>
      <trkpt lat="44.6112" lon="5.1765">
        <ele>707.2</ele>
        <time>2015-10-17T12:44:20Z</time>
      </trkpt>
      <trkpt lat="44.61133" lon="5.17652">
        <ele>708.2</ele>
        <time>2015-10-17T12:44:21Z</time>
      </trkpt>
      <trkpt lat="44.61146" lon="5.17658">
        <ele>709.1</ele>
        <time>2015-10-17T12:44:22Z</time>
      </trkpt>
      <trkpt lat="44.6116" lon="5.17668">
        <ele>710.6</ele>
        <time>2015-10-17T12:44:23Z</time>
      </trkpt>
      <trkpt lat="44.61172" lon="5.17678">
        <ele>712</ele>
        <time>2015-10-17T12:44:24Z</time>
      </trkpt>
      <trkpt lat="44.61186" lon="5.17686">
        <ele>713.4</ele>
        <time>2015-10-17T12:44:25Z</time>
      </trkpt>
      <trkpt lat="44.61214" lon="5.177">
        <ele>716.3</ele>
        <time>2015-10-17T12:44:27Z</time>
      </trkpt>
      <trkpt lat="44.61228" lon="5.1771">
        <ele>717.8</ele>
        <time>2015-10-17T12:44:28Z</time>
      </trkpt>
      <trkpt lat="44.61282" lon="5.17754">
        <ele>721.6</ele>
        <time>2015-10-17T12:44:32Z</time>
      </trkpt>
      <trkpt lat="44.61292" lon="5.17768">
        <ele>722.6</ele>
        <time>2015-10-17T12:44:33Z</time>
      </trkpt>
      <trkpt lat="44.61302" lon="5.17785">
        <ele>724</ele>
        <time>2015-10-17T12:44:34Z</time>
      </trkpt>
      <trkpt lat="44.61311" lon="5.17802">
        <ele>725.9</ele>
        <time>2015-10-17T12:44:35Z</time>
      </trkpt>
      <trkpt lat="44.61322" lon="5.17817">
        <ele>727.4</ele>
        <time>2015-10-17T12:44:36Z</time>
      </trkpt>
      <trkpt lat="44.61333" lon="5.17831">
        <ele>728.8</ele>
        <time>2015-10-17T12:44:37Z</time>
      </trkpt>
      <trkpt lat="44.61351" lon="5.17858">
        <ele>733.1</ele>
        <time>2015-10-17T12:44:40Z</time>
      </trkpt>
      <trkpt lat="44.61352" lon="5.17865">
        <ele>733.6</ele>
        <time>2015-10-17T12:44:41Z</time>
      </trkpt>
      <trkpt lat="44.61349" lon="5.1787">
        <ele>734.6</ele>
        <time>2015-10-17T12:44:42Z</time>
      </trkpt>
      <trkpt lat="44.61344" lon="5.17873">
        <ele>734.6</ele>
        <time>2015-10-17T12:44:43Z</time>
      </trkpt>
      <trkpt lat="44.61337" lon="5.17871">
        <ele>735.1</ele>
        <time>2015-10-17T12:44:44Z</time>
      </trkpt>
      <trkpt lat="44.61327" lon="5.17867">
        <ele>735.1</ele>
        <time>2015-10-17T12:44:45Z</time>
      </trkpt>
      <trkpt lat="44.61316" lon="5.1786">
        <ele>736</ele>
        <time>2015-10-17T12:44:46Z</time>
      </trkpt>
      <trkpt lat="44.61231" lon="5.17799">
        <ele>743.7</ele>
        <time>2015-10-17T12:44:52Z</time>
      </trkpt>
      <trkpt lat="44.61217" lon="5.17791">
        <ele>745.6</ele>
        <time>2015-10-17T12:44:53Z</time>
      </trkpt>
      <trkpt lat="44.61203" lon="5.17786">
        <ele>746.6</ele>
        <time>2015-10-17T12:44:54Z</time>
      </trkpt>
      <trkpt lat="44.61138" lon="5.17776">
        <ele>752.4</ele>
        <time>2015-10-17T12:44:58Z</time>
      </trkpt>
      <trkpt lat="44.61033" lon="5.17776">
        <ele>762</ele>
        <time>2015-10-17T12:45:05Z</time>
      </trkpt>
      <trkpt lat="44.61021" lon="5.17781">
        <ele>762.9</ele>
        <time>2015-10-17T12:45:06Z</time>
      </trkpt>
      <trkpt lat="44.61009" lon="5.17789">
        <ele>764.4</ele>
        <time>2015-10-17T12:45:07Z</time>
      </trkpt>
      <trkpt lat="44.60999" lon="5.17799">
        <ele>765.4</ele>
        <time>2015-10-17T12:45:08Z</time>
      </trkpt>
      <trkpt lat="44.60989" lon="5.17811">
        <ele>766.3</ele>
        <time>2015-10-17T12:45:09Z</time>
      </trkpt>
      <trkpt lat="44.60979" lon="5.17825">
        <ele>767.8</ele>
        <time>2015-10-17T12:45:10Z</time>
      </trkpt>
      <trkpt lat="44.60971" lon="5.17841">
        <ele>769.2</ele>
        <time>2015-10-17T12:45:11Z</time>
      </trkpt>
      <trkpt lat="44.60963" lon="5.17858">
        <ele>770.6</ele>
        <time>2015-10-17T12:45:12Z</time>
      </trkpt>
      <trkpt lat="44.60957" lon="5.17877">
        <ele>772.1</ele>
        <time>2015-10-17T12:45:13Z</time>
      </trkpt>
      <trkpt lat="44.60952" lon="5.17897">
        <ele>773.5</ele>
        <time>2015-10-17T12:45:14Z</time>
      </trkpt>
      <trkpt lat="44.60948" lon="5.17918">
        <ele>775</ele>
        <time>2015-10-17T12:45:15Z</time>
      </trkpt>
      <trkpt lat="44.60944" lon="5.17938">
        <ele>776.4</ele>
        <time>2015-10-17T12:45:16Z</time>
      </trkpt>
      <trkpt lat="44.60938" lon="5.17955">
        <ele>777.8</ele>
        <time>2015-10-17T12:45:17Z</time>
      </trkpt>
      <trkpt lat="44.6093" lon="5.1797">
        <ele>778.8</ele>
        <time>2015-10-17T12:45:18Z</time>
      </trkpt>
      <trkpt lat="44.6092" lon="5.1798">
        <ele>779.8</ele>
        <time>2015-10-17T12:45:19Z</time>
      </trkpt>
      <trkpt lat="44.60907" lon="5.17981">
        <ele>781.2</ele>
        <time>2015-10-17T12:45:20Z</time>
      </trkpt>
      <trkpt lat="44.60893" lon="5.17984">
        <ele>782.2</ele>
        <time>2015-10-17T12:45:21Z</time>
      </trkpt>
      <trkpt lat="44.60879" lon="5.17987">
        <ele>783.1</ele>
        <time>2015-10-17T12:45:22Z</time>
      </trkpt>
      <trkpt lat="44.60865" lon="5.17992">
        <ele>784.1</ele>
        <time>2015-10-17T12:45:23Z</time>
      </trkpt>
      <trkpt lat="44.6085" lon="5.17999">
        <ele>785.5</ele>
        <time>2015-10-17T12:45:24Z</time>
      </trkpt>
      <trkpt lat="44.60791" lon="5.1804">
        <ele>790.8</ele>
        <time>2015-10-17T12:45:28Z</time>
      </trkpt>
      <trkpt lat="44.60779" lon="5.18053">
        <ele>792.3</ele>
        <time>2015-10-17T12:45:29Z</time>
      </trkpt>
      <trkpt lat="44.60769" lon="5.18068">
        <ele>793.2</ele>
        <time>2015-10-17T12:45:30Z</time>
      </trkpt>
      <trkpt lat="44.60761" lon="5.18082">
        <ele>794.7</ele>
        <time>2015-10-17T12:45:31Z</time>
      </trkpt>
      <trkpt lat="44.60756" lon="5.18094">
        <ele>795.6</ele>
        <time>2015-10-17T12:45:32Z</time>
      </trkpt>
      <trkpt lat="44.60752" lon="5.18103">
        <ele>796.6</ele>
        <time>2015-10-17T12:45:33Z</time>
      </trkpt>
      <trkpt lat="44.60752" lon="5.1811">
        <ele>796.6</ele>
        <time>2015-10-17T12:45:34Z</time>
      </trkpt>
      <trkpt lat="44.60754" lon="5.18115">
        <ele>797.1</ele>
        <time>2015-10-17T12:45:35Z</time>
      </trkpt>
      <trkpt lat="44.60759" lon="5.18118">
        <ele>797.1</ele>
        <time>2015-10-17T12:45:36Z</time>
      </trkpt>
      <trkpt lat="44.60765" lon="5.18117">
        <ele>797.6</ele>
        <time>2015-10-17T12:45:37Z</time>
      </trkpt>
      <trkpt lat="44.60772" lon="5.18113">
        <ele>798</ele>
        <time>2015-10-17T12:45:38Z</time>
      </trkpt>
      <trkpt lat="44.60782" lon="5.18107">
        <ele>798.5</ele>
        <time>2015-10-17T12:45:39Z</time>
      </trkpt>
      <trkpt lat="44.60875" lon="5.18076">
        <ele>806.7</ele>
        <time>2015-10-17T12:45:46Z</time>
      </trkpt>
      <trkpt lat="44.60889" lon="5.18077">
        <ele>808.1</ele>
        <time>2015-10-17T12:45:47Z</time>
      </trkpt>
      <trkpt lat="44.60905" lon="5.18081">
        <ele>810.1</ele>
        <time>2015-10-17T12:45:48Z</time>
      </trkpt>
      <trkpt lat="44.61024" lon="5.18127">
        <ele>822.1</ele>
        <time>2015-10-17T12:45:55Z</time>
      </trkpt>
      <trkpt lat="44.61109" lon="5.18147">
        <ele>831.2</ele>
        <time>2015-10-17T12:46:00Z</time>
      </trkpt>
      <trkpt lat="44.61132" lon="5.18148">
        <ele>833.6</ele>
        <time>2015-10-17T12:46:02Z</time>
      </trkpt>
      <trkpt lat="44.61138" lon="5.18151">
        <ele>834.6</ele>
        <time>2015-10-17T12:46:03Z</time>
      </trkpt>
      <trkpt lat="44.61142" lon="5.18156">
        <ele>835.5</ele>
        <time>2015-10-17T12:46:04Z</time>
      </trkpt>
      <trkpt lat="44.61143" lon="5.18163">
        <ele>836</ele>
        <time>2015-10-17T12:46:05Z</time>
      </trkpt>
      <trkpt lat="44.61139" lon="5.1817">
        <ele>836</ele>
        <time>2015-10-17T12:46:06Z</time>
      </trkpt>
      <trkpt lat="44.61135" lon="5.18175">
        <ele>836.5</ele>
        <time>2015-10-17T12:46:07Z</time>
      </trkpt>
      <trkpt lat="44.61131" lon="5.18178">
        <ele>837</ele>
        <time>2015-10-17T12:46:08Z</time>
      </trkpt>
      <trkpt lat="44.61128" lon="5.1818">
        <ele>837</ele>
        <time>2015-10-17T12:46:09Z</time>
      </trkpt>
      <trkpt lat="44.61108" lon="5.18196">
        <ele>839.9</ele>
        <time>2015-10-17T12:46:20Z</time>
      </trkpt>
      <trkpt lat="44.61085" lon="5.18214">
        <ele>841.8</ele>
        <time>2015-10-17T12:46:40Z</time>
      </trkpt>
      <trkpt lat="44.60997" lon="5.18282">
        <ele>849.9</ele>
        <time>2015-10-17T12:46:49Z</time>
      </trkpt>
      <trkpt lat="44.60986" lon="5.18292">
        <ele>850.9</ele>
        <time>2015-10-17T12:46:50Z</time>
      </trkpt>
      <trkpt lat="44.60975" lon="5.18304">
        <ele>852.4</ele>
        <time>2015-10-17T12:46:51Z</time>
      </trkpt>
      <trkpt lat="44.60965" lon="5.18317">
        <ele>853.3</ele>
        <time>2015-10-17T12:46:52Z</time>
      </trkpt>
      <trkpt lat="44.60952" lon="5.18329">
        <ele>854.8</ele>
        <time>2015-10-17T12:46:53Z</time>
      </trkpt>
      <trkpt lat="44.60939" lon="5.1834">
        <ele>856.2</ele>
        <time>2015-10-17T12:46:54Z</time>
      </trkpt>
      <trkpt lat="44.609" lon="5.18375">
        <ele>860.5</ele>
        <time>2015-10-17T12:46:58Z</time>
      </trkpt>
      <trkpt lat="44.60896" lon="5.18384">
        <ele>861.5</ele>
        <time>2015-10-17T12:46:59Z</time>
      </trkpt>
      <trkpt lat="44.60898" lon="5.18395">
        <ele>862.4</ele>
        <time>2015-10-17T12:47:00Z</time>
      </trkpt>
      <trkpt lat="44.60905" lon="5.18403">
        <ele>862.9</ele>
        <time>2015-10-17T12:47:01Z</time>
      </trkpt>
      <trkpt lat="44.60915" lon="5.18408">
        <ele>863.9</ele>
        <time>2015-10-17T12:47:02Z</time>
      </trkpt>
      <trkpt lat="44.60927" lon="5.18411">
        <ele>865.3</ele>
        <time>2015-10-17T12:47:03Z</time>
      </trkpt>
      <trkpt lat="44.60939" lon="5.18412">
        <ele>866.3</ele>
        <time>2015-10-17T12:47:04Z</time>
      </trkpt>
      <trkpt lat="44.60953" lon="5.18411">
        <ele>867.3</ele>
        <time>2015-10-17T12:47:05Z</time>
      </trkpt>
      <trkpt lat="44.60967" lon="5.18406">
        <ele>868.7</ele>
        <time>2015-10-17T12:47:06Z</time>
      </trkpt>
      <trkpt lat="44.60981" lon="5.18401">
        <ele>869.7</ele>
        <time>2015-10-17T12:47:07Z</time>
      </trkpt>
      <trkpt lat="44.61101" lon="5.18368">
        <ele>879.7</ele>
        <time>2015-10-17T12:47:15Z</time>
      </trkpt>
      <trkpt lat="44.61196" lon="5.18341">
        <ele>888.4</ele>
        <time>2015-10-17T12:47:21Z</time>
      </trkpt>
      <trkpt lat="44.61212" lon="5.18342">
        <ele>890.3</ele>
        <time>2015-10-17T12:47:22Z</time>
      </trkpt>
      <trkpt lat="44.61229" lon="5.18346">
        <ele>891.8</ele>
        <time>2015-10-17T12:47:23Z</time>
      </trkpt>
      <trkpt lat="44.61282" lon="5.18354">
        <ele>897.1</ele>
        <time>2015-10-17T12:47:26Z</time>
      </trkpt>
      <trkpt lat="44.613" lon="5.18351">
        <ele>898.5</ele>
        <time>2015-10-17T12:47:27Z</time>
      </trkpt>
      <trkpt lat="44.61317" lon="5.18347">
        <ele>899.5</ele>
        <time>2015-10-17T12:47:28Z</time>
      </trkpt>
      <trkpt lat="44.61333" lon="5.18342">
        <ele>900.9</ele>
        <time>2015-10-17T12:47:29Z</time>
      </trkpt>
      <trkpt lat="44.61348" lon="5.18335">
        <ele>902.3</ele>
        <time>2015-10-17T12:47:30Z</time>
      </trkpt>
      <trkpt lat="44.61362" lon="5.18326">
        <ele>903.8</ele>
        <time>2015-10-17T12:47:31Z</time>
      </trkpt>
      <trkpt lat="44.61376" lon="5.18318">
        <ele>905.2</ele>
        <time>2015-10-17T12:47:32Z</time>
      </trkpt>
      <trkpt lat="44.61391" lon="5.18313">
        <ele>906.7</ele>
        <time>2015-10-17T12:47:33Z</time>
      </trkpt>
      <trkpt lat="44.61406" lon="5.18312">
        <ele>908.1</ele>
        <time>2015-10-17T12:47:34Z</time>
      </trkpt>
      <trkpt lat="44.61422" lon="5.18315">
        <ele>910</ele>
        <time>2015-10-17T12:47:35Z</time>
      </trkpt>
      <trkpt lat="44.61437" lon="5.18318">
        <ele>911.5</ele>
        <time>2015-10-17T12:47:36Z</time>
      </trkpt>
      <trkpt lat="44.61453" lon="5.18318">
        <ele>912.9</ele>
        <time>2015-10-17T12:47:37Z</time>
      </trkpt>
      <trkpt lat="44.61469" lon="5.18316">
        <ele>914.4</ele>
        <time>2015-10-17T12:47:38Z</time>
      </trkpt>
      <trkpt lat="44.61486" lon="5.18311">
        <ele>915.3</ele>
        <time>2015-10-17T12:47:39Z</time>
      </trkpt>
      <trkpt lat="44.6157" lon="5.18278">
        <ele>922</ele>
        <time>2015-10-17T12:47:44Z</time>
      </trkpt>
      <trkpt lat="44.61587" lon="5.18276">
        <ele>923.5</ele>
        <time>2015-10-17T12:47:45Z</time>
      </trkpt>
      <trkpt lat="44.61603" lon="5.18276">
        <ele>925.4</ele>
        <time>2015-10-17T12:47:46Z</time>
      </trkpt>
      <trkpt lat="44.6162" lon="5.18279">
        <ele>926.9</ele>
        <time>2015-10-17T12:47:47Z</time>
      </trkpt>
      <trkpt lat="44.61636" lon="5.18284">
        <ele>927.8</ele>
        <time>2015-10-17T12:47:48Z</time>
      </trkpt>
      <trkpt lat="44.61825" lon="5.18321">
        <ele>944.6</ele>
        <time>2015-10-17T12:47:58Z</time>
      </trkpt>
      <trkpt lat="44.61961" lon="5.18348">
        <ele>957.6</ele>
        <time>2015-10-17T12:48:05Z</time>
      </trkpt>
      <trkpt lat="44.61977" lon="5.18358">
        <ele>959.5</ele>
        <time>2015-10-17T12:48:06Z</time>
      </trkpt>
      <trkpt lat="44.61991" lon="5.18372">
        <ele>961</ele>
        <time>2015-10-17T12:48:07Z</time>
      </trkpt>
      <trkpt lat="44.62004" lon="5.18389">
        <ele>962.4</ele>
        <time>2015-10-17T12:48:08Z</time>
      </trkpt>
      <trkpt lat="44.62017" lon="5.18407">
        <ele>963.9</ele>
        <time>2015-10-17T12:48:09Z</time>
      </trkpt>
      <trkpt lat="44.62078" lon="5.18516">
        <ele>971.1</ele>
        <time>2015-10-17T12:48:14Z</time>
      </trkpt>
      <trkpt lat="44.62087" lon="5.18541">
        <ele>972.5</ele>
        <time>2015-10-17T12:48:15Z</time>
      </trkpt>
      <trkpt lat="44.62107" lon="5.18591">
        <ele>975.4</ele>
        <time>2015-10-17T12:48:17Z</time>
      </trkpt>
      <trkpt lat="44.62128" lon="5.18638">
        <ele>977.8</ele>
        <time>2015-10-17T12:48:19Z</time>
      </trkpt>
      <trkpt lat="44.62136" lon="5.18662">
        <ele>979.2</ele>
        <time>2015-10-17T12:48:20Z</time>
      </trkpt>
      <trkpt lat="44.62143" lon="5.18687">
        <ele>980.7</ele>
        <time>2015-10-17T12:48:21Z</time>
      </trkpt>
      <trkpt lat="44.62193" lon="5.18931">
        <ele>994.6</ele>
        <time>2015-10-17T12:48:30Z</time>
      </trkpt>
      <trkpt lat="44.6222" lon="5.19161">
        <ele>1007.1</ele>
        <time>2015-10-17T12:48:39Z</time>
      </trkpt>
      <trkpt lat="44.62224" lon="5.19183">
        <ele>1008.6</ele>
        <time>2015-10-17T12:48:40Z</time>
      </trkpt>
      <trkpt lat="44.6223" lon="5.19203">
        <ele>1010</ele>
        <time>2015-10-17T12:48:41Z</time>
      </trkpt>
      <trkpt lat="44.62238" lon="5.1922">
        <ele>1011.4</ele>
        <time>2015-10-17T12:48:42Z</time>
      </trkpt>
      <trkpt lat="44.6225" lon="5.19231">
        <ele>1012.9</ele>
        <time>2015-10-17T12:48:43Z</time>
      </trkpt>
      <trkpt lat="44.62263" lon="5.19237">
        <ele>1013.9</ele>
        <time>2015-10-17T12:48:44Z</time>
      </trkpt>
      <trkpt lat="44.62277" lon="5.19241">
        <ele>1014.8</ele>
        <time>2015-10-17T12:48:45Z</time>
      </trkpt>
      <trkpt lat="44.62291" lon="5.19245">
        <ele>1015.8</ele>
        <time>2015-10-17T12:48:46Z</time>
      </trkpt>
      <trkpt lat="44.62304" lon="5.19253">
        <ele>1017.2</ele>
        <time>2015-10-17T12:48:47Z</time>
      </trkpt>
      <trkpt lat="44.62315" lon="5.19265">
        <ele>1018.2</ele>
        <time>2015-10-17T12:48:48Z</time>
      </trkpt>
      <trkpt lat="44.62325" lon="5.19281">
        <ele>1018.7</ele>
        <time>2015-10-17T12:48:49Z</time>
      </trkpt>
      <trkpt lat="44.62333" lon="5.193">
        <ele>1020.1</ele>
        <time>2015-10-17T12:48:50Z</time>
      </trkpt>
      <trkpt lat="44.6234" lon="5.19321">
        <ele>1020.6</ele>
        <time>2015-10-17T12:48:51Z</time>
      </trkpt>
      <trkpt lat="44.62345" lon="5.19344">
        <ele>1021.1</ele>
        <time>2015-10-17T12:48:52Z</time>
      </trkpt>
      <trkpt lat="44.62349" lon="5.19367">
        <ele>1022</ele>
        <time>2015-10-17T12:48:53Z</time>
      </trkpt>
      <trkpt lat="44.62352" lon="5.19389">
        <ele>1023.5</ele>
        <time>2015-10-17T12:48:54Z</time>
      </trkpt>
      <trkpt lat="44.62362" lon="5.19448">
        <ele>1025.9</ele>
        <time>2015-10-17T12:48:57Z</time>
      </trkpt>
      <trkpt lat="44.62368" lon="5.19462">
        <ele>1026.3</ele>
        <time>2015-10-17T12:48:58Z</time>
      </trkpt>
      <trkpt lat="44.62376" lon="5.19473">
        <ele>1027.3</ele>
        <time>2015-10-17T12:48:59Z</time>
      </trkpt>
      <trkpt lat="44.62385" lon="5.19484">
        <ele>1027.3</ele>
        <time>2015-10-17T12:49:00Z</time>
      </trkpt>
      <trkpt lat="44.62391" lon="5.19498">
        <ele>1027.8</ele>
        <time>2015-10-17T12:49:01Z</time>
      </trkpt>
      <trkpt lat="44.62394" lon="5.19516">
        <ele>1028.8</ele>
        <time>2015-10-17T12:49:02Z</time>
      </trkpt>
      <trkpt lat="44.62395" lon="5.19535">
        <ele>1029.7</ele>
        <time>2015-10-17T12:49:03Z</time>
      </trkpt>
      <trkpt lat="44.62397" lon="5.19556">
        <ele>1030.7</ele>
        <time>2015-10-17T12:49:04Z</time>
      </trkpt>
      <trkpt lat="44.62406" lon="5.19598">
        <ele>1032.1</ele>
        <time>2015-10-17T12:49:06Z</time>
      </trkpt>
      <trkpt lat="44.62414" lon="5.19619">
        <ele>1032.6</ele>
        <time>2015-10-17T12:49:07Z</time>
      </trkpt>
      <trkpt lat="44.62424" lon="5.19637">
        <ele>1033.6</ele>
        <time>2015-10-17T12:49:08Z</time>
      </trkpt>
      <trkpt lat="44.62435" lon="5.19654">
        <ele>1034</ele>
        <time>2015-10-17T12:49:09Z</time>
      </trkpt>
      <trkpt lat="44.62446" lon="5.1967">
        <ele>1034.5</ele>
        <time>2015-10-17T12:49:10Z</time>
      </trkpt>
      <trkpt lat="44.62456" lon="5.19685">
        <ele>1035</ele>
        <time>2015-10-17T12:49:11Z</time>
      </trkpt>
      <trkpt lat="44.62464" lon="5.19701">
        <ele>1035.5</ele>
        <time>2015-10-17T12:49:12Z</time>
      </trkpt>
      <trkpt lat="44.62469" lon="5.19719">
        <ele>1036.4</ele>
        <time>2015-10-17T12:49:13Z</time>
      </trkpt>
      <trkpt lat="44.62471" lon="5.19738">
        <ele>1037.4</ele>
        <time>2015-10-17T12:49:14Z</time>
      </trkpt>
      <trkpt lat="44.6247" lon="5.19758">
        <ele>1037.9</ele>
        <time>2015-10-17T12:49:15Z</time>
      </trkpt>
      <trkpt lat="44.62471" lon="5.19779">
        <ele>1038.4</ele>
        <time>2015-10-17T12:49:16Z</time>
      </trkpt>
      <trkpt lat="44.62475" lon="5.19799">
        <ele>1038.8</ele>
        <time>2015-10-17T12:49:17Z</time>
      </trkpt>
      <trkpt lat="44.62481" lon="5.19819">
        <ele>1038.8</ele>
        <time>2015-10-17T12:49:18Z</time>
      </trkpt>
      <trkpt lat="44.6249" lon="5.19839">
        <ele>1039.8</ele>
        <time>2015-10-17T12:49:19Z</time>
      </trkpt>
      <trkpt lat="44.62561" lon="5.19954">
        <ele>1044.1</ele>
        <time>2015-10-17T12:49:26Z</time>
      </trkpt>
      <trkpt lat="44.62668" lon="5.20133">
        <ele>1049.9</ele>
        <time>2015-10-17T12:49:37Z</time>
      </trkpt>
      <trkpt lat="44.62717" lon="5.20184">
        <ele>1049.4</ele>
        <time>2015-10-17T12:49:43Z</time>
      </trkpt>
      <trkpt lat="44.62726" lon="5.20189">
        <ele>1048.9</ele>
        <time>2015-10-17T12:49:44Z</time>
      </trkpt>
      <trkpt lat="44.62736" lon="5.20193">
        <ele>1048.5</ele>
        <time>2015-10-17T12:49:45Z</time>
      </trkpt>
      <trkpt lat="44.62768" lon="5.20208">
        <ele>1047.5</ele>
        <time>2015-10-17T12:49:48Z</time>
      </trkpt>
      <trkpt lat="44.62778" lon="5.20217">
        <ele>1047</ele>
        <time>2015-10-17T12:49:49Z</time>
      </trkpt>
      <trkpt lat="44.62788" lon="5.20228">
        <ele>1046.5</ele>
        <time>2015-10-17T12:49:50Z</time>
      </trkpt>
      <trkpt lat="44.62842" lon="5.20303">
        <ele>1043.2</ele>
        <time>2015-10-17T12:49:56Z</time>
      </trkpt>
      <trkpt lat="44.62849" lon="5.20317">
        <ele>1042.7</ele>
        <time>2015-10-17T12:49:57Z</time>
      </trkpt>
      <trkpt lat="44.62863" lon="5.20345">
        <ele>1041.3</ele>
        <time>2015-10-17T12:49:59Z</time>
      </trkpt>
      <trkpt lat="44.62872" lon="5.20357">
        <ele>1040.8</ele>
        <time>2015-10-17T12:50:00Z</time>
      </trkpt>
      <trkpt lat="44.62881" lon="5.20369">
        <ele>1040.3</ele>
        <time>2015-10-17T12:50:01Z</time>
      </trkpt>
      <trkpt lat="44.62909" lon="5.20404">
        <ele>1037.9</ele>
        <time>2015-10-17T12:50:04Z</time>
      </trkpt>
      <trkpt lat="44.62916" lon="5.20416">
        <ele>1036.9</ele>
        <time>2015-10-17T12:50:05Z</time>
      </trkpt>
      <trkpt lat="44.62921" lon="5.2043">
        <ele>1036</ele>
        <time>2015-10-17T12:50:06Z</time>
      </trkpt>
      <trkpt lat="44.62923" lon="5.20444">
        <ele>1035.5</ele>
        <time>2015-10-17T12:50:07Z</time>
      </trkpt>
      <trkpt lat="44.62924" lon="5.20471">
        <ele>1033.1</ele>
        <time>2015-10-17T12:50:09Z</time>
      </trkpt>
      <trkpt lat="44.62927" lon="5.20483">
        <ele>1032.1</ele>
        <time>2015-10-17T12:50:10Z</time>
      </trkpt>
      <trkpt lat="44.62933" lon="5.20495">
        <ele>1031.2</ele>
        <time>2015-10-17T12:50:11Z</time>
      </trkpt>
      <trkpt lat="44.62942" lon="5.20506">
        <ele>1030.2</ele>
        <time>2015-10-17T12:50:12Z</time>
      </trkpt>
      <trkpt lat="44.62953" lon="5.20515">
        <ele>1029.2</ele>
        <time>2015-10-17T12:50:13Z</time>
      </trkpt>
      <trkpt lat="44.62964" lon="5.20525">
        <ele>1028.3</ele>
        <time>2015-10-17T12:50:14Z</time>
      </trkpt>
      <trkpt lat="44.62984" lon="5.20548">
        <ele>1026.8</ele>
        <time>2015-10-17T12:50:16Z</time>
      </trkpt>
      <trkpt lat="44.62993" lon="5.20562">
        <ele>1025.4</ele>
        <time>2015-10-17T12:50:17Z</time>
      </trkpt>
      <trkpt lat="44.63001" lon="5.20577">
        <ele>1024.4</ele>
        <time>2015-10-17T12:50:18Z</time>
      </trkpt>
      <trkpt lat="44.63008" lon="5.20592">
        <ele>1023.5</ele>
        <time>2015-10-17T12:50:19Z</time>
      </trkpt>
      <trkpt lat="44.63016" lon="5.20606">
        <ele>1022.5</ele>
        <time>2015-10-17T12:50:20Z</time>
      </trkpt>
      <trkpt lat="44.63024" lon="5.20619">
        <ele>1021.5</ele>
        <time>2015-10-17T12:50:21Z</time>
      </trkpt>
      <trkpt lat="44.6303" lon="5.20633">
        <ele>1020.6</ele>
        <time>2015-10-17T12:50:22Z</time>
      </trkpt>
      <trkpt lat="44.63033" lon="5.20648">
        <ele>1019.6</ele>
        <time>2015-10-17T12:50:23Z</time>
      </trkpt>
      <trkpt lat="44.63033" lon="5.20666">
        <ele>1018.7</ele>
        <time>2015-10-17T12:50:24Z</time>
      </trkpt>
      <trkpt lat="44.63032" lon="5.20684">
        <ele>1017.7</ele>
        <time>2015-10-17T12:50:25Z</time>
      </trkpt>
      <trkpt lat="44.63031" lon="5.20702">
        <ele>1016.3</ele>
        <time>2015-10-17T12:50:26Z</time>
      </trkpt>
      <trkpt lat="44.63032" lon="5.20721">
        <ele>1015.3</ele>
        <time>2015-10-17T12:50:27Z</time>
      </trkpt>
      <trkpt lat="44.63034" lon="5.2074">
        <ele>1014.3</ele>
        <time>2015-10-17T12:50:28Z</time>
      </trkpt>
      <trkpt lat="44.63037" lon="5.20758">
        <ele>1012.9</ele>
        <time>2015-10-17T12:50:29Z</time>
      </trkpt>
      <trkpt lat="44.63043" lon="5.20775">
        <ele>1011.9</ele>
        <time>2015-10-17T12:50:30Z</time>
      </trkpt>
      <trkpt lat="44.6305" lon="5.20792">
        <ele>1010.5</ele>
        <time>2015-10-17T12:50:31Z</time>
      </trkpt>
      <trkpt lat="44.63059" lon="5.20808">
        <ele>1009.5</ele>
        <time>2015-10-17T12:50:32Z</time>
      </trkpt>
      <trkpt lat="44.63069" lon="5.20823">
        <ele>1008.6</ele>
        <time>2015-10-17T12:50:33Z</time>
      </trkpt>
      <trkpt lat="44.63081" lon="5.20837">
        <ele>1007.1</ele>
        <time>2015-10-17T12:50:34Z</time>
      </trkpt>
      <trkpt lat="44.63094" lon="5.20849">
        <ele>1006.2</ele>
        <time>2015-10-17T12:50:35Z</time>
      </trkpt>
      <trkpt lat="44.63107" lon="5.20859">
        <ele>1005.2</ele>
        <time>2015-10-17T12:50:36Z</time>
      </trkpt>
      <trkpt lat="44.63121" lon="5.20868">
        <ele>1004.2</ele>
        <time>2015-10-17T12:50:37Z</time>
      </trkpt>
      <trkpt lat="44.63135" lon="5.20876">
        <ele>1002.3</ele>
        <time>2015-10-17T12:50:38Z</time>
      </trkpt>
      <trkpt lat="44.63148" lon="5.20888">
        <ele>1001.4</ele>
        <time>2015-10-17T12:50:39Z</time>
      </trkpt>
      <trkpt lat="44.6316" lon="5.20901">
        <ele>999.9</ele>
        <time>2015-10-17T12:50:40Z</time>
      </trkpt>
      <trkpt lat="44.63171" lon="5.20915">
        <ele>999</ele>
        <time>2015-10-17T12:50:41Z</time>
      </trkpt>
      <trkpt lat="44.63183" lon="5.20927">
        <ele>997.5</ele>
        <time>2015-10-17T12:50:42Z</time>
      </trkpt>
      <trkpt lat="44.63196" lon="5.20936">
        <ele>996.5</ele>
        <time>2015-10-17T12:50:43Z</time>
      </trkpt>
      <trkpt lat="44.6321" lon="5.20941">
        <ele>995.6</ele>
        <time>2015-10-17T12:50:44Z</time>
      </trkpt>
      <trkpt lat="44.63224" lon="5.20944">
        <ele>994.6</ele>
        <time>2015-10-17T12:50:45Z</time>
      </trkpt>
      <trkpt lat="44.63238" lon="5.20946">
        <ele>993.2</ele>
        <time>2015-10-17T12:50:46Z</time>
      </trkpt>
      <trkpt lat="44.63268" lon="5.20952">
        <ele>988.9</ele>
        <time>2015-10-17T12:50:51Z</time>
      </trkpt>
      <trkpt lat="44.63283" lon="5.20949">
        <ele>989.8</ele>
        <time>2015-10-17T12:51:11Z</time>
      </trkpt>
      <trkpt lat="44.63293" lon="5.20946">
        <ele>989.3</ele>
        <time>2015-10-17T12:51:12Z</time>
      </trkpt>
      <trkpt lat="44.63303" lon="5.20941">
        <ele>988.9</ele>
        <time>2015-10-17T12:51:13Z</time>
      </trkpt>
      <trkpt lat="44.63313" lon="5.20934">
        <ele>988.4</ele>
        <time>2015-10-17T12:51:14Z</time>
      </trkpt>
      <trkpt lat="44.63324" lon="5.20926">
        <ele>987.9</ele>
        <time>2015-10-17T12:51:15Z</time>
      </trkpt>
      <trkpt lat="44.63334" lon="5.20921">
        <ele>987.4</ele>
        <time>2015-10-17T12:51:16Z</time>
      </trkpt>
      <trkpt lat="44.63345" lon="5.20919">
        <ele>986.9</ele>
        <time>2015-10-17T12:51:17Z</time>
      </trkpt>
      <trkpt lat="44.63356" lon="5.20925">
        <ele>986</ele>
        <time>2015-10-17T12:51:18Z</time>
      </trkpt>
      <trkpt lat="44.63366" lon="5.20935">
        <ele>985</ele>
        <time>2015-10-17T12:51:19Z</time>
      </trkpt>
      <trkpt lat="44.63376" lon="5.20947">
        <ele>984.1</ele>
        <time>2015-10-17T12:51:20Z</time>
      </trkpt>
      <trkpt lat="44.63386" lon="5.20959">
        <ele>983.1</ele>
        <time>2015-10-17T12:51:21Z</time>
      </trkpt>
      <trkpt lat="44.63407" lon="5.20979">
        <ele>980.7</ele>
        <time>2015-10-17T12:51:23Z</time>
      </trkpt>
      <trkpt lat="44.63419" lon="5.20984">
        <ele>979.7</ele>
        <time>2015-10-17T12:51:24Z</time>
      </trkpt>
      <trkpt lat="44.63432" lon="5.20985">
        <ele>978.8</ele>
        <time>2015-10-17T12:51:25Z</time>
      </trkpt>
      <trkpt lat="44.63446" lon="5.20982">
        <ele>977.3</ele>
        <time>2015-10-17T12:51:26Z</time>
      </trkpt>
      <trkpt lat="44.63461" lon="5.20979">
        <ele>975.9</ele>
        <time>2015-10-17T12:51:27Z</time>
      </trkpt>
      <trkpt lat="44.63477" lon="5.20978">
        <ele>974.4</ele>
        <time>2015-10-17T12:51:28Z</time>
      </trkpt>
      <trkpt lat="44.63569" lon="5.20961">
        <ele>967.2</ele>
        <time>2015-10-17T12:51:34Z</time>
      </trkpt>
      <trkpt lat="44.63583" lon="5.20966">
        <ele>965.8</ele>
        <time>2015-10-17T12:51:35Z</time>
      </trkpt>
      <trkpt lat="44.63594" lon="5.20975">
        <ele>964.3</ele>
        <time>2015-10-17T12:51:36Z</time>
      </trkpt>
      <trkpt lat="44.63605" lon="5.20986">
        <ele>963.4</ele>
        <time>2015-10-17T12:51:37Z</time>
      </trkpt>
      <trkpt lat="44.63616" lon="5.20994">
        <ele>961.9</ele>
        <time>2015-10-17T12:51:38Z</time>
      </trkpt>
      <trkpt lat="44.6363" lon="5.20997">
        <ele>960.5</ele>
        <time>2015-10-17T12:51:39Z</time>
      </trkpt>
      <trkpt lat="44.63644" lon="5.20997">
        <ele>959.5</ele>
        <time>2015-10-17T12:51:40Z</time>
      </trkpt>
      <trkpt lat="44.63659" lon="5.20994">
        <ele>958.1</ele>
        <time>2015-10-17T12:51:41Z</time>
      </trkpt>
      <trkpt lat="44.6369" lon="5.20993">
        <ele>956.2</ele>
        <time>2015-10-17T12:51:43Z</time>
      </trkpt>
      <trkpt lat="44.63705" lon="5.20997">
        <ele>955.2</ele>
        <time>2015-10-17T12:51:44Z</time>
      </trkpt>
      <trkpt lat="44.63721" lon="5.21004">
        <ele>953.8</ele>
        <time>2015-10-17T12:51:45Z</time>
      </trkpt>
      <trkpt lat="44.63791" lon="5.2104">
        <ele>947</ele>
        <time>2015-10-17T12:51:50Z</time>
      </trkpt>
      <trkpt lat="44.63803" lon="5.21038">
        <ele>946.1</ele>
        <time>2015-10-17T12:51:51Z</time>
      </trkpt>
      <trkpt lat="44.63815" lon="5.21034">
        <ele>944.6</ele>
        <time>2015-10-17T12:51:52Z</time>
      </trkpt>
      <trkpt lat="44.63825" lon="5.21024">
        <ele>943.7</ele>
        <time>2015-10-17T12:51:53Z</time>
      </trkpt>
      <trkpt lat="44.63835" lon="5.21015">
        <ele>942.7</ele>
        <time>2015-10-17T12:51:54Z</time>
      </trkpt>
      <trkpt lat="44.63844" lon="5.21007">
        <ele>942.2</ele>
        <time>2015-10-17T12:51:55Z</time>
      </trkpt>
      <trkpt lat="44.63855" lon="5.21002">
        <ele>941.3</ele>
        <time>2015-10-17T12:51:56Z</time>
      </trkpt>
      <trkpt lat="44.63864" lon="5.21002">
        <ele>940.3</ele>
        <time>2015-10-17T12:51:57Z</time>
      </trkpt>
      <trkpt lat="44.63873" lon="5.21008">
        <ele>939.4</ele>
        <time>2015-10-17T12:51:58Z</time>
      </trkpt>
      <trkpt lat="44.6388" lon="5.21018">
        <ele>937.9</ele>
        <time>2015-10-17T12:51:59Z</time>
      </trkpt>
      <trkpt lat="44.63887" lon="5.21028">
        <ele>937.4</ele>
        <time>2015-10-17T12:52:00Z</time>
      </trkpt>
      <trkpt lat="44.63896" lon="5.21036">
        <ele>936.5</ele>
        <time>2015-10-17T12:52:01Z</time>
      </trkpt>
      <trkpt lat="44.63905" lon="5.21042">
        <ele>935.5</ele>
        <time>2015-10-17T12:52:02Z</time>
      </trkpt>
      <trkpt lat="44.63916" lon="5.21044">
        <ele>934.1</ele>
        <time>2015-10-17T12:52:03Z</time>
      </trkpt>
      <trkpt lat="44.63997" lon="5.21044">
        <ele>926.4</ele>
        <time>2015-10-17T12:52:10Z</time>
      </trkpt>
      <trkpt lat="44.64008" lon="5.21048">
        <ele>924.9</ele>
        <time>2015-10-17T12:52:11Z</time>
      </trkpt>
      <trkpt lat="44.6402" lon="5.21055">
        <ele>924</ele>
        <time>2015-10-17T12:52:12Z</time>
      </trkpt>
      <trkpt lat="44.64033" lon="5.21062">
        <ele>923.5</ele>
        <time>2015-10-17T12:52:13Z</time>
      </trkpt>
      <trkpt lat="44.64047" lon="5.21066">
        <ele>922.5</ele>
        <time>2015-10-17T12:52:14Z</time>
      </trkpt>
      <trkpt lat="44.64061" lon="5.2107">
        <ele>921.1</ele>
        <time>2015-10-17T12:52:15Z</time>
      </trkpt>
      <trkpt lat="44.64101" lon="5.21075">
        <ele>917.7</ele>
        <time>2015-10-17T12:52:18Z</time>
      </trkpt>
      <trkpt lat="44.64113" lon="5.21071">
        <ele>916.3</ele>
        <time>2015-10-17T12:52:19Z</time>
      </trkpt>
      <trkpt lat="44.64125" lon="5.21064">
        <ele>914.8</ele>
        <time>2015-10-17T12:52:20Z</time>
      </trkpt>
      <trkpt lat="44.64149" lon="5.2105">
        <ele>912.4</ele>
        <time>2015-10-17T12:52:22Z</time>
      </trkpt>
      <trkpt lat="44.64162" lon="5.21047">
        <ele>911.5</ele>
        <time>2015-10-17T12:52:23Z</time>
      </trkpt>
      <trkpt lat="44.64174" lon="5.21046">
        <ele>910.5</ele>
        <time>2015-10-17T12:52:24Z</time>
      </trkpt>
      <trkpt lat="44.64183" lon="5.2105">
        <ele>910</ele>
        <time>2015-10-17T12:52:25Z</time>
      </trkpt>
      <trkpt lat="44.64189" lon="5.2106">
        <ele>908.6</ele>
        <time>2015-10-17T12:52:26Z</time>
      </trkpt>
      <trkpt lat="44.64194" lon="5.21074">
        <ele>908.6</ele>
        <time>2015-10-17T12:52:27Z</time>
      </trkpt>
      <trkpt lat="44.64198" lon="5.21089">
        <ele>908.6</ele>
        <time>2015-10-17T12:52:28Z</time>
      </trkpt>
      <trkpt lat="44.64203" lon="5.21103">
        <ele>907.6</ele>
        <time>2015-10-17T12:52:29Z</time>
      </trkpt>
      <trkpt lat="44.64211" lon="5.21116">
        <ele>907.1</ele>
        <time>2015-10-17T12:52:30Z</time>
      </trkpt>
      <trkpt lat="44.6422" lon="5.21127">
        <ele>907.1</ele>
        <time>2015-10-17T12:52:31Z</time>
      </trkpt>
      <trkpt lat="44.64231" lon="5.21135">
        <ele>905.7</ele>
        <time>2015-10-17T12:52:32Z</time>
      </trkpt>
      <trkpt lat="44.64243" lon="5.2114">
        <ele>905.2</ele>
        <time>2015-10-17T12:52:33Z</time>
      </trkpt>
      <trkpt lat="44.64255" lon="5.21144">
        <ele>904.3</ele>
        <time>2015-10-17T12:52:34Z</time>
      </trkpt>
      <trkpt lat="44.64266" lon="5.21147">
        <ele>903.3</ele>
        <time>2015-10-17T12:52:35Z</time>
      </trkpt>
      <trkpt lat="44.64276" lon="5.21154">
        <ele>902.3</ele>
        <time>2015-10-17T12:52:36Z</time>
      </trkpt>
      <trkpt lat="44.64285" lon="5.21163">
        <ele>901.9</ele>
        <time>2015-10-17T12:52:37Z</time>
      </trkpt>
      <trkpt lat="44.64292" lon="5.21175">
        <ele>900.4</ele>
        <time>2015-10-17T12:52:38Z</time>
      </trkpt>
      <trkpt lat="44.64297" lon="5.21189">
        <ele>899.5</ele>
        <time>2015-10-17T12:52:39Z</time>
      </trkpt>
      <trkpt lat="44.64301" lon="5.21205">
        <ele>899</ele>
        <time>2015-10-17T12:52:40Z</time>
      </trkpt>
      <trkpt lat="44.64305" lon="5.21222">
        <ele>898</ele>
        <time>2015-10-17T12:52:41Z</time>
      </trkpt>
      <trkpt lat="44.64349" lon="5.21349">
        <ele>890.3</ele>
        <time>2015-10-17T12:52:49Z</time>
      </trkpt>
      <trkpt lat="44.64388" lon="5.21467">
        <ele>884.1</ele>
        <time>2015-10-17T12:52:56Z</time>
      </trkpt>
      <trkpt lat="44.64396" lon="5.2148">
        <ele>883.1</ele>
        <time>2015-10-17T12:52:57Z</time>
      </trkpt>
      <trkpt lat="44.64406" lon="5.2149">
        <ele>882.2</ele>
        <time>2015-10-17T12:52:58Z</time>
      </trkpt>
      <trkpt lat="44.64415" lon="5.21502">
        <ele>881.7</ele>
        <time>2015-10-17T12:52:59Z</time>
      </trkpt>
      <trkpt lat="44.64422" lon="5.21515">
        <ele>880.7</ele>
        <time>2015-10-17T12:53:00Z</time>
      </trkpt>
      <trkpt lat="44.64427" lon="5.2153">
        <ele>879.7</ele>
        <time>2015-10-17T12:53:01Z</time>
      </trkpt>
      <trkpt lat="44.64429" lon="5.21546">
        <ele>879.3</ele>
        <time>2015-10-17T12:53:02Z</time>
      </trkpt>
      <trkpt lat="44.6443" lon="5.21563">
        <ele>878.3</ele>
        <time>2015-10-17T12:53:03Z</time>
      </trkpt>
      <trkpt lat="44.64432" lon="5.21579">
        <ele>877.3</ele>
        <time>2015-10-17T12:53:04Z</time>
      </trkpt>
      <trkpt lat="44.64437" lon="5.21597">
        <ele>876.4</ele>
        <time>2015-10-17T12:53:05Z</time>
      </trkpt>
      <trkpt lat="44.64444" lon="5.21613">
        <ele>874.9</ele>
        <time>2015-10-17T12:53:06Z</time>
      </trkpt>
      <trkpt lat="44.64466" lon="5.2166">
        <ele>872.1</ele>
        <time>2015-10-17T12:53:09Z</time>
      </trkpt>
      <trkpt lat="44.64471" lon="5.21676">
        <ele>870.6</ele>
        <time>2015-10-17T12:53:10Z</time>
      </trkpt>
      <trkpt lat="44.64474" lon="5.21695">
        <ele>869.2</ele>
        <time>2015-10-17T12:53:11Z</time>
      </trkpt>
      <trkpt lat="44.64496" lon="5.2181">
        <ele>862</ele>
        <time>2015-10-17T12:53:18Z</time>
      </trkpt>
      <trkpt lat="44.64501" lon="5.21821">
        <ele>861</ele>
        <time>2015-10-17T12:53:19Z</time>
      </trkpt>
      <trkpt lat="44.64509" lon="5.21829">
        <ele>859.6</ele>
        <time>2015-10-17T12:53:20Z</time>
      </trkpt>
      <trkpt lat="44.64518" lon="5.21833">
        <ele>857.6</ele>
        <time>2015-10-17T12:53:21Z</time>
      </trkpt>
      <trkpt lat="44.64528" lon="5.21834">
        <ele>856.2</ele>
        <time>2015-10-17T12:53:22Z</time>
      </trkpt>
      <trkpt lat="44.64538" lon="5.21832">
        <ele>855.2</ele>
        <time>2015-10-17T12:53:23Z</time>
      </trkpt>
      <trkpt lat="44.64549" lon="5.21827">
        <ele>854.3</ele>
        <time>2015-10-17T12:53:24Z</time>
      </trkpt>
      <trkpt lat="44.6456" lon="5.2182">
        <ele>852.8</ele>
        <time>2015-10-17T12:53:25Z</time>
      </trkpt>
      <trkpt lat="44.64571" lon="5.21809">
        <ele>851.9</ele>
        <time>2015-10-17T12:53:26Z</time>
      </trkpt>
      <trkpt lat="44.64584" lon="5.21788">
        <ele>851.4</ele>
        <time>2015-10-17T12:53:27Z</time>
      </trkpt>
      <trkpt lat="44.64595" lon="5.21765">
        <ele>850.4</ele>
        <time>2015-10-17T12:53:28Z</time>
      </trkpt>
      <trkpt lat="44.64609" lon="5.21742">
        <ele>849.9</ele>
        <time>2015-10-17T12:53:29Z</time>
      </trkpt>
      <trkpt lat="44.64699" lon="5.21612">
        <ele>844.2</ele>
        <time>2015-10-17T12:53:35Z</time>
      </trkpt>
      <trkpt lat="44.64744" lon="5.21531">
        <ele>840.8</ele>
        <time>2015-10-17T12:53:39Z</time>
      </trkpt>
      <trkpt lat="44.64756" lon="5.21517">
        <ele>840.3</ele>
        <time>2015-10-17T12:53:40Z</time>
      </trkpt>
      <trkpt lat="44.6477" lon="5.21504">
        <ele>839.4</ele>
        <time>2015-10-17T12:53:41Z</time>
      </trkpt>
      <trkpt lat="44.64787" lon="5.21492">
        <ele>838.9</ele>
        <time>2015-10-17T12:53:42Z</time>
      </trkpt>
      <trkpt lat="44.64805" lon="5.21481">
        <ele>837.9</ele>
        <time>2015-10-17T12:53:43Z</time>
      </trkpt>
      <trkpt lat="44.64887" lon="5.21422">
        <ele>833.1</ele>
        <time>2015-10-17T12:53:48Z</time>
      </trkpt>
      <trkpt lat="44.649" lon="5.21406">
        <ele>832.2</ele>
        <time>2015-10-17T12:53:49Z</time>
      </trkpt>
      <trkpt lat="44.64913" lon="5.21386">
        <ele>830.2</ele>
        <time>2015-10-17T12:53:50Z</time>
      </trkpt>
      <trkpt lat="44.64924" lon="5.21362">
        <ele>828.8</ele>
        <time>2015-10-17T12:53:51Z</time>
      </trkpt>
      <trkpt lat="44.64935" lon="5.21338">
        <ele>827.4</ele>
        <time>2015-10-17T12:53:52Z</time>
      </trkpt>
      <trkpt lat="44.64944" lon="5.21314">
        <ele>825.4</ele>
        <time>2015-10-17T12:53:53Z</time>
      </trkpt>
      <trkpt lat="44.64989" lon="5.21228">
        <ele>819.2</ele>
        <time>2015-10-17T12:53:57Z</time>
      </trkpt>
      <trkpt lat="44.65017" lon="5.21185">
        <ele>814.4</ele>
        <time>2015-10-17T12:54:00Z</time>
      </trkpt>
      <trkpt lat="44.65021" lon="5.21171">
        <ele>812.5</ele>
        <time>2015-10-17T12:54:01Z</time>
      </trkpt>
      <trkpt lat="44.6502" lon="5.21158">
        <ele>811</ele>
        <time>2015-10-17T12:54:02Z</time>
      </trkpt>
      <trkpt lat="44.65019" lon="5.21146">
        <ele>809.6</ele>
        <time>2015-10-17T12:54:03Z</time>
      </trkpt>
      <trkpt lat="44.65015" lon="5.21136">
        <ele>809.1</ele>
        <time>2015-10-17T12:54:04Z</time>
      </trkpt>
      <trkpt lat="44.65016" lon="5.21129">
        <ele>809.1</ele>
        <time>2015-10-17T12:54:05Z</time>
      </trkpt>
      <trkpt lat="44.65019" lon="5.2113">
        <ele>808.1</ele>
        <time>2015-10-17T12:54:06Z</time>
      </trkpt>
      <trkpt lat="44.65023" lon="5.21134">
        <ele>806.7</ele>
        <time>2015-10-17T12:54:07Z</time>
      </trkpt>
      <trkpt lat="44.65027" lon="5.21144">
        <ele>805.2</ele>
        <time>2015-10-17T12:54:08Z</time>
      </trkpt>
      <trkpt lat="44.6503" lon="5.21162">
        <ele>803.3</ele>
        <time>2015-10-17T12:54:09Z</time>
      </trkpt>
      <trkpt lat="44.65033" lon="5.21182">
        <ele>802.4</ele>
        <time>2015-10-17T12:54:10Z</time>
      </trkpt>
      <trkpt lat="44.65056" lon="5.21334">
        <ele>792.3</ele>
        <time>2015-10-17T12:54:17Z</time>
      </trkpt>
      <trkpt lat="44.65057" lon="5.21349">
        <ele>791.3</ele>
        <time>2015-10-17T12:54:18Z</time>
      </trkpt>
      <trkpt lat="44.65058" lon="5.2136">
        <ele>790.3</ele>
        <time>2015-10-17T12:54:19Z</time>
      </trkpt>
      <trkpt lat="44.6506" lon="5.21369">
        <ele>789.9</ele>
        <time>2015-10-17T12:54:20Z</time>
      </trkpt>
      <trkpt lat="44.65066" lon="5.21372">
        <ele>788.9</ele>
        <time>2015-10-17T12:54:21Z</time>
      </trkpt>
      <trkpt lat="44.65073" lon="5.2137">
        <ele>786.5</ele>
        <time>2015-10-17T12:54:22Z</time>
      </trkpt>
      <trkpt lat="44.65081" lon="5.21366">
        <ele>785.1</ele>
        <time>2015-10-17T12:54:23Z</time>
      </trkpt>
      <trkpt lat="44.6509" lon="5.21355">
        <ele>784.1</ele>
        <time>2015-10-17T12:54:24Z</time>
      </trkpt>
      <trkpt lat="44.65096" lon="5.21341">
        <ele>783.6</ele>
        <time>2015-10-17T12:54:25Z</time>
      </trkpt>
      <trkpt lat="44.65101" lon="5.21325">
        <ele>782.7</ele>
        <time>2015-10-17T12:54:26Z</time>
      </trkpt>
      <trkpt lat="44.65103" lon="5.21308">
        <ele>781.2</ele>
        <time>2015-10-17T12:54:27Z</time>
      </trkpt>
      <trkpt lat="44.65106" lon="5.21292">
        <ele>780.3</ele>
        <time>2015-10-17T12:54:28Z</time>
      </trkpt>
      <trkpt lat="44.65111" lon="5.21277">
        <ele>778.8</ele>
        <time>2015-10-17T12:54:29Z</time>
      </trkpt>
      <trkpt lat="44.65117" lon="5.21262">
        <ele>778.8</ele>
        <time>2015-10-17T12:54:30Z</time>
      </trkpt>
      <trkpt lat="44.65125" lon="5.21251">
        <ele>777.8</ele>
        <time>2015-10-17T12:54:31Z</time>
      </trkpt>
      <trkpt lat="44.65133" lon="5.21238">
        <ele>776.4</ele>
        <time>2015-10-17T12:54:32Z</time>
      </trkpt>
      <trkpt lat="44.65139" lon="5.21224">
        <ele>775</ele>
        <time>2015-10-17T12:54:33Z</time>
      </trkpt>
      <trkpt lat="44.65144" lon="5.21207">
        <ele>773.5</ele>
        <time>2015-10-17T12:54:34Z</time>
      </trkpt>
      <trkpt lat="44.65149" lon="5.21188">
        <ele>771.6</ele>
        <time>2015-10-17T12:54:35Z</time>
      </trkpt>
      <trkpt lat="44.65155" lon="5.21169">
        <ele>770.2</ele>
        <time>2015-10-17T12:54:36Z</time>
      </trkpt>
      <trkpt lat="44.65165" lon="5.21151">
        <ele>769.2</ele>
        <time>2015-10-17T12:54:37Z</time>
      </trkpt>
      <trkpt lat="44.65176" lon="5.21135">
        <ele>767.8</ele>
        <time>2015-10-17T12:54:38Z</time>
      </trkpt>
      <trkpt lat="44.65188" lon="5.2112">
        <ele>766.8</ele>
        <time>2015-10-17T12:54:39Z</time>
      </trkpt>
      <trkpt lat="44.65199" lon="5.21108">
        <ele>765.8</ele>
        <time>2015-10-17T12:54:40Z</time>
      </trkpt>
      <trkpt lat="44.65213" lon="5.21087">
        <ele>764.4</ele>
        <time>2015-10-17T12:54:42Z</time>
      </trkpt>
      <trkpt lat="44.65216" lon="5.21077">
        <ele>763.4</ele>
        <time>2015-10-17T12:54:43Z</time>
      </trkpt>
      <trkpt lat="44.65211" lon="5.21071">
        <ele>761.5</ele>
        <time>2015-10-17T12:54:44Z</time>
      </trkpt>
      <trkpt lat="44.65206" lon="5.2106">
        <ele>761</ele>
        <time>2015-10-17T12:54:45Z</time>
      </trkpt>
      <trkpt lat="44.65197" lon="5.21053">
        <ele>760.1</ele>
        <time>2015-10-17T12:54:46Z</time>
      </trkpt>
      <trkpt lat="44.65184" lon="5.21049">
        <ele>760.1</ele>
        <time>2015-10-17T12:54:47Z</time>
      </trkpt>
      <trkpt lat="44.65175" lon="5.21042">
        <ele>759.6</ele>
        <time>2015-10-17T12:54:48Z</time>
      </trkpt>
      <trkpt lat="44.65168" lon="5.21031">
        <ele>758.1</ele>
        <time>2015-10-17T12:54:49Z</time>
      </trkpt>
      <trkpt lat="44.65164" lon="5.21018">
        <ele>756.7</ele>
        <time>2015-10-17T12:54:50Z</time>
      </trkpt>
      <trkpt lat="44.65163" lon="5.21001">
        <ele>756.2</ele>
        <time>2015-10-17T12:54:51Z</time>
      </trkpt>
      <trkpt lat="44.65169" lon="5.20986">
        <ele>756.2</ele>
        <time>2015-10-17T12:54:52Z</time>
      </trkpt>
      <trkpt lat="44.65179" lon="5.20971">
        <ele>756.7</ele>
        <time>2015-10-17T12:54:53Z</time>
      </trkpt>
      <trkpt lat="44.65189" lon="5.20957">
        <ele>757.2</ele>
        <time>2015-10-17T12:54:54Z</time>
      </trkpt>
      <trkpt lat="44.65202" lon="5.20945">
        <ele>756.7</ele>
        <time>2015-10-17T12:54:55Z</time>
      </trkpt>
      <trkpt lat="44.65216" lon="5.20935">
        <ele>756.2</ele>
        <time>2015-10-17T12:54:56Z</time>
      </trkpt>
      <trkpt lat="44.65229" lon="5.2093">
        <ele>755.7</ele>
        <time>2015-10-17T12:54:57Z</time>
      </trkpt>
      <trkpt lat="44.65243" lon="5.20925">
        <ele>755.3</ele>
        <time>2015-10-17T12:54:58Z</time>
      </trkpt>
      <trkpt lat="44.65255" lon="5.20918">
        <ele>754.3</ele>
        <time>2015-10-17T12:54:59Z</time>
      </trkpt>
      <trkpt lat="44.65267" lon="5.20911">
        <ele>752.9</ele>
        <time>2015-10-17T12:55:00Z</time>
      </trkpt>
      <trkpt lat="44.65279" lon="5.20902">
        <ele>751.9</ele>
        <time>2015-10-17T12:55:01Z</time>
      </trkpt>
      <trkpt lat="44.65291" lon="5.20899">
        <ele>751.4</ele>
        <time>2015-10-17T12:55:02Z</time>
      </trkpt>
      <trkpt lat="44.65303" lon="5.20899">
        <ele>750.5</ele>
        <time>2015-10-17T12:55:03Z</time>
      </trkpt>
      <trkpt lat="44.65315" lon="5.20899">
        <ele>749.5</ele>
        <time>2015-10-17T12:55:04Z</time>
      </trkpt>
      <trkpt lat="44.65327" lon="5.20897">
        <ele>748.5</ele>
        <time>2015-10-17T12:55:05Z</time>
      </trkpt>
      <trkpt lat="44.6534" lon="5.20892">
        <ele>747.6</ele>
        <time>2015-10-17T12:55:06Z</time>
      </trkpt>
      <trkpt lat="44.65352" lon="5.20884">
        <ele>746.1</ele>
        <time>2015-10-17T12:55:07Z</time>
      </trkpt>
      <trkpt lat="44.65363" lon="5.20875">
        <ele>745.2</ele>
        <time>2015-10-17T12:55:08Z</time>
      </trkpt>
      <trkpt lat="44.65371" lon="5.20864">
        <ele>743.7</ele>
        <time>2015-10-17T12:55:09Z</time>
      </trkpt>
      <trkpt lat="44.65378" lon="5.20851">
        <ele>742.3</ele>
        <time>2015-10-17T12:55:10Z</time>
      </trkpt>
      <trkpt lat="44.65382" lon="5.20836">
        <ele>741.3</ele>
        <time>2015-10-17T12:55:11Z</time>
      </trkpt>
      <trkpt lat="44.65385" lon="5.20821">
        <ele>740.4</ele>
        <time>2015-10-17T12:55:12Z</time>
      </trkpt>
      <trkpt lat="44.6541" lon="5.20715">
        <ele>732.2</ele>
        <time>2015-10-17T12:55:19Z</time>
      </trkpt>
      <trkpt lat="44.65417" lon="5.20699">
        <ele>732.2</ele>
        <time>2015-10-17T12:55:20Z</time>
      </trkpt>
      <trkpt lat="44.65426" lon="5.20685">
        <ele>731.7</ele>
        <time>2015-10-17T12:55:21Z</time>
      </trkpt>
      <trkpt lat="44.65435" lon="5.20671">
        <ele>731.7</ele>
        <time>2015-10-17T12:55:22Z</time>
      </trkpt>
      <trkpt lat="44.65448" lon="5.20659">
        <ele>731.7</ele>
        <time>2015-10-17T12:55:23Z</time>
      </trkpt>
      <trkpt lat="44.65459" lon="5.20648">
        <ele>731.2</ele>
        <time>2015-10-17T12:55:24Z</time>
      </trkpt>
      <trkpt lat="44.65469" lon="5.20635">
        <ele>730.3</ele>
        <time>2015-10-17T12:55:25Z</time>
      </trkpt>
      <trkpt lat="44.65478" lon="5.20619">
        <ele>729.8</ele>
        <time>2015-10-17T12:55:26Z</time>
      </trkpt>
      <trkpt lat="44.65487" lon="5.20601">
        <ele>729.3</ele>
        <time>2015-10-17T12:55:27Z</time>
      </trkpt>
      <trkpt lat="44.65495" lon="5.20581">
        <ele>728.3</ele>
        <time>2015-10-17T12:55:28Z</time>
      </trkpt>
      <trkpt lat="44.65519" lon="5.20522">
        <ele>726.4</ele>
        <time>2015-10-17T12:55:31Z</time>
      </trkpt>
      <trkpt lat="44.65531" lon="5.20506">
        <ele>725.9</ele>
        <time>2015-10-17T12:55:32Z</time>
      </trkpt>
      <trkpt lat="44.65545" lon="5.20491">
        <ele>724.5</ele>
        <time>2015-10-17T12:55:33Z</time>
      </trkpt>
      <trkpt lat="44.65672" lon="5.20394">
        <ele>716.3</ele>
        <time>2015-10-17T12:55:41Z</time>
      </trkpt>
      <trkpt lat="44.65741" lon="5.20355">
        <ele>711.5</ele>
        <time>2015-10-17T12:55:46Z</time>
      </trkpt>
      <trkpt lat="44.65751" lon="5.20346">
        <ele>710.6</ele>
        <time>2015-10-17T12:55:47Z</time>
      </trkpt>
      <trkpt lat="44.65756" lon="5.20337">
        <ele>709.1</ele>
        <time>2015-10-17T12:55:48Z</time>
      </trkpt>
      <trkpt lat="44.6576" lon="5.20324">
        <ele>709.1</ele>
        <time>2015-10-17T12:55:49Z</time>
      </trkpt>
      <trkpt lat="44.65763" lon="5.2031">
        <ele>709.1</ele>
        <time>2015-10-17T12:55:50Z</time>
      </trkpt>
      <trkpt lat="44.65767" lon="5.20296">
        <ele>709.1</ele>
        <time>2015-10-17T12:55:51Z</time>
      </trkpt>
      <trkpt lat="44.65773" lon="5.20283">
        <ele>708.6</ele>
        <time>2015-10-17T12:55:52Z</time>
      </trkpt>
      <trkpt lat="44.65779" lon="5.20272">
        <ele>708.6</ele>
        <time>2015-10-17T12:55:53Z</time>
      </trkpt>
      <trkpt lat="44.65787" lon="5.20263">
        <ele>708.2</ele>
        <time>2015-10-17T12:55:54Z</time>
      </trkpt>
      <trkpt lat="44.65796" lon="5.20257">
        <ele>707.7</ele>
        <time>2015-10-17T12:55:55Z</time>
      </trkpt>
      <trkpt lat="44.65807" lon="5.20253">
        <ele>707.2</ele>
        <time>2015-10-17T12:55:56Z</time>
      </trkpt>
      <trkpt lat="44.6582" lon="5.20249">
        <ele>706.7</ele>
        <time>2015-10-17T12:55:57Z</time>
      </trkpt>
      <trkpt lat="44.65836" lon="5.2024">
        <ele>706.2</ele>
        <time>2015-10-17T12:55:58Z</time>
      </trkpt>
      <trkpt lat="44.65916" lon="5.20186">
        <ele>702.4</ele>
        <time>2015-10-17T12:56:03Z</time>
      </trkpt>
      <trkpt lat="44.65929" lon="5.20171">
        <ele>701.9</ele>
        <time>2015-10-17T12:56:04Z</time>
      </trkpt>
      <trkpt lat="44.65942" lon="5.20152">
        <ele>701.4</ele>
        <time>2015-10-17T12:56:05Z</time>
      </trkpt>
      <trkpt lat="44.66034" lon="5.20041">
        <ele>697.1</ele>
        <time>2015-10-17T12:56:12Z</time>
      </trkpt>
      <trkpt lat="44.66044" lon="5.20029">
        <ele>696.6</ele>
        <time>2015-10-17T12:56:13Z</time>
      </trkpt>
      <trkpt lat="44.66052" lon="5.20015">
        <ele>696.1</ele>
        <time>2015-10-17T12:56:14Z</time>
      </trkpt>
      <trkpt lat="44.66058" lon="5.2">
        <ele>695.2</ele>
        <time>2015-10-17T12:56:15Z</time>
      </trkpt>
      <trkpt lat="44.66062" lon="5.19984">
        <ele>693.7</ele>
        <time>2015-10-17T12:56:16Z</time>
      </trkpt>
      <trkpt lat="44.66067" lon="5.19968">
        <ele>693.3</ele>
        <time>2015-10-17T12:56:17Z</time>
      </trkpt>
      <trkpt lat="44.66073" lon="5.19954">
        <ele>692.3</ele>
        <time>2015-10-17T12:56:18Z</time>
      </trkpt>
      <trkpt lat="44.66078" lon="5.19941">
        <ele>691.3</ele>
        <time>2015-10-17T12:56:19Z</time>
      </trkpt>
      <trkpt lat="44.66081" lon="5.19927">
        <ele>689.9</ele>
        <time>2015-10-17T12:56:20Z</time>
      </trkpt>
      <trkpt lat="44.66083" lon="5.19911">
        <ele>689.4</ele>
        <time>2015-10-17T12:56:21Z</time>
      </trkpt>
      <trkpt lat="44.66082" lon="5.19894">
        <ele>688</ele>
        <time>2015-10-17T12:56:22Z</time>
      </trkpt>
      <trkpt lat="44.66078" lon="5.19873">
        <ele>686.5</ele>
        <time>2015-10-17T12:56:23Z</time>
      </trkpt>
      <trkpt lat="44.66073" lon="5.1985">
        <ele>685.1</ele>
        <time>2015-10-17T12:56:24Z</time>
      </trkpt>
      <trkpt lat="44.66067" lon="5.19825">
        <ele>683.6</ele>
        <time>2015-10-17T12:56:25Z</time>
      </trkpt>
      <trkpt lat="44.66035" lon="5.19711">
        <ele>673.5</ele>
        <time>2015-10-17T12:56:30Z</time>
      </trkpt>
      <trkpt lat="44.65981" lon="5.19547">
        <ele>668.3</ele>
        <time>2015-10-17T12:56:38Z</time>
      </trkpt>
      <trkpt lat="44.65962" lon="5.19494">
        <ele>665.4</ele>
        <time>2015-10-17T12:56:41Z</time>
      </trkpt>
      <trkpt lat="44.65955" lon="5.19482">
        <ele>664.4</ele>
        <time>2015-10-17T12:56:42Z</time>
      </trkpt>
      <trkpt lat="44.65949" lon="5.19471">
        <ele>663.5</ele>
        <time>2015-10-17T12:56:43Z</time>
      </trkpt>
      <trkpt lat="44.65946" lon="5.1946">
        <ele>662.5</ele>
        <time>2015-10-17T12:56:44Z</time>
      </trkpt>
      <trkpt lat="44.65944" lon="5.19448">
        <ele>662</ele>
        <time>2015-10-17T12:56:45Z</time>
      </trkpt>
      <trkpt lat="44.65945" lon="5.19436">
        <ele>661.5</ele>
        <time>2015-10-17T12:56:46Z</time>
      </trkpt>
      <trkpt lat="44.6595" lon="5.19425">
        <ele>661</ele>
        <time>2015-10-17T12:56:47Z</time>
      </trkpt>
      <trkpt lat="44.65955" lon="5.19414">
        <ele>661</ele>
        <time>2015-10-17T12:56:48Z</time>
      </trkpt>
      <trkpt lat="44.6596" lon="5.19403">
        <ele>660.6</ele>
        <time>2015-10-17T12:56:49Z</time>
      </trkpt>
      <trkpt lat="44.65964" lon="5.19391">
        <ele>660.1</ele>
        <time>2015-10-17T12:56:50Z</time>
      </trkpt>
      <trkpt lat="44.65966" lon="5.19377">
        <ele>659.1</ele>
        <time>2015-10-17T12:56:51Z</time>
      </trkpt>
      <trkpt lat="44.65969" lon="5.19362">
        <ele>659.1</ele>
        <time>2015-10-17T12:56:52Z</time>
      </trkpt>
      <trkpt lat="44.65973" lon="5.19346">
        <ele>658.6</ele>
        <time>2015-10-17T12:56:53Z</time>
      </trkpt>
      <trkpt lat="44.65979" lon="5.19333">
        <ele>658.2</ele>
        <time>2015-10-17T12:56:54Z</time>
      </trkpt>
      <trkpt lat="44.65988" lon="5.19322">
        <ele>657.7</ele>
        <time>2015-10-17T12:56:55Z</time>
      </trkpt>
      <trkpt lat="44.65998" lon="5.19312">
        <ele>657.7</ele>
        <time>2015-10-17T12:56:56Z</time>
      </trkpt>
      <trkpt lat="44.66009" lon="5.19301">
        <ele>657.2</ele>
        <time>2015-10-17T12:56:57Z</time>
      </trkpt>
      <trkpt lat="44.66056" lon="5.19246">
        <ele>655.3</ele>
        <time>2015-10-17T12:57:01Z</time>
      </trkpt>
      <trkpt lat="44.66069" lon="5.19237">
        <ele>654.8</ele>
        <time>2015-10-17T12:57:02Z</time>
      </trkpt>
      <trkpt lat="44.66082" lon="5.19232">
        <ele>654.8</ele>
        <time>2015-10-17T12:57:03Z</time>
      </trkpt>
      <trkpt lat="44.66109" lon="5.19222">
        <ele>654.3</ele>
        <time>2015-10-17T12:57:05Z</time>
      </trkpt>
      <trkpt lat="44.66122" lon="5.19213">
        <ele>654.3</ele>
        <time>2015-10-17T12:57:06Z</time>
      </trkpt>
      <trkpt lat="44.66135" lon="5.19202">
        <ele>653.8</ele>
        <time>2015-10-17T12:57:07Z</time>
      </trkpt>
      <trkpt lat="44.66147" lon="5.19187">
        <ele>653.4</ele>
        <time>2015-10-17T12:57:08Z</time>
      </trkpt>
      <trkpt lat="44.66159" lon="5.19172">
        <ele>652.4</ele>
        <time>2015-10-17T12:57:09Z</time>
      </trkpt>
      <trkpt lat="44.66184" lon="5.1914">
        <ele>651.4</ele>
        <time>2015-10-17T12:57:11Z</time>
      </trkpt>
      <trkpt lat="44.66197" lon="5.19128">
        <ele>650.5</ele>
        <time>2015-10-17T12:57:12Z</time>
      </trkpt>
      <trkpt lat="44.66211" lon="5.19118">
        <ele>650</ele>
        <time>2015-10-17T12:57:13Z</time>
      </trkpt>
      <trkpt lat="44.66274" lon="5.1909">
        <ele>647.6</ele>
        <time>2015-10-17T12:57:19Z</time>
      </trkpt>
      <trkpt lat="44.66291" lon="5.19082">
        <ele>647.6</ele>
        <time>2015-10-17T12:57:22Z</time>
      </trkpt>
      <trkpt lat="44.66294" lon="5.19079">
        <ele>647.6</ele>
        <time>2015-10-17T12:57:23Z</time>
      </trkpt>
      <trkpt lat="44.66307" lon="5.19061">
        <ele>645.2</ele>
        <time>2015-10-17T12:57:32Z</time>
      </trkpt>
      <trkpt lat="44.66308" lon="5.19037">
        <ele>643.7</ele>
        <time>2015-10-17T12:58:06Z</time>
      </trkpt>
      <trkpt lat="44.66315" lon="5.1893">
        <ele>637</ele>
        <time>2015-10-17T12:58:14Z</time>
      </trkpt>
      <trkpt lat="44.66313" lon="5.18916">
        <ele>635.6</ele>
        <time>2015-10-17T12:58:15Z</time>
      </trkpt>
      <trkpt lat="44.66313" lon="5.18902">
        <ele>634.6</ele>
        <time>2015-10-17T12:58:16Z</time>
      </trkpt>
      <trkpt lat="44.66315" lon="5.18888">
        <ele>633.7</ele>
        <time>2015-10-17T12:58:17Z</time>
      </trkpt>
      <trkpt lat="44.6632" lon="5.18876">
        <ele>632.7</ele>
        <time>2015-10-17T12:58:18Z</time>
      </trkpt>
      <trkpt lat="44.66328" lon="5.18864">
        <ele>631.7</ele>
        <time>2015-10-17T12:58:19Z</time>
      </trkpt>
      <trkpt lat="44.66336" lon="5.18854">
        <ele>630.8</ele>
        <time>2015-10-17T12:58:20Z</time>
      </trkpt>
      <trkpt lat="44.66344" lon="5.18844">
        <ele>629.3</ele>
        <time>2015-10-17T12:58:21Z</time>
      </trkpt>
      <trkpt lat="44.66351" lon="5.18832">
        <ele>627.9</ele>
        <time>2015-10-17T12:58:22Z</time>
      </trkpt>
      <trkpt lat="44.66355" lon="5.18817">
        <ele>627.4</ele>
        <time>2015-10-17T12:58:23Z</time>
      </trkpt>
      <trkpt lat="44.66358" lon="5.18801">
        <ele>626.4</ele>
        <time>2015-10-17T12:58:24Z</time>
      </trkpt>
      <trkpt lat="44.66361" lon="5.18785">
        <ele>625</ele>
        <time>2015-10-17T12:58:25Z</time>
      </trkpt>
      <trkpt lat="44.66366" lon="5.18769">
        <ele>624</ele>
        <time>2015-10-17T12:58:26Z</time>
      </trkpt>
      <trkpt lat="44.66371" lon="5.18756">
        <ele>623.6</ele>
        <time>2015-10-17T12:58:27Z</time>
      </trkpt>
      <trkpt lat="44.66378" lon="5.18745">
        <ele>623.1</ele>
        <time>2015-10-17T12:58:28Z</time>
      </trkpt>
      <trkpt lat="44.66385" lon="5.18739">
        <ele>622.6</ele>
        <time>2015-10-17T12:58:29Z</time>
      </trkpt>
      <trkpt lat="44.66394" lon="5.18737">
        <ele>621.6</ele>
        <time>2015-10-17T12:58:30Z</time>
      </trkpt>
      <trkpt lat="44.66403" lon="5.18743">
        <ele>620.7</ele>
        <time>2015-10-17T12:58:31Z</time>
      </trkpt>
      <trkpt lat="44.66409" lon="5.18755">
        <ele>619.7</ele>
        <time>2015-10-17T12:58:32Z</time>
      </trkpt>
      <trkpt lat="44.66414" lon="5.18769">
        <ele>618.3</ele>
        <time>2015-10-17T12:58:33Z</time>
      </trkpt>
      <trkpt lat="44.66419" lon="5.18786">
        <ele>617.3</ele>
        <time>2015-10-17T12:58:34Z</time>
      </trkpt>
      <trkpt lat="44.66425" lon="5.18803">
        <ele>615.9</ele>
        <time>2015-10-17T12:58:35Z</time>
      </trkpt>
      <trkpt lat="44.66434" lon="5.18819">
        <ele>614.4</ele>
        <time>2015-10-17T12:58:36Z</time>
      </trkpt>
      <trkpt lat="44.66445" lon="5.18833">
        <ele>613</ele>
        <time>2015-10-17T12:58:37Z</time>
      </trkpt>
      <trkpt lat="44.66457" lon="5.18847">
        <ele>612</ele>
        <time>2015-10-17T12:58:38Z</time>
      </trkpt>
      <trkpt lat="44.6647" lon="5.1886">
        <ele>611.1</ele>
        <time>2015-10-17T12:58:39Z</time>
      </trkpt>
      <trkpt lat="44.66483" lon="5.18871">
        <ele>609.6</ele>
        <time>2015-10-17T12:58:40Z</time>
      </trkpt>
      <trkpt lat="44.66497" lon="5.18882">
        <ele>608.2</ele>
        <time>2015-10-17T12:58:41Z</time>
      </trkpt>
      <trkpt lat="44.6655" lon="5.18912">
        <ele>602.4</ele>
        <time>2015-10-17T12:58:45Z</time>
      </trkpt>
      <trkpt lat="44.66561" lon="5.18913">
        <ele>601</ele>
        <time>2015-10-17T12:58:46Z</time>
      </trkpt>
      <trkpt lat="44.66573" lon="5.18906">
        <ele>600</ele>
        <time>2015-10-17T12:58:47Z</time>
      </trkpt>
      <trkpt lat="44.66586" lon="5.18896">
        <ele>598.1</ele>
        <time>2015-10-17T12:58:48Z</time>
      </trkpt>
      <trkpt lat="44.66599" lon="5.18886">
        <ele>596.6</ele>
        <time>2015-10-17T12:58:49Z</time>
      </trkpt>
      <trkpt lat="44.66652" lon="5.18854">
        <ele>590.9</ele>
        <time>2015-10-17T12:58:53Z</time>
      </trkpt>
      <trkpt lat="44.66662" lon="5.18842">
        <ele>589.4</ele>
        <time>2015-10-17T12:58:54Z</time>
      </trkpt>
      <trkpt lat="44.66672" lon="5.18827">
        <ele>587.5</ele>
        <time>2015-10-17T12:58:55Z</time>
      </trkpt>
      <trkpt lat="44.66692" lon="5.18795">
        <ele>584.6</ele>
        <time>2015-10-17T12:58:57Z</time>
      </trkpt>
      <trkpt lat="44.66704" lon="5.18781">
        <ele>583.2</ele>
        <time>2015-10-17T12:58:58Z</time>
      </trkpt>
      <trkpt lat="44.66718" lon="5.1877">
        <ele>581.3</ele>
        <time>2015-10-17T12:58:59Z</time>
      </trkpt>
      <trkpt lat="44.66733" lon="5.18761">
        <ele>579.8</ele>
        <time>2015-10-17T12:59:00Z</time>
      </trkpt>
      <trkpt lat="44.66748" lon="5.18754">
        <ele>577.9</ele>
        <time>2015-10-17T12:59:01Z</time>
      </trkpt>
      <trkpt lat="44.66763" lon="5.18747">
        <ele>576</ele>
        <time>2015-10-17T12:59:02Z</time>
      </trkpt>
      <trkpt lat="44.66881" lon="5.1872">
        <ele>562.5</ele>
        <time>2015-10-17T12:59:10Z</time>
      </trkpt>
      <trkpt lat="44.66895" lon="5.18714">
        <ele>561.6</ele>
        <time>2015-10-17T12:59:11Z</time>
      </trkpt>
      <trkpt lat="44.66909" lon="5.18706">
        <ele>560.1</ele>
        <time>2015-10-17T12:59:12Z</time>
      </trkpt>
      <trkpt lat="44.66936" lon="5.18689">
        <ele>557.7</ele>
        <time>2015-10-17T12:59:14Z</time>
      </trkpt>
      <trkpt lat="44.6698" lon="5.18661">
        <ele>553.9</ele>
        <time>2015-10-17T12:59:17Z</time>
      </trkpt>
      <trkpt lat="44.67095" lon="5.18567">
        <ele>542.8</ele>
        <time>2015-10-17T12:59:25Z</time>
      </trkpt>
      <trkpt lat="44.67118" lon="5.18554">
        <ele>540.4</ele>
        <time>2015-10-17T12:59:27Z</time>
      </trkpt>
      <trkpt lat="44.67125" lon="5.18544">
        <ele>539</ele>
        <time>2015-10-17T12:59:28Z</time>
      </trkpt>
      <trkpt lat="44.67129" lon="5.18532">
        <ele>537.5</ele>
        <time>2015-10-17T12:59:29Z</time>
      </trkpt>
      <trkpt lat="44.6713" lon="5.18519">
        <ele>535.6</ele>
        <time>2015-10-17T12:59:30Z</time>
      </trkpt>
      <trkpt lat="44.67133" lon="5.18503">
        <ele>534.6</ele>
        <time>2015-10-17T12:59:31Z</time>
      </trkpt>
      <trkpt lat="44.67138" lon="5.18492">
        <ele>533.7</ele>
        <time>2015-10-17T12:59:32Z</time>
      </trkpt>
      <trkpt lat="44.67147" lon="5.18484">
        <ele>532.2</ele>
        <time>2015-10-17T12:59:33Z</time>
      </trkpt>
      <trkpt lat="44.67156" lon="5.18478">
        <ele>531.8</ele>
        <time>2015-10-17T12:59:34Z</time>
      </trkpt>
      <trkpt lat="44.67167" lon="5.18474">
        <ele>530.8</ele>
        <time>2015-10-17T12:59:35Z</time>
      </trkpt>
      <trkpt lat="44.67179" lon="5.18475">
        <ele>529.3</ele>
        <time>2015-10-17T12:59:36Z</time>
      </trkpt>
      <trkpt lat="44.67191" lon="5.18477">
        <ele>528.4</ele>
        <time>2015-10-17T12:59:37Z</time>
      </trkpt>
      <trkpt lat="44.67201" lon="5.18484">
        <ele>526.5</ele>
        <time>2015-10-17T12:59:38Z</time>
      </trkpt>
      <trkpt lat="44.67209" lon="5.18496">
        <ele>525</ele>
        <time>2015-10-17T12:59:39Z</time>
      </trkpt>
      <trkpt lat="44.67215" lon="5.1851">
        <ele>523.6</ele>
        <time>2015-10-17T12:59:40Z</time>
      </trkpt>
      <trkpt lat="44.67219" lon="5.18526">
        <ele>522.6</ele>
        <time>2015-10-17T12:59:41Z</time>
      </trkpt>
      <trkpt lat="44.67221" lon="5.18545">
        <ele>521.7</ele>
        <time>2015-10-17T12:59:42Z</time>
      </trkpt>
      <trkpt lat="44.67224" lon="5.18563">
        <ele>520.7</ele>
        <time>2015-10-17T12:59:43Z</time>
      </trkpt>
      <trkpt lat="44.67228" lon="5.1858">
        <ele>519.3</ele>
        <time>2015-10-17T12:59:44Z</time>
      </trkpt>
      <trkpt lat="44.67234" lon="5.18595">
        <ele>517.8</ele>
        <time>2015-10-17T12:59:45Z</time>
      </trkpt>
      <trkpt lat="44.67243" lon="5.18606">
        <ele>516.9</ele>
        <time>2015-10-17T12:59:46Z</time>
      </trkpt>
      <trkpt lat="44.67254" lon="5.18615">
        <ele>515.9</ele>
        <time>2015-10-17T12:59:47Z</time>
      </trkpt>
      <trkpt lat="44.67264" lon="5.18625">
        <ele>514.4</ele>
        <time>2015-10-17T12:59:48Z</time>
      </trkpt>
      <trkpt lat="44.67273" lon="5.18636">
        <ele>513.5</ele>
        <time>2015-10-17T12:59:49Z</time>
      </trkpt>
      <trkpt lat="44.67279" lon="5.1865">
        <ele>512</ele>
        <time>2015-10-17T12:59:50Z</time>
      </trkpt>
      <trkpt lat="44.67283" lon="5.18666">
        <ele>511.1</ele>
        <time>2015-10-17T12:59:51Z</time>
      </trkpt>
      <trkpt lat="44.67285" lon="5.18683">
        <ele>509.6</ele>
        <time>2015-10-17T12:59:52Z</time>
      </trkpt>
      <trkpt lat="44.67288" lon="5.18699">
        <ele>508.7</ele>
        <time>2015-10-17T12:59:53Z</time>
      </trkpt>
      <trkpt lat="44.67293" lon="5.18713">
        <ele>507.7</ele>
        <time>2015-10-17T12:59:54Z</time>
      </trkpt>
      <trkpt lat="44.67301" lon="5.18724">
        <ele>506.3</ele>
        <time>2015-10-17T12:59:55Z</time>
      </trkpt>
      <trkpt lat="44.67313" lon="5.18733">
        <ele>505.3</ele>
        <time>2015-10-17T12:59:56Z</time>
      </trkpt>
      <trkpt lat="44.67327" lon="5.18739">
        <ele>503.9</ele>
        <time>2015-10-17T12:59:57Z</time>
      </trkpt>
      <trkpt lat="44.67343" lon="5.18744">
        <ele>502.4</ele>
        <time>2015-10-17T12:59:58Z</time>
      </trkpt>
      <trkpt lat="44.67471" lon="5.1878">
        <ele>492.3</ele>
        <time>2015-10-17T13:00:06Z</time>
      </trkpt>
      <trkpt lat="44.67486" lon="5.18778">
        <ele>491.4</ele>
        <time>2015-10-17T13:00:07Z</time>
      </trkpt>
      <trkpt lat="44.67501" lon="5.18772">
        <ele>489.9</ele>
        <time>2015-10-17T13:00:08Z</time>
      </trkpt>
      <trkpt lat="44.67517" lon="5.18766">
        <ele>488.5</ele>
        <time>2015-10-17T13:00:09Z</time>
      </trkpt>
      <trkpt lat="44.67533" lon="5.18762">
        <ele>487.1</ele>
        <time>2015-10-17T13:00:10Z</time>
      </trkpt>
      <trkpt lat="44.6755" lon="5.18761">
        <ele>486.1</ele>
        <time>2015-10-17T13:00:11Z</time>
      </trkpt>
      <trkpt lat="44.67568" lon="5.18761">
        <ele>484.6</ele>
        <time>2015-10-17T13:00:12Z</time>
      </trkpt>
      <trkpt lat="44.67725" lon="5.18755">
        <ele>471.7</ele>
        <time>2015-10-17T13:00:21Z</time>
      </trkpt>
      <trkpt lat="44.67741" lon="5.1876">
        <ele>470.2</ele>
        <time>2015-10-17T13:00:22Z</time>
      </trkpt>
      <trkpt lat="44.67756" lon="5.18769">
        <ele>470.7</ele>
        <time>2015-10-17T13:00:23Z</time>
      </trkpt>
      <trkpt lat="44.67782" lon="5.18786">
        <ele>469.7</ele>
        <time>2015-10-17T13:00:25Z</time>
      </trkpt>
      <trkpt lat="44.67796" lon="5.18788">
        <ele>468.3</ele>
        <time>2015-10-17T13:00:26Z</time>
      </trkpt>
      <trkpt lat="44.6781" lon="5.18786">
        <ele>467.8</ele>
        <time>2015-10-17T13:00:27Z</time>
      </trkpt>
      <trkpt lat="44.67824" lon="5.18782">
        <ele>466.9</ele>
        <time>2015-10-17T13:00:28Z</time>
      </trkpt>
      <trkpt lat="44.67836" lon="5.18776">
        <ele>465.9</ele>
        <time>2015-10-17T13:00:29Z</time>
      </trkpt>
      <trkpt lat="44.67848" lon="5.18771">
        <ele>464.5</ele>
        <time>2015-10-17T13:00:30Z</time>
      </trkpt>
      <trkpt lat="44.67858" lon="5.1877">
        <ele>463.5</ele>
        <time>2015-10-17T13:00:31Z</time>
      </trkpt>
      <trkpt lat="44.67866" lon="5.18775">
        <ele>462.1</ele>
        <time>2015-10-17T13:00:32Z</time>
      </trkpt>
      <trkpt lat="44.67875" lon="5.18786">
        <ele>461.6</ele>
        <time>2015-10-17T13:00:33Z</time>
      </trkpt>
      <trkpt lat="44.67884" lon="5.18801">
        <ele>460.1</ele>
        <time>2015-10-17T13:00:34Z</time>
      </trkpt>
      <trkpt lat="44.67895" lon="5.18817">
        <ele>459.2</ele>
        <time>2015-10-17T13:00:35Z</time>
      </trkpt>
      <trkpt lat="44.67989" lon="5.18938">
        <ele>449.1</ele>
        <time>2015-10-17T13:00:43Z</time>
      </trkpt>
      <trkpt lat="44.68001" lon="5.18943">
        <ele>448.1</ele>
        <time>2015-10-17T13:00:44Z</time>
      </trkpt>
      <trkpt lat="44.68014" lon="5.18941">
        <ele>446.7</ele>
        <time>2015-10-17T13:00:45Z</time>
      </trkpt>
      <trkpt lat="44.68026" lon="5.18937">
        <ele>445.2</ele>
        <time>2015-10-17T13:00:46Z</time>
      </trkpt>
      <trkpt lat="44.68038" lon="5.18934">
        <ele>444.3</ele>
        <time>2015-10-17T13:00:47Z</time>
      </trkpt>
      <trkpt lat="44.68049" lon="5.18935">
        <ele>443.3</ele>
        <time>2015-10-17T13:00:48Z</time>
      </trkpt>
      <trkpt lat="44.68058" lon="5.18944">
        <ele>441.9</ele>
        <time>2015-10-17T13:00:49Z</time>
      </trkpt>
      <trkpt lat="44.68064" lon="5.18958">
        <ele>440.9</ele>
        <time>2015-10-17T13:00:50Z</time>
      </trkpt>
      <trkpt lat="44.68068" lon="5.18977">
        <ele>439.9</ele>
        <time>2015-10-17T13:00:51Z</time>
      </trkpt>
      <trkpt lat="44.68067" lon="5.18996">
        <ele>439.5</ele>
        <time>2015-10-17T13:00:52Z</time>
      </trkpt>
      <trkpt lat="44.68062" lon="5.19016">
        <ele>438</ele>
        <time>2015-10-17T13:00:53Z</time>
      </trkpt>
      <trkpt lat="44.68059" lon="5.19034">
        <ele>437.5</ele>
        <time>2015-10-17T13:00:54Z</time>
      </trkpt>
      <trkpt lat="44.68057" lon="5.19051">
        <ele>437.1</ele>
        <time>2015-10-17T13:00:55Z</time>
      </trkpt>
      <trkpt lat="44.6806" lon="5.19068">
        <ele>436.1</ele>
        <time>2015-10-17T13:00:56Z</time>
      </trkpt>
      <trkpt lat="44.68067" lon="5.19082">
        <ele>435.1</ele>
        <time>2015-10-17T13:00:57Z</time>
      </trkpt>
      <trkpt lat="44.68077" lon="5.19095">
        <ele>434.2</ele>
        <time>2015-10-17T13:00:58Z</time>
      </trkpt>
      <trkpt lat="44.68091" lon="5.19105">
        <ele>433.2</ele>
        <time>2015-10-17T13:00:59Z</time>
      </trkpt>
      <trkpt lat="44.68107" lon="5.19114">
        <ele>432.3</ele>
        <time>2015-10-17T13:01:00Z</time>
      </trkpt>
      <trkpt lat="44.68123" lon="5.19121">
        <ele>431.3</ele>
        <time>2015-10-17T13:01:01Z</time>
      </trkpt>
      <trkpt lat="44.68139" lon="5.19128">
        <ele>429.4</ele>
        <time>2015-10-17T13:01:02Z</time>
      </trkpt>
      <trkpt lat="44.68214" lon="5.19167">
        <ele>423.1</ele>
        <time>2015-10-17T13:01:07Z</time>
      </trkpt>
      <trkpt lat="44.68225" lon="5.1918">
        <ele>422.2</ele>
        <time>2015-10-17T13:01:08Z</time>
      </trkpt>
      <trkpt lat="44.68233" lon="5.19198">
        <ele>421.2</ele>
        <time>2015-10-17T13:01:09Z</time>
      </trkpt>
      <trkpt lat="44.6824" lon="5.19217">
        <ele>420.2</ele>
        <time>2015-10-17T13:01:10Z</time>
      </trkpt>
      <trkpt lat="44.68245" lon="5.19238">
        <ele>418.8</ele>
        <time>2015-10-17T13:01:11Z</time>
      </trkpt>
      <trkpt lat="44.68255" lon="5.1927">
        <ele>416.9</ele>
        <time>2015-10-17T13:01:13Z</time>
      </trkpt>
      <trkpt lat="44.68261" lon="5.19277">
        <ele>415.9</ele>
        <time>2015-10-17T13:01:14Z</time>
      </trkpt>
      <trkpt lat="44.68269" lon="5.19277">
        <ele>414.5</ele>
        <time>2015-10-17T13:01:15Z</time>
      </trkpt>
      <trkpt lat="44.68279" lon="5.19275">
        <ele>413.5</ele>
        <time>2015-10-17T13:01:16Z</time>
      </trkpt>
      <trkpt lat="44.6829" lon="5.19269">
        <ele>412.1</ele>
        <time>2015-10-17T13:01:17Z</time>
      </trkpt>
      <trkpt lat="44.683" lon="5.19256">
        <ele>411.6</ele>
        <time>2015-10-17T13:01:18Z</time>
      </trkpt>
      <trkpt lat="44.68307" lon="5.1924">
        <ele>409.7</ele>
        <time>2015-10-17T13:01:19Z</time>
      </trkpt>
      <trkpt lat="44.68313" lon="5.19225">
        <ele>408.7</ele>
        <time>2015-10-17T13:01:20Z</time>
      </trkpt>
      <trkpt lat="44.68318" lon="5.19211">
        <ele>407.7</ele>
        <time>2015-10-17T13:01:21Z</time>
      </trkpt>
      <trkpt lat="44.68322" lon="5.19201">
        <ele>406.8</ele>
        <time>2015-10-17T13:01:22Z</time>
      </trkpt>
      <trkpt lat="44.68328" lon="5.19194">
        <ele>405.8</ele>
        <time>2015-10-17T13:01:23Z</time>
      </trkpt>
      <trkpt lat="44.68334" lon="5.19197">
        <ele>404.9</ele>
        <time>2015-10-17T13:01:24Z</time>
      </trkpt>
      <trkpt lat="44.6834" lon="5.19205">
        <ele>403.9</ele>
        <time>2015-10-17T13:01:25Z</time>
      </trkpt>
      <trkpt lat="44.68344" lon="5.19218">
        <ele>402.5</ele>
        <time>2015-10-17T13:01:26Z</time>
      </trkpt>
      <trkpt lat="44.68342" lon="5.19256">
        <ele>401.5</ele>
        <time>2015-10-17T13:01:28Z</time>
      </trkpt>
      <trkpt lat="44.68339" lon="5.19275">
        <ele>400.5</ele>
        <time>2015-10-17T13:01:29Z</time>
      </trkpt>
      <trkpt lat="44.68334" lon="5.19294">
        <ele>399.1</ele>
        <time>2015-10-17T13:01:30Z</time>
      </trkpt>
      <trkpt lat="44.68329" lon="5.19331">
        <ele>397.6</ele>
        <time>2015-10-17T13:01:32Z</time>
      </trkpt>
      <trkpt lat="44.68332" lon="5.19348">
        <ele>396.2</ele>
        <time>2015-10-17T13:01:33Z</time>
      </trkpt>
      <trkpt lat="44.68339" lon="5.19361">
        <ele>395.2</ele>
        <time>2015-10-17T13:01:34Z</time>
      </trkpt>
      <trkpt lat="44.6835" lon="5.19369">
        <ele>394.3</ele>
        <time>2015-10-17T13:01:35Z</time>
      </trkpt>
      <trkpt lat="44.68364" lon="5.19373">
        <ele>393.3</ele>
        <time>2015-10-17T13:01:36Z</time>
      </trkpt>
      <trkpt lat="44.6838" lon="5.19373">
        <ele>392.4</ele>
        <time>2015-10-17T13:01:37Z</time>
      </trkpt>
      <trkpt lat="44.68396" lon="5.1937">
        <ele>391.4</ele>
        <time>2015-10-17T13:01:38Z</time>
      </trkpt>
      <trkpt lat="44.68414" lon="5.19364">
        <ele>390.4</ele>
        <time>2015-10-17T13:01:39Z</time>
      </trkpt>
      <trkpt lat="44.68432" lon="5.19357">
        <ele>389</ele>
        <time>2015-10-17T13:01:40Z</time>
      </trkpt>
      <trkpt lat="44.68567" lon="5.1932">
        <ele>379.4</ele>
        <time>2015-10-17T13:01:48Z</time>
      </trkpt>
      <trkpt lat="44.68583" lon="5.19321">
        <ele>378.4</ele>
        <time>2015-10-17T13:01:49Z</time>
      </trkpt>
      <trkpt lat="44.686" lon="5.19325">
        <ele>376.5</ele>
        <time>2015-10-17T13:01:50Z</time>
      </trkpt>
      <trkpt lat="44.68754" lon="5.19364">
        <ele>363</ele>
        <time>2015-10-17T13:01:59Z</time>
      </trkpt>
      <trkpt lat="44.68857" lon="5.19399">
        <ele>355.3</ele>
        <time>2015-10-17T13:02:05Z</time>
      </trkpt>
      <trkpt lat="44.68891" lon="5.19407">
        <ele>352.5</ele>
        <time>2015-10-17T13:02:07Z</time>
      </trkpt>
      <trkpt lat="44.68906" lon="5.19414">
        <ele>351</ele>
        <time>2015-10-17T13:02:08Z</time>
      </trkpt>
      <trkpt lat="44.68921" lon="5.19424">
        <ele>350.1</ele>
        <time>2015-10-17T13:02:09Z</time>
      </trkpt>
      <trkpt lat="44.68934" lon="5.19437">
        <ele>348.6</ele>
        <time>2015-10-17T13:02:10Z</time>
      </trkpt>
      <trkpt lat="44.68946" lon="5.19451">
        <ele>347.2</ele>
        <time>2015-10-17T13:02:11Z</time>
      </trkpt>
      <trkpt lat="44.68991" lon="5.19501">
        <ele>342.4</ele>
        <time>2015-10-17T13:02:15Z</time>
      </trkpt>
      <trkpt lat="44.69001" lon="5.19506">
        <ele>341.4</ele>
        <time>2015-10-17T13:02:16Z</time>
      </trkpt>
      <trkpt lat="44.69012" lon="5.19505">
        <ele>340</ele>
        <time>2015-10-17T13:02:17Z</time>
      </trkpt>
      <trkpt lat="44.69022" lon="5.19496">
        <ele>339</ele>
        <time>2015-10-17T13:02:18Z</time>
      </trkpt>
      <trkpt lat="44.69032" lon="5.19487">
        <ele>337.6</ele>
        <time>2015-10-17T13:02:19Z</time>
      </trkpt>
      <trkpt lat="44.69039" lon="5.1947">
        <ele>337.1</ele>
        <time>2015-10-17T13:02:20Z</time>
      </trkpt>
      <trkpt lat="44.69046" lon="5.19455">
        <ele>336.1</ele>
        <time>2015-10-17T13:02:21Z</time>
      </trkpt>
      <trkpt lat="44.69052" lon="5.19441">
        <ele>335.6</ele>
        <time>2015-10-17T13:02:22Z</time>
      </trkpt>
      <trkpt lat="44.6907" lon="5.19401">
        <ele>332.8</ele>
        <time>2015-10-17T13:02:26Z</time>
      </trkpt>
      <trkpt lat="44.69074" lon="5.19401">
        <ele>332.3</ele>
        <time>2015-10-17T13:02:27Z</time>
      </trkpt>
      <trkpt lat="44.69076" lon="5.19407">
        <ele>330.8</ele>
        <time>2015-10-17T13:02:28Z</time>
      </trkpt>
      <trkpt lat="44.69077" lon="5.19415">
        <ele>330.4</ele>
        <time>2015-10-17T13:02:29Z</time>
      </trkpt>
      <trkpt lat="44.69073" lon="5.19427">
        <ele>329.4</ele>
        <time>2015-10-17T13:02:30Z</time>
      </trkpt>
      <trkpt lat="44.69069" lon="5.19443">
        <ele>328.4</ele>
        <time>2015-10-17T13:02:31Z</time>
      </trkpt>
      <trkpt lat="44.69054" lon="5.19538">
        <ele>323.6</ele>
        <time>2015-10-17T13:02:36Z</time>
      </trkpt>
      <trkpt lat="44.69055" lon="5.19555">
        <ele>322.2</ele>
        <time>2015-10-17T13:02:37Z</time>
      </trkpt>
      <trkpt lat="44.69059" lon="5.19569">
        <ele>321.2</ele>
        <time>2015-10-17T13:02:38Z</time>
      </trkpt>
      <trkpt lat="44.69068" lon="5.1958">
        <ele>319.8</ele>
        <time>2015-10-17T13:02:39Z</time>
      </trkpt>
      <trkpt lat="44.6908" lon="5.19588">
        <ele>318.8</ele>
        <time>2015-10-17T13:02:40Z</time>
      </trkpt>
      <trkpt lat="44.69093" lon="5.19596">
        <ele>317.9</ele>
        <time>2015-10-17T13:02:41Z</time>
      </trkpt>
      <trkpt lat="44.69107" lon="5.19604">
        <ele>316.9</ele>
        <time>2015-10-17T13:02:42Z</time>
      </trkpt>
      <trkpt lat="44.69154" lon="5.19645">
        <ele>312.6</ele>
        <time>2015-10-17T13:02:46Z</time>
      </trkpt>
      <trkpt lat="44.69162" lon="5.19658">
        <ele>311.1</ele>
        <time>2015-10-17T13:02:47Z</time>
      </trkpt>
      <trkpt lat="44.69166" lon="5.19673">
        <ele>310.2</ele>
        <time>2015-10-17T13:02:48Z</time>
      </trkpt>
      <trkpt lat="44.69168" lon="5.1969">
        <ele>309.2</ele>
        <time>2015-10-17T13:02:49Z</time>
      </trkpt>
      <trkpt lat="44.69169" lon="5.19708">
        <ele>308.2</ele>
        <time>2015-10-17T13:02:50Z</time>
      </trkpt>
      <trkpt lat="44.69165" lon="5.1982">
        <ele>302.5</ele>
        <time>2015-10-17T13:02:57Z</time>
      </trkpt>
      <trkpt lat="44.69166" lon="5.1983">
        <ele>302</ele>
        <time>2015-10-17T13:02:58Z</time>
      </trkpt>
      <trkpt lat="44.69169" lon="5.19838">
        <ele>301.5</ele>
        <time>2015-10-17T13:02:59Z</time>
      </trkpt>
      <trkpt lat="44.69175" lon="5.19844">
        <ele>301</ele>
        <time>2015-10-17T13:03:00Z</time>
      </trkpt>
      <trkpt lat="44.69182" lon="5.19848">
        <ele>300.1</ele>
        <time>2015-10-17T13:03:01Z</time>
      </trkpt>
      <trkpt lat="44.69191" lon="5.19851">
        <ele>300.1</ele>
        <time>2015-10-17T13:03:02Z</time>
      </trkpt>
      <trkpt lat="44.692" lon="5.19851">
        <ele>299.6</ele>
        <time>2015-10-17T13:03:03Z</time>
      </trkpt>
      <trkpt lat="44.69209" lon="5.19851">
        <ele>299.1</ele>
        <time>2015-10-17T13:03:04Z</time>
      </trkpt>
      <trkpt lat="44.69263" lon="5.19853">
        <ele>298.2</ele>
        <time>2015-10-17T13:03:13Z</time>
      </trkpt>
      <trkpt lat="44.69283" lon="5.19851">
        <ele>298.2</ele>
        <time>2015-10-17T13:03:26Z</time>
      </trkpt>
      <trkpt lat="44.69384" lon="5.19862">
        <ele>291.4</ele>
        <time>2015-10-17T13:03:35Z</time>
      </trkpt>
      <trkpt lat="44.69448" lon="5.19893">
        <ele>285.7</ele>
        <time>2015-10-17T13:03:41Z</time>
      </trkpt>
      <trkpt lat="44.69457" lon="5.19901">
        <ele>284.7</ele>
        <time>2015-10-17T13:03:42Z</time>
      </trkpt>
      <trkpt lat="44.69465" lon="5.19912">
        <ele>283.7</ele>
        <time>2015-10-17T13:03:43Z</time>
      </trkpt>
      <trkpt lat="44.6947" lon="5.19924">
        <ele>283.3</ele>
        <time>2015-10-17T13:03:44Z</time>
      </trkpt>
      <trkpt lat="44.69473" lon="5.19938">
        <ele>282.8</ele>
        <time>2015-10-17T13:03:45Z</time>
      </trkpt>
      <trkpt lat="44.69474" lon="5.19952">
        <ele>282.8</ele>
        <time>2015-10-17T13:03:46Z</time>
      </trkpt>
      <trkpt lat="44.69475" lon="5.19966">
        <ele>283.7</ele>
        <time>2015-10-17T13:03:47Z</time>
      </trkpt>
      <trkpt lat="44.69479" lon="5.19979">
        <ele>283.7</ele>
        <time>2015-10-17T13:03:48Z</time>
      </trkpt>
      <trkpt lat="44.69484" lon="5.19991">
        <ele>283.7</ele>
        <time>2015-10-17T13:03:49Z</time>
      </trkpt>
      <trkpt lat="44.6949" lon="5.20002">
        <ele>283.7</ele>
        <time>2015-10-17T13:03:50Z</time>
      </trkpt>
      <trkpt lat="44.69497" lon="5.20013">
        <ele>283.7</ele>
        <time>2015-10-17T13:03:51Z</time>
      </trkpt>
      <trkpt lat="44.69502" lon="5.20023">
        <ele>283.7</ele>
        <time>2015-10-17T13:03:52Z</time>
      </trkpt>
      <trkpt lat="44.69506" lon="5.20035">
        <ele>283.7</ele>
        <time>2015-10-17T13:03:53Z</time>
      </trkpt>
      <trkpt lat="44.69509" lon="5.20048">
        <ele>283.3</ele>
        <time>2015-10-17T13:03:54Z</time>
      </trkpt>
      <trkpt lat="44.69505" lon="5.20073">
        <ele>282.3</ele>
        <time>2015-10-17T13:03:56Z</time>
      </trkpt>
      <trkpt lat="44.695" lon="5.20084">
        <ele>281.3</ele>
        <time>2015-10-17T13:03:57Z</time>
      </trkpt>
      <trkpt lat="44.69494" lon="5.20091">
        <ele>280.4</ele>
        <time>2015-10-17T13:03:58Z</time>
      </trkpt>
      <trkpt lat="44.69488" lon="5.20095">
        <ele>279.4</ele>
        <time>2015-10-17T13:03:59Z</time>
      </trkpt>
      <trkpt lat="44.69482" lon="5.20096">
        <ele>279.4</ele>
        <time>2015-10-17T13:04:00Z</time>
      </trkpt>
      <trkpt lat="44.69478" lon="5.20095">
        <ele>278.9</ele>
        <time>2015-10-17T13:04:01Z</time>
      </trkpt>
      <trkpt lat="44.69475" lon="5.20094">
        <ele>279.4</ele>
        <time>2015-10-17T13:04:02Z</time>
      </trkpt>
      <trkpt lat="44.69466" lon="5.20094">
        <ele>278.9</ele>
        <time>2015-10-17T13:04:13Z</time>
      </trkpt>
      <trkpt lat="44.69462" lon="5.20099">
        <ele>278.9</ele>
        <time>2015-10-17T13:04:14Z</time>
      </trkpt>
      <trkpt lat="44.69457" lon="5.20108">
        <ele>278.9</ele>
        <time>2015-10-17T13:04:15Z</time>
      </trkpt>
      <trkpt lat="44.69453" lon="5.20119">
        <ele>278.9</ele>
        <time>2015-10-17T13:04:16Z</time>
      </trkpt>
      <trkpt lat="44.69449" lon="5.20132">
        <ele>278.9</ele>
        <time>2015-10-17T13:04:17Z</time>
      </trkpt>
      <trkpt lat="44.69399" lon="5.20282">
        <ele>278.9</ele>
        <time>2015-10-17T13:04:26Z</time>
      </trkpt>
      <trkpt lat="44.69331" lon="5.20428">
        <ele>278</ele>
        <time>2015-10-17T13:04:32Z</time>
      </trkpt>
      <trkpt lat="44.69207" lon="5.20651">
        <ele>279.4</ele>
        <time>2015-10-17T13:04:40Z</time>
      </trkpt>
      <trkpt lat="44.69094" lon="5.20802">
        <ele>280.4</ele>
        <time>2015-10-17T13:04:47Z</time>
      </trkpt>
      <trkpt lat="44.69032" lon="5.20915">
        <ele>278.9</ele>
        <time>2015-10-17T13:04:52Z</time>
      </trkpt>
      <trkpt lat="44.69025" lon="5.20942">
        <ele>278.4</ele>
        <time>2015-10-17T13:04:53Z</time>
      </trkpt>
      <trkpt lat="44.69021" lon="5.20972">
        <ele>278</ele>
        <time>2015-10-17T13:04:54Z</time>
      </trkpt>
      <trkpt lat="44.6902" lon="5.21002">
        <ele>277.5</ele>
        <time>2015-10-17T13:04:55Z</time>
      </trkpt>
      <trkpt lat="44.69019" lon="5.21031">
        <ele>277.5</ele>
        <time>2015-10-17T13:04:56Z</time>
      </trkpt>
      <trkpt lat="44.69017" lon="5.2106">
        <ele>277.5</ele>
        <time>2015-10-17T13:04:57Z</time>
      </trkpt>
      <trkpt lat="44.69011" lon="5.21087">
        <ele>277.5</ele>
        <time>2015-10-17T13:04:58Z</time>
      </trkpt>
      <trkpt lat="44.69002" lon="5.21112">
        <ele>277.5</ele>
        <time>2015-10-17T13:04:59Z</time>
      </trkpt>
      <trkpt lat="44.68984" lon="5.21156">
        <ele>277.5</ele>
        <time>2015-10-17T13:05:01Z</time>
      </trkpt>
      <trkpt lat="44.68979" lon="5.2118">
        <ele>277</ele>
        <time>2015-10-17T13:05:02Z</time>
      </trkpt>
      <trkpt lat="44.6898" lon="5.21203">
        <ele>277</ele>
        <time>2015-10-17T13:05:03Z</time>
      </trkpt>
      <trkpt lat="44.68985" lon="5.21227">
        <ele>276</ele>
        <time>2015-10-17T13:05:04Z</time>
      </trkpt>
      <trkpt lat="44.68994" lon="5.21248">
        <ele>275.6</ele>
        <time>2015-10-17T13:05:05Z</time>
      </trkpt>
      <trkpt lat="44.69008" lon="5.21266">
        <ele>275.6</ele>
        <time>2015-10-17T13:05:06Z</time>
      </trkpt>
      <trkpt lat="44.69024" lon="5.21283">
        <ele>275.6</ele>
        <time>2015-10-17T13:05:07Z</time>
      </trkpt>
      <trkpt lat="44.69041" lon="5.213">
        <ele>276</ele>
        <time>2015-10-17T13:05:08Z</time>
      </trkpt>
      <trkpt lat="44.69123" lon="5.21389">
        <ele>277.5</ele>
        <time>2015-10-17T13:05:13Z</time>
      </trkpt>
      <trkpt lat="44.69137" lon="5.2141">
        <ele>277.5</ele>
        <time>2015-10-17T13:05:14Z</time>
      </trkpt>
      <trkpt lat="44.69149" lon="5.21434">
        <ele>277.5</ele>
        <time>2015-10-17T13:05:15Z</time>
      </trkpt>
      <trkpt lat="44.69161" lon="5.21459">
        <ele>277.5</ele>
        <time>2015-10-17T13:05:16Z</time>
      </trkpt>
      <trkpt lat="44.69171" lon="5.21486">
        <ele>277</ele>
        <time>2015-10-17T13:05:17Z</time>
      </trkpt>
      <trkpt lat="44.69177" lon="5.21515">
        <ele>277</ele>
        <time>2015-10-17T13:05:18Z</time>
      </trkpt>
      <trkpt lat="44.69177" lon="5.21546">
        <ele>276.5</ele>
        <time>2015-10-17T13:05:19Z</time>
      </trkpt>
      <trkpt lat="44.69172" lon="5.21579">
        <ele>276.5</ele>
        <time>2015-10-17T13:05:20Z</time>
      </trkpt>
      <trkpt lat="44.69164" lon="5.21609">
        <ele>276</ele>
        <time>2015-10-17T13:05:21Z</time>
      </trkpt>
      <trkpt lat="44.69153" lon="5.21638">
        <ele>276</ele>
        <time>2015-10-17T13:05:22Z</time>
      </trkpt>
      <trkpt lat="44.69139" lon="5.21666">
        <ele>276</ele>
        <time>2015-10-17T13:05:23Z</time>
      </trkpt>
      <trkpt lat="44.69123" lon="5.21692">
        <ele>276</ele>
        <time>2015-10-17T13:05:24Z</time>
      </trkpt>
      <trkpt lat="44.69108" lon="5.21716">
        <ele>276</ele>
        <time>2015-10-17T13:05:25Z</time>
      </trkpt>
      <trkpt lat="44.69065" lon="5.21783">
        <ele>278</ele>
        <time>2015-10-17T13:05:28Z</time>
      </trkpt>
      <trkpt lat="44.69056" lon="5.21809">
        <ele>278.4</ele>
        <time>2015-10-17T13:05:29Z</time>
      </trkpt>
      <trkpt lat="44.69048" lon="5.21837">
        <ele>278.4</ele>
        <time>2015-10-17T13:05:30Z</time>
      </trkpt>
      <trkpt lat="44.69042" lon="5.21867">
        <ele>278.4</ele>
        <time>2015-10-17T13:05:31Z</time>
      </trkpt>
      <trkpt lat="44.69038" lon="5.21898">
        <ele>278.9</ele>
        <time>2015-10-17T13:05:32Z</time>
      </trkpt>
      <trkpt lat="44.69035" lon="5.2193">
        <ele>278.9</ele>
        <time>2015-10-17T13:05:33Z</time>
      </trkpt>
      <trkpt lat="44.68984" lon="5.22235">
        <ele>280.8</ele>
        <time>2015-10-17T13:05:42Z</time>
      </trkpt>
      <trkpt lat="44.68916" lon="5.22583">
        <ele>282.8</ele>
        <time>2015-10-17T13:05:52Z</time>
      </trkpt>
      <trkpt lat="44.68857" lon="5.23007">
        <ele>288.1</ele>
        <time>2015-10-17T13:06:05Z</time>
      </trkpt>
      <trkpt lat="44.6886" lon="5.23037">
        <ele>289</ele>
        <time>2015-10-17T13:06:06Z</time>
      </trkpt>
      <trkpt lat="44.68866" lon="5.23067">
        <ele>289.5</ele>
        <time>2015-10-17T13:06:07Z</time>
      </trkpt>
      <trkpt lat="44.68882" lon="5.23259">
        <ele>291.9</ele>
        <time>2015-10-17T13:06:14Z</time>
      </trkpt>
      <trkpt lat="44.68889" lon="5.235">
        <ele>289.5</ele>
        <time>2015-10-17T13:06:25Z</time>
      </trkpt>
      <trkpt lat="44.6894" lon="5.23681">
        <ele>290</ele>
        <time>2015-10-17T13:06:34Z</time>
      </trkpt>
      <trkpt lat="44.68949" lon="5.23696">
        <ele>290</ele>
        <time>2015-10-17T13:06:35Z</time>
      </trkpt>
      <trkpt lat="44.68987" lon="5.23757">
        <ele>290</ele>
        <time>2015-10-17T13:06:41Z</time>
      </trkpt>
      <trkpt lat="44.68987" lon="5.23753">
        <ele>290.5</ele>
        <time>2015-10-17T13:06:51Z</time>
      </trkpt>
      <trkpt lat="44.68995" lon="5.23757">
        <ele>288.1</ele>
        <time>2015-10-17T13:08:24Z</time>
      </trkpt>
      <trkpt lat="44.69002" lon="5.23765">
        <ele>288.1</ele>
        <time>2015-10-17T13:08:25Z</time>
      </trkpt>
      <trkpt lat="44.69013" lon="5.23774">
        <ele>288.1</ele>
        <time>2015-10-17T13:08:26Z</time>
      </trkpt>
      <trkpt lat="44.69028" lon="5.23783">
        <ele>288.1</ele>
        <time>2015-10-17T13:08:27Z</time>
      </trkpt>
      <trkpt lat="44.69045" lon="5.23792">
        <ele>288.5</ele>
        <time>2015-10-17T13:08:28Z</time>
      </trkpt>
      <trkpt lat="44.69185" lon="5.2384">
        <ele>290.9</ele>
        <time>2015-10-17T13:08:34Z</time>
      </trkpt>
      <trkpt lat="44.69355" lon="5.23901">
        <ele>295.3</ele>
        <time>2015-10-17T13:08:41Z</time>
      </trkpt>
      <trkpt lat="44.69509" lon="5.23985">
        <ele>297.7</ele>
        <time>2015-10-17T13:08:49Z</time>
      </trkpt>
      <trkpt lat="44.69582" lon="5.24043">
        <ele>298.6</ele>
        <time>2015-10-17T13:08:53Z</time>
      </trkpt>
      <trkpt lat="44.69599" lon="5.24064">
        <ele>299.1</ele>
        <time>2015-10-17T13:08:54Z</time>
      </trkpt>
      <trkpt lat="44.69614" lon="5.24087">
        <ele>299.1</ele>
        <time>2015-10-17T13:08:55Z</time>
      </trkpt>
      <trkpt lat="44.69627" lon="5.24111">
        <ele>299.1</ele>
        <time>2015-10-17T13:08:56Z</time>
      </trkpt>
      <trkpt lat="44.69639" lon="5.24138">
        <ele>299.1</ele>
        <time>2015-10-17T13:08:57Z</time>
      </trkpt>
      <trkpt lat="44.69648" lon="5.24167">
        <ele>299.1</ele>
        <time>2015-10-17T13:08:58Z</time>
      </trkpt>
      <trkpt lat="44.69657" lon="5.24198">
        <ele>299.1</ele>
        <time>2015-10-17T13:08:59Z</time>
      </trkpt>
      <trkpt lat="44.69665" lon="5.24231">
        <ele>299.1</ele>
        <time>2015-10-17T13:09:00Z</time>
      </trkpt>
      <trkpt lat="44.69719" lon="5.24522">
        <ele>296.7</ele>
        <time>2015-10-17T13:09:09Z</time>
      </trkpt>
      <trkpt lat="44.69739" lon="5.24822">
        <ele>295.7</ele>
        <time>2015-10-17T13:09:19Z</time>
      </trkpt>
      <trkpt lat="44.69744" lon="5.24848">
        <ele>295.7</ele>
        <time>2015-10-17T13:09:20Z</time>
      </trkpt>
      <trkpt lat="44.69752" lon="5.24874">
        <ele>295.7</ele>
        <time>2015-10-17T13:09:21Z</time>
      </trkpt>
      <trkpt lat="44.69762" lon="5.24898">
        <ele>295.7</ele>
        <time>2015-10-17T13:09:22Z</time>
      </trkpt>
      <trkpt lat="44.69774" lon="5.2492">
        <ele>295.7</ele>
        <time>2015-10-17T13:09:23Z</time>
      </trkpt>
      <trkpt lat="44.69787" lon="5.24941">
        <ele>296.2</ele>
        <time>2015-10-17T13:09:24Z</time>
      </trkpt>
      <trkpt lat="44.69972" lon="5.25233">
        <ele>296.7</ele>
        <time>2015-10-17T13:09:38Z</time>
      </trkpt>
      <trkpt lat="44.70124" lon="5.2548">
        <ele>298.6</ele>
        <time>2015-10-17T13:09:49Z</time>
      </trkpt>
      <trkpt lat="44.70174" lon="5.25581">
        <ele>300.1</ele>
        <time>2015-10-17T13:09:54Z</time>
      </trkpt>
      <trkpt lat="44.70186" lon="5.25598">
        <ele>300.6</ele>
        <time>2015-10-17T13:09:55Z</time>
      </trkpt>
      <trkpt lat="44.70272" lon="5.25705">
        <ele>301</ele>
        <time>2015-10-17T13:10:02Z</time>
      </trkpt>
      <trkpt lat="44.70401" lon="5.2582">
        <ele>301.5</ele>
        <time>2015-10-17T13:10:11Z</time>
      </trkpt>
      <trkpt lat="44.70488" lon="5.25894">
        <ele>302.5</ele>
        <time>2015-10-17T13:10:19Z</time>
      </trkpt>
      <trkpt lat="44.70507" lon="5.25915">
        <ele>303</ele>
        <time>2015-10-17T13:10:21Z</time>
      </trkpt>
      <trkpt lat="44.70517" lon="5.25923">
        <ele>303</ele>
        <time>2015-10-17T13:10:22Z</time>
      </trkpt>
      <trkpt lat="44.70529" lon="5.2593">
        <ele>303</ele>
        <time>2015-10-17T13:10:23Z</time>
      </trkpt>
      <trkpt lat="44.7054" lon="5.25936">
        <ele>303</ele>
        <time>2015-10-17T13:10:24Z</time>
      </trkpt>
      <trkpt lat="44.70553" lon="5.25941">
        <ele>303</ele>
        <time>2015-10-17T13:10:25Z</time>
      </trkpt>
      <trkpt lat="44.70655" lon="5.2601">
        <ele>304.9</ele>
        <time>2015-10-17T13:10:33Z</time>
      </trkpt>
      <trkpt lat="44.70871" lon="5.2617">
        <ele>306.8</ele>
        <time>2015-10-17T13:10:48Z</time>
      </trkpt>
      <trkpt lat="44.71025" lon="5.26287">
        <ele>308.2</ele>
        <time>2015-10-17T13:10:56Z</time>
      </trkpt>
      <trkpt lat="44.71121" lon="5.26349">
        <ele>312.1</ele>
        <time>2015-10-17T13:11:01Z</time>
      </trkpt>
      <trkpt lat="44.71143" lon="5.26356">
        <ele>312.6</ele>
        <time>2015-10-17T13:11:02Z</time>
      </trkpt>
      <trkpt lat="44.71416" lon="5.26404">
        <ele>313.1</ele>
        <time>2015-10-17T13:11:14Z</time>
      </trkpt>
      <trkpt lat="44.71813" lon="5.26476">
        <ele>317.4</ele>
        <time>2015-10-17T13:11:32Z</time>
      </trkpt>
      <trkpt lat="44.7207" lon="5.26529">
        <ele>317.9</ele>
        <time>2015-10-17T13:11:43Z</time>
      </trkpt>
      <trkpt lat="44.72093" lon="5.26542">
        <ele>317.9</ele>
        <time>2015-10-17T13:11:44Z</time>
      </trkpt>
      <trkpt lat="44.7233" lon="5.26717">
        <ele>320.3</ele>
        <time>2015-10-17T13:11:55Z</time>
      </trkpt>
      <trkpt lat="44.72389" lon="5.26752">
        <ele>322.2</ele>
        <time>2015-10-17T13:11:58Z</time>
      </trkpt>
      <trkpt lat="44.72409" lon="5.26758">
        <ele>322.7</ele>
        <time>2015-10-17T13:11:59Z</time>
      </trkpt>
      <trkpt lat="44.7243" lon="5.26755">
        <ele>323.1</ele>
        <time>2015-10-17T13:12:00Z</time>
      </trkpt>
      <trkpt lat="44.72453" lon="5.26748">
        <ele>323.6</ele>
        <time>2015-10-17T13:12:01Z</time>
      </trkpt>
      <trkpt lat="44.72475" lon="5.26737">
        <ele>324.1</ele>
        <time>2015-10-17T13:12:02Z</time>
      </trkpt>
      <trkpt lat="44.72497" lon="5.26722">
        <ele>324.1</ele>
        <time>2015-10-17T13:12:03Z</time>
      </trkpt>
      <trkpt lat="44.72518" lon="5.26706">
        <ele>324.1</ele>
        <time>2015-10-17T13:12:04Z</time>
      </trkpt>
      <trkpt lat="44.72693" lon="5.2661">
        <ele>324.6</ele>
        <time>2015-10-17T13:12:12Z</time>
      </trkpt>
      <trkpt lat="44.72812" lon="5.26602">
        <ele>325.5</ele>
        <time>2015-10-17T13:12:17Z</time>
      </trkpt>
      <trkpt lat="44.73003" lon="5.26677">
        <ele>325.5</ele>
        <time>2015-10-17T13:12:25Z</time>
      </trkpt>
      <trkpt lat="44.73246" lon="5.26778">
        <ele>328.9</ele>
        <time>2015-10-17T13:12:36Z</time>
      </trkpt>
      <trkpt lat="44.73269" lon="5.26781">
        <ele>329.4</ele>
        <time>2015-10-17T13:12:37Z</time>
      </trkpt>
      <trkpt lat="44.73294" lon="5.26779">
        <ele>329.9</ele>
        <time>2015-10-17T13:12:38Z</time>
      </trkpt>
      <trkpt lat="44.73318" lon="5.26774">
        <ele>330.4</ele>
        <time>2015-10-17T13:12:39Z</time>
      </trkpt>
      <trkpt lat="44.73342" lon="5.26766">
        <ele>330.4</ele>
        <time>2015-10-17T13:12:40Z</time>
      </trkpt>
      <trkpt lat="44.73365" lon="5.26754">
        <ele>330.8</ele>
        <time>2015-10-17T13:12:41Z</time>
      </trkpt>
      <trkpt lat="44.73388" lon="5.26741">
        <ele>330.8</ele>
        <time>2015-10-17T13:12:42Z</time>
      </trkpt>
      <trkpt lat="44.73582" lon="5.26624">
        <ele>333.2</ele>
        <time>2015-10-17T13:12:51Z</time>
      </trkpt>
      <trkpt lat="44.73605" lon="5.2662">
        <ele>333.7</ele>
        <time>2015-10-17T13:12:52Z</time>
      </trkpt>
      <trkpt lat="44.73629" lon="5.26618">
        <ele>333.7</ele>
        <time>2015-10-17T13:12:53Z</time>
      </trkpt>
      <trkpt lat="44.73955" lon="5.26612">
        <ele>337.1</ele>
        <time>2015-10-17T13:13:07Z</time>
      </trkpt>
      <trkpt lat="44.74214" lon="5.26587">
        <ele>339</ele>
        <time>2015-10-17T13:13:18Z</time>
      </trkpt>
      <trkpt lat="44.74495" lon="5.26462">
        <ele>339.5</ele>
        <time>2015-10-17T13:13:31Z</time>
      </trkpt>
      <trkpt lat="44.74638" lon="5.26381">
        <ele>339</ele>
        <time>2015-10-17T13:13:38Z</time>
      </trkpt>
      <trkpt lat="44.74797" lon="5.26329">
        <ele>340.4</ele>
        <time>2015-10-17T13:13:46Z</time>
      </trkpt>
      <trkpt lat="44.74856" lon="5.26317">
        <ele>339</ele>
        <time>2015-10-17T13:13:50Z</time>
      </trkpt>
      <trkpt lat="44.74868" lon="5.26319">
        <ele>338.5</ele>
        <time>2015-10-17T13:13:51Z</time>
      </trkpt>
      <trkpt lat="44.7488" lon="5.26325">
        <ele>337.6</ele>
        <time>2015-10-17T13:13:52Z</time>
      </trkpt>
      <trkpt lat="44.74892" lon="5.26333">
        <ele>337.1</ele>
        <time>2015-10-17T13:13:53Z</time>
      </trkpt>
      <trkpt lat="44.74902" lon="5.26344">
        <ele>336.1</ele>
        <time>2015-10-17T13:13:54Z</time>
      </trkpt>
      <trkpt lat="44.74912" lon="5.26357">
        <ele>335.2</ele>
        <time>2015-10-17T13:13:55Z</time>
      </trkpt>
      <trkpt lat="44.74921" lon="5.26371">
        <ele>334.7</ele>
        <time>2015-10-17T13:13:56Z</time>
      </trkpt>
      <trkpt lat="44.75009" lon="5.26469">
        <ele>335.6</ele>
        <time>2015-10-17T13:14:06Z</time>
      </trkpt>
      <trkpt lat="44.75109" lon="5.26549">
        <ele>339.5</ele>
        <time>2015-10-17T13:14:16Z</time>
      </trkpt>
      <trkpt lat="44.75185" lon="5.26662">
        <ele>341.9</ele>
        <time>2015-10-17T13:14:23Z</time>
      </trkpt>
      <trkpt lat="44.752" lon="5.26678">
        <ele>342.4</ele>
        <time>2015-10-17T13:14:24Z</time>
      </trkpt>
      <trkpt lat="44.75218" lon="5.26692">
        <ele>342.9</ele>
        <time>2015-10-17T13:14:25Z</time>
      </trkpt>
      <trkpt lat="44.75236" lon="5.26704">
        <ele>343.3</ele>
        <time>2015-10-17T13:14:26Z</time>
      </trkpt>
      <trkpt lat="44.75255" lon="5.26715">
        <ele>343.8</ele>
        <time>2015-10-17T13:14:27Z</time>
      </trkpt>
      <trkpt lat="44.75274" lon="5.26725">
        <ele>344.3</ele>
        <time>2015-10-17T13:14:28Z</time>
      </trkpt>
      <trkpt lat="44.75499" lon="5.26809">
        <ele>347.7</ele>
        <time>2015-10-17T13:14:39Z</time>
      </trkpt>
      <trkpt lat="44.75636" lon="5.26822">
        <ele>349.1</ele>
        <time>2015-10-17T13:14:46Z</time>
      </trkpt>
      <trkpt lat="44.75654" lon="5.26829">
        <ele>349.1</ele>
        <time>2015-10-17T13:14:47Z</time>
      </trkpt>
      <trkpt lat="44.75672" lon="5.2684">
        <ele>349.6</ele>
        <time>2015-10-17T13:14:48Z</time>
      </trkpt>
      <trkpt lat="44.75689" lon="5.26854">
        <ele>349.6</ele>
        <time>2015-10-17T13:14:49Z</time>
      </trkpt>
      <trkpt lat="44.75707" lon="5.2687">
        <ele>349.6</ele>
        <time>2015-10-17T13:14:50Z</time>
      </trkpt>
      <trkpt lat="44.75802" lon="5.26945">
        <ele>349.6</ele>
        <time>2015-10-17T13:14:55Z</time>
      </trkpt>
      <trkpt lat="44.75824" lon="5.26953">
        <ele>349.6</ele>
        <time>2015-10-17T13:14:56Z</time>
      </trkpt>
      <trkpt lat="44.76066" lon="5.2703">
        <ele>351</ele>
        <time>2015-10-17T13:15:07Z</time>
      </trkpt>
      <trkpt lat="44.76239" lon="5.2707">
        <ele>352</ele>
        <time>2015-10-17T13:15:15Z</time>
      </trkpt>
      <trkpt lat="44.7626" lon="5.27079">
        <ele>352</ele>
        <time>2015-10-17T13:15:16Z</time>
      </trkpt>
      <trkpt lat="44.76281" lon="5.27091">
        <ele>352.5</ele>
        <time>2015-10-17T13:15:17Z</time>
      </trkpt>
      <trkpt lat="44.76301" lon="5.27107">
        <ele>352.5</ele>
        <time>2015-10-17T13:15:18Z</time>
      </trkpt>
      <trkpt lat="44.7632" lon="5.27126">
        <ele>352.5</ele>
        <time>2015-10-17T13:15:19Z</time>
      </trkpt>
      <trkpt lat="44.76337" lon="5.27149">
        <ele>352.9</ele>
        <time>2015-10-17T13:15:20Z</time>
      </trkpt>
      <trkpt lat="44.76352" lon="5.27176">
        <ele>352.9</ele>
        <time>2015-10-17T13:15:21Z</time>
      </trkpt>
      <trkpt lat="44.76365" lon="5.27206">
        <ele>352.9</ele>
        <time>2015-10-17T13:15:22Z</time>
      </trkpt>
      <trkpt lat="44.76376" lon="5.2724">
        <ele>353.4</ele>
        <time>2015-10-17T13:15:23Z</time>
      </trkpt>
      <trkpt lat="44.76384" lon="5.27275">
        <ele>353.9</ele>
        <time>2015-10-17T13:15:24Z</time>
      </trkpt>
      <trkpt lat="44.76389" lon="5.27312">
        <ele>354.4</ele>
        <time>2015-10-17T13:15:25Z</time>
      </trkpt>
      <trkpt lat="44.7639" lon="5.27351">
        <ele>355.3</ele>
        <time>2015-10-17T13:15:26Z</time>
      </trkpt>
      <trkpt lat="44.76391" lon="5.27389">
        <ele>355.8</ele>
        <time>2015-10-17T13:15:27Z</time>
      </trkpt>
      <trkpt lat="44.7639" lon="5.27427">
        <ele>356.8</ele>
        <time>2015-10-17T13:15:28Z</time>
      </trkpt>
      <trkpt lat="44.76407" lon="5.27695">
        <ele>359.7</ele>
        <time>2015-10-17T13:15:36Z</time>
      </trkpt>
      <trkpt lat="44.76458" lon="5.27913">
        <ele>360.2</ele>
        <time>2015-10-17T13:15:43Z</time>
      </trkpt>
      <trkpt lat="44.76472" lon="5.2801">
        <ele>359.7</ele>
        <time>2015-10-17T13:15:46Z</time>
      </trkpt>
      <trkpt lat="44.76472" lon="5.28043">
        <ele>359.7</ele>
        <time>2015-10-17T13:15:47Z</time>
      </trkpt>
      <trkpt lat="44.76468" lon="5.28076">
        <ele>359.2</ele>
        <time>2015-10-17T13:15:48Z</time>
      </trkpt>
      <trkpt lat="44.76462" lon="5.28109">
        <ele>359.2</ele>
        <time>2015-10-17T13:15:49Z</time>
      </trkpt>
      <trkpt lat="44.76453" lon="5.28141">
        <ele>358.7</ele>
        <time>2015-10-17T13:15:50Z</time>
      </trkpt>
      <trkpt lat="44.76443" lon="5.28173">
        <ele>358.2</ele>
        <time>2015-10-17T13:15:51Z</time>
      </trkpt>
      <trkpt lat="44.7635" lon="5.28464">
        <ele>354.4</ele>
        <time>2015-10-17T13:16:01Z</time>
      </trkpt>
      <trkpt lat="44.7628" lon="5.2877">
        <ele>358.7</ele>
        <time>2015-10-17T13:16:13Z</time>
      </trkpt>
      <trkpt lat="44.76196" lon="5.2903">
        <ele>364.5</ele>
        <time>2015-10-17T13:16:23Z</time>
      </trkpt>
      <trkpt lat="44.76173" lon="5.29138">
        <ele>367.8</ele>
        <time>2015-10-17T13:16:27Z</time>
      </trkpt>
      <trkpt lat="44.7617" lon="5.29166">
        <ele>368.3</ele>
        <time>2015-10-17T13:16:28Z</time>
      </trkpt>
      <trkpt lat="44.76169" lon="5.29252">
        <ele>370.2</ele>
        <time>2015-10-17T13:16:31Z</time>
      </trkpt>
      <trkpt lat="44.76172" lon="5.2928">
        <ele>370.2</ele>
        <time>2015-10-17T13:16:32Z</time>
      </trkpt>
      <trkpt lat="44.7618" lon="5.29307">
        <ele>370.7</ele>
        <time>2015-10-17T13:16:33Z</time>
      </trkpt>
      <trkpt lat="44.7619" lon="5.29334">
        <ele>370.7</ele>
        <time>2015-10-17T13:16:34Z</time>
      </trkpt>
      <trkpt lat="44.76201" lon="5.29362">
        <ele>370.7</ele>
        <time>2015-10-17T13:16:35Z</time>
      </trkpt>
      <trkpt lat="44.76249" lon="5.29536">
        <ele>370.2</ele>
        <time>2015-10-17T13:16:41Z</time>
      </trkpt>
      <trkpt lat="44.76263" lon="5.29632">
        <ele>369.8</ele>
        <time>2015-10-17T13:16:44Z</time>
      </trkpt>
      <trkpt lat="44.76273" lon="5.29662">
        <ele>369.8</ele>
        <time>2015-10-17T13:16:45Z</time>
      </trkpt>
      <trkpt lat="44.76321" lon="5.29895">
        <ele>368.8</ele>
        <time>2015-10-17T13:16:52Z</time>
      </trkpt>
      <trkpt lat="44.76327" lon="5.29998">
        <ele>368.8</ele>
        <time>2015-10-17T13:16:55Z</time>
      </trkpt>
      <trkpt lat="44.76323" lon="5.30033">
        <ele>368.3</ele>
        <time>2015-10-17T13:16:56Z</time>
      </trkpt>
      <trkpt lat="44.76317" lon="5.30067">
        <ele>368.3</ele>
        <time>2015-10-17T13:16:57Z</time>
      </trkpt>
      <trkpt lat="44.76307" lon="5.30101">
        <ele>367.8</ele>
        <time>2015-10-17T13:16:58Z</time>
      </trkpt>
      <trkpt lat="44.76297" lon="5.30134">
        <ele>367.4</ele>
        <time>2015-10-17T13:16:59Z</time>
      </trkpt>
      <trkpt lat="44.76279" lon="5.30201">
        <ele>366.9</ele>
        <time>2015-10-17T13:17:01Z</time>
      </trkpt>
      <trkpt lat="44.76273" lon="5.30237">
        <ele>366.9</ele>
        <time>2015-10-17T13:17:02Z</time>
      </trkpt>
      <trkpt lat="44.76267" lon="5.30497">
        <ele>365.4</ele>
        <time>2015-10-17T13:17:09Z</time>
      </trkpt>
      <trkpt lat="44.76302" lon="5.30675">
        <ele>365.4</ele>
        <time>2015-10-17T13:17:14Z</time>
      </trkpt>
      <trkpt lat="44.76419" lon="5.31009">
        <ele>365</ele>
        <time>2015-10-17T13:17:24Z</time>
      </trkpt>
      <trkpt lat="44.76436" lon="5.31037">
        <ele>365</ele>
        <time>2015-10-17T13:17:25Z</time>
      </trkpt>
      <trkpt lat="44.76657" lon="5.31391">
        <ele>369.3</ele>
        <time>2015-10-17T13:17:38Z</time>
      </trkpt>
      <trkpt lat="44.7674" lon="5.31595">
        <ele>371.2</ele>
        <time>2015-10-17T13:17:45Z</time>
      </trkpt>
      <trkpt lat="44.76777" lon="5.31746">
        <ele>372.7</ele>
        <time>2015-10-17T13:17:50Z</time>
      </trkpt>
      <trkpt lat="44.76779" lon="5.31777">
        <ele>372.7</ele>
        <time>2015-10-17T13:17:51Z</time>
      </trkpt>
      <trkpt lat="44.76779" lon="5.31807">
        <ele>373.1</ele>
        <time>2015-10-17T13:17:52Z</time>
      </trkpt>
      <trkpt lat="44.76776" lon="5.31836">
        <ele>373.1</ele>
        <time>2015-10-17T13:17:53Z</time>
      </trkpt>
      <trkpt lat="44.76772" lon="5.31864">
        <ele>373.1</ele>
        <time>2015-10-17T13:17:54Z</time>
      </trkpt>
      <trkpt lat="44.76767" lon="5.31891">
        <ele>373.1</ele>
        <time>2015-10-17T13:17:55Z</time>
      </trkpt>
      <trkpt lat="44.76707" lon="5.3222">
        <ele>375.1</ele>
        <time>2015-10-17T13:18:08Z</time>
      </trkpt>
      <trkpt lat="44.76656" lon="5.32557">
        <ele>377.9</ele>
        <time>2015-10-17T13:18:21Z</time>
      </trkpt>
      <trkpt lat="44.7665" lon="5.32892">
        <ele>380.3</ele>
        <time>2015-10-17T13:18:33Z</time>
      </trkpt>
      <trkpt lat="44.76642" lon="5.33179">
        <ele>377.9</ele>
        <time>2015-10-17T13:18:43Z</time>
      </trkpt>
      <trkpt lat="44.76563" lon="5.33448">
        <ele>378.4</ele>
        <time>2015-10-17T13:18:52Z</time>
      </trkpt>
      <trkpt lat="44.76504" lon="5.33713">
        <ele>382.3</ele>
        <time>2015-10-17T13:19:01Z</time>
      </trkpt>
      <trkpt lat="44.76453" lon="5.34147">
        <ele>384.2</ele>
        <time>2015-10-17T13:19:15Z</time>
      </trkpt>
      <trkpt lat="44.76399" lon="5.34362">
        <ele>383.7</ele>
        <time>2015-10-17T13:19:23Z</time>
      </trkpt>
      <trkpt lat="44.7635" lon="5.34558">
        <ele>384.2</ele>
        <time>2015-10-17T13:19:31Z</time>
      </trkpt>
      <trkpt lat="44.76304" lon="5.34743">
        <ele>385.6</ele>
        <time>2015-10-17T13:19:39Z</time>
      </trkpt>
      <trkpt lat="44.76276" lon="5.34841">
        <ele>387.1</ele>
        <time>2015-10-17T13:19:45Z</time>
      </trkpt>
      <trkpt lat="44.76271" lon="5.34853">
        <ele>387.1</ele>
        <time>2015-10-17T13:19:46Z</time>
      </trkpt>
      <trkpt lat="44.76263" lon="5.34864">
        <ele>387.6</ele>
        <time>2015-10-17T13:19:47Z</time>
      </trkpt>
      <trkpt lat="44.76255" lon="5.34873">
        <ele>388</ele>
        <time>2015-10-17T13:19:48Z</time>
      </trkpt>
      <trkpt lat="44.76248" lon="5.34883">
        <ele>388</ele>
        <time>2015-10-17T13:19:49Z</time>
      </trkpt>
      <trkpt lat="44.76244" lon="5.34892">
        <ele>388</ele>
        <time>2015-10-17T13:19:50Z</time>
      </trkpt>
      <trkpt lat="44.76245" lon="5.34902">
        <ele>388</ele>
        <time>2015-10-17T13:19:51Z</time>
      </trkpt>
      <trkpt lat="44.7625" lon="5.34914">
        <ele>388</ele>
        <time>2015-10-17T13:19:52Z</time>
      </trkpt>
      <trkpt lat="44.76253" lon="5.34928">
        <ele>388.5</ele>
        <time>2015-10-17T13:19:53Z</time>
      </trkpt>
      <trkpt lat="44.76253" lon="5.34944">
        <ele>388.5</ele>
        <time>2015-10-17T13:19:54Z</time>
      </trkpt>
      <trkpt lat="44.7625" lon="5.34961">
        <ele>388.5</ele>
        <time>2015-10-17T13:19:55Z</time>
      </trkpt>
      <trkpt lat="44.76245" lon="5.34979">
        <ele>388.5</ele>
        <time>2015-10-17T13:19:56Z</time>
      </trkpt>
      <trkpt lat="44.76195" lon="5.35178">
        <ele>390.9</ele>
        <time>2015-10-17T13:20:06Z</time>
      </trkpt>
      <trkpt lat="44.76149" lon="5.35369">
        <ele>393.3</ele>
        <time>2015-10-17T13:20:17Z</time>
      </trkpt>
      <trkpt lat="44.76096" lon="5.35578">
        <ele>395.7</ele>
        <time>2015-10-17T13:20:29Z</time>
      </trkpt>
      <trkpt lat="44.76073" lon="5.35673">
        <ele>397.2</ele>
        <time>2015-10-17T13:20:37Z</time>
      </trkpt>
      <trkpt lat="44.76062" lon="5.35714">
        <ele>397.6</ele>
        <time>2015-10-17T13:20:43Z</time>
      </trkpt>
      <trkpt lat="44.76021" lon="5.35886">
        <ele>400.5</ele>
        <time>2015-10-17T13:20:53Z</time>
      </trkpt>
      <trkpt lat="44.75961" lon="5.36118">
        <ele>400.5</ele>
        <time>2015-10-17T13:21:07Z</time>
      </trkpt>
      <trkpt lat="44.75949" lon="5.36156">
        <ele>401.5</ele>
        <time>2015-10-17T13:21:13Z</time>
      </trkpt>
      <trkpt lat="44.75949" lon="5.3616">
        <ele>401</ele>
        <time>2015-10-17T13:21:14Z</time>
      </trkpt>
      <trkpt lat="44.75952" lon="5.36164">
        <ele>401</ele>
        <time>2015-10-17T13:21:15Z</time>
      </trkpt>
      <trkpt lat="44.75956" lon="5.36165">
        <ele>401</ele>
        <time>2015-10-17T13:21:16Z</time>
      </trkpt>
      <trkpt lat="44.75963" lon="5.3616">
        <ele>401</ele>
        <time>2015-10-17T13:21:17Z</time>
      </trkpt>
      <trkpt lat="44.75969" lon="5.36153">
        <ele>401</ele>
        <time>2015-10-17T13:21:18Z</time>
      </trkpt>
      <trkpt lat="44.75975" lon="5.36144">
        <ele>401</ele>
        <time>2015-10-17T13:21:19Z</time>
      </trkpt>
      <trkpt lat="44.75983" lon="5.36134">
        <ele>401</ele>
        <time>2015-10-17T13:21:20Z</time>
      </trkpt>
      <trkpt lat="44.7605" lon="5.36048">
        <ele>402.5</ele>
        <time>2015-10-17T13:21:28Z</time>
      </trkpt>
      <trkpt lat="44.76076" lon="5.36019">
        <ele>402.9</ele>
        <time>2015-10-17T13:21:31Z</time>
      </trkpt>
      <trkpt lat="44.76086" lon="5.36014">
        <ele>403.4</ele>
        <time>2015-10-17T13:21:32Z</time>
      </trkpt>
      <trkpt lat="44.76098" lon="5.36015">
        <ele>403.4</ele>
        <time>2015-10-17T13:21:33Z</time>
      </trkpt>
      <trkpt lat="44.76111" lon="5.36023">
        <ele>403.4</ele>
        <time>2015-10-17T13:21:34Z</time>
      </trkpt>
      <trkpt lat="44.76122" lon="5.36032">
        <ele>403.4</ele>
        <time>2015-10-17T13:21:35Z</time>
      </trkpt>
      <trkpt lat="44.76133" lon="5.36045">
        <ele>403.9</ele>
        <time>2015-10-17T13:21:36Z</time>
      </trkpt>
      <trkpt lat="44.76143" lon="5.36058">
        <ele>404.4</ele>
        <time>2015-10-17T13:21:37Z</time>
      </trkpt>
      <trkpt lat="44.76269" lon="5.36167">
        <ele>407.7</ele>
        <time>2015-10-17T13:21:46Z</time>
      </trkpt>
      <trkpt lat="44.76377" lon="5.36233">
        <ele>413</ele>
        <time>2015-10-17T13:21:53Z</time>
      </trkpt>
      <trkpt lat="44.76393" lon="5.36236">
        <ele>413.5</ele>
        <time>2015-10-17T13:21:54Z</time>
      </trkpt>
      <trkpt lat="44.76531" lon="5.36246">
        <ele>415</ele>
        <time>2015-10-17T13:22:04Z</time>
      </trkpt>
      <trkpt lat="44.76633" lon="5.36259">
        <ele>416.4</ele>
        <time>2015-10-17T13:22:14Z</time>
      </trkpt>
      <trkpt lat="44.76676" lon="5.3626">
        <ele>416.4</ele>
        <time>2015-10-17T13:22:18Z</time>
      </trkpt>
      <trkpt lat="44.76688" lon="5.36257">
        <ele>416.4</ele>
        <time>2015-10-17T13:22:19Z</time>
      </trkpt>
      <trkpt lat="44.767" lon="5.36252">
        <ele>416.4</ele>
        <time>2015-10-17T13:22:20Z</time>
      </trkpt>
      <trkpt lat="44.76847" lon="5.36167">
        <ele>414</ele>
        <time>2015-10-17T13:22:32Z</time>
      </trkpt>
      <trkpt lat="44.7697" lon="5.36129">
        <ele>412.1</ele>
        <time>2015-10-17T13:22:39Z</time>
      </trkpt>
      <trkpt lat="44.77072" lon="5.36104">
        <ele>412.1</ele>
        <time>2015-10-17T13:22:45Z</time>
      </trkpt>
      <trkpt lat="44.77089" lon="5.36105">
        <ele>412.5</ele>
        <time>2015-10-17T13:22:46Z</time>
      </trkpt>
      <trkpt lat="44.77107" lon="5.36109">
        <ele>412.1</ele>
        <time>2015-10-17T13:22:47Z</time>
      </trkpt>
      <trkpt lat="44.77125" lon="5.36117">
        <ele>412.5</ele>
        <time>2015-10-17T13:22:48Z</time>
      </trkpt>
      <trkpt lat="44.77144" lon="5.36128">
        <ele>413</ele>
        <time>2015-10-17T13:22:49Z</time>
      </trkpt>
      <trkpt lat="44.77162" lon="5.36141">
        <ele>413.5</ele>
        <time>2015-10-17T13:22:50Z</time>
      </trkpt>
      <trkpt lat="44.77181" lon="5.36156">
        <ele>414</ele>
        <time>2015-10-17T13:22:51Z</time>
      </trkpt>
      <trkpt lat="44.77333" lon="5.36243">
        <ele>422.2</ele>
        <time>2015-10-17T13:22:59Z</time>
      </trkpt>
      <trkpt lat="44.77473" lon="5.36296">
        <ele>433.7</ele>
        <time>2015-10-17T13:23:06Z</time>
      </trkpt>
      <trkpt lat="44.77491" lon="5.36311">
        <ele>435.1</ele>
        <time>2015-10-17T13:23:07Z</time>
      </trkpt>
      <trkpt lat="44.77508" lon="5.36329">
        <ele>437.1</ele>
        <time>2015-10-17T13:23:08Z</time>
      </trkpt>
      <trkpt lat="44.77617" lon="5.36454">
        <ele>448.1</ele>
        <time>2015-10-17T13:23:15Z</time>
      </trkpt>
      <trkpt lat="44.77634" lon="5.36463">
        <ele>449.6</ele>
        <time>2015-10-17T13:23:16Z</time>
      </trkpt>
      <trkpt lat="44.77672" lon="5.3648">
        <ele>452.4</ele>
        <time>2015-10-17T13:23:18Z</time>
      </trkpt>
      <trkpt lat="44.7769" lon="5.36492">
        <ele>453.9</ele>
        <time>2015-10-17T13:23:19Z</time>
      </trkpt>
      <trkpt lat="44.77726" lon="5.36517">
        <ele>456.8</ele>
        <time>2015-10-17T13:23:21Z</time>
      </trkpt>
      <trkpt lat="44.77744" lon="5.36525">
        <ele>457.7</ele>
        <time>2015-10-17T13:23:22Z</time>
      </trkpt>
      <trkpt lat="44.77762" lon="5.36529">
        <ele>459.2</ele>
        <time>2015-10-17T13:23:23Z</time>
      </trkpt>
      <trkpt lat="44.778" lon="5.36537">
        <ele>461.6</ele>
        <time>2015-10-17T13:23:25Z</time>
      </trkpt>
      <trkpt lat="44.77818" lon="5.36544">
        <ele>463</ele>
        <time>2015-10-17T13:23:26Z</time>
      </trkpt>
      <trkpt lat="44.77835" lon="5.36555">
        <ele>464.9</ele>
        <time>2015-10-17T13:23:27Z</time>
      </trkpt>
      <trkpt lat="44.77852" lon="5.36569">
        <ele>466.9</ele>
        <time>2015-10-17T13:23:28Z</time>
      </trkpt>
      <trkpt lat="44.77868" lon="5.36585">
        <ele>468.3</ele>
        <time>2015-10-17T13:23:29Z</time>
      </trkpt>
      <trkpt lat="44.77981" lon="5.36674">
        <ele>478.4</ele>
        <time>2015-10-17T13:23:36Z</time>
      </trkpt>
      <trkpt lat="44.78" lon="5.36673">
        <ele>480.3</ele>
        <time>2015-10-17T13:23:37Z</time>
      </trkpt>
      <trkpt lat="44.78044" lon="5.36677">
        <ele>483.2</ele>
        <time>2015-10-17T13:23:39Z</time>
      </trkpt>
      <trkpt lat="44.78187" lon="5.36711">
        <ele>493.8</ele>
        <time>2015-10-17T13:23:46Z</time>
      </trkpt>
      <trkpt lat="44.78205" lon="5.36718">
        <ele>495.2</ele>
        <time>2015-10-17T13:23:47Z</time>
      </trkpt>
      <trkpt lat="44.78223" lon="5.36728">
        <ele>496.7</ele>
        <time>2015-10-17T13:23:48Z</time>
      </trkpt>
      <trkpt lat="44.78241" lon="5.36737">
        <ele>498.1</ele>
        <time>2015-10-17T13:23:49Z</time>
      </trkpt>
      <trkpt lat="44.78259" lon="5.36745">
        <ele>500</ele>
        <time>2015-10-17T13:23:50Z</time>
      </trkpt>
      <trkpt lat="44.78276" lon="5.36752">
        <ele>501.5</ele>
        <time>2015-10-17T13:23:51Z</time>
      </trkpt>
      <trkpt lat="44.78352" lon="5.36787">
        <ele>508.2</ele>
        <time>2015-10-17T13:23:56Z</time>
      </trkpt>
      <trkpt lat="44.78366" lon="5.36783">
        <ele>508.7</ele>
        <time>2015-10-17T13:23:57Z</time>
      </trkpt>
      <trkpt lat="44.78378" lon="5.36771">
        <ele>510.1</ele>
        <time>2015-10-17T13:23:58Z</time>
      </trkpt>
      <trkpt lat="44.78391" lon="5.36766">
        <ele>510.6</ele>
        <time>2015-10-17T13:23:59Z</time>
      </trkpt>
      <trkpt lat="44.78403" lon="5.36765">
        <ele>511.6</ele>
        <time>2015-10-17T13:24:00Z</time>
      </trkpt>
      <trkpt lat="44.78416" lon="5.36772">
        <ele>512.5</ele>
        <time>2015-10-17T13:24:01Z</time>
      </trkpt>
      <trkpt lat="44.78429" lon="5.36785">
        <ele>513.5</ele>
        <time>2015-10-17T13:24:02Z</time>
      </trkpt>
      <trkpt lat="44.7844" lon="5.36805">
        <ele>511.6</ele>
        <time>2015-10-17T13:24:03Z</time>
      </trkpt>
      <trkpt lat="44.7845" lon="5.36825">
        <ele>508.2</ele>
        <time>2015-10-17T13:24:04Z</time>
      </trkpt>
      <trkpt lat="44.78458" lon="5.36844">
        <ele>507.7</ele>
        <time>2015-10-17T13:24:05Z</time>
      </trkpt>
      <trkpt lat="44.78466" lon="5.36862">
        <ele>508.2</ele>
        <time>2015-10-17T13:24:06Z</time>
      </trkpt>
      <trkpt lat="44.78474" lon="5.36875">
        <ele>508.2</ele>
        <time>2015-10-17T13:24:07Z</time>
      </trkpt>
      <trkpt lat="44.78484" lon="5.36883">
        <ele>507.7</ele>
        <time>2015-10-17T13:24:08Z</time>
      </trkpt>
      <trkpt lat="44.78496" lon="5.36882">
        <ele>507.7</ele>
        <time>2015-10-17T13:24:09Z</time>
      </trkpt>
      <trkpt lat="44.78507" lon="5.36875">
        <ele>508.2</ele>
        <time>2015-10-17T13:24:10Z</time>
      </trkpt>
      <trkpt lat="44.78518" lon="5.36862">
        <ele>508.7</ele>
        <time>2015-10-17T13:24:11Z</time>
      </trkpt>
      <trkpt lat="44.78527" lon="5.36844">
        <ele>509.2</ele>
        <time>2015-10-17T13:24:12Z</time>
      </trkpt>
      <trkpt lat="44.78538" lon="5.36827">
        <ele>510.6</ele>
        <time>2015-10-17T13:24:13Z</time>
      </trkpt>
      <trkpt lat="44.7855" lon="5.36814">
        <ele>511.6</ele>
        <time>2015-10-17T13:24:14Z</time>
      </trkpt>
      <trkpt lat="44.78564" lon="5.36803">
        <ele>512.5</ele>
        <time>2015-10-17T13:24:15Z</time>
      </trkpt>
      <trkpt lat="44.7858" lon="5.36794">
        <ele>514</ele>
        <time>2015-10-17T13:24:16Z</time>
      </trkpt>
      <trkpt lat="44.78625" lon="5.36764">
        <ele>517.8</ele>
        <time>2015-10-17T13:24:19Z</time>
      </trkpt>
      <trkpt lat="44.78639" lon="5.3675">
        <ele>518.3</ele>
        <time>2015-10-17T13:24:20Z</time>
      </trkpt>
      <trkpt lat="44.78651" lon="5.36733">
        <ele>519.7</ele>
        <time>2015-10-17T13:24:21Z</time>
      </trkpt>
      <trkpt lat="44.78662" lon="5.36714">
        <ele>520.7</ele>
        <time>2015-10-17T13:24:22Z</time>
      </trkpt>
      <trkpt lat="44.78672" lon="5.36696">
        <ele>522.1</ele>
        <time>2015-10-17T13:24:23Z</time>
      </trkpt>
      <trkpt lat="44.78692" lon="5.36664">
        <ele>523.6</ele>
        <time>2015-10-17T13:24:25Z</time>
      </trkpt>
      <trkpt lat="44.78704" lon="5.36654">
        <ele>524.1</ele>
        <time>2015-10-17T13:24:26Z</time>
      </trkpt>
      <trkpt lat="44.78719" lon="5.36651">
        <ele>523.6</ele>
        <time>2015-10-17T13:24:27Z</time>
      </trkpt>
      <trkpt lat="44.78735" lon="5.36651">
        <ele>524.5</ele>
        <time>2015-10-17T13:24:28Z</time>
      </trkpt>
      <trkpt lat="44.78753" lon="5.36653">
        <ele>525</ele>
        <time>2015-10-17T13:24:29Z</time>
      </trkpt>
      <trkpt lat="44.78772" lon="5.36655">
        <ele>526</ele>
        <time>2015-10-17T13:24:30Z</time>
      </trkpt>
      <trkpt lat="44.7879" lon="5.36653">
        <ele>526.9</ele>
        <time>2015-10-17T13:24:31Z</time>
      </trkpt>
      <trkpt lat="44.78809" lon="5.36651">
        <ele>527.9</ele>
        <time>2015-10-17T13:24:32Z</time>
      </trkpt>
      <trkpt lat="44.78844" lon="5.36642">
        <ele>529.3</ele>
        <time>2015-10-17T13:24:34Z</time>
      </trkpt>
      <trkpt lat="44.78875" lon="5.36631">
        <ele>530.8</ele>
        <time>2015-10-17T13:24:36Z</time>
      </trkpt>
      <trkpt lat="44.7889" lon="5.3663">
        <ele>531.3</ele>
        <time>2015-10-17T13:24:37Z</time>
      </trkpt>
      <trkpt lat="44.78905" lon="5.36636">
        <ele>532.2</ele>
        <time>2015-10-17T13:24:38Z</time>
      </trkpt>
      <trkpt lat="44.79004" lon="5.3669">
        <ele>535.1</ele>
        <time>2015-10-17T13:24:44Z</time>
      </trkpt>
      <trkpt lat="44.79018" lon="5.36704">
        <ele>535.1</ele>
        <time>2015-10-17T13:24:45Z</time>
      </trkpt>
      <trkpt lat="44.79031" lon="5.36722">
        <ele>535.1</ele>
        <time>2015-10-17T13:24:46Z</time>
      </trkpt>
      <trkpt lat="44.7904" lon="5.36747">
        <ele>535.6</ele>
        <time>2015-10-17T13:24:47Z</time>
      </trkpt>
      <trkpt lat="44.7905" lon="5.36769">
        <ele>536.6</ele>
        <time>2015-10-17T13:24:48Z</time>
      </trkpt>
      <trkpt lat="44.79127" lon="5.36894">
        <ele>539.4</ele>
        <time>2015-10-17T13:24:54Z</time>
      </trkpt>
      <trkpt lat="44.79144" lon="5.3691">
        <ele>539.9</ele>
        <time>2015-10-17T13:24:55Z</time>
      </trkpt>
      <trkpt lat="44.79193" lon="5.36961">
        <ele>540.9</ele>
        <time>2015-10-17T13:24:58Z</time>
      </trkpt>
      <trkpt lat="44.79207" lon="5.36982">
        <ele>541.4</ele>
        <time>2015-10-17T13:24:59Z</time>
      </trkpt>
      <trkpt lat="44.79299" lon="5.37142">
        <ele>543.8</ele>
        <time>2015-10-17T13:25:06Z</time>
      </trkpt>
      <trkpt lat="44.79308" lon="5.37167">
        <ele>544.2</ele>
        <time>2015-10-17T13:25:07Z</time>
      </trkpt>
      <trkpt lat="44.79315" lon="5.37194">
        <ele>544.2</ele>
        <time>2015-10-17T13:25:08Z</time>
      </trkpt>
      <trkpt lat="44.79351" lon="5.37435">
        <ele>546.7</ele>
        <time>2015-10-17T13:25:16Z</time>
      </trkpt>
      <trkpt lat="44.79381" lon="5.37642">
        <ele>544.7</ele>
        <time>2015-10-17T13:25:23Z</time>
      </trkpt>
      <trkpt lat="44.79418" lon="5.37807">
        <ele>542.3</ele>
        <time>2015-10-17T13:25:29Z</time>
      </trkpt>
      <trkpt lat="44.79418" lon="5.37838">
        <ele>541.8</ele>
        <time>2015-10-17T13:25:30Z</time>
      </trkpt>
      <trkpt lat="44.7942" lon="5.37988">
        <ele>539.4</ele>
        <time>2015-10-17T13:25:35Z</time>
      </trkpt>
      <trkpt lat="44.79426" lon="5.38017">
        <ele>539</ele>
        <time>2015-10-17T13:25:36Z</time>
      </trkpt>
      <trkpt lat="44.79433" lon="5.38046">
        <ele>538</ele>
        <time>2015-10-17T13:25:37Z</time>
      </trkpt>
      <trkpt lat="44.79508" lon="5.38265">
        <ele>532.7</ele>
        <time>2015-10-17T13:25:45Z</time>
      </trkpt>
      <trkpt lat="44.79523" lon="5.38298">
        <ele>531.3</ele>
        <time>2015-10-17T13:25:47Z</time>
      </trkpt>
      <trkpt lat="44.79532" lon="5.38305">
        <ele>530.3</ele>
        <time>2015-10-17T13:25:48Z</time>
      </trkpt>
      <trkpt lat="44.79542" lon="5.38305">
        <ele>529.8</ele>
        <time>2015-10-17T13:25:49Z</time>
      </trkpt>
      <trkpt lat="44.79555" lon="5.38306">
        <ele>530.3</ele>
        <time>2015-10-17T13:25:50Z</time>
      </trkpt>
      <trkpt lat="44.79575" lon="5.38302">
        <ele>531.3</ele>
        <time>2015-10-17T13:25:51Z</time>
      </trkpt>
      <trkpt lat="44.79593" lon="5.38298">
        <ele>532.2</ele>
        <time>2015-10-17T13:25:52Z</time>
      </trkpt>
      <trkpt lat="44.7961" lon="5.38296">
        <ele>532.7</ele>
        <time>2015-10-17T13:25:53Z</time>
      </trkpt>
      <trkpt lat="44.79679" lon="5.38302">
        <ele>534.6</ele>
        <time>2015-10-17T13:25:59Z</time>
      </trkpt>
      <trkpt lat="44.79743" lon="5.38325">
        <ele>539.4</ele>
        <time>2015-10-17T13:26:06Z</time>
      </trkpt>
      <trkpt lat="44.79754" lon="5.38327">
        <ele>540.4</ele>
        <time>2015-10-17T13:26:07Z</time>
      </trkpt>
      <trkpt lat="44.79765" lon="5.38326">
        <ele>541.4</ele>
        <time>2015-10-17T13:26:08Z</time>
      </trkpt>
      <trkpt lat="44.79775" lon="5.38325">
        <ele>542.3</ele>
        <time>2015-10-17T13:26:09Z</time>
      </trkpt>
      <trkpt lat="44.79786" lon="5.38326">
        <ele>543.3</ele>
        <time>2015-10-17T13:26:10Z</time>
      </trkpt>
      <trkpt lat="44.79796" lon="5.38329">
        <ele>544.2</ele>
        <time>2015-10-17T13:26:11Z</time>
      </trkpt>
      <trkpt lat="44.79806" lon="5.38332">
        <ele>545.2</ele>
        <time>2015-10-17T13:26:12Z</time>
      </trkpt>
      <trkpt lat="44.7985" lon="5.38354">
        <ele>549.1</ele>
        <time>2015-10-17T13:26:17Z</time>
      </trkpt>
      <trkpt lat="44.79858" lon="5.38361">
        <ele>550</ele>
        <time>2015-10-17T13:26:18Z</time>
      </trkpt>
      <trkpt lat="44.79917" lon="5.3843">
        <ele>554.3</ele>
        <time>2015-10-17T13:26:28Z</time>
      </trkpt>
      <trkpt lat="44.79921" lon="5.38437">
        <ele>554.3</ele>
        <time>2015-10-17T13:26:29Z</time>
      </trkpt>
      <trkpt lat="44.79936" lon="5.38472">
        <ele>554.8</ele>
        <time>2015-10-17T13:26:33Z</time>
      </trkpt>
      <trkpt lat="44.79942" lon="5.3848">
        <ele>554.8</ele>
        <time>2015-10-17T13:26:34Z</time>
      </trkpt>
      <trkpt lat="44.80013" lon="5.38564">
        <ele>560.1</ele>
        <time>2015-10-17T13:26:44Z</time>
      </trkpt>
      <trkpt lat="44.80118" lon="5.38669">
        <ele>567.8</ele>
        <time>2015-10-17T13:26:54Z</time>
      </trkpt>
      <trkpt lat="44.80146" lon="5.38687">
        <ele>569.2</ele>
        <time>2015-10-17T13:26:56Z</time>
      </trkpt>
      <trkpt lat="44.8016" lon="5.38693">
        <ele>570.2</ele>
        <time>2015-10-17T13:26:57Z</time>
      </trkpt>
      <trkpt lat="44.80175" lon="5.38696">
        <ele>571.2</ele>
        <time>2015-10-17T13:26:58Z</time>
      </trkpt>
      <trkpt lat="44.8019" lon="5.38695">
        <ele>572.1</ele>
        <time>2015-10-17T13:26:59Z</time>
      </trkpt>
      <trkpt lat="44.80203" lon="5.38691">
        <ele>572.6</ele>
        <time>2015-10-17T13:27:00Z</time>
      </trkpt>
      <trkpt lat="44.80215" lon="5.38688">
        <ele>573.6</ele>
        <time>2015-10-17T13:27:01Z</time>
      </trkpt>
      <trkpt lat="44.80226" lon="5.38688">
        <ele>574</ele>
        <time>2015-10-17T13:27:02Z</time>
      </trkpt>
      <trkpt lat="44.80236" lon="5.38692">
        <ele>574.5</ele>
        <time>2015-10-17T13:27:03Z</time>
      </trkpt>
      <trkpt lat="44.80241" lon="5.38702">
        <ele>575</ele>
        <time>2015-10-17T13:27:04Z</time>
      </trkpt>
      <trkpt lat="44.8024" lon="5.38716">
        <ele>575.5</ele>
        <time>2015-10-17T13:27:05Z</time>
      </trkpt>
      <trkpt lat="44.80235" lon="5.38731">
        <ele>576</ele>
        <time>2015-10-17T13:27:06Z</time>
      </trkpt>
      <trkpt lat="44.80228" lon="5.38747">
        <ele>576.5</ele>
        <time>2015-10-17T13:27:07Z</time>
      </trkpt>
      <trkpt lat="44.80223" lon="5.38765">
        <ele>576.5</ele>
        <time>2015-10-17T13:27:08Z</time>
      </trkpt>
      <trkpt lat="44.8022" lon="5.38785">
        <ele>577.9</ele>
        <time>2015-10-17T13:27:09Z</time>
      </trkpt>
      <trkpt lat="44.80221" lon="5.38805">
        <ele>578.4</ele>
        <time>2015-10-17T13:27:10Z</time>
      </trkpt>
      <trkpt lat="44.80227" lon="5.38826">
        <ele>579.3</ele>
        <time>2015-10-17T13:27:11Z</time>
      </trkpt>
      <trkpt lat="44.80236" lon="5.38845">
        <ele>580.8</ele>
        <time>2015-10-17T13:27:12Z</time>
      </trkpt>
      <trkpt lat="44.80247" lon="5.38865">
        <ele>581.7</ele>
        <time>2015-10-17T13:27:13Z</time>
      </trkpt>
      <trkpt lat="44.80266" lon="5.38904">
        <ele>583.7</ele>
        <time>2015-10-17T13:27:15Z</time>
      </trkpt>
      <trkpt lat="44.80284" lon="5.38944">
        <ele>585.6</ele>
        <time>2015-10-17T13:27:17Z</time>
      </trkpt>
      <trkpt lat="44.80296" lon="5.3896">
        <ele>586.5</ele>
        <time>2015-10-17T13:27:18Z</time>
      </trkpt>
      <trkpt lat="44.80309" lon="5.38973">
        <ele>587.5</ele>
        <time>2015-10-17T13:27:19Z</time>
      </trkpt>
      <trkpt lat="44.80321" lon="5.38987">
        <ele>588.5</ele>
        <time>2015-10-17T13:27:20Z</time>
      </trkpt>
      <trkpt lat="44.8033" lon="5.39003">
        <ele>589.4</ele>
        <time>2015-10-17T13:27:21Z</time>
      </trkpt>
      <trkpt lat="44.80336" lon="5.39021">
        <ele>590.9</ele>
        <time>2015-10-17T13:27:22Z</time>
      </trkpt>
      <trkpt lat="44.80344" lon="5.39038">
        <ele>592.3</ele>
        <time>2015-10-17T13:27:23Z</time>
      </trkpt>
      <trkpt lat="44.80353" lon="5.39053">
        <ele>593.3</ele>
        <time>2015-10-17T13:27:24Z</time>
      </trkpt>
      <trkpt lat="44.80363" lon="5.39069">
        <ele>594.2</ele>
        <time>2015-10-17T13:27:25Z</time>
      </trkpt>
      <trkpt lat="44.80394" lon="5.39109">
        <ele>597.6</ele>
        <time>2015-10-17T13:27:28Z</time>
      </trkpt>
      <trkpt lat="44.80406" lon="5.39118">
        <ele>598.6</ele>
        <time>2015-10-17T13:27:29Z</time>
      </trkpt>
      <trkpt lat="44.8042" lon="5.39123">
        <ele>599.5</ele>
        <time>2015-10-17T13:27:30Z</time>
      </trkpt>
      <trkpt lat="44.80437" lon="5.39124">
        <ele>600.5</ele>
        <time>2015-10-17T13:27:31Z</time>
      </trkpt>
      <trkpt lat="44.80454" lon="5.39124">
        <ele>601.4</ele>
        <time>2015-10-17T13:27:32Z</time>
      </trkpt>
      <trkpt lat="44.80472" lon="5.39123">
        <ele>602.4</ele>
        <time>2015-10-17T13:27:33Z</time>
      </trkpt>
      <trkpt lat="44.80525" lon="5.39115">
        <ele>605.3</ele>
        <time>2015-10-17T13:27:36Z</time>
      </trkpt>
      <trkpt lat="44.80542" lon="5.39107">
        <ele>606.3</ele>
        <time>2015-10-17T13:27:37Z</time>
      </trkpt>
      <trkpt lat="44.80559" lon="5.39097">
        <ele>607.2</ele>
        <time>2015-10-17T13:27:38Z</time>
      </trkpt>
      <trkpt lat="44.80645" lon="5.39047">
        <ele>611.1</ele>
        <time>2015-10-17T13:27:44Z</time>
      </trkpt>
      <trkpt lat="44.80653" lon="5.39044">
        <ele>612</ele>
        <time>2015-10-17T13:27:45Z</time>
      </trkpt>
      <trkpt lat="44.80659" lon="5.3905">
        <ele>612.5</ele>
        <time>2015-10-17T13:27:46Z</time>
      </trkpt>
      <trkpt lat="44.80661" lon="5.39062">
        <ele>613</ele>
        <time>2015-10-17T13:27:47Z</time>
      </trkpt>
      <trkpt lat="44.8066" lon="5.39078">
        <ele>613</ele>
        <time>2015-10-17T13:27:48Z</time>
      </trkpt>
      <trkpt lat="44.80656" lon="5.39094">
        <ele>613.5</ele>
        <time>2015-10-17T13:27:49Z</time>
      </trkpt>
      <trkpt lat="44.80649" lon="5.39111">
        <ele>613.9</ele>
        <time>2015-10-17T13:27:50Z</time>
      </trkpt>
      <trkpt lat="44.80646" lon="5.39129">
        <ele>614.4</ele>
        <time>2015-10-17T13:27:51Z</time>
      </trkpt>
      <trkpt lat="44.80646" lon="5.3915">
        <ele>615.9</ele>
        <time>2015-10-17T13:27:52Z</time>
      </trkpt>
      <trkpt lat="44.80648" lon="5.39172">
        <ele>616.8</ele>
        <time>2015-10-17T13:27:53Z</time>
      </trkpt>
      <trkpt lat="44.80651" lon="5.39195">
        <ele>617.8</ele>
        <time>2015-10-17T13:27:54Z</time>
      </trkpt>
      <trkpt lat="44.80656" lon="5.39219">
        <ele>618.8</ele>
        <time>2015-10-17T13:27:55Z</time>
      </trkpt>
      <trkpt lat="44.80663" lon="5.39241">
        <ele>619.2</ele>
        <time>2015-10-17T13:27:56Z</time>
      </trkpt>
      <trkpt lat="44.80672" lon="5.39262">
        <ele>619.7</ele>
        <time>2015-10-17T13:27:57Z</time>
      </trkpt>
      <trkpt lat="44.80687" lon="5.39296">
        <ele>621.2</ele>
        <time>2015-10-17T13:27:59Z</time>
      </trkpt>
      <trkpt lat="44.80696" lon="5.39308">
        <ele>622.1</ele>
        <time>2015-10-17T13:28:00Z</time>
      </trkpt>
      <trkpt lat="44.80705" lon="5.39317">
        <ele>623.1</ele>
        <time>2015-10-17T13:28:01Z</time>
      </trkpt>
      <trkpt lat="44.80716" lon="5.39322">
        <ele>623.6</ele>
        <time>2015-10-17T13:28:02Z</time>
      </trkpt>
      <trkpt lat="44.80732" lon="5.39323">
        <ele>624.5</ele>
        <time>2015-10-17T13:28:03Z</time>
      </trkpt>
      <trkpt lat="44.80753" lon="5.39323">
        <ele>625.5</ele>
        <time>2015-10-17T13:28:04Z</time>
      </trkpt>
      <trkpt lat="44.80772" lon="5.3933">
        <ele>626.9</ele>
        <time>2015-10-17T13:28:05Z</time>
      </trkpt>
      <trkpt lat="44.80789" lon="5.3934">
        <ele>627.9</ele>
        <time>2015-10-17T13:28:06Z</time>
      </trkpt>
      <trkpt lat="44.80821" lon="5.39359">
        <ele>629.8</ele>
        <time>2015-10-17T13:28:08Z</time>
      </trkpt>
      <trkpt lat="44.80837" lon="5.39364">
        <ele>630.8</ele>
        <time>2015-10-17T13:28:09Z</time>
      </trkpt>
      <trkpt lat="44.80854" lon="5.39365">
        <ele>632.2</ele>
        <time>2015-10-17T13:28:10Z</time>
      </trkpt>
      <trkpt lat="44.80893" lon="5.39368">
        <ele>634.6</ele>
        <time>2015-10-17T13:28:12Z</time>
      </trkpt>
      <trkpt lat="44.80913" lon="5.39372">
        <ele>635.6</ele>
        <time>2015-10-17T13:28:13Z</time>
      </trkpt>
      <trkpt lat="44.81053" lon="5.39387">
        <ele>643.3</ele>
        <time>2015-10-17T13:28:20Z</time>
      </trkpt>
      <trkpt lat="44.81073" lon="5.39392">
        <ele>644.7</ele>
        <time>2015-10-17T13:28:21Z</time>
      </trkpt>
      <trkpt lat="44.81092" lon="5.394">
        <ele>646.1</ele>
        <time>2015-10-17T13:28:22Z</time>
      </trkpt>
      <trkpt lat="44.81184" lon="5.39447">
        <ele>651</ele>
        <time>2015-10-17T13:28:27Z</time>
      </trkpt>
      <trkpt lat="44.812" lon="5.39445">
        <ele>651.9</ele>
        <time>2015-10-17T13:28:28Z</time>
      </trkpt>
      <trkpt lat="44.81215" lon="5.39435">
        <ele>652.9</ele>
        <time>2015-10-17T13:28:29Z</time>
      </trkpt>
      <trkpt lat="44.81228" lon="5.39423">
        <ele>652.9</ele>
        <time>2015-10-17T13:28:30Z</time>
      </trkpt>
      <trkpt lat="44.81237" lon="5.39405">
        <ele>652.9</ele>
        <time>2015-10-17T13:28:31Z</time>
      </trkpt>
      <trkpt lat="44.81242" lon="5.39385">
        <ele>653.4</ele>
        <time>2015-10-17T13:28:32Z</time>
      </trkpt>
      <trkpt lat="44.81245" lon="5.39356">
        <ele>656.2</ele>
        <time>2015-10-17T13:28:33Z</time>
      </trkpt>
      <trkpt lat="44.81254" lon="5.3933">
        <ele>658.6</ele>
        <time>2015-10-17T13:28:34Z</time>
      </trkpt>
      <trkpt lat="44.81265" lon="5.39307">
        <ele>660.1</ele>
        <time>2015-10-17T13:28:35Z</time>
      </trkpt>
      <trkpt lat="44.81279" lon="5.39285">
        <ele>661.5</ele>
        <time>2015-10-17T13:28:36Z</time>
      </trkpt>
      <trkpt lat="44.81294" lon="5.39265">
        <ele>662.5</ele>
        <time>2015-10-17T13:28:37Z</time>
      </trkpt>
      <trkpt lat="44.81333" lon="5.39221">
        <ele>665.4</ele>
        <time>2015-10-17T13:28:40Z</time>
      </trkpt>
      <trkpt lat="44.81344" lon="5.39219">
        <ele>666.3</ele>
        <time>2015-10-17T13:28:41Z</time>
      </trkpt>
      <trkpt lat="44.81354" lon="5.39226">
        <ele>667.8</ele>
        <time>2015-10-17T13:28:42Z</time>
      </trkpt>
      <trkpt lat="44.81364" lon="5.39236">
        <ele>668.3</ele>
        <time>2015-10-17T13:28:43Z</time>
      </trkpt>
      <trkpt lat="44.81372" lon="5.3925">
        <ele>669.2</ele>
        <time>2015-10-17T13:28:44Z</time>
      </trkpt>
      <trkpt lat="44.81381" lon="5.39263">
        <ele>670.2</ele>
        <time>2015-10-17T13:28:45Z</time>
      </trkpt>
      <trkpt lat="44.81391" lon="5.39273">
        <ele>671.1</ele>
        <time>2015-10-17T13:28:46Z</time>
      </trkpt>
      <trkpt lat="44.81402" lon="5.39277">
        <ele>672.1</ele>
        <time>2015-10-17T13:28:47Z</time>
      </trkpt>
      <trkpt lat="44.81415" lon="5.39276">
        <ele>672.6</ele>
        <time>2015-10-17T13:28:48Z</time>
      </trkpt>
      <trkpt lat="44.81431" lon="5.39273">
        <ele>673.5</ele>
        <time>2015-10-17T13:28:49Z</time>
      </trkpt>
      <trkpt lat="44.8145" lon="5.39269">
        <ele>674.5</ele>
        <time>2015-10-17T13:28:50Z</time>
      </trkpt>
      <trkpt lat="44.81603" lon="5.39238">
        <ele>682.7</ele>
        <time>2015-10-17T13:28:57Z</time>
      </trkpt>
      <trkpt lat="44.8176" lon="5.39265">
        <ele>691.3</ele>
        <time>2015-10-17T13:29:04Z</time>
      </trkpt>
      <trkpt lat="44.81865" lon="5.39277">
        <ele>697.1</ele>
        <time>2015-10-17T13:29:09Z</time>
      </trkpt>
      <trkpt lat="44.81884" lon="5.39272">
        <ele>698.1</ele>
        <time>2015-10-17T13:29:10Z</time>
      </trkpt>
      <trkpt lat="44.81903" lon="5.39262">
        <ele>698.5</ele>
        <time>2015-10-17T13:29:11Z</time>
      </trkpt>
      <trkpt lat="44.8192" lon="5.39248">
        <ele>699</ele>
        <time>2015-10-17T13:29:12Z</time>
      </trkpt>
      <trkpt lat="44.81936" lon="5.3923">
        <ele>700</ele>
        <time>2015-10-17T13:29:13Z</time>
      </trkpt>
      <trkpt lat="44.81949" lon="5.39214">
        <ele>701.9</ele>
        <time>2015-10-17T13:29:14Z</time>
      </trkpt>
      <trkpt lat="44.81971" lon="5.39193">
        <ele>705.3</ele>
        <time>2015-10-17T13:29:16Z</time>
      </trkpt>
      <trkpt lat="44.81981" lon="5.39192">
        <ele>706.7</ele>
        <time>2015-10-17T13:29:17Z</time>
      </trkpt>
      <trkpt lat="44.81991" lon="5.39201">
        <ele>708.6</ele>
        <time>2015-10-17T13:29:18Z</time>
      </trkpt>
      <trkpt lat="44.81999" lon="5.39214">
        <ele>709.6</ele>
        <time>2015-10-17T13:29:19Z</time>
      </trkpt>
      <trkpt lat="44.82007" lon="5.39232">
        <ele>710.6</ele>
        <time>2015-10-17T13:29:20Z</time>
      </trkpt>
      <trkpt lat="44.82017" lon="5.39249">
        <ele>711.5</ele>
        <time>2015-10-17T13:29:21Z</time>
      </trkpt>
      <trkpt lat="44.82028" lon="5.39263">
        <ele>712.5</ele>
        <time>2015-10-17T13:29:22Z</time>
      </trkpt>
      <trkpt lat="44.82042" lon="5.39275">
        <ele>713.4</ele>
        <time>2015-10-17T13:29:23Z</time>
      </trkpt>
      <trkpt lat="44.82055" lon="5.39289">
        <ele>714.4</ele>
        <time>2015-10-17T13:29:24Z</time>
      </trkpt>
      <trkpt lat="44.82067" lon="5.39306">
        <ele>715.4</ele>
        <time>2015-10-17T13:29:25Z</time>
      </trkpt>
      <trkpt lat="44.82078" lon="5.39326">
        <ele>716.8</ele>
        <time>2015-10-17T13:29:26Z</time>
      </trkpt>
      <trkpt lat="44.82085" lon="5.39347">
        <ele>717.8</ele>
        <time>2015-10-17T13:29:27Z</time>
      </trkpt>
      <trkpt lat="44.82089" lon="5.39369">
        <ele>719.2</ele>
        <time>2015-10-17T13:29:28Z</time>
      </trkpt>
      <trkpt lat="44.82087" lon="5.39392">
        <ele>719.7</ele>
        <time>2015-10-17T13:29:29Z</time>
      </trkpt>
      <trkpt lat="44.8208" lon="5.39414">
        <ele>720.2</ele>
        <time>2015-10-17T13:29:30Z</time>
      </trkpt>
      <trkpt lat="44.82069" lon="5.39433">
        <ele>720.7</ele>
        <time>2015-10-17T13:29:31Z</time>
      </trkpt>
      <trkpt lat="44.82057" lon="5.39449">
        <ele>721.1</ele>
        <time>2015-10-17T13:29:32Z</time>
      </trkpt>
      <trkpt lat="44.82044" lon="5.39461">
        <ele>722.1</ele>
        <time>2015-10-17T13:29:33Z</time>
      </trkpt>
      <trkpt lat="44.82032" lon="5.39476">
        <ele>723.1</ele>
        <time>2015-10-17T13:29:34Z</time>
      </trkpt>
      <trkpt lat="44.82024" lon="5.39491">
        <ele>723.5</ele>
        <time>2015-10-17T13:29:35Z</time>
      </trkpt>
      <trkpt lat="44.82019" lon="5.39507">
        <ele>725</ele>
        <time>2015-10-17T13:29:36Z</time>
      </trkpt>
      <trkpt lat="44.82017" lon="5.39526">
        <ele>725.9</ele>
        <time>2015-10-17T13:29:37Z</time>
      </trkpt>
      <trkpt lat="44.82026" lon="5.39539">
        <ele>726.9</ele>
        <time>2015-10-17T13:29:38Z</time>
      </trkpt>
      <trkpt lat="44.82037" lon="5.39552">
        <ele>728.8</ele>
        <time>2015-10-17T13:29:39Z</time>
      </trkpt>
      <trkpt lat="44.82049" lon="5.39561">
        <ele>730.3</ele>
        <time>2015-10-17T13:29:40Z</time>
      </trkpt>
      <trkpt lat="44.82065" lon="5.39566">
        <ele>731.2</ele>
        <time>2015-10-17T13:29:41Z</time>
      </trkpt>
      <trkpt lat="44.82081" lon="5.39569">
        <ele>732.2</ele>
        <time>2015-10-17T13:29:42Z</time>
      </trkpt>
      <trkpt lat="44.82098" lon="5.39566">
        <ele>733.1</ele>
        <time>2015-10-17T13:29:43Z</time>
      </trkpt>
      <trkpt lat="44.82115" lon="5.39558">
        <ele>733.6</ele>
        <time>2015-10-17T13:29:44Z</time>
      </trkpt>
      <trkpt lat="44.82134" lon="5.39545">
        <ele>734.1</ele>
        <time>2015-10-17T13:29:45Z</time>
      </trkpt>
      <trkpt lat="44.82152" lon="5.39531">
        <ele>735.1</ele>
        <time>2015-10-17T13:29:46Z</time>
      </trkpt>
      <trkpt lat="44.82226" lon="5.39495">
        <ele>739.9</ele>
        <time>2015-10-17T13:29:50Z</time>
      </trkpt>
      <trkpt lat="44.82245" lon="5.39495">
        <ele>740.8</ele>
        <time>2015-10-17T13:29:51Z</time>
      </trkpt>
      <trkpt lat="44.82265" lon="5.39498">
        <ele>741.8</ele>
        <time>2015-10-17T13:29:52Z</time>
      </trkpt>
      <trkpt lat="44.82284" lon="5.39502">
        <ele>743.2</ele>
        <time>2015-10-17T13:29:53Z</time>
      </trkpt>
      <trkpt lat="44.82303" lon="5.39508">
        <ele>744.7</ele>
        <time>2015-10-17T13:29:54Z</time>
      </trkpt>
      <trkpt lat="44.82322" lon="5.39515">
        <ele>746.1</ele>
        <time>2015-10-17T13:29:55Z</time>
      </trkpt>
      <trkpt lat="44.82406" lon="5.39543">
        <ele>752.9</ele>
        <time>2015-10-17T13:30:01Z</time>
      </trkpt>
      <trkpt lat="44.82412" lon="5.39533">
        <ele>753.3</ele>
        <time>2015-10-17T13:30:03Z</time>
      </trkpt>
      <trkpt lat="44.82409" lon="5.39525">
        <ele>752.9</ele>
        <time>2015-10-17T13:30:04Z</time>
      </trkpt>
      <trkpt lat="44.82403" lon="5.39518">
        <ele>752.9</ele>
        <time>2015-10-17T13:30:05Z</time>
      </trkpt>
      <trkpt lat="44.82392" lon="5.39515">
        <ele>753.8</ele>
        <time>2015-10-17T13:30:06Z</time>
      </trkpt>
      <trkpt lat="44.8238" lon="5.39515">
        <ele>753.8</ele>
        <time>2015-10-17T13:30:07Z</time>
      </trkpt>
      <trkpt lat="44.82366" lon="5.39512">
        <ele>754.3</ele>
        <time>2015-10-17T13:30:08Z</time>
      </trkpt>
      <trkpt lat="44.82351" lon="5.39507">
        <ele>755.3</ele>
        <time>2015-10-17T13:30:09Z</time>
      </trkpt>
      <trkpt lat="44.82334" lon="5.395">
        <ele>755.7</ele>
        <time>2015-10-17T13:30:10Z</time>
      </trkpt>
      <trkpt lat="44.82318" lon="5.39491">
        <ele>756.7</ele>
        <time>2015-10-17T13:30:11Z</time>
      </trkpt>
      <trkpt lat="44.82301" lon="5.39481">
        <ele>757.7</ele>
        <time>2015-10-17T13:30:12Z</time>
      </trkpt>
      <trkpt lat="44.82194" lon="5.39372">
        <ele>764.4</ele>
        <time>2015-10-17T13:30:19Z</time>
      </trkpt>
      <trkpt lat="44.82184" lon="5.39351">
        <ele>764.9</ele>
        <time>2015-10-17T13:30:20Z</time>
      </trkpt>
      <trkpt lat="44.82178" lon="5.39326">
        <ele>765.8</ele>
        <time>2015-10-17T13:30:21Z</time>
      </trkpt>
      <trkpt lat="44.82173" lon="5.39298">
        <ele>767.3</ele>
        <time>2015-10-17T13:30:22Z</time>
      </trkpt>
      <trkpt lat="44.82168" lon="5.39272">
        <ele>767.8</ele>
        <time>2015-10-17T13:30:23Z</time>
      </trkpt>
      <trkpt lat="44.82162" lon="5.39247">
        <ele>768.7</ele>
        <time>2015-10-17T13:30:24Z</time>
      </trkpt>
      <trkpt lat="44.82155" lon="5.39226">
        <ele>769.7</ele>
        <time>2015-10-17T13:30:25Z</time>
      </trkpt>
      <trkpt lat="44.82149" lon="5.3921">
        <ele>771.1</ele>
        <time>2015-10-17T13:30:26Z</time>
      </trkpt>
      <trkpt lat="44.82144" lon="5.39199">
        <ele>771.6</ele>
        <time>2015-10-17T13:30:27Z</time>
      </trkpt>
      <trkpt lat="44.82141" lon="5.39191">
        <ele>772.1</ele>
        <time>2015-10-17T13:30:28Z</time>
      </trkpt>
      <trkpt lat="44.82144" lon="5.39187">
        <ele>772.6</ele>
        <time>2015-10-17T13:30:29Z</time>
      </trkpt>
      <trkpt lat="44.82151" lon="5.39186">
        <ele>773</ele>
        <time>2015-10-17T13:30:30Z</time>
      </trkpt>
      <trkpt lat="44.82156" lon="5.39188">
        <ele>774</ele>
        <time>2015-10-17T13:30:31Z</time>
      </trkpt>
      <trkpt lat="44.8216" lon="5.39197">
        <ele>774.5</ele>
        <time>2015-10-17T13:30:32Z</time>
      </trkpt>
      <trkpt lat="44.82166" lon="5.39212">
        <ele>775</ele>
        <time>2015-10-17T13:30:33Z</time>
      </trkpt>
      <trkpt lat="44.82171" lon="5.39229">
        <ele>775.4</ele>
        <time>2015-10-17T13:30:34Z</time>
      </trkpt>
      <trkpt lat="44.82221" lon="5.39344">
        <ele>779.8</ele>
        <time>2015-10-17T13:30:40Z</time>
      </trkpt>
      <trkpt lat="44.82233" lon="5.39359">
        <ele>780.7</ele>
        <time>2015-10-17T13:30:41Z</time>
      </trkpt>
      <trkpt lat="44.82248" lon="5.39371">
        <ele>781.7</ele>
        <time>2015-10-17T13:30:42Z</time>
      </trkpt>
      <trkpt lat="44.82309" lon="5.39426">
        <ele>786</ele>
        <time>2015-10-17T13:30:46Z</time>
      </trkpt>
      <trkpt lat="44.82326" lon="5.39434">
        <ele>787</ele>
        <time>2015-10-17T13:30:47Z</time>
      </trkpt>
      <trkpt lat="44.82345" lon="5.3944">
        <ele>788.4</ele>
        <time>2015-10-17T13:30:48Z</time>
      </trkpt>
      <trkpt lat="44.82365" lon="5.39444">
        <ele>789.4</ele>
        <time>2015-10-17T13:30:49Z</time>
      </trkpt>
      <trkpt lat="44.82384" lon="5.39447">
        <ele>790.3</ele>
        <time>2015-10-17T13:30:50Z</time>
      </trkpt>
      <trkpt lat="44.8242" lon="5.39459">
        <ele>792.7</ele>
        <time>2015-10-17T13:30:52Z</time>
      </trkpt>
      <trkpt lat="44.82436" lon="5.39468">
        <ele>793.7</ele>
        <time>2015-10-17T13:30:53Z</time>
      </trkpt>
      <trkpt lat="44.82484" lon="5.39497">
        <ele>796.6</ele>
        <time>2015-10-17T13:30:56Z</time>
      </trkpt>
      <trkpt lat="44.82502" lon="5.39503">
        <ele>797.6</ele>
        <time>2015-10-17T13:30:57Z</time>
      </trkpt>
      <trkpt lat="44.82519" lon="5.39506">
        <ele>798.5</ele>
        <time>2015-10-17T13:30:58Z</time>
      </trkpt>
      <trkpt lat="44.82537" lon="5.39505">
        <ele>800</ele>
        <time>2015-10-17T13:30:59Z</time>
      </trkpt>
      <trkpt lat="44.82554" lon="5.39504">
        <ele>800.9</ele>
        <time>2015-10-17T13:31:00Z</time>
      </trkpt>
      <trkpt lat="44.82585" lon="5.39506">
        <ele>803.3</ele>
        <time>2015-10-17T13:31:02Z</time>
      </trkpt>
      <trkpt lat="44.82686" lon="5.39522">
        <ele>808.6</ele>
        <time>2015-10-17T13:31:08Z</time>
      </trkpt>
      <trkpt lat="44.827" lon="5.39529">
        <ele>809.6</ele>
        <time>2015-10-17T13:31:09Z</time>
      </trkpt>
      <trkpt lat="44.82713" lon="5.39537">
        <ele>810.5</ele>
        <time>2015-10-17T13:31:10Z</time>
      </trkpt>
      <trkpt lat="44.82723" lon="5.39547">
        <ele>811</ele>
        <time>2015-10-17T13:31:11Z</time>
      </trkpt>
      <trkpt lat="44.82728" lon="5.39559">
        <ele>811.5</ele>
        <time>2015-10-17T13:31:12Z</time>
      </trkpt>
      <trkpt lat="44.82728" lon="5.39574">
        <ele>812</ele>
        <time>2015-10-17T13:31:13Z</time>
      </trkpt>
      <trkpt lat="44.82724" lon="5.39588">
        <ele>812.5</ele>
        <time>2015-10-17T13:31:14Z</time>
      </trkpt>
      <trkpt lat="44.82716" lon="5.39601">
        <ele>812.9</ele>
        <time>2015-10-17T13:31:15Z</time>
      </trkpt>
      <trkpt lat="44.82705" lon="5.39614">
        <ele>813.4</ele>
        <time>2015-10-17T13:31:16Z</time>
      </trkpt>
      <trkpt lat="44.82689" lon="5.39627">
        <ele>813.9</ele>
        <time>2015-10-17T13:31:17Z</time>
      </trkpt>
      <trkpt lat="44.82673" lon="5.39641">
        <ele>814.9</ele>
        <time>2015-10-17T13:31:18Z</time>
      </trkpt>
      <trkpt lat="44.82658" lon="5.39656">
        <ele>815.8</ele>
        <time>2015-10-17T13:31:19Z</time>
      </trkpt>
      <trkpt lat="44.82645" lon="5.39673">
        <ele>816.8</ele>
        <time>2015-10-17T13:31:20Z</time>
      </trkpt>
      <trkpt lat="44.82633" lon="5.39691">
        <ele>817.7</ele>
        <time>2015-10-17T13:31:21Z</time>
      </trkpt>
      <trkpt lat="44.82603" lon="5.39736">
        <ele>819.7</ele>
        <time>2015-10-17T13:31:24Z</time>
      </trkpt>
      <trkpt lat="44.82592" lon="5.39745">
        <ele>820.6</ele>
        <time>2015-10-17T13:31:25Z</time>
      </trkpt>
      <trkpt lat="44.82582" lon="5.39751">
        <ele>820.6</ele>
        <time>2015-10-17T13:31:26Z</time>
      </trkpt>
      <trkpt lat="44.82563" lon="5.39761">
        <ele>821.1</ele>
        <time>2015-10-17T13:31:28Z</time>
      </trkpt>
      <trkpt lat="44.82557" lon="5.39767">
        <ele>821.6</ele>
        <time>2015-10-17T13:31:29Z</time>
      </trkpt>
      <trkpt lat="44.82554" lon="5.39778">
        <ele>822.1</ele>
        <time>2015-10-17T13:31:30Z</time>
      </trkpt>
      <trkpt lat="44.82559" lon="5.39785">
        <ele>823</ele>
        <time>2015-10-17T13:31:31Z</time>
      </trkpt>
      <trkpt lat="44.82566" lon="5.3979">
        <ele>823.5</ele>
        <time>2015-10-17T13:31:32Z</time>
      </trkpt>
      <trkpt lat="44.82581" lon="5.39786">
        <ele>825</ele>
        <time>2015-10-17T13:31:34Z</time>
      </trkpt>
      <trkpt lat="44.82592" lon="5.39774">
        <ele>825.4</ele>
        <time>2015-10-17T13:31:35Z</time>
      </trkpt>
      <trkpt lat="44.82603" lon="5.39763">
        <ele>825.9</ele>
        <time>2015-10-17T13:31:36Z</time>
      </trkpt>
      <trkpt lat="44.82627" lon="5.39738">
        <ele>826.9</ele>
        <time>2015-10-17T13:31:38Z</time>
      </trkpt>
      <trkpt lat="44.82639" lon="5.39722">
        <ele>827.8</ele>
        <time>2015-10-17T13:31:39Z</time>
      </trkpt>
      <trkpt lat="44.82651" lon="5.39706">
        <ele>828.8</ele>
        <time>2015-10-17T13:31:40Z</time>
      </trkpt>
      <trkpt lat="44.82665" lon="5.3969">
        <ele>829.3</ele>
        <time>2015-10-17T13:31:41Z</time>
      </trkpt>
      <trkpt lat="44.82681" lon="5.39676">
        <ele>830.2</ele>
        <time>2015-10-17T13:31:42Z</time>
      </trkpt>
      <trkpt lat="44.82699" lon="5.39663">
        <ele>831.2</ele>
        <time>2015-10-17T13:31:43Z</time>
      </trkpt>
      <trkpt lat="44.82805" lon="5.39574">
        <ele>837.5</ele>
        <time>2015-10-17T13:31:50Z</time>
      </trkpt>
      <trkpt lat="44.82814" lon="5.39564">
        <ele>837.9</ele>
        <time>2015-10-17T13:31:51Z</time>
      </trkpt>
      <trkpt lat="44.82818" lon="5.39551">
        <ele>838.9</ele>
        <time>2015-10-17T13:31:52Z</time>
      </trkpt>
      <trkpt lat="44.82816" lon="5.39534">
        <ele>839.4</ele>
        <time>2015-10-17T13:31:53Z</time>
      </trkpt>
      <trkpt lat="44.8281" lon="5.3952">
        <ele>839.9</ele>
        <time>2015-10-17T13:31:54Z</time>
      </trkpt>
      <trkpt lat="44.82801" lon="5.39507">
        <ele>840.8</ele>
        <time>2015-10-17T13:31:55Z</time>
      </trkpt>
      <trkpt lat="44.82789" lon="5.39497">
        <ele>841.8</ele>
        <time>2015-10-17T13:31:56Z</time>
      </trkpt>
      <trkpt lat="44.82776" lon="5.39487">
        <ele>842.7</ele>
        <time>2015-10-17T13:31:57Z</time>
      </trkpt>
      <trkpt lat="44.82759" lon="5.3948">
        <ele>844.2</ele>
        <time>2015-10-17T13:31:58Z</time>
      </trkpt>
      <trkpt lat="44.8274" lon="5.39475">
        <ele>845.1</ele>
        <time>2015-10-17T13:31:59Z</time>
      </trkpt>
      <trkpt lat="44.82721" lon="5.39471">
        <ele>846.6</ele>
        <time>2015-10-17T13:32:00Z</time>
      </trkpt>
      <trkpt lat="44.82649" lon="5.39445">
        <ele>852.4</ele>
        <time>2015-10-17T13:32:04Z</time>
      </trkpt>
      <trkpt lat="44.82595" lon="5.39434">
        <ele>856.2</ele>
        <time>2015-10-17T13:32:07Z</time>
      </trkpt>
      <trkpt lat="44.82579" lon="5.39424">
        <ele>857.2</ele>
        <time>2015-10-17T13:32:08Z</time>
      </trkpt>
      <trkpt lat="44.82563" lon="5.39413">
        <ele>857.6</ele>
        <time>2015-10-17T13:32:09Z</time>
      </trkpt>
      <trkpt lat="44.82514" lon="5.39373">
        <ele>861</ele>
        <time>2015-10-17T13:32:12Z</time>
      </trkpt>
      <trkpt lat="44.825" lon="5.39356">
        <ele>862</ele>
        <time>2015-10-17T13:32:13Z</time>
      </trkpt>
      <trkpt lat="44.82486" lon="5.39338">
        <ele>862.9</ele>
        <time>2015-10-17T13:32:14Z</time>
      </trkpt>
      <trkpt lat="44.82458" lon="5.39303">
        <ele>864.8</ele>
        <time>2015-10-17T13:32:16Z</time>
      </trkpt>
      <trkpt lat="44.82442" lon="5.39288">
        <ele>866.3</ele>
        <time>2015-10-17T13:32:17Z</time>
      </trkpt>
      <trkpt lat="44.82408" lon="5.39259">
        <ele>868.7</ele>
        <time>2015-10-17T13:32:19Z</time>
      </trkpt>
      <trkpt lat="44.82392" lon="5.39242">
        <ele>869.7</ele>
        <time>2015-10-17T13:32:20Z</time>
      </trkpt>
      <trkpt lat="44.8238" lon="5.39219">
        <ele>870.6</ele>
        <time>2015-10-17T13:32:21Z</time>
      </trkpt>
      <trkpt lat="44.82369" lon="5.39194">
        <ele>871.6</ele>
        <time>2015-10-17T13:32:22Z</time>
      </trkpt>
      <trkpt lat="44.82358" lon="5.39168">
        <ele>872.5</ele>
        <time>2015-10-17T13:32:23Z</time>
      </trkpt>
      <trkpt lat="44.82299" lon="5.39047">
        <ele>878.3</ele>
        <time>2015-10-17T13:32:28Z</time>
      </trkpt>
      <trkpt lat="44.82293" lon="5.39023">
        <ele>879.7</ele>
        <time>2015-10-17T13:32:29Z</time>
      </trkpt>
      <trkpt lat="44.82295" lon="5.38998">
        <ele>881.2</ele>
        <time>2015-10-17T13:32:30Z</time>
      </trkpt>
      <trkpt lat="44.82301" lon="5.38975">
        <ele>882.2</ele>
        <time>2015-10-17T13:32:31Z</time>
      </trkpt>
      <trkpt lat="44.8231" lon="5.38954">
        <ele>883.6</ele>
        <time>2015-10-17T13:32:32Z</time>
      </trkpt>
      <trkpt lat="44.82319" lon="5.38932">
        <ele>884.6</ele>
        <time>2015-10-17T13:32:33Z</time>
      </trkpt>
      <trkpt lat="44.82325" lon="5.3891">
        <ele>885.5</ele>
        <time>2015-10-17T13:32:34Z</time>
      </trkpt>
      <trkpt lat="44.82329" lon="5.38887">
        <ele>886.5</ele>
        <time>2015-10-17T13:32:35Z</time>
      </trkpt>
      <trkpt lat="44.82328" lon="5.38864">
        <ele>887</ele>
        <time>2015-10-17T13:32:36Z</time>
      </trkpt>
      <trkpt lat="44.82325" lon="5.38844">
        <ele>887.4</ele>
        <time>2015-10-17T13:32:37Z</time>
      </trkpt>
      <trkpt lat="44.8232" lon="5.38827">
        <ele>888.4</ele>
        <time>2015-10-17T13:32:38Z</time>
      </trkpt>
      <trkpt lat="44.82315" lon="5.38815">
        <ele>888.9</ele>
        <time>2015-10-17T13:32:39Z</time>
      </trkpt>
      <trkpt lat="44.82313" lon="5.38804">
        <ele>889.4</ele>
        <time>2015-10-17T13:32:40Z</time>
      </trkpt>
      <trkpt lat="44.82317" lon="5.38791">
        <ele>889.4</ele>
        <time>2015-10-17T13:32:42Z</time>
      </trkpt>
      <trkpt lat="44.82326" lon="5.38796">
        <ele>889.8</ele>
        <time>2015-10-17T13:32:44Z</time>
      </trkpt>
      <trkpt lat="44.82329" lon="5.38808">
        <ele>890.3</ele>
        <time>2015-10-17T13:32:45Z</time>
      </trkpt>
      <trkpt lat="44.8233" lon="5.38826">
        <ele>890.8</ele>
        <time>2015-10-17T13:32:46Z</time>
      </trkpt>
      <trkpt lat="44.82334" lon="5.38845">
        <ele>891.3</ele>
        <time>2015-10-17T13:32:47Z</time>
      </trkpt>
      <trkpt lat="44.82338" lon="5.38867">
        <ele>891.8</ele>
        <time>2015-10-17T13:32:48Z</time>
      </trkpt>
      <trkpt lat="44.82341" lon="5.3889">
        <ele>893.2</ele>
        <time>2015-10-17T13:32:49Z</time>
      </trkpt>
      <trkpt lat="44.82342" lon="5.38915">
        <ele>894.2</ele>
        <time>2015-10-17T13:32:50Z</time>
      </trkpt>
      <trkpt lat="44.82339" lon="5.3894">
        <ele>894.6</ele>
        <time>2015-10-17T13:32:51Z</time>
      </trkpt>
      <trkpt lat="44.82334" lon="5.38963">
        <ele>895.6</ele>
        <time>2015-10-17T13:32:52Z</time>
      </trkpt>
      <trkpt lat="44.8233" lon="5.38985">
        <ele>897.1</ele>
        <time>2015-10-17T13:32:53Z</time>
      </trkpt>
      <trkpt lat="44.82329" lon="5.39007">
        <ele>897.1</ele>
        <time>2015-10-17T13:32:54Z</time>
      </trkpt>
      <trkpt lat="44.82331" lon="5.3903">
        <ele>897.1</ele>
        <time>2015-10-17T13:32:55Z</time>
      </trkpt>
      <trkpt lat="44.82338" lon="5.3905">
        <ele>897.1</ele>
        <time>2015-10-17T13:32:56Z</time>
      </trkpt>
      <trkpt lat="44.82349" lon="5.39069">
        <ele>897.1</ele>
        <time>2015-10-17T13:32:57Z</time>
      </trkpt>
      <trkpt lat="44.82363" lon="5.39085">
        <ele>898</ele>
        <time>2015-10-17T13:32:58Z</time>
      </trkpt>
      <trkpt lat="44.8238" lon="5.39101">
        <ele>899</ele>
        <time>2015-10-17T13:32:59Z</time>
      </trkpt>
      <trkpt lat="44.82397" lon="5.39119">
        <ele>899.9</ele>
        <time>2015-10-17T13:33:00Z</time>
      </trkpt>
      <trkpt lat="44.82426" lon="5.39158">
        <ele>901.9</ele>
        <time>2015-10-17T13:33:02Z</time>
      </trkpt>
      <trkpt lat="44.82451" lon="5.39194">
        <ele>903.8</ele>
        <time>2015-10-17T13:33:04Z</time>
      </trkpt>
      <trkpt lat="44.82466" lon="5.39208">
        <ele>904.3</ele>
        <time>2015-10-17T13:33:05Z</time>
      </trkpt>
      <trkpt lat="44.82483" lon="5.39218">
        <ele>905.7</ele>
        <time>2015-10-17T13:33:06Z</time>
      </trkpt>
      <trkpt lat="44.82501" lon="5.39227">
        <ele>906.7</ele>
        <time>2015-10-17T13:33:07Z</time>
      </trkpt>
      <trkpt lat="44.82517" lon="5.39236">
        <ele>907.6</ele>
        <time>2015-10-17T13:33:08Z</time>
      </trkpt>
      <trkpt lat="44.82531" lon="5.39249">
        <ele>908.6</ele>
        <time>2015-10-17T13:33:09Z</time>
      </trkpt>
      <trkpt lat="44.82543" lon="5.39265">
        <ele>909.5</ele>
        <time>2015-10-17T13:33:10Z</time>
      </trkpt>
      <trkpt lat="44.82556" lon="5.39281">
        <ele>910.5</ele>
        <time>2015-10-17T13:33:11Z</time>
      </trkpt>
      <trkpt lat="44.82572" lon="5.39295">
        <ele>911.5</ele>
        <time>2015-10-17T13:33:12Z</time>
      </trkpt>
      <trkpt lat="44.82588" lon="5.39307">
        <ele>912.9</ele>
        <time>2015-10-17T13:33:13Z</time>
      </trkpt>
      <trkpt lat="44.82604" lon="5.39318">
        <ele>913.9</ele>
        <time>2015-10-17T13:33:14Z</time>
      </trkpt>
      <trkpt lat="44.82646" lon="5.3934">
        <ele>916.3</ele>
        <time>2015-10-17T13:33:17Z</time>
      </trkpt>
      <trkpt lat="44.82659" lon="5.39338">
        <ele>916.8</ele>
        <time>2015-10-17T13:33:18Z</time>
      </trkpt>
      <trkpt lat="44.82672" lon="5.39328">
        <ele>916.8</ele>
        <time>2015-10-17T13:33:19Z</time>
      </trkpt>
      <trkpt lat="44.82684" lon="5.39318">
        <ele>917.7</ele>
        <time>2015-10-17T13:33:20Z</time>
      </trkpt>
      <trkpt lat="44.82697" lon="5.3931">
        <ele>918.7</ele>
        <time>2015-10-17T13:33:21Z</time>
      </trkpt>
      <trkpt lat="44.8271" lon="5.39309">
        <ele>919.6</ele>
        <time>2015-10-17T13:33:22Z</time>
      </trkpt>
      <trkpt lat="44.82725" lon="5.39316">
        <ele>919.6</ele>
        <time>2015-10-17T13:33:23Z</time>
      </trkpt>
      <trkpt lat="44.8274" lon="5.39327">
        <ele>921.1</ele>
        <time>2015-10-17T13:33:24Z</time>
      </trkpt>
      <trkpt lat="44.82754" lon="5.3934">
        <ele>922</ele>
        <time>2015-10-17T13:33:25Z</time>
      </trkpt>
      <trkpt lat="44.82769" lon="5.3935">
        <ele>923</ele>
        <time>2015-10-17T13:33:26Z</time>
      </trkpt>
      <trkpt lat="44.82783" lon="5.39356">
        <ele>924</ele>
        <time>2015-10-17T13:33:27Z</time>
      </trkpt>
      <trkpt lat="44.82826" lon="5.39372">
        <ele>926.9</ele>
        <time>2015-10-17T13:33:30Z</time>
      </trkpt>
      <trkpt lat="44.82841" lon="5.39374">
        <ele>927.3</ele>
        <time>2015-10-17T13:33:31Z</time>
      </trkpt>
      <trkpt lat="44.82875" lon="5.39374">
        <ele>928.8</ele>
        <time>2015-10-17T13:33:33Z</time>
      </trkpt>
      <trkpt lat="44.82893" lon="5.3938">
        <ele>929.3</ele>
        <time>2015-10-17T13:33:34Z</time>
      </trkpt>
      <trkpt lat="44.82929" lon="5.39391">
        <ele>930.2</ele>
        <time>2015-10-17T13:33:36Z</time>
      </trkpt>
      <trkpt lat="44.82947" lon="5.39393">
        <ele>931.2</ele>
        <time>2015-10-17T13:33:37Z</time>
      </trkpt>
      <trkpt lat="44.83077" lon="5.39431">
        <ele>937.9</ele>
        <time>2015-10-17T13:33:44Z</time>
      </trkpt>
      <trkpt lat="44.83114" lon="5.39447">
        <ele>940.3</ele>
        <time>2015-10-17T13:33:46Z</time>
      </trkpt>
      <trkpt lat="44.83218" lon="5.39475">
        <ele>946.1</ele>
        <time>2015-10-17T13:33:52Z</time>
      </trkpt>
      <trkpt lat="44.83229" lon="5.39485">
        <ele>947</ele>
        <time>2015-10-17T13:33:53Z</time>
      </trkpt>
      <trkpt lat="44.83237" lon="5.39501">
        <ele>947.5</ele>
        <time>2015-10-17T13:33:54Z</time>
      </trkpt>
      <trkpt lat="44.83241" lon="5.39519">
        <ele>948.5</ele>
        <time>2015-10-17T13:33:55Z</time>
      </trkpt>
      <trkpt lat="44.83238" lon="5.39539">
        <ele>949</ele>
        <time>2015-10-17T13:33:56Z</time>
      </trkpt>
      <trkpt lat="44.8323" lon="5.39556">
        <ele>949.9</ele>
        <time>2015-10-17T13:33:57Z</time>
      </trkpt>
      <trkpt lat="44.8322" lon="5.39572">
        <ele>951.4</ele>
        <time>2015-10-17T13:33:58Z</time>
      </trkpt>
      <trkpt lat="44.83206" lon="5.3959">
        <ele>951.8</ele>
        <time>2015-10-17T13:33:59Z</time>
      </trkpt>
      <trkpt lat="44.83192" lon="5.39609">
        <ele>952.8</ele>
        <time>2015-10-17T13:34:00Z</time>
      </trkpt>
      <trkpt lat="44.83179" lon="5.39625">
        <ele>953.3</ele>
        <time>2015-10-17T13:34:01Z</time>
      </trkpt>
      <trkpt lat="44.83167" lon="5.39639">
        <ele>953.8</ele>
        <time>2015-10-17T13:34:02Z</time>
      </trkpt>
      <trkpt lat="44.83152" lon="5.39649">
        <ele>954.7</ele>
        <time>2015-10-17T13:34:03Z</time>
      </trkpt>
      <trkpt lat="44.83136" lon="5.3966">
        <ele>955.7</ele>
        <time>2015-10-17T13:34:04Z</time>
      </trkpt>
      <trkpt lat="44.83036" lon="5.39751">
        <ele>962.4</ele>
        <time>2015-10-17T13:34:10Z</time>
      </trkpt>
      <trkpt lat="44.82952" lon="5.39805">
        <ele>967.2</ele>
        <time>2015-10-17T13:34:15Z</time>
      </trkpt>
      <trkpt lat="44.82938" lon="5.3981">
        <ele>968.2</ele>
        <time>2015-10-17T13:34:16Z</time>
      </trkpt>
      <trkpt lat="44.82926" lon="5.39814">
        <ele>969.2</ele>
        <time>2015-10-17T13:34:17Z</time>
      </trkpt>
      <trkpt lat="44.82917" lon="5.39819">
        <ele>970.1</ele>
        <time>2015-10-17T13:34:18Z</time>
      </trkpt>
      <trkpt lat="44.82913" lon="5.39824">
        <ele>970.1</ele>
        <time>2015-10-17T13:34:19Z</time>
      </trkpt>
      <trkpt lat="44.82912" lon="5.39834">
        <ele>970.6</ele>
        <time>2015-10-17T13:34:20Z</time>
      </trkpt>
      <trkpt lat="44.82913" lon="5.39844">
        <ele>971.6</ele>
        <time>2015-10-17T13:34:21Z</time>
      </trkpt>
      <trkpt lat="44.82917" lon="5.39848">
        <ele>971.6</ele>
        <time>2015-10-17T13:34:22Z</time>
      </trkpt>
      <trkpt lat="44.82934" lon="5.39838">
        <ele>972.5</ele>
        <time>2015-10-17T13:34:23Z</time>
      </trkpt>
      <trkpt lat="44.82951" lon="5.39826">
        <ele>973.5</ele>
        <time>2015-10-17T13:34:24Z</time>
      </trkpt>
      <trkpt lat="44.82965" lon="5.39818">
        <ele>974.4</ele>
        <time>2015-10-17T13:34:25Z</time>
      </trkpt>
      <trkpt lat="44.83074" lon="5.39761">
        <ele>978.3</ele>
        <time>2015-10-17T13:34:31Z</time>
      </trkpt>
      <trkpt lat="44.83092" lon="5.39745">
        <ele>979.2</ele>
        <time>2015-10-17T13:34:32Z</time>
      </trkpt>
      <trkpt lat="44.83127" lon="5.39718">
        <ele>981.2</ele>
        <time>2015-10-17T13:34:34Z</time>
      </trkpt>
      <trkpt lat="44.83146" lon="5.3971">
        <ele>982.1</ele>
        <time>2015-10-17T13:34:35Z</time>
      </trkpt>
      <trkpt lat="44.83164" lon="5.39705">
        <ele>983.1</ele>
        <time>2015-10-17T13:34:36Z</time>
      </trkpt>
      <trkpt lat="44.83198" lon="5.39698">
        <ele>984.1</ele>
        <time>2015-10-17T13:34:38Z</time>
      </trkpt>
      <trkpt lat="44.83212" lon="5.3969">
        <ele>985</ele>
        <time>2015-10-17T13:34:39Z</time>
      </trkpt>
      <trkpt lat="44.83226" lon="5.39676">
        <ele>985.5</ele>
        <time>2015-10-17T13:34:40Z</time>
      </trkpt>
      <trkpt lat="44.83241" lon="5.39663">
        <ele>986.9</ele>
        <time>2015-10-17T13:34:41Z</time>
      </trkpt>
      <trkpt lat="44.83256" lon="5.39651">
        <ele>987.9</ele>
        <time>2015-10-17T13:34:42Z</time>
      </trkpt>
      <trkpt lat="44.83271" lon="5.39639">
        <ele>989.3</ele>
        <time>2015-10-17T13:34:43Z</time>
      </trkpt>
      <trkpt lat="44.83285" lon="5.39622">
        <ele>990.3</ele>
        <time>2015-10-17T13:34:44Z</time>
      </trkpt>
      <trkpt lat="44.83297" lon="5.39601">
        <ele>990.8</ele>
        <time>2015-10-17T13:34:45Z</time>
      </trkpt>
      <trkpt lat="44.8331" lon="5.39578">
        <ele>992.2</ele>
        <time>2015-10-17T13:34:46Z</time>
      </trkpt>
      <trkpt lat="44.83391" lon="5.39449">
        <ele>997.5</ele>
        <time>2015-10-17T13:34:52Z</time>
      </trkpt>
      <trkpt lat="44.83398" lon="5.39425">
        <ele>998.5</ele>
        <time>2015-10-17T13:34:53Z</time>
      </trkpt>
      <trkpt lat="44.83402" lon="5.39401">
        <ele>999</ele>
        <time>2015-10-17T13:34:54Z</time>
      </trkpt>
      <trkpt lat="44.83404" lon="5.39377">
        <ele>1000.4</ele>
        <time>2015-10-17T13:34:55Z</time>
      </trkpt>
      <trkpt lat="44.83404" lon="5.39354">
        <ele>1001.8</ele>
        <time>2015-10-17T13:34:56Z</time>
      </trkpt>
      <trkpt lat="44.83401" lon="5.39333">
        <ele>1003.8</ele>
        <time>2015-10-17T13:34:57Z</time>
      </trkpt>
      <trkpt lat="44.83394" lon="5.39316">
        <ele>1005.2</ele>
        <time>2015-10-17T13:34:58Z</time>
      </trkpt>
      <trkpt lat="44.83382" lon="5.39304">
        <ele>1006.6</ele>
        <time>2015-10-17T13:34:59Z</time>
      </trkpt>
      <trkpt lat="44.83363" lon="5.39299">
        <ele>1006.2</ele>
        <time>2015-10-17T13:35:00Z</time>
      </trkpt>
      <trkpt lat="44.83345" lon="5.39297">
        <ele>1008.6</ele>
        <time>2015-10-17T13:35:01Z</time>
      </trkpt>
      <trkpt lat="44.83327" lon="5.39295">
        <ele>1010</ele>
        <time>2015-10-17T13:35:02Z</time>
      </trkpt>
      <trkpt lat="44.83309" lon="5.39291">
        <ele>1010.5</ele>
        <time>2015-10-17T13:35:03Z</time>
      </trkpt>
      <trkpt lat="44.83292" lon="5.39284">
        <ele>1011</ele>
        <time>2015-10-17T13:35:04Z</time>
      </trkpt>
      <trkpt lat="44.83276" lon="5.39279">
        <ele>1012.4</ele>
        <time>2015-10-17T13:35:05Z</time>
      </trkpt>
      <trkpt lat="44.83243" lon="5.39283">
        <ele>1013.9</ele>
        <time>2015-10-17T13:35:07Z</time>
      </trkpt>
      <trkpt lat="44.83228" lon="5.3929">
        <ele>1015.3</ele>
        <time>2015-10-17T13:35:08Z</time>
      </trkpt>
      <trkpt lat="44.83213" lon="5.39295">
        <ele>1016.3</ele>
        <time>2015-10-17T13:35:09Z</time>
      </trkpt>
      <trkpt lat="44.83197" lon="5.39296">
        <ele>1017.2</ele>
        <time>2015-10-17T13:35:10Z</time>
      </trkpt>
      <trkpt lat="44.8318" lon="5.39292">
        <ele>1018.7</ele>
        <time>2015-10-17T13:35:11Z</time>
      </trkpt>
      <trkpt lat="44.83162" lon="5.39287">
        <ele>1020.1</ele>
        <time>2015-10-17T13:35:12Z</time>
      </trkpt>
      <trkpt lat="44.83122" lon="5.39278">
        <ele>1022</ele>
        <time>2015-10-17T13:35:14Z</time>
      </trkpt>
      <trkpt lat="44.83102" lon="5.3927">
        <ele>1023</ele>
        <time>2015-10-17T13:35:15Z</time>
      </trkpt>
      <trkpt lat="44.83064" lon="5.39252">
        <ele>1025.4</ele>
        <time>2015-10-17T13:35:17Z</time>
      </trkpt>
      <trkpt lat="44.83046" lon="5.39247">
        <ele>1026.3</ele>
        <time>2015-10-17T13:35:18Z</time>
      </trkpt>
      <trkpt lat="44.83027" lon="5.39242">
        <ele>1027.3</ele>
        <time>2015-10-17T13:35:19Z</time>
      </trkpt>
      <trkpt lat="44.83009" lon="5.39233">
        <ele>1028.3</ele>
        <time>2015-10-17T13:35:20Z</time>
      </trkpt>
      <trkpt lat="44.8299" lon="5.39221">
        <ele>1029.2</ele>
        <time>2015-10-17T13:35:21Z</time>
      </trkpt>
      <trkpt lat="44.82971" lon="5.39208">
        <ele>1030.2</ele>
        <time>2015-10-17T13:35:22Z</time>
      </trkpt>
      <trkpt lat="44.82877" lon="5.39155">
        <ele>1035.5</ele>
        <time>2015-10-17T13:35:27Z</time>
      </trkpt>
      <trkpt lat="44.82859" lon="5.39152">
        <ele>1036.4</ele>
        <time>2015-10-17T13:35:28Z</time>
      </trkpt>
      <trkpt lat="44.82825" lon="5.39148">
        <ele>1038.4</ele>
        <time>2015-10-17T13:35:30Z</time>
      </trkpt>
      <trkpt lat="44.82809" lon="5.39142">
        <ele>1039.3</ele>
        <time>2015-10-17T13:35:31Z</time>
      </trkpt>
      <trkpt lat="44.82793" lon="5.39129">
        <ele>1040.3</ele>
        <time>2015-10-17T13:35:32Z</time>
      </trkpt>
      <trkpt lat="44.82667" lon="5.39051">
        <ele>1048</ele>
        <time>2015-10-17T13:35:39Z</time>
      </trkpt>
      <trkpt lat="44.82651" lon="5.39038">
        <ele>1048.5</ele>
        <time>2015-10-17T13:35:40Z</time>
      </trkpt>
      <trkpt lat="44.82637" lon="5.39022">
        <ele>1048.9</ele>
        <time>2015-10-17T13:35:41Z</time>
      </trkpt>
      <trkpt lat="44.82624" lon="5.39001">
        <ele>1049.9</ele>
        <time>2015-10-17T13:35:42Z</time>
      </trkpt>
      <trkpt lat="44.82614" lon="5.38976">
        <ele>1050.9</ele>
        <time>2015-10-17T13:35:43Z</time>
      </trkpt>
      <trkpt lat="44.82605" lon="5.3895">
        <ele>1051.3</ele>
        <time>2015-10-17T13:35:44Z</time>
      </trkpt>
      <trkpt lat="44.82596" lon="5.38924">
        <ele>1052.8</ele>
        <time>2015-10-17T13:35:45Z</time>
      </trkpt>
      <trkpt lat="44.82552" lon="5.38808">
        <ele>1057.1</ele>
        <time>2015-10-17T13:35:50Z</time>
      </trkpt>
      <trkpt lat="44.82553" lon="5.38784">
        <ele>1058.6</ele>
        <time>2015-10-17T13:35:51Z</time>
      </trkpt>
      <trkpt lat="44.82557" lon="5.38762">
        <ele>1060</ele>
        <time>2015-10-17T13:35:52Z</time>
      </trkpt>
      <trkpt lat="44.82561" lon="5.38738">
        <ele>1061.4</ele>
        <time>2015-10-17T13:35:53Z</time>
      </trkpt>
      <trkpt lat="44.82562" lon="5.38712">
        <ele>1062.4</ele>
        <time>2015-10-17T13:35:54Z</time>
      </trkpt>
      <trkpt lat="44.82563" lon="5.38683">
        <ele>1063.8</ele>
        <time>2015-10-17T13:35:55Z</time>
      </trkpt>
      <trkpt lat="44.82561" lon="5.38653">
        <ele>1064.8</ele>
        <time>2015-10-17T13:35:56Z</time>
      </trkpt>
      <trkpt lat="44.82559" lon="5.38622">
        <ele>1065.8</ele>
        <time>2015-10-17T13:35:57Z</time>
      </trkpt>
      <trkpt lat="44.82546" lon="5.38538">
        <ele>1068.6</ele>
        <time>2015-10-17T13:36:00Z</time>
      </trkpt>
      <trkpt lat="44.82538" lon="5.38515">
        <ele>1070.1</ele>
        <time>2015-10-17T13:36:01Z</time>
      </trkpt>
      <trkpt lat="44.82529" lon="5.38495">
        <ele>1071.5</ele>
        <time>2015-10-17T13:36:02Z</time>
      </trkpt>
      <trkpt lat="44.82517" lon="5.38479">
        <ele>1073</ele>
        <time>2015-10-17T13:36:03Z</time>
      </trkpt>
      <trkpt lat="44.82504" lon="5.38468">
        <ele>1072.5</ele>
        <time>2015-10-17T13:36:04Z</time>
      </trkpt>
      <trkpt lat="44.8249" lon="5.3846">
        <ele>1072.5</ele>
        <time>2015-10-17T13:36:05Z</time>
      </trkpt>
      <trkpt lat="44.82478" lon="5.38452">
        <ele>1073.5</ele>
        <time>2015-10-17T13:36:06Z</time>
      </trkpt>
      <trkpt lat="44.82467" lon="5.38444">
        <ele>1073.5</ele>
        <time>2015-10-17T13:36:07Z</time>
      </trkpt>
      <trkpt lat="44.82461" lon="5.38437">
        <ele>1073.9</ele>
        <time>2015-10-17T13:36:08Z</time>
      </trkpt>
      <trkpt lat="44.82479" lon="5.38437">
        <ele>1076.8</ele>
        <time>2015-10-17T13:36:12Z</time>
      </trkpt>
      <trkpt lat="44.82487" lon="5.38447">
        <ele>1077.3</ele>
        <time>2015-10-17T13:36:13Z</time>
      </trkpt>
      <trkpt lat="44.82497" lon="5.38457">
        <ele>1077.3</ele>
        <time>2015-10-17T13:36:14Z</time>
      </trkpt>
      <trkpt lat="44.8251" lon="5.38465">
        <ele>1077.8</ele>
        <time>2015-10-17T13:36:15Z</time>
      </trkpt>
      <trkpt lat="44.82524" lon="5.38474">
        <ele>1078.7</ele>
        <time>2015-10-17T13:36:16Z</time>
      </trkpt>
      <trkpt lat="44.82538" lon="5.38487">
        <ele>1079.7</ele>
        <time>2015-10-17T13:36:17Z</time>
      </trkpt>
      <trkpt lat="44.8255" lon="5.38505">
        <ele>1080.7</ele>
        <time>2015-10-17T13:36:18Z</time>
      </trkpt>
      <trkpt lat="44.82561" lon="5.38525">
        <ele>1082.1</ele>
        <time>2015-10-17T13:36:19Z</time>
      </trkpt>
      <trkpt lat="44.8257" lon="5.38548">
        <ele>1083.1</ele>
        <time>2015-10-17T13:36:20Z</time>
      </trkpt>
      <trkpt lat="44.82577" lon="5.38572">
        <ele>1084.5</ele>
        <time>2015-10-17T13:36:21Z</time>
      </trkpt>
      <trkpt lat="44.82582" lon="5.38599">
        <ele>1086</ele>
        <time>2015-10-17T13:36:22Z</time>
      </trkpt>
      <trkpt lat="44.82588" lon="5.38627">
        <ele>1087.4</ele>
        <time>2015-10-17T13:36:23Z</time>
      </trkpt>
      <trkpt lat="44.82603" lon="5.38709">
        <ele>1091.2</ele>
        <time>2015-10-17T13:36:26Z</time>
      </trkpt>
      <trkpt lat="44.82604" lon="5.38735">
        <ele>1092.2</ele>
        <time>2015-10-17T13:36:27Z</time>
      </trkpt>
      <trkpt lat="44.82604" lon="5.38759">
        <ele>1092.7</ele>
        <time>2015-10-17T13:36:28Z</time>
      </trkpt>
      <trkpt lat="44.82612" lon="5.38823">
        <ele>1095.1</ele>
        <time>2015-10-17T13:36:31Z</time>
      </trkpt>
      <trkpt lat="44.82624" lon="5.3884">
        <ele>1096</ele>
        <time>2015-10-17T13:36:32Z</time>
      </trkpt>
      <trkpt lat="44.82693" lon="5.38961">
        <ele>1101.3</ele>
        <time>2015-10-17T13:36:38Z</time>
      </trkpt>
      <trkpt lat="44.82706" lon="5.38976">
        <ele>1102.3</ele>
        <time>2015-10-17T13:36:39Z</time>
      </trkpt>
      <trkpt lat="44.82721" lon="5.38987">
        <ele>1102.8</ele>
        <time>2015-10-17T13:36:40Z</time>
      </trkpt>
      <trkpt lat="44.82738" lon="5.38996">
        <ele>1104.2</ele>
        <time>2015-10-17T13:36:41Z</time>
      </trkpt>
      <trkpt lat="44.82757" lon="5.39003">
        <ele>1105.7</ele>
        <time>2015-10-17T13:36:42Z</time>
      </trkpt>
      <trkpt lat="44.82777" lon="5.39009">
        <ele>1107.1</ele>
        <time>2015-10-17T13:36:43Z</time>
      </trkpt>
      <trkpt lat="44.82921" lon="5.39022">
        <ele>1114.3</ele>
        <time>2015-10-17T13:36:50Z</time>
      </trkpt>
      <trkpt lat="44.83064" lon="5.39061">
        <ele>1121.5</ele>
        <time>2015-10-17T13:36:57Z</time>
      </trkpt>
      <trkpt lat="44.83141" lon="5.3907">
        <ele>1125.4</ele>
        <time>2015-10-17T13:37:01Z</time>
      </trkpt>
      <trkpt lat="44.83159" lon="5.39068">
        <ele>1126.8</ele>
        <time>2015-10-17T13:37:02Z</time>
      </trkpt>
      <trkpt lat="44.83178" lon="5.39063">
        <ele>1127.8</ele>
        <time>2015-10-17T13:37:03Z</time>
      </trkpt>
      <trkpt lat="44.83219" lon="5.39048">
        <ele>1131.1</ele>
        <time>2015-10-17T13:37:05Z</time>
      </trkpt>
      <trkpt lat="44.83239" lon="5.39038">
        <ele>1132.6</ele>
        <time>2015-10-17T13:37:06Z</time>
      </trkpt>
      <trkpt lat="44.83275" lon="5.3902">
        <ele>1134.5</ele>
        <time>2015-10-17T13:37:08Z</time>
      </trkpt>
      <trkpt lat="44.83292" lon="5.39015">
        <ele>1135.5</ele>
        <time>2015-10-17T13:37:09Z</time>
      </trkpt>
      <trkpt lat="44.83307" lon="5.39014">
        <ele>1136.9</ele>
        <time>2015-10-17T13:37:10Z</time>
      </trkpt>
      <trkpt lat="44.83321" lon="5.3902">
        <ele>1137.9</ele>
        <time>2015-10-17T13:37:11Z</time>
      </trkpt>
      <trkpt lat="44.83334" lon="5.39031">
        <ele>1138.3</ele>
        <time>2015-10-17T13:37:12Z</time>
      </trkpt>
      <trkpt lat="44.83345" lon="5.3904">
        <ele>1139.3</ele>
        <time>2015-10-17T13:37:13Z</time>
      </trkpt>
      <trkpt lat="44.83357" lon="5.39043">
        <ele>1140.3</ele>
        <time>2015-10-17T13:37:14Z</time>
      </trkpt>
      <trkpt lat="44.83368" lon="5.39043">
        <ele>1141.7</ele>
        <time>2015-10-17T13:37:15Z</time>
      </trkpt>
      <trkpt lat="44.8338" lon="5.39038">
        <ele>1141.7</ele>
        <time>2015-10-17T13:37:16Z</time>
      </trkpt>
      <trkpt lat="44.8339" lon="5.39025">
        <ele>1143.6</ele>
        <time>2015-10-17T13:37:17Z</time>
      </trkpt>
      <trkpt lat="44.83401" lon="5.39013">
        <ele>1145.1</ele>
        <time>2015-10-17T13:37:18Z</time>
      </trkpt>
      <trkpt lat="44.83414" lon="5.39002">
        <ele>1146.5</ele>
        <time>2015-10-17T13:37:19Z</time>
      </trkpt>
      <trkpt lat="44.83428" lon="5.38997">
        <ele>1147.5</ele>
        <time>2015-10-17T13:37:20Z</time>
      </trkpt>
      <trkpt lat="44.83443" lon="5.38997">
        <ele>1148.4</ele>
        <time>2015-10-17T13:37:21Z</time>
      </trkpt>
      <trkpt lat="44.83457" lon="5.39006">
        <ele>1149.9</ele>
        <time>2015-10-17T13:37:22Z</time>
      </trkpt>
      <trkpt lat="44.83472" lon="5.39021">
        <ele>1150.8</ele>
        <time>2015-10-17T13:37:23Z</time>
      </trkpt>
      <trkpt lat="44.83489" lon="5.39038">
        <ele>1151.3</ele>
        <time>2015-10-17T13:37:24Z</time>
      </trkpt>
      <trkpt lat="44.83505" lon="5.39056">
        <ele>1151.8</ele>
        <time>2015-10-17T13:37:25Z</time>
      </trkpt>
      <trkpt lat="44.83717" lon="5.39273">
        <ele>1165.3</ele>
        <time>2015-10-17T13:37:37Z</time>
      </trkpt>
      <trkpt lat="44.83779" lon="5.39339">
        <ele>1169.6</ele>
        <time>2015-10-17T13:37:41Z</time>
      </trkpt>
      <trkpt lat="44.83795" lon="5.39368">
        <ele>1171</ele>
        <time>2015-10-17T13:37:43Z</time>
      </trkpt>
      <trkpt lat="44.83796" lon="5.39385">
        <ele>1171.5</ele>
        <time>2015-10-17T13:37:44Z</time>
      </trkpt>
      <trkpt lat="44.8379" lon="5.39405">
        <ele>1172.5</ele>
        <time>2015-10-17T13:37:45Z</time>
      </trkpt>
      <trkpt lat="44.83779" lon="5.39428">
        <ele>1173</ele>
        <time>2015-10-17T13:37:46Z</time>
      </trkpt>
      <trkpt lat="44.83766" lon="5.39452">
        <ele>1173.9</ele>
        <time>2015-10-17T13:37:47Z</time>
      </trkpt>
      <trkpt lat="44.83753" lon="5.39477">
        <ele>1174.9</ele>
        <time>2015-10-17T13:37:48Z</time>
      </trkpt>
      <trkpt lat="44.83709" lon="5.3957">
        <ele>1179.2</ele>
        <time>2015-10-17T13:37:52Z</time>
      </trkpt>
      <trkpt lat="44.83703" lon="5.39595">
        <ele>1180.6</ele>
        <time>2015-10-17T13:37:53Z</time>
      </trkpt>
      <trkpt lat="44.83699" lon="5.39621">
        <ele>1181.6</ele>
        <time>2015-10-17T13:37:54Z</time>
      </trkpt>
      <trkpt lat="44.83697" lon="5.39647">
        <ele>1183</ele>
        <time>2015-10-17T13:37:55Z</time>
      </trkpt>
      <trkpt lat="44.83696" lon="5.39671">
        <ele>1184</ele>
        <time>2015-10-17T13:37:56Z</time>
      </trkpt>
      <trkpt lat="44.83692" lon="5.39693">
        <ele>1185</ele>
        <time>2015-10-17T13:37:57Z</time>
      </trkpt>
      <trkpt lat="44.83687" lon="5.39713">
        <ele>1185.9</ele>
        <time>2015-10-17T13:37:58Z</time>
      </trkpt>
      <trkpt lat="44.83678" lon="5.39728">
        <ele>1186.9</ele>
        <time>2015-10-17T13:37:59Z</time>
      </trkpt>
      <trkpt lat="44.8367" lon="5.3974">
        <ele>1186.9</ele>
        <time>2015-10-17T13:38:00Z</time>
      </trkpt>
      <trkpt lat="44.83663" lon="5.3975">
        <ele>1187.4</ele>
        <time>2015-10-17T13:38:01Z</time>
      </trkpt>
      <trkpt lat="44.83659" lon="5.3976">
        <ele>1188.8</ele>
        <time>2015-10-17T13:38:02Z</time>
      </trkpt>
      <trkpt lat="44.83658" lon="5.39771">
        <ele>1187.9</ele>
        <time>2015-10-17T13:38:03Z</time>
      </trkpt>
      <trkpt lat="44.8366" lon="5.39776">
        <ele>1186.4</ele>
        <time>2015-10-17T13:38:04Z</time>
      </trkpt>
      <trkpt lat="44.83664" lon="5.39775">
        <ele>1185</ele>
        <time>2015-10-17T13:38:05Z</time>
      </trkpt>
      <trkpt lat="44.83674" lon="5.39767">
        <ele>1187.9</ele>
        <time>2015-10-17T13:38:06Z</time>
      </trkpt>
      <trkpt lat="44.83681" lon="5.39756">
        <ele>1188.8</ele>
        <time>2015-10-17T13:38:07Z</time>
      </trkpt>
      <trkpt lat="44.83688" lon="5.39738">
        <ele>1189.3</ele>
        <time>2015-10-17T13:38:08Z</time>
      </trkpt>
      <trkpt lat="44.83698" lon="5.39722">
        <ele>1189.8</ele>
        <time>2015-10-17T13:38:09Z</time>
      </trkpt>
      <trkpt lat="44.83707" lon="5.39706">
        <ele>1190.7</ele>
        <time>2015-10-17T13:38:10Z</time>
      </trkpt>
      <trkpt lat="44.83715" lon="5.39689">
        <ele>1191.7</ele>
        <time>2015-10-17T13:38:11Z</time>
      </trkpt>
      <trkpt lat="44.8372" lon="5.39669">
        <ele>1192.7</ele>
        <time>2015-10-17T13:38:12Z</time>
      </trkpt>
      <trkpt lat="44.83723" lon="5.39646">
        <ele>1193.6</ele>
        <time>2015-10-17T13:38:13Z</time>
      </trkpt>
      <trkpt lat="44.83727" lon="5.39623">
        <ele>1194.1</ele>
        <time>2015-10-17T13:38:14Z</time>
      </trkpt>
      <trkpt lat="44.83732" lon="5.39599">
        <ele>1195.5</ele>
        <time>2015-10-17T13:38:15Z</time>
      </trkpt>
      <trkpt lat="44.8374" lon="5.39576">
        <ele>1197</ele>
        <time>2015-10-17T13:38:16Z</time>
      </trkpt>
      <trkpt lat="44.8375" lon="5.39554">
        <ele>1198.9</ele>
        <time>2015-10-17T13:38:17Z</time>
      </trkpt>
      <trkpt lat="44.83763" lon="5.39533">
        <ele>1200.3</ele>
        <time>2015-10-17T13:38:18Z</time>
      </trkpt>
      <trkpt lat="44.83777" lon="5.39514">
        <ele>1201.3</ele>
        <time>2015-10-17T13:38:19Z</time>
      </trkpt>
      <trkpt lat="44.83855" lon="5.39389">
        <ele>1209</ele>
        <time>2015-10-17T13:38:26Z</time>
      </trkpt>
      <trkpt lat="44.83861" lon="5.39373">
        <ele>1210</ele>
        <time>2015-10-17T13:38:27Z</time>
      </trkpt>
      <trkpt lat="44.83866" lon="5.39357">
        <ele>1210.9</ele>
        <time>2015-10-17T13:38:28Z</time>
      </trkpt>
      <trkpt lat="44.83868" lon="5.39339">
        <ele>1212.4</ele>
        <time>2015-10-17T13:38:29Z</time>
      </trkpt>
      <trkpt lat="44.83866" lon="5.3932">
        <ele>1213.8</ele>
        <time>2015-10-17T13:38:30Z</time>
      </trkpt>
      <trkpt lat="44.83852" lon="5.39305">
        <ele>1214.3</ele>
        <time>2015-10-17T13:38:31Z</time>
      </trkpt>
      <trkpt lat="44.83835" lon="5.39288">
        <ele>1214.8</ele>
        <time>2015-10-17T13:38:32Z</time>
      </trkpt>
      <trkpt lat="44.83818" lon="5.39271">
        <ele>1216.7</ele>
        <time>2015-10-17T13:38:33Z</time>
      </trkpt>
      <trkpt lat="44.83803" lon="5.39254">
        <ele>1217.7</ele>
        <time>2015-10-17T13:38:34Z</time>
      </trkpt>
      <trkpt lat="44.8372" lon="5.3916">
        <ele>1219.1</ele>
        <time>2015-10-17T13:38:41Z</time>
      </trkpt>
      <trkpt lat="44.83689" lon="5.39129">
        <ele>1220.1</ele>
        <time>2015-10-17T13:38:45Z</time>
      </trkpt>
      <trkpt lat="44.83686" lon="5.39123">
        <ele>1220.5</ele>
        <time>2015-10-17T13:38:46Z</time>
      </trkpt>
      <trkpt lat="44.83685" lon="5.39117">
        <ele>1220.5</ele>
        <time>2015-10-17T13:38:47Z</time>
      </trkpt>
      <trkpt lat="44.83689" lon="5.39111">
        <ele>1221</ele>
        <time>2015-10-17T13:38:48Z</time>
      </trkpt>
      <trkpt lat="44.83694" lon="5.39111">
        <ele>1221.5</ele>
        <time>2015-10-17T13:38:49Z</time>
      </trkpt>
      <trkpt lat="44.837" lon="5.39114">
        <ele>1221</ele>
        <time>2015-10-17T13:38:50Z</time>
      </trkpt>
      <trkpt lat="44.83706" lon="5.39123">
        <ele>1221</ele>
        <time>2015-10-17T13:38:51Z</time>
      </trkpt>
      <trkpt lat="44.83714" lon="5.39135">
        <ele>1221</ele>
        <time>2015-10-17T13:38:52Z</time>
      </trkpt>
      <trkpt lat="44.83725" lon="5.39148">
        <ele>1220.5</ele>
        <time>2015-10-17T13:38:53Z</time>
      </trkpt>
      <trkpt lat="44.83815" lon="5.39234">
        <ele>1228.2</ele>
        <time>2015-10-17T13:38:59Z</time>
      </trkpt>
      <trkpt lat="44.83907" lon="5.39338">
        <ele>1235.4</ele>
        <time>2015-10-17T13:39:07Z</time>
      </trkpt>
      <trkpt lat="44.83913" lon="5.39351">
        <ele>1236.4</ele>
        <time>2015-10-17T13:39:08Z</time>
      </trkpt>
      <trkpt lat="44.83918" lon="5.39365">
        <ele>1236.9</ele>
        <time>2015-10-17T13:39:09Z</time>
      </trkpt>
      <trkpt lat="44.8392" lon="5.39382">
        <ele>1237.8</ele>
        <time>2015-10-17T13:39:10Z</time>
      </trkpt>
      <trkpt lat="44.83917" lon="5.39419">
        <ele>1238.3</ele>
        <time>2015-10-17T13:39:12Z</time>
      </trkpt>
      <trkpt lat="44.8391" lon="5.39438">
        <ele>1238.3</ele>
        <time>2015-10-17T13:39:13Z</time>
      </trkpt>
      <trkpt lat="44.83899" lon="5.39458">
        <ele>1238.8</ele>
        <time>2015-10-17T13:39:14Z</time>
      </trkpt>
      <trkpt lat="44.83886" lon="5.39476">
        <ele>1239.3</ele>
        <time>2015-10-17T13:39:15Z</time>
      </trkpt>
      <trkpt lat="44.83874" lon="5.39495">
        <ele>1239.8</ele>
        <time>2015-10-17T13:39:16Z</time>
      </trkpt>
      <trkpt lat="44.83863" lon="5.39515">
        <ele>1240.2</ele>
        <time>2015-10-17T13:39:17Z</time>
      </trkpt>
      <trkpt lat="44.83854" lon="5.39536">
        <ele>1241.2</ele>
        <time>2015-10-17T13:39:18Z</time>
      </trkpt>
      <trkpt lat="44.83846" lon="5.39557">
        <ele>1242.2</ele>
        <time>2015-10-17T13:39:19Z</time>
      </trkpt>
      <trkpt lat="44.83817" lon="5.39627">
        <ele>1245</ele>
        <time>2015-10-17T13:39:23Z</time>
      </trkpt>
      <trkpt lat="44.83813" lon="5.39643">
        <ele>1246</ele>
        <time>2015-10-17T13:39:24Z</time>
      </trkpt>
      <trkpt lat="44.83811" lon="5.39658">
        <ele>1247</ele>
        <time>2015-10-17T13:39:25Z</time>
      </trkpt>
      <trkpt lat="44.83806" lon="5.39734">
        <ele>1249.4</ele>
        <time>2015-10-17T13:39:32Z</time>
      </trkpt>
      <trkpt lat="44.83805" lon="5.39747">
        <ele>1252.7</ele>
        <time>2015-10-17T13:39:35Z</time>
      </trkpt>
      <trkpt lat="44.83803" lon="5.39748">
        <ele>1252.7</ele>
        <time>2015-10-17T13:39:36Z</time>
      </trkpt>
      <trkpt lat="44.83802" lon="5.39749">
        <ele>1249.4</ele>
        <time>2015-10-17T13:39:50Z</time>
      </trkpt>
      <trkpt lat="44.83802" lon="5.39748">
        <ele>1249.9</ele>
        <time>2015-10-17T13:40:02Z</time>
      </trkpt>
      <trkpt lat="44.83798" lon="5.39758">
        <ele>1254.7</ele>
        <time>2015-10-17T14:05:55Z</time>
      </trkpt>
      <trkpt lat="44.83799" lon="5.39756">
        <ele>1255.1</ele>
        <time>2015-10-17T14:06:31Z</time>
      </trkpt>
      <trkpt lat="44.83802" lon="5.39733">
        <ele>1254.2</ele>
        <time>2015-10-17T14:06:43Z</time>
      </trkpt>
      <trkpt lat="44.83803" lon="5.39727">
        <ele>1254.2</ele>
        <time>2015-10-17T14:06:51Z</time>
      </trkpt>
      <trkpt lat="44.83806" lon="5.39725">
        <ele>1255.1</ele>
        <time>2015-10-17T14:07:01Z</time>
      </trkpt>
      <trkpt lat="44.83813" lon="5.39728">
        <ele>1250.3</ele>
        <time>2015-10-17T14:08:26Z</time>
      </trkpt>
      <trkpt lat="44.84049" lon="5.40598">
        <ele>1258.5</ele>
        <time>2015-10-17T14:09:05Z</time>
      </trkpt>
      <trkpt lat="44.8405" lon="5.40607">
        <ele>1258</ele>
        <time>2015-10-17T14:09:06Z</time>
      </trkpt>
      <trkpt lat="44.84053" lon="5.40612">
        <ele>1256.6</ele>
        <time>2015-10-17T14:09:07Z</time>
      </trkpt>
      <trkpt lat="44.84059" lon="5.40614">
        <ele>1255.6</ele>
        <time>2015-10-17T14:09:08Z</time>
      </trkpt>
      <trkpt lat="44.84064" lon="5.40612">
        <ele>1255.1</ele>
        <time>2015-10-17T14:09:09Z</time>
      </trkpt>
      <trkpt lat="44.84071" lon="5.40605">
        <ele>1254.7</ele>
        <time>2015-10-17T14:09:10Z</time>
      </trkpt>
      <trkpt lat="44.84079" lon="5.40597">
        <ele>1254.2</ele>
        <time>2015-10-17T14:09:11Z</time>
      </trkpt>
      <trkpt lat="44.84089" lon="5.4059">
        <ele>1253.7</ele>
        <time>2015-10-17T14:09:12Z</time>
      </trkpt>
      <trkpt lat="44.841" lon="5.40583">
        <ele>1252.7</ele>
        <time>2015-10-17T14:09:13Z</time>
      </trkpt>
      <trkpt lat="44.84226" lon="5.40528">
        <ele>1244.6</ele>
        <time>2015-10-17T14:09:23Z</time>
      </trkpt>
      <trkpt lat="44.84374" lon="5.40508">
        <ele>1238.8</ele>
        <time>2015-10-17T14:09:32Z</time>
      </trkpt>
      <trkpt lat="44.84555" lon="5.40489">
        <ele>1226.3</ele>
        <time>2015-10-17T14:09:41Z</time>
      </trkpt>
      <trkpt lat="44.84753" lon="5.40464">
        <ele>1212.4</ele>
        <time>2015-10-17T14:09:51Z</time>
      </trkpt>
      <trkpt lat="44.84771" lon="5.40464">
        <ele>1210.9</ele>
        <time>2015-10-17T14:09:52Z</time>
      </trkpt>
      <trkpt lat="44.84789" lon="5.40468">
        <ele>1210</ele>
        <time>2015-10-17T14:09:53Z</time>
      </trkpt>
      <trkpt lat="44.84905" lon="5.40479">
        <ele>1202.3</ele>
        <time>2015-10-17T14:10:00Z</time>
      </trkpt>
      <trkpt lat="44.85079" lon="5.40503">
        <ele>1192.2</ele>
        <time>2015-10-17T14:10:09Z</time>
      </trkpt>
      <trkpt lat="44.85233" lon="5.40483">
        <ele>1183</ele>
        <time>2015-10-17T14:10:17Z</time>
      </trkpt>
      <trkpt lat="44.85251" lon="5.40482">
        <ele>1182.1</ele>
        <time>2015-10-17T14:10:18Z</time>
      </trkpt>
      <trkpt lat="44.8527" lon="5.40487">
        <ele>1181.6</ele>
        <time>2015-10-17T14:10:19Z</time>
      </trkpt>
      <trkpt lat="44.85288" lon="5.40497">
        <ele>1181.1</ele>
        <time>2015-10-17T14:10:20Z</time>
      </trkpt>
      <trkpt lat="44.85307" lon="5.40505">
        <ele>1179.7</ele>
        <time>2015-10-17T14:10:21Z</time>
      </trkpt>
      <trkpt lat="44.85328" lon="5.40512">
        <ele>1178.2</ele>
        <time>2015-10-17T14:10:22Z</time>
      </trkpt>
      <trkpt lat="44.85496" lon="5.40553">
        <ele>1169.6</ele>
        <time>2015-10-17T14:10:30Z</time>
      </trkpt>
      <trkpt lat="44.85636" lon="5.40535">
        <ele>1160.9</ele>
        <time>2015-10-17T14:10:37Z</time>
      </trkpt>
      <trkpt lat="44.85652" lon="5.40545">
        <ele>1160.5</ele>
        <time>2015-10-17T14:10:38Z</time>
      </trkpt>
      <trkpt lat="44.85744" lon="5.40587">
        <ele>1156.6</ele>
        <time>2015-10-17T14:10:43Z</time>
      </trkpt>
      <trkpt lat="44.85764" lon="5.40588">
        <ele>1155.2</ele>
        <time>2015-10-17T14:10:44Z</time>
      </trkpt>
      <trkpt lat="44.85823" lon="5.40595">
        <ele>1152.8</ele>
        <time>2015-10-17T14:10:47Z</time>
      </trkpt>
      <trkpt lat="44.85842" lon="5.40603">
        <ele>1151.8</ele>
        <time>2015-10-17T14:10:48Z</time>
      </trkpt>
      <trkpt lat="44.85879" lon="5.4062">
        <ele>1149.4</ele>
        <time>2015-10-17T14:10:50Z</time>
      </trkpt>
      <trkpt lat="44.85898" lon="5.40625">
        <ele>1148</ele>
        <time>2015-10-17T14:10:51Z</time>
      </trkpt>
      <trkpt lat="44.85918" lon="5.40628">
        <ele>1147</ele>
        <time>2015-10-17T14:10:52Z</time>
      </trkpt>
      <trkpt lat="44.85956" lon="5.40636">
        <ele>1144.1</ele>
        <time>2015-10-17T14:10:54Z</time>
      </trkpt>
      <trkpt lat="44.85975" lon="5.40645">
        <ele>1143.1</ele>
        <time>2015-10-17T14:10:55Z</time>
      </trkpt>
      <trkpt lat="44.85992" lon="5.40657">
        <ele>1142.2</ele>
        <time>2015-10-17T14:10:56Z</time>
      </trkpt>
      <trkpt lat="44.8601" lon="5.40667">
        <ele>1140.7</ele>
        <time>2015-10-17T14:10:57Z</time>
      </trkpt>
      <trkpt lat="44.86029" lon="5.40676">
        <ele>1139.3</ele>
        <time>2015-10-17T14:10:58Z</time>
      </trkpt>
      <trkpt lat="44.86049" lon="5.40683">
        <ele>1137.9</ele>
        <time>2015-10-17T14:10:59Z</time>
      </trkpt>
      <trkpt lat="44.86185" lon="5.40726">
        <ele>1129.2</ele>
        <time>2015-10-17T14:11:06Z</time>
      </trkpt>
      <trkpt lat="44.86204" lon="5.40737">
        <ele>1128.2</ele>
        <time>2015-10-17T14:11:07Z</time>
      </trkpt>
      <trkpt lat="44.8638" lon="5.40818">
        <ele>1116.7</ele>
        <time>2015-10-17T14:11:16Z</time>
      </trkpt>
      <trkpt lat="44.86544" lon="5.40873">
        <ele>1106.6</ele>
        <time>2015-10-17T14:11:24Z</time>
      </trkpt>
      <trkpt lat="44.86732" lon="5.40925">
        <ele>1093.6</ele>
        <time>2015-10-17T14:11:33Z</time>
      </trkpt>
      <trkpt lat="44.86774" lon="5.40933">
        <ele>1091.7</ele>
        <time>2015-10-17T14:11:35Z</time>
      </trkpt>
      <trkpt lat="44.86795" lon="5.40942">
        <ele>1090.3</ele>
        <time>2015-10-17T14:11:36Z</time>
      </trkpt>
      <trkpt lat="44.86815" lon="5.40954">
        <ele>1088.8</ele>
        <time>2015-10-17T14:11:37Z</time>
      </trkpt>
      <trkpt lat="44.86872" lon="5.40989">
        <ele>1084.5</ele>
        <time>2015-10-17T14:11:40Z</time>
      </trkpt>
      <trkpt lat="44.86892" lon="5.40995">
        <ele>1083.1</ele>
        <time>2015-10-17T14:11:41Z</time>
      </trkpt>
      <trkpt lat="44.8691" lon="5.41">
        <ele>1081.6</ele>
        <time>2015-10-17T14:11:42Z</time>
      </trkpt>
      <trkpt lat="44.86969" lon="5.41006">
        <ele>1077.3</ele>
        <time>2015-10-17T14:11:46Z</time>
      </trkpt>
      <trkpt lat="44.86979" lon="5.41004">
        <ele>1076.3</ele>
        <time>2015-10-17T14:11:47Z</time>
      </trkpt>
      <trkpt lat="44.86992" lon="5.41001">
        <ele>1075.9</ele>
        <time>2015-10-17T14:11:49Z</time>
      </trkpt>
      <trkpt lat="44.86997" lon="5.41003">
        <ele>1074.9</ele>
        <time>2015-10-17T14:11:50Z</time>
      </trkpt>
      <trkpt lat="44.86999" lon="5.41008">
        <ele>1073.9</ele>
        <time>2015-10-17T14:11:51Z</time>
      </trkpt>
      <trkpt lat="44.86997" lon="5.41013">
        <ele>1073</ele>
        <time>2015-10-17T14:11:52Z</time>
      </trkpt>
      <trkpt lat="44.86993" lon="5.41017">
        <ele>1072</ele>
        <time>2015-10-17T14:11:53Z</time>
      </trkpt>
      <trkpt lat="44.86987" lon="5.41017">
        <ele>1071.1</ele>
        <time>2015-10-17T14:11:54Z</time>
      </trkpt>
      <trkpt lat="44.8698" lon="5.41017">
        <ele>1069.6</ele>
        <time>2015-10-17T14:11:55Z</time>
      </trkpt>
      <trkpt lat="44.86914" lon="5.41021">
        <ele>1066.7</ele>
        <time>2015-10-17T14:12:00Z</time>
      </trkpt>
      <trkpt lat="44.86804" lon="5.41013">
        <ele>1060.5</ele>
        <time>2015-10-17T14:12:05Z</time>
      </trkpt>
      <trkpt lat="44.86632" lon="5.41005">
        <ele>1049.9</ele>
        <time>2015-10-17T14:12:12Z</time>
      </trkpt>
      <trkpt lat="44.86493" lon="5.4101">
        <ele>1043.2</ele>
        <time>2015-10-17T14:12:19Z</time>
      </trkpt>
      <trkpt lat="44.86476" lon="5.41007">
        <ele>1042.2</ele>
        <time>2015-10-17T14:12:20Z</time>
      </trkpt>
      <trkpt lat="44.8646" lon="5.41">
        <ele>1041.3</ele>
        <time>2015-10-17T14:12:21Z</time>
      </trkpt>
      <trkpt lat="44.86394" lon="5.40973">
        <ele>1037.4</ele>
        <time>2015-10-17T14:12:25Z</time>
      </trkpt>
      <trkpt lat="44.86377" lon="5.40971">
        <ele>1036.9</ele>
        <time>2015-10-17T14:12:26Z</time>
      </trkpt>
      <trkpt lat="44.86359" lon="5.40971">
        <ele>1036</ele>
        <time>2015-10-17T14:12:27Z</time>
      </trkpt>
      <trkpt lat="44.86341" lon="5.40976">
        <ele>1035.5</ele>
        <time>2015-10-17T14:12:28Z</time>
      </trkpt>
      <trkpt lat="44.86323" lon="5.4098">
        <ele>1034.5</ele>
        <time>2015-10-17T14:12:29Z</time>
      </trkpt>
      <trkpt lat="44.8619" lon="5.40993">
        <ele>1027.8</ele>
        <time>2015-10-17T14:12:36Z</time>
      </trkpt>
      <trkpt lat="44.86171" lon="5.40992">
        <ele>1026.8</ele>
        <time>2015-10-17T14:12:37Z</time>
      </trkpt>
      <trkpt lat="44.86153" lon="5.40988">
        <ele>1025.4</ele>
        <time>2015-10-17T14:12:38Z</time>
      </trkpt>
      <trkpt lat="44.86017" lon="5.40938">
        <ele>1018.2</ele>
        <time>2015-10-17T14:12:46Z</time>
      </trkpt>
      <trkpt lat="44.85897" lon="5.40914">
        <ele>1011.4</ele>
        <time>2015-10-17T14:12:54Z</time>
      </trkpt>
      <trkpt lat="44.85888" lon="5.40915">
        <ele>1010.5</ele>
        <time>2015-10-17T14:12:55Z</time>
      </trkpt>
      <trkpt lat="44.85882" lon="5.40922">
        <ele>1010.5</ele>
        <time>2015-10-17T14:12:56Z</time>
      </trkpt>
      <trkpt lat="44.85878" lon="5.40933">
        <ele>1009.5</ele>
        <time>2015-10-17T14:12:57Z</time>
      </trkpt>
      <trkpt lat="44.85879" lon="5.40945">
        <ele>1008.6</ele>
        <time>2015-10-17T14:12:58Z</time>
      </trkpt>
      <trkpt lat="44.85883" lon="5.40954">
        <ele>1008.6</ele>
        <time>2015-10-17T14:12:59Z</time>
      </trkpt>
      <trkpt lat="44.85888" lon="5.40961">
        <ele>1008.1</ele>
        <time>2015-10-17T14:13:00Z</time>
      </trkpt>
      <trkpt lat="44.85896" lon="5.40969">
        <ele>1007.1</ele>
        <time>2015-10-17T14:13:01Z</time>
      </trkpt>
      <trkpt lat="44.85907" lon="5.40977">
        <ele>1007.1</ele>
        <time>2015-10-17T14:13:02Z</time>
      </trkpt>
      <trkpt lat="44.85921" lon="5.40985">
        <ele>1006.2</ele>
        <time>2015-10-17T14:13:03Z</time>
      </trkpt>
      <trkpt lat="44.85938" lon="5.40995">
        <ele>1004.7</ele>
        <time>2015-10-17T14:13:04Z</time>
      </trkpt>
      <trkpt lat="44.86019" lon="5.41089">
        <ele>997.5</ele>
        <time>2015-10-17T14:13:09Z</time>
      </trkpt>
      <trkpt lat="44.86113" lon="5.41228">
        <ele>990.3</ele>
        <time>2015-10-17T14:13:15Z</time>
      </trkpt>
      <trkpt lat="44.86132" lon="5.41246">
        <ele>989.8</ele>
        <time>2015-10-17T14:13:16Z</time>
      </trkpt>
      <trkpt lat="44.86152" lon="5.41261">
        <ele>988.9</ele>
        <time>2015-10-17T14:13:17Z</time>
      </trkpt>
      <trkpt lat="44.86207" lon="5.41307">
        <ele>985</ele>
        <time>2015-10-17T14:13:20Z</time>
      </trkpt>
      <trkpt lat="44.86221" lon="5.41326">
        <ele>983.6</ele>
        <time>2015-10-17T14:13:21Z</time>
      </trkpt>
      <trkpt lat="44.86231" lon="5.41348">
        <ele>981.6</ele>
        <time>2015-10-17T14:13:22Z</time>
      </trkpt>
      <trkpt lat="44.86237" lon="5.41376">
        <ele>980.7</ele>
        <time>2015-10-17T14:13:23Z</time>
      </trkpt>
      <trkpt lat="44.86241" lon="5.41402">
        <ele>979.2</ele>
        <time>2015-10-17T14:13:24Z</time>
      </trkpt>
      <trkpt lat="44.86248" lon="5.41426">
        <ele>978.3</ele>
        <time>2015-10-17T14:13:25Z</time>
      </trkpt>
      <trkpt lat="44.86257" lon="5.41446">
        <ele>976.8</ele>
        <time>2015-10-17T14:13:26Z</time>
      </trkpt>
      <trkpt lat="44.86271" lon="5.41462">
        <ele>975.4</ele>
        <time>2015-10-17T14:13:27Z</time>
      </trkpt>
      <trkpt lat="44.86288" lon="5.41475">
        <ele>974.4</ele>
        <time>2015-10-17T14:13:28Z</time>
      </trkpt>
      <trkpt lat="44.86307" lon="5.41485">
        <ele>973</ele>
        <time>2015-10-17T14:13:29Z</time>
      </trkpt>
      <trkpt lat="44.86327" lon="5.41493">
        <ele>972</ele>
        <time>2015-10-17T14:13:30Z</time>
      </trkpt>
      <trkpt lat="44.86348" lon="5.41501">
        <ele>971.1</ele>
        <time>2015-10-17T14:13:31Z</time>
      </trkpt>
      <trkpt lat="44.86448" lon="5.4155">
        <ele>964.8</ele>
        <time>2015-10-17T14:13:36Z</time>
      </trkpt>
      <trkpt lat="44.86468" lon="5.41554">
        <ele>963.9</ele>
        <time>2015-10-17T14:13:37Z</time>
      </trkpt>
      <trkpt lat="44.86657" lon="5.41578">
        <ele>954.3</ele>
        <time>2015-10-17T14:13:46Z</time>
      </trkpt>
      <trkpt lat="44.86732" lon="5.41577">
        <ele>949.9</ele>
        <time>2015-10-17T14:13:50Z</time>
      </trkpt>
      <trkpt lat="44.86749" lon="5.41572">
        <ele>949</ele>
        <time>2015-10-17T14:13:51Z</time>
      </trkpt>
      <trkpt lat="44.8685" lon="5.4155">
        <ele>941.8</ele>
        <time>2015-10-17T14:13:58Z</time>
      </trkpt>
      <trkpt lat="44.86861" lon="5.41552">
        <ele>940.8</ele>
        <time>2015-10-17T14:13:59Z</time>
      </trkpt>
      <trkpt lat="44.86872" lon="5.41557">
        <ele>940.3</ele>
        <time>2015-10-17T14:14:00Z</time>
      </trkpt>
      <trkpt lat="44.86882" lon="5.41565">
        <ele>939.8</ele>
        <time>2015-10-17T14:14:01Z</time>
      </trkpt>
      <trkpt lat="44.8689" lon="5.41573">
        <ele>939.8</ele>
        <time>2015-10-17T14:14:02Z</time>
      </trkpt>
      <trkpt lat="44.86898" lon="5.41582">
        <ele>939.4</ele>
        <time>2015-10-17T14:14:03Z</time>
      </trkpt>
      <trkpt lat="44.86983" lon="5.41669">
        <ele>932.6</ele>
        <time>2015-10-17T14:14:14Z</time>
      </trkpt>
      <trkpt lat="44.86994" lon="5.41676">
        <ele>932.1</ele>
        <time>2015-10-17T14:14:15Z</time>
      </trkpt>
      <trkpt lat="44.87005" lon="5.41682">
        <ele>931.2</ele>
        <time>2015-10-17T14:14:16Z</time>
      </trkpt>
      <trkpt lat="44.87019" lon="5.41687">
        <ele>930.7</ele>
        <time>2015-10-17T14:14:17Z</time>
      </trkpt>
      <trkpt lat="44.87033" lon="5.41689">
        <ele>930.2</ele>
        <time>2015-10-17T14:14:18Z</time>
      </trkpt>
      <trkpt lat="44.87048" lon="5.41691">
        <ele>929.3</ele>
        <time>2015-10-17T14:14:19Z</time>
      </trkpt>
      <trkpt lat="44.87063" lon="5.41691">
        <ele>928.8</ele>
        <time>2015-10-17T14:14:20Z</time>
      </trkpt>
      <trkpt lat="44.87186" lon="5.41681">
        <ele>924</ele>
        <time>2015-10-17T14:14:29Z</time>
      </trkpt>
      <trkpt lat="44.87309" lon="5.41726">
        <ele>917.7</ele>
        <time>2015-10-17T14:14:39Z</time>
      </trkpt>
      <trkpt lat="44.87484" lon="5.41803">
        <ele>911</ele>
        <time>2015-10-17T14:14:51Z</time>
      </trkpt>
      <trkpt lat="44.8768" lon="5.41873">
        <ele>905.2</ele>
        <time>2015-10-17T14:15:02Z</time>
      </trkpt>
      <trkpt lat="44.87892" lon="5.41934">
        <ele>902.8</ele>
        <time>2015-10-17T14:15:13Z</time>
      </trkpt>
      <trkpt lat="44.88091" lon="5.41942">
        <ele>900.4</ele>
        <time>2015-10-17T14:15:22Z</time>
      </trkpt>
      <trkpt lat="44.88134" lon="5.41949">
        <ele>899</ele>
        <time>2015-10-17T14:15:24Z</time>
      </trkpt>
      <trkpt lat="44.88156" lon="5.41957">
        <ele>897.5</ele>
        <time>2015-10-17T14:15:25Z</time>
      </trkpt>
      <trkpt lat="44.88377" lon="5.42068">
        <ele>891.3</ele>
        <time>2015-10-17T14:15:36Z</time>
      </trkpt>
      <trkpt lat="44.88396" lon="5.42074">
        <ele>890.8</ele>
        <time>2015-10-17T14:15:37Z</time>
      </trkpt>
      <trkpt lat="44.88419" lon="5.4207">
        <ele>890.3</ele>
        <time>2015-10-17T14:15:38Z</time>
      </trkpt>
      <trkpt lat="44.88619" lon="5.42084">
        <ele>882.6</ele>
        <time>2015-10-17T14:15:47Z</time>
      </trkpt>
      <trkpt lat="44.88952" lon="5.42138">
        <ele>872.1</ele>
        <time>2015-10-17T14:16:02Z</time>
      </trkpt>
      <trkpt lat="44.89132" lon="5.42138">
        <ele>867.7</ele>
        <time>2015-10-17T14:16:10Z</time>
      </trkpt>
      <trkpt lat="44.89177" lon="5.42139">
        <ele>866.8</ele>
        <time>2015-10-17T14:16:12Z</time>
      </trkpt>
      <trkpt lat="44.892" lon="5.42146">
        <ele>866.3</ele>
        <time>2015-10-17T14:16:13Z</time>
      </trkpt>
      <trkpt lat="44.89222" lon="5.42157">
        <ele>865.8</ele>
        <time>2015-10-17T14:16:14Z</time>
      </trkpt>
      <trkpt lat="44.89458" lon="5.42281">
        <ele>859.1</ele>
        <time>2015-10-17T14:16:24Z</time>
      </trkpt>
      <trkpt lat="44.89586" lon="5.42347">
        <ele>855.2</ele>
        <time>2015-10-17T14:16:30Z</time>
      </trkpt>
      <trkpt lat="44.89608" lon="5.4235">
        <ele>854.3</ele>
        <time>2015-10-17T14:16:31Z</time>
      </trkpt>
      <trkpt lat="44.8963" lon="5.42351">
        <ele>853.3</ele>
        <time>2015-10-17T14:16:32Z</time>
      </trkpt>
      <trkpt lat="44.89694" lon="5.42354">
        <ele>851.4</ele>
        <time>2015-10-17T14:16:35Z</time>
      </trkpt>
      <trkpt lat="44.89714" lon="5.42361">
        <ele>850.9</ele>
        <time>2015-10-17T14:16:36Z</time>
      </trkpt>
      <trkpt lat="44.89733" lon="5.42372">
        <ele>850.9</ele>
        <time>2015-10-17T14:16:37Z</time>
      </trkpt>
      <trkpt lat="44.89905" lon="5.42462">
        <ele>849</ele>
        <time>2015-10-17T14:16:46Z</time>
      </trkpt>
      <trkpt lat="44.90102" lon="5.42549">
        <ele>844.7</ele>
        <time>2015-10-17T14:16:57Z</time>
      </trkpt>
      <trkpt lat="44.90292" lon="5.42562">
        <ele>840.3</ele>
        <time>2015-10-17T14:17:06Z</time>
      </trkpt>
      <trkpt lat="44.9063" lon="5.42577">
        <ele>835.5</ele>
        <time>2015-10-17T14:17:22Z</time>
      </trkpt>
      <trkpt lat="44.90651" lon="5.4258">
        <ele>835</ele>
        <time>2015-10-17T14:17:23Z</time>
      </trkpt>
      <trkpt lat="44.90818" lon="5.42658">
        <ele>831.7</ele>
        <time>2015-10-17T14:17:31Z</time>
      </trkpt>
      <trkpt lat="44.90839" lon="5.42668">
        <ele>831.2</ele>
        <time>2015-10-17T14:17:32Z</time>
      </trkpt>
      <trkpt lat="44.9086" lon="5.42674">
        <ele>830.7</ele>
        <time>2015-10-17T14:17:33Z</time>
      </trkpt>
      <trkpt lat="44.90883" lon="5.42676">
        <ele>830.7</ele>
        <time>2015-10-17T14:17:34Z</time>
      </trkpt>
      <trkpt lat="44.90907" lon="5.42674">
        <ele>830.2</ele>
        <time>2015-10-17T14:17:35Z</time>
      </trkpt>
      <trkpt lat="44.90931" lon="5.42671">
        <ele>829.8</ele>
        <time>2015-10-17T14:17:36Z</time>
      </trkpt>
      <trkpt lat="44.91024" lon="5.42665">
        <ele>827.8</ele>
        <time>2015-10-17T14:17:40Z</time>
      </trkpt>
      <trkpt lat="44.91227" lon="5.42695">
        <ele>823.5</ele>
        <time>2015-10-17T14:17:49Z</time>
      </trkpt>
      <trkpt lat="44.91506" lon="5.4272">
        <ele>820.1</ele>
        <time>2015-10-17T14:18:01Z</time>
      </trkpt>
      <trkpt lat="44.91764" lon="5.42758">
        <ele>817.3</ele>
        <time>2015-10-17T14:18:12Z</time>
      </trkpt>
      <trkpt lat="44.91785" lon="5.42767">
        <ele>816.8</ele>
        <time>2015-10-17T14:18:13Z</time>
      </trkpt>
      <trkpt lat="44.91805" lon="5.42781">
        <ele>815.8</ele>
        <time>2015-10-17T14:18:14Z</time>
      </trkpt>
      <trkpt lat="44.91958" lon="5.42851">
        <ele>812.5</ele>
        <time>2015-10-17T14:18:21Z</time>
      </trkpt>
      <trkpt lat="44.92002" lon="5.42852">
        <ele>811.5</ele>
        <time>2015-10-17T14:18:23Z</time>
      </trkpt>
      <trkpt lat="44.92024" lon="5.42848">
        <ele>811</ele>
        <time>2015-10-17T14:18:24Z</time>
      </trkpt>
      <trkpt lat="44.92046" lon="5.4284">
        <ele>811</ele>
        <time>2015-10-17T14:18:25Z</time>
      </trkpt>
      <trkpt lat="44.92067" lon="5.42834">
        <ele>810.5</ele>
        <time>2015-10-17T14:18:26Z</time>
      </trkpt>
      <trkpt lat="44.9209" lon="5.42831">
        <ele>810.5</ele>
        <time>2015-10-17T14:18:27Z</time>
      </trkpt>
      <trkpt lat="44.92113" lon="5.42832">
        <ele>810.5</ele>
        <time>2015-10-17T14:18:28Z</time>
      </trkpt>
      <trkpt lat="44.92137" lon="5.42834">
        <ele>810.1</ele>
        <time>2015-10-17T14:18:29Z</time>
      </trkpt>
      <trkpt lat="44.92327" lon="5.42804">
        <ele>807.2</ele>
        <time>2015-10-17T14:18:37Z</time>
      </trkpt>
      <trkpt lat="44.92618" lon="5.42748">
        <ele>802.8</ele>
        <time>2015-10-17T14:18:50Z</time>
      </trkpt>
      <trkpt lat="44.92838" lon="5.42776">
        <ele>798.5</ele>
        <time>2015-10-17T14:18:59Z</time>
      </trkpt>
      <trkpt lat="44.93098" lon="5.42816">
        <ele>795.6</ele>
        <time>2015-10-17T14:19:10Z</time>
      </trkpt>
      <trkpt lat="44.93119" lon="5.42828">
        <ele>795.6</ele>
        <time>2015-10-17T14:19:11Z</time>
      </trkpt>
      <trkpt lat="44.93139" lon="5.42842">
        <ele>796.1</ele>
        <time>2015-10-17T14:19:12Z</time>
      </trkpt>
      <trkpt lat="44.93293" lon="5.4294">
        <ele>799.5</ele>
        <time>2015-10-17T14:19:20Z</time>
      </trkpt>
      <trkpt lat="44.93387" lon="5.42974">
        <ele>800.9</ele>
        <time>2015-10-17T14:19:27Z</time>
      </trkpt>
      <trkpt lat="44.9349" lon="5.4301">
        <ele>801.4</ele>
        <time>2015-10-17T14:19:39Z</time>
      </trkpt>
      <trkpt lat="44.9359" lon="5.43029">
        <ele>804.3</ele>
        <time>2015-10-17T14:19:50Z</time>
      </trkpt>
      <trkpt lat="44.93621" lon="5.43035">
        <ele>805.2</ele>
        <time>2015-10-17T14:19:55Z</time>
      </trkpt>
      <trkpt lat="44.93626" lon="5.43039">
        <ele>805.2</ele>
        <time>2015-10-17T14:19:56Z</time>
      </trkpt>
      <trkpt lat="44.9363" lon="5.43045">
        <ele>805.2</ele>
        <time>2015-10-17T14:19:57Z</time>
      </trkpt>
      <trkpt lat="44.93631" lon="5.43054">
        <ele>805.2</ele>
        <time>2015-10-17T14:19:58Z</time>
      </trkpt>
      <trkpt lat="44.93632" lon="5.43064">
        <ele>805.2</ele>
        <time>2015-10-17T14:19:59Z</time>
      </trkpt>
      <trkpt lat="44.93632" lon="5.43074">
        <ele>804.8</ele>
        <time>2015-10-17T14:20:00Z</time>
      </trkpt>
      <trkpt lat="44.93633" lon="5.43085">
        <ele>804.8</ele>
        <time>2015-10-17T14:20:01Z</time>
      </trkpt>
      <trkpt lat="44.93635" lon="5.43096">
        <ele>804.8</ele>
        <time>2015-10-17T14:20:02Z</time>
      </trkpt>
      <trkpt lat="44.93638" lon="5.43105">
        <ele>804.3</ele>
        <time>2015-10-17T14:20:03Z</time>
      </trkpt>
      <trkpt lat="44.93652" lon="5.43156">
        <ele>803.3</ele>
        <time>2015-10-17T14:20:09Z</time>
      </trkpt>
      <trkpt lat="44.93653" lon="5.43166">
        <ele>803.3</ele>
        <time>2015-10-17T14:20:10Z</time>
      </trkpt>
      <trkpt lat="44.93652" lon="5.43187">
        <ele>803.3</ele>
        <time>2015-10-17T14:20:12Z</time>
      </trkpt>
      <trkpt lat="44.93651" lon="5.43198">
        <ele>803.3</ele>
        <time>2015-10-17T14:20:13Z</time>
      </trkpt>
      <trkpt lat="44.93648" lon="5.43239">
        <ele>802.8</ele>
        <time>2015-10-17T14:20:16Z</time>
      </trkpt>
      <trkpt lat="44.93649" lon="5.43255">
        <ele>803.3</ele>
        <time>2015-10-17T14:20:17Z</time>
      </trkpt>
      <trkpt lat="44.93652" lon="5.4327">
        <ele>803.3</ele>
        <time>2015-10-17T14:20:18Z</time>
      </trkpt>
      <trkpt lat="44.9366" lon="5.43285">
        <ele>803.8</ele>
        <time>2015-10-17T14:20:19Z</time>
      </trkpt>
      <trkpt lat="44.93672" lon="5.43295">
        <ele>803.3</ele>
        <time>2015-10-17T14:20:20Z</time>
      </trkpt>
      <trkpt lat="44.93684" lon="5.43305">
        <ele>802.4</ele>
        <time>2015-10-17T14:20:21Z</time>
      </trkpt>
      <trkpt lat="44.93698" lon="5.43314">
        <ele>801.4</ele>
        <time>2015-10-17T14:20:22Z</time>
      </trkpt>
      <trkpt lat="44.93711" lon="5.43321">
        <ele>800.9</ele>
        <time>2015-10-17T14:20:23Z</time>
      </trkpt>
      <trkpt lat="44.93724" lon="5.43328">
        <ele>800.4</ele>
        <time>2015-10-17T14:20:24Z</time>
      </trkpt>
      <trkpt lat="44.93739" lon="5.43333">
        <ele>799.5</ele>
        <time>2015-10-17T14:20:25Z</time>
      </trkpt>
      <trkpt lat="44.93754" lon="5.43337">
        <ele>799</ele>
        <time>2015-10-17T14:20:26Z</time>
      </trkpt>
      <trkpt lat="44.93885" lon="5.43374">
        <ele>792.7</ele>
        <time>2015-10-17T14:20:33Z</time>
      </trkpt>
      <trkpt lat="44.94132" lon="5.4341">
        <ele>780.3</ele>
        <time>2015-10-17T14:20:45Z</time>
      </trkpt>
      <trkpt lat="44.94391" lon="5.43405">
        <ele>773</ele>
        <time>2015-10-17T14:20:56Z</time>
      </trkpt>
      <trkpt lat="44.94658" lon="5.4342">
        <ele>767.3</ele>
        <time>2015-10-17T14:21:08Z</time>
      </trkpt>
      <trkpt lat="44.94933" lon="5.43434">
        <ele>764.4</ele>
        <time>2015-10-17T14:21:20Z</time>
      </trkpt>
      <trkpt lat="44.95142" lon="5.4348">
        <ele>763.9</ele>
        <time>2015-10-17T14:21:29Z</time>
      </trkpt>
      <trkpt lat="44.95261" lon="5.43551">
        <ele>762.5</ele>
        <time>2015-10-17T14:21:35Z</time>
      </trkpt>
      <trkpt lat="44.9528" lon="5.4356">
        <ele>761.5</ele>
        <time>2015-10-17T14:21:36Z</time>
      </trkpt>
      <trkpt lat="44.95301" lon="5.43566">
        <ele>761.5</ele>
        <time>2015-10-17T14:21:37Z</time>
      </trkpt>
      <trkpt lat="44.9546" lon="5.43586">
        <ele>757.7</ele>
        <time>2015-10-17T14:21:45Z</time>
      </trkpt>
      <trkpt lat="44.95616" lon="5.43604">
        <ele>754.3</ele>
        <time>2015-10-17T14:21:53Z</time>
      </trkpt>
      <trkpt lat="44.95639" lon="5.43612">
        <ele>753.8</ele>
        <time>2015-10-17T14:21:54Z</time>
      </trkpt>
      <trkpt lat="44.95663" lon="5.43624">
        <ele>752.9</ele>
        <time>2015-10-17T14:21:55Z</time>
      </trkpt>
      <trkpt lat="44.95851" lon="5.43688">
        <ele>751.9</ele>
        <time>2015-10-17T14:22:03Z</time>
      </trkpt>
      <trkpt lat="44.9603" lon="5.43722">
        <ele>750</ele>
        <time>2015-10-17T14:22:11Z</time>
      </trkpt>
      <trkpt lat="44.96052" lon="5.43719">
        <ele>750</ele>
        <time>2015-10-17T14:22:12Z</time>
      </trkpt>
      <trkpt lat="44.9617" lon="5.43695">
        <ele>750.9</ele>
        <time>2015-10-17T14:22:18Z</time>
      </trkpt>
      <trkpt lat="44.96184" lon="5.43696">
        <ele>751.4</ele>
        <time>2015-10-17T14:22:19Z</time>
      </trkpt>
      <trkpt lat="44.96197" lon="5.43701">
        <ele>751.4</ele>
        <time>2015-10-17T14:22:20Z</time>
      </trkpt>
      <trkpt lat="44.96208" lon="5.43712">
        <ele>751.4</ele>
        <time>2015-10-17T14:22:21Z</time>
      </trkpt>
      <trkpt lat="44.96217" lon="5.43726">
        <ele>751.9</ele>
        <time>2015-10-17T14:22:22Z</time>
      </trkpt>
      <trkpt lat="44.96226" lon="5.43742">
        <ele>752.4</ele>
        <time>2015-10-17T14:22:23Z</time>
      </trkpt>
      <trkpt lat="44.96236" lon="5.43755">
        <ele>752.4</ele>
        <time>2015-10-17T14:22:24Z</time>
      </trkpt>
      <trkpt lat="44.96249" lon="5.43764">
        <ele>752.9</ele>
        <time>2015-10-17T14:22:25Z</time>
      </trkpt>
      <trkpt lat="44.96262" lon="5.43771">
        <ele>752.9</ele>
        <time>2015-10-17T14:22:26Z</time>
      </trkpt>
      <trkpt lat="44.96278" lon="5.43773">
        <ele>753.3</ele>
        <time>2015-10-17T14:22:27Z</time>
      </trkpt>
      <trkpt lat="44.96294" lon="5.43774">
        <ele>753.3</ele>
        <time>2015-10-17T14:22:28Z</time>
      </trkpt>
      <trkpt lat="44.96311" lon="5.43774">
        <ele>753.8</ele>
        <time>2015-10-17T14:22:29Z</time>
      </trkpt>
      <trkpt lat="44.96327" lon="5.43772">
        <ele>753.8</ele>
        <time>2015-10-17T14:22:30Z</time>
      </trkpt>
      <trkpt lat="44.96342" lon="5.43767">
        <ele>754.3</ele>
        <time>2015-10-17T14:22:31Z</time>
      </trkpt>
      <trkpt lat="44.96356" lon="5.43756">
        <ele>755.3</ele>
        <time>2015-10-17T14:22:32Z</time>
      </trkpt>
      <trkpt lat="44.9637" lon="5.43742">
        <ele>755.7</ele>
        <time>2015-10-17T14:22:33Z</time>
      </trkpt>
      <trkpt lat="44.96384" lon="5.43727">
        <ele>756.2</ele>
        <time>2015-10-17T14:22:34Z</time>
      </trkpt>
      <trkpt lat="44.96494" lon="5.43614">
        <ele>759.1</ele>
        <time>2015-10-17T14:22:41Z</time>
      </trkpt>
      <trkpt lat="44.96513" lon="5.43603">
        <ele>759.6</ele>
        <time>2015-10-17T14:22:42Z</time>
      </trkpt>
      <trkpt lat="44.96532" lon="5.43596">
        <ele>760.1</ele>
        <time>2015-10-17T14:22:43Z</time>
      </trkpt>
      <trkpt lat="44.96612" lon="5.43586">
        <ele>762.5</ele>
        <time>2015-10-17T14:22:47Z</time>
      </trkpt>
      <trkpt lat="44.96632" lon="5.4359">
        <ele>762.5</ele>
        <time>2015-10-17T14:22:48Z</time>
      </trkpt>
      <trkpt lat="44.96834" lon="5.43623">
        <ele>763.9</ele>
        <time>2015-10-17T14:22:58Z</time>
      </trkpt>
      <trkpt lat="44.96939" lon="5.43639">
        <ele>762.9</ele>
        <time>2015-10-17T14:23:03Z</time>
      </trkpt>
      <trkpt lat="44.9696" lon="5.43636">
        <ele>762.9</ele>
        <time>2015-10-17T14:23:04Z</time>
      </trkpt>
      <trkpt lat="44.96982" lon="5.43631">
        <ele>762.5</ele>
        <time>2015-10-17T14:23:05Z</time>
      </trkpt>
      <trkpt lat="44.97131" lon="5.43599">
        <ele>759.1</ele>
        <time>2015-10-17T14:23:12Z</time>
      </trkpt>
      <trkpt lat="44.97283" lon="5.43593">
        <ele>757.2</ele>
        <time>2015-10-17T14:23:20Z</time>
      </trkpt>
      <trkpt lat="44.97434" lon="5.43621">
        <ele>754.3</ele>
        <time>2015-10-17T14:23:28Z</time>
      </trkpt>
      <trkpt lat="44.97544" lon="5.43645">
        <ele>752.4</ele>
        <time>2015-10-17T14:23:35Z</time>
      </trkpt>
      <trkpt lat="44.97559" lon="5.43642">
        <ele>750.9</ele>
        <time>2015-10-17T14:23:36Z</time>
      </trkpt>
      <trkpt lat="44.97572" lon="5.43636">
        <ele>750</ele>
        <time>2015-10-17T14:23:37Z</time>
      </trkpt>
      <trkpt lat="44.97586" lon="5.43631">
        <ele>749</ele>
        <time>2015-10-17T14:23:38Z</time>
      </trkpt>
      <trkpt lat="44.97599" lon="5.43629">
        <ele>747.6</ele>
        <time>2015-10-17T14:23:39Z</time>
      </trkpt>
      <trkpt lat="44.97613" lon="5.43631">
        <ele>746.6</ele>
        <time>2015-10-17T14:23:40Z</time>
      </trkpt>
      <trkpt lat="44.97626" lon="5.43637">
        <ele>745.6</ele>
        <time>2015-10-17T14:23:41Z</time>
      </trkpt>
      <trkpt lat="44.97639" lon="5.43644">
        <ele>744.7</ele>
        <time>2015-10-17T14:23:42Z</time>
      </trkpt>
      <trkpt lat="44.97652" lon="5.43649">
        <ele>743.7</ele>
        <time>2015-10-17T14:23:43Z</time>
      </trkpt>
      <trkpt lat="44.97666" lon="5.43652">
        <ele>743.2</ele>
        <time>2015-10-17T14:23:44Z</time>
      </trkpt>
      <trkpt lat="44.97682" lon="5.43653">
        <ele>742.8</ele>
        <time>2015-10-17T14:23:45Z</time>
      </trkpt>
      <trkpt lat="44.977" lon="5.43656">
        <ele>741.8</ele>
        <time>2015-10-17T14:23:46Z</time>
      </trkpt>
      <trkpt lat="44.97719" lon="5.4366">
        <ele>740.8</ele>
        <time>2015-10-17T14:23:47Z</time>
      </trkpt>
      <trkpt lat="44.97893" lon="5.43696">
        <ele>733.6</ele>
        <time>2015-10-17T14:23:55Z</time>
      </trkpt>
      <trkpt lat="44.98013" lon="5.43742">
        <ele>729.8</ele>
        <time>2015-10-17T14:24:01Z</time>
      </trkpt>
      <trkpt lat="44.9803" lon="5.43752">
        <ele>729.3</ele>
        <time>2015-10-17T14:24:02Z</time>
      </trkpt>
      <trkpt lat="44.98048" lon="5.43759">
        <ele>728.8</ele>
        <time>2015-10-17T14:24:03Z</time>
      </trkpt>
      <trkpt lat="44.98234" lon="5.43818">
        <ele>722.6</ele>
        <time>2015-10-17T14:24:13Z</time>
      </trkpt>
      <trkpt lat="44.98292" lon="5.43848">
        <ele>719.7</ele>
        <time>2015-10-17T14:24:16Z</time>
      </trkpt>
      <trkpt lat="44.98313" lon="5.43853">
        <ele>718.7</ele>
        <time>2015-10-17T14:24:17Z</time>
      </trkpt>
      <trkpt lat="44.98335" lon="5.43855">
        <ele>718.2</ele>
        <time>2015-10-17T14:24:18Z</time>
      </trkpt>
      <trkpt lat="44.98403" lon="5.43862">
        <ele>716.8</ele>
        <time>2015-10-17T14:24:21Z</time>
      </trkpt>
      <trkpt lat="44.98425" lon="5.43868">
        <ele>716.3</ele>
        <time>2015-10-17T14:24:22Z</time>
      </trkpt>
      <trkpt lat="44.98542" lon="5.4392">
        <ele>713.4</ele>
        <time>2015-10-17T14:24:28Z</time>
      </trkpt>
      <trkpt lat="44.98562" lon="5.43925">
        <ele>713.4</ele>
        <time>2015-10-17T14:24:29Z</time>
      </trkpt>
      <trkpt lat="44.98583" lon="5.43927">
        <ele>713.4</ele>
        <time>2015-10-17T14:24:30Z</time>
      </trkpt>
      <trkpt lat="44.98786" lon="5.43951">
        <ele>710.1</ele>
        <time>2015-10-17T14:24:39Z</time>
      </trkpt>
      <trkpt lat="44.98914" lon="5.43979">
        <ele>708.2</ele>
        <time>2015-10-17T14:24:45Z</time>
      </trkpt>
      <trkpt lat="44.98935" lon="5.4398">
        <ele>707.7</ele>
        <time>2015-10-17T14:24:46Z</time>
      </trkpt>
      <trkpt lat="44.9913" lon="5.43984">
        <ele>703.8</ele>
        <time>2015-10-17T14:24:55Z</time>
      </trkpt>
      <trkpt lat="44.9933" lon="5.44009">
        <ele>701.9</ele>
        <time>2015-10-17T14:25:05Z</time>
      </trkpt>
      <trkpt lat="44.99482" lon="5.44048">
        <ele>699</ele>
        <time>2015-10-17T14:25:13Z</time>
      </trkpt>
      <trkpt lat="44.995" lon="5.4405">
        <ele>699</ele>
        <time>2015-10-17T14:25:14Z</time>
      </trkpt>
      <trkpt lat="44.99712" lon="5.44062">
        <ele>696.6</ele>
        <time>2015-10-17T14:25:25Z</time>
      </trkpt>
      <trkpt lat="44.9977" lon="5.44062">
        <ele>695.7</ele>
        <time>2015-10-17T14:25:28Z</time>
      </trkpt>
      <trkpt lat="44.99916" lon="5.4404">
        <ele>692.8</ele>
        <time>2015-10-17T14:25:36Z</time>
      </trkpt>
      <trkpt lat="44.99934" lon="5.44031">
        <ele>692.8</ele>
        <time>2015-10-17T14:25:37Z</time>
      </trkpt>
      <trkpt lat="44.9995" lon="5.44018">
        <ele>692.3</ele>
        <time>2015-10-17T14:25:38Z</time>
      </trkpt>
      <trkpt lat="44.99965" lon="5.44003">
        <ele>691.3</ele>
        <time>2015-10-17T14:25:39Z</time>
      </trkpt>
      <trkpt lat="44.99978" lon="5.43985">
        <ele>690.4</ele>
        <time>2015-10-17T14:25:40Z</time>
      </trkpt>
      <trkpt lat="44.99989" lon="5.43965">
        <ele>689.9</ele>
        <time>2015-10-17T14:25:41Z</time>
      </trkpt>
      <trkpt lat="44.99999" lon="5.43946">
        <ele>689.4</ele>
        <time>2015-10-17T14:25:42Z</time>
      </trkpt>
      <trkpt lat="45.0006" lon="5.43832">
        <ele>688</ele>
        <time>2015-10-17T14:25:48Z</time>
      </trkpt>
      <trkpt lat="45.00067" lon="5.4381">
        <ele>688</ele>
        <time>2015-10-17T14:25:49Z</time>
      </trkpt>
      <trkpt lat="45.00071" lon="5.43788">
        <ele>688.4</ele>
        <time>2015-10-17T14:25:50Z</time>
      </trkpt>
      <trkpt lat="45.0008" lon="5.43747">
        <ele>688.4</ele>
        <time>2015-10-17T14:25:52Z</time>
      </trkpt>
      <trkpt lat="45.00086" lon="5.4373">
        <ele>688.4</ele>
        <time>2015-10-17T14:25:53Z</time>
      </trkpt>
      <trkpt lat="45.00095" lon="5.43717">
        <ele>688.9</ele>
        <time>2015-10-17T14:25:54Z</time>
      </trkpt>
      <trkpt lat="45.00105" lon="5.43706">
        <ele>689.4</ele>
        <time>2015-10-17T14:25:55Z</time>
      </trkpt>
      <trkpt lat="45.00115" lon="5.43697">
        <ele>689.4</ele>
        <time>2015-10-17T14:25:56Z</time>
      </trkpt>
      <trkpt lat="45.00151" lon="5.43652">
        <ele>689.4</ele>
        <time>2015-10-17T14:26:03Z</time>
      </trkpt>
      <trkpt lat="45.00181" lon="5.43626">
        <ele>689.4</ele>
        <time>2015-10-17T14:26:13Z</time>
      </trkpt>
      <trkpt lat="45.00184" lon="5.4363">
        <ele>691.3</ele>
        <time>2015-10-17T14:27:01Z</time>
      </trkpt>
      <trkpt lat="45.0019" lon="5.43632">
        <ele>691.3</ele>
        <time>2015-10-17T14:27:02Z</time>
      </trkpt>
      <trkpt lat="45.00198" lon="5.43636">
        <ele>691.3</ele>
        <time>2015-10-17T14:27:03Z</time>
      </trkpt>
      <trkpt lat="45.00291" lon="5.43678">
        <ele>693.3</ele>
        <time>2015-10-17T14:27:11Z</time>
      </trkpt>
      <trkpt lat="45.00305" lon="5.43689">
        <ele>693.7</ele>
        <time>2015-10-17T14:27:12Z</time>
      </trkpt>
      <trkpt lat="45.00316" lon="5.43702">
        <ele>694.2</ele>
        <time>2015-10-17T14:27:13Z</time>
      </trkpt>
      <trkpt lat="45.00326" lon="5.4372">
        <ele>694.2</ele>
        <time>2015-10-17T14:27:14Z</time>
      </trkpt>
      <trkpt lat="45.00331" lon="5.43741">
        <ele>693.7</ele>
        <time>2015-10-17T14:27:15Z</time>
      </trkpt>
      <trkpt lat="45.0033" lon="5.43768">
        <ele>694.7</ele>
        <time>2015-10-17T14:27:16Z</time>
      </trkpt>
      <trkpt lat="45.00326" lon="5.43795">
        <ele>695.2</ele>
        <time>2015-10-17T14:27:17Z</time>
      </trkpt>
      <trkpt lat="45.00323" lon="5.43823">
        <ele>695.2</ele>
        <time>2015-10-17T14:27:18Z</time>
      </trkpt>
      <trkpt lat="45.00302" lon="5.44024">
        <ele>696.6</ele>
        <time>2015-10-17T14:27:26Z</time>
      </trkpt>
      <trkpt lat="45.00303" lon="5.44044">
        <ele>697.1</ele>
        <time>2015-10-17T14:27:27Z</time>
      </trkpt>
      <trkpt lat="45.00307" lon="5.44061">
        <ele>698.1</ele>
        <time>2015-10-17T14:27:28Z</time>
      </trkpt>
      <trkpt lat="45.00315" lon="5.44077">
        <ele>699</ele>
        <time>2015-10-17T14:27:29Z</time>
      </trkpt>
      <trkpt lat="45.00328" lon="5.44092">
        <ele>700</ele>
        <time>2015-10-17T14:27:30Z</time>
      </trkpt>
      <trkpt lat="45.0034" lon="5.44108">
        <ele>700.9</ele>
        <time>2015-10-17T14:27:31Z</time>
      </trkpt>
      <trkpt lat="45.00364" lon="5.44134">
        <ele>701.9</ele>
        <time>2015-10-17T14:27:33Z</time>
      </trkpt>
      <trkpt lat="45.00377" lon="5.44142">
        <ele>702.4</ele>
        <time>2015-10-17T14:27:34Z</time>
      </trkpt>
      <trkpt lat="45.00392" lon="5.44146">
        <ele>703.3</ele>
        <time>2015-10-17T14:27:35Z</time>
      </trkpt>
      <trkpt lat="45.0044" lon="5.44151">
        <ele>705.3</ele>
        <time>2015-10-17T14:27:38Z</time>
      </trkpt>
      <trkpt lat="45.00455" lon="5.44146">
        <ele>705.8</ele>
        <time>2015-10-17T14:27:39Z</time>
      </trkpt>
      <trkpt lat="45.00471" lon="5.44136">
        <ele>706.7</ele>
        <time>2015-10-17T14:27:40Z</time>
      </trkpt>
      <trkpt lat="45.00486" lon="5.44126">
        <ele>706.7</ele>
        <time>2015-10-17T14:27:41Z</time>
      </trkpt>
      <trkpt lat="45.00503" lon="5.44119">
        <ele>707.2</ele>
        <time>2015-10-17T14:27:42Z</time>
      </trkpt>
      <trkpt lat="45.00521" lon="5.44117">
        <ele>708.2</ele>
        <time>2015-10-17T14:27:43Z</time>
      </trkpt>
      <trkpt lat="45.00675" lon="5.44093">
        <ele>712.5</ele>
        <time>2015-10-17T14:27:51Z</time>
      </trkpt>
      <trkpt lat="45.00709" lon="5.44086">
        <ele>712.5</ele>
        <time>2015-10-17T14:27:53Z</time>
      </trkpt>
      <trkpt lat="45.00723" lon="5.44088">
        <ele>712.5</ele>
        <time>2015-10-17T14:27:54Z</time>
      </trkpt>
      <trkpt lat="45.00735" lon="5.44092">
        <ele>713</ele>
        <time>2015-10-17T14:27:55Z</time>
      </trkpt>
      <trkpt lat="45.00745" lon="5.44103">
        <ele>713.9</ele>
        <time>2015-10-17T14:27:56Z</time>
      </trkpt>
      <trkpt lat="45.00748" lon="5.44124">
        <ele>714.9</ele>
        <time>2015-10-17T14:27:57Z</time>
      </trkpt>
      <trkpt lat="45.00744" lon="5.44153">
        <ele>718.7</ele>
        <time>2015-10-17T14:27:58Z</time>
      </trkpt>
      <trkpt lat="45.00747" lon="5.44177">
        <ele>717.3</ele>
        <time>2015-10-17T14:27:59Z</time>
      </trkpt>
      <trkpt lat="45.00751" lon="5.44222">
        <ele>715.4</ele>
        <time>2015-10-17T14:28:01Z</time>
      </trkpt>
      <trkpt lat="45.00757" lon="5.4424">
        <ele>714.9</ele>
        <time>2015-10-17T14:28:02Z</time>
      </trkpt>
      <trkpt lat="45.00766" lon="5.44256">
        <ele>715.4</ele>
        <time>2015-10-17T14:28:03Z</time>
      </trkpt>
      <trkpt lat="45.00778" lon="5.44267">
        <ele>714.9</ele>
        <time>2015-10-17T14:28:04Z</time>
      </trkpt>
      <trkpt lat="45.00791" lon="5.44269">
        <ele>715.8</ele>
        <time>2015-10-17T14:28:05Z</time>
      </trkpt>
      <trkpt lat="45.00805" lon="5.44263">
        <ele>716.3</ele>
        <time>2015-10-17T14:28:06Z</time>
      </trkpt>
      <trkpt lat="45.0082" lon="5.44256">
        <ele>716.8</ele>
        <time>2015-10-17T14:28:07Z</time>
      </trkpt>
      <trkpt lat="45.00834" lon="5.44244">
        <ele>716.3</ele>
        <time>2015-10-17T14:28:08Z</time>
      </trkpt>
      <trkpt lat="45.00849" lon="5.44232">
        <ele>716.3</ele>
        <time>2015-10-17T14:28:09Z</time>
      </trkpt>
      <trkpt lat="45.00895" lon="5.44209">
        <ele>711.5</ele>
        <time>2015-10-17T14:28:12Z</time>
      </trkpt>
      <trkpt lat="45.00908" lon="5.44213">
        <ele>711.5</ele>
        <time>2015-10-17T14:28:13Z</time>
      </trkpt>
      <trkpt lat="45.00921" lon="5.44222">
        <ele>711</ele>
        <time>2015-10-17T14:28:14Z</time>
      </trkpt>
      <trkpt lat="45.00934" lon="5.44236">
        <ele>711.5</ele>
        <time>2015-10-17T14:28:15Z</time>
      </trkpt>
      <trkpt lat="45.00945" lon="5.44251">
        <ele>714.9</ele>
        <time>2015-10-17T14:28:16Z</time>
      </trkpt>
      <trkpt lat="45.00959" lon="5.44262">
        <ele>716.3</ele>
        <time>2015-10-17T14:28:17Z</time>
      </trkpt>
      <trkpt lat="45.00975" lon="5.44269">
        <ele>716.8</ele>
        <time>2015-10-17T14:28:18Z</time>
      </trkpt>
      <trkpt lat="45.00993" lon="5.44273">
        <ele>717.3</ele>
        <time>2015-10-17T14:28:19Z</time>
      </trkpt>
      <trkpt lat="45.01012" lon="5.44274">
        <ele>717.8</ele>
        <time>2015-10-17T14:28:20Z</time>
      </trkpt>
      <trkpt lat="45.01033" lon="5.44273">
        <ele>718.2</ele>
        <time>2015-10-17T14:28:21Z</time>
      </trkpt>
      <trkpt lat="45.01246" lon="5.44284">
        <ele>725</ele>
        <time>2015-10-17T14:28:31Z</time>
      </trkpt>
      <trkpt lat="45.01267" lon="5.44283">
        <ele>725</ele>
        <time>2015-10-17T14:28:32Z</time>
      </trkpt>
      <trkpt lat="45.01288" lon="5.44279">
        <ele>725.5</ele>
        <time>2015-10-17T14:28:33Z</time>
      </trkpt>
      <trkpt lat="45.01497" lon="5.44237">
        <ele>731.2</ele>
        <time>2015-10-17T14:28:43Z</time>
      </trkpt>
      <trkpt lat="45.01646" lon="5.44251">
        <ele>737.5</ele>
        <time>2015-10-17T14:28:50Z</time>
      </trkpt>
      <trkpt lat="45.01785" lon="5.44278">
        <ele>743.2</ele>
        <time>2015-10-17T14:28:57Z</time>
      </trkpt>
      <trkpt lat="45.01884" lon="5.44279">
        <ele>746.6</ele>
        <time>2015-10-17T14:29:04Z</time>
      </trkpt>
      <trkpt lat="45.01956" lon="5.4428">
        <ele>748.5</ele>
        <time>2015-10-17T14:29:10Z</time>
      </trkpt>
      <trkpt lat="45.01967" lon="5.44277">
        <ele>749</ele>
        <time>2015-10-17T14:29:11Z</time>
      </trkpt>
      <trkpt lat="45.01977" lon="5.44272">
        <ele>749.5</ele>
        <time>2015-10-17T14:29:12Z</time>
      </trkpt>
      <trkpt lat="45.01987" lon="5.44267">
        <ele>750</ele>
        <time>2015-10-17T14:29:13Z</time>
      </trkpt>
      <trkpt lat="45.01998" lon="5.4426">
        <ele>750.5</ele>
        <time>2015-10-17T14:29:14Z</time>
      </trkpt>
      <trkpt lat="45.02047" lon="5.44239">
        <ele>752.9</ele>
        <time>2015-10-17T14:29:18Z</time>
      </trkpt>
      <trkpt lat="45.0206" lon="5.44238">
        <ele>753.3</ele>
        <time>2015-10-17T14:29:19Z</time>
      </trkpt>
      <trkpt lat="45.02072" lon="5.44238">
        <ele>753.8</ele>
        <time>2015-10-17T14:29:20Z</time>
      </trkpt>
      <trkpt lat="45.02084" lon="5.44239">
        <ele>754.3</ele>
        <time>2015-10-17T14:29:21Z</time>
      </trkpt>
      <trkpt lat="45.02095" lon="5.44242">
        <ele>754.8</ele>
        <time>2015-10-17T14:29:22Z</time>
      </trkpt>
      <trkpt lat="45.02121" lon="5.44251">
        <ele>756.2</ele>
        <time>2015-10-17T14:29:25Z</time>
      </trkpt>
      <trkpt lat="45.02195" lon="5.44295">
        <ele>762</ele>
        <time>2015-10-17T14:29:35Z</time>
      </trkpt>
      <trkpt lat="45.02318" lon="5.4433">
        <ele>760.1</ele>
        <time>2015-10-17T14:29:46Z</time>
      </trkpt>
      <trkpt lat="45.02517" lon="5.44389">
        <ele>757.7</ele>
        <time>2015-10-17T14:30:01Z</time>
      </trkpt>
      <trkpt lat="45.02655" lon="5.44396">
        <ele>764.9</ele>
        <time>2015-10-17T14:30:10Z</time>
      </trkpt>
      <trkpt lat="45.02718" lon="5.44397">
        <ele>769.2</ele>
        <time>2015-10-17T14:30:14Z</time>
      </trkpt>
      <trkpt lat="45.02733" lon="5.44393">
        <ele>769.7</ele>
        <time>2015-10-17T14:30:15Z</time>
      </trkpt>
      <trkpt lat="45.02748" lon="5.44385">
        <ele>771.1</ele>
        <time>2015-10-17T14:30:16Z</time>
      </trkpt>
      <trkpt lat="45.02764" lon="5.44376">
        <ele>772.1</ele>
        <time>2015-10-17T14:30:17Z</time>
      </trkpt>
      <trkpt lat="45.0278" lon="5.44369">
        <ele>773.5</ele>
        <time>2015-10-17T14:30:18Z</time>
      </trkpt>
      <trkpt lat="45.02797" lon="5.44364">
        <ele>774.5</ele>
        <time>2015-10-17T14:30:19Z</time>
      </trkpt>
      <trkpt lat="45.02814" lon="5.4436">
        <ele>775.9</ele>
        <time>2015-10-17T14:30:20Z</time>
      </trkpt>
      <trkpt lat="45.02831" lon="5.44357">
        <ele>777.4</ele>
        <time>2015-10-17T14:30:21Z</time>
      </trkpt>
      <trkpt lat="45.02849" lon="5.44358">
        <ele>778.3</ele>
        <time>2015-10-17T14:30:22Z</time>
      </trkpt>
      <trkpt lat="45.02867" lon="5.44363">
        <ele>779.3</ele>
        <time>2015-10-17T14:30:23Z</time>
      </trkpt>
      <trkpt lat="45.02885" lon="5.44372">
        <ele>780.3</ele>
        <time>2015-10-17T14:30:24Z</time>
      </trkpt>
      <trkpt lat="45.02903" lon="5.44383">
        <ele>781.2</ele>
        <time>2015-10-17T14:30:25Z</time>
      </trkpt>
      <trkpt lat="45.02941" lon="5.44399">
        <ele>783.6</ele>
        <time>2015-10-17T14:30:27Z</time>
      </trkpt>
      <trkpt lat="45.0296" lon="5.44403">
        <ele>784.1</ele>
        <time>2015-10-17T14:30:28Z</time>
      </trkpt>
      <trkpt lat="45.0298" lon="5.44405">
        <ele>785.5</ele>
        <time>2015-10-17T14:30:29Z</time>
      </trkpt>
      <trkpt lat="45.03055" lon="5.44409">
        <ele>790.8</ele>
        <time>2015-10-17T14:30:33Z</time>
      </trkpt>
      <trkpt lat="45.03073" lon="5.44404">
        <ele>792.3</ele>
        <time>2015-10-17T14:30:34Z</time>
      </trkpt>
      <trkpt lat="45.03109" lon="5.44395">
        <ele>795.6</ele>
        <time>2015-10-17T14:30:36Z</time>
      </trkpt>
      <trkpt lat="45.03128" lon="5.44394">
        <ele>797.6</ele>
        <time>2015-10-17T14:30:37Z</time>
      </trkpt>
      <trkpt lat="45.03302" lon="5.44387">
        <ele>810.5</ele>
        <time>2015-10-17T14:30:46Z</time>
      </trkpt>
      <trkpt lat="45.03506" lon="5.44416">
        <ele>825.4</ele>
        <time>2015-10-17T14:30:57Z</time>
      </trkpt>
      <trkpt lat="45.0357" lon="5.44435">
        <ele>832.6</ele>
        <time>2015-10-17T14:31:03Z</time>
      </trkpt>
      <trkpt lat="45.03575" lon="5.44441">
        <ele>833.6</ele>
        <time>2015-10-17T14:31:04Z</time>
      </trkpt>
      <trkpt lat="45.03576" lon="5.4445">
        <ele>834.1</ele>
        <time>2015-10-17T14:31:05Z</time>
      </trkpt>
      <trkpt lat="45.03571" lon="5.44461">
        <ele>834.6</ele>
        <time>2015-10-17T14:31:06Z</time>
      </trkpt>
      <trkpt lat="45.03566" lon="5.44472">
        <ele>835</ele>
        <time>2015-10-17T14:31:07Z</time>
      </trkpt>
      <trkpt lat="45.03557" lon="5.44479">
        <ele>835.5</ele>
        <time>2015-10-17T14:31:08Z</time>
      </trkpt>
      <trkpt lat="45.03547" lon="5.44483">
        <ele>836.5</ele>
        <time>2015-10-17T14:31:09Z</time>
      </trkpt>
      <trkpt lat="45.03536" lon="5.44486">
        <ele>837.5</ele>
        <time>2015-10-17T14:31:10Z</time>
      </trkpt>
      <trkpt lat="45.03525" lon="5.4449">
        <ele>837.9</ele>
        <time>2015-10-17T14:31:11Z</time>
      </trkpt>
      <trkpt lat="45.03515" lon="5.44498">
        <ele>838.4</ele>
        <time>2015-10-17T14:31:12Z</time>
      </trkpt>
      <trkpt lat="45.03505" lon="5.44509">
        <ele>838.9</ele>
        <time>2015-10-17T14:31:13Z</time>
      </trkpt>
      <trkpt lat="45.03495" lon="5.44523">
        <ele>840.3</ele>
        <time>2015-10-17T14:31:14Z</time>
      </trkpt>
      <trkpt lat="45.03486" lon="5.44539">
        <ele>841.3</ele>
        <time>2015-10-17T14:31:15Z</time>
      </trkpt>
      <trkpt lat="45.03386" lon="5.44752">
        <ele>856.7</ele>
        <time>2015-10-17T14:31:26Z</time>
      </trkpt>
      <trkpt lat="45.03349" lon="5.44829">
        <ele>862.4</ele>
        <time>2015-10-17T14:31:30Z</time>
      </trkpt>
      <trkpt lat="45.03338" lon="5.4484">
        <ele>863.9</ele>
        <time>2015-10-17T14:31:31Z</time>
      </trkpt>
      <trkpt lat="45.03324" lon="5.44843">
        <ele>865.3</ele>
        <time>2015-10-17T14:31:32Z</time>
      </trkpt>
      <trkpt lat="45.03293" lon="5.44843">
        <ele>867.3</ele>
        <time>2015-10-17T14:31:34Z</time>
      </trkpt>
      <trkpt lat="45.03277" lon="5.44845">
        <ele>868.7</ele>
        <time>2015-10-17T14:31:35Z</time>
      </trkpt>
      <trkpt lat="45.03261" lon="5.44851">
        <ele>869.7</ele>
        <time>2015-10-17T14:31:36Z</time>
      </trkpt>
      <trkpt lat="45.03245" lon="5.4486">
        <ele>871.1</ele>
        <time>2015-10-17T14:31:37Z</time>
      </trkpt>
      <trkpt lat="45.03229" lon="5.44872">
        <ele>872.1</ele>
        <time>2015-10-17T14:31:38Z</time>
      </trkpt>
      <trkpt lat="45.03214" lon="5.44886">
        <ele>873.5</ele>
        <time>2015-10-17T14:31:39Z</time>
      </trkpt>
      <trkpt lat="45.03199" lon="5.44903">
        <ele>874.9</ele>
        <time>2015-10-17T14:31:40Z</time>
      </trkpt>
      <trkpt lat="45.03184" lon="5.44921">
        <ele>875.9</ele>
        <time>2015-10-17T14:31:41Z</time>
      </trkpt>
      <trkpt lat="45.03169" lon="5.44941">
        <ele>877.3</ele>
        <time>2015-10-17T14:31:42Z</time>
      </trkpt>
      <trkpt lat="45.03045" lon="5.45066">
        <ele>888.9</ele>
        <time>2015-10-17T14:31:49Z</time>
      </trkpt>
      <trkpt lat="45.02929" lon="5.45139">
        <ele>898</ele>
        <time>2015-10-17T14:31:55Z</time>
      </trkpt>
      <trkpt lat="45.02843" lon="5.4519">
        <ele>909.5</ele>
        <time>2015-10-17T14:32:01Z</time>
      </trkpt>
      <trkpt lat="45.02838" lon="5.45199">
        <ele>912</ele>
        <time>2015-10-17T14:32:02Z</time>
      </trkpt>
      <trkpt lat="45.02834" lon="5.45207">
        <ele>912.4</ele>
        <time>2015-10-17T14:32:03Z</time>
      </trkpt>
      <trkpt lat="45.0283" lon="5.45219">
        <ele>912.4</ele>
        <time>2015-10-17T14:32:04Z</time>
      </trkpt>
      <trkpt lat="45.02825" lon="5.45231">
        <ele>912.9</ele>
        <time>2015-10-17T14:32:05Z</time>
      </trkpt>
      <trkpt lat="45.02818" lon="5.45243">
        <ele>913.4</ele>
        <time>2015-10-17T14:32:06Z</time>
      </trkpt>
      <trkpt lat="45.0281" lon="5.45256">
        <ele>914.4</ele>
        <time>2015-10-17T14:32:07Z</time>
      </trkpt>
      <trkpt lat="45.02801" lon="5.45268">
        <ele>915.3</ele>
        <time>2015-10-17T14:32:08Z</time>
      </trkpt>
      <trkpt lat="45.02772" lon="5.453">
        <ele>918.2</ele>
        <time>2015-10-17T14:32:11Z</time>
      </trkpt>
      <trkpt lat="45.02701" lon="5.45401">
        <ele>925.4</ele>
        <time>2015-10-17T14:32:17Z</time>
      </trkpt>
      <trkpt lat="45.02667" lon="5.45451">
        <ele>929.3</ele>
        <time>2015-10-17T14:32:20Z</time>
      </trkpt>
      <trkpt lat="45.02655" lon="5.45462">
        <ele>929.7</ele>
        <time>2015-10-17T14:32:21Z</time>
      </trkpt>
      <trkpt lat="45.02643" lon="5.45469">
        <ele>931.7</ele>
        <time>2015-10-17T14:32:22Z</time>
      </trkpt>
      <trkpt lat="45.02632" lon="5.45477">
        <ele>933.1</ele>
        <time>2015-10-17T14:32:23Z</time>
      </trkpt>
      <trkpt lat="45.02623" lon="5.45488">
        <ele>935</ele>
        <time>2015-10-17T14:32:24Z</time>
      </trkpt>
      <trkpt lat="45.02614" lon="5.45503">
        <ele>936</ele>
        <time>2015-10-17T14:32:25Z</time>
      </trkpt>
      <trkpt lat="45.02604" lon="5.45519">
        <ele>937.4</ele>
        <time>2015-10-17T14:32:26Z</time>
      </trkpt>
      <trkpt lat="45.02592" lon="5.45536">
        <ele>938.4</ele>
        <time>2015-10-17T14:32:27Z</time>
      </trkpt>
      <trkpt lat="45.02579" lon="5.45551">
        <ele>939.8</ele>
        <time>2015-10-17T14:32:28Z</time>
      </trkpt>
      <trkpt lat="45.02566" lon="5.45567">
        <ele>941.8</ele>
        <time>2015-10-17T14:32:29Z</time>
      </trkpt>
      <trkpt lat="45.02554" lon="5.45584">
        <ele>942.7</ele>
        <time>2015-10-17T14:32:30Z</time>
      </trkpt>
      <trkpt lat="45.02544" lon="5.45604">
        <ele>944.2</ele>
        <time>2015-10-17T14:32:31Z</time>
      </trkpt>
      <trkpt lat="45.02534" lon="5.45624">
        <ele>945.6</ele>
        <time>2015-10-17T14:32:32Z</time>
      </trkpt>
      <trkpt lat="45.02478" lon="5.45766">
        <ele>954.7</ele>
        <time>2015-10-17T14:32:39Z</time>
      </trkpt>
      <trkpt lat="45.02444" lon="5.45915">
        <ele>963.9</ele>
        <time>2015-10-17T14:32:46Z</time>
      </trkpt>
      <trkpt lat="45.02438" lon="5.45931">
        <ele>966.3</ele>
        <time>2015-10-17T14:32:47Z</time>
      </trkpt>
      <trkpt lat="45.02429" lon="5.45945">
        <ele>967.2</ele>
        <time>2015-10-17T14:32:48Z</time>
      </trkpt>
      <trkpt lat="45.02419" lon="5.45958">
        <ele>968.7</ele>
        <time>2015-10-17T14:32:49Z</time>
      </trkpt>
      <trkpt lat="45.02409" lon="5.45972">
        <ele>969.6</ele>
        <time>2015-10-17T14:32:50Z</time>
      </trkpt>
      <trkpt lat="45.02399" lon="5.45985">
        <ele>971.1</ele>
        <time>2015-10-17T14:32:51Z</time>
      </trkpt>
      <trkpt lat="45.02386" lon="5.45996">
        <ele>972</ele>
        <time>2015-10-17T14:32:52Z</time>
      </trkpt>
      <trkpt lat="45.02373" lon="5.46004">
        <ele>974.9</ele>
        <time>2015-10-17T14:32:53Z</time>
      </trkpt>
      <trkpt lat="45.02357" lon="5.4601">
        <ele>976.4</ele>
        <time>2015-10-17T14:32:54Z</time>
      </trkpt>
      <trkpt lat="45.02341" lon="5.46014">
        <ele>978.3</ele>
        <time>2015-10-17T14:32:55Z</time>
      </trkpt>
      <trkpt lat="45.02325" lon="5.46018">
        <ele>979.7</ele>
        <time>2015-10-17T14:32:56Z</time>
      </trkpt>
      <trkpt lat="45.0231" lon="5.46025">
        <ele>980.7</ele>
        <time>2015-10-17T14:32:57Z</time>
      </trkpt>
      <trkpt lat="45.02297" lon="5.46037">
        <ele>982.1</ele>
        <time>2015-10-17T14:32:58Z</time>
      </trkpt>
      <trkpt lat="45.02272" lon="5.46064">
        <ele>984.5</ele>
        <time>2015-10-17T14:33:00Z</time>
      </trkpt>
      <trkpt lat="45.02258" lon="5.46075">
        <ele>986.5</ele>
        <time>2015-10-17T14:33:01Z</time>
      </trkpt>
      <trkpt lat="45.02243" lon="5.46084">
        <ele>988.4</ele>
        <time>2015-10-17T14:33:02Z</time>
      </trkpt>
      <trkpt lat="45.02227" lon="5.46092">
        <ele>989.8</ele>
        <time>2015-10-17T14:33:03Z</time>
      </trkpt>
      <trkpt lat="45.0221" lon="5.46098">
        <ele>991.3</ele>
        <time>2015-10-17T14:33:04Z</time>
      </trkpt>
      <trkpt lat="45.02192" lon="5.46102">
        <ele>993.2</ele>
        <time>2015-10-17T14:33:05Z</time>
      </trkpt>
      <trkpt lat="45.02174" lon="5.46105">
        <ele>994.6</ele>
        <time>2015-10-17T14:33:06Z</time>
      </trkpt>
      <trkpt lat="45.02017" lon="5.46118">
        <ele>1008.1</ele>
        <time>2015-10-17T14:33:14Z</time>
      </trkpt>
      <trkpt lat="45.01964" lon="5.46121">
        <ele>1012.9</ele>
        <time>2015-10-17T14:33:17Z</time>
      </trkpt>
      <trkpt lat="45.01948" lon="5.46118">
        <ele>1014.3</ele>
        <time>2015-10-17T14:33:18Z</time>
      </trkpt>
      <trkpt lat="45.01932" lon="5.46115">
        <ele>1016.3</ele>
        <time>2015-10-17T14:33:19Z</time>
      </trkpt>
      <trkpt lat="45.01896" lon="5.46117">
        <ele>1019.1</ele>
        <time>2015-10-17T14:33:21Z</time>
      </trkpt>
      <trkpt lat="45.01713" lon="5.4614">
        <ele>1035.5</ele>
        <time>2015-10-17T14:33:30Z</time>
      </trkpt>
      <trkpt lat="45.01534" lon="5.46183">
        <ele>1051.3</ele>
        <time>2015-10-17T14:33:39Z</time>
      </trkpt>
      <trkpt lat="45.01516" lon="5.46187">
        <ele>1052.8</ele>
        <time>2015-10-17T14:33:40Z</time>
      </trkpt>
      <trkpt lat="45.015" lon="5.46194">
        <ele>1054.7</ele>
        <time>2015-10-17T14:33:41Z</time>
      </trkpt>
      <trkpt lat="45.01484" lon="5.46203">
        <ele>1056.2</ele>
        <time>2015-10-17T14:33:42Z</time>
      </trkpt>
      <trkpt lat="45.0147" lon="5.46216">
        <ele>1056.6</ele>
        <time>2015-10-17T14:33:43Z</time>
      </trkpt>
      <trkpt lat="45.01458" lon="5.46232">
        <ele>1058.1</ele>
        <time>2015-10-17T14:33:44Z</time>
      </trkpt>
      <trkpt lat="45.01445" lon="5.46249">
        <ele>1059</ele>
        <time>2015-10-17T14:33:45Z</time>
      </trkpt>
      <trkpt lat="45.0143" lon="5.46265">
        <ele>1060.5</ele>
        <time>2015-10-17T14:33:46Z</time>
      </trkpt>
      <trkpt lat="45.01413" lon="5.46279">
        <ele>1062.4</ele>
        <time>2015-10-17T14:33:47Z</time>
      </trkpt>
      <trkpt lat="45.01395" lon="5.46291">
        <ele>1064.3</ele>
        <time>2015-10-17T14:33:48Z</time>
      </trkpt>
      <trkpt lat="45.01265" lon="5.46358">
        <ele>1075.9</ele>
        <time>2015-10-17T14:33:55Z</time>
      </trkpt>
      <trkpt lat="45.01254" lon="5.46356">
        <ele>1076.8</ele>
        <time>2015-10-17T14:33:56Z</time>
      </trkpt>
      <trkpt lat="45.01239" lon="5.46361">
        <ele>1079.2</ele>
        <time>2015-10-17T14:33:58Z</time>
      </trkpt>
      <trkpt lat="45.01235" lon="5.46367">
        <ele>1080.2</ele>
        <time>2015-10-17T14:33:59Z</time>
      </trkpt>
      <trkpt lat="45.01239" lon="5.46375">
        <ele>1081.1</ele>
        <time>2015-10-17T14:34:00Z</time>
      </trkpt>
      <trkpt lat="45.01247" lon="5.46381">
        <ele>1082.1</ele>
        <time>2015-10-17T14:34:01Z</time>
      </trkpt>
      <trkpt lat="45.01257" lon="5.46387">
        <ele>1082.6</ele>
        <time>2015-10-17T14:34:02Z</time>
      </trkpt>
      <trkpt lat="45.0127" lon="5.46393">
        <ele>1083.1</ele>
        <time>2015-10-17T14:34:03Z</time>
      </trkpt>
      <trkpt lat="45.01286" lon="5.46403">
        <ele>1084.5</ele>
        <time>2015-10-17T14:34:04Z</time>
      </trkpt>
      <trkpt lat="45.01377" lon="5.4647">
        <ele>1090.3</ele>
        <time>2015-10-17T14:34:09Z</time>
      </trkpt>
      <trkpt lat="45.01397" lon="5.46495">
        <ele>1092.2</ele>
        <time>2015-10-17T14:34:11Z</time>
      </trkpt>
      <trkpt lat="45.01402" lon="5.46508">
        <ele>1092.2</ele>
        <time>2015-10-17T14:34:12Z</time>
      </trkpt>
      <trkpt lat="45.01401" lon="5.46523">
        <ele>1093.2</ele>
        <time>2015-10-17T14:34:13Z</time>
      </trkpt>
      <trkpt lat="45.01398" lon="5.46537">
        <ele>1095.1</ele>
        <time>2015-10-17T14:34:14Z</time>
      </trkpt>
      <trkpt lat="45.01392" lon="5.46555">
        <ele>1096.5</ele>
        <time>2015-10-17T14:34:15Z</time>
      </trkpt>
      <trkpt lat="45.01384" lon="5.46572">
        <ele>1098</ele>
        <time>2015-10-17T14:34:16Z</time>
      </trkpt>
      <trkpt lat="45.01372" lon="5.4659">
        <ele>1100.9</ele>
        <time>2015-10-17T14:34:17Z</time>
      </trkpt>
      <trkpt lat="45.01355" lon="5.466">
        <ele>1098.9</ele>
        <time>2015-10-17T14:34:18Z</time>
      </trkpt>
      <trkpt lat="45.01339" lon="5.46615">
        <ele>1098.9</ele>
        <time>2015-10-17T14:34:19Z</time>
      </trkpt>
      <trkpt lat="45.01273" lon="5.46668">
        <ele>1103.7</ele>
        <time>2015-10-17T14:34:23Z</time>
      </trkpt>
      <trkpt lat="45.01255" lon="5.46677">
        <ele>1104.7</ele>
        <time>2015-10-17T14:34:24Z</time>
      </trkpt>
      <trkpt lat="45.01106" lon="5.46722">
        <ele>1118.6</ele>
        <time>2015-10-17T14:34:31Z</time>
      </trkpt>
      <trkpt lat="45.01001" lon="5.46764">
        <ele>1127.8</ele>
        <time>2015-10-17T14:34:36Z</time>
      </trkpt>
      <trkpt lat="45.00978" lon="5.46769">
        <ele>1129.7</ele>
        <time>2015-10-17T14:34:37Z</time>
      </trkpt>
      <trkpt lat="45.00954" lon="5.46772">
        <ele>1131.6</ele>
        <time>2015-10-17T14:34:38Z</time>
      </trkpt>
      <trkpt lat="45.00766" lon="5.4679">
        <ele>1144.6</ele>
        <time>2015-10-17T14:34:46Z</time>
      </trkpt>
      <trkpt lat="45.00746" lon="5.46792">
        <ele>1146.5</ele>
        <time>2015-10-17T14:34:47Z</time>
      </trkpt>
      <trkpt lat="45.00726" lon="5.46792">
        <ele>1148</ele>
        <time>2015-10-17T14:34:48Z</time>
      </trkpt>
      <trkpt lat="45.00646" lon="5.46785">
        <ele>1153.7</ele>
        <time>2015-10-17T14:34:53Z</time>
      </trkpt>
      <trkpt lat="45.00631" lon="5.46787">
        <ele>1155.2</ele>
        <time>2015-10-17T14:34:54Z</time>
      </trkpt>
      <trkpt lat="45.00586" lon="5.46798">
        <ele>1158.5</ele>
        <time>2015-10-17T14:34:57Z</time>
      </trkpt>
      <trkpt lat="45.00572" lon="5.46796">
        <ele>1160</ele>
        <time>2015-10-17T14:34:58Z</time>
      </trkpt>
      <trkpt lat="45.00558" lon="5.46792">
        <ele>1160.5</ele>
        <time>2015-10-17T14:34:59Z</time>
      </trkpt>
      <trkpt lat="45.00544" lon="5.46787">
        <ele>1160.9</ele>
        <time>2015-10-17T14:35:00Z</time>
      </trkpt>
      <trkpt lat="45.0053" lon="5.46784">
        <ele>1161.9</ele>
        <time>2015-10-17T14:35:01Z</time>
      </trkpt>
      <trkpt lat="45.005" lon="5.46787">
        <ele>1164.3</ele>
        <time>2015-10-17T14:35:03Z</time>
      </trkpt>
      <trkpt lat="45.00485" lon="5.46789">
        <ele>1165.7</ele>
        <time>2015-10-17T14:35:04Z</time>
      </trkpt>
      <trkpt lat="45.00471" lon="5.46789">
        <ele>1166.7</ele>
        <time>2015-10-17T14:35:05Z</time>
      </trkpt>
      <trkpt lat="45.00456" lon="5.46784">
        <ele>1168.1</ele>
        <time>2015-10-17T14:35:06Z</time>
      </trkpt>
      <trkpt lat="45.00443" lon="5.46778">
        <ele>1169.1</ele>
        <time>2015-10-17T14:35:07Z</time>
      </trkpt>
      <trkpt lat="45.0043" lon="5.46774">
        <ele>1170.5</ele>
        <time>2015-10-17T14:35:08Z</time>
      </trkpt>
      <trkpt lat="45.00392" lon="5.46765">
        <ele>1174.9</ele>
        <time>2015-10-17T14:35:11Z</time>
      </trkpt>
      <trkpt lat="45.00379" lon="5.4676">
        <ele>1175.8</ele>
        <time>2015-10-17T14:35:12Z</time>
      </trkpt>
      <trkpt lat="45.00368" lon="5.46751">
        <ele>1177.3</ele>
        <time>2015-10-17T14:35:13Z</time>
      </trkpt>
      <trkpt lat="45.00358" lon="5.46745">
        <ele>1178.2</ele>
        <time>2015-10-17T14:35:14Z</time>
      </trkpt>
      <trkpt lat="45.00352" lon="5.46742">
        <ele>1179.2</ele>
        <time>2015-10-17T14:35:15Z</time>
      </trkpt>
      <trkpt lat="45.00347" lon="5.46743">
        <ele>1180.2</ele>
        <time>2015-10-17T14:35:16Z</time>
      </trkpt>
      <trkpt lat="45.00344" lon="5.46748">
        <ele>1181.1</ele>
        <time>2015-10-17T14:35:17Z</time>
      </trkpt>
      <trkpt lat="45.00356" lon="5.46767">
        <ele>1182.6</ele>
        <time>2015-10-17T14:35:20Z</time>
      </trkpt>
      <trkpt lat="45.00366" lon="5.46775">
        <ele>1183</ele>
        <time>2015-10-17T14:35:21Z</time>
      </trkpt>
      <trkpt lat="45.00378" lon="5.46785">
        <ele>1184.5</ele>
        <time>2015-10-17T14:35:22Z</time>
      </trkpt>
      <trkpt lat="45.00468" lon="5.46871">
        <ele>1190.3</ele>
        <time>2015-10-17T14:35:28Z</time>
      </trkpt>
      <trkpt lat="45.00511" lon="5.4692">
        <ele>1193.6</ele>
        <time>2015-10-17T14:35:31Z</time>
      </trkpt>
      <trkpt lat="45.00526" lon="5.46931">
        <ele>1195.5</ele>
        <time>2015-10-17T14:35:32Z</time>
      </trkpt>
      <trkpt lat="45.0054" lon="5.4694">
        <ele>1197.5</ele>
        <time>2015-10-17T14:35:33Z</time>
      </trkpt>
      <trkpt lat="45.00552" lon="5.46949">
        <ele>1198.4</ele>
        <time>2015-10-17T14:35:34Z</time>
      </trkpt>
      <trkpt lat="45.00564" lon="5.46959">
        <ele>1199.9</ele>
        <time>2015-10-17T14:35:35Z</time>
      </trkpt>
      <trkpt lat="45.00573" lon="5.4697">
        <ele>1201.3</ele>
        <time>2015-10-17T14:35:36Z</time>
      </trkpt>
      <trkpt lat="45.00582" lon="5.4698">
        <ele>1201.8</ele>
        <time>2015-10-17T14:35:37Z</time>
      </trkpt>
      <trkpt lat="45.00592" lon="5.46985">
        <ele>1202.3</ele>
        <time>2015-10-17T14:35:38Z</time>
      </trkpt>
      <trkpt lat="45.00602" lon="5.46987">
        <ele>1203.2</ele>
        <time>2015-10-17T14:35:39Z</time>
      </trkpt>
      <trkpt lat="45.00612" lon="5.46984">
        <ele>1203.2</ele>
        <time>2015-10-17T14:35:40Z</time>
      </trkpt>
      <trkpt lat="45.00621" lon="5.46976">
        <ele>1203.2</ele>
        <time>2015-10-17T14:35:41Z</time>
      </trkpt>
      <trkpt lat="45.0063" lon="5.46964">
        <ele>1203.7</ele>
        <time>2015-10-17T14:35:42Z</time>
      </trkpt>
      <trkpt lat="45.00639" lon="5.46951">
        <ele>1206.1</ele>
        <time>2015-10-17T14:35:43Z</time>
      </trkpt>
      <trkpt lat="45.0065" lon="5.46942">
        <ele>1207.1</ele>
        <time>2015-10-17T14:35:44Z</time>
      </trkpt>
      <trkpt lat="45.0066" lon="5.46934">
        <ele>1208.5</ele>
        <time>2015-10-17T14:35:45Z</time>
      </trkpt>
      <trkpt lat="45.00671" lon="5.46929">
        <ele>1210.4</ele>
        <time>2015-10-17T14:35:46Z</time>
      </trkpt>
      <trkpt lat="45.00682" lon="5.46928">
        <ele>1211.4</ele>
        <time>2015-10-17T14:35:47Z</time>
      </trkpt>
      <trkpt lat="45.00693" lon="5.46932">
        <ele>1211.9</ele>
        <time>2015-10-17T14:35:48Z</time>
      </trkpt>
      <trkpt lat="45.00704" lon="5.46941">
        <ele>1212.4</ele>
        <time>2015-10-17T14:35:49Z</time>
      </trkpt>
      <trkpt lat="45.00714" lon="5.46952">
        <ele>1212.8</ele>
        <time>2015-10-17T14:35:50Z</time>
      </trkpt>
      <trkpt lat="45.00725" lon="5.4696">
        <ele>1213.8</ele>
        <time>2015-10-17T14:35:51Z</time>
      </trkpt>
      <trkpt lat="45.00736" lon="5.46967">
        <ele>1214.8</ele>
        <time>2015-10-17T14:35:52Z</time>
      </trkpt>
      <trkpt lat="45.00747" lon="5.46972">
        <ele>1216.2</ele>
        <time>2015-10-17T14:35:53Z</time>
      </trkpt>
      <trkpt lat="45.0076" lon="5.46974">
        <ele>1216.2</ele>
        <time>2015-10-17T14:35:54Z</time>
      </trkpt>
      <trkpt lat="45.00771" lon="5.46972">
        <ele>1217.7</ele>
        <time>2015-10-17T14:35:55Z</time>
      </trkpt>
      <trkpt lat="45.00782" lon="5.46967">
        <ele>1219.1</ele>
        <time>2015-10-17T14:35:56Z</time>
      </trkpt>
      <trkpt lat="45.00791" lon="5.4696">
        <ele>1220.5</ele>
        <time>2015-10-17T14:35:57Z</time>
      </trkpt>
      <trkpt lat="45.008" lon="5.46957">
        <ele>1222</ele>
        <time>2015-10-17T14:35:58Z</time>
      </trkpt>
      <trkpt lat="45.00809" lon="5.4696">
        <ele>1222.5</ele>
        <time>2015-10-17T14:35:59Z</time>
      </trkpt>
      <trkpt lat="45.00816" lon="5.46966">
        <ele>1225.3</ele>
        <time>2015-10-17T14:36:00Z</time>
      </trkpt>
      <trkpt lat="45.00824" lon="5.46976">
        <ele>1225.8</ele>
        <time>2015-10-17T14:36:01Z</time>
      </trkpt>
      <trkpt lat="45.0083" lon="5.46987">
        <ele>1225.8</ele>
        <time>2015-10-17T14:36:02Z</time>
      </trkpt>
      <trkpt lat="45.00831" lon="5.47006">
        <ele>1229.7</ele>
        <time>2015-10-17T14:36:03Z</time>
      </trkpt>
      <trkpt lat="45.0083" lon="5.47027">
        <ele>1230.1</ele>
        <time>2015-10-17T14:36:04Z</time>
      </trkpt>
      <trkpt lat="45.00827" lon="5.47044">
        <ele>1231.1</ele>
        <time>2015-10-17T14:36:05Z</time>
      </trkpt>
      <trkpt lat="45.00818" lon="5.47057">
        <ele>1232.6</ele>
        <time>2015-10-17T14:36:06Z</time>
      </trkpt>
      <trkpt lat="45.0081" lon="5.47068">
        <ele>1233.5</ele>
        <time>2015-10-17T14:36:07Z</time>
      </trkpt>
      <trkpt lat="45.00801" lon="5.47078">
        <ele>1234.5</ele>
        <time>2015-10-17T14:36:08Z</time>
      </trkpt>
      <trkpt lat="45.0079" lon="5.47085">
        <ele>1234.5</ele>
        <time>2015-10-17T14:36:09Z</time>
      </trkpt>
      <trkpt lat="45.0078" lon="5.4709">
        <ele>1235.4</ele>
        <time>2015-10-17T14:36:10Z</time>
      </trkpt>
      <trkpt lat="45.00772" lon="5.47095">
        <ele>1235.9</ele>
        <time>2015-10-17T14:36:11Z</time>
      </trkpt>
      <trkpt lat="45.00766" lon="5.471">
        <ele>1236.9</ele>
        <time>2015-10-17T14:36:12Z</time>
      </trkpt>
      <trkpt lat="45.00764" lon="5.47107">
        <ele>1237.4</ele>
        <time>2015-10-17T14:36:13Z</time>
      </trkpt>
      <trkpt lat="45.00764" lon="5.47113">
        <ele>1237.4</ele>
        <time>2015-10-17T14:36:14Z</time>
      </trkpt>
      <trkpt lat="45.0077" lon="5.47117">
        <ele>1238.3</ele>
        <time>2015-10-17T14:36:15Z</time>
      </trkpt>
      <trkpt lat="45.00779" lon="5.47117">
        <ele>1238.8</ele>
        <time>2015-10-17T14:36:16Z</time>
      </trkpt>
      <trkpt lat="45.00792" lon="5.47113">
        <ele>1241.2</ele>
        <time>2015-10-17T14:36:17Z</time>
      </trkpt>
      <trkpt lat="45.00804" lon="5.47108">
        <ele>1243.1</ele>
        <time>2015-10-17T14:36:18Z</time>
      </trkpt>
      <trkpt lat="45.00816" lon="5.47103">
        <ele>1244.1</ele>
        <time>2015-10-17T14:36:19Z</time>
      </trkpt>
      <trkpt lat="45.00828" lon="5.471">
        <ele>1245</ele>
        <time>2015-10-17T14:36:20Z</time>
      </trkpt>
      <trkpt lat="45.00839" lon="5.471">
        <ele>1246.5</ele>
        <time>2015-10-17T14:36:21Z</time>
      </trkpt>
      <trkpt lat="45.00848" lon="5.47105">
        <ele>1247.9</ele>
        <time>2015-10-17T14:36:22Z</time>
      </trkpt>
      <trkpt lat="45.00857" lon="5.47112">
        <ele>1248.9</ele>
        <time>2015-10-17T14:36:23Z</time>
      </trkpt>
      <trkpt lat="45.00865" lon="5.4712">
        <ele>1249.9</ele>
        <time>2015-10-17T14:36:24Z</time>
      </trkpt>
      <trkpt lat="45.00871" lon="5.47127">
        <ele>1251.8</ele>
        <time>2015-10-17T14:36:25Z</time>
      </trkpt>
      <trkpt lat="45.00877" lon="5.4713">
        <ele>1253.2</ele>
        <time>2015-10-17T14:36:26Z</time>
      </trkpt>
      <trkpt lat="45.00884" lon="5.47133">
        <ele>1255.1</ele>
        <time>2015-10-17T14:36:27Z</time>
      </trkpt>
      <trkpt lat="45.00892" lon="5.47131">
        <ele>1255.1</ele>
        <time>2015-10-17T14:36:28Z</time>
      </trkpt>
      <trkpt lat="45.009" lon="5.47127">
        <ele>1255.1</ele>
        <time>2015-10-17T14:36:29Z</time>
      </trkpt>
      <trkpt lat="45.00906" lon="5.47121">
        <ele>1254.2</ele>
        <time>2015-10-17T14:36:30Z</time>
      </trkpt>
      <trkpt lat="45.00913" lon="5.47112">
        <ele>1254.2</ele>
        <time>2015-10-17T14:36:31Z</time>
      </trkpt>
      <trkpt lat="45.0092" lon="5.471">
        <ele>1255.6</ele>
        <time>2015-10-17T14:36:32Z</time>
      </trkpt>
      <trkpt lat="45.00927" lon="5.47086">
        <ele>1256.6</ele>
        <time>2015-10-17T14:36:33Z</time>
      </trkpt>
      <trkpt lat="45.00949" lon="5.47059">
        <ele>1258.5</ele>
        <time>2015-10-17T14:36:35Z</time>
      </trkpt>
      <trkpt lat="45.00964" lon="5.47046">
        <ele>1260.4</ele>
        <time>2015-10-17T14:36:36Z</time>
      </trkpt>
      <trkpt lat="45.01036" lon="5.46996">
        <ele>1267.6</ele>
        <time>2015-10-17T14:36:41Z</time>
      </trkpt>
      <trkpt lat="45.01051" lon="5.4699">
        <ele>1269.1</ele>
        <time>2015-10-17T14:36:42Z</time>
      </trkpt>
      <trkpt lat="45.01068" lon="5.46986">
        <ele>1270.5</ele>
        <time>2015-10-17T14:36:43Z</time>
      </trkpt>
      <trkpt lat="45.01157" lon="5.4698">
        <ele>1279.7</ele>
        <time>2015-10-17T14:36:49Z</time>
      </trkpt>
      <trkpt lat="45.01173" lon="5.46984">
        <ele>1281.1</ele>
        <time>2015-10-17T14:36:50Z</time>
      </trkpt>
      <trkpt lat="45.0127" lon="5.46997">
        <ele>1290.7</ele>
        <time>2015-10-17T14:36:56Z</time>
      </trkpt>
      <trkpt lat="45.01284" lon="5.47002">
        <ele>1291.7</ele>
        <time>2015-10-17T14:36:57Z</time>
      </trkpt>
      <trkpt lat="45.01299" lon="5.4701">
        <ele>1292.6</ele>
        <time>2015-10-17T14:36:58Z</time>
      </trkpt>
      <trkpt lat="45.01336" lon="5.47043">
        <ele>1295.5</ele>
        <time>2015-10-17T14:37:01Z</time>
      </trkpt>
      <trkpt lat="45.01343" lon="5.47055">
        <ele>1296.5</ele>
        <time>2015-10-17T14:37:02Z</time>
      </trkpt>
      <trkpt lat="45.01346" lon="5.47071">
        <ele>1297.4</ele>
        <time>2015-10-17T14:37:03Z</time>
      </trkpt>
      <trkpt lat="45.01347" lon="5.47088">
        <ele>1298.4</ele>
        <time>2015-10-17T14:37:04Z</time>
      </trkpt>
      <trkpt lat="45.01349" lon="5.47106">
        <ele>1299.4</ele>
        <time>2015-10-17T14:37:05Z</time>
      </trkpt>
      <trkpt lat="45.01352" lon="5.47124">
        <ele>1299.8</ele>
        <time>2015-10-17T14:37:06Z</time>
      </trkpt>
      <trkpt lat="45.01356" lon="5.47141">
        <ele>1300.8</ele>
        <time>2015-10-17T14:37:07Z</time>
      </trkpt>
      <trkpt lat="45.01361" lon="5.47157">
        <ele>1301.3</ele>
        <time>2015-10-17T14:37:08Z</time>
      </trkpt>
      <trkpt lat="45.01367" lon="5.47173">
        <ele>1301.8</ele>
        <time>2015-10-17T14:37:09Z</time>
      </trkpt>
      <trkpt lat="45.01374" lon="5.47187">
        <ele>1302.2</ele>
        <time>2015-10-17T14:37:10Z</time>
      </trkpt>
      <trkpt lat="45.01383" lon="5.47201">
        <ele>1303.2</ele>
        <time>2015-10-17T14:37:11Z</time>
      </trkpt>
      <trkpt lat="45.01391" lon="5.47213">
        <ele>1304.2</ele>
        <time>2015-10-17T14:37:12Z</time>
      </trkpt>
      <trkpt lat="45.01443" lon="5.4729">
        <ele>1310.4</ele>
        <time>2015-10-17T14:37:19Z</time>
      </trkpt>
      <trkpt lat="45.01447" lon="5.47303">
        <ele>1311.4</ele>
        <time>2015-10-17T14:37:20Z</time>
      </trkpt>
      <trkpt lat="45.0145" lon="5.47317">
        <ele>1312.3</ele>
        <time>2015-10-17T14:37:21Z</time>
      </trkpt>
      <trkpt lat="45.0145" lon="5.47343">
        <ele>1314.3</ele>
        <time>2015-10-17T14:37:23Z</time>
      </trkpt>
      <trkpt lat="45.01452" lon="5.47354">
        <ele>1315.2</ele>
        <time>2015-10-17T14:37:24Z</time>
      </trkpt>
      <trkpt lat="45.01456" lon="5.47361">
        <ele>1315.2</ele>
        <time>2015-10-17T14:37:25Z</time>
      </trkpt>
      <trkpt lat="45.01464" lon="5.47362">
        <ele>1315.2</ele>
        <time>2015-10-17T14:37:26Z</time>
      </trkpt>
      <trkpt lat="45.01473" lon="5.47358">
        <ele>1315.7</ele>
        <time>2015-10-17T14:37:27Z</time>
      </trkpt>
      <trkpt lat="45.01484" lon="5.47351">
        <ele>1315.7</ele>
        <time>2015-10-17T14:37:28Z</time>
      </trkpt>
      <trkpt lat="45.01495" lon="5.47343">
        <ele>1314.7</ele>
        <time>2015-10-17T14:37:29Z</time>
      </trkpt>
      <trkpt lat="45.01505" lon="5.47333">
        <ele>1314.3</ele>
        <time>2015-10-17T14:37:30Z</time>
      </trkpt>
      <trkpt lat="45.01515" lon="5.47325">
        <ele>1314.3</ele>
        <time>2015-10-17T14:37:31Z</time>
      </trkpt>
      <trkpt lat="45.01526" lon="5.4732">
        <ele>1314.7</ele>
        <time>2015-10-17T14:37:32Z</time>
      </trkpt>
      <trkpt lat="45.01549" lon="5.47325">
        <ele>1315.2</ele>
        <time>2015-10-17T14:37:34Z</time>
      </trkpt>
      <trkpt lat="45.01561" lon="5.4733">
        <ele>1315.7</ele>
        <time>2015-10-17T14:37:35Z</time>
      </trkpt>
      <trkpt lat="45.01574" lon="5.47336">
        <ele>1315.2</ele>
        <time>2015-10-17T14:37:36Z</time>
      </trkpt>
      <trkpt lat="45.01587" lon="5.47338">
        <ele>1315.7</ele>
        <time>2015-10-17T14:37:37Z</time>
      </trkpt>
      <trkpt lat="45.01601" lon="5.47337">
        <ele>1315.7</ele>
        <time>2015-10-17T14:37:38Z</time>
      </trkpt>
      <trkpt lat="45.01613" lon="5.47333">
        <ele>1315.7</ele>
        <time>2015-10-17T14:37:39Z</time>
      </trkpt>
      <trkpt lat="45.01625" lon="5.47327">
        <ele>1315.2</ele>
        <time>2015-10-17T14:37:40Z</time>
      </trkpt>
      <trkpt lat="45.01636" lon="5.47318">
        <ele>1314.7</ele>
        <time>2015-10-17T14:37:41Z</time>
      </trkpt>
      <trkpt lat="45.01645" lon="5.47306">
        <ele>1314.7</ele>
        <time>2015-10-17T14:37:42Z</time>
      </trkpt>
      <trkpt lat="45.01656" lon="5.47294">
        <ele>1314.7</ele>
        <time>2015-10-17T14:37:43Z</time>
      </trkpt>
      <trkpt lat="45.01666" lon="5.47284">
        <ele>1315.2</ele>
        <time>2015-10-17T14:37:44Z</time>
      </trkpt>
      <trkpt lat="45.01676" lon="5.47276">
        <ele>1315.7</ele>
        <time>2015-10-17T14:37:45Z</time>
      </trkpt>
      <trkpt lat="45.01684" lon="5.47267">
        <ele>1315.7</ele>
        <time>2015-10-17T14:37:46Z</time>
      </trkpt>
      <trkpt lat="45.01691" lon="5.47256">
        <ele>1315.7</ele>
        <time>2015-10-17T14:37:47Z</time>
      </trkpt>
      <trkpt lat="45.01705" lon="5.47234">
        <ele>1315.2</ele>
        <time>2015-10-17T14:37:49Z</time>
      </trkpt>
      <trkpt lat="45.01715" lon="5.47228">
        <ele>1315.2</ele>
        <time>2015-10-17T14:37:50Z</time>
      </trkpt>
      <trkpt lat="45.01725" lon="5.47226">
        <ele>1315.2</ele>
        <time>2015-10-17T14:37:51Z</time>
      </trkpt>
      <trkpt lat="45.01736" lon="5.47226">
        <ele>1315.2</ele>
        <time>2015-10-17T14:37:52Z</time>
      </trkpt>
      <trkpt lat="45.01748" lon="5.47228">
        <ele>1314.7</ele>
        <time>2015-10-17T14:37:53Z</time>
      </trkpt>
      <trkpt lat="45.0176" lon="5.4723">
        <ele>1315.2</ele>
        <time>2015-10-17T14:37:54Z</time>
      </trkpt>
      <trkpt lat="45.01836" lon="5.47249">
        <ele>1316.7</ele>
        <time>2015-10-17T14:38:00Z</time>
      </trkpt>
      <trkpt lat="45.01849" lon="5.47256">
        <ele>1316.7</ele>
        <time>2015-10-17T14:38:01Z</time>
      </trkpt>
      <trkpt lat="45.01942" lon="5.47313">
        <ele>1313.8</ele>
        <time>2015-10-17T14:38:10Z</time>
      </trkpt>
      <trkpt lat="45.01965" lon="5.47323">
        <ele>1312.8</ele>
        <time>2015-10-17T14:38:13Z</time>
      </trkpt>
      <trkpt lat="45.01971" lon="5.47327">
        <ele>1312.3</ele>
        <time>2015-10-17T14:38:14Z</time>
      </trkpt>
      <trkpt lat="45.01974" lon="5.4733">
        <ele>1312.3</ele>
        <time>2015-10-17T14:38:15Z</time>
      </trkpt>
      <trkpt lat="45.01982" lon="5.47337">
        <ele>1311.9</ele>
        <time>2015-10-17T14:38:18Z</time>
      </trkpt>
      <trkpt lat="45.01984" lon="5.47337">
        <ele>1311.9</ele>
        <time>2015-10-17T14:38:19Z</time>
      </trkpt>
      <trkpt lat="45.01986" lon="5.47335">
        <ele>1311.9</ele>
        <time>2015-10-17T14:38:20Z</time>
      </trkpt>
      <trkpt lat="45.01986" lon="5.47332">
        <ele>1311.4</ele>
        <time>2015-10-17T14:38:36Z</time>
      </trkpt>
      <trkpt lat="45.01983" lon="5.47336">
        <ele>1310.4</ele>
        <time>2015-10-17T14:46:34Z</time>
      </trkpt>
      <trkpt lat="45.02004" lon="5.47324">
        <ele>1310.9</ele>
        <time>2015-10-17T14:49:02Z</time>
      </trkpt>
      <trkpt lat="45.02011" lon="5.47319">
        <ele>1309.9</ele>
        <time>2015-10-17T14:49:03Z</time>
      </trkpt>
      <trkpt lat="45.02017" lon="5.47314">
        <ele>1309</ele>
        <time>2015-10-17T14:49:04Z</time>
      </trkpt>
      <trkpt lat="45.02047" lon="5.47279">
        <ele>1306.1</ele>
        <time>2015-10-17T14:49:08Z</time>
      </trkpt>
      <trkpt lat="45.02063" lon="5.47255">
        <ele>1305.1</ele>
        <time>2015-10-17T14:49:10Z</time>
      </trkpt>
      <trkpt lat="45.02073" lon="5.47244">
        <ele>1304.7</ele>
        <time>2015-10-17T14:49:11Z</time>
      </trkpt>
      <trkpt lat="45.02083" lon="5.47235">
        <ele>1304.7</ele>
        <time>2015-10-17T14:49:12Z</time>
      </trkpt>
      <trkpt lat="45.02096" lon="5.47228">
        <ele>1304.7</ele>
        <time>2015-10-17T14:49:13Z</time>
      </trkpt>
      <trkpt lat="45.02109" lon="5.47222">
        <ele>1304.7</ele>
        <time>2015-10-17T14:49:14Z</time>
      </trkpt>
      <trkpt lat="45.02124" lon="5.47218">
        <ele>1304.2</ele>
        <time>2015-10-17T14:49:15Z</time>
      </trkpt>
      <trkpt lat="45.0214" lon="5.47215">
        <ele>1304.2</ele>
        <time>2015-10-17T14:49:16Z</time>
      </trkpt>
      <trkpt lat="45.02247" lon="5.47174">
        <ele>1302.7</ele>
        <time>2015-10-17T14:49:23Z</time>
      </trkpt>
      <trkpt lat="45.02263" lon="5.47171">
        <ele>1302.2</ele>
        <time>2015-10-17T14:49:24Z</time>
      </trkpt>
      <trkpt lat="45.02279" lon="5.47172">
        <ele>1301.8</ele>
        <time>2015-10-17T14:49:25Z</time>
      </trkpt>
      <trkpt lat="45.02294" lon="5.47176">
        <ele>1301.8</ele>
        <time>2015-10-17T14:49:26Z</time>
      </trkpt>
      <trkpt lat="45.02309" lon="5.4718">
        <ele>1302.2</ele>
        <time>2015-10-17T14:49:27Z</time>
      </trkpt>
      <trkpt lat="45.02323" lon="5.47183">
        <ele>1302.2</ele>
        <time>2015-10-17T14:49:28Z</time>
      </trkpt>
      <trkpt lat="45.02339" lon="5.47184">
        <ele>1302.7</ele>
        <time>2015-10-17T14:49:29Z</time>
      </trkpt>
      <trkpt lat="45.02471" lon="5.47193">
        <ele>1303.2</ele>
        <time>2015-10-17T14:49:37Z</time>
      </trkpt>
      <trkpt lat="45.02615" lon="5.47221">
        <ele>1305.6</ele>
        <time>2015-10-17T14:49:45Z</time>
      </trkpt>
      <trkpt lat="45.02681" lon="5.4725">
        <ele>1306.6</ele>
        <time>2015-10-17T14:49:49Z</time>
      </trkpt>
      <trkpt lat="45.02698" lon="5.47253">
        <ele>1307.1</ele>
        <time>2015-10-17T14:49:50Z</time>
      </trkpt>
      <trkpt lat="45.02716" lon="5.47254">
        <ele>1307.5</ele>
        <time>2015-10-17T14:49:51Z</time>
      </trkpt>
      <trkpt lat="45.02786" lon="5.47248">
        <ele>1312.8</ele>
        <time>2015-10-17T14:49:55Z</time>
      </trkpt>
      <trkpt lat="45.02833" lon="5.47237">
        <ele>1315.7</ele>
        <time>2015-10-17T14:49:58Z</time>
      </trkpt>
      <trkpt lat="45.02848" lon="5.4724">
        <ele>1316.2</ele>
        <time>2015-10-17T14:49:59Z</time>
      </trkpt>
      <trkpt lat="45.02865" lon="5.47246">
        <ele>1317.6</ele>
        <time>2015-10-17T14:50:00Z</time>
      </trkpt>
      <trkpt lat="45.02915" lon="5.47264">
        <ele>1319.6</ele>
        <time>2015-10-17T14:50:03Z</time>
      </trkpt>
      <trkpt lat="45.02929" lon="5.47265">
        <ele>1320.5</ele>
        <time>2015-10-17T14:50:04Z</time>
      </trkpt>
      <trkpt lat="45.02943" lon="5.47264">
        <ele>1321</ele>
        <time>2015-10-17T14:50:05Z</time>
      </trkpt>
      <trkpt lat="45.02968" lon="5.4726">
        <ele>1322</ele>
        <time>2015-10-17T14:50:07Z</time>
      </trkpt>
      <trkpt lat="45.02981" lon="5.47263">
        <ele>1322.9</ele>
        <time>2015-10-17T14:50:08Z</time>
      </trkpt>
      <trkpt lat="45.0304" lon="5.4728">
        <ele>1326.3</ele>
        <time>2015-10-17T14:50:12Z</time>
      </trkpt>
      <trkpt lat="45.03057" lon="5.4728">
        <ele>1327.2</ele>
        <time>2015-10-17T14:50:13Z</time>
      </trkpt>
      <trkpt lat="45.03106" lon="5.47284">
        <ele>1330.1</ele>
        <time>2015-10-17T14:50:16Z</time>
      </trkpt>
      <trkpt lat="45.03122" lon="5.47291">
        <ele>1331.6</ele>
        <time>2015-10-17T14:50:17Z</time>
      </trkpt>
      <trkpt lat="45.03138" lon="5.473">
        <ele>1332.5</ele>
        <time>2015-10-17T14:50:18Z</time>
      </trkpt>
      <trkpt lat="45.03278" lon="5.47373">
        <ele>1343.1</ele>
        <time>2015-10-17T14:50:26Z</time>
      </trkpt>
      <trkpt lat="45.03317" lon="5.47406">
        <ele>1347.9</ele>
        <time>2015-10-17T14:50:29Z</time>
      </trkpt>
      <trkpt lat="45.03329" lon="5.47422">
        <ele>1349.4</ele>
        <time>2015-10-17T14:50:30Z</time>
      </trkpt>
      <trkpt lat="45.03339" lon="5.47441">
        <ele>1349.4</ele>
        <time>2015-10-17T14:50:31Z</time>
      </trkpt>
      <trkpt lat="45.03347" lon="5.47467">
        <ele>1347.4</ele>
        <time>2015-10-17T14:50:32Z</time>
      </trkpt>
      <trkpt lat="45.03353" lon="5.47492">
        <ele>1347.4</ele>
        <time>2015-10-17T14:50:33Z</time>
      </trkpt>
      <trkpt lat="45.03361" lon="5.47514">
        <ele>1347.4</ele>
        <time>2015-10-17T14:50:34Z</time>
      </trkpt>
      <trkpt lat="45.03386" lon="5.47564">
        <ele>1349.4</ele>
        <time>2015-10-17T14:50:37Z</time>
      </trkpt>
      <trkpt lat="45.03397" lon="5.4757">
        <ele>1350.8</ele>
        <time>2015-10-17T14:50:38Z</time>
      </trkpt>
      <trkpt lat="45.03407" lon="5.47571">
        <ele>1351.8</ele>
        <time>2015-10-17T14:50:39Z</time>
      </trkpt>
      <trkpt lat="45.03416" lon="5.47576">
        <ele>1352.2</ele>
        <time>2015-10-17T14:50:40Z</time>
      </trkpt>
      <trkpt lat="45.03422" lon="5.47586">
        <ele>1353.7</ele>
        <time>2015-10-17T14:50:41Z</time>
      </trkpt>
      <trkpt lat="45.03426" lon="5.476">
        <ele>1354.6</ele>
        <time>2015-10-17T14:50:42Z</time>
      </trkpt>
      <trkpt lat="45.03428" lon="5.47617">
        <ele>1356.1</ele>
        <time>2015-10-17T14:50:43Z</time>
      </trkpt>
      <trkpt lat="45.03429" lon="5.47636">
        <ele>1357</ele>
        <time>2015-10-17T14:50:44Z</time>
      </trkpt>
      <trkpt lat="45.03431" lon="5.47655">
        <ele>1358</ele>
        <time>2015-10-17T14:50:45Z</time>
      </trkpt>
      <trkpt lat="45.03433" lon="5.47673">
        <ele>1358.5</ele>
        <time>2015-10-17T14:50:46Z</time>
      </trkpt>
      <trkpt lat="45.03437" lon="5.47689">
        <ele>1359.4</ele>
        <time>2015-10-17T14:50:47Z</time>
      </trkpt>
      <trkpt lat="45.03443" lon="5.47703">
        <ele>1360.4</ele>
        <time>2015-10-17T14:50:48Z</time>
      </trkpt>
      <trkpt lat="45.03451" lon="5.47714">
        <ele>1361.8</ele>
        <time>2015-10-17T14:50:49Z</time>
      </trkpt>
      <trkpt lat="45.03461" lon="5.47718">
        <ele>1362.8</ele>
        <time>2015-10-17T14:50:50Z</time>
      </trkpt>
      <trkpt lat="45.03472" lon="5.47719">
        <ele>1363.8</ele>
        <time>2015-10-17T14:50:51Z</time>
      </trkpt>
      <trkpt lat="45.03489" lon="5.4771">
        <ele>1360.9</ele>
        <time>2015-10-17T14:50:52Z</time>
      </trkpt>
      <trkpt lat="45.03505" lon="5.47703">
        <ele>1359.4</ele>
        <time>2015-10-17T14:50:53Z</time>
      </trkpt>
      <trkpt lat="45.03521" lon="5.47698">
        <ele>1360.4</ele>
        <time>2015-10-17T14:50:54Z</time>
      </trkpt>
      <trkpt lat="45.03674" lon="5.47654">
        <ele>1370</ele>
        <time>2015-10-17T14:51:03Z</time>
      </trkpt>
      <trkpt lat="45.03798" lon="5.47625">
        <ele>1371.9</ele>
        <time>2015-10-17T14:51:10Z</time>
      </trkpt>
      <trkpt lat="45.0383" lon="5.47614">
        <ele>1372.4</ele>
        <time>2015-10-17T14:51:12Z</time>
      </trkpt>
      <trkpt lat="45.03847" lon="5.47613">
        <ele>1372.9</ele>
        <time>2015-10-17T14:51:13Z</time>
      </trkpt>
      <trkpt lat="45.03865" lon="5.47614">
        <ele>1373.4</ele>
        <time>2015-10-17T14:51:14Z</time>
      </trkpt>
      <trkpt lat="45.03885" lon="5.47617">
        <ele>1374.3</ele>
        <time>2015-10-17T14:51:15Z</time>
      </trkpt>
      <trkpt lat="45.03906" lon="5.47621">
        <ele>1374.3</ele>
        <time>2015-10-17T14:51:16Z</time>
      </trkpt>
      <trkpt lat="45.04122" lon="5.47637">
        <ele>1377.2</ele>
        <time>2015-10-17T14:51:26Z</time>
      </trkpt>
      <trkpt lat="45.0414" lon="5.47633">
        <ele>1376.8</ele>
        <time>2015-10-17T14:51:27Z</time>
      </trkpt>
      <trkpt lat="45.04155" lon="5.47624">
        <ele>1377.7</ele>
        <time>2015-10-17T14:51:28Z</time>
      </trkpt>
      <trkpt lat="45.04171" lon="5.4761">
        <ele>1377.7</ele>
        <time>2015-10-17T14:51:29Z</time>
      </trkpt>
      <trkpt lat="45.04233" lon="5.47564">
        <ele>1376.8</ele>
        <time>2015-10-17T14:51:33Z</time>
      </trkpt>
      <trkpt lat="45.04248" lon="5.47561">
        <ele>1377.2</ele>
        <time>2015-10-17T14:51:34Z</time>
      </trkpt>
      <trkpt lat="45.04263" lon="5.47563">
        <ele>1376.8</ele>
        <time>2015-10-17T14:51:35Z</time>
      </trkpt>
      <trkpt lat="45.0428" lon="5.47567">
        <ele>1377.7</ele>
        <time>2015-10-17T14:51:36Z</time>
      </trkpt>
      <trkpt lat="45.04297" lon="5.47571">
        <ele>1377.7</ele>
        <time>2015-10-17T14:51:37Z</time>
      </trkpt>
      <trkpt lat="45.04401" lon="5.47586">
        <ele>1377.2</ele>
        <time>2015-10-17T14:51:43Z</time>
      </trkpt>
      <trkpt lat="45.0452" lon="5.47564">
        <ele>1371</ele>
        <time>2015-10-17T14:51:50Z</time>
      </trkpt>
      <trkpt lat="45.04535" lon="5.47557">
        <ele>1370</ele>
        <time>2015-10-17T14:51:51Z</time>
      </trkpt>
      <trkpt lat="45.04583" lon="5.47536">
        <ele>1368.1</ele>
        <time>2015-10-17T14:51:54Z</time>
      </trkpt>
      <trkpt lat="45.046" lon="5.47533">
        <ele>1367.1</ele>
        <time>2015-10-17T14:51:55Z</time>
      </trkpt>
      <trkpt lat="45.04669" lon="5.47515">
        <ele>1361.4</ele>
        <time>2015-10-17T14:51:59Z</time>
      </trkpt>
      <trkpt lat="45.04838" lon="5.47419">
        <ele>1346.5</ele>
        <time>2015-10-17T14:52:09Z</time>
      </trkpt>
      <trkpt lat="45.04922" lon="5.47397">
        <ele>1340.2</ele>
        <time>2015-10-17T14:52:14Z</time>
      </trkpt>
      <trkpt lat="45.0494" lon="5.47399">
        <ele>1338.8</ele>
        <time>2015-10-17T14:52:15Z</time>
      </trkpt>
      <trkpt lat="45.04958" lon="5.47406">
        <ele>1336.9</ele>
        <time>2015-10-17T14:52:16Z</time>
      </trkpt>
      <trkpt lat="45.04977" lon="5.47413">
        <ele>1334.5</ele>
        <time>2015-10-17T14:52:17Z</time>
      </trkpt>
      <trkpt lat="45.04994" lon="5.47421">
        <ele>1332.5</ele>
        <time>2015-10-17T14:52:18Z</time>
      </trkpt>
      <trkpt lat="45.05029" lon="5.47429">
        <ele>1329.2</ele>
        <time>2015-10-17T14:52:20Z</time>
      </trkpt>
      <trkpt lat="45.05046" lon="5.4743">
        <ele>1326.3</ele>
        <time>2015-10-17T14:52:21Z</time>
      </trkpt>
      <trkpt lat="45.05063" lon="5.47429">
        <ele>1323.4</ele>
        <time>2015-10-17T14:52:22Z</time>
      </trkpt>
      <trkpt lat="45.05114" lon="5.47426">
        <ele>1317.6</ele>
        <time>2015-10-17T14:52:25Z</time>
      </trkpt>
      <trkpt lat="45.05131" lon="5.4743">
        <ele>1317.1</ele>
        <time>2015-10-17T14:52:26Z</time>
      </trkpt>
      <trkpt lat="45.05148" lon="5.4744">
        <ele>1316.2</ele>
        <time>2015-10-17T14:52:27Z</time>
      </trkpt>
      <trkpt lat="45.05163" lon="5.47453">
        <ele>1313.8</ele>
        <time>2015-10-17T14:52:28Z</time>
      </trkpt>
      <trkpt lat="45.05179" lon="5.47468">
        <ele>1311.4</ele>
        <time>2015-10-17T14:52:29Z</time>
      </trkpt>
      <trkpt lat="45.05339" lon="5.47563">
        <ele>1293.6</ele>
        <time>2015-10-17T14:52:38Z</time>
      </trkpt>
      <trkpt lat="45.05464" lon="5.47624">
        <ele>1276.3</ele>
        <time>2015-10-17T14:52:45Z</time>
      </trkpt>
      <trkpt lat="45.05559" lon="5.47662">
        <ele>1265.2</ele>
        <time>2015-10-17T14:52:51Z</time>
      </trkpt>
      <trkpt lat="45.0557" lon="5.47675">
        <ele>1264.3</ele>
        <time>2015-10-17T14:52:52Z</time>
      </trkpt>
      <trkpt lat="45.05661" lon="5.47784">
        <ele>1255.6</ele>
        <time>2015-10-17T14:52:59Z</time>
      </trkpt>
      <trkpt lat="45.05712" lon="5.47861">
        <ele>1253.7</ele>
        <time>2015-10-17T14:53:04Z</time>
      </trkpt>
      <trkpt lat="45.0572" lon="5.47877">
        <ele>1252.7</ele>
        <time>2015-10-17T14:53:05Z</time>
      </trkpt>
      <trkpt lat="45.05771" lon="5.48033">
        <ele>1246.5</ele>
        <time>2015-10-17T14:53:13Z</time>
      </trkpt>
      <trkpt lat="45.05847" lon="5.48235">
        <ele>1235.4</ele>
        <time>2015-10-17T14:53:22Z</time>
      </trkpt>
      <trkpt lat="45.05977" lon="5.48451">
        <ele>1229.2</ele>
        <time>2015-10-17T14:53:32Z</time>
      </trkpt>
      <trkpt lat="45.06106" lon="5.48686">
        <ele>1222</ele>
        <time>2015-10-17T14:53:43Z</time>
      </trkpt>
      <trkpt lat="45.06121" lon="5.48701">
        <ele>1222</ele>
        <time>2015-10-17T14:53:44Z</time>
      </trkpt>
      <trkpt lat="45.06134" lon="5.48711">
        <ele>1222</ele>
        <time>2015-10-17T14:53:45Z</time>
      </trkpt>
      <trkpt lat="45.06148" lon="5.48719">
        <ele>1221.5</ele>
        <time>2015-10-17T14:53:46Z</time>
      </trkpt>
      <trkpt lat="45.06261" lon="5.48837">
        <ele>1216.2</ele>
        <time>2015-10-17T14:53:54Z</time>
      </trkpt>
      <trkpt lat="45.06293" lon="5.48902">
        <ele>1215.2</ele>
        <time>2015-10-17T14:53:57Z</time>
      </trkpt>
      <trkpt lat="45.06302" lon="5.48926">
        <ele>1215.2</ele>
        <time>2015-10-17T14:53:58Z</time>
      </trkpt>
      <trkpt lat="45.06309" lon="5.48951">
        <ele>1215.2</ele>
        <time>2015-10-17T14:53:59Z</time>
      </trkpt>
      <trkpt lat="45.06324" lon="5.49028">
        <ele>1214.3</ele>
        <time>2015-10-17T14:54:02Z</time>
      </trkpt>
      <trkpt lat="45.06321" lon="5.49051">
        <ele>1211.4</ele>
        <time>2015-10-17T14:54:03Z</time>
      </trkpt>
      <trkpt lat="45.06317" lon="5.49076">
        <ele>1208.5</ele>
        <time>2015-10-17T14:54:04Z</time>
      </trkpt>
      <trkpt lat="45.06307" lon="5.49101">
        <ele>1207.1</ele>
        <time>2015-10-17T14:54:05Z</time>
      </trkpt>
      <trkpt lat="45.06296" lon="5.49125">
        <ele>1205.2</ele>
        <time>2015-10-17T14:54:06Z</time>
      </trkpt>
      <trkpt lat="45.06287" lon="5.49147">
        <ele>1204.7</ele>
        <time>2015-10-17T14:54:07Z</time>
      </trkpt>
      <trkpt lat="45.06282" lon="5.4917">
        <ele>1203.2</ele>
        <time>2015-10-17T14:54:08Z</time>
      </trkpt>
      <trkpt lat="45.0625" lon="5.49248">
        <ele>1200.3</ele>
        <time>2015-10-17T14:54:13Z</time>
      </trkpt>
      <trkpt lat="45.06239" lon="5.49286">
        <ele>1196.5</ele>
        <time>2015-10-17T14:54:17Z</time>
      </trkpt>
      <trkpt lat="45.06246" lon="5.49292">
        <ele>1197</ele>
        <time>2015-10-17T14:54:18Z</time>
      </trkpt>
      <trkpt lat="45.06251" lon="5.49301">
        <ele>1196.5</ele>
        <time>2015-10-17T14:54:19Z</time>
      </trkpt>
      <trkpt lat="45.06255" lon="5.49309">
        <ele>1196</ele>
        <time>2015-10-17T14:54:20Z</time>
      </trkpt>
      <trkpt lat="45.06262" lon="5.49318">
        <ele>1196</ele>
        <time>2015-10-17T14:54:21Z</time>
      </trkpt>
      <trkpt lat="45.06271" lon="5.4933">
        <ele>1195.1</ele>
        <time>2015-10-17T14:54:22Z</time>
      </trkpt>
      <trkpt lat="45.06281" lon="5.49344">
        <ele>1194.1</ele>
        <time>2015-10-17T14:54:23Z</time>
      </trkpt>
      <trkpt lat="45.06346" lon="5.49449">
        <ele>1189.8</ele>
        <time>2015-10-17T14:54:30Z</time>
      </trkpt>
      <trkpt lat="45.06416" lon="5.49496">
        <ele>1186.4</ele>
        <time>2015-10-17T14:54:36Z</time>
      </trkpt>
      <trkpt lat="45.06427" lon="5.49501">
        <ele>1186.9</ele>
        <time>2015-10-17T14:54:37Z</time>
      </trkpt>
      <trkpt lat="45.06437" lon="5.49505">
        <ele>1186.9</ele>
        <time>2015-10-17T14:54:38Z</time>
      </trkpt>
      <trkpt lat="45.06444" lon="5.49511">
        <ele>1186.4</ele>
        <time>2015-10-17T14:54:39Z</time>
      </trkpt>
      <trkpt lat="45.06449" lon="5.49517">
        <ele>1185.9</ele>
        <time>2015-10-17T14:54:40Z</time>
      </trkpt>
      <trkpt lat="45.06454" lon="5.49523">
        <ele>1186.4</ele>
        <time>2015-10-17T14:54:41Z</time>
      </trkpt>
      <trkpt lat="45.06457" lon="5.49526">
        <ele>1186.4</ele>
        <time>2015-10-17T14:54:42Z</time>
      </trkpt>
      <trkpt lat="45.0646" lon="5.49525">
        <ele>1186.9</ele>
        <time>2015-10-17T14:54:43Z</time>
      </trkpt>
      <trkpt lat="45.06454" lon="5.4951">
        <ele>1185.4</ele>
        <time>2015-10-17T14:54:49Z</time>
      </trkpt>
      <trkpt lat="45.06454" lon="5.49509">
        <ele>1188.8</ele>
        <time>2015-10-17T14:55:02Z</time>
      </trkpt>
      <trkpt lat="45.06454" lon="5.4951">
        <ele>1192.7</ele>
        <time>2015-10-17T14:55:22Z</time>
      </trkpt>
      <trkpt lat="45.06456" lon="5.495">
        <ele>1188.8</ele>
        <time>2015-10-17T15:07:37Z</time>
      </trkpt>
      <trkpt lat="45.06452" lon="5.49508">
        <ele>1189.3</ele>
        <time>2015-10-17T15:09:08Z</time>
      </trkpt>
      <trkpt lat="45.06451" lon="5.49529">
        <ele>1189.8</ele>
        <time>2015-10-17T15:09:14Z</time>
      </trkpt>
      <trkpt lat="45.06452" lon="5.49535">
        <ele>1190.3</ele>
        <time>2015-10-17T15:09:15Z</time>
      </trkpt>
      <trkpt lat="45.06454" lon="5.49541">
        <ele>1189.8</ele>
        <time>2015-10-17T15:09:16Z</time>
      </trkpt>
      <trkpt lat="45.06457" lon="5.49546">
        <ele>1189.8</ele>
        <time>2015-10-17T15:09:17Z</time>
      </trkpt>
      <trkpt lat="45.0646" lon="5.49551">
        <ele>1189.8</ele>
        <time>2015-10-17T15:09:18Z</time>
      </trkpt>
      <trkpt lat="45.06466" lon="5.49563">
        <ele>1190.3</ele>
        <time>2015-10-17T15:09:20Z</time>
      </trkpt>
      <trkpt lat="45.06494" lon="5.49609">
        <ele>1191.7</ele>
        <time>2015-10-17T15:09:30Z</time>
      </trkpt>
      <trkpt lat="45.06513" lon="5.49605">
        <ele>1210</ele>
        <time>2015-10-17T15:09:48Z</time>
      </trkpt>
      <trkpt lat="45.06517" lon="5.49622">
        <ele>1194.6</ele>
        <time>2015-10-17T15:10:07Z</time>
      </trkpt>
      <trkpt lat="45.06509" lon="5.49624">
        <ele>1189.8</ele>
        <time>2015-10-17T15:10:37Z</time>
      </trkpt>
      <trkpt lat="45.0651" lon="5.49624">
        <ele>1192.7</ele>
        <time>2015-10-17T15:10:38Z</time>
      </trkpt>
      <trkpt lat="45.0651" lon="5.49626">
        <ele>1194.6</ele>
        <time>2015-10-17T15:10:39Z</time>
      </trkpt>
      <trkpt lat="45.06524" lon="5.49645">
        <ele>1195.5</ele>
        <time>2015-10-17T15:10:43Z</time>
      </trkpt>
      <trkpt lat="45.06536" lon="5.49653">
        <ele>1194.6</ele>
        <time>2015-10-17T15:10:44Z</time>
      </trkpt>
      <trkpt lat="45.06546" lon="5.49657">
        <ele>1195.1</ele>
        <time>2015-10-17T15:10:45Z</time>
      </trkpt>
      <trkpt lat="45.06565" lon="5.49667">
        <ele>1195.1</ele>
        <time>2015-10-17T15:10:47Z</time>
      </trkpt>
      <trkpt lat="45.06573" lon="5.49677">
        <ele>1194.6</ele>
        <time>2015-10-17T15:10:48Z</time>
      </trkpt>
      <trkpt lat="45.06579" lon="5.49689">
        <ele>1194.6</ele>
        <time>2015-10-17T15:10:49Z</time>
      </trkpt>
      <trkpt lat="45.06585" lon="5.49704">
        <ele>1195.1</ele>
        <time>2015-10-17T15:10:50Z</time>
      </trkpt>
      <trkpt lat="45.0659" lon="5.49721">
        <ele>1195.1</ele>
        <time>2015-10-17T15:10:51Z</time>
      </trkpt>
      <trkpt lat="45.06595" lon="5.49738">
        <ele>1194.1</ele>
        <time>2015-10-17T15:10:52Z</time>
      </trkpt>
      <trkpt lat="45.06628" lon="5.49848">
        <ele>1193.6</ele>
        <time>2015-10-17T15:10:59Z</time>
      </trkpt>
      <trkpt lat="45.06627" lon="5.4986">
        <ele>1192.7</ele>
        <time>2015-10-17T15:11:00Z</time>
      </trkpt>
      <trkpt lat="45.06616" lon="5.49865">
        <ele>1192.2</ele>
        <time>2015-10-17T15:11:01Z</time>
      </trkpt>
      <trkpt lat="45.06608" lon="5.49875">
        <ele>1191.2</ele>
        <time>2015-10-17T15:11:02Z</time>
      </trkpt>
      <trkpt lat="45.06602" lon="5.49886">
        <ele>1190.7</ele>
        <time>2015-10-17T15:11:03Z</time>
      </trkpt>
      <trkpt lat="45.06598" lon="5.49897">
        <ele>1190.7</ele>
        <time>2015-10-17T15:11:04Z</time>
      </trkpt>
      <trkpt lat="45.06594" lon="5.49908">
        <ele>1190.3</ele>
        <time>2015-10-17T15:11:05Z</time>
      </trkpt>
      <trkpt lat="45.06596" lon="5.49921">
        <ele>1189.3</ele>
        <time>2015-10-17T15:11:06Z</time>
      </trkpt>
      <trkpt lat="45.06598" lon="5.49932">
        <ele>1188.3</ele>
        <time>2015-10-17T15:11:07Z</time>
      </trkpt>
      <trkpt lat="45.06605" lon="5.49941">
        <ele>1187.9</ele>
        <time>2015-10-17T15:11:08Z</time>
      </trkpt>
      <trkpt lat="45.06612" lon="5.49948">
        <ele>1187.9</ele>
        <time>2015-10-17T15:11:09Z</time>
      </trkpt>
      <trkpt lat="45.0662" lon="5.49957">
        <ele>1188.8</ele>
        <time>2015-10-17T15:11:10Z</time>
      </trkpt>
      <trkpt lat="45.06626" lon="5.49965">
        <ele>1188.8</ele>
        <time>2015-10-17T15:11:11Z</time>
      </trkpt>
      <trkpt lat="45.0663" lon="5.49974">
        <ele>1188.8</ele>
        <time>2015-10-17T15:11:12Z</time>
      </trkpt>
      <trkpt lat="45.06632" lon="5.49984">
        <ele>1188.8</ele>
        <time>2015-10-17T15:11:13Z</time>
      </trkpt>
      <trkpt lat="45.06628" lon="5.49995">
        <ele>1188.3</ele>
        <time>2015-10-17T15:11:14Z</time>
      </trkpt>
      <trkpt lat="45.06623" lon="5.50004">
        <ele>1187.9</ele>
        <time>2015-10-17T15:11:15Z</time>
      </trkpt>
      <trkpt lat="45.06614" lon="5.50012">
        <ele>1187.4</ele>
        <time>2015-10-17T15:11:16Z</time>
      </trkpt>
      <trkpt lat="45.06603" lon="5.50019">
        <ele>1187.4</ele>
        <time>2015-10-17T15:11:17Z</time>
      </trkpt>
      <trkpt lat="45.06591" lon="5.50026">
        <ele>1186.9</ele>
        <time>2015-10-17T15:11:18Z</time>
      </trkpt>
      <trkpt lat="45.06578" lon="5.50034">
        <ele>1186.9</ele>
        <time>2015-10-17T15:11:19Z</time>
      </trkpt>
      <trkpt lat="45.06464" lon="5.50092">
        <ele>1192.7</ele>
        <time>2015-10-17T15:11:27Z</time>
      </trkpt>
      <trkpt lat="45.06428" lon="5.50119">
        <ele>1192.7</ele>
        <time>2015-10-17T15:11:30Z</time>
      </trkpt>
      <trkpt lat="45.06418" lon="5.50134">
        <ele>1191.7</ele>
        <time>2015-10-17T15:11:31Z</time>
      </trkpt>
      <trkpt lat="45.06408" lon="5.50149">
        <ele>1190.7</ele>
        <time>2015-10-17T15:11:32Z</time>
      </trkpt>
      <trkpt lat="45.06397" lon="5.50166">
        <ele>1189.8</ele>
        <time>2015-10-17T15:11:33Z</time>
      </trkpt>
      <trkpt lat="45.06388" lon="5.50185">
        <ele>1189.3</ele>
        <time>2015-10-17T15:11:34Z</time>
      </trkpt>
      <trkpt lat="45.06378" lon="5.50207">
        <ele>1191.7</ele>
        <time>2015-10-17T15:11:35Z</time>
      </trkpt>
      <trkpt lat="45.06369" lon="5.50227">
        <ele>1190.7</ele>
        <time>2015-10-17T15:11:36Z</time>
      </trkpt>
      <trkpt lat="45.06299" lon="5.50413">
        <ele>1190.7</ele>
        <time>2015-10-17T15:11:45Z</time>
      </trkpt>
      <trkpt lat="45.0627" lon="5.50466">
        <ele>1191.7</ele>
        <time>2015-10-17T15:11:48Z</time>
      </trkpt>
      <trkpt lat="45.06234" lon="5.50515">
        <ele>1191.2</ele>
        <time>2015-10-17T15:11:51Z</time>
      </trkpt>
      <trkpt lat="45.0622" lon="5.50528">
        <ele>1191.2</ele>
        <time>2015-10-17T15:11:52Z</time>
      </trkpt>
      <trkpt lat="45.06172" lon="5.50582">
        <ele>1189.3</ele>
        <time>2015-10-17T15:11:56Z</time>
      </trkpt>
      <trkpt lat="45.06165" lon="5.50598">
        <ele>1187.9</ele>
        <time>2015-10-17T15:11:57Z</time>
      </trkpt>
      <trkpt lat="45.06159" lon="5.50616">
        <ele>1187.9</ele>
        <time>2015-10-17T15:11:58Z</time>
      </trkpt>
      <trkpt lat="45.06147" lon="5.50652">
        <ele>1186.9</ele>
        <time>2015-10-17T15:12:00Z</time>
      </trkpt>
      <trkpt lat="45.06137" lon="5.50666">
        <ele>1186.4</ele>
        <time>2015-10-17T15:12:01Z</time>
      </trkpt>
      <trkpt lat="45.06124" lon="5.50677">
        <ele>1186.4</ele>
        <time>2015-10-17T15:12:02Z</time>
      </trkpt>
      <trkpt lat="45.05998" lon="5.50774">
        <ele>1181.6</ele>
        <time>2015-10-17T15:12:10Z</time>
      </trkpt>
      <trkpt lat="45.05958" lon="5.50825">
        <ele>1182.1</ele>
        <time>2015-10-17T15:12:13Z</time>
      </trkpt>
      <trkpt lat="45.0592" lon="5.50882">
        <ele>1181.6</ele>
        <time>2015-10-17T15:12:16Z</time>
      </trkpt>
      <trkpt lat="45.05817" lon="5.51031">
        <ele>1180.6</ele>
        <time>2015-10-17T15:12:24Z</time>
      </trkpt>
      <trkpt lat="45.05801" lon="5.51042">
        <ele>1180.2</ele>
        <time>2015-10-17T15:12:25Z</time>
      </trkpt>
      <trkpt lat="45.05785" lon="5.51049">
        <ele>1180.2</ele>
        <time>2015-10-17T15:12:26Z</time>
      </trkpt>
      <trkpt lat="45.05769" lon="5.51055">
        <ele>1178.2</ele>
        <time>2015-10-17T15:12:27Z</time>
      </trkpt>
      <trkpt lat="45.05753" lon="5.5106">
        <ele>1177.3</ele>
        <time>2015-10-17T15:12:28Z</time>
      </trkpt>
      <trkpt lat="45.05719" lon="5.51081">
        <ele>1175.4</ele>
        <time>2015-10-17T15:12:31Z</time>
      </trkpt>
      <trkpt lat="45.05711" lon="5.51093">
        <ele>1175.8</ele>
        <time>2015-10-17T15:12:32Z</time>
      </trkpt>
      <trkpt lat="45.05707" lon="5.51107">
        <ele>1176.3</ele>
        <time>2015-10-17T15:12:33Z</time>
      </trkpt>
      <trkpt lat="45.05702" lon="5.5112">
        <ele>1176.3</ele>
        <time>2015-10-17T15:12:34Z</time>
      </trkpt>
      <trkpt lat="45.05697" lon="5.51131">
        <ele>1175.8</ele>
        <time>2015-10-17T15:12:35Z</time>
      </trkpt>
      <trkpt lat="45.05687" lon="5.51138">
        <ele>1175.8</ele>
        <time>2015-10-17T15:12:36Z</time>
      </trkpt>
      <trkpt lat="45.05675" lon="5.51141">
        <ele>1175.8</ele>
        <time>2015-10-17T15:12:37Z</time>
      </trkpt>
      <trkpt lat="45.05661" lon="5.51139">
        <ele>1175.4</ele>
        <time>2015-10-17T15:12:38Z</time>
      </trkpt>
      <trkpt lat="45.05645" lon="5.51137">
        <ele>1176.3</ele>
        <time>2015-10-17T15:12:39Z</time>
      </trkpt>
      <trkpt lat="45.0563" lon="5.51134">
        <ele>1175.8</ele>
        <time>2015-10-17T15:12:40Z</time>
      </trkpt>
      <trkpt lat="45.05579" lon="5.51139">
        <ele>1176.3</ele>
        <time>2015-10-17T15:12:44Z</time>
      </trkpt>
      <trkpt lat="45.05572" lon="5.51147">
        <ele>1176.3</ele>
        <time>2015-10-17T15:12:45Z</time>
      </trkpt>
      <trkpt lat="45.05573" lon="5.51159">
        <ele>1174.9</ele>
        <time>2015-10-17T15:12:46Z</time>
      </trkpt>
      <trkpt lat="45.05574" lon="5.51171">
        <ele>1174.4</ele>
        <time>2015-10-17T15:12:47Z</time>
      </trkpt>
      <trkpt lat="45.05578" lon="5.51185">
        <ele>1173.4</ele>
        <time>2015-10-17T15:12:48Z</time>
      </trkpt>
      <trkpt lat="45.05585" lon="5.51199">
        <ele>1172.5</ele>
        <time>2015-10-17T15:12:49Z</time>
      </trkpt>
      <trkpt lat="45.05595" lon="5.51214">
        <ele>1171.5</ele>
        <time>2015-10-17T15:12:50Z</time>
      </trkpt>
      <trkpt lat="45.05607" lon="5.51227">
        <ele>1171.5</ele>
        <time>2015-10-17T15:12:51Z</time>
      </trkpt>
      <trkpt lat="45.05617" lon="5.51242">
        <ele>1171</ele>
        <time>2015-10-17T15:12:52Z</time>
      </trkpt>
      <trkpt lat="45.05627" lon="5.51257">
        <ele>1170.1</ele>
        <time>2015-10-17T15:12:53Z</time>
      </trkpt>
      <trkpt lat="45.05635" lon="5.51275">
        <ele>1169.1</ele>
        <time>2015-10-17T15:12:54Z</time>
      </trkpt>
      <trkpt lat="45.05642" lon="5.51293">
        <ele>1169.1</ele>
        <time>2015-10-17T15:12:55Z</time>
      </trkpt>
      <trkpt lat="45.0565" lon="5.51329">
        <ele>1168.6</ele>
        <time>2015-10-17T15:12:57Z</time>
      </trkpt>
      <trkpt lat="45.0565" lon="5.51347">
        <ele>1166.2</ele>
        <time>2015-10-17T15:12:58Z</time>
      </trkpt>
      <trkpt lat="45.05646" lon="5.51363">
        <ele>1163.8</ele>
        <time>2015-10-17T15:12:59Z</time>
      </trkpt>
      <trkpt lat="45.05632" lon="5.51372">
        <ele>1163.8</ele>
        <time>2015-10-17T15:13:00Z</time>
      </trkpt>
      <trkpt lat="45.05622" lon="5.51382">
        <ele>1163.3</ele>
        <time>2015-10-17T15:13:01Z</time>
      </trkpt>
      <trkpt lat="45.05612" lon="5.51392">
        <ele>1162.9</ele>
        <time>2015-10-17T15:13:02Z</time>
      </trkpt>
      <trkpt lat="45.05604" lon="5.51403">
        <ele>1161.4</ele>
        <time>2015-10-17T15:13:03Z</time>
      </trkpt>
      <trkpt lat="45.056" lon="5.51429">
        <ele>1159.5</ele>
        <time>2015-10-17T15:13:05Z</time>
      </trkpt>
      <trkpt lat="45.05602" lon="5.51444">
        <ele>1158.5</ele>
        <time>2015-10-17T15:13:06Z</time>
      </trkpt>
      <trkpt lat="45.05606" lon="5.5146">
        <ele>1158.5</ele>
        <time>2015-10-17T15:13:07Z</time>
      </trkpt>
      <trkpt lat="45.05606" lon="5.51475">
        <ele>1158.1</ele>
        <time>2015-10-17T15:13:08Z</time>
      </trkpt>
      <trkpt lat="45.05605" lon="5.51491">
        <ele>1156.6</ele>
        <time>2015-10-17T15:13:09Z</time>
      </trkpt>
      <trkpt lat="45.05601" lon="5.51505">
        <ele>1156.1</ele>
        <time>2015-10-17T15:13:10Z</time>
      </trkpt>
      <trkpt lat="45.05594" lon="5.51515">
        <ele>1155.6</ele>
        <time>2015-10-17T15:13:11Z</time>
      </trkpt>
      <trkpt lat="45.05583" lon="5.51523">
        <ele>1156.1</ele>
        <time>2015-10-17T15:13:12Z</time>
      </trkpt>
      <trkpt lat="45.0557" lon="5.51524">
        <ele>1154.7</ele>
        <time>2015-10-17T15:13:13Z</time>
      </trkpt>
      <trkpt lat="45.05559" lon="5.51528">
        <ele>1155.2</ele>
        <time>2015-10-17T15:13:14Z</time>
      </trkpt>
      <trkpt lat="45.05538" lon="5.51537">
        <ele>1152.8</ele>
        <time>2015-10-17T15:13:16Z</time>
      </trkpt>
      <trkpt lat="45.05531" lon="5.51547">
        <ele>1151.8</ele>
        <time>2015-10-17T15:13:17Z</time>
      </trkpt>
      <trkpt lat="45.05528" lon="5.51561">
        <ele>1151.3</ele>
        <time>2015-10-17T15:13:18Z</time>
      </trkpt>
      <trkpt lat="45.05529" lon="5.51578">
        <ele>1149.9</ele>
        <time>2015-10-17T15:13:19Z</time>
      </trkpt>
      <trkpt lat="45.05533" lon="5.51596">
        <ele>1149.9</ele>
        <time>2015-10-17T15:13:20Z</time>
      </trkpt>
      <trkpt lat="45.05536" lon="5.51614">
        <ele>1148.9</ele>
        <time>2015-10-17T15:13:21Z</time>
      </trkpt>
      <trkpt lat="45.0554" lon="5.51631">
        <ele>1147.5</ele>
        <time>2015-10-17T15:13:22Z</time>
      </trkpt>
      <trkpt lat="45.05544" lon="5.51646">
        <ele>1147</ele>
        <time>2015-10-17T15:13:23Z</time>
      </trkpt>
      <trkpt lat="45.05552" lon="5.5166">
        <ele>1146</ele>
        <time>2015-10-17T15:13:24Z</time>
      </trkpt>
      <trkpt lat="45.0556" lon="5.51674">
        <ele>1144.6</ele>
        <time>2015-10-17T15:13:25Z</time>
      </trkpt>
      <trkpt lat="45.05566" lon="5.51689">
        <ele>1145.1</ele>
        <time>2015-10-17T15:13:26Z</time>
      </trkpt>
      <trkpt lat="45.05589" lon="5.51773">
        <ele>1148</ele>
        <time>2015-10-17T15:13:32Z</time>
      </trkpt>
      <trkpt lat="45.05591" lon="5.51786">
        <ele>1148.4</ele>
        <time>2015-10-17T15:13:33Z</time>
      </trkpt>
      <trkpt lat="45.0559" lon="5.51799">
        <ele>1147</ele>
        <time>2015-10-17T15:13:34Z</time>
      </trkpt>
      <trkpt lat="45.05587" lon="5.51812">
        <ele>1146</ele>
        <time>2015-10-17T15:13:35Z</time>
      </trkpt>
      <trkpt lat="45.0558" lon="5.51824">
        <ele>1145.6</ele>
        <time>2015-10-17T15:13:36Z</time>
      </trkpt>
      <trkpt lat="45.05573" lon="5.51836">
        <ele>1146</ele>
        <time>2015-10-17T15:13:37Z</time>
      </trkpt>
      <trkpt lat="45.05568" lon="5.51847">
        <ele>1146</ele>
        <time>2015-10-17T15:13:38Z</time>
      </trkpt>
      <trkpt lat="45.05567" lon="5.51857">
        <ele>1146</ele>
        <time>2015-10-17T15:13:39Z</time>
      </trkpt>
      <trkpt lat="45.05566" lon="5.51872">
        <ele>1146.5</ele>
        <time>2015-10-17T15:13:40Z</time>
      </trkpt>
      <trkpt lat="45.0557" lon="5.51889">
        <ele>1144.6</ele>
        <time>2015-10-17T15:13:41Z</time>
      </trkpt>
      <trkpt lat="45.05574" lon="5.51908">
        <ele>1144.6</ele>
        <time>2015-10-17T15:13:42Z</time>
      </trkpt>
      <trkpt lat="45.05579" lon="5.51927">
        <ele>1144.6</ele>
        <time>2015-10-17T15:13:43Z</time>
      </trkpt>
      <trkpt lat="45.05589" lon="5.51976">
        <ele>1145.1</ele>
        <time>2015-10-17T15:13:46Z</time>
      </trkpt>
      <trkpt lat="45.05601" lon="5.52044">
        <ele>1145.6</ele>
        <time>2015-10-17T15:13:50Z</time>
      </trkpt>
      <trkpt lat="45.0561" lon="5.52063">
        <ele>1146</ele>
        <time>2015-10-17T15:13:51Z</time>
      </trkpt>
      <trkpt lat="45.05647" lon="5.52151">
        <ele>1144.1</ele>
        <time>2015-10-17T15:13:56Z</time>
      </trkpt>
      <trkpt lat="45.05657" lon="5.52164">
        <ele>1144.1</ele>
        <time>2015-10-17T15:13:57Z</time>
      </trkpt>
      <trkpt lat="45.0567" lon="5.52175">
        <ele>1143.6</ele>
        <time>2015-10-17T15:13:58Z</time>
      </trkpt>
      <trkpt lat="45.05685" lon="5.52182">
        <ele>1144.6</ele>
        <time>2015-10-17T15:13:59Z</time>
      </trkpt>
      <trkpt lat="45.057" lon="5.5219">
        <ele>1144.1</ele>
        <time>2015-10-17T15:14:00Z</time>
      </trkpt>
      <trkpt lat="45.05716" lon="5.52199">
        <ele>1143.6</ele>
        <time>2015-10-17T15:14:01Z</time>
      </trkpt>
      <trkpt lat="45.05833" lon="5.52236">
        <ele>1138.8</ele>
        <time>2015-10-17T15:14:08Z</time>
      </trkpt>
      <trkpt lat="45.05848" lon="5.52244">
        <ele>1138.3</ele>
        <time>2015-10-17T15:14:09Z</time>
      </trkpt>
      <trkpt lat="45.05943" lon="5.52295">
        <ele>1138.8</ele>
        <time>2015-10-17T15:14:15Z</time>
      </trkpt>
      <trkpt lat="45.0596" lon="5.52299">
        <ele>1139.3</ele>
        <time>2015-10-17T15:14:16Z</time>
      </trkpt>
      <trkpt lat="45.06042" lon="5.52311">
        <ele>1140.7</ele>
        <time>2015-10-17T15:14:21Z</time>
      </trkpt>
      <trkpt lat="45.06052" lon="5.52316">
        <ele>1140.3</ele>
        <time>2015-10-17T15:14:22Z</time>
      </trkpt>
      <trkpt lat="45.06057" lon="5.52325">
        <ele>1140.7</ele>
        <time>2015-10-17T15:14:23Z</time>
      </trkpt>
      <trkpt lat="45.06062" lon="5.52334">
        <ele>1141.2</ele>
        <time>2015-10-17T15:14:24Z</time>
      </trkpt>
      <trkpt lat="45.06064" lon="5.52351">
        <ele>1141.2</ele>
        <time>2015-10-17T15:14:25Z</time>
      </trkpt>
      <trkpt lat="45.06067" lon="5.52368">
        <ele>1140.3</ele>
        <time>2015-10-17T15:14:26Z</time>
      </trkpt>
      <trkpt lat="45.06072" lon="5.52385">
        <ele>1140.3</ele>
        <time>2015-10-17T15:14:27Z</time>
      </trkpt>
      <trkpt lat="45.0608" lon="5.52401">
        <ele>1140.3</ele>
        <time>2015-10-17T15:14:28Z</time>
      </trkpt>
      <trkpt lat="45.0609" lon="5.52414">
        <ele>1140.3</ele>
        <time>2015-10-17T15:14:29Z</time>
      </trkpt>
      <trkpt lat="45.06102" lon="5.52421">
        <ele>1140.3</ele>
        <time>2015-10-17T15:14:30Z</time>
      </trkpt>
      <trkpt lat="45.06114" lon="5.52425">
        <ele>1139.8</ele>
        <time>2015-10-17T15:14:31Z</time>
      </trkpt>
      <trkpt lat="45.06128" lon="5.52425">
        <ele>1139.8</ele>
        <time>2015-10-17T15:14:32Z</time>
      </trkpt>
      <trkpt lat="45.06142" lon="5.52425">
        <ele>1139.8</ele>
        <time>2015-10-17T15:14:33Z</time>
      </trkpt>
      <trkpt lat="45.06183" lon="5.52434">
        <ele>1141.2</ele>
        <time>2015-10-17T15:14:36Z</time>
      </trkpt>
      <trkpt lat="45.06196" lon="5.5244">
        <ele>1141.7</ele>
        <time>2015-10-17T15:14:37Z</time>
      </trkpt>
      <trkpt lat="45.06209" lon="5.52449">
        <ele>1141.7</ele>
        <time>2015-10-17T15:14:38Z</time>
      </trkpt>
      <trkpt lat="45.06249" lon="5.52479">
        <ele>1142.2</ele>
        <time>2015-10-17T15:14:41Z</time>
      </trkpt>
      <trkpt lat="45.06264" lon="5.52485">
        <ele>1142.7</ele>
        <time>2015-10-17T15:14:42Z</time>
      </trkpt>
      <trkpt lat="45.06279" lon="5.52488">
        <ele>1142.7</ele>
        <time>2015-10-17T15:14:43Z</time>
      </trkpt>
      <trkpt lat="45.06295" lon="5.52488">
        <ele>1143.1</ele>
        <time>2015-10-17T15:14:44Z</time>
      </trkpt>
      <trkpt lat="45.06311" lon="5.52485">
        <ele>1143.1</ele>
        <time>2015-10-17T15:14:45Z</time>
      </trkpt>
      <trkpt lat="45.06328" lon="5.5248">
        <ele>1143.6</ele>
        <time>2015-10-17T15:14:46Z</time>
      </trkpt>
      <trkpt lat="45.06344" lon="5.52474">
        <ele>1143.6</ele>
        <time>2015-10-17T15:14:47Z</time>
      </trkpt>
      <trkpt lat="45.06442" lon="5.5244">
        <ele>1144.6</ele>
        <time>2015-10-17T15:14:53Z</time>
      </trkpt>
      <trkpt lat="45.06457" lon="5.5244">
        <ele>1144.6</ele>
        <time>2015-10-17T15:14:54Z</time>
      </trkpt>
      <trkpt lat="45.06468" lon="5.52445">
        <ele>1144.6</ele>
        <time>2015-10-17T15:14:55Z</time>
      </trkpt>
      <trkpt lat="45.06478" lon="5.52456">
        <ele>1144.6</ele>
        <time>2015-10-17T15:14:56Z</time>
      </trkpt>
      <trkpt lat="45.06488" lon="5.52469">
        <ele>1144.1</ele>
        <time>2015-10-17T15:14:57Z</time>
      </trkpt>
      <trkpt lat="45.06497" lon="5.52488">
        <ele>1145.1</ele>
        <time>2015-10-17T15:14:58Z</time>
      </trkpt>
      <trkpt lat="45.06504" lon="5.52508">
        <ele>1145.1</ele>
        <time>2015-10-17T15:14:59Z</time>
      </trkpt>
      <trkpt lat="45.0651" lon="5.52531">
        <ele>1144.6</ele>
        <time>2015-10-17T15:15:00Z</time>
      </trkpt>
      <trkpt lat="45.06517" lon="5.52554">
        <ele>1144.6</ele>
        <time>2015-10-17T15:15:01Z</time>
      </trkpt>
      <trkpt lat="45.06525" lon="5.52576">
        <ele>1144.1</ele>
        <time>2015-10-17T15:15:02Z</time>
      </trkpt>
      <trkpt lat="45.06534" lon="5.52599">
        <ele>1144.1</ele>
        <time>2015-10-17T15:15:03Z</time>
      </trkpt>
      <trkpt lat="45.06545" lon="5.52621">
        <ele>1143.6</ele>
        <time>2015-10-17T15:15:04Z</time>
      </trkpt>
      <trkpt lat="45.06605" lon="5.52747">
        <ele>1142.2</ele>
        <time>2015-10-17T15:15:10Z</time>
      </trkpt>
      <trkpt lat="45.06611" lon="5.52766">
        <ele>1141.7</ele>
        <time>2015-10-17T15:15:11Z</time>
      </trkpt>
      <trkpt lat="45.06613" lon="5.52787">
        <ele>1141.2</ele>
        <time>2015-10-17T15:15:12Z</time>
      </trkpt>
      <trkpt lat="45.06614" lon="5.5281">
        <ele>1140.3</ele>
        <time>2015-10-17T15:15:13Z</time>
      </trkpt>
      <trkpt lat="45.06612" lon="5.52835">
        <ele>1139.8</ele>
        <time>2015-10-17T15:15:14Z</time>
      </trkpt>
      <trkpt lat="45.06588" lon="5.53101">
        <ele>1133.1</ele>
        <time>2015-10-17T15:15:24Z</time>
      </trkpt>
      <trkpt lat="45.06584" lon="5.53123">
        <ele>1132.1</ele>
        <time>2015-10-17T15:15:25Z</time>
      </trkpt>
      <trkpt lat="45.06579" lon="5.53144">
        <ele>1131.6</ele>
        <time>2015-10-17T15:15:26Z</time>
      </trkpt>
      <trkpt lat="45.06572" lon="5.53163">
        <ele>1131.6</ele>
        <time>2015-10-17T15:15:27Z</time>
      </trkpt>
      <trkpt lat="45.06555" lon="5.53211">
        <ele>1131.1</ele>
        <time>2015-10-17T15:15:30Z</time>
      </trkpt>
      <trkpt lat="45.06556" lon="5.53223">
        <ele>1131.1</ele>
        <time>2015-10-17T15:15:31Z</time>
      </trkpt>
      <trkpt lat="45.0656" lon="5.53234">
        <ele>1130.7</ele>
        <time>2015-10-17T15:15:32Z</time>
      </trkpt>
      <trkpt lat="45.06569" lon="5.53243">
        <ele>1130.2</ele>
        <time>2015-10-17T15:15:33Z</time>
      </trkpt>
      <trkpt lat="45.0658" lon="5.53249">
        <ele>1130.2</ele>
        <time>2015-10-17T15:15:34Z</time>
      </trkpt>
      <trkpt lat="45.06593" lon="5.53254">
        <ele>1130.2</ele>
        <time>2015-10-17T15:15:35Z</time>
      </trkpt>
      <trkpt lat="45.0661" lon="5.53255">
        <ele>1130.7</ele>
        <time>2015-10-17T15:15:36Z</time>
      </trkpt>
      <trkpt lat="45.06629" lon="5.53256">
        <ele>1131.6</ele>
        <time>2015-10-17T15:15:37Z</time>
      </trkpt>
      <trkpt lat="45.0665" lon="5.53254">
        <ele>1131.6</ele>
        <time>2015-10-17T15:15:38Z</time>
      </trkpt>
      <trkpt lat="45.06671" lon="5.53253">
        <ele>1131.6</ele>
        <time>2015-10-17T15:15:39Z</time>
      </trkpt>
      <trkpt lat="45.06811" lon="5.53286">
        <ele>1126.8</ele>
        <time>2015-10-17T15:15:46Z</time>
      </trkpt>
      <trkpt lat="45.06865" lon="5.53341">
        <ele>1124.9</ele>
        <time>2015-10-17T15:15:50Z</time>
      </trkpt>
      <trkpt lat="45.06871" lon="5.53362">
        <ele>1125.4</ele>
        <time>2015-10-17T15:15:51Z</time>
      </trkpt>
      <trkpt lat="45.0687" lon="5.5338">
        <ele>1125.8</ele>
        <time>2015-10-17T15:15:52Z</time>
      </trkpt>
      <trkpt lat="45.0687" lon="5.53401">
        <ele>1126.3</ele>
        <time>2015-10-17T15:15:53Z</time>
      </trkpt>
      <trkpt lat="45.06868" lon="5.53423">
        <ele>1124.9</ele>
        <time>2015-10-17T15:15:54Z</time>
      </trkpt>
      <trkpt lat="45.06864" lon="5.53448">
        <ele>1121</ele>
        <time>2015-10-17T15:15:55Z</time>
      </trkpt>
      <trkpt lat="45.06861" lon="5.53469">
        <ele>1120.1</ele>
        <time>2015-10-17T15:15:56Z</time>
      </trkpt>
      <trkpt lat="45.06856" lon="5.53504">
        <ele>1114.8</ele>
        <time>2015-10-17T15:15:58Z</time>
      </trkpt>
      <trkpt lat="45.06845" lon="5.53514">
        <ele>1112.9</ele>
        <time>2015-10-17T15:15:59Z</time>
      </trkpt>
      <trkpt lat="45.06833" lon="5.53522">
        <ele>1111.9</ele>
        <time>2015-10-17T15:16:00Z</time>
      </trkpt>
      <trkpt lat="45.06816" lon="5.53527">
        <ele>1110.9</ele>
        <time>2015-10-17T15:16:01Z</time>
      </trkpt>
      <trkpt lat="45.06799" lon="5.53532">
        <ele>1109.5</ele>
        <time>2015-10-17T15:16:02Z</time>
      </trkpt>
      <trkpt lat="45.06782" lon="5.53536">
        <ele>1108.1</ele>
        <time>2015-10-17T15:16:03Z</time>
      </trkpt>
      <trkpt lat="45.06763" lon="5.53539">
        <ele>1106.1</ele>
        <time>2015-10-17T15:16:04Z</time>
      </trkpt>
      <trkpt lat="45.06746" lon="5.53542">
        <ele>1104.7</ele>
        <time>2015-10-17T15:16:05Z</time>
      </trkpt>
      <trkpt lat="45.06595" lon="5.5358">
        <ele>1091.2</ele>
        <time>2015-10-17T15:16:14Z</time>
      </trkpt>
      <trkpt lat="45.06586" lon="5.53591">
        <ele>1088.4</ele>
        <time>2015-10-17T15:16:15Z</time>
      </trkpt>
      <trkpt lat="45.06583" lon="5.53597">
        <ele>1084</ele>
        <time>2015-10-17T15:16:16Z</time>
      </trkpt>
      <trkpt lat="45.06583" lon="5.53611">
        <ele>1083.1</ele>
        <time>2015-10-17T15:16:17Z</time>
      </trkpt>
      <trkpt lat="45.06588" lon="5.53639">
        <ele>1078.7</ele>
        <time>2015-10-17T15:16:19Z</time>
      </trkpt>
      <trkpt lat="45.06596" lon="5.53651">
        <ele>1076.8</ele>
        <time>2015-10-17T15:16:20Z</time>
      </trkpt>
      <trkpt lat="45.06608" lon="5.53663">
        <ele>1074.4</ele>
        <time>2015-10-17T15:16:21Z</time>
      </trkpt>
      <trkpt lat="45.06621" lon="5.53678">
        <ele>1073</ele>
        <time>2015-10-17T15:16:22Z</time>
      </trkpt>
      <trkpt lat="45.06637" lon="5.53695">
        <ele>1071.1</ele>
        <time>2015-10-17T15:16:23Z</time>
      </trkpt>
      <trkpt lat="45.06656" lon="5.53711">
        <ele>1069.6</ele>
        <time>2015-10-17T15:16:24Z</time>
      </trkpt>
      <trkpt lat="45.06675" lon="5.53726">
        <ele>1068.2</ele>
        <time>2015-10-17T15:16:25Z</time>
      </trkpt>
      <trkpt lat="45.06801" lon="5.53805">
        <ele>1057.1</ele>
        <time>2015-10-17T15:16:31Z</time>
      </trkpt>
      <trkpt lat="45.06952" lon="5.53923">
        <ele>1044.6</ele>
        <time>2015-10-17T15:16:38Z</time>
      </trkpt>
      <trkpt lat="45.07043" lon="5.53975">
        <ele>1038.4</ele>
        <time>2015-10-17T15:16:43Z</time>
      </trkpt>
      <trkpt lat="45.07057" lon="5.5399">
        <ele>1036.9</ele>
        <time>2015-10-17T15:16:44Z</time>
      </trkpt>
      <trkpt lat="45.07069" lon="5.54008">
        <ele>1036</ele>
        <time>2015-10-17T15:16:45Z</time>
      </trkpt>
      <trkpt lat="45.07113" lon="5.54091">
        <ele>1029.7</ele>
        <time>2015-10-17T15:16:49Z</time>
      </trkpt>
      <trkpt lat="45.0712" lon="5.54115">
        <ele>1027.8</ele>
        <time>2015-10-17T15:16:50Z</time>
      </trkpt>
      <trkpt lat="45.07134" lon="5.54163">
        <ele>1024.4</ele>
        <time>2015-10-17T15:16:52Z</time>
      </trkpt>
      <trkpt lat="45.07182" lon="5.54288">
        <ele>1019.1</ele>
        <time>2015-10-17T15:16:59Z</time>
      </trkpt>
      <trkpt lat="45.0719" lon="5.54319">
        <ele>1017.7</ele>
        <time>2015-10-17T15:17:02Z</time>
      </trkpt>
      <trkpt lat="45.0719" lon="5.54328">
        <ele>1017.7</ele>
        <time>2015-10-17T15:17:03Z</time>
      </trkpt>
      <trkpt lat="45.0719" lon="5.54337">
        <ele>1017.7</ele>
        <time>2015-10-17T15:17:04Z</time>
      </trkpt>
      <trkpt lat="45.07189" lon="5.54346">
        <ele>1017.7</ele>
        <time>2015-10-17T15:17:05Z</time>
      </trkpt>
      <trkpt lat="45.07187" lon="5.54356">
        <ele>1017.2</ele>
        <time>2015-10-17T15:17:06Z</time>
      </trkpt>
      <trkpt lat="45.07184" lon="5.54366">
        <ele>1017.2</ele>
        <time>2015-10-17T15:17:07Z</time>
      </trkpt>
      <trkpt lat="45.07179" lon="5.54376">
        <ele>1017.2</ele>
        <time>2015-10-17T15:17:08Z</time>
      </trkpt>
      <trkpt lat="45.07114" lon="5.54472">
        <ele>1012.9</ele>
        <time>2015-10-17T15:17:19Z</time>
      </trkpt>
      <trkpt lat="45.07106" lon="5.54478">
        <ele>1011.9</ele>
        <time>2015-10-17T15:17:20Z</time>
      </trkpt>
      <trkpt lat="45.07096" lon="5.54483">
        <ele>1011</ele>
        <time>2015-10-17T15:17:21Z</time>
      </trkpt>
      <trkpt lat="45.07086" lon="5.54487">
        <ele>1010</ele>
        <time>2015-10-17T15:17:22Z</time>
      </trkpt>
      <trkpt lat="45.07076" lon="5.54491">
        <ele>1009</ele>
        <time>2015-10-17T15:17:23Z</time>
      </trkpt>
      <trkpt lat="45.07013" lon="5.54507">
        <ele>1003.3</ele>
        <time>2015-10-17T15:17:29Z</time>
      </trkpt>
      <trkpt lat="45.07001" lon="5.54506">
        <ele>1001.8</ele>
        <time>2015-10-17T15:17:30Z</time>
      </trkpt>
      <trkpt lat="45.06864" lon="5.545">
        <ele>989.8</ele>
        <time>2015-10-17T15:17:40Z</time>
      </trkpt>
      <trkpt lat="45.06763" lon="5.54553">
        <ele>982.1</ele>
        <time>2015-10-17T15:17:49Z</time>
      </trkpt>
      <trkpt lat="45.06742" lon="5.54566">
        <ele>980.2</ele>
        <time>2015-10-17T15:17:52Z</time>
      </trkpt>
      <trkpt lat="45.06735" lon="5.54568">
        <ele>979.7</ele>
        <time>2015-10-17T15:17:53Z</time>
      </trkpt>
      <trkpt lat="45.06723" lon="5.54572">
        <ele>979.2</ele>
        <time>2015-10-17T15:17:55Z</time>
      </trkpt>
      <trkpt lat="45.06718" lon="5.54576">
        <ele>978.8</ele>
        <time>2015-10-17T15:17:56Z</time>
      </trkpt>
      <trkpt lat="45.06714" lon="5.54582">
        <ele>978.8</ele>
        <time>2015-10-17T15:17:57Z</time>
      </trkpt>
      <trkpt lat="45.06712" lon="5.5459">
        <ele>978.8</ele>
        <time>2015-10-17T15:17:58Z</time>
      </trkpt>
      <trkpt lat="45.0671" lon="5.54598">
        <ele>978.8</ele>
        <time>2015-10-17T15:17:59Z</time>
      </trkpt>
      <trkpt lat="45.0671" lon="5.54606">
        <ele>978.8</ele>
        <time>2015-10-17T15:18:00Z</time>
      </trkpt>
      <trkpt lat="45.06712" lon="5.54613">
        <ele>979.2</ele>
        <time>2015-10-17T15:18:01Z</time>
      </trkpt>
      <trkpt lat="45.06716" lon="5.54617">
        <ele>978.8</ele>
        <time>2015-10-17T15:18:02Z</time>
      </trkpt>
      <trkpt lat="45.06721" lon="5.54617">
        <ele>978.8</ele>
        <time>2015-10-17T15:18:03Z</time>
      </trkpt>
      <trkpt lat="45.06725" lon="5.54614">
        <ele>978.8</ele>
        <time>2015-10-17T15:18:04Z</time>
      </trkpt>
      <trkpt lat="45.06728" lon="5.54608">
        <ele>978.3</ele>
        <time>2015-10-17T15:18:05Z</time>
      </trkpt>
      <trkpt lat="45.06733" lon="5.54601">
        <ele>977.8</ele>
        <time>2015-10-17T15:18:06Z</time>
      </trkpt>
      <trkpt lat="45.06738" lon="5.54595">
        <ele>977.8</ele>
        <time>2015-10-17T15:18:07Z</time>
      </trkpt>
      <trkpt lat="45.06745" lon="5.54589">
        <ele>977.3</ele>
        <time>2015-10-17T15:18:08Z</time>
      </trkpt>
      <trkpt lat="45.06758" lon="5.54578">
        <ele>977.3</ele>
        <time>2015-10-17T15:18:10Z</time>
      </trkpt>
      <trkpt lat="45.06763" lon="5.54575">
        <ele>977.3</ele>
        <time>2015-10-17T15:18:11Z</time>
      </trkpt>
      <trkpt lat="45.06768" lon="5.54573">
        <ele>977.3</ele>
        <time>2015-10-17T15:18:12Z</time>
      </trkpt>
      <trkpt lat="45.06773" lon="5.54572">
        <ele>977.3</ele>
        <time>2015-10-17T15:18:13Z</time>
      </trkpt>
      <trkpt lat="45.06776" lon="5.5457">
        <ele>977.3</ele>
        <time>2015-10-17T15:18:14Z</time>
      </trkpt>
      <trkpt lat="45.06777" lon="5.54568">
        <ele>977.3</ele>
        <time>2015-10-17T15:18:15Z</time>
      </trkpt>
      <trkpt lat="45.06779" lon="5.54566">
        <ele>978.8</ele>
        <time>2015-10-17T15:18:30Z</time>
      </trkpt>
      <trkpt lat="45.06783" lon="5.54561">
        <ele>978.3</ele>
        <time>2015-10-17T15:18:53Z</time>
      </trkpt>
      <trkpt lat="45.06789" lon="5.54557">
        <ele>978.3</ele>
        <time>2015-10-17T15:18:54Z</time>
      </trkpt>
      <trkpt lat="45.06854" lon="5.54531">
        <ele>977.8</ele>
        <time>2015-10-17T15:19:00Z</time>
      </trkpt>
      <trkpt lat="45.06964" lon="5.54538">
        <ele>974.9</ele>
        <time>2015-10-17T15:19:07Z</time>
      </trkpt>
      <trkpt lat="45.07116" lon="5.54592">
        <ele>970.6</ele>
        <time>2015-10-17T15:19:18Z</time>
      </trkpt>
      <trkpt lat="45.07225" lon="5.54632">
        <ele>968.7</ele>
        <time>2015-10-17T15:19:25Z</time>
      </trkpt>
      <trkpt lat="45.07331" lon="5.54673">
        <ele>967.7</ele>
        <time>2015-10-17T15:19:33Z</time>
      </trkpt>
      <trkpt lat="45.0734" lon="5.5468">
        <ele>967.7</ele>
        <time>2015-10-17T15:19:34Z</time>
      </trkpt>
      <trkpt lat="45.07348" lon="5.54689">
        <ele>967.7</ele>
        <time>2015-10-17T15:19:35Z</time>
      </trkpt>
      <trkpt lat="45.07354" lon="5.54698">
        <ele>967.7</ele>
        <time>2015-10-17T15:19:36Z</time>
      </trkpt>
      <trkpt lat="45.0736" lon="5.54705">
        <ele>968.2</ele>
        <time>2015-10-17T15:19:37Z</time>
      </trkpt>
      <trkpt lat="45.07366" lon="5.5471">
        <ele>968.2</ele>
        <time>2015-10-17T15:19:38Z</time>
      </trkpt>
      <trkpt lat="45.07372" lon="5.54709">
        <ele>968.2</ele>
        <time>2015-10-17T15:19:39Z</time>
      </trkpt>
      <trkpt lat="45.07377" lon="5.54704">
        <ele>968.2</ele>
        <time>2015-10-17T15:19:40Z</time>
      </trkpt>
      <trkpt lat="45.07381" lon="5.54694">
        <ele>967.7</ele>
        <time>2015-10-17T15:19:41Z</time>
      </trkpt>
      <trkpt lat="45.07383" lon="5.54681">
        <ele>967.2</ele>
        <time>2015-10-17T15:19:42Z</time>
      </trkpt>
      <trkpt lat="45.07386" lon="5.54667">
        <ele>967.2</ele>
        <time>2015-10-17T15:19:43Z</time>
      </trkpt>
      <trkpt lat="45.07397" lon="5.54604">
        <ele>967.2</ele>
        <time>2015-10-17T15:19:47Z</time>
      </trkpt>
      <trkpt lat="45.07397" lon="5.54588">
        <ele>966.7</ele>
        <time>2015-10-17T15:19:48Z</time>
      </trkpt>
      <trkpt lat="45.07394" lon="5.5457">
        <ele>966.3</ele>
        <time>2015-10-17T15:19:49Z</time>
      </trkpt>
      <trkpt lat="45.07381" lon="5.54515">
        <ele>965.3</ele>
        <time>2015-10-17T15:19:52Z</time>
      </trkpt>
      <trkpt lat="45.07373" lon="5.54498">
        <ele>964.8</ele>
        <time>2015-10-17T15:19:53Z</time>
      </trkpt>
      <trkpt lat="45.07363" lon="5.5448">
        <ele>964.8</ele>
        <time>2015-10-17T15:19:54Z</time>
      </trkpt>
      <trkpt lat="45.07351" lon="5.54464">
        <ele>964.8</ele>
        <time>2015-10-17T15:19:55Z</time>
      </trkpt>
      <trkpt lat="45.0734" lon="5.54449">
        <ele>964.8</ele>
        <time>2015-10-17T15:19:56Z</time>
      </trkpt>
      <trkpt lat="45.07321" lon="5.54422">
        <ele>964.8</ele>
        <time>2015-10-17T15:19:58Z</time>
      </trkpt>
      <trkpt lat="45.07315" lon="5.54408">
        <ele>965.3</ele>
        <time>2015-10-17T15:19:59Z</time>
      </trkpt>
      <trkpt lat="45.0731" lon="5.54392">
        <ele>964.3</ele>
        <time>2015-10-17T15:20:00Z</time>
      </trkpt>
      <trkpt lat="45.07311" lon="5.54376">
        <ele>964.3</ele>
        <time>2015-10-17T15:20:01Z</time>
      </trkpt>
      <trkpt lat="45.07316" lon="5.54364">
        <ele>964.3</ele>
        <time>2015-10-17T15:20:02Z</time>
      </trkpt>
      <trkpt lat="45.07327" lon="5.54352">
        <ele>964.8</ele>
        <time>2015-10-17T15:20:03Z</time>
      </trkpt>
      <trkpt lat="45.07338" lon="5.54342">
        <ele>964.8</ele>
        <time>2015-10-17T15:20:04Z</time>
      </trkpt>
      <trkpt lat="45.07349" lon="5.54329">
        <ele>964.3</ele>
        <time>2015-10-17T15:20:05Z</time>
      </trkpt>
      <trkpt lat="45.07361" lon="5.54313">
        <ele>962.9</ele>
        <time>2015-10-17T15:20:06Z</time>
      </trkpt>
      <trkpt lat="45.0737" lon="5.54293">
        <ele>962.4</ele>
        <time>2015-10-17T15:20:07Z</time>
      </trkpt>
      <trkpt lat="45.07377" lon="5.54271">
        <ele>962.4</ele>
        <time>2015-10-17T15:20:08Z</time>
      </trkpt>
      <trkpt lat="45.07382" lon="5.54247">
        <ele>961.9</ele>
        <time>2015-10-17T15:20:09Z</time>
      </trkpt>
      <trkpt lat="45.07388" lon="5.54224">
        <ele>961.5</ele>
        <time>2015-10-17T15:20:10Z</time>
      </trkpt>
      <trkpt lat="45.07405" lon="5.54159">
        <ele>959.5</ele>
        <time>2015-10-17T15:20:13Z</time>
      </trkpt>
      <trkpt lat="45.07408" lon="5.54138">
        <ele>959.1</ele>
        <time>2015-10-17T15:20:14Z</time>
      </trkpt>
      <trkpt lat="45.07406" lon="5.54118">
        <ele>958.6</ele>
        <time>2015-10-17T15:20:15Z</time>
      </trkpt>
      <trkpt lat="45.07401" lon="5.54101">
        <ele>957.6</ele>
        <time>2015-10-17T15:20:16Z</time>
      </trkpt>
      <trkpt lat="45.07391" lon="5.54087">
        <ele>956.7</ele>
        <time>2015-10-17T15:20:17Z</time>
      </trkpt>
      <trkpt lat="45.07379" lon="5.54076">
        <ele>956.2</ele>
        <time>2015-10-17T15:20:18Z</time>
      </trkpt>
      <trkpt lat="45.07366" lon="5.5407">
        <ele>955.2</ele>
        <time>2015-10-17T15:20:19Z</time>
      </trkpt>
      <trkpt lat="45.07353" lon="5.54067">
        <ele>954.7</ele>
        <time>2015-10-17T15:20:20Z</time>
      </trkpt>
      <trkpt lat="45.07341" lon="5.54064">
        <ele>954.7</ele>
        <time>2015-10-17T15:20:21Z</time>
      </trkpt>
      <trkpt lat="45.07331" lon="5.54059">
        <ele>954.7</ele>
        <time>2015-10-17T15:20:22Z</time>
      </trkpt>
      <trkpt lat="45.07323" lon="5.54049">
        <ele>953.8</ele>
        <time>2015-10-17T15:20:23Z</time>
      </trkpt>
      <trkpt lat="45.07321" lon="5.54037">
        <ele>952.8</ele>
        <time>2015-10-17T15:20:24Z</time>
      </trkpt>
      <trkpt lat="45.07324" lon="5.54025">
        <ele>952.8</ele>
        <time>2015-10-17T15:20:25Z</time>
      </trkpt>
      <trkpt lat="45.07333" lon="5.54016">
        <ele>953.3</ele>
        <time>2015-10-17T15:20:26Z</time>
      </trkpt>
      <trkpt lat="45.07343" lon="5.54008">
        <ele>954.7</ele>
        <time>2015-10-17T15:20:27Z</time>
      </trkpt>
      <trkpt lat="45.07356" lon="5.53999">
        <ele>954.7</ele>
        <time>2015-10-17T15:20:28Z</time>
      </trkpt>
      <trkpt lat="45.07372" lon="5.5399">
        <ele>954.3</ele>
        <time>2015-10-17T15:20:29Z</time>
      </trkpt>
      <trkpt lat="45.07387" lon="5.53979">
        <ele>953.8</ele>
        <time>2015-10-17T15:20:30Z</time>
      </trkpt>
      <trkpt lat="45.07557" lon="5.53858">
        <ele>950.9</ele>
        <time>2015-10-17T15:20:40Z</time>
      </trkpt>
      <trkpt lat="45.076" lon="5.53819">
        <ele>950.4</ele>
        <time>2015-10-17T15:20:43Z</time>
      </trkpt>
      <trkpt lat="45.0761" lon="5.538">
        <ele>950.4</ele>
        <time>2015-10-17T15:20:44Z</time>
      </trkpt>
      <trkpt lat="45.07617" lon="5.53779">
        <ele>950.4</ele>
        <time>2015-10-17T15:20:45Z</time>
      </trkpt>
      <trkpt lat="45.07629" lon="5.53736">
        <ele>950.4</ele>
        <time>2015-10-17T15:20:47Z</time>
      </trkpt>
      <trkpt lat="45.07638" lon="5.53717">
        <ele>950.4</ele>
        <time>2015-10-17T15:20:48Z</time>
      </trkpt>
      <trkpt lat="45.0765" lon="5.53704">
        <ele>949.9</ele>
        <time>2015-10-17T15:20:49Z</time>
      </trkpt>
      <trkpt lat="45.07665" lon="5.53697">
        <ele>949.9</ele>
        <time>2015-10-17T15:20:50Z</time>
      </trkpt>
      <trkpt lat="45.07681" lon="5.53694">
        <ele>950.4</ele>
        <time>2015-10-17T15:20:51Z</time>
      </trkpt>
      <trkpt lat="45.077" lon="5.53693">
        <ele>950.9</ele>
        <time>2015-10-17T15:20:52Z</time>
      </trkpt>
      <trkpt lat="45.07719" lon="5.53692">
        <ele>950.9</ele>
        <time>2015-10-17T15:20:53Z</time>
      </trkpt>
      <trkpt lat="45.07776" lon="5.53685">
        <ele>949.9</ele>
        <time>2015-10-17T15:20:56Z</time>
      </trkpt>
      <trkpt lat="45.07793" lon="5.53679">
        <ele>949.9</ele>
        <time>2015-10-17T15:20:57Z</time>
      </trkpt>
      <trkpt lat="45.07809" lon="5.53667">
        <ele>949</ele>
        <time>2015-10-17T15:20:58Z</time>
      </trkpt>
      <trkpt lat="45.07822" lon="5.53649">
        <ele>948.5</ele>
        <time>2015-10-17T15:20:59Z</time>
      </trkpt>
      <trkpt lat="45.07833" lon="5.53629">
        <ele>947.5</ele>
        <time>2015-10-17T15:21:00Z</time>
      </trkpt>
      <trkpt lat="45.07841" lon="5.53601">
        <ele>949.9</ele>
        <time>2015-10-17T15:21:01Z</time>
      </trkpt>
      <trkpt lat="45.07852" lon="5.53578">
        <ele>949.4</ele>
        <time>2015-10-17T15:21:02Z</time>
      </trkpt>
      <trkpt lat="45.07864" lon="5.53556">
        <ele>949</ele>
        <time>2015-10-17T15:21:03Z</time>
      </trkpt>
      <trkpt lat="45.07959" lon="5.53422">
        <ele>946.6</ele>
        <time>2015-10-17T15:21:10Z</time>
      </trkpt>
      <trkpt lat="45.07977" lon="5.53407">
        <ele>946.1</ele>
        <time>2015-10-17T15:21:11Z</time>
      </trkpt>
      <trkpt lat="45.08161" lon="5.53294">
        <ele>942.2</ele>
        <time>2015-10-17T15:21:20Z</time>
      </trkpt>
      <trkpt lat="45.08312" lon="5.53176">
        <ele>939.8</ele>
        <time>2015-10-17T15:21:28Z</time>
      </trkpt>
      <trkpt lat="45.0843" lon="5.53053">
        <ele>937.9</ele>
        <time>2015-10-17T15:21:35Z</time>
      </trkpt>
      <trkpt lat="45.08441" lon="5.53033">
        <ele>937.4</ele>
        <time>2015-10-17T15:21:36Z</time>
      </trkpt>
      <trkpt lat="45.08451" lon="5.53011">
        <ele>937.9</ele>
        <time>2015-10-17T15:21:37Z</time>
      </trkpt>
      <trkpt lat="45.08459" lon="5.52987">
        <ele>937.9</ele>
        <time>2015-10-17T15:21:38Z</time>
      </trkpt>
      <trkpt lat="45.08464" lon="5.52962">
        <ele>937.9</ele>
        <time>2015-10-17T15:21:39Z</time>
      </trkpt>
      <trkpt lat="45.08467" lon="5.5294">
        <ele>937.4</ele>
        <time>2015-10-17T15:21:40Z</time>
      </trkpt>
      <trkpt lat="45.08469" lon="5.52922">
        <ele>937.4</ele>
        <time>2015-10-17T15:21:41Z</time>
      </trkpt>
      <trkpt lat="45.0847" lon="5.52883">
        <ele>938.9</ele>
        <time>2015-10-17T15:21:46Z</time>
      </trkpt>
      <trkpt lat="45.08469" lon="5.52868">
        <ele>939.4</ele>
        <time>2015-10-17T15:21:48Z</time>
      </trkpt>
      <trkpt lat="45.08471" lon="5.52855">
        <ele>939.4</ele>
        <time>2015-10-17T15:21:49Z</time>
      </trkpt>
      <trkpt lat="45.08473" lon="5.5284">
        <ele>939.8</ele>
        <time>2015-10-17T15:21:50Z</time>
      </trkpt>
      <trkpt lat="45.08504" lon="5.52698">
        <ele>939.4</ele>
        <time>2015-10-17T15:21:57Z</time>
      </trkpt>
      <trkpt lat="45.08552" lon="5.52504">
        <ele>937.4</ele>
        <time>2015-10-17T15:22:07Z</time>
      </trkpt>
      <trkpt lat="45.0857" lon="5.52443">
        <ele>936.9</ele>
        <time>2015-10-17T15:22:11Z</time>
      </trkpt>
      <trkpt lat="45.08576" lon="5.52431">
        <ele>937.4</ele>
        <time>2015-10-17T15:22:12Z</time>
      </trkpt>
      <trkpt lat="45.08581" lon="5.52419">
        <ele>937.4</ele>
        <time>2015-10-17T15:22:13Z</time>
      </trkpt>
      <trkpt lat="45.08583" lon="5.52406">
        <ele>937.4</ele>
        <time>2015-10-17T15:22:14Z</time>
      </trkpt>
      <trkpt lat="45.08585" lon="5.52391">
        <ele>937.4</ele>
        <time>2015-10-17T15:22:15Z</time>
      </trkpt>
      <trkpt lat="45.08586" lon="5.52374">
        <ele>937.9</ele>
        <time>2015-10-17T15:22:16Z</time>
      </trkpt>
      <trkpt lat="45.0859" lon="5.52356">
        <ele>937.9</ele>
        <time>2015-10-17T15:22:17Z</time>
      </trkpt>
      <trkpt lat="45.08594" lon="5.52336">
        <ele>938.4</ele>
        <time>2015-10-17T15:22:18Z</time>
      </trkpt>
      <trkpt lat="45.08606" lon="5.52281">
        <ele>938.9</ele>
        <time>2015-10-17T15:22:21Z</time>
      </trkpt>
      <trkpt lat="45.08604" lon="5.52263">
        <ele>938.9</ele>
        <time>2015-10-17T15:22:22Z</time>
      </trkpt>
      <trkpt lat="45.08598" lon="5.52246">
        <ele>938.4</ele>
        <time>2015-10-17T15:22:23Z</time>
      </trkpt>
      <trkpt lat="45.08589" lon="5.5223">
        <ele>938.4</ele>
        <time>2015-10-17T15:22:24Z</time>
      </trkpt>
      <trkpt lat="45.08576" lon="5.52214">
        <ele>938.9</ele>
        <time>2015-10-17T15:22:25Z</time>
      </trkpt>
      <trkpt lat="45.08563" lon="5.52198">
        <ele>939.4</ele>
        <time>2015-10-17T15:22:26Z</time>
      </trkpt>
      <trkpt lat="45.0854" lon="5.52165">
        <ele>939.4</ele>
        <time>2015-10-17T15:22:28Z</time>
      </trkpt>
      <trkpt lat="45.08531" lon="5.52147">
        <ele>939.4</ele>
        <time>2015-10-17T15:22:29Z</time>
      </trkpt>
      <trkpt lat="45.08513" lon="5.52112">
        <ele>939.4</ele>
        <time>2015-10-17T15:22:31Z</time>
      </trkpt>
      <trkpt lat="45.08458" lon="5.52026">
        <ele>938.9</ele>
        <time>2015-10-17T15:22:37Z</time>
      </trkpt>
      <trkpt lat="45.08448" lon="5.52018">
        <ele>938.4</ele>
        <time>2015-10-17T15:22:38Z</time>
      </trkpt>
      <trkpt lat="45.08438" lon="5.52015">
        <ele>937.9</ele>
        <time>2015-10-17T15:22:39Z</time>
      </trkpt>
      <trkpt lat="45.08428" lon="5.52014">
        <ele>936.9</ele>
        <time>2015-10-17T15:22:40Z</time>
      </trkpt>
      <trkpt lat="45.08417" lon="5.52015">
        <ele>936.5</ele>
        <time>2015-10-17T15:22:41Z</time>
      </trkpt>
      <trkpt lat="45.08406" lon="5.52015">
        <ele>936.5</ele>
        <time>2015-10-17T15:22:42Z</time>
      </trkpt>
      <trkpt lat="45.08394" lon="5.52012">
        <ele>936.5</ele>
        <time>2015-10-17T15:22:43Z</time>
      </trkpt>
      <trkpt lat="45.08379" lon="5.52006">
        <ele>936</ele>
        <time>2015-10-17T15:22:44Z</time>
      </trkpt>
      <trkpt lat="45.08333" lon="5.51994">
        <ele>937.4</ele>
        <time>2015-10-17T15:22:47Z</time>
      </trkpt>
      <trkpt lat="45.08317" lon="5.51994">
        <ele>937.9</ele>
        <time>2015-10-17T15:22:48Z</time>
      </trkpt>
      <trkpt lat="45.08302" lon="5.51997">
        <ele>938.4</ele>
        <time>2015-10-17T15:22:49Z</time>
      </trkpt>
      <trkpt lat="45.08287" lon="5.52004">
        <ele>938.4</ele>
        <time>2015-10-17T15:22:50Z</time>
      </trkpt>
      <trkpt lat="45.08276" lon="5.52013">
        <ele>937.9</ele>
        <time>2015-10-17T15:22:51Z</time>
      </trkpt>
      <trkpt lat="45.08264" lon="5.52018">
        <ele>937.9</ele>
        <time>2015-10-17T15:22:52Z</time>
      </trkpt>
      <trkpt lat="45.08238" lon="5.5204">
        <ele>941.8</ele>
        <time>2015-10-17T15:22:55Z</time>
      </trkpt>
      <trkpt lat="45.08233" lon="5.52048">
        <ele>939.8</ele>
        <time>2015-10-17T15:22:56Z</time>
      </trkpt>
      <trkpt lat="45.08232" lon="5.52064">
        <ele>944.2</ele>
        <time>2015-10-17T15:22:57Z</time>
      </trkpt>
      <trkpt lat="45.08221" lon="5.52092">
        <ele>947</ele>
        <time>2015-10-17T15:22:59Z</time>
      </trkpt>
      <trkpt lat="45.082" lon="5.52138">
        <ele>954.3</ele>
        <time>2015-10-17T15:23:02Z</time>
      </trkpt>
      <trkpt lat="45.08193" lon="5.52149">
        <ele>957.6</ele>
        <time>2015-10-17T15:23:03Z</time>
      </trkpt>
      <trkpt lat="45.08183" lon="5.52156">
        <ele>959.5</ele>
        <time>2015-10-17T15:23:04Z</time>
      </trkpt>
      <trkpt lat="45.08173" lon="5.52159">
        <ele>958.6</ele>
        <time>2015-10-17T15:23:05Z</time>
      </trkpt>
      <trkpt lat="45.08162" lon="5.52152">
        <ele>962.9</ele>
        <time>2015-10-17T15:23:06Z</time>
      </trkpt>
      <trkpt lat="45.08152" lon="5.52147">
        <ele>966.3</ele>
        <time>2015-10-17T15:23:07Z</time>
      </trkpt>
      <trkpt lat="45.08144" lon="5.52143">
        <ele>969.2</ele>
        <time>2015-10-17T15:23:08Z</time>
      </trkpt>
      <trkpt lat="45.08137" lon="5.52139">
        <ele>973.5</ele>
        <time>2015-10-17T15:23:09Z</time>
      </trkpt>
      <trkpt lat="45.0813" lon="5.5214">
        <ele>974.4</ele>
        <time>2015-10-17T15:23:10Z</time>
      </trkpt>
      <trkpt lat="45.08115" lon="5.52141">
        <ele>974.4</ele>
        <time>2015-10-17T15:23:12Z</time>
      </trkpt>
      <trkpt lat="45.08107" lon="5.52145">
        <ele>975.4</ele>
        <time>2015-10-17T15:23:13Z</time>
      </trkpt>
      <trkpt lat="45.08098" lon="5.52151">
        <ele>975.9</ele>
        <time>2015-10-17T15:23:14Z</time>
      </trkpt>
      <trkpt lat="45.08089" lon="5.52159">
        <ele>975.9</ele>
        <time>2015-10-17T15:23:15Z</time>
      </trkpt>
      <trkpt lat="45.08078" lon="5.52163">
        <ele>977.8</ele>
        <time>2015-10-17T15:23:16Z</time>
      </trkpt>
      <trkpt lat="45.08066" lon="5.52167">
        <ele>979.7</ele>
        <time>2015-10-17T15:23:17Z</time>
      </trkpt>
      <trkpt lat="45.07998" lon="5.52197">
        <ele>990.3</ele>
        <time>2015-10-17T15:23:23Z</time>
      </trkpt>
      <trkpt lat="45.07987" lon="5.522">
        <ele>991.3</ele>
        <time>2015-10-17T15:23:24Z</time>
      </trkpt>
      <trkpt lat="45.07975" lon="5.52199">
        <ele>992.2</ele>
        <time>2015-10-17T15:23:25Z</time>
      </trkpt>
      <trkpt lat="45.07968" lon="5.52193">
        <ele>993.7</ele>
        <time>2015-10-17T15:23:26Z</time>
      </trkpt>
      <trkpt lat="45.07958" lon="5.52186">
        <ele>990.3</ele>
        <time>2015-10-17T15:23:27Z</time>
      </trkpt>
      <trkpt lat="45.07948" lon="5.52176">
        <ele>986.5</ele>
        <time>2015-10-17T15:23:28Z</time>
      </trkpt>
      <trkpt lat="45.07938" lon="5.52164">
        <ele>982.1</ele>
        <time>2015-10-17T15:23:29Z</time>
      </trkpt>
      <trkpt lat="45.07889" lon="5.52133">
        <ele>973.5</ele>
        <time>2015-10-17T15:23:33Z</time>
      </trkpt>
      <trkpt lat="45.07876" lon="5.52129">
        <ele>971.6</ele>
        <time>2015-10-17T15:23:34Z</time>
      </trkpt>
      <trkpt lat="45.07862" lon="5.52128">
        <ele>970.1</ele>
        <time>2015-10-17T15:23:35Z</time>
      </trkpt>
      <trkpt lat="45.07796" lon="5.52113">
        <ele>955.2</ele>
        <time>2015-10-17T15:23:40Z</time>
      </trkpt>
      <trkpt lat="45.07784" lon="5.52108">
        <ele>953.8</ele>
        <time>2015-10-17T15:23:41Z</time>
      </trkpt>
      <trkpt lat="45.07759" lon="5.521">
        <ele>951.8</ele>
        <time>2015-10-17T15:23:43Z</time>
      </trkpt>
      <trkpt lat="45.07746" lon="5.52098">
        <ele>952.8</ele>
        <time>2015-10-17T15:23:44Z</time>
      </trkpt>
      <trkpt lat="45.07733" lon="5.52098">
        <ele>954.3</ele>
        <time>2015-10-17T15:23:45Z</time>
      </trkpt>
      <trkpt lat="45.0772" lon="5.52101">
        <ele>953.8</ele>
        <time>2015-10-17T15:23:46Z</time>
      </trkpt>
      <trkpt lat="45.07708" lon="5.52108">
        <ele>952.8</ele>
        <time>2015-10-17T15:23:47Z</time>
      </trkpt>
      <trkpt lat="45.07696" lon="5.52114">
        <ele>952.3</ele>
        <time>2015-10-17T15:23:48Z</time>
      </trkpt>
      <trkpt lat="45.07622" lon="5.52148">
        <ele>949.9</ele>
        <time>2015-10-17T15:23:55Z</time>
      </trkpt>
      <trkpt lat="45.07607" lon="5.52156">
        <ele>947</ele>
        <time>2015-10-17T15:23:57Z</time>
      </trkpt>
      <trkpt lat="45.07587" lon="5.52154">
        <ele>950.9</ele>
        <time>2015-10-17T15:23:59Z</time>
      </trkpt>
      <trkpt lat="45.07578" lon="5.52153">
        <ele>949.4</ele>
        <time>2015-10-17T15:24:00Z</time>
      </trkpt>
      <trkpt lat="45.07572" lon="5.52151">
        <ele>948.5</ele>
        <time>2015-10-17T15:24:01Z</time>
      </trkpt>
      <trkpt lat="45.07561" lon="5.5215">
        <ele>950.4</ele>
        <time>2015-10-17T15:24:02Z</time>
      </trkpt>
      <trkpt lat="45.07551" lon="5.5215">
        <ele>954.3</ele>
        <time>2015-10-17T15:24:03Z</time>
      </trkpt>
      <trkpt lat="45.07543" lon="5.5214">
        <ele>951.4</ele>
        <time>2015-10-17T15:24:04Z</time>
      </trkpt>
      <trkpt lat="45.07534" lon="5.52132">
        <ele>952.3</ele>
        <time>2015-10-17T15:24:05Z</time>
      </trkpt>
      <trkpt lat="45.07525" lon="5.52124">
        <ele>951.4</ele>
        <time>2015-10-17T15:24:06Z</time>
      </trkpt>
      <trkpt lat="45.07505" lon="5.52113">
        <ele>953.8</ele>
        <time>2015-10-17T15:24:08Z</time>
      </trkpt>
      <trkpt lat="45.07497" lon="5.52103">
        <ele>947.5</ele>
        <time>2015-10-17T15:24:09Z</time>
      </trkpt>
      <trkpt lat="45.07493" lon="5.52089">
        <ele>945.1</ele>
        <time>2015-10-17T15:24:10Z</time>
      </trkpt>
      <trkpt lat="45.0748" lon="5.5207">
        <ele>935.5</ele>
        <time>2015-10-17T15:24:12Z</time>
      </trkpt>
      <trkpt lat="45.07474" lon="5.52062">
        <ele>935</ele>
        <time>2015-10-17T15:24:13Z</time>
      </trkpt>
      <trkpt lat="45.07466" lon="5.52054">
        <ele>935</ele>
        <time>2015-10-17T15:24:14Z</time>
      </trkpt>
      <trkpt lat="45.07449" lon="5.52045">
        <ele>933.1</ele>
        <time>2015-10-17T15:24:16Z</time>
      </trkpt>
      <trkpt lat="45.07438" lon="5.52044">
        <ele>935.5</ele>
        <time>2015-10-17T15:24:17Z</time>
      </trkpt>
      <trkpt lat="45.07427" lon="5.52045">
        <ele>938.4</ele>
        <time>2015-10-17T15:24:18Z</time>
      </trkpt>
      <trkpt lat="45.07416" lon="5.52049">
        <ele>936</ele>
        <time>2015-10-17T15:24:19Z</time>
      </trkpt>
      <trkpt lat="45.07403" lon="5.52059">
        <ele>937.9</ele>
        <time>2015-10-17T15:24:20Z</time>
      </trkpt>
      <trkpt lat="45.07391" lon="5.52067">
        <ele>937.9</ele>
        <time>2015-10-17T15:24:21Z</time>
      </trkpt>
      <trkpt lat="45.07316" lon="5.52076">
        <ele>938.4</ele>
        <time>2015-10-17T15:24:27Z</time>
      </trkpt>
      <trkpt lat="45.07258" lon="5.52069">
        <ele>949</ele>
        <time>2015-10-17T15:24:32Z</time>
      </trkpt>
      <trkpt lat="45.07236" lon="5.52067">
        <ele>951.8</ele>
        <time>2015-10-17T15:24:34Z</time>
      </trkpt>
      <trkpt lat="45.07176" lon="5.52057">
        <ele>955.7</ele>
        <time>2015-10-17T15:24:39Z</time>
      </trkpt>
      <trkpt lat="45.07168" lon="5.52047">
        <ele>954.3</ele>
        <time>2015-10-17T15:24:40Z</time>
      </trkpt>
      <trkpt lat="45.0716" lon="5.52037">
        <ele>953.8</ele>
        <time>2015-10-17T15:24:41Z</time>
      </trkpt>
      <trkpt lat="45.07152" lon="5.52028">
        <ele>953.3</ele>
        <time>2015-10-17T15:24:42Z</time>
      </trkpt>
      <trkpt lat="45.07143" lon="5.52021">
        <ele>955.2</ele>
        <time>2015-10-17T15:24:43Z</time>
      </trkpt>
      <trkpt lat="45.07105" lon="5.51984">
        <ele>956.2</ele>
        <time>2015-10-17T15:24:48Z</time>
      </trkpt>
      <trkpt lat="45.07103" lon="5.51979">
        <ele>955.2</ele>
        <time>2015-10-17T15:24:49Z</time>
      </trkpt>
      <trkpt lat="45.07101" lon="5.51981">
        <ele>951.4</ele>
        <time>2015-10-17T15:24:50Z</time>
      </trkpt>
      <trkpt lat="45.0709" lon="5.51975">
        <ele>953.3</ele>
        <time>2015-10-17T15:24:51Z</time>
      </trkpt>
      <trkpt lat="45.07073" lon="5.51968">
        <ele>950.9</ele>
        <time>2015-10-17T15:24:53Z</time>
      </trkpt>
      <trkpt lat="45.06971" lon="5.51908">
        <ele>921.6</ele>
        <time>2015-10-17T15:25:05Z</time>
      </trkpt>
      <trkpt lat="45.0696" lon="5.51902">
        <ele>913.4</ele>
        <time>2015-10-17T15:25:06Z</time>
      </trkpt>
      <trkpt lat="45.06951" lon="5.51887">
        <ele>906.7</ele>
        <time>2015-10-17T15:25:07Z</time>
      </trkpt>
      <trkpt lat="45.06944" lon="5.51866">
        <ele>900.4</ele>
        <time>2015-10-17T15:25:08Z</time>
      </trkpt>
      <trkpt lat="45.06856" lon="5.51746">
        <ele>863.4</ele>
        <time>2015-10-17T15:25:16Z</time>
      </trkpt>
      <trkpt lat="45.0683" lon="5.51709">
        <ele>856.2</ele>
        <time>2015-10-17T15:25:19Z</time>
      </trkpt>
      <trkpt lat="45.0682" lon="5.51704">
        <ele>853.3</ele>
        <time>2015-10-17T15:25:20Z</time>
      </trkpt>
      <trkpt lat="45.06809" lon="5.51702">
        <ele>850.4</ele>
        <time>2015-10-17T15:25:21Z</time>
      </trkpt>
      <trkpt lat="45.06799" lon="5.51698">
        <ele>847.1</ele>
        <time>2015-10-17T15:25:22Z</time>
      </trkpt>
      <trkpt lat="45.0679" lon="5.51691">
        <ele>844.2</ele>
        <time>2015-10-17T15:25:23Z</time>
      </trkpt>
      <trkpt lat="45.06777" lon="5.51686">
        <ele>839.4</ele>
        <time>2015-10-17T15:25:24Z</time>
      </trkpt>
      <trkpt lat="45.06778" lon="5.51671">
        <ele>838.9</ele>
        <time>2015-10-17T15:25:25Z</time>
      </trkpt>
      <trkpt lat="45.0678" lon="5.51652">
        <ele>838.4</ele>
        <time>2015-10-17T15:25:26Z</time>
      </trkpt>
      <trkpt lat="45.06788" lon="5.51633">
        <ele>838.4</ele>
        <time>2015-10-17T15:25:27Z</time>
      </trkpt>
      <trkpt lat="45.06797" lon="5.51617">
        <ele>838.9</ele>
        <time>2015-10-17T15:25:28Z</time>
      </trkpt>
      <trkpt lat="45.06792" lon="5.51637">
        <ele>870.1</ele>
        <time>2015-10-17T15:25:29Z</time>
      </trkpt>
      <trkpt lat="45.06806" lon="5.51602">
        <ele>890.8</ele>
        <time>2015-10-17T15:25:32Z</time>
      </trkpt>
      <trkpt lat="45.06809" lon="5.51585">
        <ele>894.2</ele>
        <time>2015-10-17T15:25:33Z</time>
      </trkpt>
      <trkpt lat="45.06811" lon="5.51566">
        <ele>895.6</ele>
        <time>2015-10-17T15:25:34Z</time>
      </trkpt>
      <trkpt lat="45.0681" lon="5.51547">
        <ele>898</ele>
        <time>2015-10-17T15:25:35Z</time>
      </trkpt>
      <trkpt lat="45.06809" lon="5.51529">
        <ele>898</ele>
        <time>2015-10-17T15:25:36Z</time>
      </trkpt>
      <trkpt lat="45.06807" lon="5.51509">
        <ele>895.1</ele>
        <time>2015-10-17T15:25:37Z</time>
      </trkpt>
      <trkpt lat="45.06807" lon="5.5149">
        <ele>891.8</ele>
        <time>2015-10-17T15:25:38Z</time>
      </trkpt>
      <trkpt lat="45.06815" lon="5.51448">
        <ele>881.2</ele>
        <time>2015-10-17T15:25:40Z</time>
      </trkpt>
      <trkpt lat="45.06823" lon="5.51426">
        <ele>873.5</ele>
        <time>2015-10-17T15:25:41Z</time>
      </trkpt>
      <trkpt lat="45.06828" lon="5.51403">
        <ele>864.8</ele>
        <time>2015-10-17T15:25:42Z</time>
      </trkpt>
      <trkpt lat="45.06875" lon="5.51252">
        <ele>846.1</ele>
        <time>2015-10-17T15:25:48Z</time>
      </trkpt>
      <trkpt lat="45.0692" lon="5.51098">
        <ele>831.2</ele>
        <time>2015-10-17T15:25:54Z</time>
      </trkpt>
      <trkpt lat="45.0694" lon="5.50997">
        <ele>820.1</ele>
        <time>2015-10-17T15:25:59Z</time>
      </trkpt>
      <trkpt lat="45.06939" lon="5.50975">
        <ele>818.7</ele>
        <time>2015-10-17T15:26:00Z</time>
      </trkpt>
      <trkpt lat="45.06951" lon="5.50829">
        <ele>809.1</ele>
        <time>2015-10-17T15:26:06Z</time>
      </trkpt>
      <trkpt lat="45.06972" lon="5.50729">
        <ele>804.8</ele>
        <time>2015-10-17T15:26:10Z</time>
      </trkpt>
      <trkpt lat="45.0698" lon="5.50709">
        <ele>803.8</ele>
        <time>2015-10-17T15:26:11Z</time>
      </trkpt>
      <trkpt lat="45.0699" lon="5.50688">
        <ele>801.9</ele>
        <time>2015-10-17T15:26:12Z</time>
      </trkpt>
      <trkpt lat="45.06999" lon="5.50667">
        <ele>800.9</ele>
        <time>2015-10-17T15:26:13Z</time>
      </trkpt>
      <trkpt lat="45.07007" lon="5.50646">
        <ele>799.5</ele>
        <time>2015-10-17T15:26:14Z</time>
      </trkpt>
      <trkpt lat="45.07063" lon="5.50542">
        <ele>790.8</ele>
        <time>2015-10-17T15:26:20Z</time>
      </trkpt>
      <trkpt lat="45.07065" lon="5.50521">
        <ele>789.4</ele>
        <time>2015-10-17T15:26:21Z</time>
      </trkpt>
      <trkpt lat="45.07064" lon="5.50501">
        <ele>788.4</ele>
        <time>2015-10-17T15:26:22Z</time>
      </trkpt>
      <trkpt lat="45.0706" lon="5.5048">
        <ele>787</ele>
        <time>2015-10-17T15:26:23Z</time>
      </trkpt>
      <trkpt lat="45.07052" lon="5.50458">
        <ele>785.5</ele>
        <time>2015-10-17T15:26:24Z</time>
      </trkpt>
      <trkpt lat="45.07044" lon="5.50438">
        <ele>784.6</ele>
        <time>2015-10-17T15:26:25Z</time>
      </trkpt>
      <trkpt lat="45.07038" lon="5.50418">
        <ele>784.1</ele>
        <time>2015-10-17T15:26:26Z</time>
      </trkpt>
      <trkpt lat="45.07031" lon="5.50339">
        <ele>780.3</ele>
        <time>2015-10-17T15:26:30Z</time>
      </trkpt>
      <trkpt lat="45.07033" lon="5.5032">
        <ele>779.3</ele>
        <time>2015-10-17T15:26:31Z</time>
      </trkpt>
      <trkpt lat="45.07031" lon="5.50264">
        <ele>776.9</ele>
        <time>2015-10-17T15:26:34Z</time>
      </trkpt>
      <trkpt lat="45.07026" lon="5.50248">
        <ele>775.4</ele>
        <time>2015-10-17T15:26:35Z</time>
      </trkpt>
      <trkpt lat="45.07023" lon="5.50232">
        <ele>774.5</ele>
        <time>2015-10-17T15:26:36Z</time>
      </trkpt>
      <trkpt lat="45.07022" lon="5.50216">
        <ele>773.5</ele>
        <time>2015-10-17T15:26:37Z</time>
      </trkpt>
      <trkpt lat="45.07025" lon="5.502">
        <ele>772.1</ele>
        <time>2015-10-17T15:26:38Z</time>
      </trkpt>
      <trkpt lat="45.07028" lon="5.50185">
        <ele>771.6</ele>
        <time>2015-10-17T15:26:39Z</time>
      </trkpt>
      <trkpt lat="45.07033" lon="5.50167">
        <ele>770.6</ele>
        <time>2015-10-17T15:26:40Z</time>
      </trkpt>
      <trkpt lat="45.0706" lon="5.50072">
        <ele>766.8</ele>
        <time>2015-10-17T15:26:45Z</time>
      </trkpt>
      <trkpt lat="45.07066" lon="5.50022">
        <ele>764.4</ele>
        <time>2015-10-17T15:26:47Z</time>
      </trkpt>
      <trkpt lat="45.07069" lon="5.49948">
        <ele>762.9</ele>
        <time>2015-10-17T15:26:50Z</time>
      </trkpt>
      <trkpt lat="45.07073" lon="5.49926">
        <ele>762.5</ele>
        <time>2015-10-17T15:26:51Z</time>
      </trkpt>
      <trkpt lat="45.07079" lon="5.49904">
        <ele>761.5</ele>
        <time>2015-10-17T15:26:52Z</time>
      </trkpt>
      <trkpt lat="45.07084" lon="5.49881">
        <ele>762.9</ele>
        <time>2015-10-17T15:26:53Z</time>
      </trkpt>
      <trkpt lat="45.0709" lon="5.49858">
        <ele>766.3</ele>
        <time>2015-10-17T15:26:54Z</time>
      </trkpt>
      <trkpt lat="45.07097" lon="5.49836">
        <ele>769.2</ele>
        <time>2015-10-17T15:26:55Z</time>
      </trkpt>
      <trkpt lat="45.07155" lon="5.497">
        <ele>775</ele>
        <time>2015-10-17T15:27:03Z</time>
      </trkpt>
      <trkpt lat="45.07156" lon="5.49695">
        <ele>776.4</ele>
        <time>2015-10-17T15:27:04Z</time>
      </trkpt>
      <trkpt lat="45.07156" lon="5.49691">
        <ele>776.9</ele>
        <time>2015-10-17T15:27:05Z</time>
      </trkpt>
      <trkpt lat="45.07162" lon="5.49683">
        <ele>783.1</ele>
        <time>2015-10-17T15:27:14Z</time>
      </trkpt>
      <trkpt lat="45.07156" lon="5.49674">
        <ele>812.5</ele>
        <time>2015-10-17T15:28:12Z</time>
      </trkpt>
      <trkpt lat="45.07165" lon="5.49674">
        <ele>774</ele>
        <time>2015-10-17T15:28:34Z</time>
      </trkpt>
      <trkpt lat="45.07165" lon="5.49667">
        <ele>772.1</ele>
        <time>2015-10-17T15:28:35Z</time>
      </trkpt>
      <trkpt lat="45.07168" lon="5.49657">
        <ele>771.1</ele>
        <time>2015-10-17T15:28:36Z</time>
      </trkpt>
      <trkpt lat="45.07186" lon="5.49557">
        <ele>776.4</ele>
        <time>2015-10-17T15:28:42Z</time>
      </trkpt>
      <trkpt lat="45.07216" lon="5.49476">
        <ele>747.6</ele>
        <time>2015-10-17T15:28:49Z</time>
      </trkpt>
      <trkpt lat="45.0725" lon="5.49365">
        <ele>727.4</ele>
        <time>2015-10-17T15:28:57Z</time>
      </trkpt>
      <trkpt lat="45.07257" lon="5.49307">
        <ele>728.3</ele>
        <time>2015-10-17T15:29:03Z</time>
      </trkpt>
      <trkpt lat="45.07261" lon="5.49298">
        <ele>727.9</ele>
        <time>2015-10-17T15:29:04Z</time>
      </trkpt>
      <trkpt lat="45.07263" lon="5.49296">
        <ele>732.7</ele>
        <time>2015-10-17T15:29:05Z</time>
      </trkpt>
      <trkpt lat="45.07274" lon="5.49251">
        <ele>739.4</ele>
        <time>2015-10-17T15:29:10Z</time>
      </trkpt>
      <trkpt lat="45.07279" lon="5.49247">
        <ele>740.4</ele>
        <time>2015-10-17T15:29:11Z</time>
      </trkpt>
      <trkpt lat="45.0734" lon="5.4922">
        <ele>743.2</ele>
        <time>2015-10-17T15:29:20Z</time>
      </trkpt>
      <trkpt lat="45.07353" lon="5.49218">
        <ele>753.3</ele>
        <time>2015-10-17T15:29:27Z</time>
      </trkpt>
      <trkpt lat="45.07364" lon="5.49217">
        <ele>766.8</ele>
        <time>2015-10-17T15:29:42Z</time>
      </trkpt>
      <trkpt lat="45.0737" lon="5.49216">
        <ele>768.7</ele>
        <time>2015-10-17T15:29:43Z</time>
      </trkpt>
      <trkpt lat="45.07374" lon="5.49217">
        <ele>771.1</ele>
        <time>2015-10-17T15:29:44Z</time>
      </trkpt>
      <trkpt lat="45.07377" lon="5.49227">
        <ele>776.4</ele>
        <time>2015-10-17T15:29:45Z</time>
      </trkpt>
      <trkpt lat="45.07379" lon="5.49245">
        <ele>788.4</ele>
        <time>2015-10-17T15:29:46Z</time>
      </trkpt>
      <trkpt lat="45.07384" lon="5.49251">
        <ele>789.4</ele>
        <time>2015-10-17T15:29:47Z</time>
      </trkpt>
      <trkpt lat="45.0739" lon="5.49253">
        <ele>787.9</ele>
        <time>2015-10-17T15:29:48Z</time>
      </trkpt>
      <trkpt lat="45.07397" lon="5.49254">
        <ele>785.1</ele>
        <time>2015-10-17T15:29:49Z</time>
      </trkpt>
      <trkpt lat="45.07404" lon="5.49254">
        <ele>782.2</ele>
        <time>2015-10-17T15:29:50Z</time>
      </trkpt>
      <trkpt lat="45.07412" lon="5.49251">
        <ele>779.3</ele>
        <time>2015-10-17T15:29:51Z</time>
      </trkpt>
      <trkpt lat="45.0742" lon="5.4925">
        <ele>778.3</ele>
        <time>2015-10-17T15:29:52Z</time>
      </trkpt>
      <trkpt lat="45.07427" lon="5.49248">
        <ele>778.8</ele>
        <time>2015-10-17T15:29:53Z</time>
      </trkpt>
      <trkpt lat="45.07468" lon="5.49184">
        <ele>770.6</ele>
        <time>2015-10-17T15:29:57Z</time>
      </trkpt>
      <trkpt lat="45.07479" lon="5.49167">
        <ele>763.9</ele>
        <time>2015-10-17T15:29:58Z</time>
      </trkpt>
      <trkpt lat="45.07491" lon="5.49155">
        <ele>757.7</ele>
        <time>2015-10-17T15:29:59Z</time>
      </trkpt>
      <trkpt lat="45.07505" lon="5.49147">
        <ele>752.9</ele>
        <time>2015-10-17T15:30:00Z</time>
      </trkpt>
      <trkpt lat="45.07518" lon="5.49138">
        <ele>750</ele>
        <time>2015-10-17T15:30:01Z</time>
      </trkpt>
      <trkpt lat="45.07621" lon="5.49075">
        <ele>729.8</ele>
        <time>2015-10-17T15:30:07Z</time>
      </trkpt>
      <trkpt lat="45.07683" lon="5.4903">
        <ele>718.7</ele>
        <time>2015-10-17T15:30:11Z</time>
      </trkpt>
      <trkpt lat="45.07702" lon="5.49023">
        <ele>715.8</ele>
        <time>2015-10-17T15:30:12Z</time>
      </trkpt>
      <trkpt lat="45.07843" lon="5.48996">
        <ele>703.8</ele>
        <time>2015-10-17T15:30:20Z</time>
      </trkpt>
      <trkpt lat="45.0786" lon="5.49">
        <ele>701.4</ele>
        <time>2015-10-17T15:30:21Z</time>
      </trkpt>
      <trkpt lat="45.07874" lon="5.48995">
        <ele>701.9</ele>
        <time>2015-10-17T15:30:22Z</time>
      </trkpt>
      <trkpt lat="45.07891" lon="5.48985">
        <ele>703.8</ele>
        <time>2015-10-17T15:30:23Z</time>
      </trkpt>
      <trkpt lat="45.07908" lon="5.48975">
        <ele>702.4</ele>
        <time>2015-10-17T15:30:24Z</time>
      </trkpt>
      <trkpt lat="45.07926" lon="5.48963">
        <ele>700.9</ele>
        <time>2015-10-17T15:30:25Z</time>
      </trkpt>
      <trkpt lat="45.07946" lon="5.4895">
        <ele>700.5</ele>
        <time>2015-10-17T15:30:26Z</time>
      </trkpt>
      <trkpt lat="45.08079" lon="5.48885">
        <ele>692.3</ele>
        <time>2015-10-17T15:30:32Z</time>
      </trkpt>
      <trkpt lat="45.08178" lon="5.4881">
        <ele>686</ele>
        <time>2015-10-17T15:30:38Z</time>
      </trkpt>
      <trkpt lat="45.08188" lon="5.48793">
        <ele>685.6</ele>
        <time>2015-10-17T15:30:39Z</time>
      </trkpt>
      <trkpt lat="45.08194" lon="5.48773">
        <ele>685.6</ele>
        <time>2015-10-17T15:30:40Z</time>
      </trkpt>
      <trkpt lat="45.08196" lon="5.48748">
        <ele>685.1</ele>
        <time>2015-10-17T15:30:41Z</time>
      </trkpt>
      <trkpt lat="45.08196" lon="5.48722">
        <ele>685.1</ele>
        <time>2015-10-17T15:30:42Z</time>
      </trkpt>
      <trkpt lat="45.08197" lon="5.48696">
        <ele>683.6</ele>
        <time>2015-10-17T15:30:43Z</time>
      </trkpt>
      <trkpt lat="45.08201" lon="5.48573">
        <ele>680.3</ele>
        <time>2015-10-17T15:30:48Z</time>
      </trkpt>
      <trkpt lat="45.08206" lon="5.48552">
        <ele>679.3</ele>
        <time>2015-10-17T15:30:49Z</time>
      </trkpt>
      <trkpt lat="45.08215" lon="5.48534">
        <ele>678.4</ele>
        <time>2015-10-17T15:30:50Z</time>
      </trkpt>
      <trkpt lat="45.08228" lon="5.48519">
        <ele>677.9</ele>
        <time>2015-10-17T15:30:51Z</time>
      </trkpt>
      <trkpt lat="45.08241" lon="5.48505">
        <ele>677.4</ele>
        <time>2015-10-17T15:30:52Z</time>
      </trkpt>
      <trkpt lat="45.08256" lon="5.48495">
        <ele>676.9</ele>
        <time>2015-10-17T15:30:53Z</time>
      </trkpt>
      <trkpt lat="45.08273" lon="5.48488">
        <ele>676.9</ele>
        <time>2015-10-17T15:30:54Z</time>
      </trkpt>
      <trkpt lat="45.08289" lon="5.48483">
        <ele>676.9</ele>
        <time>2015-10-17T15:30:55Z</time>
      </trkpt>
      <trkpt lat="45.08305" lon="5.48479">
        <ele>676.9</ele>
        <time>2015-10-17T15:30:56Z</time>
      </trkpt>
      <trkpt lat="45.0832" lon="5.48476">
        <ele>676.9</ele>
        <time>2015-10-17T15:30:57Z</time>
      </trkpt>
      <trkpt lat="45.08379" lon="5.48462">
        <ele>675.9</ele>
        <time>2015-10-17T15:31:01Z</time>
      </trkpt>
      <trkpt lat="45.08391" lon="5.48454">
        <ele>677.4</ele>
        <time>2015-10-17T15:31:02Z</time>
      </trkpt>
      <trkpt lat="45.084" lon="5.4844">
        <ele>677.9</ele>
        <time>2015-10-17T15:31:03Z</time>
      </trkpt>
      <trkpt lat="45.08407" lon="5.48425">
        <ele>677.9</ele>
        <time>2015-10-17T15:31:04Z</time>
      </trkpt>
      <trkpt lat="45.0841" lon="5.48407">
        <ele>678.4</ele>
        <time>2015-10-17T15:31:05Z</time>
      </trkpt>
      <trkpt lat="45.0841" lon="5.48388">
        <ele>678.8</ele>
        <time>2015-10-17T15:31:06Z</time>
      </trkpt>
      <trkpt lat="45.08413" lon="5.48371">
        <ele>678.4</ele>
        <time>2015-10-17T15:31:07Z</time>
      </trkpt>
      <trkpt lat="45.08417" lon="5.48354">
        <ele>678.4</ele>
        <time>2015-10-17T15:31:08Z</time>
      </trkpt>
      <trkpt lat="45.08421" lon="5.4834">
        <ele>677.9</ele>
        <time>2015-10-17T15:31:09Z</time>
      </trkpt>
      <trkpt lat="45.08423" lon="5.48326">
        <ele>677.4</ele>
        <time>2015-10-17T15:31:10Z</time>
      </trkpt>
      <trkpt lat="45.08422" lon="5.48314">
        <ele>677.9</ele>
        <time>2015-10-17T15:31:11Z</time>
      </trkpt>
      <trkpt lat="45.08423" lon="5.48307">
        <ele>676.9</ele>
        <time>2015-10-17T15:31:12Z</time>
      </trkpt>
      <trkpt lat="45.08422" lon="5.48302">
        <ele>677.4</ele>
        <time>2015-10-17T15:31:13Z</time>
      </trkpt>
      <trkpt lat="45.0842" lon="5.48296">
        <ele>677.9</ele>
        <time>2015-10-17T15:31:14Z</time>
      </trkpt>
      <trkpt lat="45.08419" lon="5.48293">
        <ele>677.9</ele>
        <time>2015-10-17T15:31:15Z</time>
      </trkpt>
      <trkpt lat="45.08411" lon="5.48249">
        <ele>681.2</ele>
        <time>2015-10-17T15:31:19Z</time>
      </trkpt>
      <trkpt lat="45.08413" lon="5.48225">
        <ele>678.4</ele>
        <time>2015-10-17T15:31:20Z</time>
      </trkpt>
      <trkpt lat="45.0842" lon="5.48205">
        <ele>677.4</ele>
        <time>2015-10-17T15:31:21Z</time>
      </trkpt>
      <trkpt lat="45.08428" lon="5.48185">
        <ele>677.9</ele>
        <time>2015-10-17T15:31:22Z</time>
      </trkpt>
      <trkpt lat="45.08439" lon="5.48164">
        <ele>677.9</ele>
        <time>2015-10-17T15:31:23Z</time>
      </trkpt>
      <trkpt lat="45.08452" lon="5.48144">
        <ele>677.4</ele>
        <time>2015-10-17T15:31:24Z</time>
      </trkpt>
      <trkpt lat="45.08467" lon="5.48122">
        <ele>676.9</ele>
        <time>2015-10-17T15:31:25Z</time>
      </trkpt>
      <trkpt lat="45.08482" lon="5.48102">
        <ele>676.9</ele>
        <time>2015-10-17T15:31:26Z</time>
      </trkpt>
      <trkpt lat="45.08516" lon="5.4804">
        <ele>677.4</ele>
        <time>2015-10-17T15:31:29Z</time>
      </trkpt>
      <trkpt lat="45.08522" lon="5.48017">
        <ele>676.9</ele>
        <time>2015-10-17T15:31:30Z</time>
      </trkpt>
      <trkpt lat="45.08527" lon="5.47994">
        <ele>676.4</ele>
        <time>2015-10-17T15:31:31Z</time>
      </trkpt>
      <trkpt lat="45.08532" lon="5.47973">
        <ele>676.4</ele>
        <time>2015-10-17T15:31:32Z</time>
      </trkpt>
      <trkpt lat="45.0854" lon="5.47953">
        <ele>676.4</ele>
        <time>2015-10-17T15:31:33Z</time>
      </trkpt>
      <trkpt lat="45.0855" lon="5.47934">
        <ele>675.9</ele>
        <time>2015-10-17T15:31:34Z</time>
      </trkpt>
      <trkpt lat="45.0856" lon="5.47914">
        <ele>675.9</ele>
        <time>2015-10-17T15:31:35Z</time>
      </trkpt>
      <trkpt lat="45.08569" lon="5.47893">
        <ele>675.9</ele>
        <time>2015-10-17T15:31:36Z</time>
      </trkpt>
      <trkpt lat="45.08576" lon="5.47872">
        <ele>675.9</ele>
        <time>2015-10-17T15:31:37Z</time>
      </trkpt>
      <trkpt lat="45.08579" lon="5.47851">
        <ele>675.9</ele>
        <time>2015-10-17T15:31:38Z</time>
      </trkpt>
      <trkpt lat="45.08582" lon="5.47828">
        <ele>675</ele>
        <time>2015-10-17T15:31:39Z</time>
      </trkpt>
      <trkpt lat="45.08585" lon="5.47807">
        <ele>674.5</ele>
        <time>2015-10-17T15:31:40Z</time>
      </trkpt>
      <trkpt lat="45.08592" lon="5.47786">
        <ele>674.5</ele>
        <time>2015-10-17T15:31:41Z</time>
      </trkpt>
      <trkpt lat="45.08601" lon="5.47765">
        <ele>674.5</ele>
        <time>2015-10-17T15:31:42Z</time>
      </trkpt>
      <trkpt lat="45.08613" lon="5.47742">
        <ele>674.5</ele>
        <time>2015-10-17T15:31:43Z</time>
      </trkpt>
      <trkpt lat="45.08624" lon="5.47719">
        <ele>674.5</ele>
        <time>2015-10-17T15:31:44Z</time>
      </trkpt>
      <trkpt lat="45.08634" lon="5.47693">
        <ele>674</ele>
        <time>2015-10-17T15:31:45Z</time>
      </trkpt>
      <trkpt lat="45.08644" lon="5.47668">
        <ele>673.5</ele>
        <time>2015-10-17T15:31:46Z</time>
      </trkpt>
      <trkpt lat="45.08719" lon="5.47523">
        <ele>671.6</ele>
        <time>2015-10-17T15:31:52Z</time>
      </trkpt>
      <trkpt lat="45.08785" lon="5.47364">
        <ele>669.2</ele>
        <time>2015-10-17T15:31:59Z</time>
      </trkpt>
      <trkpt lat="45.08796" lon="5.47344">
        <ele>668.7</ele>
        <time>2015-10-17T15:32:00Z</time>
      </trkpt>
      <trkpt lat="45.08913" lon="5.47155">
        <ele>666.3</ele>
        <time>2015-10-17T15:32:10Z</time>
      </trkpt>
      <trkpt lat="45.08969" lon="5.47061">
        <ele>665.4</ele>
        <time>2015-10-17T15:32:16Z</time>
      </trkpt>
      <trkpt lat="45.08976" lon="5.4704">
        <ele>664.9</ele>
        <time>2015-10-17T15:32:17Z</time>
      </trkpt>
      <trkpt lat="45.08981" lon="5.47018">
        <ele>664.9</ele>
        <time>2015-10-17T15:32:18Z</time>
      </trkpt>
      <trkpt lat="45.08984" lon="5.46994">
        <ele>664.9</ele>
        <time>2015-10-17T15:32:19Z</time>
      </trkpt>
      <trkpt lat="45.08983" lon="5.46972">
        <ele>664.4</ele>
        <time>2015-10-17T15:32:20Z</time>
      </trkpt>
      <trkpt lat="45.08979" lon="5.4695">
        <ele>663.9</ele>
        <time>2015-10-17T15:32:21Z</time>
      </trkpt>
      <trkpt lat="45.08973" lon="5.46932">
        <ele>664.4</ele>
        <time>2015-10-17T15:32:22Z</time>
      </trkpt>
      <trkpt lat="45.08964" lon="5.46916">
        <ele>663.9</ele>
        <time>2015-10-17T15:32:23Z</time>
      </trkpt>
      <trkpt lat="45.08954" lon="5.46902">
        <ele>663.9</ele>
        <time>2015-10-17T15:32:24Z</time>
      </trkpt>
      <trkpt lat="45.08943" lon="5.4689">
        <ele>663.9</ele>
        <time>2015-10-17T15:32:25Z</time>
      </trkpt>
      <trkpt lat="45.08932" lon="5.4688">
        <ele>663.9</ele>
        <time>2015-10-17T15:32:26Z</time>
      </trkpt>
      <trkpt lat="45.08922" lon="5.46872">
        <ele>663.5</ele>
        <time>2015-10-17T15:32:27Z</time>
      </trkpt>
      <trkpt lat="45.08912" lon="5.46866">
        <ele>663.5</ele>
        <time>2015-10-17T15:32:28Z</time>
      </trkpt>
      <trkpt lat="45.08904" lon="5.46861">
        <ele>663.5</ele>
        <time>2015-10-17T15:32:29Z</time>
      </trkpt>
      <trkpt lat="45.08875" lon="5.4685">
        <ele>666.3</ele>
        <time>2015-10-17T15:32:35Z</time>
      </trkpt>
      <trkpt lat="45.08865" lon="5.46847">
        <ele>665.4</ele>
        <time>2015-10-17T15:32:39Z</time>
      </trkpt>
      <trkpt lat="45.08863" lon="5.46849">
        <ele>664.4</ele>
        <time>2015-10-17T15:32:40Z</time>
      </trkpt>
      <trkpt lat="45.08862" lon="5.46853">
        <ele>663.9</ele>
        <time>2015-10-17T15:32:41Z</time>
      </trkpt>
      <trkpt lat="45.08863" lon="5.4686">
        <ele>663.5</ele>
        <time>2015-10-17T15:32:43Z</time>
      </trkpt>
      <trkpt lat="45.08864" lon="5.46863">
        <ele>662.5</ele>
        <time>2015-10-17T15:32:44Z</time>
      </trkpt>
      <trkpt lat="45.08865" lon="5.46866">
        <ele>662</ele>
        <time>2015-10-17T15:32:45Z</time>
      </trkpt>
      <trkpt lat="45.08872" lon="5.46883">
        <ele>659.1</ele>
        <time>2015-10-17T15:32:55Z</time>
      </trkpt>
      <trkpt lat="45.08874" lon="5.46883">
        <ele>659.1</ele>
        <time>2015-10-17T15:32:56Z</time>
      </trkpt>
      <trkpt lat="45.08875" lon="5.46881">
        <ele>661</ele>
        <time>2015-10-17T15:33:09Z</time>
      </trkpt>
      <trkpt lat="45.08871" lon="5.46883">
        <ele>661</ele>
        <time>2015-10-17T15:33:33Z</time>
      </trkpt>
      <trkpt lat="45.08869" lon="5.46888">
        <ele>658.6</ele>
        <time>2015-10-17T15:36:42Z</time>
      </trkpt>
      <trkpt lat="45.08872" lon="5.46876">
        <ele>663</ele>
        <time>2015-10-17T15:37:08Z</time>
      </trkpt>
      <trkpt lat="45.08881" lon="5.46876">
        <ele>656.7</ele>
        <time>2015-10-17T15:37:44Z</time>
      </trkpt>
      <trkpt lat="45.08882" lon="5.46886">
        <ele>646.1</ele>
        <time>2015-10-17T15:38:21Z</time>
      </trkpt>
      <trkpt lat="45.0888" lon="5.46892">
        <ele>653.8</ele>
        <time>2015-10-17T15:38:28Z</time>
      </trkpt>
      <trkpt lat="45.08875" lon="5.46893">
        <ele>648.6</ele>
        <time>2015-10-17T15:38:35Z</time>
      </trkpt>
      <trkpt lat="45.08874" lon="5.46894">
        <ele>661.5</ele>
        <time>2015-10-18T06:58:25Z</time>
      </trkpt>
      <trkpt lat="45.08874" lon="5.46895">
        <ele>660.6</ele>
        <time>2015-10-18T07:03:04Z</time>
      </trkpt>
      <trkpt lat="45.08868" lon="5.46874">
        <ele>660.6</ele>
        <time>2015-10-18T07:03:14Z</time>
      </trkpt>
      <trkpt lat="45.08859" lon="5.46855">
        <ele>661</ele>
        <time>2015-10-18T07:03:37Z</time>
      </trkpt>
      <trkpt lat="45.08855" lon="5.46849">
        <ele>660.6</ele>
        <time>2015-10-18T07:03:41Z</time>
      </trkpt>
      <trkpt lat="45.08851" lon="5.46845">
        <ele>660.6</ele>
        <time>2015-10-18T07:03:42Z</time>
      </trkpt>
      <trkpt lat="45.08842" lon="5.46837">
        <ele>660.1</ele>
        <time>2015-10-18T07:03:44Z</time>
      </trkpt>
      <trkpt lat="45.08836" lon="5.46832">
        <ele>660.6</ele>
        <time>2015-10-18T07:03:45Z</time>
      </trkpt>
      <trkpt lat="45.08832" lon="5.46823">
        <ele>661</ele>
        <time>2015-10-18T07:03:46Z</time>
      </trkpt>
      <trkpt lat="45.08828" lon="5.46817">
        <ele>661.5</ele>
        <time>2015-10-18T07:03:47Z</time>
      </trkpt>
      <trkpt lat="45.08825" lon="5.46808">
        <ele>661.5</ele>
        <time>2015-10-18T07:03:48Z</time>
      </trkpt>
      <trkpt lat="45.08822" lon="5.46799">
        <ele>661.5</ele>
        <time>2015-10-18T07:03:49Z</time>
      </trkpt>
      <trkpt lat="45.0877" lon="5.46653">
        <ele>662</ele>
        <time>2015-10-18T07:04:03Z</time>
      </trkpt>
      <trkpt lat="45.0874" lon="5.46592">
        <ele>661</ele>
        <time>2015-10-18T07:04:08Z</time>
      </trkpt>
      <trkpt lat="45.08735" lon="5.46577">
        <ele>660.6</ele>
        <time>2015-10-18T07:04:09Z</time>
      </trkpt>
      <trkpt lat="45.08731" lon="5.46561">
        <ele>660.1</ele>
        <time>2015-10-18T07:04:10Z</time>
      </trkpt>
      <trkpt lat="45.08728" lon="5.46544">
        <ele>660.1</ele>
        <time>2015-10-18T07:04:11Z</time>
      </trkpt>
      <trkpt lat="45.08727" lon="5.46526">
        <ele>659.6</ele>
        <time>2015-10-18T07:04:12Z</time>
      </trkpt>
      <trkpt lat="45.08729" lon="5.46508">
        <ele>659.1</ele>
        <time>2015-10-18T07:04:13Z</time>
      </trkpt>
      <trkpt lat="45.08731" lon="5.46489">
        <ele>659.6</ele>
        <time>2015-10-18T07:04:14Z</time>
      </trkpt>
      <trkpt lat="45.08732" lon="5.46471">
        <ele>659.1</ele>
        <time>2015-10-18T07:04:15Z</time>
      </trkpt>
      <trkpt lat="45.08732" lon="5.46452">
        <ele>658.6</ele>
        <time>2015-10-18T07:04:16Z</time>
      </trkpt>
      <trkpt lat="45.0873" lon="5.46434">
        <ele>658.2</ele>
        <time>2015-10-18T07:04:17Z</time>
      </trkpt>
      <trkpt lat="45.08728" lon="5.46415">
        <ele>657.7</ele>
        <time>2015-10-18T07:04:18Z</time>
      </trkpt>
      <trkpt lat="45.08715" lon="5.46358">
        <ele>657.7</ele>
        <time>2015-10-18T07:04:21Z</time>
      </trkpt>
      <trkpt lat="45.08709" lon="5.46339">
        <ele>657.2</ele>
        <time>2015-10-18T07:04:22Z</time>
      </trkpt>
      <trkpt lat="45.08684" lon="5.46263">
        <ele>655.3</ele>
        <time>2015-10-18T07:04:26Z</time>
      </trkpt>
      <trkpt lat="45.0868" lon="5.46242">
        <ele>654.8</ele>
        <time>2015-10-18T07:04:27Z</time>
      </trkpt>
      <trkpt lat="45.08678" lon="5.46222">
        <ele>655.3</ele>
        <time>2015-10-18T07:04:28Z</time>
      </trkpt>
      <trkpt lat="45.08679" lon="5.462">
        <ele>654.3</ele>
        <time>2015-10-18T07:04:29Z</time>
      </trkpt>
      <trkpt lat="45.08678" lon="5.46178">
        <ele>654.3</ele>
        <time>2015-10-18T07:04:30Z</time>
      </trkpt>
      <trkpt lat="45.08676" lon="5.46156">
        <ele>653.8</ele>
        <time>2015-10-18T07:04:31Z</time>
      </trkpt>
      <trkpt lat="45.08672" lon="5.46136">
        <ele>653.8</ele>
        <time>2015-10-18T07:04:32Z</time>
      </trkpt>
      <trkpt lat="45.08666" lon="5.46116">
        <ele>653.8</ele>
        <time>2015-10-18T07:04:33Z</time>
      </trkpt>
      <trkpt lat="45.08658" lon="5.46098">
        <ele>653.4</ele>
        <time>2015-10-18T07:04:34Z</time>
      </trkpt>
      <trkpt lat="45.0865" lon="5.46079">
        <ele>653.4</ele>
        <time>2015-10-18T07:04:35Z</time>
      </trkpt>
      <trkpt lat="45.0864" lon="5.46061">
        <ele>653.4</ele>
        <time>2015-10-18T07:04:36Z</time>
      </trkpt>
      <trkpt lat="45.0863" lon="5.46045">
        <ele>653.4</ele>
        <time>2015-10-18T07:04:37Z</time>
      </trkpt>
      <trkpt lat="45.08618" lon="5.46032">
        <ele>653.4</ele>
        <time>2015-10-18T07:04:38Z</time>
      </trkpt>
      <trkpt lat="45.08605" lon="5.46021">
        <ele>653.4</ele>
        <time>2015-10-18T07:04:39Z</time>
      </trkpt>
      <trkpt lat="45.08589" lon="5.46014">
        <ele>653.4</ele>
        <time>2015-10-18T07:04:40Z</time>
      </trkpt>
      <trkpt lat="45.08574" lon="5.46007">
        <ele>653.4</ele>
        <time>2015-10-18T07:04:41Z</time>
      </trkpt>
      <trkpt lat="45.0837" lon="5.45816">
        <ele>648.1</ele>
        <time>2015-10-18T07:04:56Z</time>
      </trkpt>
      <trkpt lat="45.08357" lon="5.45806">
        <ele>647.6</ele>
        <time>2015-10-18T07:04:57Z</time>
      </trkpt>
      <trkpt lat="45.08298" lon="5.45751">
        <ele>643.3</ele>
        <time>2015-10-18T07:05:03Z</time>
      </trkpt>
      <trkpt lat="45.0829" lon="5.45748">
        <ele>641.3</ele>
        <time>2015-10-18T07:05:04Z</time>
      </trkpt>
      <trkpt lat="45.08282" lon="5.45751">
        <ele>638.9</ele>
        <time>2015-10-18T07:05:05Z</time>
      </trkpt>
      <trkpt lat="45.08273" lon="5.45755">
        <ele>636.5</ele>
        <time>2015-10-18T07:05:06Z</time>
      </trkpt>
      <trkpt lat="45.08224" lon="5.4576">
        <ele>638</ele>
        <time>2015-10-18T07:05:10Z</time>
      </trkpt>
      <trkpt lat="45.08209" lon="5.45753">
        <ele>636.5</ele>
        <time>2015-10-18T07:05:11Z</time>
      </trkpt>
      <trkpt lat="45.07994" lon="5.45638">
        <ele>564</ele>
        <time>2015-10-18T07:05:27Z</time>
      </trkpt>
      <trkpt lat="45.07972" lon="5.45612">
        <ele>555.8</ele>
        <time>2015-10-18T07:05:29Z</time>
      </trkpt>
      <trkpt lat="45.0785" lon="5.45437">
        <ele>583.7</ele>
        <time>2015-10-18T07:05:40Z</time>
      </trkpt>
      <trkpt lat="45.07773" lon="5.45335">
        <ele>594.2</ele>
        <time>2015-10-18T07:05:47Z</time>
      </trkpt>
      <trkpt lat="45.07463" lon="5.44862">
        <ele>578.4</ele>
        <time>2015-10-18T07:06:19Z</time>
      </trkpt>
      <trkpt lat="45.07421" lon="5.44819">
        <ele>575.5</ele>
        <time>2015-10-18T07:06:23Z</time>
      </trkpt>
      <trkpt lat="45.07417" lon="5.44804">
        <ele>575</ele>
        <time>2015-10-18T07:06:24Z</time>
      </trkpt>
      <trkpt lat="45.07413" lon="5.44788">
        <ele>574.5</ele>
        <time>2015-10-18T07:06:25Z</time>
      </trkpt>
      <trkpt lat="45.07407" lon="5.44776">
        <ele>573.1</ele>
        <time>2015-10-18T07:06:26Z</time>
      </trkpt>
      <trkpt lat="45.07401" lon="5.44762">
        <ele>572.1</ele>
        <time>2015-10-18T07:06:27Z</time>
      </trkpt>
      <trkpt lat="45.07367" lon="5.44736">
        <ele>572.6</ele>
        <time>2015-10-18T07:06:30Z</time>
      </trkpt>
      <trkpt lat="45.07357" lon="5.44729">
        <ele>573.6</ele>
        <time>2015-10-18T07:06:31Z</time>
      </trkpt>
      <trkpt lat="45.07346" lon="5.44723">
        <ele>573.6</ele>
        <time>2015-10-18T07:06:32Z</time>
      </trkpt>
      <trkpt lat="45.07333" lon="5.44721">
        <ele>571.6</ele>
        <time>2015-10-18T07:06:33Z</time>
      </trkpt>
      <trkpt lat="45.07259" lon="5.44692">
        <ele>571.2</ele>
        <time>2015-10-18T07:06:40Z</time>
      </trkpt>
      <trkpt lat="45.07245" lon="5.44693">
        <ele>571.2</ele>
        <time>2015-10-18T07:06:41Z</time>
      </trkpt>
      <trkpt lat="45.07233" lon="5.44667">
        <ele>576.5</ele>
        <time>2015-10-18T07:06:43Z</time>
      </trkpt>
      <trkpt lat="45.07227" lon="5.44653">
        <ele>576.9</ele>
        <time>2015-10-18T07:06:44Z</time>
      </trkpt>
      <trkpt lat="45.07221" lon="5.44639">
        <ele>577.9</ele>
        <time>2015-10-18T07:06:45Z</time>
      </trkpt>
      <trkpt lat="45.07214" lon="5.44625">
        <ele>578.4</ele>
        <time>2015-10-18T07:06:46Z</time>
      </trkpt>
      <trkpt lat="45.07223" lon="5.44565">
        <ele>573.6</ele>
        <time>2015-10-18T07:06:50Z</time>
      </trkpt>
      <trkpt lat="45.07229" lon="5.44549">
        <ele>570.2</ele>
        <time>2015-10-18T07:06:51Z</time>
      </trkpt>
      <trkpt lat="45.07233" lon="5.44534">
        <ele>568.3</ele>
        <time>2015-10-18T07:06:52Z</time>
      </trkpt>
      <trkpt lat="45.07234" lon="5.44519">
        <ele>565.4</ele>
        <time>2015-10-18T07:06:53Z</time>
      </trkpt>
      <trkpt lat="45.07235" lon="5.44503">
        <ele>564</ele>
        <time>2015-10-18T07:06:54Z</time>
      </trkpt>
      <trkpt lat="45.07231" lon="5.44475">
        <ele>561.6</ele>
        <time>2015-10-18T07:06:56Z</time>
      </trkpt>
      <trkpt lat="45.07227" lon="5.44463">
        <ele>560.1</ele>
        <time>2015-10-18T07:06:57Z</time>
      </trkpt>
      <trkpt lat="45.07222" lon="5.44451">
        <ele>561.1</ele>
        <time>2015-10-18T07:06:58Z</time>
      </trkpt>
      <trkpt lat="45.07214" lon="5.44441">
        <ele>561.1</ele>
        <time>2015-10-18T07:06:59Z</time>
      </trkpt>
      <trkpt lat="45.07208" lon="5.4443">
        <ele>560.6</ele>
        <time>2015-10-18T07:07:00Z</time>
      </trkpt>
      <trkpt lat="45.07136" lon="5.44305">
        <ele>551</ele>
        <time>2015-10-18T07:07:14Z</time>
      </trkpt>
      <trkpt lat="45.07133" lon="5.44296">
        <ele>549.5</ele>
        <time>2015-10-18T07:07:15Z</time>
      </trkpt>
      <trkpt lat="45.07077" lon="5.44209">
        <ele>537.5</ele>
        <time>2015-10-18T07:07:26Z</time>
      </trkpt>
      <trkpt lat="45.07071" lon="5.44201">
        <ele>536.6</ele>
        <time>2015-10-18T07:07:27Z</time>
      </trkpt>
      <trkpt lat="45.07018" lon="5.44099">
        <ele>529.3</ele>
        <time>2015-10-18T07:07:36Z</time>
      </trkpt>
      <trkpt lat="45.06996" lon="5.44077">
        <ele>526.5</ele>
        <time>2015-10-18T07:07:38Z</time>
      </trkpt>
      <trkpt lat="45.06996" lon="5.44061">
        <ele>526.5</ele>
        <time>2015-10-18T07:07:39Z</time>
      </trkpt>
      <trkpt lat="45.06994" lon="5.44045">
        <ele>526</ele>
        <time>2015-10-18T07:07:40Z</time>
      </trkpt>
      <trkpt lat="45.06955" lon="5.43911">
        <ele>519.3</ele>
        <time>2015-10-18T07:07:48Z</time>
      </trkpt>
      <trkpt lat="45.06945" lon="5.43874">
        <ele>516.9</ele>
        <time>2015-10-18T07:07:50Z</time>
      </trkpt>
      <trkpt lat="45.06942" lon="5.43855">
        <ele>515.9</ele>
        <time>2015-10-18T07:07:51Z</time>
      </trkpt>
      <trkpt lat="45.06935" lon="5.43815">
        <ele>513.5</ele>
        <time>2015-10-18T07:07:53Z</time>
      </trkpt>
      <trkpt lat="45.0693" lon="5.43796">
        <ele>512.5</ele>
        <time>2015-10-18T07:07:54Z</time>
      </trkpt>
      <trkpt lat="45.06922" lon="5.43777">
        <ele>511.6</ele>
        <time>2015-10-18T07:07:55Z</time>
      </trkpt>
      <trkpt lat="45.06857" lon="5.43611">
        <ele>500.5</ele>
        <time>2015-10-18T07:08:04Z</time>
      </trkpt>
      <trkpt lat="45.06826" lon="5.43458">
        <ele>491.9</ele>
        <time>2015-10-18T07:08:12Z</time>
      </trkpt>
      <trkpt lat="45.0682" lon="5.43315">
        <ele>488.5</ele>
        <time>2015-10-18T07:08:19Z</time>
      </trkpt>
      <trkpt lat="45.06815" lon="5.43296">
        <ele>488</ele>
        <time>2015-10-18T07:08:20Z</time>
      </trkpt>
      <trkpt lat="45.06808" lon="5.43277">
        <ele>488</ele>
        <time>2015-10-18T07:08:21Z</time>
      </trkpt>
      <trkpt lat="45.0673" lon="5.43107">
        <ele>483.2</ele>
        <time>2015-10-18T07:08:31Z</time>
      </trkpt>
      <trkpt lat="45.06721" lon="5.43096">
        <ele>482.7</ele>
        <time>2015-10-18T07:08:32Z</time>
      </trkpt>
      <trkpt lat="45.06711" lon="5.43087">
        <ele>482.2</ele>
        <time>2015-10-18T07:08:33Z</time>
      </trkpt>
      <trkpt lat="45.06702" lon="5.43078">
        <ele>481.8</ele>
        <time>2015-10-18T07:08:34Z</time>
      </trkpt>
      <trkpt lat="45.06694" lon="5.43067">
        <ele>480.8</ele>
        <time>2015-10-18T07:08:35Z</time>
      </trkpt>
      <trkpt lat="45.06687" lon="5.43053">
        <ele>479.8</ele>
        <time>2015-10-18T07:08:36Z</time>
      </trkpt>
      <trkpt lat="45.06682" lon="5.43038">
        <ele>479.4</ele>
        <time>2015-10-18T07:08:37Z</time>
      </trkpt>
      <trkpt lat="45.06675" lon="5.43022">
        <ele>478.9</ele>
        <time>2015-10-18T07:08:38Z</time>
      </trkpt>
      <trkpt lat="45.06667" lon="5.43008">
        <ele>478.4</ele>
        <time>2015-10-18T07:08:39Z</time>
      </trkpt>
      <trkpt lat="45.06658" lon="5.42994">
        <ele>477.4</ele>
        <time>2015-10-18T07:08:40Z</time>
      </trkpt>
      <trkpt lat="45.06646" lon="5.42982">
        <ele>477</ele>
        <time>2015-10-18T07:08:41Z</time>
      </trkpt>
      <trkpt lat="45.06635" lon="5.4297">
        <ele>476</ele>
        <time>2015-10-18T07:08:42Z</time>
      </trkpt>
      <trkpt lat="45.06623" lon="5.4296">
        <ele>475.5</ele>
        <time>2015-10-18T07:08:43Z</time>
      </trkpt>
      <trkpt lat="45.06539" lon="5.42864">
        <ele>470.2</ele>
        <time>2015-10-18T07:08:51Z</time>
      </trkpt>
      <trkpt lat="45.06532" lon="5.42849">
        <ele>469.3</ele>
        <time>2015-10-18T07:08:52Z</time>
      </trkpt>
      <trkpt lat="45.06526" lon="5.42831">
        <ele>468.3</ele>
        <time>2015-10-18T07:08:53Z</time>
      </trkpt>
      <trkpt lat="45.065" lon="5.42763">
        <ele>464.9</ele>
        <time>2015-10-18T07:08:57Z</time>
      </trkpt>
      <trkpt lat="45.06492" lon="5.4275">
        <ele>464</ele>
        <time>2015-10-18T07:08:58Z</time>
      </trkpt>
      <trkpt lat="45.06482" lon="5.42739">
        <ele>463.5</ele>
        <time>2015-10-18T07:08:59Z</time>
      </trkpt>
      <trkpt lat="45.06469" lon="5.42732">
        <ele>462.1</ele>
        <time>2015-10-18T07:09:00Z</time>
      </trkpt>
      <trkpt lat="45.06456" lon="5.42728">
        <ele>461.1</ele>
        <time>2015-10-18T07:09:01Z</time>
      </trkpt>
      <trkpt lat="45.06444" lon="5.42723">
        <ele>460.1</ele>
        <time>2015-10-18T07:09:02Z</time>
      </trkpt>
      <trkpt lat="45.06432" lon="5.42717">
        <ele>459.7</ele>
        <time>2015-10-18T07:09:03Z</time>
      </trkpt>
      <trkpt lat="45.0642" lon="5.42709">
        <ele>458.7</ele>
        <time>2015-10-18T07:09:04Z</time>
      </trkpt>
      <trkpt lat="45.06409" lon="5.42701">
        <ele>457.7</ele>
        <time>2015-10-18T07:09:05Z</time>
      </trkpt>
      <trkpt lat="45.06398" lon="5.42691">
        <ele>457.2</ele>
        <time>2015-10-18T07:09:06Z</time>
      </trkpt>
      <trkpt lat="45.06389" lon="5.4268">
        <ele>456.3</ele>
        <time>2015-10-18T07:09:07Z</time>
      </trkpt>
      <trkpt lat="45.06381" lon="5.42667">
        <ele>455.3</ele>
        <time>2015-10-18T07:09:08Z</time>
      </trkpt>
      <trkpt lat="45.06374" lon="5.42653">
        <ele>454.8</ele>
        <time>2015-10-18T07:09:09Z</time>
      </trkpt>
      <trkpt lat="45.06369" lon="5.42637">
        <ele>454.4</ele>
        <time>2015-10-18T07:09:10Z</time>
      </trkpt>
      <trkpt lat="45.06366" lon="5.4262">
        <ele>453.4</ele>
        <time>2015-10-18T07:09:11Z</time>
      </trkpt>
      <trkpt lat="45.06363" lon="5.42601">
        <ele>452.9</ele>
        <time>2015-10-18T07:09:12Z</time>
      </trkpt>
      <trkpt lat="45.0633" lon="5.42344">
        <ele>442.3</ele>
        <time>2015-10-18T07:09:25Z</time>
      </trkpt>
      <trkpt lat="45.063" lon="5.42098">
        <ele>431.8</ele>
        <time>2015-10-18T07:09:37Z</time>
      </trkpt>
      <trkpt lat="45.06294" lon="5.42081">
        <ele>431.3</ele>
        <time>2015-10-18T07:09:38Z</time>
      </trkpt>
      <trkpt lat="45.06286" lon="5.42066">
        <ele>430.3</ele>
        <time>2015-10-18T07:09:39Z</time>
      </trkpt>
      <trkpt lat="45.06275" lon="5.42053">
        <ele>429.4</ele>
        <time>2015-10-18T07:09:40Z</time>
      </trkpt>
      <trkpt lat="45.06261" lon="5.42041">
        <ele>428.4</ele>
        <time>2015-10-18T07:09:41Z</time>
      </trkpt>
      <trkpt lat="45.06248" lon="5.42028">
        <ele>427.4</ele>
        <time>2015-10-18T07:09:42Z</time>
      </trkpt>
      <trkpt lat="45.06236" lon="5.42013">
        <ele>426.5</ele>
        <time>2015-10-18T07:09:43Z</time>
      </trkpt>
      <trkpt lat="45.06223" lon="5.41998">
        <ele>426</ele>
        <time>2015-10-18T07:09:44Z</time>
      </trkpt>
      <trkpt lat="45.0612" lon="5.41846">
        <ele>416.4</ele>
        <time>2015-10-18T07:09:54Z</time>
      </trkpt>
      <trkpt lat="45.06107" lon="5.41785">
        <ele>413</ele>
        <time>2015-10-18T07:09:57Z</time>
      </trkpt>
      <trkpt lat="45.0608" lon="5.4164">
        <ele>406.8</ele>
        <time>2015-10-18T07:10:04Z</time>
      </trkpt>
      <trkpt lat="45.06078" lon="5.4162">
        <ele>405.8</ele>
        <time>2015-10-18T07:10:05Z</time>
      </trkpt>
      <trkpt lat="45.06077" lon="5.41601">
        <ele>405.3</ele>
        <time>2015-10-18T07:10:06Z</time>
      </trkpt>
      <trkpt lat="45.0608" lon="5.41581">
        <ele>404.4</ele>
        <time>2015-10-18T07:10:07Z</time>
      </trkpt>
      <trkpt lat="45.06082" lon="5.41561">
        <ele>403.9</ele>
        <time>2015-10-18T07:10:08Z</time>
      </trkpt>
      <trkpt lat="45.06084" lon="5.41524">
        <ele>402.9</ele>
        <time>2015-10-18T07:10:10Z</time>
      </trkpt>
      <trkpt lat="45.06082" lon="5.41507">
        <ele>402</ele>
        <time>2015-10-18T07:10:11Z</time>
      </trkpt>
      <trkpt lat="45.06077" lon="5.41493">
        <ele>401.5</ele>
        <time>2015-10-18T07:10:12Z</time>
      </trkpt>
      <trkpt lat="45.06069" lon="5.41483">
        <ele>400.5</ele>
        <time>2015-10-18T07:10:13Z</time>
      </trkpt>
      <trkpt lat="45.06056" lon="5.41474">
        <ele>400.1</ele>
        <time>2015-10-18T07:10:14Z</time>
      </trkpt>
      <trkpt lat="45.06045" lon="5.41462">
        <ele>399.1</ele>
        <time>2015-10-18T07:10:15Z</time>
      </trkpt>
      <trkpt lat="45.06036" lon="5.41449">
        <ele>398.1</ele>
        <time>2015-10-18T07:10:16Z</time>
      </trkpt>
      <trkpt lat="45.06028" lon="5.41435">
        <ele>398.1</ele>
        <time>2015-10-18T07:10:17Z</time>
      </trkpt>
      <trkpt lat="45.06024" lon="5.41419">
        <ele>397.6</ele>
        <time>2015-10-18T07:10:18Z</time>
      </trkpt>
      <trkpt lat="45.06022" lon="5.41404">
        <ele>397.2</ele>
        <time>2015-10-18T07:10:19Z</time>
      </trkpt>
      <trkpt lat="45.06022" lon="5.41369">
        <ele>396.2</ele>
        <time>2015-10-18T07:10:21Z</time>
      </trkpt>
      <trkpt lat="45.0602" lon="5.4135">
        <ele>396.2</ele>
        <time>2015-10-18T07:10:22Z</time>
      </trkpt>
      <trkpt lat="45.06017" lon="5.41332">
        <ele>395.2</ele>
        <time>2015-10-18T07:10:23Z</time>
      </trkpt>
      <trkpt lat="45.06006" lon="5.413">
        <ele>393.8</ele>
        <time>2015-10-18T07:10:25Z</time>
      </trkpt>
      <trkpt lat="45.05999" lon="5.41287">
        <ele>393.3</ele>
        <time>2015-10-18T07:10:26Z</time>
      </trkpt>
      <trkpt lat="45.05993" lon="5.41272">
        <ele>392.4</ele>
        <time>2015-10-18T07:10:27Z</time>
      </trkpt>
      <trkpt lat="45.05989" lon="5.41256">
        <ele>391.9</ele>
        <time>2015-10-18T07:10:28Z</time>
      </trkpt>
      <trkpt lat="45.05987" lon="5.4124">
        <ele>390.9</ele>
        <time>2015-10-18T07:10:29Z</time>
      </trkpt>
      <trkpt lat="45.05986" lon="5.41223">
        <ele>390.4</ele>
        <time>2015-10-18T07:10:30Z</time>
      </trkpt>
      <trkpt lat="45.05985" lon="5.41207">
        <ele>390</ele>
        <time>2015-10-18T07:10:31Z</time>
      </trkpt>
      <trkpt lat="45.0598" lon="5.41148">
        <ele>387.6</ele>
        <time>2015-10-18T07:10:35Z</time>
      </trkpt>
      <trkpt lat="45.05978" lon="5.41136">
        <ele>387.1</ele>
        <time>2015-10-18T07:10:36Z</time>
      </trkpt>
      <trkpt lat="45.05974" lon="5.41125">
        <ele>386.6</ele>
        <time>2015-10-18T07:10:37Z</time>
      </trkpt>
      <trkpt lat="45.05968" lon="5.41116">
        <ele>386.1</ele>
        <time>2015-10-18T07:10:38Z</time>
      </trkpt>
      <trkpt lat="45.0596" lon="5.41108">
        <ele>385.6</ele>
        <time>2015-10-18T07:10:39Z</time>
      </trkpt>
      <trkpt lat="45.05951" lon="5.41103">
        <ele>385.2</ele>
        <time>2015-10-18T07:10:40Z</time>
      </trkpt>
      <trkpt lat="45.05941" lon="5.41099">
        <ele>384.7</ele>
        <time>2015-10-18T07:10:41Z</time>
      </trkpt>
      <trkpt lat="45.05931" lon="5.41095">
        <ele>384.2</ele>
        <time>2015-10-18T07:10:42Z</time>
      </trkpt>
      <trkpt lat="45.05921" lon="5.4109">
        <ele>383.2</ele>
        <time>2015-10-18T07:10:43Z</time>
      </trkpt>
      <trkpt lat="45.05911" lon="5.41084">
        <ele>382.7</ele>
        <time>2015-10-18T07:10:44Z</time>
      </trkpt>
      <trkpt lat="45.05902" lon="5.41076">
        <ele>382.3</ele>
        <time>2015-10-18T07:10:45Z</time>
      </trkpt>
      <trkpt lat="45.05894" lon="5.41068">
        <ele>381.8</ele>
        <time>2015-10-18T07:10:46Z</time>
      </trkpt>
      <trkpt lat="45.05886" lon="5.41057">
        <ele>381.3</ele>
        <time>2015-10-18T07:10:47Z</time>
      </trkpt>
      <trkpt lat="45.0588" lon="5.41045">
        <ele>380.8</ele>
        <time>2015-10-18T07:10:48Z</time>
      </trkpt>
      <trkpt lat="45.05874" lon="5.41033">
        <ele>380.3</ele>
        <time>2015-10-18T07:10:49Z</time>
      </trkpt>
      <trkpt lat="45.05869" lon="5.4102">
        <ele>379.4</ele>
        <time>2015-10-18T07:10:50Z</time>
      </trkpt>
      <trkpt lat="45.05865" lon="5.41007">
        <ele>378.9</ele>
        <time>2015-10-18T07:10:51Z</time>
      </trkpt>
      <trkpt lat="45.05864" lon="5.40993">
        <ele>378.4</ele>
        <time>2015-10-18T07:10:52Z</time>
      </trkpt>
      <trkpt lat="45.05865" lon="5.4098">
        <ele>377.5</ele>
        <time>2015-10-18T07:10:53Z</time>
      </trkpt>
      <trkpt lat="45.0587" lon="5.40968">
        <ele>376.5</ele>
        <time>2015-10-18T07:10:54Z</time>
      </trkpt>
      <trkpt lat="45.05878" lon="5.40957">
        <ele>376</ele>
        <time>2015-10-18T07:10:55Z</time>
      </trkpt>
      <trkpt lat="45.05887" lon="5.40947">
        <ele>375.1</ele>
        <time>2015-10-18T07:10:56Z</time>
      </trkpt>
      <trkpt lat="45.05895" lon="5.40936">
        <ele>374.6</ele>
        <time>2015-10-18T07:10:57Z</time>
      </trkpt>
      <trkpt lat="45.059" lon="5.40923">
        <ele>373.6</ele>
        <time>2015-10-18T07:10:58Z</time>
      </trkpt>
      <trkpt lat="45.05903" lon="5.40908">
        <ele>373.1</ele>
        <time>2015-10-18T07:10:59Z</time>
      </trkpt>
      <trkpt lat="45.05903" lon="5.40893">
        <ele>372.7</ele>
        <time>2015-10-18T07:11:00Z</time>
      </trkpt>
      <trkpt lat="45.05903" lon="5.40879">
        <ele>371.7</ele>
        <time>2015-10-18T07:11:01Z</time>
      </trkpt>
      <trkpt lat="45.05905" lon="5.40864">
        <ele>370.7</ele>
        <time>2015-10-18T07:11:02Z</time>
      </trkpt>
      <trkpt lat="45.05909" lon="5.4085">
        <ele>369.8</ele>
        <time>2015-10-18T07:11:03Z</time>
      </trkpt>
      <trkpt lat="45.05916" lon="5.40838">
        <ele>368.8</ele>
        <time>2015-10-18T07:11:04Z</time>
      </trkpt>
      <trkpt lat="45.05925" lon="5.40827">
        <ele>368.3</ele>
        <time>2015-10-18T07:11:05Z</time>
      </trkpt>
      <trkpt lat="45.05936" lon="5.40817">
        <ele>367.4</ele>
        <time>2015-10-18T07:11:06Z</time>
      </trkpt>
      <trkpt lat="45.05947" lon="5.40808">
        <ele>366.4</ele>
        <time>2015-10-18T07:11:07Z</time>
      </trkpt>
      <trkpt lat="45.06026" lon="5.40738">
        <ele>361.1</ele>
        <time>2015-10-18T07:11:14Z</time>
      </trkpt>
      <trkpt lat="45.06035" lon="5.40725">
        <ele>360.6</ele>
        <time>2015-10-18T07:11:15Z</time>
      </trkpt>
      <trkpt lat="45.06043" lon="5.40711">
        <ele>359.7</ele>
        <time>2015-10-18T07:11:16Z</time>
      </trkpt>
      <trkpt lat="45.0605" lon="5.40695">
        <ele>358.7</ele>
        <time>2015-10-18T07:11:17Z</time>
      </trkpt>
      <trkpt lat="45.06056" lon="5.4068">
        <ele>357.3</ele>
        <time>2015-10-18T07:11:18Z</time>
      </trkpt>
      <trkpt lat="45.06072" lon="5.40653">
        <ele>354.9</ele>
        <time>2015-10-18T07:11:20Z</time>
      </trkpt>
      <trkpt lat="45.06082" lon="5.40644">
        <ele>353.9</ele>
        <time>2015-10-18T07:11:21Z</time>
      </trkpt>
      <trkpt lat="45.06093" lon="5.40637">
        <ele>354.9</ele>
        <time>2015-10-18T07:11:22Z</time>
      </trkpt>
      <trkpt lat="45.06105" lon="5.40633">
        <ele>356.3</ele>
        <time>2015-10-18T07:11:23Z</time>
      </trkpt>
      <trkpt lat="45.06117" lon="5.40634">
        <ele>356.8</ele>
        <time>2015-10-18T07:11:24Z</time>
      </trkpt>
      <trkpt lat="45.06128" lon="5.4063">
        <ele>357.3</ele>
        <time>2015-10-18T07:11:25Z</time>
      </trkpt>
      <trkpt lat="45.06139" lon="5.4063">
        <ele>355.8</ele>
        <time>2015-10-18T07:11:26Z</time>
      </trkpt>
      <trkpt lat="45.06148" lon="5.40624">
        <ele>355.3</ele>
        <time>2015-10-18T07:11:27Z</time>
      </trkpt>
      <trkpt lat="45.06154" lon="5.40614">
        <ele>354.9</ele>
        <time>2015-10-18T07:11:28Z</time>
      </trkpt>
      <trkpt lat="45.06157" lon="5.406">
        <ele>354.4</ele>
        <time>2015-10-18T07:11:29Z</time>
      </trkpt>
      <trkpt lat="45.06163" lon="5.40587">
        <ele>352.9</ele>
        <time>2015-10-18T07:11:30Z</time>
      </trkpt>
      <trkpt lat="45.0617" lon="5.40576">
        <ele>352.5</ele>
        <time>2015-10-18T07:11:31Z</time>
      </trkpt>
      <trkpt lat="45.06176" lon="5.40565">
        <ele>351.5</ele>
        <time>2015-10-18T07:11:32Z</time>
      </trkpt>
      <trkpt lat="45.06177" lon="5.4055">
        <ele>350.1</ele>
        <time>2015-10-18T07:11:33Z</time>
      </trkpt>
      <trkpt lat="45.06176" lon="5.40534">
        <ele>349.6</ele>
        <time>2015-10-18T07:11:34Z</time>
      </trkpt>
      <trkpt lat="45.06172" lon="5.40521">
        <ele>347.2</ele>
        <time>2015-10-18T07:11:35Z</time>
      </trkpt>
      <trkpt lat="45.06168" lon="5.40508">
        <ele>345.7</ele>
        <time>2015-10-18T07:11:36Z</time>
      </trkpt>
      <trkpt lat="45.06165" lon="5.40494">
        <ele>344.8</ele>
        <time>2015-10-18T07:11:37Z</time>
      </trkpt>
      <trkpt lat="45.06165" lon="5.40479">
        <ele>344.8</ele>
        <time>2015-10-18T07:11:38Z</time>
      </trkpt>
      <trkpt lat="45.06167" lon="5.40463">
        <ele>343.8</ele>
        <time>2015-10-18T07:11:39Z</time>
      </trkpt>
      <trkpt lat="45.0617" lon="5.40448">
        <ele>343.3</ele>
        <time>2015-10-18T07:11:40Z</time>
      </trkpt>
      <trkpt lat="45.06174" lon="5.40433">
        <ele>342.4</ele>
        <time>2015-10-18T07:11:41Z</time>
      </trkpt>
      <trkpt lat="45.06192" lon="5.40354">
        <ele>339.5</ele>
        <time>2015-10-18T07:11:46Z</time>
      </trkpt>
      <trkpt lat="45.06199" lon="5.40338">
        <ele>338.5</ele>
        <time>2015-10-18T07:11:47Z</time>
      </trkpt>
      <trkpt lat="45.06207" lon="5.40323">
        <ele>338</ele>
        <time>2015-10-18T07:11:48Z</time>
      </trkpt>
      <trkpt lat="45.06235" lon="5.40267">
        <ele>335.2</ele>
        <time>2015-10-18T07:11:52Z</time>
      </trkpt>
      <trkpt lat="45.06238" lon="5.40251">
        <ele>334.7</ele>
        <time>2015-10-18T07:11:53Z</time>
      </trkpt>
      <trkpt lat="45.06239" lon="5.40232">
        <ele>334.2</ele>
        <time>2015-10-18T07:11:54Z</time>
      </trkpt>
      <trkpt lat="45.06241" lon="5.40136">
        <ele>331.8</ele>
        <time>2015-10-18T07:11:59Z</time>
      </trkpt>
      <trkpt lat="45.06245" lon="5.40118">
        <ele>330.8</ele>
        <time>2015-10-18T07:12:00Z</time>
      </trkpt>
      <trkpt lat="45.06249" lon="5.40099">
        <ele>329.9</ele>
        <time>2015-10-18T07:12:01Z</time>
      </trkpt>
      <trkpt lat="45.06273" lon="5.40034">
        <ele>326.5</ele>
        <time>2015-10-18T07:12:05Z</time>
      </trkpt>
      <trkpt lat="45.06281" lon="5.40021">
        <ele>326</ele>
        <time>2015-10-18T07:12:06Z</time>
      </trkpt>
      <trkpt lat="45.0629" lon="5.4001">
        <ele>325.1</ele>
        <time>2015-10-18T07:12:07Z</time>
      </trkpt>
      <trkpt lat="45.063" lon="5.40001">
        <ele>324.1</ele>
        <time>2015-10-18T07:12:08Z</time>
      </trkpt>
      <trkpt lat="45.0631" lon="5.39993">
        <ele>323.1</ele>
        <time>2015-10-18T07:12:09Z</time>
      </trkpt>
      <trkpt lat="45.06321" lon="5.39985">
        <ele>322.7</ele>
        <time>2015-10-18T07:12:10Z</time>
      </trkpt>
      <trkpt lat="45.06413" lon="5.39897">
        <ele>314.5</ele>
        <time>2015-10-18T07:12:18Z</time>
      </trkpt>
      <trkpt lat="45.06425" lon="5.39886">
        <ele>313.5</ele>
        <time>2015-10-18T07:12:19Z</time>
      </trkpt>
      <trkpt lat="45.06435" lon="5.39874">
        <ele>312.6</ele>
        <time>2015-10-18T07:12:20Z</time>
      </trkpt>
      <trkpt lat="45.06443" lon="5.39859">
        <ele>311.6</ele>
        <time>2015-10-18T07:12:21Z</time>
      </trkpt>
      <trkpt lat="45.06452" lon="5.39841">
        <ele>310.6</ele>
        <time>2015-10-18T07:12:22Z</time>
      </trkpt>
      <trkpt lat="45.0646" lon="5.39824">
        <ele>309.7</ele>
        <time>2015-10-18T07:12:23Z</time>
      </trkpt>
      <trkpt lat="45.06543" lon="5.39668">
        <ele>300.6</ele>
        <time>2015-10-18T07:12:33Z</time>
      </trkpt>
      <trkpt lat="45.0655" lon="5.39653">
        <ele>300.1</ele>
        <time>2015-10-18T07:12:34Z</time>
      </trkpt>
      <trkpt lat="45.06555" lon="5.39636">
        <ele>299.6</ele>
        <time>2015-10-18T07:12:35Z</time>
      </trkpt>
      <trkpt lat="45.06557" lon="5.39618">
        <ele>298.6</ele>
        <time>2015-10-18T07:12:36Z</time>
      </trkpt>
      <trkpt lat="45.06556" lon="5.39597">
        <ele>297.7</ele>
        <time>2015-10-18T07:12:37Z</time>
      </trkpt>
      <trkpt lat="45.06554" lon="5.39575">
        <ele>297.2</ele>
        <time>2015-10-18T07:12:38Z</time>
      </trkpt>
      <trkpt lat="45.06552" lon="5.39553">
        <ele>296.7</ele>
        <time>2015-10-18T07:12:39Z</time>
      </trkpt>
      <trkpt lat="45.06547" lon="5.39454">
        <ele>293.3</ele>
        <time>2015-10-18T07:12:44Z</time>
      </trkpt>
      <trkpt lat="45.06549" lon="5.39436">
        <ele>291.9</ele>
        <time>2015-10-18T07:12:45Z</time>
      </trkpt>
      <trkpt lat="45.06553" lon="5.39419">
        <ele>290.9</ele>
        <time>2015-10-18T07:12:46Z</time>
      </trkpt>
      <trkpt lat="45.06558" lon="5.39403">
        <ele>290</ele>
        <time>2015-10-18T07:12:47Z</time>
      </trkpt>
      <trkpt lat="45.06566" lon="5.39388">
        <ele>289</ele>
        <time>2015-10-18T07:12:48Z</time>
      </trkpt>
      <trkpt lat="45.06576" lon="5.39374">
        <ele>288.1</ele>
        <time>2015-10-18T07:12:49Z</time>
      </trkpt>
      <trkpt lat="45.06586" lon="5.3936">
        <ele>287.6</ele>
        <time>2015-10-18T07:12:50Z</time>
      </trkpt>
      <trkpt lat="45.06627" lon="5.3929">
        <ele>284.2</ele>
        <time>2015-10-18T07:12:55Z</time>
      </trkpt>
      <trkpt lat="45.06635" lon="5.39279">
        <ele>283.7</ele>
        <time>2015-10-18T07:12:56Z</time>
      </trkpt>
      <trkpt lat="45.06644" lon="5.39269">
        <ele>284.2</ele>
        <time>2015-10-18T07:12:57Z</time>
      </trkpt>
      <trkpt lat="45.06653" lon="5.39262">
        <ele>283.7</ele>
        <time>2015-10-18T07:12:58Z</time>
      </trkpt>
      <trkpt lat="45.06663" lon="5.39258">
        <ele>283.3</ele>
        <time>2015-10-18T07:12:59Z</time>
      </trkpt>
      <trkpt lat="45.06672" lon="5.39255">
        <ele>283.7</ele>
        <time>2015-10-18T07:13:00Z</time>
      </trkpt>
      <trkpt lat="45.06681" lon="5.39253">
        <ele>284.2</ele>
        <time>2015-10-18T07:13:01Z</time>
      </trkpt>
      <trkpt lat="45.06689" lon="5.39252">
        <ele>284.7</ele>
        <time>2015-10-18T07:13:02Z</time>
      </trkpt>
      <trkpt lat="45.06697" lon="5.39254">
        <ele>284.2</ele>
        <time>2015-10-18T07:13:03Z</time>
      </trkpt>
      <trkpt lat="45.06702" lon="5.39248">
        <ele>283.7</ele>
        <time>2015-10-18T07:13:04Z</time>
      </trkpt>
      <trkpt lat="45.06705" lon="5.39242">
        <ele>283.3</ele>
        <time>2015-10-18T07:13:05Z</time>
      </trkpt>
      <trkpt lat="45.06705" lon="5.39233">
        <ele>282.8</ele>
        <time>2015-10-18T07:13:06Z</time>
      </trkpt>
      <trkpt lat="45.06703" lon="5.39226">
        <ele>281.3</ele>
        <time>2015-10-18T07:13:07Z</time>
      </trkpt>
      <trkpt lat="45.06698" lon="5.39215">
        <ele>280.8</ele>
        <time>2015-10-18T07:13:08Z</time>
      </trkpt>
      <trkpt lat="45.06695" lon="5.39205">
        <ele>280.8</ele>
        <time>2015-10-18T07:13:09Z</time>
      </trkpt>
      <trkpt lat="45.06692" lon="5.39195">
        <ele>280.8</ele>
        <time>2015-10-18T07:13:10Z</time>
      </trkpt>
      <trkpt lat="45.0669" lon="5.39186">
        <ele>280.4</ele>
        <time>2015-10-18T07:13:11Z</time>
      </trkpt>
      <trkpt lat="45.0669" lon="5.39178">
        <ele>280.8</ele>
        <time>2015-10-18T07:13:12Z</time>
      </trkpt>
      <trkpt lat="45.0669" lon="5.39171">
        <ele>281.3</ele>
        <time>2015-10-18T07:13:13Z</time>
      </trkpt>
      <trkpt lat="45.06685" lon="5.39116">
        <ele>283.7</ele>
        <time>2015-10-18T07:13:20Z</time>
      </trkpt>
      <trkpt lat="45.06684" lon="5.39109">
        <ele>283.7</ele>
        <time>2015-10-18T07:13:21Z</time>
      </trkpt>
      <trkpt lat="45.06682" lon="5.39102">
        <ele>283.7</ele>
        <time>2015-10-18T07:13:22Z</time>
      </trkpt>
      <trkpt lat="45.06678" lon="5.39095">
        <ele>283.3</ele>
        <time>2015-10-18T07:13:23Z</time>
      </trkpt>
      <trkpt lat="45.06674" lon="5.39088">
        <ele>283.3</ele>
        <time>2015-10-18T07:13:24Z</time>
      </trkpt>
      <trkpt lat="45.0667" lon="5.39081">
        <ele>283.3</ele>
        <time>2015-10-18T07:13:25Z</time>
      </trkpt>
      <trkpt lat="45.06666" lon="5.39073">
        <ele>283.3</ele>
        <time>2015-10-18T07:13:26Z</time>
      </trkpt>
      <trkpt lat="45.06663" lon="5.39066">
        <ele>283.3</ele>
        <time>2015-10-18T07:13:27Z</time>
      </trkpt>
      <trkpt lat="45.06662" lon="5.3906">
        <ele>283.3</ele>
        <time>2015-10-18T07:13:28Z</time>
      </trkpt>
      <trkpt lat="45.0666" lon="5.39056">
        <ele>283.3</ele>
        <time>2015-10-18T07:13:29Z</time>
      </trkpt>
      <trkpt lat="45.06654" lon="5.39032">
        <ele>281.3</ele>
        <time>2015-10-18T07:13:39Z</time>
      </trkpt>
      <trkpt lat="45.06652" lon="5.39033">
        <ele>281.8</ele>
        <time>2015-10-18T07:14:23Z</time>
      </trkpt>
      <trkpt lat="45.06653" lon="5.39034">
        <ele>282.3</ele>
        <time>2015-10-18T07:14:30Z</time>
      </trkpt>
      <trkpt lat="45.06652" lon="5.39036">
        <ele>282.3</ele>
        <time>2015-10-18T07:14:31Z</time>
      </trkpt>
      <trkpt lat="45.06652" lon="5.3904">
        <ele>282.8</ele>
        <time>2015-10-18T07:14:32Z</time>
      </trkpt>
      <trkpt lat="45.06653" lon="5.39045">
        <ele>282.8</ele>
        <time>2015-10-18T07:14:33Z</time>
      </trkpt>
      <trkpt lat="45.06654" lon="5.39051">
        <ele>282.8</ele>
        <time>2015-10-18T07:14:34Z</time>
      </trkpt>
      <trkpt lat="45.0666" lon="5.3907">
        <ele>281.8</ele>
        <time>2015-10-18T07:14:38Z</time>
      </trkpt>
      <trkpt lat="45.06663" lon="5.39077">
        <ele>281.8</ele>
        <time>2015-10-18T07:14:39Z</time>
      </trkpt>
      <trkpt lat="45.06666" lon="5.39084">
        <ele>281.3</ele>
        <time>2015-10-18T07:14:40Z</time>
      </trkpt>
      <trkpt lat="45.0667" lon="5.3909">
        <ele>282.3</ele>
        <time>2015-10-18T07:14:41Z</time>
      </trkpt>
      <trkpt lat="45.06673" lon="5.39095">
        <ele>283.7</ele>
        <time>2015-10-18T07:14:42Z</time>
      </trkpt>
      <trkpt lat="45.06684" lon="5.39113">
        <ele>290.9</ele>
        <time>2015-10-18T07:14:48Z</time>
      </trkpt>
      <trkpt lat="45.06685" lon="5.39111">
        <ele>289.5</ele>
        <time>2015-10-18T07:15:02Z</time>
      </trkpt>
      <trkpt lat="45.06685" lon="5.39109">
        <ele>289</ele>
        <time>2015-10-18T07:15:04Z</time>
      </trkpt>
      <trkpt lat="45.06683" lon="5.39106">
        <ele>289</ele>
        <time>2015-10-18T07:15:05Z</time>
      </trkpt>
      <trkpt lat="45.06666" lon="5.39076">
        <ele>285.7</ele>
        <time>2015-10-18T07:15:11Z</time>
      </trkpt>
      <trkpt lat="45.06665" lon="5.3907">
        <ele>284.7</ele>
        <time>2015-10-18T07:15:12Z</time>
      </trkpt>
      <trkpt lat="45.06666" lon="5.39063">
        <ele>284.2</ele>
        <time>2015-10-18T07:15:13Z</time>
      </trkpt>
      <trkpt lat="45.06668" lon="5.39056">
        <ele>283.7</ele>
        <time>2015-10-18T07:15:14Z</time>
      </trkpt>
      <trkpt lat="45.0667" lon="5.39049">
        <ele>283.7</ele>
        <time>2015-10-18T07:15:15Z</time>
      </trkpt>
      <trkpt lat="45.06671" lon="5.39043">
        <ele>283.3</ele>
        <time>2015-10-18T07:15:16Z</time>
      </trkpt>
      <trkpt lat="45.0667" lon="5.39035">
        <ele>283.7</ele>
        <time>2015-10-18T07:15:17Z</time>
      </trkpt>
      <trkpt lat="45.06668" lon="5.39028">
        <ele>283.7</ele>
        <time>2015-10-18T07:15:18Z</time>
      </trkpt>
      <trkpt lat="45.06666" lon="5.39021">
        <ele>283.7</ele>
        <time>2015-10-18T07:15:19Z</time>
      </trkpt>
      <trkpt lat="45.06663" lon="5.39014">
        <ele>283.7</ele>
        <time>2015-10-18T07:15:20Z</time>
      </trkpt>
      <trkpt lat="45.06662" lon="5.39007">
        <ele>283.7</ele>
        <time>2015-10-18T07:15:21Z</time>
      </trkpt>
      <trkpt lat="45.06663" lon="5.39001">
        <ele>284.2</ele>
        <time>2015-10-18T07:15:22Z</time>
      </trkpt>
      <trkpt lat="45.06664" lon="5.38995">
        <ele>284.7</ele>
        <time>2015-10-18T07:15:23Z</time>
      </trkpt>
      <trkpt lat="45.06666" lon="5.3899">
        <ele>285.2</ele>
        <time>2015-10-18T07:15:24Z</time>
      </trkpt>
      <trkpt lat="45.06668" lon="5.38984">
        <ele>285.7</ele>
        <time>2015-10-18T07:15:25Z</time>
      </trkpt>
      <trkpt lat="45.0667" lon="5.38979">
        <ele>285.7</ele>
        <time>2015-10-18T07:15:26Z</time>
      </trkpt>
      <trkpt lat="45.06673" lon="5.38974">
        <ele>286.1</ele>
        <time>2015-10-18T07:15:27Z</time>
      </trkpt>
      <trkpt lat="45.0669" lon="5.38948">
        <ele>287.1</ele>
        <time>2015-10-18T07:15:31Z</time>
      </trkpt>
      <trkpt lat="45.06696" lon="5.38943">
        <ele>287.1</ele>
        <time>2015-10-18T07:15:32Z</time>
      </trkpt>
      <trkpt lat="45.06702" lon="5.38939">
        <ele>287.6</ele>
        <time>2015-10-18T07:15:33Z</time>
      </trkpt>
      <trkpt lat="45.06708" lon="5.38935">
        <ele>288.1</ele>
        <time>2015-10-18T07:15:34Z</time>
      </trkpt>
      <trkpt lat="45.06715" lon="5.38932">
        <ele>288.5</ele>
        <time>2015-10-18T07:15:35Z</time>
      </trkpt>
      <trkpt lat="45.06721" lon="5.38931">
        <ele>288.5</ele>
        <time>2015-10-18T07:15:36Z</time>
      </trkpt>
      <trkpt lat="45.06728" lon="5.3893">
        <ele>289.5</ele>
        <time>2015-10-18T07:15:37Z</time>
      </trkpt>
      <trkpt lat="45.06747" lon="5.38921">
        <ele>290.5</ele>
        <time>2015-10-18T07:15:44Z</time>
      </trkpt>
      <trkpt lat="45.06745" lon="5.38924">
        <ele>290.9</ele>
        <time>2015-10-18T07:16:38Z</time>
      </trkpt>
      <trkpt lat="45.06751" lon="5.38895">
        <ele>291.4</ele>
        <time>2015-10-18T07:16:46Z</time>
      </trkpt>
      <trkpt lat="45.06751" lon="5.38884">
        <ele>291.9</ele>
        <time>2015-10-18T07:16:47Z</time>
      </trkpt>
      <trkpt lat="45.06751" lon="5.38862">
        <ele>294.3</ele>
        <time>2015-10-18T07:16:49Z</time>
      </trkpt>
      <trkpt lat="45.06753" lon="5.38849">
        <ele>294.3</ele>
        <time>2015-10-18T07:16:50Z</time>
      </trkpt>
      <trkpt lat="45.06756" lon="5.38837">
        <ele>294.8</ele>
        <time>2015-10-18T07:16:51Z</time>
      </trkpt>
      <trkpt lat="45.06774" lon="5.38769">
        <ele>297.7</ele>
        <time>2015-10-18T07:16:56Z</time>
      </trkpt>
      <trkpt lat="45.0678" lon="5.38758">
        <ele>298.2</ele>
        <time>2015-10-18T07:16:57Z</time>
      </trkpt>
      <trkpt lat="45.06787" lon="5.38746">
        <ele>298.6</ele>
        <time>2015-10-18T07:16:58Z</time>
      </trkpt>
      <trkpt lat="45.06793" lon="5.38733">
        <ele>299.1</ele>
        <time>2015-10-18T07:16:59Z</time>
      </trkpt>
      <trkpt lat="45.06798" lon="5.38718">
        <ele>299.6</ele>
        <time>2015-10-18T07:17:00Z</time>
      </trkpt>
      <trkpt lat="45.06802" lon="5.38703">
        <ele>300.6</ele>
        <time>2015-10-18T07:17:01Z</time>
      </trkpt>
      <trkpt lat="45.0682" lon="5.38622">
        <ele>304.4</ele>
        <time>2015-10-18T07:17:06Z</time>
      </trkpt>
      <trkpt lat="45.06824" lon="5.38608">
        <ele>304.9</ele>
        <time>2015-10-18T07:17:07Z</time>
      </trkpt>
      <trkpt lat="45.0683" lon="5.38594">
        <ele>305.8</ele>
        <time>2015-10-18T07:17:08Z</time>
      </trkpt>
      <trkpt lat="45.0684" lon="5.38565">
        <ele>307.3</ele>
        <time>2015-10-18T07:17:10Z</time>
      </trkpt>
      <trkpt lat="45.06843" lon="5.3855">
        <ele>308.2</ele>
        <time>2015-10-18T07:17:11Z</time>
      </trkpt>
      <trkpt lat="45.06848" lon="5.38521">
        <ele>309.7</ele>
        <time>2015-10-18T07:17:13Z</time>
      </trkpt>
      <trkpt lat="45.06852" lon="5.38508">
        <ele>310.6</ele>
        <time>2015-10-18T07:17:14Z</time>
      </trkpt>
      <trkpt lat="45.06857" lon="5.38497">
        <ele>311.6</ele>
        <time>2015-10-18T07:17:15Z</time>
      </trkpt>
      <trkpt lat="45.06862" lon="5.38488">
        <ele>312.6</ele>
        <time>2015-10-18T07:17:16Z</time>
      </trkpt>
      <trkpt lat="45.06867" lon="5.38479">
        <ele>313.1</ele>
        <time>2015-10-18T07:17:17Z</time>
      </trkpt>
      <trkpt lat="45.06868" lon="5.38469">
        <ele>313.5</ele>
        <time>2015-10-18T07:17:18Z</time>
      </trkpt>
      <trkpt lat="45.06866" lon="5.38458">
        <ele>315</ele>
        <time>2015-10-18T07:17:19Z</time>
      </trkpt>
      <trkpt lat="45.06862" lon="5.38445">
        <ele>315.9</ele>
        <time>2015-10-18T07:17:20Z</time>
      </trkpt>
      <trkpt lat="45.06857" lon="5.38431">
        <ele>316.9</ele>
        <time>2015-10-18T07:17:21Z</time>
      </trkpt>
      <trkpt lat="45.06853" lon="5.38416">
        <ele>317.4</ele>
        <time>2015-10-18T07:17:22Z</time>
      </trkpt>
      <trkpt lat="45.0685" lon="5.38402">
        <ele>317.9</ele>
        <time>2015-10-18T07:17:23Z</time>
      </trkpt>
      <trkpt lat="45.06849" lon="5.38389">
        <ele>318.8</ele>
        <time>2015-10-18T07:17:24Z</time>
      </trkpt>
      <trkpt lat="45.06851" lon="5.38377">
        <ele>319.3</ele>
        <time>2015-10-18T07:17:25Z</time>
      </trkpt>
      <trkpt lat="45.06855" lon="5.38366">
        <ele>319.8</ele>
        <time>2015-10-18T07:17:26Z</time>
      </trkpt>
      <trkpt lat="45.0686" lon="5.38356">
        <ele>320.3</ele>
        <time>2015-10-18T07:17:27Z</time>
      </trkpt>
      <trkpt lat="45.06864" lon="5.38347">
        <ele>320.7</ele>
        <time>2015-10-18T07:17:28Z</time>
      </trkpt>
      <trkpt lat="45.06865" lon="5.38336">
        <ele>321.2</ele>
        <time>2015-10-18T07:17:29Z</time>
      </trkpt>
      <trkpt lat="45.06861" lon="5.38325">
        <ele>321.2</ele>
        <time>2015-10-18T07:17:30Z</time>
      </trkpt>
      <trkpt lat="45.06856" lon="5.38313">
        <ele>321.7</ele>
        <time>2015-10-18T07:17:31Z</time>
      </trkpt>
      <trkpt lat="45.06851" lon="5.38299">
        <ele>322.2</ele>
        <time>2015-10-18T07:17:32Z</time>
      </trkpt>
      <trkpt lat="45.06848" lon="5.38284">
        <ele>322.7</ele>
        <time>2015-10-18T07:17:33Z</time>
      </trkpt>
      <trkpt lat="45.06846" lon="5.38267">
        <ele>323.6</ele>
        <time>2015-10-18T07:17:34Z</time>
      </trkpt>
      <trkpt lat="45.06845" lon="5.38251">
        <ele>324.6</ele>
        <time>2015-10-18T07:17:35Z</time>
      </trkpt>
      <trkpt lat="45.06844" lon="5.38236">
        <ele>325.1</ele>
        <time>2015-10-18T07:17:36Z</time>
      </trkpt>
      <trkpt lat="45.06846" lon="5.38224">
        <ele>326</ele>
        <time>2015-10-18T07:17:37Z</time>
      </trkpt>
      <trkpt lat="45.0685" lon="5.38213">
        <ele>326.5</ele>
        <time>2015-10-18T07:17:38Z</time>
      </trkpt>
      <trkpt lat="45.06855" lon="5.38203">
        <ele>327.5</ele>
        <time>2015-10-18T07:17:39Z</time>
      </trkpt>
      <trkpt lat="45.06861" lon="5.38195">
        <ele>328.4</ele>
        <time>2015-10-18T07:17:40Z</time>
      </trkpt>
      <trkpt lat="45.06864" lon="5.38182">
        <ele>329.4</ele>
        <time>2015-10-18T07:17:41Z</time>
      </trkpt>
      <trkpt lat="45.06866" lon="5.38169">
        <ele>329.9</ele>
        <time>2015-10-18T07:17:42Z</time>
      </trkpt>
      <trkpt lat="45.06864" lon="5.38155">
        <ele>330.8</ele>
        <time>2015-10-18T07:17:43Z</time>
      </trkpt>
      <trkpt lat="45.06865" lon="5.38141">
        <ele>331.8</ele>
        <time>2015-10-18T07:17:44Z</time>
      </trkpt>
      <trkpt lat="45.06867" lon="5.38127">
        <ele>332.3</ele>
        <time>2015-10-18T07:17:45Z</time>
      </trkpt>
      <trkpt lat="45.06869" lon="5.38112">
        <ele>333.2</ele>
        <time>2015-10-18T07:17:46Z</time>
      </trkpt>
      <trkpt lat="45.06878" lon="5.38051">
        <ele>336.1</ele>
        <time>2015-10-18T07:17:50Z</time>
      </trkpt>
      <trkpt lat="45.06878" lon="5.38037">
        <ele>336.6</ele>
        <time>2015-10-18T07:17:51Z</time>
      </trkpt>
      <trkpt lat="45.06875" lon="5.38024">
        <ele>337.1</ele>
        <time>2015-10-18T07:17:52Z</time>
      </trkpt>
      <trkpt lat="45.06871" lon="5.38012">
        <ele>337.6</ele>
        <time>2015-10-18T07:17:53Z</time>
      </trkpt>
      <trkpt lat="45.06868" lon="5.37999">
        <ele>338</ele>
        <time>2015-10-18T07:17:54Z</time>
      </trkpt>
      <trkpt lat="45.06866" lon="5.37986">
        <ele>338.5</ele>
        <time>2015-10-18T07:17:55Z</time>
      </trkpt>
      <trkpt lat="45.06865" lon="5.37973">
        <ele>339</ele>
        <time>2015-10-18T07:17:56Z</time>
      </trkpt>
      <trkpt lat="45.06866" lon="5.3796">
        <ele>339.5</ele>
        <time>2015-10-18T07:17:57Z</time>
      </trkpt>
      <trkpt lat="45.06868" lon="5.37947">
        <ele>340.4</ele>
        <time>2015-10-18T07:17:58Z</time>
      </trkpt>
      <trkpt lat="45.06872" lon="5.37934">
        <ele>340.9</ele>
        <time>2015-10-18T07:17:59Z</time>
      </trkpt>
      <trkpt lat="45.06877" lon="5.37921">
        <ele>341.9</ele>
        <time>2015-10-18T07:18:00Z</time>
      </trkpt>
      <trkpt lat="45.06889" lon="5.37895">
        <ele>343.3</ele>
        <time>2015-10-18T07:18:02Z</time>
      </trkpt>
      <trkpt lat="45.06896" lon="5.37883">
        <ele>344.3</ele>
        <time>2015-10-18T07:18:03Z</time>
      </trkpt>
      <trkpt lat="45.06947" lon="5.37806">
        <ele>349.6</ele>
        <time>2015-10-18T07:18:10Z</time>
      </trkpt>
      <trkpt lat="45.0695" lon="5.37795">
        <ele>350.5</ele>
        <time>2015-10-18T07:18:11Z</time>
      </trkpt>
      <trkpt lat="45.06951" lon="5.37783">
        <ele>351</ele>
        <time>2015-10-18T07:18:12Z</time>
      </trkpt>
      <trkpt lat="45.06949" lon="5.37771">
        <ele>352</ele>
        <time>2015-10-18T07:18:13Z</time>
      </trkpt>
      <trkpt lat="45.06945" lon="5.37759">
        <ele>352.5</ele>
        <time>2015-10-18T07:18:14Z</time>
      </trkpt>
      <trkpt lat="45.0694" lon="5.37747">
        <ele>352.9</ele>
        <time>2015-10-18T07:18:15Z</time>
      </trkpt>
      <trkpt lat="45.06937" lon="5.37736">
        <ele>353.4</ele>
        <time>2015-10-18T07:18:16Z</time>
      </trkpt>
      <trkpt lat="45.06935" lon="5.37726">
        <ele>354.4</ele>
        <time>2015-10-18T07:18:17Z</time>
      </trkpt>
      <trkpt lat="45.06937" lon="5.37716">
        <ele>354.9</ele>
        <time>2015-10-18T07:18:18Z</time>
      </trkpt>
      <trkpt lat="45.06941" lon="5.37706">
        <ele>355.8</ele>
        <time>2015-10-18T07:18:19Z</time>
      </trkpt>
      <trkpt lat="45.06948" lon="5.37696">
        <ele>356.3</ele>
        <time>2015-10-18T07:18:20Z</time>
      </trkpt>
      <trkpt lat="45.06956" lon="5.37684">
        <ele>357.3</ele>
        <time>2015-10-18T07:18:21Z</time>
      </trkpt>
      <trkpt lat="45.06963" lon="5.3767">
        <ele>357.8</ele>
        <time>2015-10-18T07:18:22Z</time>
      </trkpt>
      <trkpt lat="45.0697" lon="5.37655">
        <ele>358.2</ele>
        <time>2015-10-18T07:18:23Z</time>
      </trkpt>
      <trkpt lat="45.06976" lon="5.3764">
        <ele>359.2</ele>
        <time>2015-10-18T07:18:24Z</time>
      </trkpt>
      <trkpt lat="45.06997" lon="5.37578">
        <ele>362.1</ele>
        <time>2015-10-18T07:18:28Z</time>
      </trkpt>
      <trkpt lat="45.06999" lon="5.37562">
        <ele>362.6</ele>
        <time>2015-10-18T07:18:29Z</time>
      </trkpt>
      <trkpt lat="45.07" lon="5.37544">
        <ele>363.5</ele>
        <time>2015-10-18T07:18:30Z</time>
      </trkpt>
      <trkpt lat="45.07" lon="5.37526">
        <ele>364</ele>
        <time>2015-10-18T07:18:31Z</time>
      </trkpt>
      <trkpt lat="45.07" lon="5.37508">
        <ele>364.5</ele>
        <time>2015-10-18T07:18:32Z</time>
      </trkpt>
      <trkpt lat="45.06992" lon="5.37409">
        <ele>368.3</ele>
        <time>2015-10-18T07:18:38Z</time>
      </trkpt>
      <trkpt lat="45.06992" lon="5.37397">
        <ele>368.8</ele>
        <time>2015-10-18T07:18:39Z</time>
      </trkpt>
      <trkpt lat="45.06994" lon="5.37385">
        <ele>369.3</ele>
        <time>2015-10-18T07:18:40Z</time>
      </trkpt>
      <trkpt lat="45.06999" lon="5.37376">
        <ele>369.8</ele>
        <time>2015-10-18T07:18:41Z</time>
      </trkpt>
      <trkpt lat="45.07006" lon="5.37369">
        <ele>370.2</ele>
        <time>2015-10-18T07:18:42Z</time>
      </trkpt>
      <trkpt lat="45.07014" lon="5.37362">
        <ele>370.7</ele>
        <time>2015-10-18T07:18:43Z</time>
      </trkpt>
      <trkpt lat="45.07023" lon="5.37355">
        <ele>370.7</ele>
        <time>2015-10-18T07:18:44Z</time>
      </trkpt>
      <trkpt lat="45.07059" lon="5.37326">
        <ele>372.7</ele>
        <time>2015-10-18T07:18:48Z</time>
      </trkpt>
      <trkpt lat="45.07068" lon="5.37321">
        <ele>372.7</ele>
        <time>2015-10-18T07:18:49Z</time>
      </trkpt>
      <trkpt lat="45.07076" lon="5.37319">
        <ele>373.1</ele>
        <time>2015-10-18T07:18:50Z</time>
      </trkpt>
      <trkpt lat="45.07093" lon="5.37317">
        <ele>373.6</ele>
        <time>2015-10-18T07:18:52Z</time>
      </trkpt>
      <trkpt lat="45.07101" lon="5.37314">
        <ele>374.1</ele>
        <time>2015-10-18T07:18:53Z</time>
      </trkpt>
      <trkpt lat="45.07108" lon="5.3731">
        <ele>374.1</ele>
        <time>2015-10-18T07:18:54Z</time>
      </trkpt>
      <trkpt lat="45.07117" lon="5.37288">
        <ele>374.1</ele>
        <time>2015-10-18T07:18:57Z</time>
      </trkpt>
      <trkpt lat="45.07109" lon="5.37275">
        <ele>374.1</ele>
        <time>2015-10-18T07:18:58Z</time>
      </trkpt>
      <trkpt lat="45.07102" lon="5.37265">
        <ele>373.6</ele>
        <time>2015-10-18T07:18:59Z</time>
      </trkpt>
      <trkpt lat="45.07093" lon="5.37258">
        <ele>373.1</ele>
        <time>2015-10-18T07:19:00Z</time>
      </trkpt>
      <trkpt lat="45.07086" lon="5.37251">
        <ele>373.1</ele>
        <time>2015-10-18T07:19:01Z</time>
      </trkpt>
      <trkpt lat="45.07073" lon="5.37237">
        <ele>372.7</ele>
        <time>2015-10-18T07:19:03Z</time>
      </trkpt>
      <trkpt lat="45.07061" lon="5.37221">
        <ele>372.7</ele>
        <time>2015-10-18T07:19:05Z</time>
      </trkpt>
      <trkpt lat="45.07053" lon="5.37215">
        <ele>373.6</ele>
        <time>2015-10-18T07:19:06Z</time>
      </trkpt>
      <trkpt lat="45.06996" lon="5.37164">
        <ele>377</ele>
        <time>2015-10-18T07:19:14Z</time>
      </trkpt>
      <trkpt lat="45.06991" lon="5.37155">
        <ele>377.9</ele>
        <time>2015-10-18T07:19:15Z</time>
      </trkpt>
      <trkpt lat="45.06986" lon="5.37145">
        <ele>378.4</ele>
        <time>2015-10-18T07:19:16Z</time>
      </trkpt>
      <trkpt lat="45.06982" lon="5.37133">
        <ele>379.4</ele>
        <time>2015-10-18T07:19:17Z</time>
      </trkpt>
      <trkpt lat="45.06979" lon="5.3712">
        <ele>379.9</ele>
        <time>2015-10-18T07:19:18Z</time>
      </trkpt>
      <trkpt lat="45.06976" lon="5.37107">
        <ele>380.3</ele>
        <time>2015-10-18T07:19:19Z</time>
      </trkpt>
      <trkpt lat="45.06974" lon="5.37094">
        <ele>381.3</ele>
        <time>2015-10-18T07:19:20Z</time>
      </trkpt>
      <trkpt lat="45.06973" lon="5.37081">
        <ele>381.8</ele>
        <time>2015-10-18T07:19:21Z</time>
      </trkpt>
      <trkpt lat="45.06973" lon="5.37056">
        <ele>382.7</ele>
        <time>2015-10-18T07:19:23Z</time>
      </trkpt>
      <trkpt lat="45.06974" lon="5.37043">
        <ele>383.7</ele>
        <time>2015-10-18T07:19:24Z</time>
      </trkpt>
      <trkpt lat="45.06976" lon="5.37031">
        <ele>384.2</ele>
        <time>2015-10-18T07:19:25Z</time>
      </trkpt>
      <trkpt lat="45.06979" lon="5.37018">
        <ele>385.2</ele>
        <time>2015-10-18T07:19:26Z</time>
      </trkpt>
      <trkpt lat="45.06983" lon="5.37005">
        <ele>386.1</ele>
        <time>2015-10-18T07:19:27Z</time>
      </trkpt>
      <trkpt lat="45.06988" lon="5.36992">
        <ele>387.1</ele>
        <time>2015-10-18T07:19:28Z</time>
      </trkpt>
      <trkpt lat="45.06994" lon="5.3698">
        <ele>387.6</ele>
        <time>2015-10-18T07:19:29Z</time>
      </trkpt>
      <trkpt lat="45.07" lon="5.36968">
        <ele>388.5</ele>
        <time>2015-10-18T07:19:30Z</time>
      </trkpt>
      <trkpt lat="45.07008" lon="5.36957">
        <ele>389.5</ele>
        <time>2015-10-18T07:19:31Z</time>
      </trkpt>
      <trkpt lat="45.07016" lon="5.36947">
        <ele>390.4</ele>
        <time>2015-10-18T07:19:32Z</time>
      </trkpt>
      <trkpt lat="45.07026" lon="5.36938">
        <ele>391.4</ele>
        <time>2015-10-18T07:19:33Z</time>
      </trkpt>
      <trkpt lat="45.07036" lon="5.3693">
        <ele>392.4</ele>
        <time>2015-10-18T07:19:34Z</time>
      </trkpt>
      <trkpt lat="45.07064" lon="5.36903">
        <ele>395.7</ele>
        <time>2015-10-18T07:19:37Z</time>
      </trkpt>
      <trkpt lat="45.07072" lon="5.36891">
        <ele>396.7</ele>
        <time>2015-10-18T07:19:38Z</time>
      </trkpt>
      <trkpt lat="45.07077" lon="5.36878">
        <ele>397.6</ele>
        <time>2015-10-18T07:19:39Z</time>
      </trkpt>
      <trkpt lat="45.07081" lon="5.36866">
        <ele>398.6</ele>
        <time>2015-10-18T07:19:40Z</time>
      </trkpt>
      <trkpt lat="45.07085" lon="5.36853">
        <ele>399.6</ele>
        <time>2015-10-18T07:19:41Z</time>
      </trkpt>
      <trkpt lat="45.07088" lon="5.36839">
        <ele>400.5</ele>
        <time>2015-10-18T07:19:42Z</time>
      </trkpt>
      <trkpt lat="45.0709" lon="5.36824">
        <ele>401.5</ele>
        <time>2015-10-18T07:19:43Z</time>
      </trkpt>
      <trkpt lat="45.07091" lon="5.36808">
        <ele>402.5</ele>
        <time>2015-10-18T07:19:44Z</time>
      </trkpt>
      <trkpt lat="45.07101" lon="5.36623">
        <ele>413.5</ele>
        <time>2015-10-18T07:19:55Z</time>
      </trkpt>
      <trkpt lat="45.07107" lon="5.36593">
        <ele>415.4</ele>
        <time>2015-10-18T07:19:57Z</time>
      </trkpt>
      <trkpt lat="45.07114" lon="5.36581">
        <ele>416.4</ele>
        <time>2015-10-18T07:19:58Z</time>
      </trkpt>
      <trkpt lat="45.07122" lon="5.36573">
        <ele>417.4</ele>
        <time>2015-10-18T07:19:59Z</time>
      </trkpt>
      <trkpt lat="45.07131" lon="5.36564">
        <ele>418.8</ele>
        <time>2015-10-18T07:20:00Z</time>
      </trkpt>
      <trkpt lat="45.07142" lon="5.36558">
        <ele>420.2</ele>
        <time>2015-10-18T07:20:01Z</time>
      </trkpt>
      <trkpt lat="45.07155" lon="5.36553">
        <ele>421.2</ele>
        <time>2015-10-18T07:20:02Z</time>
      </trkpt>
      <trkpt lat="45.07169" lon="5.3655">
        <ele>421.7</ele>
        <time>2015-10-18T07:20:03Z</time>
      </trkpt>
      <trkpt lat="45.07183" lon="5.36548">
        <ele>422.6</ele>
        <time>2015-10-18T07:20:04Z</time>
      </trkpt>
      <trkpt lat="45.07198" lon="5.3655">
        <ele>423.1</ele>
        <time>2015-10-18T07:20:05Z</time>
      </trkpt>
      <trkpt lat="45.07213" lon="5.3655">
        <ele>424.6</ele>
        <time>2015-10-18T07:20:06Z</time>
      </trkpt>
      <trkpt lat="45.07227" lon="5.36552">
        <ele>425.5</ele>
        <time>2015-10-18T07:20:07Z</time>
      </trkpt>
      <trkpt lat="45.07326" lon="5.36569">
        <ele>432.7</ele>
        <time>2015-10-18T07:20:14Z</time>
      </trkpt>
      <trkpt lat="45.07339" lon="5.36567">
        <ele>433.7</ele>
        <time>2015-10-18T07:20:15Z</time>
      </trkpt>
      <trkpt lat="45.07448" lon="5.36563">
        <ele>443.8</ele>
        <time>2015-10-18T07:20:23Z</time>
      </trkpt>
      <trkpt lat="45.07461" lon="5.36568">
        <ele>444.8</ele>
        <time>2015-10-18T07:20:24Z</time>
      </trkpt>
      <trkpt lat="45.07473" lon="5.36575">
        <ele>445.7</ele>
        <time>2015-10-18T07:20:25Z</time>
      </trkpt>
      <trkpt lat="45.07514" lon="5.36595">
        <ele>449.6</ele>
        <time>2015-10-18T07:20:29Z</time>
      </trkpt>
      <trkpt lat="45.07519" lon="5.3659">
        <ele>451.5</ele>
        <time>2015-10-18T07:20:30Z</time>
      </trkpt>
      <trkpt lat="45.07521" lon="5.36578">
        <ele>452.4</ele>
        <time>2015-10-18T07:20:31Z</time>
      </trkpt>
      <trkpt lat="45.07521" lon="5.36565">
        <ele>453.4</ele>
        <time>2015-10-18T07:20:32Z</time>
      </trkpt>
      <trkpt lat="45.07519" lon="5.36552">
        <ele>454.4</ele>
        <time>2015-10-18T07:20:33Z</time>
      </trkpt>
      <trkpt lat="45.07518" lon="5.3654">
        <ele>455.3</ele>
        <time>2015-10-18T07:20:34Z</time>
      </trkpt>
      <trkpt lat="45.07518" lon="5.36526">
        <ele>456.3</ele>
        <time>2015-10-18T07:20:35Z</time>
      </trkpt>
      <trkpt lat="45.0752" lon="5.36513">
        <ele>456.8</ele>
        <time>2015-10-18T07:20:36Z</time>
      </trkpt>
      <trkpt lat="45.07524" lon="5.36502">
        <ele>457.2</ele>
        <time>2015-10-18T07:20:37Z</time>
      </trkpt>
      <trkpt lat="45.0753" lon="5.36492">
        <ele>458.2</ele>
        <time>2015-10-18T07:20:38Z</time>
      </trkpt>
      <trkpt lat="45.07539" lon="5.36483">
        <ele>459.2</ele>
        <time>2015-10-18T07:20:39Z</time>
      </trkpt>
      <trkpt lat="45.07548" lon="5.36472">
        <ele>459.7</ele>
        <time>2015-10-18T07:20:40Z</time>
      </trkpt>
      <trkpt lat="45.07555" lon="5.3646">
        <ele>460.6</ele>
        <time>2015-10-18T07:20:41Z</time>
      </trkpt>
      <trkpt lat="45.07562" lon="5.36447">
        <ele>461.6</ele>
        <time>2015-10-18T07:20:42Z</time>
      </trkpt>
      <trkpt lat="45.07568" lon="5.36433">
        <ele>462.1</ele>
        <time>2015-10-18T07:20:43Z</time>
      </trkpt>
      <trkpt lat="45.07587" lon="5.36393">
        <ele>465.4</ele>
        <time>2015-10-18T07:20:46Z</time>
      </trkpt>
      <trkpt lat="45.07595" lon="5.36382">
        <ele>466.4</ele>
        <time>2015-10-18T07:20:47Z</time>
      </trkpt>
      <trkpt lat="45.07604" lon="5.36371">
        <ele>467.3</ele>
        <time>2015-10-18T07:20:48Z</time>
      </trkpt>
      <trkpt lat="45.07652" lon="5.36317">
        <ele>473.1</ele>
        <time>2015-10-18T07:20:54Z</time>
      </trkpt>
      <trkpt lat="45.07656" lon="5.36309">
        <ele>474.1</ele>
        <time>2015-10-18T07:20:55Z</time>
      </trkpt>
      <trkpt lat="45.07655" lon="5.36302">
        <ele>474.1</ele>
        <time>2015-10-18T07:20:56Z</time>
      </trkpt>
      <trkpt lat="45.07649" lon="5.36295">
        <ele>474.1</ele>
        <time>2015-10-18T07:20:57Z</time>
      </trkpt>
      <trkpt lat="45.07643" lon="5.36293">
        <ele>475</ele>
        <time>2015-10-18T07:20:58Z</time>
      </trkpt>
      <trkpt lat="45.07634" lon="5.36293">
        <ele>475.5</ele>
        <time>2015-10-18T07:20:59Z</time>
      </trkpt>
      <trkpt lat="45.07625" lon="5.36294">
        <ele>476</ele>
        <time>2015-10-18T07:21:00Z</time>
      </trkpt>
      <trkpt lat="45.07615" lon="5.36292">
        <ele>476</ele>
        <time>2015-10-18T07:21:01Z</time>
      </trkpt>
      <trkpt lat="45.07606" lon="5.36287">
        <ele>476</ele>
        <time>2015-10-18T07:21:02Z</time>
      </trkpt>
      <trkpt lat="45.07597" lon="5.3628">
        <ele>477.4</ele>
        <time>2015-10-18T07:21:03Z</time>
      </trkpt>
      <trkpt lat="45.0759" lon="5.36271">
        <ele>477.9</ele>
        <time>2015-10-18T07:21:04Z</time>
      </trkpt>
      <trkpt lat="45.07582" lon="5.36261">
        <ele>478.4</ele>
        <time>2015-10-18T07:21:05Z</time>
      </trkpt>
      <trkpt lat="45.07573" lon="5.36246">
        <ele>479.4</ele>
        <time>2015-10-18T07:21:07Z</time>
      </trkpt>
      <trkpt lat="45.07567" lon="5.36236">
        <ele>480.3</ele>
        <time>2015-10-18T07:21:09Z</time>
      </trkpt>
      <trkpt lat="45.07563" lon="5.36233">
        <ele>480.3</ele>
        <time>2015-10-18T07:21:10Z</time>
      </trkpt>
      <trkpt lat="45.07557" lon="5.3623">
        <ele>481.3</ele>
        <time>2015-10-18T07:21:11Z</time>
      </trkpt>
      <trkpt lat="45.0755" lon="5.36229">
        <ele>481.8</ele>
        <time>2015-10-18T07:21:12Z</time>
      </trkpt>
      <trkpt lat="45.07542" lon="5.36231">
        <ele>482.2</ele>
        <time>2015-10-18T07:21:13Z</time>
      </trkpt>
      <trkpt lat="45.07535" lon="5.36236">
        <ele>482.7</ele>
        <time>2015-10-18T07:21:14Z</time>
      </trkpt>
      <trkpt lat="45.07528" lon="5.36244">
        <ele>483.7</ele>
        <time>2015-10-18T07:21:15Z</time>
      </trkpt>
      <trkpt lat="45.07521" lon="5.36254">
        <ele>485.6</ele>
        <time>2015-10-18T07:21:16Z</time>
      </trkpt>
      <trkpt lat="45.07515" lon="5.36263">
        <ele>486.1</ele>
        <time>2015-10-18T07:21:17Z</time>
      </trkpt>
      <trkpt lat="45.07507" lon="5.36271">
        <ele>486.6</ele>
        <time>2015-10-18T07:21:18Z</time>
      </trkpt>
      <trkpt lat="45.07499" lon="5.36279">
        <ele>487.5</ele>
        <time>2015-10-18T07:21:19Z</time>
      </trkpt>
      <trkpt lat="45.07491" lon="5.36284">
        <ele>488.5</ele>
        <time>2015-10-18T07:21:20Z</time>
      </trkpt>
      <trkpt lat="45.07481" lon="5.36289">
        <ele>489.5</ele>
        <time>2015-10-18T07:21:21Z</time>
      </trkpt>
      <trkpt lat="45.07471" lon="5.36291">
        <ele>490.4</ele>
        <time>2015-10-18T07:21:22Z</time>
      </trkpt>
      <trkpt lat="45.07461" lon="5.3629">
        <ele>491.4</ele>
        <time>2015-10-18T07:21:23Z</time>
      </trkpt>
      <trkpt lat="45.07451" lon="5.36287">
        <ele>491.9</ele>
        <time>2015-10-18T07:21:24Z</time>
      </trkpt>
      <trkpt lat="45.07441" lon="5.36283">
        <ele>492.8</ele>
        <time>2015-10-18T07:21:25Z</time>
      </trkpt>
      <trkpt lat="45.07431" lon="5.36278">
        <ele>493.8</ele>
        <time>2015-10-18T07:21:26Z</time>
      </trkpt>
      <trkpt lat="45.07423" lon="5.3627">
        <ele>494.3</ele>
        <time>2015-10-18T07:21:27Z</time>
      </trkpt>
      <trkpt lat="45.07416" lon="5.36258">
        <ele>495.2</ele>
        <time>2015-10-18T07:21:28Z</time>
      </trkpt>
      <trkpt lat="45.07412" lon="5.36245">
        <ele>496.2</ele>
        <time>2015-10-18T07:21:29Z</time>
      </trkpt>
      <trkpt lat="45.07409" lon="5.36229">
        <ele>497.6</ele>
        <time>2015-10-18T07:21:30Z</time>
      </trkpt>
      <trkpt lat="45.07405" lon="5.36213">
        <ele>499.1</ele>
        <time>2015-10-18T07:21:31Z</time>
      </trkpt>
      <trkpt lat="45.07389" lon="5.3615">
        <ele>502.4</ele>
        <time>2015-10-18T07:21:35Z</time>
      </trkpt>
      <trkpt lat="45.07383" lon="5.36138">
        <ele>503.4</ele>
        <time>2015-10-18T07:21:36Z</time>
      </trkpt>
      <trkpt lat="45.07375" lon="5.36128">
        <ele>504.4</ele>
        <time>2015-10-18T07:21:37Z</time>
      </trkpt>
      <trkpt lat="45.07366" lon="5.36121">
        <ele>504.8</ele>
        <time>2015-10-18T07:21:38Z</time>
      </trkpt>
      <trkpt lat="45.07356" lon="5.36114">
        <ele>506.3</ele>
        <time>2015-10-18T07:21:39Z</time>
      </trkpt>
      <trkpt lat="45.07347" lon="5.36106">
        <ele>507.2</ele>
        <time>2015-10-18T07:21:40Z</time>
      </trkpt>
      <trkpt lat="45.07339" lon="5.36096">
        <ele>507.7</ele>
        <time>2015-10-18T07:21:41Z</time>
      </trkpt>
      <trkpt lat="45.07334" lon="5.36085">
        <ele>509.2</ele>
        <time>2015-10-18T07:21:42Z</time>
      </trkpt>
      <trkpt lat="45.07331" lon="5.36074">
        <ele>510.1</ele>
        <time>2015-10-18T07:21:43Z</time>
      </trkpt>
      <trkpt lat="45.07333" lon="5.36063">
        <ele>511.1</ele>
        <time>2015-10-18T07:21:44Z</time>
      </trkpt>
      <trkpt lat="45.07337" lon="5.36052">
        <ele>511.6</ele>
        <time>2015-10-18T07:21:45Z</time>
      </trkpt>
      <trkpt lat="45.07346" lon="5.36042">
        <ele>512</ele>
        <time>2015-10-18T07:21:46Z</time>
      </trkpt>
      <trkpt lat="45.07356" lon="5.36033">
        <ele>513</ele>
        <time>2015-10-18T07:21:47Z</time>
      </trkpt>
      <trkpt lat="45.07366" lon="5.36022">
        <ele>513.5</ele>
        <time>2015-10-18T07:21:48Z</time>
      </trkpt>
      <trkpt lat="45.07393" lon="5.35987">
        <ele>517.3</ele>
        <time>2015-10-18T07:21:51Z</time>
      </trkpt>
      <trkpt lat="45.07404" lon="5.35978">
        <ele>517.8</ele>
        <time>2015-10-18T07:21:52Z</time>
      </trkpt>
      <trkpt lat="45.07416" lon="5.35971">
        <ele>518.8</ele>
        <time>2015-10-18T07:21:53Z</time>
      </trkpt>
      <trkpt lat="45.07428" lon="5.35966">
        <ele>519.7</ele>
        <time>2015-10-18T07:21:54Z</time>
      </trkpt>
      <trkpt lat="45.0744" lon="5.35964">
        <ele>520.7</ele>
        <time>2015-10-18T07:21:55Z</time>
      </trkpt>
      <trkpt lat="45.07452" lon="5.35962">
        <ele>521.2</ele>
        <time>2015-10-18T07:21:56Z</time>
      </trkpt>
      <trkpt lat="45.07503" lon="5.35938">
        <ele>525.5</ele>
        <time>2015-10-18T07:22:01Z</time>
      </trkpt>
      <trkpt lat="45.07512" lon="5.35929">
        <ele>526.9</ele>
        <time>2015-10-18T07:22:02Z</time>
      </trkpt>
      <trkpt lat="45.07519" lon="5.35918">
        <ele>528.4</ele>
        <time>2015-10-18T07:22:03Z</time>
      </trkpt>
      <trkpt lat="45.07526" lon="5.35906">
        <ele>529.8</ele>
        <time>2015-10-18T07:22:04Z</time>
      </trkpt>
      <trkpt lat="45.07532" lon="5.35893">
        <ele>531.3</ele>
        <time>2015-10-18T07:22:05Z</time>
      </trkpt>
      <trkpt lat="45.07547" lon="5.35853">
        <ele>534.2</ele>
        <time>2015-10-18T07:22:08Z</time>
      </trkpt>
      <trkpt lat="45.07548" lon="5.3584">
        <ele>535.1</ele>
        <time>2015-10-18T07:22:09Z</time>
      </trkpt>
      <trkpt lat="45.07547" lon="5.35826">
        <ele>536.6</ele>
        <time>2015-10-18T07:22:10Z</time>
      </trkpt>
      <trkpt lat="45.07547" lon="5.35812">
        <ele>537.5</ele>
        <time>2015-10-18T07:22:11Z</time>
      </trkpt>
      <trkpt lat="45.07548" lon="5.35796">
        <ele>539</ele>
        <time>2015-10-18T07:22:12Z</time>
      </trkpt>
      <trkpt lat="45.07549" lon="5.3578">
        <ele>539.9</ele>
        <time>2015-10-18T07:22:13Z</time>
      </trkpt>
      <trkpt lat="45.0755" lon="5.35763">
        <ele>540.9</ele>
        <time>2015-10-18T07:22:14Z</time>
      </trkpt>
      <trkpt lat="45.07549" lon="5.35716">
        <ele>543.8</ele>
        <time>2015-10-18T07:22:17Z</time>
      </trkpt>
      <trkpt lat="45.07546" lon="5.35702">
        <ele>544.7</ele>
        <time>2015-10-18T07:22:18Z</time>
      </trkpt>
      <trkpt lat="45.07541" lon="5.35691">
        <ele>545.2</ele>
        <time>2015-10-18T07:22:19Z</time>
      </trkpt>
      <trkpt lat="45.07534" lon="5.35681">
        <ele>546.2</ele>
        <time>2015-10-18T07:22:20Z</time>
      </trkpt>
      <trkpt lat="45.07527" lon="5.35671">
        <ele>546.7</ele>
        <time>2015-10-18T07:22:21Z</time>
      </trkpt>
      <trkpt lat="45.0752" lon="5.35661">
        <ele>547.6</ele>
        <time>2015-10-18T07:22:22Z</time>
      </trkpt>
      <trkpt lat="45.07515" lon="5.3565">
        <ele>548.1</ele>
        <time>2015-10-18T07:22:23Z</time>
      </trkpt>
      <trkpt lat="45.07511" lon="5.35639">
        <ele>549.1</ele>
        <time>2015-10-18T07:22:24Z</time>
      </trkpt>
      <trkpt lat="45.07509" lon="5.35626">
        <ele>550</ele>
        <time>2015-10-18T07:22:25Z</time>
      </trkpt>
      <trkpt lat="45.0751" lon="5.35613">
        <ele>550.5</ele>
        <time>2015-10-18T07:22:26Z</time>
      </trkpt>
      <trkpt lat="45.07513" lon="5.356">
        <ele>551.9</ele>
        <time>2015-10-18T07:22:27Z</time>
      </trkpt>
      <trkpt lat="45.07518" lon="5.35586">
        <ele>552.4</ele>
        <time>2015-10-18T07:22:28Z</time>
      </trkpt>
      <trkpt lat="45.07527" lon="5.35556">
        <ele>554.8</ele>
        <time>2015-10-18T07:22:30Z</time>
      </trkpt>
      <trkpt lat="45.07531" lon="5.3554">
        <ele>555.8</ele>
        <time>2015-10-18T07:22:31Z</time>
      </trkpt>
      <trkpt lat="45.07532" lon="5.35524">
        <ele>556.7</ele>
        <time>2015-10-18T07:22:32Z</time>
      </trkpt>
      <trkpt lat="45.07532" lon="5.35508">
        <ele>557.7</ele>
        <time>2015-10-18T07:22:33Z</time>
      </trkpt>
      <trkpt lat="45.0753" lon="5.35493">
        <ele>559.1</ele>
        <time>2015-10-18T07:22:34Z</time>
      </trkpt>
      <trkpt lat="45.07527" lon="5.35479">
        <ele>559.6</ele>
        <time>2015-10-18T07:22:35Z</time>
      </trkpt>
      <trkpt lat="45.07523" lon="5.35466">
        <ele>561.1</ele>
        <time>2015-10-18T07:22:36Z</time>
      </trkpt>
      <trkpt lat="45.07519" lon="5.35454">
        <ele>562</ele>
        <time>2015-10-18T07:22:37Z</time>
      </trkpt>
      <trkpt lat="45.07515" lon="5.35443">
        <ele>562.5</ele>
        <time>2015-10-18T07:22:38Z</time>
      </trkpt>
      <trkpt lat="45.07511" lon="5.35434">
        <ele>563.5</ele>
        <time>2015-10-18T07:22:39Z</time>
      </trkpt>
      <trkpt lat="45.07505" lon="5.35418">
        <ele>564.4</ele>
        <time>2015-10-18T07:22:41Z</time>
      </trkpt>
      <trkpt lat="45.07504" lon="5.35411">
        <ele>564.9</ele>
        <time>2015-10-18T07:22:42Z</time>
      </trkpt>
      <trkpt lat="45.07507" lon="5.35408">
        <ele>565.4</ele>
        <time>2015-10-18T07:22:43Z</time>
      </trkpt>
      <trkpt lat="45.07512" lon="5.35408">
        <ele>565.9</ele>
        <time>2015-10-18T07:22:44Z</time>
      </trkpt>
      <trkpt lat="45.07516" lon="5.35413">
        <ele>566.4</ele>
        <time>2015-10-18T07:22:45Z</time>
      </trkpt>
      <trkpt lat="45.0752" lon="5.35421">
        <ele>566.8</ele>
        <time>2015-10-18T07:22:46Z</time>
      </trkpt>
      <trkpt lat="45.07524" lon="5.3543">
        <ele>567.8</ele>
        <time>2015-10-18T07:22:47Z</time>
      </trkpt>
      <trkpt lat="45.07559" lon="5.35529">
        <ele>575</ele>
        <time>2015-10-18T07:22:55Z</time>
      </trkpt>
      <trkpt lat="45.07561" lon="5.35545">
        <ele>576</ele>
        <time>2015-10-18T07:22:56Z</time>
      </trkpt>
      <trkpt lat="45.07567" lon="5.3563">
        <ele>582.7</ele>
        <time>2015-10-18T07:23:04Z</time>
      </trkpt>
      <trkpt lat="45.07568" lon="5.35636">
        <ele>583.2</ele>
        <time>2015-10-18T07:23:05Z</time>
      </trkpt>
      <trkpt lat="45.0757" lon="5.35641">
        <ele>583.2</ele>
        <time>2015-10-18T07:23:06Z</time>
      </trkpt>
      <trkpt lat="45.07572" lon="5.35645">
        <ele>583.7</ele>
        <time>2015-10-18T07:23:07Z</time>
      </trkpt>
      <trkpt lat="45.07573" lon="5.35648">
        <ele>583.7</ele>
        <time>2015-10-18T07:23:08Z</time>
      </trkpt>
      <trkpt lat="45.07574" lon="5.3565">
        <ele>584.1</ele>
        <time>2015-10-18T07:23:09Z</time>
      </trkpt>
      <trkpt lat="45.07576" lon="5.35652">
        <ele>585.1</ele>
        <time>2015-10-18T07:23:25Z</time>
      </trkpt>
      <trkpt lat="45.07577" lon="5.35654">
        <ele>583.2</ele>
        <time>2015-10-18T07:28:19Z</time>
      </trkpt>
      <trkpt lat="45.07583" lon="5.35661">
        <ele>583.7</ele>
        <time>2015-10-18T07:28:21Z</time>
      </trkpt>
      <trkpt lat="45.07591" lon="5.35675">
        <ele>584.1</ele>
        <time>2015-10-18T07:28:23Z</time>
      </trkpt>
      <trkpt lat="45.07595" lon="5.35685">
        <ele>584.6</ele>
        <time>2015-10-18T07:28:24Z</time>
      </trkpt>
      <trkpt lat="45.07598" lon="5.35696">
        <ele>585.1</ele>
        <time>2015-10-18T07:28:25Z</time>
      </trkpt>
      <trkpt lat="45.07601" lon="5.35708">
        <ele>585.6</ele>
        <time>2015-10-18T07:28:26Z</time>
      </trkpt>
      <trkpt lat="45.07604" lon="5.3572">
        <ele>586.1</ele>
        <time>2015-10-18T07:28:27Z</time>
      </trkpt>
      <trkpt lat="45.07635" lon="5.35857">
        <ele>594.7</ele>
        <time>2015-10-18T07:28:36Z</time>
      </trkpt>
      <trkpt lat="45.07636" lon="5.35873">
        <ele>595.7</ele>
        <time>2015-10-18T07:28:37Z</time>
      </trkpt>
      <trkpt lat="45.07636" lon="5.35887">
        <ele>596.6</ele>
        <time>2015-10-18T07:28:38Z</time>
      </trkpt>
      <trkpt lat="45.07635" lon="5.35912">
        <ele>598.6</ele>
        <time>2015-10-18T07:28:40Z</time>
      </trkpt>
      <trkpt lat="45.07637" lon="5.35921">
        <ele>599.5</ele>
        <time>2015-10-18T07:28:41Z</time>
      </trkpt>
      <trkpt lat="45.07642" lon="5.35929">
        <ele>600.5</ele>
        <time>2015-10-18T07:28:42Z</time>
      </trkpt>
      <trkpt lat="45.07651" lon="5.35938">
        <ele>601.4</ele>
        <time>2015-10-18T07:28:43Z</time>
      </trkpt>
      <trkpt lat="45.07661" lon="5.35948">
        <ele>602.9</ele>
        <time>2015-10-18T07:28:44Z</time>
      </trkpt>
      <trkpt lat="45.07698" lon="5.35982">
        <ele>606.7</ele>
        <time>2015-10-18T07:28:48Z</time>
      </trkpt>
      <trkpt lat="45.07708" lon="5.35985">
        <ele>606.7</ele>
        <time>2015-10-18T07:28:49Z</time>
      </trkpt>
      <trkpt lat="45.07718" lon="5.35987">
        <ele>608.2</ele>
        <time>2015-10-18T07:28:50Z</time>
      </trkpt>
      <trkpt lat="45.07729" lon="5.35986">
        <ele>609.1</ele>
        <time>2015-10-18T07:28:51Z</time>
      </trkpt>
      <trkpt lat="45.0774" lon="5.35986">
        <ele>609.6</ele>
        <time>2015-10-18T07:28:52Z</time>
      </trkpt>
      <trkpt lat="45.07751" lon="5.35986">
        <ele>610.6</ele>
        <time>2015-10-18T07:28:53Z</time>
      </trkpt>
      <trkpt lat="45.07761" lon="5.35989">
        <ele>611.5</ele>
        <time>2015-10-18T07:28:54Z</time>
      </trkpt>
      <trkpt lat="45.07769" lon="5.35995">
        <ele>612.5</ele>
        <time>2015-10-18T07:28:55Z</time>
      </trkpt>
      <trkpt lat="45.07776" lon="5.36003">
        <ele>613.5</ele>
        <time>2015-10-18T07:28:56Z</time>
      </trkpt>
      <trkpt lat="45.07784" lon="5.36011">
        <ele>613.9</ele>
        <time>2015-10-18T07:28:57Z</time>
      </trkpt>
      <trkpt lat="45.07793" lon="5.3602">
        <ele>614.4</ele>
        <time>2015-10-18T07:28:58Z</time>
      </trkpt>
      <trkpt lat="45.07802" lon="5.36029">
        <ele>615.4</ele>
        <time>2015-10-18T07:28:59Z</time>
      </trkpt>
      <trkpt lat="45.0781" lon="5.36039">
        <ele>616.3</ele>
        <time>2015-10-18T07:29:00Z</time>
      </trkpt>
      <trkpt lat="45.07828" lon="5.36056">
        <ele>617.3</ele>
        <time>2015-10-18T07:29:02Z</time>
      </trkpt>
      <trkpt lat="45.07837" lon="5.36063">
        <ele>618.3</ele>
        <time>2015-10-18T07:29:03Z</time>
      </trkpt>
      <trkpt lat="45.07848" lon="5.36068">
        <ele>619.2</ele>
        <time>2015-10-18T07:29:04Z</time>
      </trkpt>
      <trkpt lat="45.07894" lon="5.36082">
        <ele>623.6</ele>
        <time>2015-10-18T07:29:08Z</time>
      </trkpt>
      <trkpt lat="45.07905" lon="5.36082">
        <ele>625</ele>
        <time>2015-10-18T07:29:09Z</time>
      </trkpt>
      <trkpt lat="45.07953" lon="5.36083">
        <ele>628.8</ele>
        <time>2015-10-18T07:29:13Z</time>
      </trkpt>
      <trkpt lat="45.07964" lon="5.36088">
        <ele>629.8</ele>
        <time>2015-10-18T07:29:14Z</time>
      </trkpt>
      <trkpt lat="45.07976" lon="5.36094">
        <ele>630.8</ele>
        <time>2015-10-18T07:29:15Z</time>
      </trkpt>
      <trkpt lat="45.07986" lon="5.36103">
        <ele>631.7</ele>
        <time>2015-10-18T07:29:16Z</time>
      </trkpt>
      <trkpt lat="45.07995" lon="5.36112">
        <ele>632.7</ele>
        <time>2015-10-18T07:29:17Z</time>
      </trkpt>
      <trkpt lat="45.08004" lon="5.36123">
        <ele>633.7</ele>
        <time>2015-10-18T07:29:18Z</time>
      </trkpt>
      <trkpt lat="45.08011" lon="5.36134">
        <ele>634.6</ele>
        <time>2015-10-18T07:29:19Z</time>
      </trkpt>
      <trkpt lat="45.08024" lon="5.36156">
        <ele>636.5</ele>
        <time>2015-10-18T07:29:21Z</time>
      </trkpt>
      <trkpt lat="45.08029" lon="5.36167">
        <ele>637</ele>
        <time>2015-10-18T07:29:22Z</time>
      </trkpt>
      <trkpt lat="45.08049" lon="5.36219">
        <ele>640.4</ele>
        <time>2015-10-18T07:29:26Z</time>
      </trkpt>
      <trkpt lat="45.08052" lon="5.36234">
        <ele>641.3</ele>
        <time>2015-10-18T07:29:27Z</time>
      </trkpt>
      <trkpt lat="45.08054" lon="5.36249">
        <ele>641.8</ele>
        <time>2015-10-18T07:29:28Z</time>
      </trkpt>
      <trkpt lat="45.08053" lon="5.36282">
        <ele>643.7</ele>
        <time>2015-10-18T07:29:30Z</time>
      </trkpt>
      <trkpt lat="45.0805" lon="5.36298">
        <ele>644.7</ele>
        <time>2015-10-18T07:29:31Z</time>
      </trkpt>
      <trkpt lat="45.08046" lon="5.36314">
        <ele>645.7</ele>
        <time>2015-10-18T07:29:32Z</time>
      </trkpt>
      <trkpt lat="45.08041" lon="5.3633">
        <ele>646.6</ele>
        <time>2015-10-18T07:29:33Z</time>
      </trkpt>
      <trkpt lat="45.08037" lon="5.36345">
        <ele>647.6</ele>
        <time>2015-10-18T07:29:34Z</time>
      </trkpt>
      <trkpt lat="45.08033" lon="5.36361">
        <ele>648.6</ele>
        <time>2015-10-18T07:29:35Z</time>
      </trkpt>
      <trkpt lat="45.0803" lon="5.36376">
        <ele>649.5</ele>
        <time>2015-10-18T07:29:36Z</time>
      </trkpt>
      <trkpt lat="45.0803" lon="5.36391">
        <ele>650.5</ele>
        <time>2015-10-18T07:29:37Z</time>
      </trkpt>
      <trkpt lat="45.08031" lon="5.36407">
        <ele>651.4</ele>
        <time>2015-10-18T07:29:38Z</time>
      </trkpt>
      <trkpt lat="45.08032" lon="5.36421">
        <ele>652.4</ele>
        <time>2015-10-18T07:29:39Z</time>
      </trkpt>
      <trkpt lat="45.08032" lon="5.36435">
        <ele>653.8</ele>
        <time>2015-10-18T07:29:40Z</time>
      </trkpt>
      <trkpt lat="45.08029" lon="5.36449">
        <ele>654.8</ele>
        <time>2015-10-18T07:29:41Z</time>
      </trkpt>
      <trkpt lat="45.08026" lon="5.36463">
        <ele>655.8</ele>
        <time>2015-10-18T07:29:42Z</time>
      </trkpt>
      <trkpt lat="45.08025" lon="5.36478">
        <ele>656.7</ele>
        <time>2015-10-18T07:29:43Z</time>
      </trkpt>
      <trkpt lat="45.08025" lon="5.36492">
        <ele>657.7</ele>
        <time>2015-10-18T07:29:44Z</time>
      </trkpt>
      <trkpt lat="45.08026" lon="5.36507">
        <ele>658.6</ele>
        <time>2015-10-18T07:29:45Z</time>
      </trkpt>
      <trkpt lat="45.08029" lon="5.36536">
        <ele>660.6</ele>
        <time>2015-10-18T07:29:47Z</time>
      </trkpt>
      <trkpt lat="45.08029" lon="5.36549">
        <ele>661</ele>
        <time>2015-10-18T07:29:48Z</time>
      </trkpt>
      <trkpt lat="45.08026" lon="5.36561">
        <ele>662</ele>
        <time>2015-10-18T07:29:49Z</time>
      </trkpt>
      <trkpt lat="45.0802" lon="5.36572">
        <ele>662.5</ele>
        <time>2015-10-18T07:29:50Z</time>
      </trkpt>
      <trkpt lat="45.08013" lon="5.36583">
        <ele>663.5</ele>
        <time>2015-10-18T07:29:51Z</time>
      </trkpt>
      <trkpt lat="45.08004" lon="5.36594">
        <ele>664.4</ele>
        <time>2015-10-18T07:29:52Z</time>
      </trkpt>
      <trkpt lat="45.07997" lon="5.36605">
        <ele>665.4</ele>
        <time>2015-10-18T07:29:53Z</time>
      </trkpt>
      <trkpt lat="45.0799" lon="5.36616">
        <ele>666.8</ele>
        <time>2015-10-18T07:29:54Z</time>
      </trkpt>
      <trkpt lat="45.07982" lon="5.36627">
        <ele>667.8</ele>
        <time>2015-10-18T07:29:55Z</time>
      </trkpt>
      <trkpt lat="45.07973" lon="5.36635">
        <ele>668.7</ele>
        <time>2015-10-18T07:29:56Z</time>
      </trkpt>
      <trkpt lat="45.07963" lon="5.36641">
        <ele>670.2</ele>
        <time>2015-10-18T07:29:57Z</time>
      </trkpt>
      <trkpt lat="45.07954" lon="5.36648">
        <ele>671.1</ele>
        <time>2015-10-18T07:29:58Z</time>
      </trkpt>
      <trkpt lat="45.07945" lon="5.36657">
        <ele>672.1</ele>
        <time>2015-10-18T07:29:59Z</time>
      </trkpt>
      <trkpt lat="45.07937" lon="5.36668">
        <ele>673.1</ele>
        <time>2015-10-18T07:30:00Z</time>
      </trkpt>
      <trkpt lat="45.07929" lon="5.36682">
        <ele>674</ele>
        <time>2015-10-18T07:30:01Z</time>
      </trkpt>
      <trkpt lat="45.07922" lon="5.36697">
        <ele>675</ele>
        <time>2015-10-18T07:30:02Z</time>
      </trkpt>
      <trkpt lat="45.07915" lon="5.36712">
        <ele>675.9</ele>
        <time>2015-10-18T07:30:03Z</time>
      </trkpt>
      <trkpt lat="45.07851" lon="5.36829">
        <ele>686</ele>
        <time>2015-10-18T07:30:12Z</time>
      </trkpt>
      <trkpt lat="45.07849" lon="5.36843">
        <ele>686.5</ele>
        <time>2015-10-18T07:30:13Z</time>
      </trkpt>
      <trkpt lat="45.07848" lon="5.36859">
        <ele>687</ele>
        <time>2015-10-18T07:30:14Z</time>
      </trkpt>
      <trkpt lat="45.07849" lon="5.36874">
        <ele>687.5</ele>
        <time>2015-10-18T07:30:15Z</time>
      </trkpt>
      <trkpt lat="45.07852" lon="5.36888">
        <ele>688</ele>
        <time>2015-10-18T07:30:16Z</time>
      </trkpt>
      <trkpt lat="45.07857" lon="5.36901">
        <ele>688.9</ele>
        <time>2015-10-18T07:30:17Z</time>
      </trkpt>
      <trkpt lat="45.07863" lon="5.36913">
        <ele>689.9</ele>
        <time>2015-10-18T07:30:18Z</time>
      </trkpt>
      <trkpt lat="45.07868" lon="5.36927">
        <ele>690.4</ele>
        <time>2015-10-18T07:30:19Z</time>
      </trkpt>
      <trkpt lat="45.07871" lon="5.36942">
        <ele>691.3</ele>
        <time>2015-10-18T07:30:20Z</time>
      </trkpt>
      <trkpt lat="45.07872" lon="5.36957">
        <ele>692.3</ele>
        <time>2015-10-18T07:30:21Z</time>
      </trkpt>
      <trkpt lat="45.07871" lon="5.37007">
        <ele>695.7</ele>
        <time>2015-10-18T07:30:24Z</time>
      </trkpt>
      <trkpt lat="45.07869" lon="5.37023">
        <ele>696.6</ele>
        <time>2015-10-18T07:30:25Z</time>
      </trkpt>
      <trkpt lat="45.07865" lon="5.37038">
        <ele>697.6</ele>
        <time>2015-10-18T07:30:26Z</time>
      </trkpt>
      <trkpt lat="45.07861" lon="5.37051">
        <ele>698.5</ele>
        <time>2015-10-18T07:30:27Z</time>
      </trkpt>
      <trkpt lat="45.07857" lon="5.37063">
        <ele>699.5</ele>
        <time>2015-10-18T07:30:28Z</time>
      </trkpt>
      <trkpt lat="45.07851" lon="5.37073">
        <ele>700</ele>
        <time>2015-10-18T07:30:29Z</time>
      </trkpt>
      <trkpt lat="45.07844" lon="5.37079">
        <ele>700.9</ele>
        <time>2015-10-18T07:30:30Z</time>
      </trkpt>
      <trkpt lat="45.07839" lon="5.37087">
        <ele>701.9</ele>
        <time>2015-10-18T07:30:31Z</time>
      </trkpt>
      <trkpt lat="45.07834" lon="5.37095">
        <ele>702.4</ele>
        <time>2015-10-18T07:30:32Z</time>
      </trkpt>
      <trkpt lat="45.07834" lon="5.37105">
        <ele>703.3</ele>
        <time>2015-10-18T07:30:33Z</time>
      </trkpt>
      <trkpt lat="45.07837" lon="5.37116">
        <ele>703.8</ele>
        <time>2015-10-18T07:30:34Z</time>
      </trkpt>
      <trkpt lat="45.07842" lon="5.37128">
        <ele>705.3</ele>
        <time>2015-10-18T07:30:35Z</time>
      </trkpt>
      <trkpt lat="45.07849" lon="5.37139">
        <ele>705.8</ele>
        <time>2015-10-18T07:30:36Z</time>
      </trkpt>
      <trkpt lat="45.07857" lon="5.37151">
        <ele>706.7</ele>
        <time>2015-10-18T07:30:37Z</time>
      </trkpt>
      <trkpt lat="45.07923" lon="5.37294">
        <ele>716.8</ele>
        <time>2015-10-18T07:30:47Z</time>
      </trkpt>
      <trkpt lat="45.07945" lon="5.37359">
        <ele>722.1</ele>
        <time>2015-10-18T07:30:51Z</time>
      </trkpt>
      <trkpt lat="45.07947" lon="5.37377">
        <ele>723.5</ele>
        <time>2015-10-18T07:30:52Z</time>
      </trkpt>
      <trkpt lat="45.07948" lon="5.37394">
        <ele>724.5</ele>
        <time>2015-10-18T07:30:53Z</time>
      </trkpt>
      <trkpt lat="45.07947" lon="5.37485">
        <ele>731.2</ele>
        <time>2015-10-18T07:30:58Z</time>
      </trkpt>
      <trkpt lat="45.07944" lon="5.37503">
        <ele>732.2</ele>
        <time>2015-10-18T07:30:59Z</time>
      </trkpt>
      <trkpt lat="45.0793" lon="5.37573">
        <ele>737</ele>
        <time>2015-10-18T07:31:03Z</time>
      </trkpt>
      <trkpt lat="45.07924" lon="5.37588">
        <ele>737.5</ele>
        <time>2015-10-18T07:31:04Z</time>
      </trkpt>
      <trkpt lat="45.07917" lon="5.37601">
        <ele>738.4</ele>
        <time>2015-10-18T07:31:05Z</time>
      </trkpt>
      <trkpt lat="45.07908" lon="5.37611">
        <ele>739.4</ele>
        <time>2015-10-18T07:31:06Z</time>
      </trkpt>
      <trkpt lat="45.07899" lon="5.37618">
        <ele>739.9</ele>
        <time>2015-10-18T07:31:07Z</time>
      </trkpt>
      <trkpt lat="45.07892" lon="5.37623">
        <ele>740.8</ele>
        <time>2015-10-18T07:31:08Z</time>
      </trkpt>
      <trkpt lat="45.07886" lon="5.37628">
        <ele>741.3</ele>
        <time>2015-10-18T07:31:09Z</time>
      </trkpt>
      <trkpt lat="45.07882" lon="5.37633">
        <ele>742.3</ele>
        <time>2015-10-18T07:31:10Z</time>
      </trkpt>
      <trkpt lat="45.07881" lon="5.37639">
        <ele>742.8</ele>
        <time>2015-10-18T07:31:11Z</time>
      </trkpt>
      <trkpt lat="45.0789" lon="5.3764">
        <ele>743.7</ele>
        <time>2015-10-18T07:31:13Z</time>
      </trkpt>
      <trkpt lat="45.07897" lon="5.37634">
        <ele>744.7</ele>
        <time>2015-10-18T07:31:14Z</time>
      </trkpt>
      <trkpt lat="45.07904" lon="5.37626">
        <ele>745.6</ele>
        <time>2015-10-18T07:31:15Z</time>
      </trkpt>
      <trkpt lat="45.07911" lon="5.37617">
        <ele>746.6</ele>
        <time>2015-10-18T07:31:16Z</time>
      </trkpt>
      <trkpt lat="45.07936" lon="5.37588">
        <ele>750</ele>
        <time>2015-10-18T07:31:19Z</time>
      </trkpt>
      <trkpt lat="45.07943" lon="5.37576">
        <ele>750.9</ele>
        <time>2015-10-18T07:31:20Z</time>
      </trkpt>
      <trkpt lat="45.07949" lon="5.37564">
        <ele>751.9</ele>
        <time>2015-10-18T07:31:21Z</time>
      </trkpt>
      <trkpt lat="45.07984" lon="5.37466">
        <ele>757.7</ele>
        <time>2015-10-18T07:31:28Z</time>
      </trkpt>
      <trkpt lat="45.07986" lon="5.37451">
        <ele>758.1</ele>
        <time>2015-10-18T07:31:29Z</time>
      </trkpt>
      <trkpt lat="45.07997" lon="5.37323">
        <ele>765.8</ele>
        <time>2015-10-18T07:31:37Z</time>
      </trkpt>
      <trkpt lat="45.07996" lon="5.37306">
        <ele>766.8</ele>
        <time>2015-10-18T07:31:38Z</time>
      </trkpt>
      <trkpt lat="45.07978" lon="5.37151">
        <ele>774.5</ele>
        <time>2015-10-18T07:31:47Z</time>
      </trkpt>
      <trkpt lat="45.07973" lon="5.37136">
        <ele>775.4</ele>
        <time>2015-10-18T07:31:48Z</time>
      </trkpt>
      <trkpt lat="45.07968" lon="5.37123">
        <ele>775.9</ele>
        <time>2015-10-18T07:31:49Z</time>
      </trkpt>
      <trkpt lat="45.07963" lon="5.37113">
        <ele>776.4</ele>
        <time>2015-10-18T07:31:50Z</time>
      </trkpt>
      <trkpt lat="45.07959" lon="5.37106">
        <ele>776.9</ele>
        <time>2015-10-18T07:31:51Z</time>
      </trkpt>
      <trkpt lat="45.07956" lon="5.37099">
        <ele>777.4</ele>
        <time>2015-10-18T07:31:52Z</time>
      </trkpt>
      <trkpt lat="45.07954" lon="5.37093">
        <ele>777.8</ele>
        <time>2015-10-18T07:31:53Z</time>
      </trkpt>
      <trkpt lat="45.07955" lon="5.37091">
        <ele>778.3</ele>
        <time>2015-10-18T07:31:54Z</time>
      </trkpt>
      <trkpt lat="45.07959" lon="5.37092">
        <ele>778.8</ele>
        <time>2015-10-18T07:31:55Z</time>
      </trkpt>
      <trkpt lat="45.07963" lon="5.37094">
        <ele>779.8</ele>
        <time>2015-10-18T07:31:56Z</time>
      </trkpt>
      <trkpt lat="45.07968" lon="5.37099">
        <ele>780.3</ele>
        <time>2015-10-18T07:31:57Z</time>
      </trkpt>
      <trkpt lat="45.07974" lon="5.37109">
        <ele>781.2</ele>
        <time>2015-10-18T07:31:58Z</time>
      </trkpt>
      <trkpt lat="45.07979" lon="5.37121">
        <ele>782.2</ele>
        <time>2015-10-18T07:31:59Z</time>
      </trkpt>
      <trkpt lat="45.07983" lon="5.37135">
        <ele>782.2</ele>
        <time>2015-10-18T07:32:00Z</time>
      </trkpt>
      <trkpt lat="45.07993" lon="5.37165">
        <ele>783.1</ele>
        <time>2015-10-18T07:32:02Z</time>
      </trkpt>
      <trkpt lat="45.07997" lon="5.37182">
        <ele>784.1</ele>
        <time>2015-10-18T07:32:03Z</time>
      </trkpt>
      <trkpt lat="45.08026" lon="5.37297">
        <ele>789.4</ele>
        <time>2015-10-18T07:32:10Z</time>
      </trkpt>
      <trkpt lat="45.08027" lon="5.37312">
        <ele>789.9</ele>
        <time>2015-10-18T07:32:11Z</time>
      </trkpt>
      <trkpt lat="45.08033" lon="5.37372">
        <ele>793.2</ele>
        <time>2015-10-18T07:32:15Z</time>
      </trkpt>
      <trkpt lat="45.08037" lon="5.37402">
        <ele>795.6</ele>
        <time>2015-10-18T07:32:17Z</time>
      </trkpt>
      <trkpt lat="45.08038" lon="5.37418">
        <ele>796.6</ele>
        <time>2015-10-18T07:32:18Z</time>
      </trkpt>
      <trkpt lat="45.08036" lon="5.37434">
        <ele>799</ele>
        <time>2015-10-18T07:32:19Z</time>
      </trkpt>
      <trkpt lat="45.08034" lon="5.3745">
        <ele>800.9</ele>
        <time>2015-10-18T07:32:20Z</time>
      </trkpt>
      <trkpt lat="45.08033" lon="5.37464">
        <ele>800.4</ele>
        <time>2015-10-18T07:32:21Z</time>
      </trkpt>
      <trkpt lat="45.08028" lon="5.37479">
        <ele>802.8</ele>
        <time>2015-10-18T07:32:22Z</time>
      </trkpt>
      <trkpt lat="45.08024" lon="5.37492">
        <ele>803.3</ele>
        <time>2015-10-18T07:32:23Z</time>
      </trkpt>
      <trkpt lat="45.08018" lon="5.37513">
        <ele>803.8</ele>
        <time>2015-10-18T07:32:25Z</time>
      </trkpt>
      <trkpt lat="45.08024" lon="5.37567">
        <ele>807.6</ele>
        <time>2015-10-18T07:32:31Z</time>
      </trkpt>
      <trkpt lat="45.08028" lon="5.37578">
        <ele>807.6</ele>
        <time>2015-10-18T07:32:32Z</time>
      </trkpt>
      <trkpt lat="45.0803" lon="5.37589">
        <ele>809.1</ele>
        <time>2015-10-18T07:32:33Z</time>
      </trkpt>
      <trkpt lat="45.08031" lon="5.37602">
        <ele>809.6</ele>
        <time>2015-10-18T07:32:34Z</time>
      </trkpt>
      <trkpt lat="45.08028" lon="5.37615">
        <ele>811</ele>
        <time>2015-10-18T07:32:35Z</time>
      </trkpt>
      <trkpt lat="45.08024" lon="5.37628">
        <ele>811.5</ele>
        <time>2015-10-18T07:32:36Z</time>
      </trkpt>
      <trkpt lat="45.08019" lon="5.37638">
        <ele>812.5</ele>
        <time>2015-10-18T07:32:37Z</time>
      </trkpt>
      <trkpt lat="45.08013" lon="5.37647">
        <ele>813.4</ele>
        <time>2015-10-18T07:32:38Z</time>
      </trkpt>
      <trkpt lat="45.08008" lon="5.37656">
        <ele>813.4</ele>
        <time>2015-10-18T07:32:39Z</time>
      </trkpt>
      <trkpt lat="45.0799" lon="5.37685">
        <ele>817.3</ele>
        <time>2015-10-18T07:32:43Z</time>
      </trkpt>
      <trkpt lat="45.07988" lon="5.37692">
        <ele>817.7</ele>
        <time>2015-10-18T07:32:44Z</time>
      </trkpt>
      <trkpt lat="45.07989" lon="5.37699">
        <ele>818.2</ele>
        <time>2015-10-18T07:32:45Z</time>
      </trkpt>
      <trkpt lat="45.07991" lon="5.37705">
        <ele>818.7</ele>
        <time>2015-10-18T07:32:46Z</time>
      </trkpt>
      <trkpt lat="45.07995" lon="5.3771">
        <ele>819.2</ele>
        <time>2015-10-18T07:32:47Z</time>
      </trkpt>
      <trkpt lat="45.07999" lon="5.37715">
        <ele>819.2</ele>
        <time>2015-10-18T07:32:48Z</time>
      </trkpt>
      <trkpt lat="45.08003" lon="5.37718">
        <ele>819.7</ele>
        <time>2015-10-18T07:32:49Z</time>
      </trkpt>
      <trkpt lat="45.08006" lon="5.37719">
        <ele>819.7</ele>
        <time>2015-10-18T07:32:50Z</time>
      </trkpt>
      <trkpt lat="45.08007" lon="5.3772">
        <ele>819.7</ele>
        <time>2015-10-18T07:32:51Z</time>
      </trkpt>
      <trkpt lat="45.08012" lon="5.37717">
        <ele>815.8</ele>
        <time>2015-10-18T07:33:06Z</time>
      </trkpt>
      <trkpt lat="45.08009" lon="5.37716">
        <ele>815.3</ele>
        <time>2015-10-18T07:33:39Z</time>
      </trkpt>
      <trkpt lat="45.08013" lon="5.37718">
        <ele>823</ele>
        <time>2015-10-18T07:38:09Z</time>
      </trkpt>
      <trkpt lat="45.08017" lon="5.3772">
        <ele>823</ele>
        <time>2015-10-18T07:38:10Z</time>
      </trkpt>
      <trkpt lat="45.08035" lon="5.37733">
        <ele>823</ele>
        <time>2015-10-18T07:38:13Z</time>
      </trkpt>
      <trkpt lat="45.08042" lon="5.37741">
        <ele>823.5</ele>
        <time>2015-10-18T07:38:14Z</time>
      </trkpt>
      <trkpt lat="45.08048" lon="5.3775">
        <ele>823.5</ele>
        <time>2015-10-18T07:38:15Z</time>
      </trkpt>
      <trkpt lat="45.08053" lon="5.3776">
        <ele>823.5</ele>
        <time>2015-10-18T07:38:16Z</time>
      </trkpt>
      <trkpt lat="45.08057" lon="5.37771">
        <ele>823.5</ele>
        <time>2015-10-18T07:38:17Z</time>
      </trkpt>
      <trkpt lat="45.08059" lon="5.37782">
        <ele>823.5</ele>
        <time>2015-10-18T07:38:18Z</time>
      </trkpt>
      <trkpt lat="45.0806" lon="5.37794">
        <ele>823.5</ele>
        <time>2015-10-18T07:38:19Z</time>
      </trkpt>
      <trkpt lat="45.08061" lon="5.37806">
        <ele>823.5</ele>
        <time>2015-10-18T07:38:20Z</time>
      </trkpt>
      <trkpt lat="45.08065" lon="5.37846">
        <ele>823.5</ele>
        <time>2015-10-18T07:38:23Z</time>
      </trkpt>
      <trkpt lat="45.08069" lon="5.37859">
        <ele>824</ele>
        <time>2015-10-18T07:38:24Z</time>
      </trkpt>
      <trkpt lat="45.08074" lon="5.3787">
        <ele>824</ele>
        <time>2015-10-18T07:38:25Z</time>
      </trkpt>
      <trkpt lat="45.08082" lon="5.3788">
        <ele>824</ele>
        <time>2015-10-18T07:38:26Z</time>
      </trkpt>
      <trkpt lat="45.0809" lon="5.3789">
        <ele>824</ele>
        <time>2015-10-18T07:38:27Z</time>
      </trkpt>
      <trkpt lat="45.08098" lon="5.37898">
        <ele>824</ele>
        <time>2015-10-18T07:38:28Z</time>
      </trkpt>
      <trkpt lat="45.08111" lon="5.37921">
        <ele>824</ele>
        <time>2015-10-18T07:38:30Z</time>
      </trkpt>
      <trkpt lat="45.08115" lon="5.37935">
        <ele>824</ele>
        <time>2015-10-18T07:38:31Z</time>
      </trkpt>
      <trkpt lat="45.08125" lon="5.37959">
        <ele>823</ele>
        <time>2015-10-18T07:38:33Z</time>
      </trkpt>
      <trkpt lat="45.08132" lon="5.37968">
        <ele>823</ele>
        <time>2015-10-18T07:38:34Z</time>
      </trkpt>
      <trkpt lat="45.08141" lon="5.37975">
        <ele>822.6</ele>
        <time>2015-10-18T07:38:35Z</time>
      </trkpt>
      <trkpt lat="45.0815" lon="5.3798">
        <ele>822.6</ele>
        <time>2015-10-18T07:38:36Z</time>
      </trkpt>
      <trkpt lat="45.0816" lon="5.37986">
        <ele>822.6</ele>
        <time>2015-10-18T07:38:37Z</time>
      </trkpt>
      <trkpt lat="45.08191" lon="5.38006">
        <ele>823</ele>
        <time>2015-10-18T07:38:40Z</time>
      </trkpt>
      <trkpt lat="45.08201" lon="5.38015">
        <ele>823</ele>
        <time>2015-10-18T07:38:41Z</time>
      </trkpt>
      <trkpt lat="45.08209" lon="5.38027">
        <ele>823.5</ele>
        <time>2015-10-18T07:38:42Z</time>
      </trkpt>
      <trkpt lat="45.08217" lon="5.38041">
        <ele>823.5</ele>
        <time>2015-10-18T07:38:43Z</time>
      </trkpt>
      <trkpt lat="45.08225" lon="5.38054">
        <ele>824</ele>
        <time>2015-10-18T07:38:44Z</time>
      </trkpt>
      <trkpt lat="45.08233" lon="5.38065">
        <ele>824</ele>
        <time>2015-10-18T07:38:45Z</time>
      </trkpt>
      <trkpt lat="45.08242" lon="5.38074">
        <ele>824.5</ele>
        <time>2015-10-18T07:38:46Z</time>
      </trkpt>
      <trkpt lat="45.08253" lon="5.3808">
        <ele>825</ele>
        <time>2015-10-18T07:38:47Z</time>
      </trkpt>
      <trkpt lat="45.08265" lon="5.38085">
        <ele>825</ele>
        <time>2015-10-18T07:38:48Z</time>
      </trkpt>
      <trkpt lat="45.08277" lon="5.38089">
        <ele>825</ele>
        <time>2015-10-18T07:38:49Z</time>
      </trkpt>
      <trkpt lat="45.08452" lon="5.38164">
        <ele>829.8</ele>
        <time>2015-10-18T07:39:02Z</time>
      </trkpt>
      <trkpt lat="45.08617" lon="5.38223">
        <ele>836.5</ele>
        <time>2015-10-18T07:39:14Z</time>
      </trkpt>
      <trkpt lat="45.08805" lon="5.38255">
        <ele>844.7</ele>
        <time>2015-10-18T07:39:27Z</time>
      </trkpt>
      <trkpt lat="45.08851" lon="5.38267">
        <ele>846.6</ele>
        <time>2015-10-18T07:39:30Z</time>
      </trkpt>
      <trkpt lat="45.08867" lon="5.38266">
        <ele>847.1</ele>
        <time>2015-10-18T07:39:31Z</time>
      </trkpt>
      <trkpt lat="45.08977" lon="5.38252">
        <ele>852.4</ele>
        <time>2015-10-18T07:39:38Z</time>
      </trkpt>
      <trkpt lat="45.08991" lon="5.38247">
        <ele>852.8</ele>
        <time>2015-10-18T07:39:39Z</time>
      </trkpt>
      <trkpt lat="45.09055" lon="5.3822">
        <ele>856.7</ele>
        <time>2015-10-18T07:39:44Z</time>
      </trkpt>
      <trkpt lat="45.09068" lon="5.38218">
        <ele>857.6</ele>
        <time>2015-10-18T07:39:45Z</time>
      </trkpt>
      <trkpt lat="45.09081" lon="5.3822">
        <ele>858.1</ele>
        <time>2015-10-18T07:39:46Z</time>
      </trkpt>
      <trkpt lat="45.09092" lon="5.38224">
        <ele>859.1</ele>
        <time>2015-10-18T07:39:47Z</time>
      </trkpt>
      <trkpt lat="45.09102" lon="5.3823">
        <ele>859.6</ele>
        <time>2015-10-18T07:39:48Z</time>
      </trkpt>
      <trkpt lat="45.09111" lon="5.38238">
        <ele>860</ele>
        <time>2015-10-18T07:39:49Z</time>
      </trkpt>
      <trkpt lat="45.09119" lon="5.38246">
        <ele>860.5</ele>
        <time>2015-10-18T07:39:50Z</time>
      </trkpt>
      <trkpt lat="45.09124" lon="5.38253">
        <ele>861.5</ele>
        <time>2015-10-18T07:39:51Z</time>
      </trkpt>
      <trkpt lat="45.09128" lon="5.38252">
        <ele>862.9</ele>
        <time>2015-10-18T07:39:52Z</time>
      </trkpt>
      <trkpt lat="45.09134" lon="5.3825">
        <ele>864.4</ele>
        <time>2015-10-18T07:39:53Z</time>
      </trkpt>
      <trkpt lat="45.09143" lon="5.38249">
        <ele>865.3</ele>
        <time>2015-10-18T07:39:54Z</time>
      </trkpt>
      <trkpt lat="45.09153" lon="5.3825">
        <ele>866.3</ele>
        <time>2015-10-18T07:39:55Z</time>
      </trkpt>
      <trkpt lat="45.09163" lon="5.38251">
        <ele>867.7</ele>
        <time>2015-10-18T07:39:56Z</time>
      </trkpt>
      <trkpt lat="45.09172" lon="5.38254">
        <ele>869.2</ele>
        <time>2015-10-18T07:39:57Z</time>
      </trkpt>
      <trkpt lat="45.09181" lon="5.38257">
        <ele>870.1</ele>
        <time>2015-10-18T07:39:58Z</time>
      </trkpt>
      <trkpt lat="45.0919" lon="5.38261">
        <ele>871.1</ele>
        <time>2015-10-18T07:39:59Z</time>
      </trkpt>
      <trkpt lat="45.09198" lon="5.38266">
        <ele>872.1</ele>
        <time>2015-10-18T07:40:00Z</time>
      </trkpt>
      <trkpt lat="45.09206" lon="5.38273">
        <ele>873</ele>
        <time>2015-10-18T07:40:01Z</time>
      </trkpt>
      <trkpt lat="45.09212" lon="5.38283">
        <ele>874</ele>
        <time>2015-10-18T07:40:02Z</time>
      </trkpt>
      <trkpt lat="45.0922" lon="5.38294">
        <ele>874.9</ele>
        <time>2015-10-18T07:40:03Z</time>
      </trkpt>
      <trkpt lat="45.09227" lon="5.38304">
        <ele>875.9</ele>
        <time>2015-10-18T07:40:04Z</time>
      </trkpt>
      <trkpt lat="45.09236" lon="5.38313">
        <ele>876.9</ele>
        <time>2015-10-18T07:40:05Z</time>
      </trkpt>
      <trkpt lat="45.093" lon="5.38393">
        <ele>879.7</ele>
        <time>2015-10-18T07:40:12Z</time>
      </trkpt>
      <trkpt lat="45.09307" lon="5.38407">
        <ele>880.2</ele>
        <time>2015-10-18T07:40:13Z</time>
      </trkpt>
      <trkpt lat="45.09315" lon="5.38421">
        <ele>879.7</ele>
        <time>2015-10-18T07:40:14Z</time>
      </trkpt>
      <trkpt lat="45.09322" lon="5.38436">
        <ele>880.2</ele>
        <time>2015-10-18T07:40:15Z</time>
      </trkpt>
      <trkpt lat="45.09331" lon="5.38451">
        <ele>880.2</ele>
        <time>2015-10-18T07:40:16Z</time>
      </trkpt>
      <trkpt lat="45.09341" lon="5.38463">
        <ele>880.7</ele>
        <time>2015-10-18T07:40:17Z</time>
      </trkpt>
      <trkpt lat="45.09351" lon="5.38476">
        <ele>880.7</ele>
        <time>2015-10-18T07:40:18Z</time>
      </trkpt>
      <trkpt lat="45.09362" lon="5.38491">
        <ele>881.2</ele>
        <time>2015-10-18T07:40:19Z</time>
      </trkpt>
      <trkpt lat="45.09369" lon="5.3851">
        <ele>881.7</ele>
        <time>2015-10-18T07:40:20Z</time>
      </trkpt>
      <trkpt lat="45.09385" lon="5.38542">
        <ele>882.2</ele>
        <time>2015-10-18T07:40:22Z</time>
      </trkpt>
      <trkpt lat="45.09397" lon="5.38551">
        <ele>882.2</ele>
        <time>2015-10-18T07:40:23Z</time>
      </trkpt>
      <trkpt lat="45.0941" lon="5.38559">
        <ele>882.6</ele>
        <time>2015-10-18T07:40:24Z</time>
      </trkpt>
      <trkpt lat="45.09424" lon="5.38566">
        <ele>883.1</ele>
        <time>2015-10-18T07:40:25Z</time>
      </trkpt>
      <trkpt lat="45.09439" lon="5.38573">
        <ele>884.6</ele>
        <time>2015-10-18T07:40:26Z</time>
      </trkpt>
      <trkpt lat="45.09455" lon="5.38578">
        <ele>885.5</ele>
        <time>2015-10-18T07:40:27Z</time>
      </trkpt>
      <trkpt lat="45.09472" lon="5.38584">
        <ele>886.5</ele>
        <time>2015-10-18T07:40:28Z</time>
      </trkpt>
      <trkpt lat="45.09489" lon="5.38593">
        <ele>887.4</ele>
        <time>2015-10-18T07:40:29Z</time>
      </trkpt>
      <trkpt lat="45.09504" lon="5.38602">
        <ele>888.4</ele>
        <time>2015-10-18T07:40:30Z</time>
      </trkpt>
      <trkpt lat="45.09556" lon="5.38643">
        <ele>891.8</ele>
        <time>2015-10-18T07:40:34Z</time>
      </trkpt>
      <trkpt lat="45.09563" lon="5.38656">
        <ele>892.2</ele>
        <time>2015-10-18T07:40:35Z</time>
      </trkpt>
      <trkpt lat="45.09565" lon="5.38669">
        <ele>893.2</ele>
        <time>2015-10-18T07:40:36Z</time>
      </trkpt>
      <trkpt lat="45.09563" lon="5.38686">
        <ele>894.2</ele>
        <time>2015-10-18T07:40:37Z</time>
      </trkpt>
      <trkpt lat="45.0956" lon="5.38703">
        <ele>895.1</ele>
        <time>2015-10-18T07:40:38Z</time>
      </trkpt>
      <trkpt lat="45.09555" lon="5.38716">
        <ele>897.1</ele>
        <time>2015-10-18T07:40:39Z</time>
      </trkpt>
      <trkpt lat="45.09552" lon="5.38731">
        <ele>897.5</ele>
        <time>2015-10-18T07:40:40Z</time>
      </trkpt>
      <trkpt lat="45.09551" lon="5.38741">
        <ele>898</ele>
        <time>2015-10-18T07:40:41Z</time>
      </trkpt>
      <trkpt lat="45.09553" lon="5.38749">
        <ele>898</ele>
        <time>2015-10-18T07:40:42Z</time>
      </trkpt>
      <trkpt lat="45.09559" lon="5.38755">
        <ele>898.5</ele>
        <time>2015-10-18T07:40:43Z</time>
      </trkpt>
      <trkpt lat="45.09569" lon="5.38757">
        <ele>899.5</ele>
        <time>2015-10-18T07:40:44Z</time>
      </trkpt>
      <trkpt lat="45.09581" lon="5.38751">
        <ele>900.4</ele>
        <time>2015-10-18T07:40:45Z</time>
      </trkpt>
      <trkpt lat="45.09594" lon="5.38748">
        <ele>901.9</ele>
        <time>2015-10-18T07:40:46Z</time>
      </trkpt>
      <trkpt lat="45.09607" lon="5.38744">
        <ele>901.9</ele>
        <time>2015-10-18T07:40:47Z</time>
      </trkpt>
      <trkpt lat="45.09621" lon="5.38745">
        <ele>902.3</ele>
        <time>2015-10-18T07:40:48Z</time>
      </trkpt>
      <trkpt lat="45.09633" lon="5.38752">
        <ele>902.3</ele>
        <time>2015-10-18T07:40:49Z</time>
      </trkpt>
      <trkpt lat="45.09641" lon="5.38763">
        <ele>902.3</ele>
        <time>2015-10-18T07:40:50Z</time>
      </trkpt>
      <trkpt lat="45.09649" lon="5.38776">
        <ele>902.8</ele>
        <time>2015-10-18T07:40:51Z</time>
      </trkpt>
      <trkpt lat="45.09656" lon="5.3879">
        <ele>903.3</ele>
        <time>2015-10-18T07:40:52Z</time>
      </trkpt>
      <trkpt lat="45.09659" lon="5.38805">
        <ele>903.3</ele>
        <time>2015-10-18T07:40:53Z</time>
      </trkpt>
      <trkpt lat="45.09654" lon="5.38831">
        <ele>903.3</ele>
        <time>2015-10-18T07:40:55Z</time>
      </trkpt>
      <trkpt lat="45.09649" lon="5.38841">
        <ele>903.8</ele>
        <time>2015-10-18T07:40:56Z</time>
      </trkpt>
      <trkpt lat="45.09643" lon="5.38848">
        <ele>904.3</ele>
        <time>2015-10-18T07:40:57Z</time>
      </trkpt>
      <trkpt lat="45.0964" lon="5.38855">
        <ele>904.3</ele>
        <time>2015-10-18T07:40:58Z</time>
      </trkpt>
      <trkpt lat="45.0964" lon="5.38862">
        <ele>904.3</ele>
        <time>2015-10-18T07:40:59Z</time>
      </trkpt>
      <trkpt lat="45.09643" lon="5.38867">
        <ele>903.8</ele>
        <time>2015-10-18T07:41:00Z</time>
      </trkpt>
      <trkpt lat="45.09648" lon="5.38872">
        <ele>903.8</ele>
        <time>2015-10-18T07:41:01Z</time>
      </trkpt>
      <trkpt lat="45.09654" lon="5.38875">
        <ele>903.8</ele>
        <time>2015-10-18T07:41:02Z</time>
      </trkpt>
      <trkpt lat="45.09664" lon="5.38878">
        <ele>904.3</ele>
        <time>2015-10-18T07:41:03Z</time>
      </trkpt>
      <trkpt lat="45.09674" lon="5.3888">
        <ele>904.7</ele>
        <time>2015-10-18T07:41:04Z</time>
      </trkpt>
      <trkpt lat="45.0973" lon="5.389">
        <ele>907.1</ele>
        <time>2015-10-18T07:41:09Z</time>
      </trkpt>
      <trkpt lat="45.09741" lon="5.38907">
        <ele>907.1</ele>
        <time>2015-10-18T07:41:10Z</time>
      </trkpt>
      <trkpt lat="45.09751" lon="5.38917">
        <ele>907.6</ele>
        <time>2015-10-18T07:41:11Z</time>
      </trkpt>
      <trkpt lat="45.09771" lon="5.38935">
        <ele>908.1</ele>
        <time>2015-10-18T07:41:13Z</time>
      </trkpt>
      <trkpt lat="45.09782" lon="5.38939">
        <ele>908.1</ele>
        <time>2015-10-18T07:41:14Z</time>
      </trkpt>
      <trkpt lat="45.09794" lon="5.38942">
        <ele>908.1</ele>
        <time>2015-10-18T07:41:15Z</time>
      </trkpt>
      <trkpt lat="45.09805" lon="5.3894">
        <ele>908.6</ele>
        <time>2015-10-18T07:41:16Z</time>
      </trkpt>
      <trkpt lat="45.09817" lon="5.38931">
        <ele>909.1</ele>
        <time>2015-10-18T07:41:17Z</time>
      </trkpt>
      <trkpt lat="45.09828" lon="5.3892">
        <ele>909.1</ele>
        <time>2015-10-18T07:41:18Z</time>
      </trkpt>
      <trkpt lat="45.09839" lon="5.38912">
        <ele>909.5</ele>
        <time>2015-10-18T07:41:19Z</time>
      </trkpt>
      <trkpt lat="45.0985" lon="5.38904">
        <ele>910.5</ele>
        <time>2015-10-18T07:41:20Z</time>
      </trkpt>
      <trkpt lat="45.09861" lon="5.38904">
        <ele>910.5</ele>
        <time>2015-10-18T07:41:21Z</time>
      </trkpt>
      <trkpt lat="45.09873" lon="5.38909">
        <ele>911</ele>
        <time>2015-10-18T07:41:22Z</time>
      </trkpt>
      <trkpt lat="45.09882" lon="5.38919">
        <ele>911</ele>
        <time>2015-10-18T07:41:23Z</time>
      </trkpt>
      <trkpt lat="45.09889" lon="5.38935">
        <ele>911</ele>
        <time>2015-10-18T07:41:24Z</time>
      </trkpt>
      <trkpt lat="45.09898" lon="5.3895">
        <ele>911.5</ele>
        <time>2015-10-18T07:41:25Z</time>
      </trkpt>
      <trkpt lat="45.09908" lon="5.38964">
        <ele>911</ele>
        <time>2015-10-18T07:41:26Z</time>
      </trkpt>
      <trkpt lat="45.09956" lon="5.39013">
        <ele>913.9</ele>
        <time>2015-10-18T07:41:30Z</time>
      </trkpt>
      <trkpt lat="45.09969" lon="5.39019">
        <ele>914.4</ele>
        <time>2015-10-18T07:41:31Z</time>
      </trkpt>
      <trkpt lat="45.09983" lon="5.39018">
        <ele>915.3</ele>
        <time>2015-10-18T07:41:32Z</time>
      </trkpt>
      <trkpt lat="45.09997" lon="5.39013">
        <ele>915.8</ele>
        <time>2015-10-18T07:41:33Z</time>
      </trkpt>
      <trkpt lat="45.10009" lon="5.39004">
        <ele>915.8</ele>
        <time>2015-10-18T07:41:34Z</time>
      </trkpt>
      <trkpt lat="45.10021" lon="5.38991">
        <ele>916.3</ele>
        <time>2015-10-18T07:41:35Z</time>
      </trkpt>
      <trkpt lat="45.10032" lon="5.38978">
        <ele>916.8</ele>
        <time>2015-10-18T07:41:36Z</time>
      </trkpt>
      <trkpt lat="45.10042" lon="5.38964">
        <ele>917.2</ele>
        <time>2015-10-18T07:41:37Z</time>
      </trkpt>
      <trkpt lat="45.10052" lon="5.38953">
        <ele>917.7</ele>
        <time>2015-10-18T07:41:38Z</time>
      </trkpt>
      <trkpt lat="45.10063" lon="5.38946">
        <ele>917.7</ele>
        <time>2015-10-18T07:41:39Z</time>
      </trkpt>
      <trkpt lat="45.10084" lon="5.38951">
        <ele>918.2</ele>
        <time>2015-10-18T07:41:41Z</time>
      </trkpt>
      <trkpt lat="45.10094" lon="5.38958">
        <ele>918.7</ele>
        <time>2015-10-18T07:41:42Z</time>
      </trkpt>
      <trkpt lat="45.10107" lon="5.38971">
        <ele>919.2</ele>
        <time>2015-10-18T07:41:43Z</time>
      </trkpt>
      <trkpt lat="45.1012" lon="5.38983">
        <ele>920.1</ele>
        <time>2015-10-18T07:41:44Z</time>
      </trkpt>
      <trkpt lat="45.10219" lon="5.39067">
        <ele>924</ele>
        <time>2015-10-18T07:41:51Z</time>
      </trkpt>
      <trkpt lat="45.10227" lon="5.39082">
        <ele>924.5</ele>
        <time>2015-10-18T07:41:52Z</time>
      </trkpt>
      <trkpt lat="45.10232" lon="5.391">
        <ele>924.9</ele>
        <time>2015-10-18T07:41:53Z</time>
      </trkpt>
      <trkpt lat="45.10233" lon="5.39116">
        <ele>925.4</ele>
        <time>2015-10-18T07:41:54Z</time>
      </trkpt>
      <trkpt lat="45.10234" lon="5.39132">
        <ele>925.4</ele>
        <time>2015-10-18T07:41:55Z</time>
      </trkpt>
      <trkpt lat="45.10238" lon="5.39145">
        <ele>925.9</ele>
        <time>2015-10-18T07:41:56Z</time>
      </trkpt>
      <trkpt lat="45.10246" lon="5.39153">
        <ele>926.4</ele>
        <time>2015-10-18T07:41:57Z</time>
      </trkpt>
      <trkpt lat="45.10256" lon="5.39161">
        <ele>926.9</ele>
        <time>2015-10-18T07:41:58Z</time>
      </trkpt>
      <trkpt lat="45.10268" lon="5.39168">
        <ele>927.8</ele>
        <time>2015-10-18T07:41:59Z</time>
      </trkpt>
      <trkpt lat="45.10282" lon="5.39174">
        <ele>928.3</ele>
        <time>2015-10-18T07:42:00Z</time>
      </trkpt>
      <trkpt lat="45.10295" lon="5.39179">
        <ele>929.3</ele>
        <time>2015-10-18T07:42:01Z</time>
      </trkpt>
      <trkpt lat="45.10307" lon="5.39182">
        <ele>929.7</ele>
        <time>2015-10-18T07:42:02Z</time>
      </trkpt>
      <trkpt lat="45.1032" lon="5.39181">
        <ele>930.7</ele>
        <time>2015-10-18T07:42:03Z</time>
      </trkpt>
      <trkpt lat="45.10334" lon="5.39179">
        <ele>931.7</ele>
        <time>2015-10-18T07:42:04Z</time>
      </trkpt>
      <trkpt lat="45.10347" lon="5.39175">
        <ele>932.1</ele>
        <time>2015-10-18T07:42:05Z</time>
      </trkpt>
      <trkpt lat="45.10404" lon="5.39165">
        <ele>935</ele>
        <time>2015-10-18T07:42:09Z</time>
      </trkpt>
      <trkpt lat="45.10416" lon="5.39167">
        <ele>935.5</ele>
        <time>2015-10-18T07:42:10Z</time>
      </trkpt>
      <trkpt lat="45.10428" lon="5.39171">
        <ele>936.5</ele>
        <time>2015-10-18T07:42:11Z</time>
      </trkpt>
      <trkpt lat="45.10438" lon="5.39178">
        <ele>936.5</ele>
        <time>2015-10-18T07:42:12Z</time>
      </trkpt>
      <trkpt lat="45.10446" lon="5.39187">
        <ele>936.9</ele>
        <time>2015-10-18T07:42:13Z</time>
      </trkpt>
      <trkpt lat="45.10454" lon="5.39198">
        <ele>937.4</ele>
        <time>2015-10-18T07:42:14Z</time>
      </trkpt>
      <trkpt lat="45.10544" lon="5.39282">
        <ele>943.2</ele>
        <time>2015-10-18T07:42:22Z</time>
      </trkpt>
      <trkpt lat="45.10588" lon="5.3933">
        <ele>946.1</ele>
        <time>2015-10-18T07:42:26Z</time>
      </trkpt>
      <trkpt lat="45.10601" lon="5.39337">
        <ele>947</ele>
        <time>2015-10-18T07:42:27Z</time>
      </trkpt>
      <trkpt lat="45.10614" lon="5.39341">
        <ele>948</ele>
        <time>2015-10-18T07:42:28Z</time>
      </trkpt>
      <trkpt lat="45.10628" lon="5.39345">
        <ele>949</ele>
        <time>2015-10-18T07:42:29Z</time>
      </trkpt>
      <trkpt lat="45.10642" lon="5.39352">
        <ele>949.4</ele>
        <time>2015-10-18T07:42:30Z</time>
      </trkpt>
      <trkpt lat="45.10655" lon="5.39362">
        <ele>950.4</ele>
        <time>2015-10-18T07:42:31Z</time>
      </trkpt>
      <trkpt lat="45.10666" lon="5.39375">
        <ele>950.9</ele>
        <time>2015-10-18T07:42:32Z</time>
      </trkpt>
      <trkpt lat="45.10677" lon="5.39389">
        <ele>952.3</ele>
        <time>2015-10-18T07:42:33Z</time>
      </trkpt>
      <trkpt lat="45.10687" lon="5.39405">
        <ele>953.3</ele>
        <time>2015-10-18T07:42:34Z</time>
      </trkpt>
      <trkpt lat="45.10714" lon="5.39448">
        <ele>956.2</ele>
        <time>2015-10-18T07:42:37Z</time>
      </trkpt>
      <trkpt lat="45.10719" lon="5.39463">
        <ele>957.1</ele>
        <time>2015-10-18T07:42:38Z</time>
      </trkpt>
      <trkpt lat="45.10721" lon="5.39479">
        <ele>958.1</ele>
        <time>2015-10-18T07:42:39Z</time>
      </trkpt>
      <trkpt lat="45.10724" lon="5.39495">
        <ele>958.6</ele>
        <time>2015-10-18T07:42:40Z</time>
      </trkpt>
      <trkpt lat="45.1073" lon="5.39509">
        <ele>959.1</ele>
        <time>2015-10-18T07:42:41Z</time>
      </trkpt>
      <trkpt lat="45.10737" lon="5.39522">
        <ele>960</ele>
        <time>2015-10-18T07:42:42Z</time>
      </trkpt>
      <trkpt lat="45.10747" lon="5.39535">
        <ele>961</ele>
        <time>2015-10-18T07:42:43Z</time>
      </trkpt>
      <trkpt lat="45.10758" lon="5.39548">
        <ele>961.9</ele>
        <time>2015-10-18T07:42:44Z</time>
      </trkpt>
      <trkpt lat="45.10768" lon="5.3956">
        <ele>962.4</ele>
        <time>2015-10-18T07:42:45Z</time>
      </trkpt>
      <trkpt lat="45.10777" lon="5.39572">
        <ele>963.4</ele>
        <time>2015-10-18T07:42:46Z</time>
      </trkpt>
      <trkpt lat="45.10784" lon="5.39585">
        <ele>964.3</ele>
        <time>2015-10-18T07:42:47Z</time>
      </trkpt>
      <trkpt lat="45.10786" lon="5.39599">
        <ele>965.3</ele>
        <time>2015-10-18T07:42:48Z</time>
      </trkpt>
      <trkpt lat="45.10785" lon="5.39615">
        <ele>965.8</ele>
        <time>2015-10-18T07:42:49Z</time>
      </trkpt>
      <trkpt lat="45.10784" lon="5.39631">
        <ele>966.7</ele>
        <time>2015-10-18T07:42:50Z</time>
      </trkpt>
      <trkpt lat="45.10782" lon="5.39646">
        <ele>967.2</ele>
        <time>2015-10-18T07:42:51Z</time>
      </trkpt>
      <trkpt lat="45.10782" lon="5.39661">
        <ele>967.7</ele>
        <time>2015-10-18T07:42:52Z</time>
      </trkpt>
      <trkpt lat="45.10784" lon="5.39674">
        <ele>968.2</ele>
        <time>2015-10-18T07:42:53Z</time>
      </trkpt>
      <trkpt lat="45.10789" lon="5.39684">
        <ele>968.2</ele>
        <time>2015-10-18T07:42:54Z</time>
      </trkpt>
      <trkpt lat="45.10796" lon="5.39691">
        <ele>968.7</ele>
        <time>2015-10-18T07:42:55Z</time>
      </trkpt>
      <trkpt lat="45.10807" lon="5.39696">
        <ele>969.2</ele>
        <time>2015-10-18T07:42:56Z</time>
      </trkpt>
      <trkpt lat="45.10817" lon="5.39701">
        <ele>970.1</ele>
        <time>2015-10-18T07:42:57Z</time>
      </trkpt>
      <trkpt lat="45.10871" lon="5.39732">
        <ele>973.5</ele>
        <time>2015-10-18T07:43:02Z</time>
      </trkpt>
      <trkpt lat="45.10883" lon="5.39735">
        <ele>974</ele>
        <time>2015-10-18T07:43:03Z</time>
      </trkpt>
      <trkpt lat="45.10909" lon="5.39733">
        <ele>975.9</ele>
        <time>2015-10-18T07:43:05Z</time>
      </trkpt>
      <trkpt lat="45.10921" lon="5.39731">
        <ele>976.8</ele>
        <time>2015-10-18T07:43:06Z</time>
      </trkpt>
      <trkpt lat="45.10944" lon="5.3973">
        <ele>978.3</ele>
        <time>2015-10-18T07:43:08Z</time>
      </trkpt>
      <trkpt lat="45.10955" lon="5.39732">
        <ele>978.8</ele>
        <time>2015-10-18T07:43:09Z</time>
      </trkpt>
      <trkpt lat="45.10965" lon="5.39741">
        <ele>978.8</ele>
        <time>2015-10-18T07:43:10Z</time>
      </trkpt>
      <trkpt lat="45.10973" lon="5.39753">
        <ele>979.7</ele>
        <time>2015-10-18T07:43:11Z</time>
      </trkpt>
      <trkpt lat="45.10981" lon="5.39766">
        <ele>980.7</ele>
        <time>2015-10-18T07:43:12Z</time>
      </trkpt>
      <trkpt lat="45.10989" lon="5.39779">
        <ele>981.6</ele>
        <time>2015-10-18T07:43:13Z</time>
      </trkpt>
      <trkpt lat="45.10999" lon="5.39792">
        <ele>982.6</ele>
        <time>2015-10-18T07:43:14Z</time>
      </trkpt>
      <trkpt lat="45.11009" lon="5.39803">
        <ele>983.1</ele>
        <time>2015-10-18T07:43:15Z</time>
      </trkpt>
      <trkpt lat="45.1102" lon="5.39813">
        <ele>983.6</ele>
        <time>2015-10-18T07:43:16Z</time>
      </trkpt>
      <trkpt lat="45.11033" lon="5.39821">
        <ele>984.5</ele>
        <time>2015-10-18T07:43:17Z</time>
      </trkpt>
      <trkpt lat="45.11046" lon="5.39828">
        <ele>985</ele>
        <time>2015-10-18T07:43:18Z</time>
      </trkpt>
      <trkpt lat="45.1106" lon="5.39832">
        <ele>986</ele>
        <time>2015-10-18T07:43:19Z</time>
      </trkpt>
      <trkpt lat="45.11073" lon="5.39835">
        <ele>986.9</ele>
        <time>2015-10-18T07:43:20Z</time>
      </trkpt>
      <trkpt lat="45.11087" lon="5.39836">
        <ele>987.4</ele>
        <time>2015-10-18T07:43:21Z</time>
      </trkpt>
      <trkpt lat="45.11113" lon="5.39842">
        <ele>989.3</ele>
        <time>2015-10-18T07:43:23Z</time>
      </trkpt>
      <trkpt lat="45.11126" lon="5.39848">
        <ele>989.8</ele>
        <time>2015-10-18T07:43:24Z</time>
      </trkpt>
      <trkpt lat="45.11138" lon="5.39857">
        <ele>990.8</ele>
        <time>2015-10-18T07:43:25Z</time>
      </trkpt>
      <trkpt lat="45.11161" lon="5.39873">
        <ele>992.2</ele>
        <time>2015-10-18T07:43:27Z</time>
      </trkpt>
      <trkpt lat="45.11211" lon="5.39896">
        <ele>996.1</ele>
        <time>2015-10-18T07:43:31Z</time>
      </trkpt>
      <trkpt lat="45.11225" lon="5.39897">
        <ele>996.5</ele>
        <time>2015-10-18T07:43:32Z</time>
      </trkpt>
      <trkpt lat="45.11238" lon="5.39894">
        <ele>997.5</ele>
        <time>2015-10-18T07:43:33Z</time>
      </trkpt>
      <trkpt lat="45.1128" lon="5.39878">
        <ele>999.4</ele>
        <time>2015-10-18T07:43:36Z</time>
      </trkpt>
      <trkpt lat="45.11292" lon="5.3987">
        <ele>1000.4</ele>
        <time>2015-10-18T07:43:37Z</time>
      </trkpt>
      <trkpt lat="45.1134" lon="5.39842">
        <ele>1004.2</ele>
        <time>2015-10-18T07:43:41Z</time>
      </trkpt>
      <trkpt lat="45.11353" lon="5.39842">
        <ele>1005.2</ele>
        <time>2015-10-18T07:43:42Z</time>
      </trkpt>
      <trkpt lat="45.11378" lon="5.39845">
        <ele>1006.6</ele>
        <time>2015-10-18T07:43:44Z</time>
      </trkpt>
      <trkpt lat="45.1139" lon="5.39854">
        <ele>1007.1</ele>
        <time>2015-10-18T07:43:45Z</time>
      </trkpt>
      <trkpt lat="45.11401" lon="5.39865">
        <ele>1007.1</ele>
        <time>2015-10-18T07:43:46Z</time>
      </trkpt>
      <trkpt lat="45.11411" lon="5.39877">
        <ele>1008.1</ele>
        <time>2015-10-18T07:43:47Z</time>
      </trkpt>
      <trkpt lat="45.11421" lon="5.39889">
        <ele>1009</ele>
        <time>2015-10-18T07:43:48Z</time>
      </trkpt>
      <trkpt lat="45.11433" lon="5.39899">
        <ele>1010</ele>
        <time>2015-10-18T07:43:49Z</time>
      </trkpt>
      <trkpt lat="45.11445" lon="5.39906">
        <ele>1010.5</ele>
        <time>2015-10-18T07:43:50Z</time>
      </trkpt>
      <trkpt lat="45.11457" lon="5.39913">
        <ele>1011</ele>
        <time>2015-10-18T07:43:51Z</time>
      </trkpt>
      <trkpt lat="45.1149" lon="5.39933">
        <ele>1011.9</ele>
        <time>2015-10-18T07:43:54Z</time>
      </trkpt>
      <trkpt lat="45.11499" lon="5.39941">
        <ele>1011.9</ele>
        <time>2015-10-18T07:43:55Z</time>
      </trkpt>
      <trkpt lat="45.11507" lon="5.39952">
        <ele>1011.9</ele>
        <time>2015-10-18T07:43:56Z</time>
      </trkpt>
      <trkpt lat="45.11514" lon="5.39963">
        <ele>1011.4</ele>
        <time>2015-10-18T07:43:57Z</time>
      </trkpt>
      <trkpt lat="45.11521" lon="5.39973">
        <ele>1011</ele>
        <time>2015-10-18T07:43:58Z</time>
      </trkpt>
      <trkpt lat="45.11528" lon="5.39981">
        <ele>1011</ele>
        <time>2015-10-18T07:43:59Z</time>
      </trkpt>
      <trkpt lat="45.11536" lon="5.39987">
        <ele>1010.5</ele>
        <time>2015-10-18T07:44:00Z</time>
      </trkpt>
      <trkpt lat="45.11549" lon="5.39996">
        <ele>1011</ele>
        <time>2015-10-18T07:44:02Z</time>
      </trkpt>
      <trkpt lat="45.11554" lon="5.40001">
        <ele>1011.4</ele>
        <time>2015-10-18T07:44:03Z</time>
      </trkpt>
      <trkpt lat="45.11557" lon="5.40006">
        <ele>1011.9</ele>
        <time>2015-10-18T07:44:04Z</time>
      </trkpt>
      <trkpt lat="45.11559" lon="5.40012">
        <ele>1012.4</ele>
        <time>2015-10-18T07:44:05Z</time>
      </trkpt>
      <trkpt lat="45.1156" lon="5.40021">
        <ele>1012.9</ele>
        <time>2015-10-18T07:44:06Z</time>
      </trkpt>
      <trkpt lat="45.11562" lon="5.40032">
        <ele>1012.9</ele>
        <time>2015-10-18T07:44:07Z</time>
      </trkpt>
      <trkpt lat="45.11576" lon="5.40095">
        <ele>1013.9</ele>
        <time>2015-10-18T07:44:12Z</time>
      </trkpt>
      <trkpt lat="45.11581" lon="5.40107">
        <ele>1013.9</ele>
        <time>2015-10-18T07:44:13Z</time>
      </trkpt>
      <trkpt lat="45.11587" lon="5.40117">
        <ele>1013.4</ele>
        <time>2015-10-18T07:44:14Z</time>
      </trkpt>
      <trkpt lat="45.11594" lon="5.40127">
        <ele>1012.9</ele>
        <time>2015-10-18T07:44:15Z</time>
      </trkpt>
      <trkpt lat="45.11602" lon="5.40136">
        <ele>1012.4</ele>
        <time>2015-10-18T07:44:16Z</time>
      </trkpt>
      <trkpt lat="45.11664" lon="5.40249">
        <ele>1012.4</ele>
        <time>2015-10-18T07:44:25Z</time>
      </trkpt>
      <trkpt lat="45.11669" lon="5.40262">
        <ele>1012.4</ele>
        <time>2015-10-18T07:44:26Z</time>
      </trkpt>
      <trkpt lat="45.11671" lon="5.40275">
        <ele>1012.4</ele>
        <time>2015-10-18T07:44:27Z</time>
      </trkpt>
      <trkpt lat="45.1167" lon="5.40289">
        <ele>1011.9</ele>
        <time>2015-10-18T07:44:28Z</time>
      </trkpt>
      <trkpt lat="45.11665" lon="5.40302">
        <ele>1011.9</ele>
        <time>2015-10-18T07:44:29Z</time>
      </trkpt>
      <trkpt lat="45.11658" lon="5.40314">
        <ele>1012.4</ele>
        <time>2015-10-18T07:44:30Z</time>
      </trkpt>
      <trkpt lat="45.11651" lon="5.40324">
        <ele>1012.9</ele>
        <time>2015-10-18T07:44:31Z</time>
      </trkpt>
      <trkpt lat="45.11645" lon="5.40333">
        <ele>1013.4</ele>
        <time>2015-10-18T07:44:32Z</time>
      </trkpt>
      <trkpt lat="45.11641" lon="5.40342">
        <ele>1013.9</ele>
        <time>2015-10-18T07:44:33Z</time>
      </trkpt>
      <trkpt lat="45.11641" lon="5.40351">
        <ele>1014.3</ele>
        <time>2015-10-18T07:44:34Z</time>
      </trkpt>
      <trkpt lat="45.11643" lon="5.4036">
        <ele>1014.8</ele>
        <time>2015-10-18T07:44:35Z</time>
      </trkpt>
      <trkpt lat="45.11647" lon="5.40368">
        <ele>1015.8</ele>
        <time>2015-10-18T07:44:36Z</time>
      </trkpt>
      <trkpt lat="45.11652" lon="5.40376">
        <ele>1016.7</ele>
        <time>2015-10-18T07:44:37Z</time>
      </trkpt>
      <trkpt lat="45.11659" lon="5.40384">
        <ele>1017.2</ele>
        <time>2015-10-18T07:44:38Z</time>
      </trkpt>
      <trkpt lat="45.11667" lon="5.40392">
        <ele>1018.7</ele>
        <time>2015-10-18T07:44:39Z</time>
      </trkpt>
      <trkpt lat="45.11676" lon="5.404">
        <ele>1019.6</ele>
        <time>2015-10-18T07:44:40Z</time>
      </trkpt>
      <trkpt lat="45.11705" lon="5.40428">
        <ele>1023</ele>
        <time>2015-10-18T07:44:43Z</time>
      </trkpt>
      <trkpt lat="45.11713" lon="5.4044">
        <ele>1024.4</ele>
        <time>2015-10-18T07:44:44Z</time>
      </trkpt>
      <trkpt lat="45.11721" lon="5.40453">
        <ele>1025.4</ele>
        <time>2015-10-18T07:44:45Z</time>
      </trkpt>
      <trkpt lat="45.11726" lon="5.40468">
        <ele>1026.8</ele>
        <time>2015-10-18T07:44:46Z</time>
      </trkpt>
      <trkpt lat="45.1173" lon="5.40484">
        <ele>1028.3</ele>
        <time>2015-10-18T07:44:47Z</time>
      </trkpt>
      <trkpt lat="45.11732" lon="5.40501">
        <ele>1029.7</ele>
        <time>2015-10-18T07:44:48Z</time>
      </trkpt>
      <trkpt lat="45.11735" lon="5.40517">
        <ele>1031.2</ele>
        <time>2015-10-18T07:44:49Z</time>
      </trkpt>
      <trkpt lat="45.1174" lon="5.40533">
        <ele>1032.6</ele>
        <time>2015-10-18T07:44:50Z</time>
      </trkpt>
      <trkpt lat="45.11745" lon="5.40548">
        <ele>1034</ele>
        <time>2015-10-18T07:44:51Z</time>
      </trkpt>
      <trkpt lat="45.11764" lon="5.40591">
        <ele>1038.4</ele>
        <time>2015-10-18T07:44:54Z</time>
      </trkpt>
      <trkpt lat="45.11768" lon="5.40606">
        <ele>1039.8</ele>
        <time>2015-10-18T07:44:55Z</time>
      </trkpt>
      <trkpt lat="45.11769" lon="5.40622">
        <ele>1041.3</ele>
        <time>2015-10-18T07:44:56Z</time>
      </trkpt>
      <trkpt lat="45.11768" lon="5.40638">
        <ele>1042.2</ele>
        <time>2015-10-18T07:44:57Z</time>
      </trkpt>
      <trkpt lat="45.11766" lon="5.40654">
        <ele>1043.7</ele>
        <time>2015-10-18T07:44:58Z</time>
      </trkpt>
      <trkpt lat="45.11766" lon="5.40669">
        <ele>1045.1</ele>
        <time>2015-10-18T07:44:59Z</time>
      </trkpt>
      <trkpt lat="45.11767" lon="5.40683">
        <ele>1046.1</ele>
        <time>2015-10-18T07:45:00Z</time>
      </trkpt>
      <trkpt lat="45.11772" lon="5.40696">
        <ele>1047.5</ele>
        <time>2015-10-18T07:45:01Z</time>
      </trkpt>
      <trkpt lat="45.11779" lon="5.40707">
        <ele>1048.5</ele>
        <time>2015-10-18T07:45:02Z</time>
      </trkpt>
      <trkpt lat="45.1179" lon="5.40716">
        <ele>1049.4</ele>
        <time>2015-10-18T07:45:03Z</time>
      </trkpt>
      <trkpt lat="45.11802" lon="5.40723">
        <ele>1051.3</ele>
        <time>2015-10-18T07:45:04Z</time>
      </trkpt>
      <trkpt lat="45.11815" lon="5.40729">
        <ele>1052.8</ele>
        <time>2015-10-18T07:45:05Z</time>
      </trkpt>
      <trkpt lat="45.11829" lon="5.40734">
        <ele>1054.2</ele>
        <time>2015-10-18T07:45:06Z</time>
      </trkpt>
      <trkpt lat="45.11842" lon="5.40738">
        <ele>1055.7</ele>
        <time>2015-10-18T07:45:07Z</time>
      </trkpt>
      <trkpt lat="45.11855" lon="5.4074">
        <ele>1057.1</ele>
        <time>2015-10-18T07:45:08Z</time>
      </trkpt>
      <trkpt lat="45.1196" lon="5.40734">
        <ele>1068.2</ele>
        <time>2015-10-18T07:45:16Z</time>
      </trkpt>
      <trkpt lat="45.11969" lon="5.40735">
        <ele>1069.1</ele>
        <time>2015-10-18T07:45:17Z</time>
      </trkpt>
      <trkpt lat="45.11977" lon="5.40738">
        <ele>1069.6</ele>
        <time>2015-10-18T07:45:18Z</time>
      </trkpt>
      <trkpt lat="45.11981" lon="5.40746">
        <ele>1070.6</ele>
        <time>2015-10-18T07:45:19Z</time>
      </trkpt>
      <trkpt lat="45.11979" lon="5.40767">
        <ele>1072</ele>
        <time>2015-10-18T07:45:21Z</time>
      </trkpt>
      <trkpt lat="45.11975" lon="5.4078">
        <ele>1072.5</ele>
        <time>2015-10-18T07:45:22Z</time>
      </trkpt>
      <trkpt lat="45.11968" lon="5.40794">
        <ele>1073</ele>
        <time>2015-10-18T07:45:23Z</time>
      </trkpt>
      <trkpt lat="45.11962" lon="5.40808">
        <ele>1073.9</ele>
        <time>2015-10-18T07:45:24Z</time>
      </trkpt>
      <trkpt lat="45.11956" lon="5.40823">
        <ele>1074.9</ele>
        <time>2015-10-18T07:45:25Z</time>
      </trkpt>
      <trkpt lat="45.11952" lon="5.40838">
        <ele>1075.4</ele>
        <time>2015-10-18T07:45:26Z</time>
      </trkpt>
      <trkpt lat="45.11951" lon="5.40856">
        <ele>1075.9</ele>
        <time>2015-10-18T07:45:27Z</time>
      </trkpt>
      <trkpt lat="45.1195" lon="5.40875">
        <ele>1077.3</ele>
        <time>2015-10-18T07:45:28Z</time>
      </trkpt>
      <trkpt lat="45.1195" lon="5.40893">
        <ele>1078.3</ele>
        <time>2015-10-18T07:45:29Z</time>
      </trkpt>
      <trkpt lat="45.11949" lon="5.4091">
        <ele>1079.2</ele>
        <time>2015-10-18T07:45:30Z</time>
      </trkpt>
      <trkpt lat="45.11946" lon="5.40926">
        <ele>1080.7</ele>
        <time>2015-10-18T07:45:31Z</time>
      </trkpt>
      <trkpt lat="45.11941" lon="5.40942">
        <ele>1081.6</ele>
        <time>2015-10-18T07:45:32Z</time>
      </trkpt>
      <trkpt lat="45.11932" lon="5.40974">
        <ele>1083.5</ele>
        <time>2015-10-18T07:45:34Z</time>
      </trkpt>
      <trkpt lat="45.1193" lon="5.4099">
        <ele>1084.5</ele>
        <time>2015-10-18T07:45:35Z</time>
      </trkpt>
      <trkpt lat="45.11931" lon="5.41006">
        <ele>1085.5</ele>
        <time>2015-10-18T07:45:36Z</time>
      </trkpt>
      <trkpt lat="45.11934" lon="5.41021">
        <ele>1086.4</ele>
        <time>2015-10-18T07:45:37Z</time>
      </trkpt>
      <trkpt lat="45.11938" lon="5.41036">
        <ele>1086.9</ele>
        <time>2015-10-18T07:45:38Z</time>
      </trkpt>
      <trkpt lat="45.11943" lon="5.41051">
        <ele>1087.4</ele>
        <time>2015-10-18T07:45:39Z</time>
      </trkpt>
      <trkpt lat="45.11953" lon="5.4109">
        <ele>1089.8</ele>
        <time>2015-10-18T07:45:42Z</time>
      </trkpt>
      <trkpt lat="45.11955" lon="5.41107">
        <ele>1092.2</ele>
        <time>2015-10-18T07:45:44Z</time>
      </trkpt>
      <trkpt lat="45.11954" lon="5.4111">
        <ele>1094.1</ele>
        <time>2015-10-18T07:45:45Z</time>
      </trkpt>
      <trkpt lat="45.11948" lon="5.41112">
        <ele>1096.5</ele>
        <time>2015-10-18T07:45:46Z</time>
      </trkpt>
      <trkpt lat="45.1194" lon="5.41114">
        <ele>1098.4</ele>
        <time>2015-10-18T07:45:47Z</time>
      </trkpt>
      <trkpt lat="45.11931" lon="5.41115">
        <ele>1100.4</ele>
        <time>2015-10-18T07:45:48Z</time>
      </trkpt>
      <trkpt lat="45.11919" lon="5.41115">
        <ele>1102.8</ele>
        <time>2015-10-18T07:45:49Z</time>
      </trkpt>
      <trkpt lat="45.11909" lon="5.41118">
        <ele>1105.2</ele>
        <time>2015-10-18T07:45:50Z</time>
      </trkpt>
      <trkpt lat="45.11863" lon="5.41132">
        <ele>1109</ele>
        <time>2015-10-18T07:45:54Z</time>
      </trkpt>
      <trkpt lat="45.11851" lon="5.41138">
        <ele>1110</ele>
        <time>2015-10-18T07:45:55Z</time>
      </trkpt>
      <trkpt lat="45.11841" lon="5.41147">
        <ele>1110.5</ele>
        <time>2015-10-18T07:45:56Z</time>
      </trkpt>
      <trkpt lat="45.11832" lon="5.41158">
        <ele>1111.4</ele>
        <time>2015-10-18T07:45:57Z</time>
      </trkpt>
      <trkpt lat="45.11829" lon="5.41178">
        <ele>1110.5</ele>
        <time>2015-10-18T07:45:58Z</time>
      </trkpt>
      <trkpt lat="45.11824" lon="5.41197">
        <ele>1110</ele>
        <time>2015-10-18T07:45:59Z</time>
      </trkpt>
      <trkpt lat="45.11818" lon="5.41214">
        <ele>1110.9</ele>
        <time>2015-10-18T07:46:00Z</time>
      </trkpt>
      <trkpt lat="45.11755" lon="5.41321">
        <ele>1115.3</ele>
        <time>2015-10-18T07:46:07Z</time>
      </trkpt>
      <trkpt lat="45.11749" lon="5.41338">
        <ele>1115.8</ele>
        <time>2015-10-18T07:46:08Z</time>
      </trkpt>
      <trkpt lat="45.11745" lon="5.41356">
        <ele>1115.8</ele>
        <time>2015-10-18T07:46:09Z</time>
      </trkpt>
      <trkpt lat="45.11745" lon="5.41377">
        <ele>1116.2</ele>
        <time>2015-10-18T07:46:10Z</time>
      </trkpt>
      <trkpt lat="45.11746" lon="5.41397">
        <ele>1117.2</ele>
        <time>2015-10-18T07:46:11Z</time>
      </trkpt>
      <trkpt lat="45.11748" lon="5.41419">
        <ele>1118.2</ele>
        <time>2015-10-18T07:46:12Z</time>
      </trkpt>
      <trkpt lat="45.11752" lon="5.4144">
        <ele>1119.6</ele>
        <time>2015-10-18T07:46:13Z</time>
      </trkpt>
      <trkpt lat="45.11756" lon="5.41462">
        <ele>1120.1</ele>
        <time>2015-10-18T07:46:14Z</time>
      </trkpt>
      <trkpt lat="45.11781" lon="5.41561">
        <ele>1127.8</ele>
        <time>2015-10-18T07:46:19Z</time>
      </trkpt>
      <trkpt lat="45.11789" lon="5.41577">
        <ele>1129.7</ele>
        <time>2015-10-18T07:46:20Z</time>
      </trkpt>
      <trkpt lat="45.11825" lon="5.41633">
        <ele>1135</ele>
        <time>2015-10-18T07:46:24Z</time>
      </trkpt>
      <trkpt lat="45.1184" lon="5.4164">
        <ele>1136.9</ele>
        <time>2015-10-18T07:46:25Z</time>
      </trkpt>
      <trkpt lat="45.11854" lon="5.41643">
        <ele>1139.3</ele>
        <time>2015-10-18T07:46:26Z</time>
      </trkpt>
      <trkpt lat="45.11868" lon="5.41645">
        <ele>1141.2</ele>
        <time>2015-10-18T07:46:27Z</time>
      </trkpt>
      <trkpt lat="45.11884" lon="5.41646">
        <ele>1142.7</ele>
        <time>2015-10-18T07:46:28Z</time>
      </trkpt>
      <trkpt lat="45.119" lon="5.41642">
        <ele>1144.1</ele>
        <time>2015-10-18T07:46:29Z</time>
      </trkpt>
      <trkpt lat="45.11917" lon="5.41637">
        <ele>1146</ele>
        <time>2015-10-18T07:46:30Z</time>
      </trkpt>
      <trkpt lat="45.11933" lon="5.4163">
        <ele>1147</ele>
        <time>2015-10-18T07:46:31Z</time>
      </trkpt>
      <trkpt lat="45.11948" lon="5.41622">
        <ele>1148.9</ele>
        <time>2015-10-18T07:46:32Z</time>
      </trkpt>
      <trkpt lat="45.11961" lon="5.41613">
        <ele>1150.4</ele>
        <time>2015-10-18T07:46:33Z</time>
      </trkpt>
      <trkpt lat="45.11992" lon="5.41596">
        <ele>1155.2</ele>
        <time>2015-10-18T07:46:36Z</time>
      </trkpt>
      <trkpt lat="45.12003" lon="5.41604">
        <ele>1156.6</ele>
        <time>2015-10-18T07:46:37Z</time>
      </trkpt>
      <trkpt lat="45.12012" lon="5.41617">
        <ele>1156.6</ele>
        <time>2015-10-18T07:46:38Z</time>
      </trkpt>
      <trkpt lat="45.12017" lon="5.41633">
        <ele>1157.1</ele>
        <time>2015-10-18T07:46:39Z</time>
      </trkpt>
      <trkpt lat="45.1202" lon="5.41651">
        <ele>1157.1</ele>
        <time>2015-10-18T07:46:40Z</time>
      </trkpt>
      <trkpt lat="45.12021" lon="5.41671">
        <ele>1157.1</ele>
        <time>2015-10-18T07:46:41Z</time>
      </trkpt>
      <trkpt lat="45.1202" lon="5.41716">
        <ele>1159</ele>
        <time>2015-10-18T07:46:43Z</time>
      </trkpt>
      <trkpt lat="45.12019" lon="5.41739">
        <ele>1159.5</ele>
        <time>2015-10-18T07:46:44Z</time>
      </trkpt>
      <trkpt lat="45.12018" lon="5.4176">
        <ele>1160.5</ele>
        <time>2015-10-18T07:46:45Z</time>
      </trkpt>
      <trkpt lat="45.12021" lon="5.41778">
        <ele>1161.4</ele>
        <time>2015-10-18T07:46:46Z</time>
      </trkpt>
      <trkpt lat="45.12025" lon="5.41793">
        <ele>1162.4</ele>
        <time>2015-10-18T07:46:47Z</time>
      </trkpt>
      <trkpt lat="45.12036" lon="5.41799">
        <ele>1162.9</ele>
        <time>2015-10-18T07:46:48Z</time>
      </trkpt>
      <trkpt lat="45.12046" lon="5.41811">
        <ele>1164.3</ele>
        <time>2015-10-18T07:46:49Z</time>
      </trkpt>
      <trkpt lat="45.12059" lon="5.41819">
        <ele>1165.7</ele>
        <time>2015-10-18T07:46:50Z</time>
      </trkpt>
      <trkpt lat="45.12078" lon="5.41823">
        <ele>1165.3</ele>
        <time>2015-10-18T07:46:51Z</time>
      </trkpt>
      <trkpt lat="45.12095" lon="5.41829">
        <ele>1165.3</ele>
        <time>2015-10-18T07:46:52Z</time>
      </trkpt>
      <trkpt lat="45.12112" lon="5.41835">
        <ele>1165.3</ele>
        <time>2015-10-18T07:46:53Z</time>
      </trkpt>
      <trkpt lat="45.12162" lon="5.41834">
        <ele>1166.7</ele>
        <time>2015-10-18T07:46:56Z</time>
      </trkpt>
      <trkpt lat="45.12177" lon="5.41829">
        <ele>1167.7</ele>
        <time>2015-10-18T07:46:57Z</time>
      </trkpt>
      <trkpt lat="45.12232" lon="5.41851">
        <ele>1171</ele>
        <time>2015-10-18T07:47:01Z</time>
      </trkpt>
      <trkpt lat="45.12239" lon="5.4187">
        <ele>1170.5</ele>
        <time>2015-10-18T07:47:02Z</time>
      </trkpt>
      <trkpt lat="45.12246" lon="5.41888">
        <ele>1171.5</ele>
        <time>2015-10-18T07:47:03Z</time>
      </trkpt>
      <trkpt lat="45.12253" lon="5.41906">
        <ele>1173</ele>
        <time>2015-10-18T07:47:04Z</time>
      </trkpt>
      <trkpt lat="45.12259" lon="5.41918">
        <ele>1173.9</ele>
        <time>2015-10-18T07:47:05Z</time>
      </trkpt>
      <trkpt lat="45.12268" lon="5.41931">
        <ele>1175.4</ele>
        <time>2015-10-18T07:47:06Z</time>
      </trkpt>
      <trkpt lat="45.12279" lon="5.41942">
        <ele>1177.8</ele>
        <time>2015-10-18T07:47:07Z</time>
      </trkpt>
      <trkpt lat="45.12289" lon="5.41953">
        <ele>1178.7</ele>
        <time>2015-10-18T07:47:08Z</time>
      </trkpt>
      <trkpt lat="45.12329" lon="5.42001">
        <ele>1185</ele>
        <time>2015-10-18T07:47:12Z</time>
      </trkpt>
      <trkpt lat="45.12337" lon="5.42003">
        <ele>1187.4</ele>
        <time>2015-10-18T07:47:13Z</time>
      </trkpt>
      <trkpt lat="45.12347" lon="5.42001">
        <ele>1190.3</ele>
        <time>2015-10-18T07:47:14Z</time>
      </trkpt>
      <trkpt lat="45.12354" lon="5.41995">
        <ele>1192.2</ele>
        <time>2015-10-18T07:47:15Z</time>
      </trkpt>
      <trkpt lat="45.1236" lon="5.41978">
        <ele>1195.1</ele>
        <time>2015-10-18T07:47:16Z</time>
      </trkpt>
      <trkpt lat="45.12367" lon="5.41967">
        <ele>1196</ele>
        <time>2015-10-18T07:47:17Z</time>
      </trkpt>
      <trkpt lat="45.12373" lon="5.41954">
        <ele>1195.5</ele>
        <time>2015-10-18T07:47:18Z</time>
      </trkpt>
      <trkpt lat="45.12379" lon="5.41941">
        <ele>1195.5</ele>
        <time>2015-10-18T07:47:19Z</time>
      </trkpt>
      <trkpt lat="45.12403" lon="5.419">
        <ele>1197.9</ele>
        <time>2015-10-18T07:47:22Z</time>
      </trkpt>
      <trkpt lat="45.12415" lon="5.41894">
        <ele>1198.9</ele>
        <time>2015-10-18T07:47:23Z</time>
      </trkpt>
      <trkpt lat="45.12427" lon="5.41887">
        <ele>1200.8</ele>
        <time>2015-10-18T07:47:24Z</time>
      </trkpt>
      <trkpt lat="45.1244" lon="5.41885">
        <ele>1202.8</ele>
        <time>2015-10-18T07:47:25Z</time>
      </trkpt>
      <trkpt lat="45.12455" lon="5.41885">
        <ele>1205.2</ele>
        <time>2015-10-18T07:47:26Z</time>
      </trkpt>
      <trkpt lat="45.12469" lon="5.41885">
        <ele>1207.1</ele>
        <time>2015-10-18T07:47:27Z</time>
      </trkpt>
      <trkpt lat="45.12525" lon="5.41876">
        <ele>1209.5</ele>
        <time>2015-10-18T07:47:31Z</time>
      </trkpt>
      <trkpt lat="45.12538" lon="5.41875">
        <ele>1210.4</ele>
        <time>2015-10-18T07:47:32Z</time>
      </trkpt>
      <trkpt lat="45.12549" lon="5.41877">
        <ele>1210.9</ele>
        <time>2015-10-18T07:47:33Z</time>
      </trkpt>
      <trkpt lat="45.1256" lon="5.41882">
        <ele>1210.4</ele>
        <time>2015-10-18T07:47:34Z</time>
      </trkpt>
      <trkpt lat="45.12569" lon="5.41892">
        <ele>1209.5</ele>
        <time>2015-10-18T07:47:35Z</time>
      </trkpt>
      <trkpt lat="45.12573" lon="5.41909">
        <ele>1210.4</ele>
        <time>2015-10-18T07:47:36Z</time>
      </trkpt>
      <trkpt lat="45.12574" lon="5.41926">
        <ele>1211.4</ele>
        <time>2015-10-18T07:47:37Z</time>
      </trkpt>
      <trkpt lat="45.12575" lon="5.41943">
        <ele>1211.9</ele>
        <time>2015-10-18T07:47:38Z</time>
      </trkpt>
      <trkpt lat="45.12577" lon="5.41961">
        <ele>1212.4</ele>
        <time>2015-10-18T07:47:39Z</time>
      </trkpt>
      <trkpt lat="45.12598" lon="5.42061">
        <ele>1214.3</ele>
        <time>2015-10-18T07:47:45Z</time>
      </trkpt>
      <trkpt lat="45.12632" lon="5.42173">
        <ele>1214.3</ele>
        <time>2015-10-18T07:47:54Z</time>
      </trkpt>
      <trkpt lat="45.12662" lon="5.42252">
        <ele>1214.3</ele>
        <time>2015-10-18T07:48:03Z</time>
      </trkpt>
      <trkpt lat="45.12668" lon="5.42267">
        <ele>1214.3</ele>
        <time>2015-10-18T07:48:05Z</time>
      </trkpt>
      <trkpt lat="45.12675" lon="5.42291">
        <ele>1213.3</ele>
        <time>2015-10-18T07:48:08Z</time>
      </trkpt>
      <trkpt lat="45.12682" lon="5.42325">
        <ele>1213.3</ele>
        <time>2015-10-18T07:48:12Z</time>
      </trkpt>
      <trkpt lat="45.12683" lon="5.42333">
        <ele>1212.8</ele>
        <time>2015-10-18T07:48:13Z</time>
      </trkpt>
      <trkpt lat="45.12683" lon="5.42341">
        <ele>1213.3</ele>
        <time>2015-10-18T07:48:14Z</time>
      </trkpt>
      <trkpt lat="45.12683" lon="5.4235">
        <ele>1213.8</ele>
        <time>2015-10-18T07:48:15Z</time>
      </trkpt>
      <trkpt lat="45.12682" lon="5.42359">
        <ele>1214.3</ele>
        <time>2015-10-18T07:48:16Z</time>
      </trkpt>
      <trkpt lat="45.12664" lon="5.42471">
        <ele>1215.7</ele>
        <time>2015-10-18T07:48:27Z</time>
      </trkpt>
      <trkpt lat="45.12638" lon="5.4258">
        <ele>1225.8</ele>
        <time>2015-10-18T07:48:40Z</time>
      </trkpt>
      <trkpt lat="45.12636" lon="5.42589">
        <ele>1227.3</ele>
        <time>2015-10-18T07:48:41Z</time>
      </trkpt>
      <trkpt lat="45.12633" lon="5.42597">
        <ele>1226.8</ele>
        <time>2015-10-18T07:48:42Z</time>
      </trkpt>
      <trkpt lat="45.12633" lon="5.42607">
        <ele>1228.2</ele>
        <time>2015-10-18T07:48:43Z</time>
      </trkpt>
      <trkpt lat="45.12633" lon="5.42617">
        <ele>1228.7</ele>
        <time>2015-10-18T07:48:44Z</time>
      </trkpt>
      <trkpt lat="45.12632" lon="5.42626">
        <ele>1228.2</ele>
        <time>2015-10-18T07:48:45Z</time>
      </trkpt>
      <trkpt lat="45.12633" lon="5.42635">
        <ele>1227.7</ele>
        <time>2015-10-18T07:48:46Z</time>
      </trkpt>
      <trkpt lat="45.12635" lon="5.42644">
        <ele>1227.7</ele>
        <time>2015-10-18T07:48:47Z</time>
      </trkpt>
      <trkpt lat="45.12638" lon="5.42652">
        <ele>1227.3</ele>
        <time>2015-10-18T07:48:48Z</time>
      </trkpt>
      <trkpt lat="45.12642" lon="5.4266">
        <ele>1227.3</ele>
        <time>2015-10-18T07:48:49Z</time>
      </trkpt>
      <trkpt lat="45.12647" lon="5.42667">
        <ele>1227.7</ele>
        <time>2015-10-18T07:48:50Z</time>
      </trkpt>
      <trkpt lat="45.12654" lon="5.4267">
        <ele>1227.7</ele>
        <time>2015-10-18T07:48:51Z</time>
      </trkpt>
      <trkpt lat="45.12663" lon="5.42669">
        <ele>1228.2</ele>
        <time>2015-10-18T07:48:52Z</time>
      </trkpt>
      <trkpt lat="45.12672" lon="5.42669">
        <ele>1228.7</ele>
        <time>2015-10-18T07:48:53Z</time>
      </trkpt>
      <trkpt lat="45.12683" lon="5.42669">
        <ele>1229.7</ele>
        <time>2015-10-18T07:48:54Z</time>
      </trkpt>
      <trkpt lat="45.12693" lon="5.42668">
        <ele>1230.1</ele>
        <time>2015-10-18T07:48:55Z</time>
      </trkpt>
      <trkpt lat="45.12801" lon="5.42639">
        <ele>1238.8</ele>
        <time>2015-10-18T07:49:05Z</time>
      </trkpt>
      <trkpt lat="45.12813" lon="5.4264">
        <ele>1240.7</ele>
        <time>2015-10-18T07:49:06Z</time>
      </trkpt>
      <trkpt lat="45.12825" lon="5.42643">
        <ele>1242.2</ele>
        <time>2015-10-18T07:49:07Z</time>
      </trkpt>
      <trkpt lat="45.12837" lon="5.42648">
        <ele>1244.1</ele>
        <time>2015-10-18T07:49:08Z</time>
      </trkpt>
      <trkpt lat="45.12849" lon="5.42655">
        <ele>1245</ele>
        <time>2015-10-18T07:49:09Z</time>
      </trkpt>
      <trkpt lat="45.12861" lon="5.42661">
        <ele>1248.4</ele>
        <time>2015-10-18T07:49:10Z</time>
      </trkpt>
      <trkpt lat="45.12874" lon="5.42673">
        <ele>1248.4</ele>
        <time>2015-10-18T07:49:11Z</time>
      </trkpt>
      <trkpt lat="45.12885" lon="5.42688">
        <ele>1248.9</ele>
        <time>2015-10-18T07:49:12Z</time>
      </trkpt>
      <trkpt lat="45.12896" lon="5.42701">
        <ele>1250.3</ele>
        <time>2015-10-18T07:49:13Z</time>
      </trkpt>
      <trkpt lat="45.12905" lon="5.42718">
        <ele>1251.3</ele>
        <time>2015-10-18T07:49:14Z</time>
      </trkpt>
      <trkpt lat="45.12913" lon="5.42735">
        <ele>1252.3</ele>
        <time>2015-10-18T07:49:15Z</time>
      </trkpt>
      <trkpt lat="45.12919" lon="5.42754">
        <ele>1253.2</ele>
        <time>2015-10-18T07:49:16Z</time>
      </trkpt>
      <trkpt lat="45.12925" lon="5.42773">
        <ele>1254.2</ele>
        <time>2015-10-18T07:49:17Z</time>
      </trkpt>
      <trkpt lat="45.1293" lon="5.42793">
        <ele>1255.1</ele>
        <time>2015-10-18T07:49:18Z</time>
      </trkpt>
      <trkpt lat="45.12939" lon="5.42851">
        <ele>1259</ele>
        <time>2015-10-18T07:49:21Z</time>
      </trkpt>
      <trkpt lat="45.12938" lon="5.42869">
        <ele>1260.4</ele>
        <time>2015-10-18T07:49:22Z</time>
      </trkpt>
      <trkpt lat="45.12936" lon="5.42886">
        <ele>1261.9</ele>
        <time>2015-10-18T07:49:23Z</time>
      </trkpt>
      <trkpt lat="45.12931" lon="5.42904">
        <ele>1263.8</ele>
        <time>2015-10-18T07:49:24Z</time>
      </trkpt>
      <trkpt lat="45.12925" lon="5.42923">
        <ele>1265.2</ele>
        <time>2015-10-18T07:49:25Z</time>
      </trkpt>
      <trkpt lat="45.12917" lon="5.4294">
        <ele>1266.7</ele>
        <time>2015-10-18T07:49:26Z</time>
      </trkpt>
      <trkpt lat="45.12909" lon="5.42957">
        <ele>1268.6</ele>
        <time>2015-10-18T07:49:27Z</time>
      </trkpt>
      <trkpt lat="45.12887" lon="5.43005">
        <ele>1273.4</ele>
        <time>2015-10-18T07:49:30Z</time>
      </trkpt>
      <trkpt lat="45.12883" lon="5.43021">
        <ele>1274.9</ele>
        <time>2015-10-18T07:49:31Z</time>
      </trkpt>
      <trkpt lat="45.12881" lon="5.43038">
        <ele>1276.3</ele>
        <time>2015-10-18T07:49:32Z</time>
      </trkpt>
      <trkpt lat="45.1288" lon="5.43056">
        <ele>1277.7</ele>
        <time>2015-10-18T07:49:33Z</time>
      </trkpt>
      <trkpt lat="45.1288" lon="5.43074">
        <ele>1278.7</ele>
        <time>2015-10-18T07:49:34Z</time>
      </trkpt>
      <trkpt lat="45.12879" lon="5.43092">
        <ele>1280.1</ele>
        <time>2015-10-18T07:49:35Z</time>
      </trkpt>
      <trkpt lat="45.12868" lon="5.43197">
        <ele>1289.3</ele>
        <time>2015-10-18T07:49:41Z</time>
      </trkpt>
      <trkpt lat="45.12863" lon="5.43212">
        <ele>1289.8</ele>
        <time>2015-10-18T07:49:42Z</time>
      </trkpt>
      <trkpt lat="45.12858" lon="5.43227">
        <ele>1290.7</ele>
        <time>2015-10-18T07:49:43Z</time>
      </trkpt>
      <trkpt lat="45.12852" lon="5.43251">
        <ele>1292.2</ele>
        <time>2015-10-18T07:49:45Z</time>
      </trkpt>
      <trkpt lat="45.12852" lon="5.43262">
        <ele>1293.1</ele>
        <time>2015-10-18T07:49:46Z</time>
      </trkpt>
      <trkpt lat="45.12856" lon="5.43281">
        <ele>1294.6</ele>
        <time>2015-10-18T07:49:48Z</time>
      </trkpt>
      <trkpt lat="45.12863" lon="5.43288">
        <ele>1294.6</ele>
        <time>2015-10-18T07:49:49Z</time>
      </trkpt>
      <trkpt lat="45.1287" lon="5.43294">
        <ele>1293.1</ele>
        <time>2015-10-18T07:49:50Z</time>
      </trkpt>
      <trkpt lat="45.12879" lon="5.43301">
        <ele>1292.2</ele>
        <time>2015-10-18T07:49:51Z</time>
      </trkpt>
      <trkpt lat="45.12887" lon="5.43308">
        <ele>1291.7</ele>
        <time>2015-10-18T07:49:52Z</time>
      </trkpt>
      <trkpt lat="45.12978" lon="5.4337">
        <ele>1289.3</ele>
        <time>2015-10-18T07:50:03Z</time>
      </trkpt>
      <trkpt lat="45.13029" lon="5.43411">
        <ele>1288.3</ele>
        <time>2015-10-18T07:50:09Z</time>
      </trkpt>
      <trkpt lat="45.13036" lon="5.43421">
        <ele>1287.8</ele>
        <time>2015-10-18T07:50:10Z</time>
      </trkpt>
      <trkpt lat="45.13042" lon="5.43433">
        <ele>1288.3</ele>
        <time>2015-10-18T07:50:11Z</time>
      </trkpt>
      <trkpt lat="45.13046" lon="5.43444">
        <ele>1287.8</ele>
        <time>2015-10-18T07:50:12Z</time>
      </trkpt>
      <trkpt lat="45.13049" lon="5.43455">
        <ele>1287.8</ele>
        <time>2015-10-18T07:50:13Z</time>
      </trkpt>
      <trkpt lat="45.13052" lon="5.43465">
        <ele>1287.3</ele>
        <time>2015-10-18T07:50:14Z</time>
      </trkpt>
      <trkpt lat="45.13056" lon="5.43483">
        <ele>1287.8</ele>
        <time>2015-10-18T07:50:18Z</time>
      </trkpt>
      <trkpt lat="45.13066" lon="5.43477">
        <ele>1286.9</ele>
        <time>2015-10-18T07:50:25Z</time>
      </trkpt>
      <trkpt lat="45.13069" lon="5.43469">
        <ele>1286.9</ele>
        <time>2015-10-18T07:50:28Z</time>
      </trkpt>
      <trkpt lat="45.13083" lon="5.4345">
        <ele>1287.3</ele>
        <time>2015-10-18T07:50:41Z</time>
      </trkpt>
      <trkpt lat="45.13084" lon="5.43452">
        <ele>1288.8</ele>
        <time>2015-10-18T07:52:34Z</time>
      </trkpt>
      <trkpt lat="45.13072" lon="5.43436">
        <ele>1292.2</ele>
        <time>2015-10-18T07:54:03Z</time>
      </trkpt>
      <trkpt lat="45.13093" lon="5.43432">
        <ele>1292.6</ele>
        <time>2015-10-18T07:54:40Z</time>
      </trkpt>
      <trkpt lat="45.13107" lon="5.43408">
        <ele>1288.3</ele>
        <time>2015-10-18T07:54:43Z</time>
      </trkpt>
      <trkpt lat="45.13163" lon="5.43287">
        <ele>1274.9</ele>
        <time>2015-10-18T07:54:52Z</time>
      </trkpt>
      <trkpt lat="45.13234" lon="5.43194">
        <ele>1264.3</ele>
        <time>2015-10-18T07:54:59Z</time>
      </trkpt>
      <trkpt lat="45.13244" lon="5.43185">
        <ele>1263.3</ele>
        <time>2015-10-18T07:55:00Z</time>
      </trkpt>
      <trkpt lat="45.13265" lon="5.43171">
        <ele>1260.4</ele>
        <time>2015-10-18T07:55:02Z</time>
      </trkpt>
      <trkpt lat="45.13277" lon="5.43167">
        <ele>1259</ele>
        <time>2015-10-18T07:55:03Z</time>
      </trkpt>
      <trkpt lat="45.1329" lon="5.43165">
        <ele>1257.5</ele>
        <time>2015-10-18T07:55:04Z</time>
      </trkpt>
      <trkpt lat="45.13303" lon="5.43164">
        <ele>1256.1</ele>
        <time>2015-10-18T07:55:05Z</time>
      </trkpt>
      <trkpt lat="45.13317" lon="5.43165">
        <ele>1254.7</ele>
        <time>2015-10-18T07:55:06Z</time>
      </trkpt>
      <trkpt lat="45.134" lon="5.43165">
        <ele>1245</ele>
        <time>2015-10-18T07:55:13Z</time>
      </trkpt>
      <trkpt lat="45.13407" lon="5.43164">
        <ele>1243.6</ele>
        <time>2015-10-18T07:55:14Z</time>
      </trkpt>
      <trkpt lat="45.13413" lon="5.43164">
        <ele>1242.2</ele>
        <time>2015-10-18T07:55:15Z</time>
      </trkpt>
      <trkpt lat="45.13418" lon="5.43166">
        <ele>1240.7</ele>
        <time>2015-10-18T07:55:16Z</time>
      </trkpt>
      <trkpt lat="45.1342" lon="5.43171">
        <ele>1239.8</ele>
        <time>2015-10-18T07:55:17Z</time>
      </trkpt>
      <trkpt lat="45.13419" lon="5.43178">
        <ele>1238.8</ele>
        <time>2015-10-18T07:55:18Z</time>
      </trkpt>
      <trkpt lat="45.13415" lon="5.43184">
        <ele>1237.8</ele>
        <time>2015-10-18T07:55:19Z</time>
      </trkpt>
      <trkpt lat="45.1341" lon="5.4319">
        <ele>1237.4</ele>
        <time>2015-10-18T07:55:20Z</time>
      </trkpt>
      <trkpt lat="45.13404" lon="5.43196">
        <ele>1236.4</ele>
        <time>2015-10-18T07:55:21Z</time>
      </trkpt>
      <trkpt lat="45.13354" lon="5.43289">
        <ele>1231.6</ele>
        <time>2015-10-18T07:55:29Z</time>
      </trkpt>
      <trkpt lat="45.13349" lon="5.43308">
        <ele>1231.1</ele>
        <time>2015-10-18T07:55:30Z</time>
      </trkpt>
      <trkpt lat="45.13301" lon="5.435">
        <ele>1227.7</ele>
        <time>2015-10-18T07:55:40Z</time>
      </trkpt>
      <trkpt lat="45.13305" lon="5.43648">
        <ele>1224.9</ele>
        <time>2015-10-18T07:55:47Z</time>
      </trkpt>
      <trkpt lat="45.13316" lon="5.43727">
        <ele>1210.9</ele>
        <time>2015-10-18T07:55:51Z</time>
      </trkpt>
      <trkpt lat="45.13327" lon="5.43815">
        <ele>1203.7</ele>
        <time>2015-10-18T07:55:55Z</time>
      </trkpt>
      <trkpt lat="45.13333" lon="5.43836">
        <ele>1202.3</ele>
        <time>2015-10-18T07:55:56Z</time>
      </trkpt>
      <trkpt lat="45.13339" lon="5.43856">
        <ele>1200.3</ele>
        <time>2015-10-18T07:55:57Z</time>
      </trkpt>
      <trkpt lat="45.13347" lon="5.43875">
        <ele>1198.4</ele>
        <time>2015-10-18T07:55:58Z</time>
      </trkpt>
      <trkpt lat="45.13356" lon="5.43893">
        <ele>1197</ele>
        <time>2015-10-18T07:55:59Z</time>
      </trkpt>
      <trkpt lat="45.13365" lon="5.4391">
        <ele>1195.5</ele>
        <time>2015-10-18T07:56:00Z</time>
      </trkpt>
      <trkpt lat="45.13375" lon="5.43925">
        <ele>1194.1</ele>
        <time>2015-10-18T07:56:01Z</time>
      </trkpt>
      <trkpt lat="45.13385" lon="5.4394">
        <ele>1192.7</ele>
        <time>2015-10-18T07:56:02Z</time>
      </trkpt>
      <trkpt lat="45.13394" lon="5.43955">
        <ele>1191.7</ele>
        <time>2015-10-18T07:56:03Z</time>
      </trkpt>
      <trkpt lat="45.13401" lon="5.43972">
        <ele>1189.8</ele>
        <time>2015-10-18T07:56:04Z</time>
      </trkpt>
      <trkpt lat="45.13405" lon="5.4399">
        <ele>1187.9</ele>
        <time>2015-10-18T07:56:05Z</time>
      </trkpt>
      <trkpt lat="45.13408" lon="5.4401">
        <ele>1186.4</ele>
        <time>2015-10-18T07:56:06Z</time>
      </trkpt>
      <trkpt lat="45.13411" lon="5.44031">
        <ele>1185</ele>
        <time>2015-10-18T07:56:07Z</time>
      </trkpt>
      <trkpt lat="45.13416" lon="5.44089">
        <ele>1181.1</ele>
        <time>2015-10-18T07:56:10Z</time>
      </trkpt>
      <trkpt lat="45.13415" lon="5.44106">
        <ele>1179.7</ele>
        <time>2015-10-18T07:56:11Z</time>
      </trkpt>
      <trkpt lat="45.13412" lon="5.44122">
        <ele>1178.2</ele>
        <time>2015-10-18T07:56:12Z</time>
      </trkpt>
      <trkpt lat="45.13407" lon="5.44138">
        <ele>1176.3</ele>
        <time>2015-10-18T07:56:13Z</time>
      </trkpt>
      <trkpt lat="45.13401" lon="5.44155">
        <ele>1175.4</ele>
        <time>2015-10-18T07:56:14Z</time>
      </trkpt>
      <trkpt lat="45.13357" lon="5.44297">
        <ele>1164.3</ele>
        <time>2015-10-18T07:56:22Z</time>
      </trkpt>
      <trkpt lat="45.13347" lon="5.44335">
        <ele>1163.8</ele>
        <time>2015-10-18T07:56:25Z</time>
      </trkpt>
      <trkpt lat="45.13346" lon="5.44346">
        <ele>1164.3</ele>
        <time>2015-10-18T07:56:26Z</time>
      </trkpt>
      <trkpt lat="45.13347" lon="5.44355">
        <ele>1163.3</ele>
        <time>2015-10-18T07:56:27Z</time>
      </trkpt>
      <trkpt lat="45.1335" lon="5.44362">
        <ele>1162.9</ele>
        <time>2015-10-18T07:56:28Z</time>
      </trkpt>
      <trkpt lat="45.13355" lon="5.44371">
        <ele>1162.4</ele>
        <time>2015-10-18T07:56:29Z</time>
      </trkpt>
      <trkpt lat="45.13358" lon="5.44381">
        <ele>1161.9</ele>
        <time>2015-10-18T07:56:30Z</time>
      </trkpt>
      <trkpt lat="45.13361" lon="5.44392">
        <ele>1160.9</ele>
        <time>2015-10-18T07:56:31Z</time>
      </trkpt>
      <trkpt lat="45.13365" lon="5.44402">
        <ele>1160.5</ele>
        <time>2015-10-18T07:56:32Z</time>
      </trkpt>
      <trkpt lat="45.13368" lon="5.44405">
        <ele>1160.9</ele>
        <time>2015-10-18T07:56:33Z</time>
      </trkpt>
      <trkpt lat="45.13374" lon="5.44409">
        <ele>1160.9</ele>
        <time>2015-10-18T07:56:34Z</time>
      </trkpt>
      <trkpt lat="45.13381" lon="5.44414">
        <ele>1161.9</ele>
        <time>2015-10-18T07:56:35Z</time>
      </trkpt>
      <trkpt lat="45.1339" lon="5.44421">
        <ele>1162.4</ele>
        <time>2015-10-18T07:56:36Z</time>
      </trkpt>
      <trkpt lat="45.13403" lon="5.44433">
        <ele>1162.4</ele>
        <time>2015-10-18T07:56:37Z</time>
      </trkpt>
      <trkpt lat="45.13415" lon="5.44447">
        <ele>1162.4</ele>
        <time>2015-10-18T07:56:38Z</time>
      </trkpt>
      <trkpt lat="45.13425" lon="5.44462">
        <ele>1162.4</ele>
        <time>2015-10-18T07:56:39Z</time>
      </trkpt>
      <trkpt lat="45.13434" lon="5.44476">
        <ele>1160.9</ele>
        <time>2015-10-18T07:56:40Z</time>
      </trkpt>
      <trkpt lat="45.13488" lon="5.4454">
        <ele>1153.2</ele>
        <time>2015-10-18T07:56:47Z</time>
      </trkpt>
      <trkpt lat="45.13489" lon="5.44545">
        <ele>1153.2</ele>
        <time>2015-10-18T07:56:48Z</time>
      </trkpt>
      <trkpt lat="45.13489" lon="5.44553">
        <ele>1152.8</ele>
        <time>2015-10-18T07:56:49Z</time>
      </trkpt>
      <trkpt lat="45.13489" lon="5.44562">
        <ele>1152.3</ele>
        <time>2015-10-18T07:56:50Z</time>
      </trkpt>
      <trkpt lat="45.13491" lon="5.4457">
        <ele>1151.8</ele>
        <time>2015-10-18T07:56:51Z</time>
      </trkpt>
      <trkpt lat="45.13494" lon="5.44575">
        <ele>1151.3</ele>
        <time>2015-10-18T07:56:52Z</time>
      </trkpt>
      <trkpt lat="45.135" lon="5.44579">
        <ele>1150.8</ele>
        <time>2015-10-18T07:56:53Z</time>
      </trkpt>
      <trkpt lat="45.13505" lon="5.44583">
        <ele>1150.4</ele>
        <time>2015-10-18T07:56:54Z</time>
      </trkpt>
      <trkpt lat="45.13512" lon="5.44585">
        <ele>1149.9</ele>
        <time>2015-10-18T07:56:55Z</time>
      </trkpt>
      <trkpt lat="45.13523" lon="5.44585">
        <ele>1148</ele>
        <time>2015-10-18T07:56:56Z</time>
      </trkpt>
      <trkpt lat="45.13529" lon="5.44577">
        <ele>1152.8</ele>
        <time>2015-10-18T07:56:57Z</time>
      </trkpt>
      <trkpt lat="45.13535" lon="5.44575">
        <ele>1154.2</ele>
        <time>2015-10-18T07:56:58Z</time>
      </trkpt>
      <trkpt lat="45.13542" lon="5.44574">
        <ele>1156.1</ele>
        <time>2015-10-18T07:56:59Z</time>
      </trkpt>
      <trkpt lat="45.13549" lon="5.44576">
        <ele>1156.6</ele>
        <time>2015-10-18T07:57:00Z</time>
      </trkpt>
      <trkpt lat="45.13559" lon="5.44584">
        <ele>1156.1</ele>
        <time>2015-10-18T07:57:01Z</time>
      </trkpt>
      <trkpt lat="45.13564" lon="5.44585">
        <ele>1157.6</ele>
        <time>2015-10-18T07:57:02Z</time>
      </trkpt>
      <trkpt lat="45.13572" lon="5.44593">
        <ele>1156.6</ele>
        <time>2015-10-18T07:57:03Z</time>
      </trkpt>
      <trkpt lat="45.13584" lon="5.446">
        <ele>1157.1</ele>
        <time>2015-10-18T07:57:05Z</time>
      </trkpt>
      <trkpt lat="45.13682" lon="5.44649">
        <ele>1151.3</ele>
        <time>2015-10-18T07:57:15Z</time>
      </trkpt>
      <trkpt lat="45.13745" lon="5.44678">
        <ele>1137.4</ele>
        <time>2015-10-18T07:57:20Z</time>
      </trkpt>
      <trkpt lat="45.13756" lon="5.44687">
        <ele>1133.1</ele>
        <time>2015-10-18T07:57:21Z</time>
      </trkpt>
      <trkpt lat="45.13766" lon="5.44695">
        <ele>1131.6</ele>
        <time>2015-10-18T07:57:22Z</time>
      </trkpt>
      <trkpt lat="45.13775" lon="5.44704">
        <ele>1129.7</ele>
        <time>2015-10-18T07:57:23Z</time>
      </trkpt>
      <trkpt lat="45.13783" lon="5.44713">
        <ele>1127.8</ele>
        <time>2015-10-18T07:57:24Z</time>
      </trkpt>
      <trkpt lat="45.1379" lon="5.44721">
        <ele>1125.8</ele>
        <time>2015-10-18T07:57:25Z</time>
      </trkpt>
      <trkpt lat="45.13795" lon="5.44727">
        <ele>1124.4</ele>
        <time>2015-10-18T07:57:26Z</time>
      </trkpt>
      <trkpt lat="45.13801" lon="5.44732">
        <ele>1123</ele>
        <time>2015-10-18T07:57:27Z</time>
      </trkpt>
      <trkpt lat="45.13808" lon="5.44735">
        <ele>1122</ele>
        <time>2015-10-18T07:57:28Z</time>
      </trkpt>
      <trkpt lat="45.13814" lon="5.44733">
        <ele>1120.1</ele>
        <time>2015-10-18T07:57:29Z</time>
      </trkpt>
      <trkpt lat="45.13821" lon="5.44729">
        <ele>1119.1</ele>
        <time>2015-10-18T07:57:30Z</time>
      </trkpt>
      <trkpt lat="45.13829" lon="5.44723">
        <ele>1117.7</ele>
        <time>2015-10-18T07:57:31Z</time>
      </trkpt>
      <trkpt lat="45.13837" lon="5.44716">
        <ele>1116.7</ele>
        <time>2015-10-18T07:57:32Z</time>
      </trkpt>
      <trkpt lat="45.13855" lon="5.44703">
        <ele>1114.8</ele>
        <time>2015-10-18T07:57:34Z</time>
      </trkpt>
      <trkpt lat="45.13864" lon="5.44699">
        <ele>1113.8</ele>
        <time>2015-10-18T07:57:35Z</time>
      </trkpt>
      <trkpt lat="45.13875" lon="5.44698">
        <ele>1112.9</ele>
        <time>2015-10-18T07:57:36Z</time>
      </trkpt>
      <trkpt lat="45.13885" lon="5.44698">
        <ele>1111.9</ele>
        <time>2015-10-18T07:57:37Z</time>
      </trkpt>
      <trkpt lat="45.13896" lon="5.44698">
        <ele>1110.9</ele>
        <time>2015-10-18T07:57:38Z</time>
      </trkpt>
      <trkpt lat="45.13906" lon="5.44697">
        <ele>1110</ele>
        <time>2015-10-18T07:57:39Z</time>
      </trkpt>
      <trkpt lat="45.13915" lon="5.44693">
        <ele>1109</ele>
        <time>2015-10-18T07:57:40Z</time>
      </trkpt>
      <trkpt lat="45.13923" lon="5.44685">
        <ele>1108.5</ele>
        <time>2015-10-18T07:57:41Z</time>
      </trkpt>
      <trkpt lat="45.1393" lon="5.44675">
        <ele>1107.6</ele>
        <time>2015-10-18T07:57:42Z</time>
      </trkpt>
      <trkpt lat="45.13935" lon="5.44661">
        <ele>1106.6</ele>
        <time>2015-10-18T07:57:43Z</time>
      </trkpt>
      <trkpt lat="45.1394" lon="5.44645">
        <ele>1106.1</ele>
        <time>2015-10-18T07:57:44Z</time>
      </trkpt>
      <trkpt lat="45.13945" lon="5.44628">
        <ele>1105.2</ele>
        <time>2015-10-18T07:57:45Z</time>
      </trkpt>
      <trkpt lat="45.13994" lon="5.44488">
        <ele>1093.2</ele>
        <time>2015-10-18T07:57:53Z</time>
      </trkpt>
      <trkpt lat="45.14003" lon="5.44475">
        <ele>1091.2</ele>
        <time>2015-10-18T07:57:54Z</time>
      </trkpt>
      <trkpt lat="45.14012" lon="5.44463">
        <ele>1089.3</ele>
        <time>2015-10-18T07:57:55Z</time>
      </trkpt>
      <trkpt lat="45.14024" lon="5.44459">
        <ele>1087.4</ele>
        <time>2015-10-18T07:57:56Z</time>
      </trkpt>
      <trkpt lat="45.14035" lon="5.4446">
        <ele>1086</ele>
        <time>2015-10-18T07:57:57Z</time>
      </trkpt>
      <trkpt lat="45.14044" lon="5.44463">
        <ele>1084.5</ele>
        <time>2015-10-18T07:57:58Z</time>
      </trkpt>
      <trkpt lat="45.14053" lon="5.44473">
        <ele>1083.1</ele>
        <time>2015-10-18T07:57:59Z</time>
      </trkpt>
      <trkpt lat="45.14061" lon="5.4448">
        <ele>1082.6</ele>
        <time>2015-10-18T07:58:00Z</time>
      </trkpt>
      <trkpt lat="45.1407" lon="5.4449">
        <ele>1081.6</ele>
        <time>2015-10-18T07:58:01Z</time>
      </trkpt>
      <trkpt lat="45.14098" lon="5.44519">
        <ele>1079.7</ele>
        <time>2015-10-18T07:58:04Z</time>
      </trkpt>
      <trkpt lat="45.14114" lon="5.44537">
        <ele>1080.7</ele>
        <time>2015-10-18T07:58:06Z</time>
      </trkpt>
      <trkpt lat="45.14121" lon="5.44543">
        <ele>1080.7</ele>
        <time>2015-10-18T07:58:07Z</time>
      </trkpt>
      <trkpt lat="45.14124" lon="5.44539">
        <ele>1080.2</ele>
        <time>2015-10-18T07:58:08Z</time>
      </trkpt>
      <trkpt lat="45.14127" lon="5.44533">
        <ele>1080.2</ele>
        <time>2015-10-18T07:58:09Z</time>
      </trkpt>
      <trkpt lat="45.14129" lon="5.44527">
        <ele>1078.7</ele>
        <time>2015-10-18T07:58:10Z</time>
      </trkpt>
      <trkpt lat="45.14133" lon="5.44516">
        <ele>1078.3</ele>
        <time>2015-10-18T07:58:11Z</time>
      </trkpt>
      <trkpt lat="45.14137" lon="5.44504">
        <ele>1075.9</ele>
        <time>2015-10-18T07:58:12Z</time>
      </trkpt>
      <trkpt lat="45.14136" lon="5.44487">
        <ele>1074.9</ele>
        <time>2015-10-18T07:58:13Z</time>
      </trkpt>
      <trkpt lat="45.14134" lon="5.4447">
        <ele>1074.4</ele>
        <time>2015-10-18T07:58:14Z</time>
      </trkpt>
      <trkpt lat="45.14131" lon="5.44455">
        <ele>1072.5</ele>
        <time>2015-10-18T07:58:15Z</time>
      </trkpt>
      <trkpt lat="45.14128" lon="5.44441">
        <ele>1071.1</ele>
        <time>2015-10-18T07:58:16Z</time>
      </trkpt>
      <trkpt lat="45.14126" lon="5.44429">
        <ele>1069.1</ele>
        <time>2015-10-18T07:58:17Z</time>
      </trkpt>
      <trkpt lat="45.14124" lon="5.44417">
        <ele>1068.2</ele>
        <time>2015-10-18T07:58:18Z</time>
      </trkpt>
      <trkpt lat="45.14126" lon="5.44407">
        <ele>1067.2</ele>
        <time>2015-10-18T07:58:19Z</time>
      </trkpt>
      <trkpt lat="45.14131" lon="5.444">
        <ele>1067.2</ele>
        <time>2015-10-18T07:58:20Z</time>
      </trkpt>
      <trkpt lat="45.14138" lon="5.44394">
        <ele>1067.2</ele>
        <time>2015-10-18T07:58:21Z</time>
      </trkpt>
      <trkpt lat="45.14145" lon="5.44387">
        <ele>1066.7</ele>
        <time>2015-10-18T07:58:22Z</time>
      </trkpt>
      <trkpt lat="45.1415" lon="5.44378">
        <ele>1066.2</ele>
        <time>2015-10-18T07:58:23Z</time>
      </trkpt>
      <trkpt lat="45.14153" lon="5.44367">
        <ele>1064.8</ele>
        <time>2015-10-18T07:58:24Z</time>
      </trkpt>
      <trkpt lat="45.14153" lon="5.44355">
        <ele>1064.3</ele>
        <time>2015-10-18T07:58:25Z</time>
      </trkpt>
      <trkpt lat="45.14154" lon="5.44342">
        <ele>1062.9</ele>
        <time>2015-10-18T07:58:26Z</time>
      </trkpt>
      <trkpt lat="45.14156" lon="5.44327">
        <ele>1062.4</ele>
        <time>2015-10-18T07:58:27Z</time>
      </trkpt>
      <trkpt lat="45.1416" lon="5.44313">
        <ele>1061</ele>
        <time>2015-10-18T07:58:28Z</time>
      </trkpt>
      <trkpt lat="45.14165" lon="5.44299">
        <ele>1060</ele>
        <time>2015-10-18T07:58:29Z</time>
      </trkpt>
      <trkpt lat="45.14185" lon="5.44261">
        <ele>1056.2</ele>
        <time>2015-10-18T07:58:32Z</time>
      </trkpt>
      <trkpt lat="45.14193" lon="5.44251">
        <ele>1054.2</ele>
        <time>2015-10-18T07:58:33Z</time>
      </trkpt>
      <trkpt lat="45.14232" lon="5.44208">
        <ele>1048.9</ele>
        <time>2015-10-18T07:58:37Z</time>
      </trkpt>
      <trkpt lat="45.14243" lon="5.44199">
        <ele>1047.5</ele>
        <time>2015-10-18T07:58:38Z</time>
      </trkpt>
      <trkpt lat="45.14291" lon="5.44155">
        <ele>1041.3</ele>
        <time>2015-10-18T07:58:43Z</time>
      </trkpt>
      <trkpt lat="45.14301" lon="5.44152">
        <ele>1040.8</ele>
        <time>2015-10-18T07:58:44Z</time>
      </trkpt>
      <trkpt lat="45.14311" lon="5.44152">
        <ele>1040.3</ele>
        <time>2015-10-18T07:58:45Z</time>
      </trkpt>
      <trkpt lat="45.14322" lon="5.44155">
        <ele>1039.8</ele>
        <time>2015-10-18T07:58:46Z</time>
      </trkpt>
      <trkpt lat="45.14333" lon="5.4416">
        <ele>1039.3</ele>
        <time>2015-10-18T07:58:47Z</time>
      </trkpt>
      <trkpt lat="45.14369" lon="5.44173">
        <ele>1036.4</ele>
        <time>2015-10-18T07:58:50Z</time>
      </trkpt>
      <trkpt lat="45.14379" lon="5.44171">
        <ele>1036.4</ele>
        <time>2015-10-18T07:58:51Z</time>
      </trkpt>
      <trkpt lat="45.14391" lon="5.44166">
        <ele>1037.4</ele>
        <time>2015-10-18T07:58:52Z</time>
      </trkpt>
      <trkpt lat="45.14401" lon="5.44162">
        <ele>1036.4</ele>
        <time>2015-10-18T07:58:53Z</time>
      </trkpt>
      <trkpt lat="45.14412" lon="5.44157">
        <ele>1035.5</ele>
        <time>2015-10-18T07:58:54Z</time>
      </trkpt>
      <trkpt lat="45.14431" lon="5.44143">
        <ele>1031.6</ele>
        <time>2015-10-18T07:58:56Z</time>
      </trkpt>
      <trkpt lat="45.14457" lon="5.44116">
        <ele>1030.7</ele>
        <time>2015-10-18T07:58:59Z</time>
      </trkpt>
      <trkpt lat="45.1447" lon="5.44112">
        <ele>1030.7</ele>
        <time>2015-10-18T07:59:00Z</time>
      </trkpt>
      <trkpt lat="45.14483" lon="5.44111">
        <ele>1028.8</ele>
        <time>2015-10-18T07:59:01Z</time>
      </trkpt>
      <trkpt lat="45.14497" lon="5.44111">
        <ele>1027.3</ele>
        <time>2015-10-18T07:59:02Z</time>
      </trkpt>
      <trkpt lat="45.1451" lon="5.44111">
        <ele>1027.8</ele>
        <time>2015-10-18T07:59:03Z</time>
      </trkpt>
      <trkpt lat="45.14521" lon="5.44113">
        <ele>1028.3</ele>
        <time>2015-10-18T07:59:04Z</time>
      </trkpt>
      <trkpt lat="45.14532" lon="5.44114">
        <ele>1029.2</ele>
        <time>2015-10-18T07:59:05Z</time>
      </trkpt>
      <trkpt lat="45.14543" lon="5.44122">
        <ele>1028.3</ele>
        <time>2015-10-18T07:59:06Z</time>
      </trkpt>
      <trkpt lat="45.14576" lon="5.4414">
        <ele>1024.4</ele>
        <time>2015-10-18T07:59:09Z</time>
      </trkpt>
      <trkpt lat="45.14587" lon="5.44141">
        <ele>1024.4</ele>
        <time>2015-10-18T07:59:10Z</time>
      </trkpt>
      <trkpt lat="45.14613" lon="5.44142">
        <ele>1021.5</ele>
        <time>2015-10-18T07:59:12Z</time>
      </trkpt>
      <trkpt lat="45.14626" lon="5.44142">
        <ele>1020.1</ele>
        <time>2015-10-18T07:59:13Z</time>
      </trkpt>
      <trkpt lat="45.14638" lon="5.44142">
        <ele>1019.6</ele>
        <time>2015-10-18T07:59:14Z</time>
      </trkpt>
      <trkpt lat="45.14649" lon="5.44146">
        <ele>1018.7</ele>
        <time>2015-10-18T07:59:15Z</time>
      </trkpt>
      <trkpt lat="45.1466" lon="5.44152">
        <ele>1017.2</ele>
        <time>2015-10-18T07:59:16Z</time>
      </trkpt>
      <trkpt lat="45.14671" lon="5.4416">
        <ele>1016.3</ele>
        <time>2015-10-18T07:59:17Z</time>
      </trkpt>
      <trkpt lat="45.1477" lon="5.44196">
        <ele>1005.2</ele>
        <time>2015-10-18T07:59:24Z</time>
      </trkpt>
      <trkpt lat="45.14808" lon="5.44212">
        <ele>1002.8</ele>
        <time>2015-10-18T07:59:27Z</time>
      </trkpt>
      <trkpt lat="45.14817" lon="5.4422">
        <ele>1001.4</ele>
        <time>2015-10-18T07:59:28Z</time>
      </trkpt>
      <trkpt lat="45.14825" lon="5.44229">
        <ele>999.9</ele>
        <time>2015-10-18T07:59:29Z</time>
      </trkpt>
      <trkpt lat="45.1483" lon="5.44236">
        <ele>999.4</ele>
        <time>2015-10-18T07:59:30Z</time>
      </trkpt>
      <trkpt lat="45.14837" lon="5.44241">
        <ele>999.9</ele>
        <time>2015-10-18T07:59:31Z</time>
      </trkpt>
      <trkpt lat="45.14841" lon="5.44242">
        <ele>999.4</ele>
        <time>2015-10-18T07:59:32Z</time>
      </trkpt>
      <trkpt lat="45.14845" lon="5.44242">
        <ele>998.5</ele>
        <time>2015-10-18T07:59:33Z</time>
      </trkpt>
      <trkpt lat="45.14849" lon="5.44241">
        <ele>997.5</ele>
        <time>2015-10-18T07:59:34Z</time>
      </trkpt>
      <trkpt lat="45.14852" lon="5.44238">
        <ele>998</ele>
        <time>2015-10-18T07:59:35Z</time>
      </trkpt>
      <trkpt lat="45.14854" lon="5.44234">
        <ele>998</ele>
        <time>2015-10-18T07:59:36Z</time>
      </trkpt>
      <trkpt lat="45.14849" lon="5.44228">
        <ele>997.5</ele>
        <time>2015-10-18T07:59:42Z</time>
      </trkpt>
      <trkpt lat="45.14838" lon="5.44224">
        <ele>999.9</ele>
        <time>2015-10-18T08:00:31Z</time>
      </trkpt>
      <trkpt lat="45.14797" lon="5.44163">
        <ele>995.6</ele>
        <time>2015-10-18T08:00:36Z</time>
      </trkpt>
      <trkpt lat="45.14756" lon="5.44099">
        <ele>986.9</ele>
        <time>2015-10-18T08:00:40Z</time>
      </trkpt>
      <trkpt lat="45.14746" lon="5.44087">
        <ele>985</ele>
        <time>2015-10-18T08:00:41Z</time>
      </trkpt>
      <trkpt lat="45.14734" lon="5.44078">
        <ele>983.1</ele>
        <time>2015-10-18T08:00:42Z</time>
      </trkpt>
      <trkpt lat="45.147" lon="5.44049">
        <ele>977.8</ele>
        <time>2015-10-18T08:00:45Z</time>
      </trkpt>
      <trkpt lat="45.14692" lon="5.44035">
        <ele>975.4</ele>
        <time>2015-10-18T08:00:46Z</time>
      </trkpt>
      <trkpt lat="45.14688" lon="5.44018">
        <ele>973</ele>
        <time>2015-10-18T08:00:47Z</time>
      </trkpt>
      <trkpt lat="45.14685" lon="5.44">
        <ele>970.6</ele>
        <time>2015-10-18T08:00:48Z</time>
      </trkpt>
      <trkpt lat="45.14681" lon="5.43983">
        <ele>969.6</ele>
        <time>2015-10-18T08:00:49Z</time>
      </trkpt>
      <trkpt lat="45.14677" lon="5.43967">
        <ele>967.7</ele>
        <time>2015-10-18T08:00:50Z</time>
      </trkpt>
      <trkpt lat="45.1467" lon="5.43953">
        <ele>966.3</ele>
        <time>2015-10-18T08:00:51Z</time>
      </trkpt>
      <trkpt lat="45.14661" lon="5.43941">
        <ele>964.8</ele>
        <time>2015-10-18T08:00:52Z</time>
      </trkpt>
      <trkpt lat="45.14641" lon="5.43916">
        <ele>961.5</ele>
        <time>2015-10-18T08:00:54Z</time>
      </trkpt>
      <trkpt lat="45.14632" lon="5.43901">
        <ele>960</ele>
        <time>2015-10-18T08:00:55Z</time>
      </trkpt>
      <trkpt lat="45.14625" lon="5.43884">
        <ele>958.6</ele>
        <time>2015-10-18T08:00:56Z</time>
      </trkpt>
      <trkpt lat="45.14618" lon="5.43866">
        <ele>957.1</ele>
        <time>2015-10-18T08:00:57Z</time>
      </trkpt>
      <trkpt lat="45.14612" lon="5.43848">
        <ele>955.2</ele>
        <time>2015-10-18T08:00:58Z</time>
      </trkpt>
      <trkpt lat="45.14589" lon="5.43786">
        <ele>949</ele>
        <time>2015-10-18T08:01:02Z</time>
      </trkpt>
      <trkpt lat="45.1458" lon="5.43776">
        <ele>947.5</ele>
        <time>2015-10-18T08:01:03Z</time>
      </trkpt>
      <trkpt lat="45.14569" lon="5.43769">
        <ele>947</ele>
        <time>2015-10-18T08:01:04Z</time>
      </trkpt>
      <trkpt lat="45.14504" lon="5.4372">
        <ele>942.2</ele>
        <time>2015-10-18T08:01:12Z</time>
      </trkpt>
      <trkpt lat="45.14504" lon="5.43714">
        <ele>941.3</ele>
        <time>2015-10-18T08:01:13Z</time>
      </trkpt>
      <trkpt lat="45.14505" lon="5.43709">
        <ele>940.8</ele>
        <time>2015-10-18T08:01:14Z</time>
      </trkpt>
      <trkpt lat="45.1451" lon="5.43707">
        <ele>939.8</ele>
        <time>2015-10-18T08:01:15Z</time>
      </trkpt>
      <trkpt lat="45.14522" lon="5.43709">
        <ele>940.3</ele>
        <time>2015-10-18T08:01:16Z</time>
      </trkpt>
      <trkpt lat="45.14534" lon="5.43713">
        <ele>939.8</ele>
        <time>2015-10-18T08:01:17Z</time>
      </trkpt>
      <trkpt lat="45.14547" lon="5.43718">
        <ele>938.9</ele>
        <time>2015-10-18T08:01:18Z</time>
      </trkpt>
      <trkpt lat="45.14559" lon="5.43721">
        <ele>937.9</ele>
        <time>2015-10-18T08:01:19Z</time>
      </trkpt>
      <trkpt lat="45.14572" lon="5.43721">
        <ele>936.9</ele>
        <time>2015-10-18T08:01:20Z</time>
      </trkpt>
      <trkpt lat="45.14584" lon="5.43719">
        <ele>936.5</ele>
        <time>2015-10-18T08:01:21Z</time>
      </trkpt>
      <trkpt lat="45.14607" lon="5.43715">
        <ele>935</ele>
        <time>2015-10-18T08:01:23Z</time>
      </trkpt>
      <trkpt lat="45.14619" lon="5.43715">
        <ele>934.5</ele>
        <time>2015-10-18T08:01:24Z</time>
      </trkpt>
      <trkpt lat="45.1463" lon="5.43718">
        <ele>934.1</ele>
        <time>2015-10-18T08:01:25Z</time>
      </trkpt>
      <trkpt lat="45.14641" lon="5.43723">
        <ele>933.6</ele>
        <time>2015-10-18T08:01:26Z</time>
      </trkpt>
      <trkpt lat="45.1465" lon="5.43727">
        <ele>933.1</ele>
        <time>2015-10-18T08:01:27Z</time>
      </trkpt>
      <trkpt lat="45.14659" lon="5.43728">
        <ele>932.6</ele>
        <time>2015-10-18T08:01:28Z</time>
      </trkpt>
      <trkpt lat="45.14664" lon="5.4372">
        <ele>932.1</ele>
        <time>2015-10-18T08:01:29Z</time>
      </trkpt>
      <trkpt lat="45.14671" lon="5.43714">
        <ele>931.2</ele>
        <time>2015-10-18T08:01:30Z</time>
      </trkpt>
      <trkpt lat="45.14677" lon="5.43705">
        <ele>930.7</ele>
        <time>2015-10-18T08:01:31Z</time>
      </trkpt>
      <trkpt lat="45.147" lon="5.43667">
        <ele>928.8</ele>
        <time>2015-10-18T08:01:35Z</time>
      </trkpt>
      <trkpt lat="45.14702" lon="5.43656">
        <ele>928.3</ele>
        <time>2015-10-18T08:01:36Z</time>
      </trkpt>
      <trkpt lat="45.14699" lon="5.43643">
        <ele>927.8</ele>
        <time>2015-10-18T08:01:37Z</time>
      </trkpt>
      <trkpt lat="45.14694" lon="5.4363">
        <ele>927.3</ele>
        <time>2015-10-18T08:01:38Z</time>
      </trkpt>
      <trkpt lat="45.14686" lon="5.43618">
        <ele>925.9</ele>
        <time>2015-10-18T08:01:39Z</time>
      </trkpt>
      <trkpt lat="45.14678" lon="5.43606">
        <ele>924.9</ele>
        <time>2015-10-18T08:01:40Z</time>
      </trkpt>
      <trkpt lat="45.14658" lon="5.43567">
        <ele>921.6</ele>
        <time>2015-10-18T08:01:43Z</time>
      </trkpt>
      <trkpt lat="45.14653" lon="5.43552">
        <ele>920.6</ele>
        <time>2015-10-18T08:01:44Z</time>
      </trkpt>
      <trkpt lat="45.14651" lon="5.43537">
        <ele>919.6</ele>
        <time>2015-10-18T08:01:45Z</time>
      </trkpt>
      <trkpt lat="45.14652" lon="5.43521">
        <ele>918.7</ele>
        <time>2015-10-18T08:01:46Z</time>
      </trkpt>
      <trkpt lat="45.14657" lon="5.43506">
        <ele>916.8</ele>
        <time>2015-10-18T08:01:47Z</time>
      </trkpt>
      <trkpt lat="45.14662" lon="5.43492">
        <ele>915.3</ele>
        <time>2015-10-18T08:01:48Z</time>
      </trkpt>
      <trkpt lat="45.1467" lon="5.43484">
        <ele>914.4</ele>
        <time>2015-10-18T08:01:49Z</time>
      </trkpt>
      <trkpt lat="45.14678" lon="5.43479">
        <ele>913.4</ele>
        <time>2015-10-18T08:01:50Z</time>
      </trkpt>
      <trkpt lat="45.14689" lon="5.43476">
        <ele>912.9</ele>
        <time>2015-10-18T08:01:51Z</time>
      </trkpt>
      <trkpt lat="45.147" lon="5.43474">
        <ele>912.9</ele>
        <time>2015-10-18T08:01:52Z</time>
      </trkpt>
      <trkpt lat="45.14713" lon="5.43478">
        <ele>911.5</ele>
        <time>2015-10-18T08:01:53Z</time>
      </trkpt>
      <trkpt lat="45.14727" lon="5.43487">
        <ele>910.5</ele>
        <time>2015-10-18T08:01:54Z</time>
      </trkpt>
      <trkpt lat="45.14739" lon="5.43496">
        <ele>909.1</ele>
        <time>2015-10-18T08:01:55Z</time>
      </trkpt>
      <trkpt lat="45.14751" lon="5.43505">
        <ele>908.1</ele>
        <time>2015-10-18T08:01:56Z</time>
      </trkpt>
      <trkpt lat="45.1484" lon="5.43565">
        <ele>900.9</ele>
        <time>2015-10-18T08:02:04Z</time>
      </trkpt>
      <trkpt lat="45.14846" lon="5.43577">
        <ele>899.9</ele>
        <time>2015-10-18T08:02:05Z</time>
      </trkpt>
      <trkpt lat="45.1488" lon="5.43612">
        <ele>897.1</ele>
        <time>2015-10-18T08:02:09Z</time>
      </trkpt>
      <trkpt lat="45.14892" lon="5.43617">
        <ele>897.5</ele>
        <time>2015-10-18T08:02:10Z</time>
      </trkpt>
      <trkpt lat="45.14998" lon="5.43689">
        <ele>890.8</ele>
        <time>2015-10-18T08:02:18Z</time>
      </trkpt>
      <trkpt lat="45.15055" lon="5.43755">
        <ele>883.1</ele>
        <time>2015-10-18T08:02:23Z</time>
      </trkpt>
      <trkpt lat="45.15093" lon="5.438">
        <ele>878.8</ele>
        <time>2015-10-18T08:02:26Z</time>
      </trkpt>
      <trkpt lat="45.15195" lon="5.43928">
        <ele>863.9</ele>
        <time>2015-10-18T08:02:34Z</time>
      </trkpt>
      <trkpt lat="45.15215" lon="5.43954">
        <ele>862.9</ele>
        <time>2015-10-18T08:02:39Z</time>
      </trkpt>
      <trkpt lat="45.15218" lon="5.43951">
        <ele>862</ele>
        <time>2015-10-18T08:02:40Z</time>
      </trkpt>
      <trkpt lat="45.1522" lon="5.43944">
        <ele>860.5</ele>
        <time>2015-10-18T08:02:41Z</time>
      </trkpt>
      <trkpt lat="45.1522" lon="5.43934">
        <ele>860</ele>
        <time>2015-10-18T08:02:42Z</time>
      </trkpt>
      <trkpt lat="45.15218" lon="5.43925">
        <ele>859.1</ele>
        <time>2015-10-18T08:02:43Z</time>
      </trkpt>
      <trkpt lat="45.15214" lon="5.43914">
        <ele>859.1</ele>
        <time>2015-10-18T08:02:44Z</time>
      </trkpt>
      <trkpt lat="45.15208" lon="5.43899">
        <ele>857.6</ele>
        <time>2015-10-18T08:02:45Z</time>
      </trkpt>
      <trkpt lat="45.15199" lon="5.4388">
        <ele>857.2</ele>
        <time>2015-10-18T08:02:46Z</time>
      </trkpt>
      <trkpt lat="45.15187" lon="5.43858">
        <ele>855.2</ele>
        <time>2015-10-18T08:02:47Z</time>
      </trkpt>
      <trkpt lat="45.15174" lon="5.43836">
        <ele>853.3</ele>
        <time>2015-10-18T08:02:48Z</time>
      </trkpt>
      <trkpt lat="45.15078" lon="5.43632">
        <ele>837.5</ele>
        <time>2015-10-18T08:02:57Z</time>
      </trkpt>
      <trkpt lat="45.15651" lon="5.4405">
        <ele>729.8</ele>
        <time>2015-10-18T08:06:34Z</time>
      </trkpt>
      <trkpt lat="45.15649" lon="5.4405">
        <ele>730.3</ele>
        <time>2015-10-18T08:07:03Z</time>
      </trkpt>
      <trkpt lat="45.15649" lon="5.44022">
        <ele>724.5</ele>
        <time>2015-10-18T08:07:07Z</time>
      </trkpt>
      <trkpt lat="45.15658" lon="5.43961">
        <ele>710.6</ele>
        <time>2015-10-18T08:07:13Z</time>
      </trkpt>
      <trkpt lat="45.15658" lon="5.43953">
        <ele>708.2</ele>
        <time>2015-10-18T08:07:14Z</time>
      </trkpt>
      <trkpt lat="45.15655" lon="5.43947">
        <ele>705.3</ele>
        <time>2015-10-18T08:07:15Z</time>
      </trkpt>
      <trkpt lat="45.1565" lon="5.43944">
        <ele>702.4</ele>
        <time>2015-10-18T08:07:16Z</time>
      </trkpt>
      <trkpt lat="45.15647" lon="5.43936">
        <ele>700.5</ele>
        <time>2015-10-18T08:07:17Z</time>
      </trkpt>
      <trkpt lat="45.15641" lon="5.43926">
        <ele>698.5</ele>
        <time>2015-10-18T08:07:18Z</time>
      </trkpt>
      <trkpt lat="45.15638" lon="5.43914">
        <ele>695.7</ele>
        <time>2015-10-18T08:07:19Z</time>
      </trkpt>
      <trkpt lat="45.15637" lon="5.43902">
        <ele>692.3</ele>
        <time>2015-10-18T08:07:20Z</time>
      </trkpt>
      <trkpt lat="45.15636" lon="5.43889">
        <ele>690.4</ele>
        <time>2015-10-18T08:07:21Z</time>
      </trkpt>
      <trkpt lat="45.15636" lon="5.43877">
        <ele>689.4</ele>
        <time>2015-10-18T08:07:22Z</time>
      </trkpt>
      <trkpt lat="45.15634" lon="5.43866">
        <ele>688</ele>
        <time>2015-10-18T08:07:23Z</time>
      </trkpt>
      <trkpt lat="45.15624" lon="5.43747">
        <ele>677.9</ele>
        <time>2015-10-18T08:07:32Z</time>
      </trkpt>
      <trkpt lat="45.15625" lon="5.43699">
        <ele>675.9</ele>
        <time>2015-10-18T08:07:37Z</time>
      </trkpt>
      <trkpt lat="45.15626" lon="5.43691">
        <ele>675</ele>
        <time>2015-10-18T08:07:38Z</time>
      </trkpt>
      <trkpt lat="45.1561" lon="5.4369">
        <ele>690.8</ele>
        <time>2015-10-18T08:07:39Z</time>
      </trkpt>
      <trkpt lat="45.15606" lon="5.43684">
        <ele>695.7</ele>
        <time>2015-10-18T08:07:40Z</time>
      </trkpt>
      <trkpt lat="45.15612" lon="5.43681">
        <ele>694.7</ele>
        <time>2015-10-18T08:07:41Z</time>
      </trkpt>
      <trkpt lat="45.15623" lon="5.43681">
        <ele>692.8</ele>
        <time>2015-10-18T08:07:42Z</time>
      </trkpt>
      <trkpt lat="45.15628" lon="5.43679">
        <ele>692.8</ele>
        <time>2015-10-18T08:07:43Z</time>
      </trkpt>
      <trkpt lat="45.157" lon="5.43658">
        <ele>688.9</ele>
        <time>2015-10-18T08:07:50Z</time>
      </trkpt>
      <trkpt lat="45.15783" lon="5.43666">
        <ele>695.7</ele>
        <time>2015-10-18T08:07:59Z</time>
      </trkpt>
      <trkpt lat="45.15833" lon="5.43669">
        <ele>687</ele>
        <time>2015-10-18T08:08:03Z</time>
      </trkpt>
      <trkpt lat="45.15846" lon="5.43665">
        <ele>684.6</ele>
        <time>2015-10-18T08:08:04Z</time>
      </trkpt>
      <trkpt lat="45.15859" lon="5.43658">
        <ele>682.7</ele>
        <time>2015-10-18T08:08:05Z</time>
      </trkpt>
      <trkpt lat="45.15964" lon="5.43578">
        <ele>664.4</ele>
        <time>2015-10-18T08:08:12Z</time>
      </trkpt>
      <trkpt lat="45.16043" lon="5.43516">
        <ele>646.1</ele>
        <time>2015-10-18T08:08:18Z</time>
      </trkpt>
      <trkpt lat="45.16051" lon="5.43505">
        <ele>643.3</ele>
        <time>2015-10-18T08:08:19Z</time>
      </trkpt>
      <trkpt lat="45.16058" lon="5.43493">
        <ele>639.4</ele>
        <time>2015-10-18T08:08:20Z</time>
      </trkpt>
      <trkpt lat="45.16064" lon="5.43478">
        <ele>635.1</ele>
        <time>2015-10-18T08:08:21Z</time>
      </trkpt>
      <trkpt lat="45.1607" lon="5.43461">
        <ele>632.7</ele>
        <time>2015-10-18T08:08:22Z</time>
      </trkpt>
      <trkpt lat="45.16077" lon="5.43443">
        <ele>629.8</ele>
        <time>2015-10-18T08:08:23Z</time>
      </trkpt>
      <trkpt lat="45.16085" lon="5.43423">
        <ele>627.9</ele>
        <time>2015-10-18T08:08:24Z</time>
      </trkpt>
      <trkpt lat="45.16096" lon="5.43403">
        <ele>625.5</ele>
        <time>2015-10-18T08:08:25Z</time>
      </trkpt>
      <trkpt lat="45.16109" lon="5.43385">
        <ele>623.1</ele>
        <time>2015-10-18T08:08:26Z</time>
      </trkpt>
      <trkpt lat="45.16122" lon="5.43369">
        <ele>621.2</ele>
        <time>2015-10-18T08:08:27Z</time>
      </trkpt>
      <trkpt lat="45.16136" lon="5.43353">
        <ele>619.2</ele>
        <time>2015-10-18T08:08:28Z</time>
      </trkpt>
      <trkpt lat="45.16171" lon="5.43295">
        <ele>613</ele>
        <time>2015-10-18T08:08:31Z</time>
      </trkpt>
      <trkpt lat="45.16181" lon="5.43273">
        <ele>611.5</ele>
        <time>2015-10-18T08:08:32Z</time>
      </trkpt>
      <trkpt lat="45.16254" lon="5.43128">
        <ele>596.6</ele>
        <time>2015-10-18T08:08:39Z</time>
      </trkpt>
      <trkpt lat="45.16356" lon="5.42959">
        <ele>580.3</ele>
        <time>2015-10-18T08:08:48Z</time>
      </trkpt>
      <trkpt lat="45.16411" lon="5.42848">
        <ele>570.7</ele>
        <time>2015-10-18T08:08:56Z</time>
      </trkpt>
      <trkpt lat="45.16415" lon="5.42836">
        <ele>569.7</ele>
        <time>2015-10-18T08:08:57Z</time>
      </trkpt>
      <trkpt lat="45.16418" lon="5.42822">
        <ele>567.8</ele>
        <time>2015-10-18T08:08:58Z</time>
      </trkpt>
      <trkpt lat="45.16452" lon="5.4271">
        <ele>559.1</ele>
        <time>2015-10-18T08:09:04Z</time>
      </trkpt>
      <trkpt lat="45.16537" lon="5.42574">
        <ele>550</ele>
        <time>2015-10-18T08:09:13Z</time>
      </trkpt>
      <trkpt lat="45.1658" lon="5.42522">
        <ele>543.8</ele>
        <time>2015-10-18T08:09:17Z</time>
      </trkpt>
      <trkpt lat="45.16751" lon="5.42082">
        <ele>512</ele>
        <time>2015-10-18T08:09:56Z</time>
      </trkpt>
      <trkpt lat="45.16783" lon="5.42089">
        <ele>514.4</ele>
        <time>2015-10-18T08:10:02Z</time>
      </trkpt>
      <trkpt lat="45.16791" lon="5.42093">
        <ele>514.9</ele>
        <time>2015-10-18T08:10:03Z</time>
      </trkpt>
      <trkpt lat="45.16823" lon="5.42109">
        <ele>513.5</ele>
        <time>2015-10-18T08:10:07Z</time>
      </trkpt>
      <trkpt lat="45.16832" lon="5.42108">
        <ele>513.5</ele>
        <time>2015-10-18T08:10:08Z</time>
      </trkpt>
      <trkpt lat="45.16841" lon="5.42104">
        <ele>513</ele>
        <time>2015-10-18T08:10:09Z</time>
      </trkpt>
      <trkpt lat="45.16849" lon="5.42097">
        <ele>512.5</ele>
        <time>2015-10-18T08:10:10Z</time>
      </trkpt>
      <trkpt lat="45.16857" lon="5.42087">
        <ele>512</ele>
        <time>2015-10-18T08:10:11Z</time>
      </trkpt>
      <trkpt lat="45.16865" lon="5.42076">
        <ele>510.6</ele>
        <time>2015-10-18T08:10:12Z</time>
      </trkpt>
      <trkpt lat="45.16911" lon="5.42018">
        <ele>506.8</ele>
        <time>2015-10-18T08:10:18Z</time>
      </trkpt>
      <trkpt lat="45.16918" lon="5.42014">
        <ele>506.3</ele>
        <time>2015-10-18T08:10:19Z</time>
      </trkpt>
      <trkpt lat="45.16926" lon="5.42013">
        <ele>505.8</ele>
        <time>2015-10-18T08:10:20Z</time>
      </trkpt>
      <trkpt lat="45.16935" lon="5.42019">
        <ele>502.9</ele>
        <time>2015-10-18T08:10:21Z</time>
      </trkpt>
      <trkpt lat="45.16945" lon="5.42029">
        <ele>499.5</ele>
        <time>2015-10-18T08:10:22Z</time>
      </trkpt>
      <trkpt lat="45.16954" lon="5.4204">
        <ele>497.6</ele>
        <time>2015-10-18T08:10:23Z</time>
      </trkpt>
      <trkpt lat="45.16963" lon="5.42051">
        <ele>495.7</ele>
        <time>2015-10-18T08:10:24Z</time>
      </trkpt>
      <trkpt lat="45.16971" lon="5.42062">
        <ele>494.7</ele>
        <time>2015-10-18T08:10:25Z</time>
      </trkpt>
      <trkpt lat="45.1698" lon="5.42074">
        <ele>493.3</ele>
        <time>2015-10-18T08:10:26Z</time>
      </trkpt>
      <trkpt lat="45.17042" lon="5.42197">
        <ele>484.2</ele>
        <time>2015-10-18T08:10:35Z</time>
      </trkpt>
      <trkpt lat="45.17049" lon="5.42218">
        <ele>483.2</ele>
        <time>2015-10-18T08:10:37Z</time>
      </trkpt>
      <trkpt lat="45.17062" lon="5.42211">
        <ele>482.2</ele>
        <time>2015-10-18T08:10:41Z</time>
      </trkpt>
      <trkpt lat="45.1706" lon="5.42204">
        <ele>481.3</ele>
        <time>2015-10-18T08:10:42Z</time>
      </trkpt>
      <trkpt lat="45.17057" lon="5.42197">
        <ele>480.8</ele>
        <time>2015-10-18T08:10:43Z</time>
      </trkpt>
      <trkpt lat="45.17052" lon="5.42187">
        <ele>480.8</ele>
        <time>2015-10-18T08:10:44Z</time>
      </trkpt>
      <trkpt lat="45.17046" lon="5.42175">
        <ele>479.8</ele>
        <time>2015-10-18T08:10:45Z</time>
      </trkpt>
      <trkpt lat="45.17041" lon="5.42162">
        <ele>479.8</ele>
        <time>2015-10-18T08:10:46Z</time>
      </trkpt>
      <trkpt lat="45.17036" lon="5.42148">
        <ele>478.9</ele>
        <time>2015-10-18T08:10:47Z</time>
      </trkpt>
      <trkpt lat="45.17001" lon="5.42036">
        <ele>474.6</ele>
        <time>2015-10-18T08:10:56Z</time>
      </trkpt>
      <trkpt lat="45.16954" lon="5.41937">
        <ele>466.9</ele>
        <time>2015-10-18T08:11:06Z</time>
      </trkpt>
      <trkpt lat="45.16945" lon="5.41924">
        <ele>466.4</ele>
        <time>2015-10-18T08:11:07Z</time>
      </trkpt>
      <trkpt lat="45.16936" lon="5.41914">
        <ele>464.9</ele>
        <time>2015-10-18T08:11:08Z</time>
      </trkpt>
      <trkpt lat="45.1687" lon="5.4183">
        <ele>456.3</ele>
        <time>2015-10-18T08:11:16Z</time>
      </trkpt>
      <trkpt lat="45.16867" lon="5.41822">
        <ele>455.3</ele>
        <time>2015-10-18T08:11:17Z</time>
      </trkpt>
      <trkpt lat="45.16877" lon="5.4181">
        <ele>453.9</ele>
        <time>2015-10-18T08:11:19Z</time>
      </trkpt>
      <trkpt lat="45.16882" lon="5.4181">
        <ele>452.9</ele>
        <time>2015-10-18T08:11:20Z</time>
      </trkpt>
      <trkpt lat="45.16891" lon="5.41821">
        <ele>452.9</ele>
        <time>2015-10-18T08:11:21Z</time>
      </trkpt>
      <trkpt lat="45.169" lon="5.4183">
        <ele>452.4</ele>
        <time>2015-10-18T08:11:22Z</time>
      </trkpt>
      <trkpt lat="45.16909" lon="5.41839">
        <ele>452</ele>
        <time>2015-10-18T08:11:23Z</time>
      </trkpt>
      <trkpt lat="45.16985" lon="5.41904">
        <ele>448.1</ele>
        <time>2015-10-18T08:11:29Z</time>
      </trkpt>
      <trkpt lat="45.17093" lon="5.42039">
        <ele>436.1</ele>
        <time>2015-10-18T08:11:39Z</time>
      </trkpt>
      <trkpt lat="45.17174" lon="5.4216">
        <ele>424.6</ele>
        <time>2015-10-18T08:11:48Z</time>
      </trkpt>
      <trkpt lat="45.17179" lon="5.42175">
        <ele>423.6</ele>
        <time>2015-10-18T08:11:49Z</time>
      </trkpt>
      <trkpt lat="45.17183" lon="5.42191">
        <ele>422.2</ele>
        <time>2015-10-18T08:11:50Z</time>
      </trkpt>
      <trkpt lat="45.17186" lon="5.42206">
        <ele>421.2</ele>
        <time>2015-10-18T08:11:51Z</time>
      </trkpt>
      <trkpt lat="45.17187" lon="5.4222">
        <ele>420.2</ele>
        <time>2015-10-18T08:11:52Z</time>
      </trkpt>
      <trkpt lat="45.17188" lon="5.42233">
        <ele>419.3</ele>
        <time>2015-10-18T08:11:53Z</time>
      </trkpt>
      <trkpt lat="45.17186" lon="5.42243">
        <ele>418.3</ele>
        <time>2015-10-18T08:11:54Z</time>
      </trkpt>
      <trkpt lat="45.17183" lon="5.42252">
        <ele>417.4</ele>
        <time>2015-10-18T08:11:55Z</time>
      </trkpt>
      <trkpt lat="45.17179" lon="5.42261">
        <ele>417.4</ele>
        <time>2015-10-18T08:11:56Z</time>
      </trkpt>
      <trkpt lat="45.17176" lon="5.42271">
        <ele>416.9</ele>
        <time>2015-10-18T08:11:57Z</time>
      </trkpt>
      <trkpt lat="45.17174" lon="5.42283">
        <ele>415.9</ele>
        <time>2015-10-18T08:11:58Z</time>
      </trkpt>
      <trkpt lat="45.17173" lon="5.42296">
        <ele>415.4</ele>
        <time>2015-10-18T08:11:59Z</time>
      </trkpt>
      <trkpt lat="45.17175" lon="5.42309">
        <ele>415.9</ele>
        <time>2015-10-18T08:12:00Z</time>
      </trkpt>
      <trkpt lat="45.17178" lon="5.42322">
        <ele>415.4</ele>
        <time>2015-10-18T08:12:01Z</time>
      </trkpt>
      <trkpt lat="45.17183" lon="5.42334">
        <ele>415.9</ele>
        <time>2015-10-18T08:12:02Z</time>
      </trkpt>
      <trkpt lat="45.17191" lon="5.42346">
        <ele>415.4</ele>
        <time>2015-10-18T08:12:03Z</time>
      </trkpt>
      <trkpt lat="45.172" lon="5.42358">
        <ele>415</ele>
        <time>2015-10-18T08:12:04Z</time>
      </trkpt>
      <trkpt lat="45.17208" lon="5.42371">
        <ele>413</ele>
        <time>2015-10-18T08:12:05Z</time>
      </trkpt>
      <trkpt lat="45.17229" lon="5.4241">
        <ele>410.1</ele>
        <time>2015-10-18T08:12:08Z</time>
      </trkpt>
      <trkpt lat="45.17234" lon="5.42425">
        <ele>409.2</ele>
        <time>2015-10-18T08:12:09Z</time>
      </trkpt>
      <trkpt lat="45.17238" lon="5.42439">
        <ele>408.2</ele>
        <time>2015-10-18T08:12:10Z</time>
      </trkpt>
      <trkpt lat="45.17242" lon="5.42453">
        <ele>407.3</ele>
        <time>2015-10-18T08:12:11Z</time>
      </trkpt>
      <trkpt lat="45.17248" lon="5.42465">
        <ele>406.3</ele>
        <time>2015-10-18T08:12:12Z</time>
      </trkpt>
      <trkpt lat="45.17256" lon="5.42476">
        <ele>405.3</ele>
        <time>2015-10-18T08:12:13Z</time>
      </trkpt>
      <trkpt lat="45.17264" lon="5.42487">
        <ele>404.4</ele>
        <time>2015-10-18T08:12:14Z</time>
      </trkpt>
      <trkpt lat="45.17279" lon="5.4251">
        <ele>402.9</ele>
        <time>2015-10-18T08:12:16Z</time>
      </trkpt>
      <trkpt lat="45.17285" lon="5.42524">
        <ele>402</ele>
        <time>2015-10-18T08:12:17Z</time>
      </trkpt>
      <trkpt lat="45.1729" lon="5.42538">
        <ele>401</ele>
        <time>2015-10-18T08:12:18Z</time>
      </trkpt>
      <trkpt lat="45.17294" lon="5.42552">
        <ele>400.1</ele>
        <time>2015-10-18T08:12:19Z</time>
      </trkpt>
      <trkpt lat="45.17298" lon="5.42566">
        <ele>399.1</ele>
        <time>2015-10-18T08:12:20Z</time>
      </trkpt>
      <trkpt lat="45.17301" lon="5.42581">
        <ele>398.6</ele>
        <time>2015-10-18T08:12:21Z</time>
      </trkpt>
      <trkpt lat="45.17305" lon="5.42594">
        <ele>397.6</ele>
        <time>2015-10-18T08:12:22Z</time>
      </trkpt>
      <trkpt lat="45.1731" lon="5.42607">
        <ele>397.2</ele>
        <time>2015-10-18T08:12:23Z</time>
      </trkpt>
      <trkpt lat="45.17316" lon="5.42618">
        <ele>396.7</ele>
        <time>2015-10-18T08:12:24Z</time>
      </trkpt>
      <trkpt lat="45.17324" lon="5.42629">
        <ele>395.7</ele>
        <time>2015-10-18T08:12:25Z</time>
      </trkpt>
      <trkpt lat="45.17334" lon="5.42641">
        <ele>395.2</ele>
        <time>2015-10-18T08:12:26Z</time>
      </trkpt>
      <trkpt lat="45.17371" lon="5.42692">
        <ele>391.4</ele>
        <time>2015-10-18T08:12:30Z</time>
      </trkpt>
      <trkpt lat="45.17378" lon="5.42706">
        <ele>390.9</ele>
        <time>2015-10-18T08:12:31Z</time>
      </trkpt>
      <trkpt lat="45.17407" lon="5.42756">
        <ele>389</ele>
        <time>2015-10-18T08:12:35Z</time>
      </trkpt>
      <trkpt lat="45.17417" lon="5.42765">
        <ele>388</ele>
        <time>2015-10-18T08:12:36Z</time>
      </trkpt>
      <trkpt lat="45.17428" lon="5.42771">
        <ele>387.6</ele>
        <time>2015-10-18T08:12:37Z</time>
      </trkpt>
      <trkpt lat="45.17451" lon="5.42784">
        <ele>386.1</ele>
        <time>2015-10-18T08:12:39Z</time>
      </trkpt>
      <trkpt lat="45.1746" lon="5.42792">
        <ele>386.6</ele>
        <time>2015-10-18T08:12:40Z</time>
      </trkpt>
      <trkpt lat="45.17483" lon="5.42812">
        <ele>384.7</ele>
        <time>2015-10-18T08:12:43Z</time>
      </trkpt>
      <trkpt lat="45.17489" lon="5.42814">
        <ele>384.2</ele>
        <time>2015-10-18T08:12:44Z</time>
      </trkpt>
      <trkpt lat="45.17494" lon="5.42811">
        <ele>383.7</ele>
        <time>2015-10-18T08:12:45Z</time>
      </trkpt>
      <trkpt lat="45.17501" lon="5.428">
        <ele>382.7</ele>
        <time>2015-10-18T08:12:47Z</time>
      </trkpt>
      <trkpt lat="45.175" lon="5.42791">
        <ele>383.7</ele>
        <time>2015-10-18T08:12:48Z</time>
      </trkpt>
      <trkpt lat="45.17498" lon="5.42784">
        <ele>383.7</ele>
        <time>2015-10-18T08:12:49Z</time>
      </trkpt>
      <trkpt lat="45.17492" lon="5.42781">
        <ele>383.2</ele>
        <time>2015-10-18T08:12:50Z</time>
      </trkpt>
      <trkpt lat="45.17483" lon="5.42777">
        <ele>382.7</ele>
        <time>2015-10-18T08:12:51Z</time>
      </trkpt>
      <trkpt lat="45.17472" lon="5.42772">
        <ele>382.3</ele>
        <time>2015-10-18T08:12:52Z</time>
      </trkpt>
      <trkpt lat="45.17462" lon="5.42765">
        <ele>382.7</ele>
        <time>2015-10-18T08:12:53Z</time>
      </trkpt>
      <trkpt lat="45.17453" lon="5.42758">
        <ele>381.8</ele>
        <time>2015-10-18T08:12:54Z</time>
      </trkpt>
      <trkpt lat="45.17443" lon="5.4275">
        <ele>381.3</ele>
        <time>2015-10-18T08:12:55Z</time>
      </trkpt>
      <trkpt lat="45.17435" lon="5.42741">
        <ele>380.3</ele>
        <time>2015-10-18T08:12:56Z</time>
      </trkpt>
      <trkpt lat="45.17428" lon="5.42727">
        <ele>378.4</ele>
        <time>2015-10-18T08:12:57Z</time>
      </trkpt>
      <trkpt lat="45.1742" lon="5.4271">
        <ele>377.5</ele>
        <time>2015-10-18T08:12:58Z</time>
      </trkpt>
      <trkpt lat="45.17414" lon="5.42693">
        <ele>374.6</ele>
        <time>2015-10-18T08:12:59Z</time>
      </trkpt>
      <trkpt lat="45.17346" lon="5.42501">
        <ele>355.8</ele>
        <time>2015-10-18T08:13:09Z</time>
      </trkpt>
      <trkpt lat="45.17298" lon="5.42342">
        <ele>340.9</ele>
        <time>2015-10-18T08:13:18Z</time>
      </trkpt>
      <trkpt lat="45.17295" lon="5.42326">
        <ele>339.5</ele>
        <time>2015-10-18T08:13:19Z</time>
      </trkpt>
      <trkpt lat="45.17294" lon="5.42311">
        <ele>338</ele>
        <time>2015-10-18T08:13:20Z</time>
      </trkpt>
      <trkpt lat="45.17295" lon="5.42296">
        <ele>336.1</ele>
        <time>2015-10-18T08:13:21Z</time>
      </trkpt>
      <trkpt lat="45.17293" lon="5.42279">
        <ele>334.7</ele>
        <time>2015-10-18T08:13:22Z</time>
      </trkpt>
      <trkpt lat="45.17291" lon="5.42262">
        <ele>333.7</ele>
        <time>2015-10-18T08:13:23Z</time>
      </trkpt>
      <trkpt lat="45.1727" lon="5.4212">
        <ele>323.1</ele>
        <time>2015-10-18T08:13:31Z</time>
      </trkpt>
      <trkpt lat="45.17217" lon="5.41978">
        <ele>309.2</ele>
        <time>2015-10-18T08:13:39Z</time>
      </trkpt>
      <trkpt lat="45.17114" lon="5.41781">
        <ele>291.9</ele>
        <time>2015-10-18T08:13:51Z</time>
      </trkpt>
      <trkpt lat="45.17052" lon="5.41673">
        <ele>281.8</ele>
        <time>2015-10-18T08:13:58Z</time>
      </trkpt>
      <trkpt lat="45.17051" lon="5.41659">
        <ele>279.9</ele>
        <time>2015-10-18T08:13:59Z</time>
      </trkpt>
      <trkpt lat="45.17053" lon="5.41646">
        <ele>278.4</ele>
        <time>2015-10-18T08:14:00Z</time>
      </trkpt>
      <trkpt lat="45.17059" lon="5.41634">
        <ele>277</ele>
        <time>2015-10-18T08:14:01Z</time>
      </trkpt>
      <trkpt lat="45.17067" lon="5.4162">
        <ele>275.6</ele>
        <time>2015-10-18T08:14:02Z</time>
      </trkpt>
      <trkpt lat="45.17078" lon="5.41605">
        <ele>275.6</ele>
        <time>2015-10-18T08:14:03Z</time>
      </trkpt>
      <trkpt lat="45.17089" lon="5.4159">
        <ele>276</ele>
        <time>2015-10-18T08:14:04Z</time>
      </trkpt>
      <trkpt lat="45.17122" lon="5.4154">
        <ele>276</ele>
        <time>2015-10-18T08:14:08Z</time>
      </trkpt>
      <trkpt lat="45.17128" lon="5.41527">
        <ele>277</ele>
        <time>2015-10-18T08:14:09Z</time>
      </trkpt>
      <trkpt lat="45.1713" lon="5.41514">
        <ele>277.5</ele>
        <time>2015-10-18T08:14:10Z</time>
      </trkpt>
      <trkpt lat="45.17128" lon="5.41501">
        <ele>277.5</ele>
        <time>2015-10-18T08:14:11Z</time>
      </trkpt>
      <trkpt lat="45.17123" lon="5.41489">
        <ele>277.5</ele>
        <time>2015-10-18T08:14:12Z</time>
      </trkpt>
      <trkpt lat="45.17117" lon="5.41477">
        <ele>278</ele>
        <time>2015-10-18T08:14:13Z</time>
      </trkpt>
      <trkpt lat="45.1711" lon="5.41466">
        <ele>278</ele>
        <time>2015-10-18T08:14:14Z</time>
      </trkpt>
      <trkpt lat="45.17083" lon="5.41425">
        <ele>279.4</ele>
        <time>2015-10-18T08:14:19Z</time>
      </trkpt>
      <trkpt lat="45.17082" lon="5.41419">
        <ele>279.9</ele>
        <time>2015-10-18T08:14:20Z</time>
      </trkpt>
      <trkpt lat="45.17083" lon="5.41413">
        <ele>280.4</ele>
        <time>2015-10-18T08:14:21Z</time>
      </trkpt>
      <trkpt lat="45.17086" lon="5.41408">
        <ele>280.4</ele>
        <time>2015-10-18T08:14:22Z</time>
      </trkpt>
      <trkpt lat="45.1709" lon="5.41402">
        <ele>279.9</ele>
        <time>2015-10-18T08:14:23Z</time>
      </trkpt>
      <trkpt lat="45.17096" lon="5.41395">
        <ele>279.9</ele>
        <time>2015-10-18T08:14:24Z</time>
      </trkpt>
      <trkpt lat="45.17157" lon="5.41314">
        <ele>278</ele>
        <time>2015-10-18T08:14:34Z</time>
      </trkpt>
      <trkpt lat="45.17169" lon="5.41304">
        <ele>278</ele>
        <time>2015-10-18T08:14:40Z</time>
      </trkpt>
      <trkpt lat="45.17176" lon="5.41308">
        <ele>278.9</ele>
        <time>2015-10-18T08:15:42Z</time>
      </trkpt>
      <trkpt lat="45.17181" lon="5.41312">
        <ele>278.9</ele>
        <time>2015-10-18T08:15:43Z</time>
      </trkpt>
      <trkpt lat="45.1723" lon="5.41357">
        <ele>278.4</ele>
        <time>2015-10-18T08:15:48Z</time>
      </trkpt>
      <trkpt lat="45.17355" lon="5.41451">
        <ele>277</ele>
        <time>2015-10-18T08:15:56Z</time>
      </trkpt>
      <trkpt lat="45.17572" lon="5.4158">
        <ele>274.1</ele>
        <time>2015-10-18T08:16:07Z</time>
      </trkpt>
      <trkpt lat="45.17821" lon="5.41756">
        <ele>267.4</ele>
        <time>2015-10-18T08:16:20Z</time>
      </trkpt>
      <trkpt lat="45.17993" lon="5.41949">
        <ele>260.7</ele>
        <time>2015-10-18T08:16:30Z</time>
      </trkpt>
      <trkpt lat="45.18008" lon="5.41979">
        <ele>260.2</ele>
        <time>2015-10-18T08:16:31Z</time>
      </trkpt>
      <trkpt lat="45.18133" lon="5.42163">
        <ele>253</ele>
        <time>2015-10-18T08:16:38Z</time>
      </trkpt>
      <trkpt lat="45.18183" lon="5.4225">
        <ele>250.1</ele>
        <time>2015-10-18T08:16:41Z</time>
      </trkpt>
      <trkpt lat="45.18194" lon="5.42285">
        <ele>249.1</ele>
        <time>2015-10-18T08:16:42Z</time>
      </trkpt>
      <trkpt lat="45.18283" lon="5.42474">
        <ele>244.8</ele>
        <time>2015-10-18T08:16:48Z</time>
      </trkpt>
      <trkpt lat="45.18363" lon="5.42569">
        <ele>241.9</ele>
        <time>2015-10-18T08:16:52Z</time>
      </trkpt>
      <trkpt lat="45.18385" lon="5.42585">
        <ele>241.4</ele>
        <time>2015-10-18T08:16:53Z</time>
      </trkpt>
      <trkpt lat="45.1841" lon="5.42596">
        <ele>241</ele>
        <time>2015-10-18T08:16:54Z</time>
      </trkpt>
      <trkpt lat="45.18435" lon="5.42603">
        <ele>240.5</ele>
        <time>2015-10-18T08:16:55Z</time>
      </trkpt>
      <trkpt lat="45.18462" lon="5.42605">
        <ele>240</ele>
        <time>2015-10-18T08:16:56Z</time>
      </trkpt>
      <trkpt lat="45.18489" lon="5.42602">
        <ele>240</ele>
        <time>2015-10-18T08:16:57Z</time>
      </trkpt>
      <trkpt lat="45.18517" lon="5.42596">
        <ele>240</ele>
        <time>2015-10-18T08:16:58Z</time>
      </trkpt>
      <trkpt lat="45.18545" lon="5.42587">
        <ele>239.5</ele>
        <time>2015-10-18T08:16:59Z</time>
      </trkpt>
      <trkpt lat="45.18572" lon="5.42577">
        <ele>239.5</ele>
        <time>2015-10-18T08:17:00Z</time>
      </trkpt>
      <trkpt lat="45.18709" lon="5.42514">
        <ele>238.5</ele>
        <time>2015-10-18T08:17:06Z</time>
      </trkpt>
      <trkpt lat="45.1891" lon="5.42432">
        <ele>236.1</ele>
        <time>2015-10-18T08:17:16Z</time>
      </trkpt>
      <trkpt lat="45.18933" lon="5.42433">
        <ele>235.7</ele>
        <time>2015-10-18T08:17:17Z</time>
      </trkpt>
      <trkpt lat="45.18956" lon="5.42437">
        <ele>235.2</ele>
        <time>2015-10-18T08:17:18Z</time>
      </trkpt>
      <trkpt lat="45.18979" lon="5.42444">
        <ele>234.7</ele>
        <time>2015-10-18T08:17:19Z</time>
      </trkpt>
      <trkpt lat="45.19003" lon="5.42451">
        <ele>234.2</ele>
        <time>2015-10-18T08:17:20Z</time>
      </trkpt>
      <trkpt lat="45.19228" lon="5.42532">
        <ele>229.9</ele>
        <time>2015-10-18T08:17:31Z</time>
      </trkpt>
      <trkpt lat="45.19245" lon="5.42545">
        <ele>229.4</ele>
        <time>2015-10-18T08:17:32Z</time>
      </trkpt>
      <trkpt lat="45.19262" lon="5.4256">
        <ele>229.4</ele>
        <time>2015-10-18T08:17:33Z</time>
      </trkpt>
      <trkpt lat="45.19376" lon="5.42682">
        <ele>228.9</ele>
        <time>2015-10-18T08:17:41Z</time>
      </trkpt>
      <trkpt lat="45.19415" lon="5.42723">
        <ele>228.9</ele>
        <time>2015-10-18T08:17:47Z</time>
      </trkpt>
      <trkpt lat="45.19424" lon="5.4272">
        <ele>228.5</ele>
        <time>2015-10-18T08:17:49Z</time>
      </trkpt>
      <trkpt lat="45.19428" lon="5.42714">
        <ele>228</ele>
        <time>2015-10-18T08:17:50Z</time>
      </trkpt>
      <trkpt lat="45.19431" lon="5.42708">
        <ele>227.5</ele>
        <time>2015-10-18T08:17:51Z</time>
      </trkpt>
      <trkpt lat="45.19433" lon="5.427">
        <ele>227</ele>
        <time>2015-10-18T08:17:52Z</time>
      </trkpt>
      <trkpt lat="45.19466" lon="5.42613">
        <ele>223.2</ele>
        <time>2015-10-18T08:18:00Z</time>
      </trkpt>
      <trkpt lat="45.19521" lon="5.42426">
        <ele>224.1</ele>
        <time>2015-10-18T08:18:12Z</time>
      </trkpt>
      <trkpt lat="45.19554" lon="5.42313">
        <ele>224.6</ele>
        <time>2015-10-18T08:18:19Z</time>
      </trkpt>
      <trkpt lat="45.19556" lon="5.42297">
        <ele>224.6</ele>
        <time>2015-10-18T08:18:20Z</time>
      </trkpt>
      <trkpt lat="45.19556" lon="5.42282">
        <ele>224.6</ele>
        <time>2015-10-18T08:18:21Z</time>
      </trkpt>
      <trkpt lat="45.19552" lon="5.42266">
        <ele>224.1</ele>
        <time>2015-10-18T08:18:22Z</time>
      </trkpt>
      <trkpt lat="45.19544" lon="5.42252">
        <ele>224.1</ele>
        <time>2015-10-18T08:18:23Z</time>
      </trkpt>
      <trkpt lat="45.19535" lon="5.42239">
        <ele>224.6</ele>
        <time>2015-10-18T08:18:24Z</time>
      </trkpt>
      <trkpt lat="45.19527" lon="5.42225">
        <ele>224.6</ele>
        <time>2015-10-18T08:18:25Z</time>
      </trkpt>
      <trkpt lat="45.1952" lon="5.42209">
        <ele>225.1</ele>
        <time>2015-10-18T08:18:26Z</time>
      </trkpt>
      <trkpt lat="45.19517" lon="5.42191">
        <ele>225.1</ele>
        <time>2015-10-18T08:18:27Z</time>
      </trkpt>
      <trkpt lat="45.19516" lon="5.42172">
        <ele>225.1</ele>
        <time>2015-10-18T08:18:28Z</time>
      </trkpt>
      <trkpt lat="45.19516" lon="5.42152">
        <ele>225.6</ele>
        <time>2015-10-18T08:18:29Z</time>
      </trkpt>
      <trkpt lat="45.19515" lon="5.42131">
        <ele>225.6</ele>
        <time>2015-10-18T08:18:30Z</time>
      </trkpt>
      <trkpt lat="45.19512" lon="5.42112">
        <ele>226.1</ele>
        <time>2015-10-18T08:18:31Z</time>
      </trkpt>
      <trkpt lat="45.19503" lon="5.42059">
        <ele>228</ele>
        <time>2015-10-18T08:18:34Z</time>
      </trkpt>
      <trkpt lat="45.19503" lon="5.42042">
        <ele>228</ele>
        <time>2015-10-18T08:18:35Z</time>
      </trkpt>
      <trkpt lat="45.19506" lon="5.42024">
        <ele>228.5</ele>
        <time>2015-10-18T08:18:36Z</time>
      </trkpt>
      <trkpt lat="45.19515" lon="5.42009">
        <ele>228.9</ele>
        <time>2015-10-18T08:18:37Z</time>
      </trkpt>
      <trkpt lat="45.19524" lon="5.41996">
        <ele>230.4</ele>
        <time>2015-10-18T08:18:38Z</time>
      </trkpt>
      <trkpt lat="45.19535" lon="5.41984">
        <ele>231.8</ele>
        <time>2015-10-18T08:18:39Z</time>
      </trkpt>
      <trkpt lat="45.19546" lon="5.41972">
        <ele>232.8</ele>
        <time>2015-10-18T08:18:40Z</time>
      </trkpt>
      <trkpt lat="45.19557" lon="5.41962">
        <ele>233.7</ele>
        <time>2015-10-18T08:18:41Z</time>
      </trkpt>
      <trkpt lat="45.1957" lon="5.41959">
        <ele>236.1</ele>
        <time>2015-10-18T08:18:42Z</time>
      </trkpt>
      <trkpt lat="45.19583" lon="5.41956">
        <ele>237.6</ele>
        <time>2015-10-18T08:18:43Z</time>
      </trkpt>
      <trkpt lat="45.19596" lon="5.41952">
        <ele>236.6</ele>
        <time>2015-10-18T08:18:44Z</time>
      </trkpt>
      <trkpt lat="45.19612" lon="5.41948">
        <ele>239</ele>
        <time>2015-10-18T08:18:45Z</time>
      </trkpt>
      <trkpt lat="45.19656" lon="5.41925">
        <ele>241</ele>
        <time>2015-10-18T08:18:48Z</time>
      </trkpt>
      <trkpt lat="45.1967" lon="5.41906">
        <ele>241.4</ele>
        <time>2015-10-18T08:18:49Z</time>
      </trkpt>
      <trkpt lat="45.19681" lon="5.41887">
        <ele>241.4</ele>
        <time>2015-10-18T08:18:50Z</time>
      </trkpt>
      <trkpt lat="45.19691" lon="5.41867">
        <ele>241.4</ele>
        <time>2015-10-18T08:18:51Z</time>
      </trkpt>
      <trkpt lat="45.19699" lon="5.41845">
        <ele>241.9</ele>
        <time>2015-10-18T08:18:52Z</time>
      </trkpt>
      <trkpt lat="45.1971" lon="5.41825">
        <ele>241.4</ele>
        <time>2015-10-18T08:18:53Z</time>
      </trkpt>
      <trkpt lat="45.19722" lon="5.41807">
        <ele>241.4</ele>
        <time>2015-10-18T08:18:54Z</time>
      </trkpt>
      <trkpt lat="45.19735" lon="5.41794">
        <ele>241.9</ele>
        <time>2015-10-18T08:18:55Z</time>
      </trkpt>
      <trkpt lat="45.19749" lon="5.41787">
        <ele>243.4</ele>
        <time>2015-10-18T08:18:56Z</time>
      </trkpt>
      <trkpt lat="45.19768" lon="5.4179">
        <ele>244.3</ele>
        <time>2015-10-18T08:18:57Z</time>
      </trkpt>
      <trkpt lat="45.19786" lon="5.41785">
        <ele>247.7</ele>
        <time>2015-10-18T08:18:58Z</time>
      </trkpt>
      <trkpt lat="45.19804" lon="5.41785">
        <ele>248.6</ele>
        <time>2015-10-18T08:18:59Z</time>
      </trkpt>
      <trkpt lat="45.19822" lon="5.41783">
        <ele>248.2</ele>
        <time>2015-10-18T08:19:00Z</time>
      </trkpt>
      <trkpt lat="45.19837" lon="5.41778">
        <ele>248.2</ele>
        <time>2015-10-18T08:19:01Z</time>
      </trkpt>
      <trkpt lat="45.19854" lon="5.41763">
        <ele>249.1</ele>
        <time>2015-10-18T08:19:02Z</time>
      </trkpt>
      <trkpt lat="45.19867" lon="5.41745">
        <ele>249.1</ele>
        <time>2015-10-18T08:19:03Z</time>
      </trkpt>
      <trkpt lat="45.19879" lon="5.41726">
        <ele>249.6</ele>
        <time>2015-10-18T08:19:04Z</time>
      </trkpt>
      <trkpt lat="45.19887" lon="5.41706">
        <ele>250.6</ele>
        <time>2015-10-18T08:19:05Z</time>
      </trkpt>
      <trkpt lat="45.19899" lon="5.4169">
        <ele>250.1</ele>
        <time>2015-10-18T08:19:06Z</time>
      </trkpt>
      <trkpt lat="45.19914" lon="5.41676">
        <ele>250.1</ele>
        <time>2015-10-18T08:19:07Z</time>
      </trkpt>
      <trkpt lat="45.19934" lon="5.41665">
        <ele>250.1</ele>
        <time>2015-10-18T08:19:08Z</time>
      </trkpt>
      <trkpt lat="45.19954" lon="5.41659">
        <ele>250.1</ele>
        <time>2015-10-18T08:19:09Z</time>
      </trkpt>
      <trkpt lat="45.19972" lon="5.41654">
        <ele>250.6</ele>
        <time>2015-10-18T08:19:10Z</time>
      </trkpt>
      <trkpt lat="45.20016" lon="5.41645">
        <ele>251.5</ele>
        <time>2015-10-18T08:19:13Z</time>
      </trkpt>
      <trkpt lat="45.20028" lon="5.41651">
        <ele>251.5</ele>
        <time>2015-10-18T08:19:14Z</time>
      </trkpt>
      <trkpt lat="45.20036" lon="5.41658">
        <ele>251</ele>
        <time>2015-10-18T08:19:15Z</time>
      </trkpt>
      <trkpt lat="45.20044" lon="5.41668">
        <ele>252.5</ele>
        <time>2015-10-18T08:19:16Z</time>
      </trkpt>
      <trkpt lat="45.20047" lon="5.41678">
        <ele>252.5</ele>
        <time>2015-10-18T08:19:17Z</time>
      </trkpt>
      <trkpt lat="45.20046" lon="5.41685">
        <ele>252.5</ele>
        <time>2015-10-18T08:19:18Z</time>
      </trkpt>
      <trkpt lat="45.20045" lon="5.4169">
        <ele>252.5</ele>
        <time>2015-10-18T08:19:19Z</time>
      </trkpt>
      <trkpt lat="45.20044" lon="5.41695">
        <ele>252</ele>
        <time>2015-10-18T08:19:20Z</time>
      </trkpt>
      <trkpt lat="45.20041" lon="5.41702">
        <ele>251.5</ele>
        <time>2015-10-18T08:19:21Z</time>
      </trkpt>
      <trkpt lat="45.20038" lon="5.41711">
        <ele>251.5</ele>
        <time>2015-10-18T08:19:22Z</time>
      </trkpt>
      <trkpt lat="45.20037" lon="5.41723">
        <ele>251</ele>
        <time>2015-10-18T08:19:23Z</time>
      </trkpt>
      <trkpt lat="45.20038" lon="5.41736">
        <ele>251</ele>
        <time>2015-10-18T08:19:24Z</time>
      </trkpt>
      <trkpt lat="45.20043" lon="5.41748">
        <ele>251.5</ele>
        <time>2015-10-18T08:19:25Z</time>
      </trkpt>
      <trkpt lat="45.20049" lon="5.41757">
        <ele>251.5</ele>
        <time>2015-10-18T08:19:26Z</time>
      </trkpt>
      <trkpt lat="45.20057" lon="5.4176">
        <ele>251.5</ele>
        <time>2015-10-18T08:19:27Z</time>
      </trkpt>
      <trkpt lat="45.20066" lon="5.41757">
        <ele>251.5</ele>
        <time>2015-10-18T08:19:28Z</time>
      </trkpt>
      <trkpt lat="45.20074" lon="5.41744">
        <ele>252</ele>
        <time>2015-10-18T08:19:29Z</time>
      </trkpt>
      <trkpt lat="45.20083" lon="5.4173">
        <ele>252.5</ele>
        <time>2015-10-18T08:19:30Z</time>
      </trkpt>
      <trkpt lat="45.20091" lon="5.41716">
        <ele>252.5</ele>
        <time>2015-10-18T08:19:31Z</time>
      </trkpt>
      <trkpt lat="45.20142" lon="5.41622">
        <ele>254.4</ele>
        <time>2015-10-18T08:19:39Z</time>
      </trkpt>
      <trkpt lat="45.20229" lon="5.41456">
        <ele>257.8</ele>
        <time>2015-10-18T08:19:51Z</time>
      </trkpt>
      <trkpt lat="45.20277" lon="5.41373">
        <ele>259.7</ele>
        <time>2015-10-18T08:19:58Z</time>
      </trkpt>
      <trkpt lat="45.20284" lon="5.41366">
        <ele>259.7</ele>
        <time>2015-10-18T08:19:59Z</time>
      </trkpt>
      <trkpt lat="45.2029" lon="5.41363">
        <ele>260.2</ele>
        <time>2015-10-18T08:20:00Z</time>
      </trkpt>
      <trkpt lat="45.20296" lon="5.41361">
        <ele>260.2</ele>
        <time>2015-10-18T08:20:01Z</time>
      </trkpt>
      <trkpt lat="45.20302" lon="5.41359">
        <ele>260.2</ele>
        <time>2015-10-18T08:20:02Z</time>
      </trkpt>
      <trkpt lat="45.20307" lon="5.41353">
        <ele>260.2</ele>
        <time>2015-10-18T08:20:03Z</time>
      </trkpt>
      <trkpt lat="45.20309" lon="5.41344">
        <ele>260.7</ele>
        <time>2015-10-18T08:20:04Z</time>
      </trkpt>
      <trkpt lat="45.20309" lon="5.41333">
        <ele>260.2</ele>
        <time>2015-10-18T08:20:05Z</time>
      </trkpt>
      <trkpt lat="45.20309" lon="5.4132">
        <ele>260.7</ele>
        <time>2015-10-18T08:20:06Z</time>
      </trkpt>
      <trkpt lat="45.20311" lon="5.41305">
        <ele>260.7</ele>
        <time>2015-10-18T08:20:07Z</time>
      </trkpt>
      <trkpt lat="45.20316" lon="5.4129">
        <ele>261.1</ele>
        <time>2015-10-18T08:20:08Z</time>
      </trkpt>
      <trkpt lat="45.20322" lon="5.41275">
        <ele>261.1</ele>
        <time>2015-10-18T08:20:09Z</time>
      </trkpt>
      <trkpt lat="45.20329" lon="5.41261">
        <ele>261.1</ele>
        <time>2015-10-18T08:20:10Z</time>
      </trkpt>
      <trkpt lat="45.20336" lon="5.41248">
        <ele>261.6</ele>
        <time>2015-10-18T08:20:11Z</time>
      </trkpt>
      <trkpt lat="45.20413" lon="5.41123">
        <ele>264.5</ele>
        <time>2015-10-18T08:20:21Z</time>
      </trkpt>
      <trkpt lat="45.20423" lon="5.41114">
        <ele>265</ele>
        <time>2015-10-18T08:20:22Z</time>
      </trkpt>
      <trkpt lat="45.20534" lon="5.41023">
        <ele>266.9</ele>
        <time>2015-10-18T08:20:33Z</time>
      </trkpt>
      <trkpt lat="45.20543" lon="5.41014">
        <ele>266.9</ele>
        <time>2015-10-18T08:20:34Z</time>
      </trkpt>
      <trkpt lat="45.2055" lon="5.41003">
        <ele>267.4</ele>
        <time>2015-10-18T08:20:35Z</time>
      </trkpt>
      <trkpt lat="45.20557" lon="5.4099">
        <ele>267.9</ele>
        <time>2015-10-18T08:20:36Z</time>
      </trkpt>
      <trkpt lat="45.20563" lon="5.40976">
        <ele>267.9</ele>
        <time>2015-10-18T08:20:37Z</time>
      </trkpt>
      <trkpt lat="45.20568" lon="5.40961">
        <ele>268.4</ele>
        <time>2015-10-18T08:20:38Z</time>
      </trkpt>
      <trkpt lat="45.20633" lon="5.40821">
        <ele>270.3</ele>
        <time>2015-10-18T08:20:49Z</time>
      </trkpt>
      <trkpt lat="45.20662" lon="5.40767">
        <ele>270.8</ele>
        <time>2015-10-18T08:20:58Z</time>
      </trkpt>
      <trkpt lat="45.20677" lon="5.40744">
        <ele>271.2</ele>
        <time>2015-10-18T08:21:02Z</time>
      </trkpt>
      <trkpt lat="45.20681" lon="5.40742">
        <ele>271.7</ele>
        <time>2015-10-18T08:21:03Z</time>
      </trkpt>
      <trkpt lat="45.20686" lon="5.40742">
        <ele>271.7</ele>
        <time>2015-10-18T08:21:04Z</time>
      </trkpt>
      <trkpt lat="45.20691" lon="5.40747">
        <ele>271.2</ele>
        <time>2015-10-18T08:21:05Z</time>
      </trkpt>
      <trkpt lat="45.20696" lon="5.40756">
        <ele>270.8</ele>
        <time>2015-10-18T08:21:06Z</time>
      </trkpt>
      <trkpt lat="45.20701" lon="5.40768">
        <ele>270.3</ele>
        <time>2015-10-18T08:21:07Z</time>
      </trkpt>
      <trkpt lat="45.20707" lon="5.40781">
        <ele>270.3</ele>
        <time>2015-10-18T08:21:08Z</time>
      </trkpt>
      <trkpt lat="45.20768" lon="5.4096">
        <ele>266.4</ele>
        <time>2015-10-18T08:21:20Z</time>
      </trkpt>
      <trkpt lat="45.20778" lon="5.41014">
        <ele>265.9</ele>
        <time>2015-10-18T08:21:24Z</time>
      </trkpt>
      <trkpt lat="45.20778" lon="5.41028">
        <ele>266.4</ele>
        <time>2015-10-18T08:21:25Z</time>
      </trkpt>
      <trkpt lat="45.20779" lon="5.41041">
        <ele>266.4</ele>
        <time>2015-10-18T08:21:26Z</time>
      </trkpt>
      <trkpt lat="45.20781" lon="5.41053">
        <ele>266.4</ele>
        <time>2015-10-18T08:21:27Z</time>
      </trkpt>
      <trkpt lat="45.20784" lon="5.41065">
        <ele>266.4</ele>
        <time>2015-10-18T08:21:28Z</time>
      </trkpt>
      <trkpt lat="45.20787" lon="5.41077">
        <ele>266.4</ele>
        <time>2015-10-18T08:21:29Z</time>
      </trkpt>
      <trkpt lat="45.20809" lon="5.4116">
        <ele>267.4</ele>
        <time>2015-10-18T08:21:36Z</time>
      </trkpt>
      <trkpt lat="45.20808" lon="5.41166">
        <ele>267.4</ele>
        <time>2015-10-18T08:21:37Z</time>
      </trkpt>
      <trkpt lat="45.20804" lon="5.41169">
        <ele>267.9</ele>
        <time>2015-10-18T08:21:38Z</time>
      </trkpt>
      <trkpt lat="45.20799" lon="5.41169">
        <ele>268.4</ele>
        <time>2015-10-18T08:21:39Z</time>
      </trkpt>
      <trkpt lat="45.20794" lon="5.41169">
        <ele>268.4</ele>
        <time>2015-10-18T08:21:40Z</time>
      </trkpt>
      <trkpt lat="45.20789" lon="5.4117">
        <ele>268.4</ele>
        <time>2015-10-18T08:21:41Z</time>
      </trkpt>
      <trkpt lat="45.20783" lon="5.41173">
        <ele>268.4</ele>
        <time>2015-10-18T08:21:42Z</time>
      </trkpt>
      <trkpt lat="45.20778" lon="5.41177">
        <ele>268.4</ele>
        <time>2015-10-18T08:21:43Z</time>
      </trkpt>
      <trkpt lat="45.20773" lon="5.41182">
        <ele>268.8</ele>
        <time>2015-10-18T08:21:44Z</time>
      </trkpt>
      <trkpt lat="45.20768" lon="5.41186">
        <ele>268.4</ele>
        <time>2015-10-18T08:21:45Z</time>
      </trkpt>
      <trkpt lat="45.20764" lon="5.41192">
        <ele>268.4</ele>
        <time>2015-10-18T08:21:46Z</time>
      </trkpt>
      <trkpt lat="45.20762" lon="5.41197">
        <ele>268.4</ele>
        <time>2015-10-18T08:21:47Z</time>
      </trkpt>
      <trkpt lat="45.20762" lon="5.41202">
        <ele>267.9</ele>
        <time>2015-10-18T08:21:48Z</time>
      </trkpt>
      <trkpt lat="45.20764" lon="5.41206">
        <ele>267.4</ele>
        <time>2015-10-18T08:21:49Z</time>
      </trkpt>
      <trkpt lat="45.20766" lon="5.41207">
        <ele>267.4</ele>
        <time>2015-10-18T08:21:50Z</time>
      </trkpt>
      <trkpt lat="45.20768" lon="5.41207">
        <ele>267.4</ele>
        <time>2015-10-18T08:21:51Z</time>
      </trkpt>
      <trkpt lat="45.2077" lon="5.41206">
        <ele>267.4</ele>
        <time>2015-10-18T08:21:52Z</time>
      </trkpt>
      <trkpt lat="45.20769" lon="5.41205">
        <ele>267.9</ele>
        <time>2015-10-18T08:22:08Z</time>
      </trkpt>
      <trkpt lat="45.20773" lon="5.412">
        <ele>269.3</ele>
        <time>2015-10-18T08:22:29Z</time>
      </trkpt>
      <trkpt lat="45.20774" lon="5.41197">
        <ele>270.3</ele>
        <time>2015-10-18T08:25:45Z</time>
      </trkpt>
      <trkpt lat="45.20778" lon="5.41193">
        <ele>267.4</ele>
        <time>2015-10-18T08:28:29Z</time>
      </trkpt>
      <trkpt lat="45.20779" lon="5.41193">
        <ele>258.7</ele>
        <time>2015-10-18T08:28:52Z</time>
      </trkpt>
      <trkpt lat="45.20774" lon="5.41203">
        <ele>255.4</ele>
        <time>2015-10-18T08:29:40Z</time>
      </trkpt>
      <trkpt lat="45.20782" lon="5.41186">
        <ele>261.6</ele>
        <time>2015-10-18T08:30:52Z</time>
      </trkpt>
      <trkpt lat="45.20781" lon="5.41187">
        <ele>267.9</ele>
        <time>2015-10-18T08:33:41Z</time>
      </trkpt>
      <trkpt lat="45.20783" lon="5.41184">
        <ele>262.6</ele>
        <time>2015-10-18T08:39:01Z</time>
      </trkpt>
      <trkpt lat="45.20783" lon="5.41184">
        <ele>267.9</ele>
        <time>2015-10-18T08:39:48Z</time>
      </trkpt>
      <trkpt lat="45.20795" lon="5.41169">
        <ele>268.8</ele>
        <time>2015-10-18T08:39:59Z</time>
      </trkpt>
      <trkpt lat="45.20797" lon="5.41168">
        <ele>270.3</ele>
        <time>2015-10-18T08:40:54Z</time>
      </trkpt>
      <trkpt lat="45.20811" lon="5.41169">
        <ele>270.8</ele>
        <time>2015-10-18T08:41:53Z</time>
      </trkpt>
      <trkpt lat="45.20813" lon="5.41172">
        <ele>270.8</ele>
        <time>2015-10-18T08:41:54Z</time>
      </trkpt>
      <trkpt lat="45.20817" lon="5.41179">
        <ele>270.8</ele>
        <time>2015-10-18T08:41:55Z</time>
      </trkpt>
      <trkpt lat="45.2085" lon="5.41261">
        <ele>271.2</ele>
        <time>2015-10-18T08:42:05Z</time>
      </trkpt>
      <trkpt lat="45.20864" lon="5.4129">
        <ele>271.2</ele>
        <time>2015-10-18T08:42:09Z</time>
      </trkpt>
      <trkpt lat="45.20872" lon="5.41303">
        <ele>270.8</ele>
        <time>2015-10-18T08:42:11Z</time>
      </trkpt>
      <trkpt lat="45.20874" lon="5.41312">
        <ele>270.3</ele>
        <time>2015-10-18T08:42:12Z</time>
      </trkpt>
      <trkpt lat="45.20873" lon="5.41322">
        <ele>270.3</ele>
        <time>2015-10-18T08:42:13Z</time>
      </trkpt>
      <trkpt lat="45.20869" lon="5.4133">
        <ele>269.8</ele>
        <time>2015-10-18T08:42:14Z</time>
      </trkpt>
      <trkpt lat="45.20864" lon="5.41336">
        <ele>269.3</ele>
        <time>2015-10-18T08:42:15Z</time>
      </trkpt>
      <trkpt lat="45.20857" lon="5.41338">
        <ele>268.8</ele>
        <time>2015-10-18T08:42:16Z</time>
      </trkpt>
      <trkpt lat="45.20851" lon="5.41336">
        <ele>268.8</ele>
        <time>2015-10-18T08:42:17Z</time>
      </trkpt>
      <trkpt lat="45.20849" lon="5.41333">
        <ele>268.4</ele>
        <time>2015-10-18T08:42:18Z</time>
      </trkpt>
      <trkpt lat="45.20841" lon="5.41331">
        <ele>268.4</ele>
        <time>2015-10-18T08:42:21Z</time>
      </trkpt>
      <trkpt lat="45.20834" lon="5.41335">
        <ele>267.9</ele>
        <time>2015-10-18T08:42:22Z</time>
      </trkpt>
      <trkpt lat="45.20827" lon="5.41341">
        <ele>267.9</ele>
        <time>2015-10-18T08:42:23Z</time>
      </trkpt>
      <trkpt lat="45.2082" lon="5.41347">
        <ele>267.4</ele>
        <time>2015-10-18T08:42:24Z</time>
      </trkpt>
      <trkpt lat="45.20813" lon="5.41354">
        <ele>267.4</ele>
        <time>2015-10-18T08:42:25Z</time>
      </trkpt>
      <trkpt lat="45.20771" lon="5.41396">
        <ele>265.9</ele>
        <time>2015-10-18T08:42:33Z</time>
      </trkpt>
      <trkpt lat="45.20732" lon="5.41443">
        <ele>265</ele>
        <time>2015-10-18T08:42:41Z</time>
      </trkpt>
      <trkpt lat="45.20672" lon="5.41517">
        <ele>263.5</ele>
        <time>2015-10-18T08:42:52Z</time>
      </trkpt>
      <trkpt lat="45.20671" lon="5.41518">
        <ele>267.4</ele>
        <time>2015-10-18T08:43:22Z</time>
      </trkpt>
      <trkpt lat="45.2067" lon="5.41518">
        <ele>266.9</ele>
        <time>2015-10-18T08:43:23Z</time>
      </trkpt>
      <trkpt lat="45.20668" lon="5.41519">
        <ele>266.9</ele>
        <time>2015-10-18T08:43:24Z</time>
      </trkpt>
      <trkpt lat="45.20663" lon="5.4152">
        <ele>266.9</ele>
        <time>2015-10-18T08:43:26Z</time>
      </trkpt>
      <trkpt lat="45.2066" lon="5.41523">
        <ele>266.9</ele>
        <time>2015-10-18T08:43:27Z</time>
      </trkpt>
      <trkpt lat="45.2066" lon="5.41526">
        <ele>266.4</ele>
        <time>2015-10-18T08:43:28Z</time>
      </trkpt>
      <trkpt lat="45.20661" lon="5.41529">
        <ele>266.4</ele>
        <time>2015-10-18T08:43:29Z</time>
      </trkpt>
      <trkpt lat="45.20662" lon="5.4153">
        <ele>265.9</ele>
        <time>2015-10-18T08:43:30Z</time>
      </trkpt>
      <trkpt lat="45.20664" lon="5.41531">
        <ele>265.9</ele>
        <time>2015-10-18T08:43:31Z</time>
      </trkpt>
      <trkpt lat="45.20666" lon="5.41529">
        <ele>265.9</ele>
        <time>2015-10-18T08:43:32Z</time>
      </trkpt>
      <trkpt lat="45.2067" lon="5.41522">
        <ele>265.5</ele>
        <time>2015-10-18T08:43:33Z</time>
      </trkpt>
      <trkpt lat="45.20676" lon="5.41514">
        <ele>265.5</ele>
        <time>2015-10-18T08:43:34Z</time>
      </trkpt>
      <trkpt lat="45.20683" lon="5.41503">
        <ele>265.5</ele>
        <time>2015-10-18T08:43:35Z</time>
      </trkpt>
      <trkpt lat="45.20751" lon="5.41417">
        <ele>266.9</ele>
        <time>2015-10-18T08:43:40Z</time>
      </trkpt>
      <trkpt lat="45.2078" lon="5.41379">
        <ele>268.8</ele>
        <time>2015-10-18T08:43:44Z</time>
      </trkpt>
      <trkpt lat="45.20779" lon="5.41373">
        <ele>268.8</ele>
        <time>2015-10-18T08:43:45Z</time>
      </trkpt>
      <trkpt lat="45.20775" lon="5.41365">
        <ele>268.8</ele>
        <time>2015-10-18T08:43:46Z</time>
      </trkpt>
      <trkpt lat="45.20769" lon="5.41356">
        <ele>268.8</ele>
        <time>2015-10-18T08:43:47Z</time>
      </trkpt>
      <trkpt lat="45.20762" lon="5.41345">
        <ele>268.8</ele>
        <time>2015-10-18T08:43:48Z</time>
      </trkpt>
      <trkpt lat="45.20755" lon="5.41334">
        <ele>268.8</ele>
        <time>2015-10-18T08:43:49Z</time>
      </trkpt>
      <trkpt lat="45.20732" lon="5.41305">
        <ele>268.8</ele>
        <time>2015-10-18T08:43:53Z</time>
      </trkpt>
      <trkpt lat="45.20728" lon="5.41306">
        <ele>268.8</ele>
        <time>2015-10-18T08:43:54Z</time>
      </trkpt>
      <trkpt lat="45.20724" lon="5.41311">
        <ele>268.8</ele>
        <time>2015-10-18T08:43:55Z</time>
      </trkpt>
      <trkpt lat="45.20718" lon="5.4132">
        <ele>268.4</ele>
        <time>2015-10-18T08:43:56Z</time>
      </trkpt>
      <trkpt lat="45.2071" lon="5.41333">
        <ele>267.9</ele>
        <time>2015-10-18T08:43:57Z</time>
      </trkpt>
      <trkpt lat="45.2069" lon="5.41362">
        <ele>266.9</ele>
        <time>2015-10-18T08:43:59Z</time>
      </trkpt>
      <trkpt lat="45.20679" lon="5.41374">
        <ele>266.9</ele>
        <time>2015-10-18T08:44:00Z</time>
      </trkpt>
      <trkpt lat="45.20667" lon="5.41381">
        <ele>266.4</ele>
        <time>2015-10-18T08:44:01Z</time>
      </trkpt>
      <trkpt lat="45.20653" lon="5.41387">
        <ele>265.9</ele>
        <time>2015-10-18T08:44:02Z</time>
      </trkpt>
      <trkpt lat="45.2064" lon="5.41395">
        <ele>265.9</ele>
        <time>2015-10-18T08:44:03Z</time>
      </trkpt>
      <trkpt lat="45.20629" lon="5.41405">
        <ele>265.5</ele>
        <time>2015-10-18T08:44:04Z</time>
      </trkpt>
      <trkpt lat="45.2062" lon="5.41413">
        <ele>265.5</ele>
        <time>2015-10-18T08:44:05Z</time>
      </trkpt>
      <trkpt lat="45.20613" lon="5.41417">
        <ele>265.5</ele>
        <time>2015-10-18T08:44:06Z</time>
      </trkpt>
      <trkpt lat="45.20609" lon="5.4142">
        <ele>265</ele>
        <time>2015-10-18T08:44:07Z</time>
      </trkpt>
      <trkpt lat="45.20607" lon="5.41423">
        <ele>264.5</ele>
        <time>2015-10-18T08:44:08Z</time>
      </trkpt>
      <trkpt lat="45.20608" lon="5.41428">
        <ele>264</ele>
        <time>2015-10-18T08:44:10Z</time>
      </trkpt>
      <trkpt lat="45.20611" lon="5.41428">
        <ele>263.5</ele>
        <time>2015-10-18T08:44:28Z</time>
      </trkpt>
      <trkpt lat="45.20611" lon="5.41434">
        <ele>271.7</ele>
        <time>2015-10-18T08:45:14Z</time>
      </trkpt>
      <trkpt lat="45.20616" lon="5.41424">
        <ele>268.4</ele>
        <time>2015-10-18T08:49:16Z</time>
      </trkpt>
      <trkpt lat="45.20619" lon="5.41425">
        <ele>268.4</ele>
        <time>2015-10-18T08:49:17Z</time>
      </trkpt>
      <trkpt lat="45.20623" lon="5.41422">
        <ele>268.4</ele>
        <time>2015-10-18T08:49:18Z</time>
      </trkpt>
      <trkpt lat="45.20628" lon="5.41416">
        <ele>267.9</ele>
        <time>2015-10-18T08:49:19Z</time>
      </trkpt>
      <trkpt lat="45.20634" lon="5.41406">
        <ele>267.9</ele>
        <time>2015-10-18T08:49:20Z</time>
      </trkpt>
      <trkpt lat="45.2064" lon="5.41395">
        <ele>267.9</ele>
        <time>2015-10-18T08:49:21Z</time>
      </trkpt>
      <trkpt lat="45.20648" lon="5.41386">
        <ele>267.9</ele>
        <time>2015-10-18T08:49:22Z</time>
      </trkpt>
      <trkpt lat="45.20657" lon="5.41381">
        <ele>267.4</ele>
        <time>2015-10-18T08:49:23Z</time>
      </trkpt>
      <trkpt lat="45.20668" lon="5.41377">
        <ele>267.4</ele>
        <time>2015-10-18T08:49:24Z</time>
      </trkpt>
      <trkpt lat="45.2068" lon="5.41371">
        <ele>266.9</ele>
        <time>2015-10-18T08:49:25Z</time>
      </trkpt>
      <trkpt lat="45.20691" lon="5.41361">
        <ele>266.4</ele>
        <time>2015-10-18T08:49:26Z</time>
      </trkpt>
      <trkpt lat="45.20701" lon="5.41348">
        <ele>265.9</ele>
        <time>2015-10-18T08:49:27Z</time>
      </trkpt>
      <trkpt lat="45.2071" lon="5.41336">
        <ele>265.9</ele>
        <time>2015-10-18T08:49:28Z</time>
      </trkpt>
      <trkpt lat="45.2073" lon="5.41311">
        <ele>265.9</ele>
        <time>2015-10-18T08:49:31Z</time>
      </trkpt>
      <trkpt lat="45.20737" lon="5.41309">
        <ele>265.9</ele>
        <time>2015-10-18T08:49:32Z</time>
      </trkpt>
      <trkpt lat="45.20743" lon="5.41314">
        <ele>265.5</ele>
        <time>2015-10-18T08:49:33Z</time>
      </trkpt>
      <trkpt lat="45.20749" lon="5.41321">
        <ele>265</ele>
        <time>2015-10-18T08:49:34Z</time>
      </trkpt>
      <trkpt lat="45.20754" lon="5.41329">
        <ele>265</ele>
        <time>2015-10-18T08:49:35Z</time>
      </trkpt>
      <trkpt lat="45.20759" lon="5.41337">
        <ele>264.5</ele>
        <time>2015-10-18T08:49:36Z</time>
      </trkpt>
      <trkpt lat="45.2078" lon="5.41385">
        <ele>264</ele>
        <time>2015-10-18T08:49:45Z</time>
      </trkpt>
      <trkpt lat="45.2078" lon="5.41387">
        <ele>264</ele>
        <time>2015-10-18T08:49:46Z</time>
      </trkpt>
      <trkpt lat="45.20778" lon="5.4139">
        <ele>264</ele>
        <time>2015-10-18T08:49:47Z</time>
      </trkpt>
      <trkpt lat="45.20775" lon="5.41393">
        <ele>263.5</ele>
        <time>2015-10-18T08:49:48Z</time>
      </trkpt>
      <trkpt lat="45.20755" lon="5.41407">
        <ele>263.1</ele>
        <time>2015-10-18T08:49:55Z</time>
      </trkpt>
      <trkpt lat="45.20753" lon="5.41409">
        <ele>262.6</ele>
        <time>2015-10-18T08:49:56Z</time>
      </trkpt>
      <trkpt lat="45.20753" lon="5.41412">
        <ele>262.6</ele>
        <time>2015-10-18T08:49:57Z</time>
      </trkpt>
      <trkpt lat="45.20753" lon="5.41416">
        <ele>262.6</ele>
        <time>2015-10-18T08:49:58Z</time>
      </trkpt>
      <trkpt lat="45.20755" lon="5.41418">
        <ele>262.6</ele>
        <time>2015-10-18T08:49:59Z</time>
      </trkpt>
      <trkpt lat="45.20757" lon="5.41417">
        <ele>262.6</ele>
        <time>2015-10-18T08:50:00Z</time>
      </trkpt>
      <trkpt lat="45.2076" lon="5.41415">
        <ele>262.6</ele>
        <time>2015-10-18T08:50:01Z</time>
      </trkpt>
      <trkpt lat="45.20763" lon="5.41411">
        <ele>263.1</ele>
        <time>2015-10-18T08:50:02Z</time>
      </trkpt>
      <trkpt lat="45.20766" lon="5.41409">
        <ele>263.1</ele>
        <time>2015-10-18T08:50:03Z</time>
      </trkpt>
      <trkpt lat="45.20768" lon="5.41406">
        <ele>263.5</ele>
        <time>2015-10-18T08:50:04Z</time>
      </trkpt>
      <trkpt lat="45.2077" lon="5.41404">
        <ele>263.5</ele>
        <time>2015-10-18T08:50:05Z</time>
      </trkpt>
      <trkpt lat="45.20772" lon="5.41401">
        <ele>264</ele>
        <time>2015-10-18T08:50:18Z</time>
      </trkpt>
      <trkpt lat="45.20791" lon="5.41378">
        <ele>265</ele>
        <time>2015-10-18T08:50:23Z</time>
      </trkpt>
      <trkpt lat="45.20902" lon="5.41249">
        <ele>268.4</ele>
        <time>2015-10-18T08:50:39Z</time>
      </trkpt>
      <trkpt lat="45.20924" lon="5.4122">
        <ele>269.8</ele>
        <time>2015-10-18T08:50:42Z</time>
      </trkpt>
      <trkpt lat="45.21023" lon="5.41134">
        <ele>270.3</ele>
        <time>2015-10-18T08:50:53Z</time>
      </trkpt>
      <trkpt lat="45.21075" lon="5.41085">
        <ele>270.3</ele>
        <time>2015-10-18T08:50:59Z</time>
      </trkpt>
      <trkpt lat="45.21093" lon="5.41058">
        <ele>270.8</ele>
        <time>2015-10-18T08:51:02Z</time>
      </trkpt>
      <trkpt lat="45.21099" lon="5.41052">
        <ele>271.2</ele>
        <time>2015-10-18T08:51:03Z</time>
      </trkpt>
      <trkpt lat="45.21105" lon="5.41047">
        <ele>271.2</ele>
        <time>2015-10-18T08:51:04Z</time>
      </trkpt>
      <trkpt lat="45.21169" lon="5.40993">
        <ele>273.6</ele>
        <time>2015-10-18T08:51:15Z</time>
      </trkpt>
      <trkpt lat="45.21199" lon="5.40971">
        <ele>274.6</ele>
        <time>2015-10-18T08:51:20Z</time>
      </trkpt>
      <trkpt lat="45.21206" lon="5.40969">
        <ele>274.6</ele>
        <time>2015-10-18T08:51:21Z</time>
      </trkpt>
      <trkpt lat="45.21212" lon="5.40968">
        <ele>274.6</ele>
        <time>2015-10-18T08:51:22Z</time>
      </trkpt>
      <trkpt lat="45.21219" lon="5.40971">
        <ele>274.6</ele>
        <time>2015-10-18T08:51:23Z</time>
      </trkpt>
      <trkpt lat="45.21226" lon="5.40974">
        <ele>275.1</ele>
        <time>2015-10-18T08:51:24Z</time>
      </trkpt>
      <trkpt lat="45.21232" lon="5.40975">
        <ele>275.1</ele>
        <time>2015-10-18T08:51:25Z</time>
      </trkpt>
      <trkpt lat="45.21239" lon="5.40972">
        <ele>275.1</ele>
        <time>2015-10-18T08:51:26Z</time>
      </trkpt>
      <trkpt lat="45.21243" lon="5.40967">
        <ele>274.6</ele>
        <time>2015-10-18T08:51:27Z</time>
      </trkpt>
      <trkpt lat="45.21245" lon="5.40961">
        <ele>273.6</ele>
        <time>2015-10-18T08:51:28Z</time>
      </trkpt>
      <trkpt lat="45.21243" lon="5.40953">
        <ele>273.2</ele>
        <time>2015-10-18T08:51:29Z</time>
      </trkpt>
      <trkpt lat="45.21238" lon="5.40944">
        <ele>273.2</ele>
        <time>2015-10-18T08:51:30Z</time>
      </trkpt>
      <trkpt lat="45.21234" lon="5.40935">
        <ele>273.6</ele>
        <time>2015-10-18T08:51:31Z</time>
      </trkpt>
      <trkpt lat="45.2123" lon="5.40923">
        <ele>273.6</ele>
        <time>2015-10-18T08:51:32Z</time>
      </trkpt>
      <trkpt lat="45.21227" lon="5.4091">
        <ele>274.1</ele>
        <time>2015-10-18T08:51:33Z</time>
      </trkpt>
      <trkpt lat="45.21224" lon="5.40896">
        <ele>274.1</ele>
        <time>2015-10-18T08:51:34Z</time>
      </trkpt>
      <trkpt lat="45.21181" lon="5.40731">
        <ele>276.5</ele>
        <time>2015-10-18T08:51:47Z</time>
      </trkpt>
      <trkpt lat="45.21141" lon="5.40589">
        <ele>278.9</ele>
        <time>2015-10-18T08:51:58Z</time>
      </trkpt>
      <trkpt lat="45.21119" lon="5.40513">
        <ele>287.1</ele>
        <time>2015-10-18T08:52:08Z</time>
      </trkpt>
      <trkpt lat="45.21115" lon="5.40512">
        <ele>290.9</ele>
        <time>2015-10-18T08:52:17Z</time>
      </trkpt>
      <trkpt lat="45.21113" lon="5.40512">
        <ele>290</ele>
        <time>2015-10-18T08:52:18Z</time>
      </trkpt>
      <trkpt lat="45.21109" lon="5.40514">
        <ele>290</ele>
        <time>2015-10-18T08:52:19Z</time>
      </trkpt>
      <trkpt lat="45.21105" lon="5.40519">
        <ele>289.5</ele>
        <time>2015-10-18T08:52:20Z</time>
      </trkpt>
      <trkpt lat="45.211" lon="5.40524">
        <ele>289.5</ele>
        <time>2015-10-18T08:52:21Z</time>
      </trkpt>
      <trkpt lat="45.21092" lon="5.40533">
        <ele>289</ele>
        <time>2015-10-18T08:52:23Z</time>
      </trkpt>
      <trkpt lat="45.21088" lon="5.40535">
        <ele>288.5</ele>
        <time>2015-10-18T08:52:24Z</time>
      </trkpt>
      <trkpt lat="45.21085" lon="5.40534">
        <ele>288.5</ele>
        <time>2015-10-18T08:52:25Z</time>
      </trkpt>
      <trkpt lat="45.21083" lon="5.40532">
        <ele>288.1</ele>
        <time>2015-10-18T08:52:26Z</time>
      </trkpt>
      <trkpt lat="45.21083" lon="5.40529">
        <ele>287.6</ele>
        <time>2015-10-18T08:52:27Z</time>
      </trkpt>
      <trkpt lat="45.21084" lon="5.40525">
        <ele>287.1</ele>
        <time>2015-10-18T08:52:28Z</time>
      </trkpt>
      <trkpt lat="45.21086" lon="5.40522">
        <ele>286.6</ele>
        <time>2015-10-18T08:52:29Z</time>
      </trkpt>
      <trkpt lat="45.21089" lon="5.4052">
        <ele>286.1</ele>
        <time>2015-10-18T08:52:30Z</time>
      </trkpt>
      <trkpt lat="45.21092" lon="5.40517">
        <ele>286.6</ele>
        <time>2015-10-18T08:52:31Z</time>
      </trkpt>
      <trkpt lat="45.21095" lon="5.40514">
        <ele>286.6</ele>
        <time>2015-10-18T08:52:32Z</time>
      </trkpt>
      <trkpt lat="45.21097" lon="5.40511">
        <ele>286.1</ele>
        <time>2015-10-18T08:52:33Z</time>
      </trkpt>
      <trkpt lat="45.211" lon="5.4051">
        <ele>285.7</ele>
        <time>2015-10-18T08:52:34Z</time>
      </trkpt>
      <trkpt lat="45.21101" lon="5.40508">
        <ele>285.2</ele>
        <time>2015-10-18T08:52:35Z</time>
      </trkpt>
      <trkpt lat="45.21103" lon="5.40507">
        <ele>288.1</ele>
        <time>2015-10-18T08:52:54Z</time>
      </trkpt>
      <trkpt lat="45.21101" lon="5.40501">
        <ele>294.3</ele>
        <time>2015-10-18T08:53:18Z</time>
      </trkpt>
      <trkpt lat="45.211" lon="5.40499">
        <ele>294.3</ele>
        <time>2015-10-18T08:53:19Z</time>
      </trkpt>
      <trkpt lat="45.21099" lon="5.40497">
        <ele>293.8</ele>
        <time>2015-10-18T08:53:20Z</time>
      </trkpt>
      <trkpt lat="45.21097" lon="5.40495">
        <ele>293.3</ele>
        <time>2015-10-18T08:53:21Z</time>
      </trkpt>
      <trkpt lat="45.21096" lon="5.40493">
        <ele>292.9</ele>
        <time>2015-10-18T08:53:22Z</time>
      </trkpt>
      <trkpt lat="45.21095" lon="5.40492">
        <ele>292.4</ele>
        <time>2015-10-18T08:53:23Z</time>
      </trkpt>
      <trkpt lat="45.21092" lon="5.40492">
        <ele>290.9</ele>
        <time>2015-10-18T08:53:25Z</time>
      </trkpt>
      <trkpt lat="45.2109" lon="5.40493">
        <ele>290.5</ele>
        <time>2015-10-18T08:53:26Z</time>
      </trkpt>
      <trkpt lat="45.21088" lon="5.40494">
        <ele>290.5</ele>
        <time>2015-10-18T08:53:27Z</time>
      </trkpt>
      <trkpt lat="45.21081" lon="5.40498">
        <ele>286.6</ele>
        <time>2015-10-18T08:53:42Z</time>
      </trkpt>
      <trkpt lat="45.21088" lon="5.40503">
        <ele>284.7</ele>
        <time>2015-10-18T08:53:56Z</time>
      </trkpt>
      <trkpt lat="45.21089" lon="5.40504">
        <ele>284.7</ele>
        <time>2015-10-18T08:53:57Z</time>
      </trkpt>
      <trkpt lat="45.2109" lon="5.40505">
        <ele>284.2</ele>
        <time>2015-10-18T08:53:58Z</time>
      </trkpt>
      <trkpt lat="45.2109" lon="5.40506">
        <ele>284.2</ele>
        <time>2015-10-18T08:53:59Z</time>
      </trkpt>
      <trkpt lat="45.21103" lon="5.40508">
        <ele>286.1</ele>
        <time>2015-10-18T08:54:18Z</time>
      </trkpt>
      <trkpt lat="45.211" lon="5.40517">
        <ele>281.8</ele>
        <time>2015-10-18T09:44:26Z</time>
      </trkpt>
      <trkpt lat="45.21107" lon="5.40505">
        <ele>285.7</ele>
        <time>2015-10-18T09:44:48Z</time>
      </trkpt>
      <trkpt lat="45.2111" lon="5.40507">
        <ele>284.2</ele>
        <time>2015-10-18T09:44:49Z</time>
      </trkpt>
      <trkpt lat="45.21113" lon="5.40512">
        <ele>282.8</ele>
        <time>2015-10-18T09:44:50Z</time>
      </trkpt>
      <trkpt lat="45.21117" lon="5.40519">
        <ele>282.3</ele>
        <time>2015-10-18T09:44:51Z</time>
      </trkpt>
      <trkpt lat="45.21221" lon="5.40904">
        <ele>277.5</ele>
        <time>2015-10-18T09:45:20Z</time>
      </trkpt>
      <trkpt lat="45.21222" lon="5.40943">
        <ele>276.5</ele>
        <time>2015-10-18T09:45:23Z</time>
      </trkpt>
      <trkpt lat="45.21221" lon="5.40955">
        <ele>276.5</ele>
        <time>2015-10-18T09:45:24Z</time>
      </trkpt>
      <trkpt lat="45.21216" lon="5.40966">
        <ele>275.6</ele>
        <time>2015-10-18T09:45:25Z</time>
      </trkpt>
      <trkpt lat="45.21208" lon="5.40973">
        <ele>275.1</ele>
        <time>2015-10-18T09:45:26Z</time>
      </trkpt>
      <trkpt lat="45.2119" lon="5.40983">
        <ele>274.1</ele>
        <time>2015-10-18T09:45:28Z</time>
      </trkpt>
      <trkpt lat="45.21083" lon="5.41067">
        <ele>268.8</ele>
        <time>2015-10-18T09:45:40Z</time>
      </trkpt>
      <trkpt lat="45.21061" lon="5.411">
        <ele>267.4</ele>
        <time>2015-10-18T09:45:43Z</time>
      </trkpt>
      <trkpt lat="45.21052" lon="5.41109">
        <ele>267.4</ele>
        <time>2015-10-18T09:45:44Z</time>
      </trkpt>
      <trkpt lat="45.20942" lon="5.41203">
        <ele>264</ele>
        <time>2015-10-18T09:45:56Z</time>
      </trkpt>
      <trkpt lat="45.20636" lon="5.4157">
        <ele>255.4</ele>
        <time>2015-10-18T09:46:30Z</time>
      </trkpt>
      <trkpt lat="45.2057" lon="5.41624">
        <ele>255.9</ele>
        <time>2015-10-18T09:46:38Z</time>
      </trkpt>
      <trkpt lat="45.20563" lon="5.41625">
        <ele>257.3</ele>
        <time>2015-10-18T09:46:45Z</time>
      </trkpt>
      <trkpt lat="45.20559" lon="5.41623">
        <ele>257.3</ele>
        <time>2015-10-18T09:46:46Z</time>
      </trkpt>
      <trkpt lat="45.20535" lon="5.41608">
        <ele>258.7</ele>
        <time>2015-10-18T09:46:55Z</time>
      </trkpt>
      <trkpt lat="45.20534" lon="5.41608">
        <ele>258.7</ele>
        <time>2015-10-18T09:46:56Z</time>
      </trkpt>
      <trkpt lat="45.20532" lon="5.4161">
        <ele>258.7</ele>
        <time>2015-10-18T09:46:57Z</time>
      </trkpt>
      <trkpt lat="45.2053" lon="5.41614">
        <ele>258.3</ele>
        <time>2015-10-18T09:46:58Z</time>
      </trkpt>
      <trkpt lat="45.20527" lon="5.41724">
        <ele>258.3</ele>
        <time>2015-10-18T09:47:07Z</time>
      </trkpt>
      <trkpt lat="45.2048" lon="5.41942">
        <ele>256.3</ele>
        <time>2015-10-18T09:47:21Z</time>
      </trkpt>
      <trkpt lat="45.20477" lon="5.42148">
        <ele>257.8</ele>
        <time>2015-10-18T09:47:32Z</time>
      </trkpt>
      <trkpt lat="45.20495" lon="5.42335">
        <ele>259.7</ele>
        <time>2015-10-18T09:47:41Z</time>
      </trkpt>
      <trkpt lat="45.20399" lon="5.42914">
        <ele>260.2</ele>
        <time>2015-10-18T09:48:05Z</time>
      </trkpt>
      <trkpt lat="45.20399" lon="5.42939">
        <ele>260.2</ele>
        <time>2015-10-18T09:48:06Z</time>
      </trkpt>
      <trkpt lat="45.20407" lon="5.4299">
        <ele>260.2</ele>
        <time>2015-10-18T09:48:08Z</time>
      </trkpt>
      <trkpt lat="45.20434" lon="5.43084">
        <ele>260.7</ele>
        <time>2015-10-18T09:48:12Z</time>
      </trkpt>
      <trkpt lat="45.20437" lon="5.43109">
        <ele>260.2</ele>
        <time>2015-10-18T09:48:13Z</time>
      </trkpt>
      <trkpt lat="45.20436" lon="5.43134">
        <ele>259.7</ele>
        <time>2015-10-18T09:48:14Z</time>
      </trkpt>
      <trkpt lat="45.2043" lon="5.43157">
        <ele>259.7</ele>
        <time>2015-10-18T09:48:15Z</time>
      </trkpt>
      <trkpt lat="45.20421" lon="5.43177">
        <ele>259.2</ele>
        <time>2015-10-18T09:48:16Z</time>
      </trkpt>
      <trkpt lat="45.20384" lon="5.43223">
        <ele>257.8</ele>
        <time>2015-10-18T09:48:19Z</time>
      </trkpt>
      <trkpt lat="45.20376" lon="5.4324">
        <ele>257.3</ele>
        <time>2015-10-18T09:48:20Z</time>
      </trkpt>
      <trkpt lat="45.20369" lon="5.43285">
        <ele>255.4</ele>
        <time>2015-10-18T09:48:22Z</time>
      </trkpt>
      <trkpt lat="45.20368" lon="5.43356">
        <ele>254.9</ele>
        <time>2015-10-18T09:48:25Z</time>
      </trkpt>
      <trkpt lat="45.20365" lon="5.43379">
        <ele>254.9</ele>
        <time>2015-10-18T09:48:26Z</time>
      </trkpt>
      <trkpt lat="45.20359" lon="5.43402">
        <ele>254.9</ele>
        <time>2015-10-18T09:48:27Z</time>
      </trkpt>
      <trkpt lat="45.20287" lon="5.43586">
        <ele>252</ele>
        <time>2015-10-18T09:48:36Z</time>
      </trkpt>
      <trkpt lat="45.20284" lon="5.43608">
        <ele>251.5</ele>
        <time>2015-10-18T09:48:37Z</time>
      </trkpt>
      <trkpt lat="45.20285" lon="5.4363">
        <ele>250.1</ele>
        <time>2015-10-18T09:48:38Z</time>
      </trkpt>
      <trkpt lat="45.20291" lon="5.43651">
        <ele>249.1</ele>
        <time>2015-10-18T09:48:39Z</time>
      </trkpt>
      <trkpt lat="45.20319" lon="5.43713">
        <ele>246.2</ele>
        <time>2015-10-18T09:48:42Z</time>
      </trkpt>
      <trkpt lat="45.20326" lon="5.43736">
        <ele>245.3</ele>
        <time>2015-10-18T09:48:43Z</time>
      </trkpt>
      <trkpt lat="45.20329" lon="5.43761">
        <ele>244.3</ele>
        <time>2015-10-18T09:48:44Z</time>
      </trkpt>
      <trkpt lat="45.2033" lon="5.43838">
        <ele>241.9</ele>
        <time>2015-10-18T09:48:47Z</time>
      </trkpt>
      <trkpt lat="45.20301" lon="5.44075">
        <ele>241</ele>
        <time>2015-10-18T09:48:57Z</time>
      </trkpt>
      <trkpt lat="45.20303" lon="5.44097">
        <ele>241</ele>
        <time>2015-10-18T09:48:58Z</time>
      </trkpt>
      <trkpt lat="45.20399" lon="5.4451">
        <ele>244.8</ele>
        <time>2015-10-18T09:49:16Z</time>
      </trkpt>
      <trkpt lat="45.20398" lon="5.4456">
        <ele>244.8</ele>
        <time>2015-10-18T09:49:18Z</time>
      </trkpt>
      <trkpt lat="45.20339" lon="5.44853">
        <ele>238.5</ele>
        <time>2015-10-18T09:49:30Z</time>
      </trkpt>
      <trkpt lat="45.20342" lon="5.449">
        <ele>237.6</ele>
        <time>2015-10-18T09:49:32Z</time>
      </trkpt>
      <trkpt lat="45.20352" lon="5.44946">
        <ele>237.1</ele>
        <time>2015-10-18T09:49:34Z</time>
      </trkpt>
      <trkpt lat="45.20384" lon="5.45327">
        <ele>236.1</ele>
        <time>2015-10-18T09:49:50Z</time>
      </trkpt>
      <trkpt lat="45.20389" lon="5.45351">
        <ele>237.1</ele>
        <time>2015-10-18T09:49:51Z</time>
      </trkpt>
      <trkpt lat="45.20404" lon="5.45395">
        <ele>238.1</ele>
        <time>2015-10-18T09:49:53Z</time>
      </trkpt>
      <trkpt lat="45.20489" lon="5.45556">
        <ele>239.5</ele>
        <time>2015-10-18T09:50:01Z</time>
      </trkpt>
      <trkpt lat="45.20575" lon="5.45687">
        <ele>237.1</ele>
        <time>2015-10-18T09:50:08Z</time>
      </trkpt>
      <trkpt lat="45.20589" lon="5.45702">
        <ele>237.1</ele>
        <time>2015-10-18T09:50:09Z</time>
      </trkpt>
      <trkpt lat="45.20774" lon="5.4598">
        <ele>230.9</ele>
        <time>2015-10-18T09:50:24Z</time>
      </trkpt>
      <trkpt lat="45.20787" lon="5.45993">
        <ele>229.9</ele>
        <time>2015-10-18T09:50:25Z</time>
      </trkpt>
      <trkpt lat="45.20862" lon="5.46037">
        <ele>224.6</ele>
        <time>2015-10-18T09:50:31Z</time>
      </trkpt>
      <trkpt lat="45.20868" lon="5.46043">
        <ele>224.1</ele>
        <time>2015-10-18T09:50:32Z</time>
      </trkpt>
      <trkpt lat="45.20872" lon="5.46049">
        <ele>223.6</ele>
        <time>2015-10-18T09:50:33Z</time>
      </trkpt>
      <trkpt lat="45.20874" lon="5.46055">
        <ele>223.2</ele>
        <time>2015-10-18T09:50:34Z</time>
      </trkpt>
      <trkpt lat="45.20874" lon="5.46058">
        <ele>222.7</ele>
        <time>2015-10-18T09:50:35Z</time>
      </trkpt>
      <trkpt lat="45.20871" lon="5.46059">
        <ele>221.7</ele>
        <time>2015-10-18T09:50:45Z</time>
      </trkpt>
      <trkpt lat="45.20869" lon="5.46063">
        <ele>221.7</ele>
        <time>2015-10-18T09:50:46Z</time>
      </trkpt>
      <trkpt lat="45.20864" lon="5.4607">
        <ele>221.2</ele>
        <time>2015-10-18T09:50:47Z</time>
      </trkpt>
      <trkpt lat="45.20771" lon="5.46235">
        <ele>209.2</ele>
        <time>2015-10-18T09:50:57Z</time>
      </trkpt>
      <trkpt lat="45.20764" lon="5.46258">
        <ele>208.3</ele>
        <time>2015-10-18T09:50:58Z</time>
      </trkpt>
      <trkpt lat="45.20759" lon="5.46283">
        <ele>206.3</ele>
        <time>2015-10-18T09:50:59Z</time>
      </trkpt>
      <trkpt lat="45.2076" lon="5.46314">
        <ele>204.9</ele>
        <time>2015-10-18T09:51:00Z</time>
      </trkpt>
      <trkpt lat="45.20765" lon="5.46341">
        <ele>203.5</ele>
        <time>2015-10-18T09:51:01Z</time>
      </trkpt>
      <trkpt lat="45.20775" lon="5.46365">
        <ele>202</ele>
        <time>2015-10-18T09:51:02Z</time>
      </trkpt>
      <trkpt lat="45.20788" lon="5.46385">
        <ele>201.1</ele>
        <time>2015-10-18T09:51:03Z</time>
      </trkpt>
      <trkpt lat="45.20806" lon="5.464">
        <ele>200.6</ele>
        <time>2015-10-18T09:51:04Z</time>
      </trkpt>
      <trkpt lat="45.20843" lon="5.46421">
        <ele>198.7</ele>
        <time>2015-10-18T09:51:06Z</time>
      </trkpt>
      <trkpt lat="45.20874" lon="5.46448">
        <ele>196.7</ele>
        <time>2015-10-18T09:51:08Z</time>
      </trkpt>
      <trkpt lat="45.20886" lon="5.46465">
        <ele>195.3</ele>
        <time>2015-10-18T09:51:09Z</time>
      </trkpt>
      <trkpt lat="45.20894" lon="5.46487">
        <ele>193.4</ele>
        <time>2015-10-18T09:51:10Z</time>
      </trkpt>
      <trkpt lat="45.20898" lon="5.46511">
        <ele>191.9</ele>
        <time>2015-10-18T09:51:11Z</time>
      </trkpt>
      <trkpt lat="45.20898" lon="5.46535">
        <ele>190</ele>
        <time>2015-10-18T09:51:12Z</time>
      </trkpt>
      <trkpt lat="45.20893" lon="5.46563">
        <ele>191</ele>
        <time>2015-10-18T09:51:13Z</time>
      </trkpt>
      <trkpt lat="45.20886" lon="5.46585">
        <ele>190.5</ele>
        <time>2015-10-18T09:51:14Z</time>
      </trkpt>
      <trkpt lat="45.20662" lon="5.46897">
        <ele>191.9</ele>
        <time>2015-10-18T09:51:40Z</time>
      </trkpt>
      <trkpt lat="45.20453" lon="5.47123">
        <ele>195.3</ele>
        <time>2015-10-18T09:52:05Z</time>
      </trkpt>
      <trkpt lat="45.20434" lon="5.47135">
        <ele>194.8</ele>
        <time>2015-10-18T09:52:27Z</time>
      </trkpt>
      <trkpt lat="45.20347" lon="5.47233">
        <ele>194.3</ele>
        <time>2015-10-18T09:52:36Z</time>
      </trkpt>
      <trkpt lat="45.20238" lon="5.47401">
        <ele>198.2</ele>
        <time>2015-10-18T09:52:52Z</time>
      </trkpt>
      <trkpt lat="45.20196" lon="5.47513">
        <ele>199.1</ele>
        <time>2015-10-18T09:52:59Z</time>
      </trkpt>
      <trkpt lat="45.20117" lon="5.48094">
        <ele>204.4</ele>
        <time>2015-10-18T09:53:30Z</time>
      </trkpt>
      <trkpt lat="45.2012" lon="5.48108">
        <ele>204.4</ele>
        <time>2015-10-18T09:53:31Z</time>
      </trkpt>
      <trkpt lat="45.20126" lon="5.48118">
        <ele>204.9</ele>
        <time>2015-10-18T09:53:32Z</time>
      </trkpt>
      <trkpt lat="45.2016" lon="5.48161">
        <ele>207.8</ele>
        <time>2015-10-18T09:53:36Z</time>
      </trkpt>
      <trkpt lat="45.20221" lon="5.48299">
        <ele>219.8</ele>
        <time>2015-10-18T09:53:45Z</time>
      </trkpt>
      <trkpt lat="45.20231" lon="5.48313">
        <ele>221.2</ele>
        <time>2015-10-18T09:53:46Z</time>
      </trkpt>
      <trkpt lat="45.20429" lon="5.48517">
        <ele>243.4</ele>
        <time>2015-10-18T09:54:01Z</time>
      </trkpt>
      <trkpt lat="45.20442" lon="5.48533">
        <ele>244.8</ele>
        <time>2015-10-18T09:54:02Z</time>
      </trkpt>
      <trkpt lat="45.20464" lon="5.4857">
        <ele>247.2</ele>
        <time>2015-10-18T09:54:04Z</time>
      </trkpt>
      <trkpt lat="45.20495" lon="5.48656">
        <ele>253.9</ele>
        <time>2015-10-18T09:54:09Z</time>
      </trkpt>
      <trkpt lat="45.20545" lon="5.48717">
        <ele>259.2</ele>
        <time>2015-10-18T09:54:14Z</time>
      </trkpt>
      <trkpt lat="45.20556" lon="5.48727">
        <ele>260.2</ele>
        <time>2015-10-18T09:54:15Z</time>
      </trkpt>
      <trkpt lat="45.20569" lon="5.48734">
        <ele>261.1</ele>
        <time>2015-10-18T09:54:16Z</time>
      </trkpt>
      <trkpt lat="45.20583" lon="5.48737">
        <ele>262.1</ele>
        <time>2015-10-18T09:54:17Z</time>
      </trkpt>
      <trkpt lat="45.20614" lon="5.48737">
        <ele>264.5</ele>
        <time>2015-10-18T09:54:19Z</time>
      </trkpt>
      <trkpt lat="45.20762" lon="5.48778">
        <ele>277.5</ele>
        <time>2015-10-18T09:54:29Z</time>
      </trkpt>
      <trkpt lat="45.20791" lon="5.4878">
        <ele>279.4</ele>
        <time>2015-10-18T09:54:31Z</time>
      </trkpt>
      <trkpt lat="45.20804" lon="5.48777">
        <ele>280.4</ele>
        <time>2015-10-18T09:54:32Z</time>
      </trkpt>
      <trkpt lat="45.20814" lon="5.4877">
        <ele>281.3</ele>
        <time>2015-10-18T09:54:33Z</time>
      </trkpt>
      <trkpt lat="45.20822" lon="5.48761">
        <ele>282.3</ele>
        <time>2015-10-18T09:54:34Z</time>
      </trkpt>
      <trkpt lat="45.20829" lon="5.48754">
        <ele>282.8</ele>
        <time>2015-10-18T09:54:35Z</time>
      </trkpt>
      <trkpt lat="45.20834" lon="5.4875">
        <ele>283.7</ele>
        <time>2015-10-18T09:54:36Z</time>
      </trkpt>
      <trkpt lat="45.2084" lon="5.48752">
        <ele>283.7</ele>
        <time>2015-10-18T09:54:37Z</time>
      </trkpt>
      <trkpt lat="45.20843" lon="5.4876">
        <ele>284.2</ele>
        <time>2015-10-18T09:54:38Z</time>
      </trkpt>
      <trkpt lat="45.20842" lon="5.48775">
        <ele>285.7</ele>
        <time>2015-10-18T09:54:39Z</time>
      </trkpt>
      <trkpt lat="45.20837" lon="5.48786">
        <ele>286.1</ele>
        <time>2015-10-18T09:54:40Z</time>
      </trkpt>
      <trkpt lat="45.20829" lon="5.48795">
        <ele>286.1</ele>
        <time>2015-10-18T09:54:41Z</time>
      </trkpt>
      <trkpt lat="45.20819" lon="5.48803">
        <ele>286.6</ele>
        <time>2015-10-18T09:54:42Z</time>
      </trkpt>
      <trkpt lat="45.20617" lon="5.48878">
        <ele>303.4</ele>
        <time>2015-10-18T09:54:56Z</time>
      </trkpt>
      <trkpt lat="45.20579" lon="5.48916">
        <ele>306.3</ele>
        <time>2015-10-18T09:54:59Z</time>
      </trkpt>
      <trkpt lat="45.2057" lon="5.48931">
        <ele>307.3</ele>
        <time>2015-10-18T09:55:00Z</time>
      </trkpt>
      <trkpt lat="45.20562" lon="5.48947">
        <ele>308.2</ele>
        <time>2015-10-18T09:55:01Z</time>
      </trkpt>
      <trkpt lat="45.20556" lon="5.48966">
        <ele>309.2</ele>
        <time>2015-10-18T09:55:02Z</time>
      </trkpt>
      <trkpt lat="45.2055" lon="5.49002">
        <ele>311.6</ele>
        <time>2015-10-18T09:55:04Z</time>
      </trkpt>
      <trkpt lat="45.20551" lon="5.49019">
        <ele>312.6</ele>
        <time>2015-10-18T09:55:05Z</time>
      </trkpt>
      <trkpt lat="45.20556" lon="5.4905">
        <ele>314.5</ele>
        <time>2015-10-18T09:55:07Z</time>
      </trkpt>
      <trkpt lat="45.20557" lon="5.49065">
        <ele>315.5</ele>
        <time>2015-10-18T09:55:08Z</time>
      </trkpt>
      <trkpt lat="45.20555" lon="5.49075">
        <ele>317.4</ele>
        <time>2015-10-18T09:55:09Z</time>
      </trkpt>
      <trkpt lat="45.2055" lon="5.4908">
        <ele>318.3</ele>
        <time>2015-10-18T09:55:10Z</time>
      </trkpt>
      <trkpt lat="45.20543" lon="5.49081">
        <ele>319.8</ele>
        <time>2015-10-18T09:55:11Z</time>
      </trkpt>
      <trkpt lat="45.20536" lon="5.4908">
        <ele>320.7</ele>
        <time>2015-10-18T09:55:12Z</time>
      </trkpt>
      <trkpt lat="45.20485" lon="5.49011">
        <ele>329.9</ele>
        <time>2015-10-18T09:55:17Z</time>
      </trkpt>
      <trkpt lat="45.20477" lon="5.49004">
        <ele>330.4</ele>
        <time>2015-10-18T09:55:18Z</time>
      </trkpt>
      <trkpt lat="45.20467" lon="5.49001">
        <ele>332.3</ele>
        <time>2015-10-18T09:55:19Z</time>
      </trkpt>
      <trkpt lat="45.20459" lon="5.49">
        <ele>333.2</ele>
        <time>2015-10-18T09:55:20Z</time>
      </trkpt>
      <trkpt lat="45.20451" lon="5.49003">
        <ele>335.6</ele>
        <time>2015-10-18T09:55:21Z</time>
      </trkpt>
      <trkpt lat="45.20442" lon="5.49006">
        <ele>336.6</ele>
        <time>2015-10-18T09:55:22Z</time>
      </trkpt>
      <trkpt lat="45.20434" lon="5.49006">
        <ele>337.1</ele>
        <time>2015-10-18T09:55:23Z</time>
      </trkpt>
      <trkpt lat="45.20429" lon="5.49007">
        <ele>337.1</ele>
        <time>2015-10-18T09:55:24Z</time>
      </trkpt>
      <trkpt lat="45.20418" lon="5.48994">
        <ele>338.5</ele>
        <time>2015-10-18T09:55:26Z</time>
      </trkpt>
      <trkpt lat="45.20411" lon="5.4898">
        <ele>339.5</ele>
        <time>2015-10-18T09:55:27Z</time>
      </trkpt>
      <trkpt lat="45.20394" lon="5.48955">
        <ele>339.5</ele>
        <time>2015-10-18T09:55:29Z</time>
      </trkpt>
      <trkpt lat="45.20384" lon="5.48945">
        <ele>340.4</ele>
        <time>2015-10-18T09:55:30Z</time>
      </trkpt>
      <trkpt lat="45.20374" lon="5.48937">
        <ele>340.9</ele>
        <time>2015-10-18T09:55:31Z</time>
      </trkpt>
      <trkpt lat="45.20363" lon="5.48932">
        <ele>341.9</ele>
        <time>2015-10-18T09:55:32Z</time>
      </trkpt>
      <trkpt lat="45.20196" lon="5.48884">
        <ele>355.8</ele>
        <time>2015-10-18T09:55:45Z</time>
      </trkpt>
      <trkpt lat="45.20183" lon="5.48887">
        <ele>356.3</ele>
        <time>2015-10-18T09:55:46Z</time>
      </trkpt>
      <trkpt lat="45.20094" lon="5.48917">
        <ele>362.6</ele>
        <time>2015-10-18T09:55:53Z</time>
      </trkpt>
      <trkpt lat="45.20082" lon="5.48914">
        <ele>364</ele>
        <time>2015-10-18T09:55:54Z</time>
      </trkpt>
      <trkpt lat="45.2007" lon="5.4891">
        <ele>365</ele>
        <time>2015-10-18T09:55:55Z</time>
      </trkpt>
      <trkpt lat="45.20059" lon="5.48905">
        <ele>365.4</ele>
        <time>2015-10-18T09:55:56Z</time>
      </trkpt>
      <trkpt lat="45.20047" lon="5.48894">
        <ele>366.9</ele>
        <time>2015-10-18T09:55:57Z</time>
      </trkpt>
      <trkpt lat="45.20035" lon="5.48885">
        <ele>368.3</ele>
        <time>2015-10-18T09:55:58Z</time>
      </trkpt>
      <trkpt lat="45.20023" lon="5.48878">
        <ele>369.3</ele>
        <time>2015-10-18T09:55:59Z</time>
      </trkpt>
      <trkpt lat="45.19925" lon="5.48841">
        <ele>377.9</ele>
        <time>2015-10-18T09:56:07Z</time>
      </trkpt>
      <trkpt lat="45.19913" lon="5.48843">
        <ele>378.9</ele>
        <time>2015-10-18T09:56:08Z</time>
      </trkpt>
      <trkpt lat="45.19901" lon="5.48847">
        <ele>379.9</ele>
        <time>2015-10-18T09:56:09Z</time>
      </trkpt>
      <trkpt lat="45.19876" lon="5.48866">
        <ele>379.9</ele>
        <time>2015-10-18T09:56:12Z</time>
      </trkpt>
      <trkpt lat="45.19866" lon="5.48946">
        <ele>384.7</ele>
        <time>2015-10-18T09:56:17Z</time>
      </trkpt>
      <trkpt lat="45.19842" lon="5.4902">
        <ele>390.9</ele>
        <time>2015-10-18T09:56:22Z</time>
      </trkpt>
      <trkpt lat="45.19836" lon="5.49095">
        <ele>397.2</ele>
        <time>2015-10-18T09:56:28Z</time>
      </trkpt>
      <trkpt lat="45.19833" lon="5.49103">
        <ele>397.6</ele>
        <time>2015-10-18T09:56:29Z</time>
      </trkpt>
      <trkpt lat="45.19828" lon="5.49109">
        <ele>399.1</ele>
        <time>2015-10-18T09:56:30Z</time>
      </trkpt>
      <trkpt lat="45.19821" lon="5.49109">
        <ele>400.5</ele>
        <time>2015-10-18T09:56:31Z</time>
      </trkpt>
      <trkpt lat="45.19813" lon="5.49104">
        <ele>401</ele>
        <time>2015-10-18T09:56:32Z</time>
      </trkpt>
      <trkpt lat="45.1981" lon="5.49098">
        <ele>401.5</ele>
        <time>2015-10-18T09:56:33Z</time>
      </trkpt>
      <trkpt lat="45.19791" lon="5.4904">
        <ele>404.9</ele>
        <time>2015-10-18T09:56:37Z</time>
      </trkpt>
      <trkpt lat="45.19727" lon="5.48915">
        <ele>414</ele>
        <time>2015-10-18T09:56:46Z</time>
      </trkpt>
      <trkpt lat="45.19718" lon="5.48907">
        <ele>415.4</ele>
        <time>2015-10-18T09:56:47Z</time>
      </trkpt>
      <trkpt lat="45.19708" lon="5.48902">
        <ele>415.9</ele>
        <time>2015-10-18T09:56:48Z</time>
      </trkpt>
      <trkpt lat="45.19684" lon="5.48897">
        <ele>418.3</ele>
        <time>2015-10-18T09:56:50Z</time>
      </trkpt>
      <trkpt lat="45.19631" lon="5.48895">
        <ele>422.2</ele>
        <time>2015-10-18T09:56:54Z</time>
      </trkpt>
      <trkpt lat="45.19496" lon="5.48858">
        <ele>436.1</ele>
        <time>2015-10-18T09:57:04Z</time>
      </trkpt>
      <trkpt lat="45.19482" lon="5.48857">
        <ele>437.1</ele>
        <time>2015-10-18T09:57:05Z</time>
      </trkpt>
      <trkpt lat="45.1947" lon="5.48857">
        <ele>438.5</ele>
        <time>2015-10-18T09:57:06Z</time>
      </trkpt>
      <trkpt lat="45.19458" lon="5.4886">
        <ele>439.5</ele>
        <time>2015-10-18T09:57:07Z</time>
      </trkpt>
      <trkpt lat="45.19449" lon="5.48869">
        <ele>440.4</ele>
        <time>2015-10-18T09:57:08Z</time>
      </trkpt>
      <trkpt lat="45.19439" lon="5.48883">
        <ele>442.8</ele>
        <time>2015-10-18T09:57:10Z</time>
      </trkpt>
      <trkpt lat="45.19432" lon="5.48885">
        <ele>444.3</ele>
        <time>2015-10-18T09:57:11Z</time>
      </trkpt>
      <trkpt lat="45.1943" lon="5.48867">
        <ele>448.1</ele>
        <time>2015-10-18T09:57:13Z</time>
      </trkpt>
      <trkpt lat="45.19424" lon="5.48855">
        <ele>449.1</ele>
        <time>2015-10-18T09:57:14Z</time>
      </trkpt>
      <trkpt lat="45.19421" lon="5.48842">
        <ele>448.6</ele>
        <time>2015-10-18T09:57:15Z</time>
      </trkpt>
      <trkpt lat="45.19423" lon="5.48822">
        <ele>446.7</ele>
        <time>2015-10-18T09:57:16Z</time>
      </trkpt>
      <trkpt lat="45.19423" lon="5.48806">
        <ele>446.2</ele>
        <time>2015-10-18T09:57:17Z</time>
      </trkpt>
      <trkpt lat="45.19422" lon="5.4879">
        <ele>446.2</ele>
        <time>2015-10-18T09:57:18Z</time>
      </trkpt>
      <trkpt lat="45.19416" lon="5.48775">
        <ele>445.7</ele>
        <time>2015-10-18T09:57:19Z</time>
      </trkpt>
      <trkpt lat="45.19405" lon="5.48764">
        <ele>445.7</ele>
        <time>2015-10-18T09:57:20Z</time>
      </trkpt>
      <trkpt lat="45.19379" lon="5.48743">
        <ele>444.8</ele>
        <time>2015-10-18T09:57:22Z</time>
      </trkpt>
      <trkpt lat="45.19363" lon="5.4874">
        <ele>445.7</ele>
        <time>2015-10-18T09:57:23Z</time>
      </trkpt>
      <trkpt lat="45.19248" lon="5.48736">
        <ele>457.2</ele>
        <time>2015-10-18T09:57:32Z</time>
      </trkpt>
      <trkpt lat="45.19238" lon="5.48729">
        <ele>458.2</ele>
        <time>2015-10-18T09:57:33Z</time>
      </trkpt>
      <trkpt lat="45.19228" lon="5.48717">
        <ele>460.1</ele>
        <time>2015-10-18T09:57:34Z</time>
      </trkpt>
      <trkpt lat="45.19221" lon="5.48688">
        <ele>463</ele>
        <time>2015-10-18T09:57:36Z</time>
      </trkpt>
      <trkpt lat="45.19215" lon="5.48675">
        <ele>464</ele>
        <time>2015-10-18T09:57:37Z</time>
      </trkpt>
      <trkpt lat="45.19207" lon="5.48663">
        <ele>465.4</ele>
        <time>2015-10-18T09:57:38Z</time>
      </trkpt>
      <trkpt lat="45.19186" lon="5.48643">
        <ele>467.8</ele>
        <time>2015-10-18T09:57:40Z</time>
      </trkpt>
      <trkpt lat="45.19174" lon="5.48635">
        <ele>468.3</ele>
        <time>2015-10-18T09:57:41Z</time>
      </trkpt>
      <trkpt lat="45.19161" lon="5.48631">
        <ele>469.7</ele>
        <time>2015-10-18T09:57:42Z</time>
      </trkpt>
      <trkpt lat="45.19133" lon="5.48627">
        <ele>472.1</ele>
        <time>2015-10-18T09:57:44Z</time>
      </trkpt>
      <trkpt lat="45.19092" lon="5.48615">
        <ele>476.5</ele>
        <time>2015-10-18T09:57:47Z</time>
      </trkpt>
      <trkpt lat="45.1908" lon="5.48607">
        <ele>477.4</ele>
        <time>2015-10-18T09:57:48Z</time>
      </trkpt>
      <trkpt lat="45.19068" lon="5.48598">
        <ele>478.9</ele>
        <time>2015-10-18T09:57:49Z</time>
      </trkpt>
      <trkpt lat="45.19029" lon="5.48556">
        <ele>484.2</ele>
        <time>2015-10-18T09:57:53Z</time>
      </trkpt>
      <trkpt lat="45.19009" lon="5.4855">
        <ele>486.6</ele>
        <time>2015-10-18T09:57:55Z</time>
      </trkpt>
      <trkpt lat="45.18997" lon="5.48548">
        <ele>488</ele>
        <time>2015-10-18T09:57:56Z</time>
      </trkpt>
      <trkpt lat="45.18984" lon="5.48542">
        <ele>489.5</ele>
        <time>2015-10-18T09:57:57Z</time>
      </trkpt>
      <trkpt lat="45.18838" lon="5.48437">
        <ele>504.8</ele>
        <time>2015-10-18T09:58:09Z</time>
      </trkpt>
      <trkpt lat="45.18825" lon="5.48434">
        <ele>505.8</ele>
        <time>2015-10-18T09:58:10Z</time>
      </trkpt>
      <trkpt lat="45.18812" lon="5.48435">
        <ele>506.3</ele>
        <time>2015-10-18T09:58:11Z</time>
      </trkpt>
      <trkpt lat="45.18801" lon="5.4844">
        <ele>506.8</ele>
        <time>2015-10-18T09:58:12Z</time>
      </trkpt>
      <trkpt lat="45.18791" lon="5.48446">
        <ele>507.2</ele>
        <time>2015-10-18T09:58:13Z</time>
      </trkpt>
      <trkpt lat="45.18751" lon="5.48475">
        <ele>509.6</ele>
        <time>2015-10-18T09:58:17Z</time>
      </trkpt>
      <trkpt lat="45.1874" lon="5.4848">
        <ele>510.6</ele>
        <time>2015-10-18T09:58:18Z</time>
      </trkpt>
      <trkpt lat="45.18729" lon="5.48482">
        <ele>511.6</ele>
        <time>2015-10-18T09:58:19Z</time>
      </trkpt>
      <trkpt lat="45.18718" lon="5.48483">
        <ele>512.5</ele>
        <time>2015-10-18T09:58:20Z</time>
      </trkpt>
      <trkpt lat="45.18707" lon="5.48482">
        <ele>513</ele>
        <time>2015-10-18T09:58:21Z</time>
      </trkpt>
      <trkpt lat="45.18672" lon="5.48475">
        <ele>515.9</ele>
        <time>2015-10-18T09:58:24Z</time>
      </trkpt>
      <trkpt lat="45.18624" lon="5.48472">
        <ele>519.7</ele>
        <time>2015-10-18T09:58:28Z</time>
      </trkpt>
      <trkpt lat="45.18612" lon="5.48473">
        <ele>520.7</ele>
        <time>2015-10-18T09:58:29Z</time>
      </trkpt>
      <trkpt lat="45.18553" lon="5.48491">
        <ele>526.5</ele>
        <time>2015-10-18T09:58:34Z</time>
      </trkpt>
      <trkpt lat="45.18493" lon="5.48498">
        <ele>532.2</ele>
        <time>2015-10-18T09:58:39Z</time>
      </trkpt>
      <trkpt lat="45.18486" lon="5.48505">
        <ele>532.7</ele>
        <time>2015-10-18T09:58:40Z</time>
      </trkpt>
      <trkpt lat="45.18477" lon="5.48527">
        <ele>533.7</ele>
        <time>2015-10-18T09:58:42Z</time>
      </trkpt>
      <trkpt lat="45.18475" lon="5.48541">
        <ele>534.6</ele>
        <time>2015-10-18T09:58:43Z</time>
      </trkpt>
      <trkpt lat="45.18466" lon="5.48568">
        <ele>538</ele>
        <time>2015-10-18T09:58:45Z</time>
      </trkpt>
      <trkpt lat="45.18462" lon="5.48579">
        <ele>539.4</ele>
        <time>2015-10-18T09:58:46Z</time>
      </trkpt>
      <trkpt lat="45.18456" lon="5.48586">
        <ele>540.4</ele>
        <time>2015-10-18T09:58:47Z</time>
      </trkpt>
      <trkpt lat="45.1845" lon="5.48584">
        <ele>541.4</ele>
        <time>2015-10-18T09:58:48Z</time>
      </trkpt>
      <trkpt lat="45.18442" lon="5.48582">
        <ele>542.3</ele>
        <time>2015-10-18T09:58:49Z</time>
      </trkpt>
      <trkpt lat="45.18432" lon="5.48578">
        <ele>543.8</ele>
        <time>2015-10-18T09:58:50Z</time>
      </trkpt>
      <trkpt lat="45.18421" lon="5.48575">
        <ele>544.2</ele>
        <time>2015-10-18T09:58:51Z</time>
      </trkpt>
      <trkpt lat="45.18398" lon="5.48573">
        <ele>544.2</ele>
        <time>2015-10-18T09:58:53Z</time>
      </trkpt>
      <trkpt lat="45.18387" lon="5.48575">
        <ele>544.7</ele>
        <time>2015-10-18T09:58:54Z</time>
      </trkpt>
      <trkpt lat="45.18378" lon="5.48577">
        <ele>545.7</ele>
        <time>2015-10-18T09:58:55Z</time>
      </trkpt>
      <trkpt lat="45.1837" lon="5.48581">
        <ele>546.2</ele>
        <time>2015-10-18T09:58:56Z</time>
      </trkpt>
      <trkpt lat="45.18363" lon="5.48586">
        <ele>547.1</ele>
        <time>2015-10-18T09:58:57Z</time>
      </trkpt>
      <trkpt lat="45.18358" lon="5.48592">
        <ele>547.6</ele>
        <time>2015-10-18T09:58:58Z</time>
      </trkpt>
      <trkpt lat="45.18353" lon="5.48599">
        <ele>548.1</ele>
        <time>2015-10-18T09:58:59Z</time>
      </trkpt>
      <trkpt lat="45.18351" lon="5.48607">
        <ele>549.1</ele>
        <time>2015-10-18T09:59:00Z</time>
      </trkpt>
      <trkpt lat="45.18349" lon="5.48646">
        <ele>550</ele>
        <time>2015-10-18T09:59:04Z</time>
      </trkpt>
      <trkpt lat="45.18347" lon="5.48656">
        <ele>550.5</ele>
        <time>2015-10-18T09:59:05Z</time>
      </trkpt>
      <trkpt lat="45.18343" lon="5.48665">
        <ele>551</ele>
        <time>2015-10-18T09:59:06Z</time>
      </trkpt>
      <trkpt lat="45.18275" lon="5.48776">
        <ele>557.2</ele>
        <time>2015-10-18T09:59:18Z</time>
      </trkpt>
      <trkpt lat="45.18267" lon="5.48785">
        <ele>557.7</ele>
        <time>2015-10-18T09:59:19Z</time>
      </trkpt>
      <trkpt lat="45.18239" lon="5.48831">
        <ele>561.6</ele>
        <time>2015-10-18T09:59:23Z</time>
      </trkpt>
      <trkpt lat="45.18192" lon="5.48873">
        <ele>565.9</ele>
        <time>2015-10-18T09:59:28Z</time>
      </trkpt>
      <trkpt lat="45.18152" lon="5.48939">
        <ele>571.2</ele>
        <time>2015-10-18T09:59:34Z</time>
      </trkpt>
      <trkpt lat="45.18143" lon="5.48945">
        <ele>572.6</ele>
        <time>2015-10-18T09:59:35Z</time>
      </trkpt>
      <trkpt lat="45.18132" lon="5.48948">
        <ele>574.5</ele>
        <time>2015-10-18T09:59:36Z</time>
      </trkpt>
      <trkpt lat="45.1812" lon="5.48948">
        <ele>576</ele>
        <time>2015-10-18T09:59:37Z</time>
      </trkpt>
      <trkpt lat="45.18108" lon="5.48941">
        <ele>577.9</ele>
        <time>2015-10-18T09:59:38Z</time>
      </trkpt>
      <trkpt lat="45.18096" lon="5.48931">
        <ele>580.3</ele>
        <time>2015-10-18T09:59:39Z</time>
      </trkpt>
      <trkpt lat="45.18082" lon="5.48922">
        <ele>582.7</ele>
        <time>2015-10-18T09:59:40Z</time>
      </trkpt>
      <trkpt lat="45.18072" lon="5.48913">
        <ele>585.1</ele>
        <time>2015-10-18T09:59:41Z</time>
      </trkpt>
      <trkpt lat="45.18053" lon="5.48888">
        <ele>587.5</ele>
        <time>2015-10-18T09:59:43Z</time>
      </trkpt>
      <trkpt lat="45.18029" lon="5.48851">
        <ele>591.4</ele>
        <time>2015-10-18T09:59:46Z</time>
      </trkpt>
      <trkpt lat="45.18022" lon="5.48843">
        <ele>592.3</ele>
        <time>2015-10-18T09:59:47Z</time>
      </trkpt>
      <trkpt lat="45.18012" lon="5.48843">
        <ele>593.8</ele>
        <time>2015-10-18T09:59:48Z</time>
      </trkpt>
      <trkpt lat="45.17996" lon="5.48853">
        <ele>595.2</ele>
        <time>2015-10-18T09:59:50Z</time>
      </trkpt>
      <trkpt lat="45.17992" lon="5.48874">
        <ele>595.7</ele>
        <time>2015-10-18T09:59:52Z</time>
      </trkpt>
      <trkpt lat="45.17994" lon="5.48887">
        <ele>596.6</ele>
        <time>2015-10-18T09:59:53Z</time>
      </trkpt>
      <trkpt lat="45.17998" lon="5.48901">
        <ele>596.2</ele>
        <time>2015-10-18T09:59:54Z</time>
      </trkpt>
      <trkpt lat="45.1801" lon="5.48928">
        <ele>597.6</ele>
        <time>2015-10-18T09:59:56Z</time>
      </trkpt>
      <trkpt lat="45.18025" lon="5.48948">
        <ele>599.5</ele>
        <time>2015-10-18T09:59:58Z</time>
      </trkpt>
      <trkpt lat="45.1803" lon="5.48958">
        <ele>600.5</ele>
        <time>2015-10-18T09:59:59Z</time>
      </trkpt>
      <trkpt lat="45.18032" lon="5.4897">
        <ele>601</ele>
        <time>2015-10-18T10:00:00Z</time>
      </trkpt>
      <trkpt lat="45.18032" lon="5.48983">
        <ele>601.9</ele>
        <time>2015-10-18T10:00:01Z</time>
      </trkpt>
      <trkpt lat="45.18004" lon="5.49123">
        <ele>612.5</ele>
        <time>2015-10-18T10:00:11Z</time>
      </trkpt>
      <trkpt lat="45.17918" lon="5.49318">
        <ele>626</ele>
        <time>2015-10-18T10:00:26Z</time>
      </trkpt>
      <trkpt lat="45.17915" lon="5.49328">
        <ele>629.3</ele>
        <time>2015-10-18T10:00:27Z</time>
      </trkpt>
      <trkpt lat="45.17916" lon="5.49343">
        <ele>628.8</ele>
        <time>2015-10-18T10:00:28Z</time>
      </trkpt>
      <trkpt lat="45.17915" lon="5.49351">
        <ele>630.3</ele>
        <time>2015-10-18T10:00:29Z</time>
      </trkpt>
      <trkpt lat="45.17912" lon="5.49359">
        <ele>630.8</ele>
        <time>2015-10-18T10:00:30Z</time>
      </trkpt>
      <trkpt lat="45.17907" lon="5.49365">
        <ele>632.2</ele>
        <time>2015-10-18T10:00:31Z</time>
      </trkpt>
      <trkpt lat="45.17896" lon="5.49374">
        <ele>631.7</ele>
        <time>2015-10-18T10:00:33Z</time>
      </trkpt>
      <trkpt lat="45.17882" lon="5.49383">
        <ele>634.1</ele>
        <time>2015-10-18T10:00:35Z</time>
      </trkpt>
      <trkpt lat="45.17866" lon="5.4938">
        <ele>634.6</ele>
        <time>2015-10-18T10:00:37Z</time>
      </trkpt>
      <trkpt lat="45.17859" lon="5.49376">
        <ele>634.1</ele>
        <time>2015-10-18T10:00:38Z</time>
      </trkpt>
      <trkpt lat="45.17851" lon="5.4937">
        <ele>636.5</ele>
        <time>2015-10-18T10:00:39Z</time>
      </trkpt>
      <trkpt lat="45.17844" lon="5.49363">
        <ele>637.5</ele>
        <time>2015-10-18T10:00:40Z</time>
      </trkpt>
      <trkpt lat="45.1784" lon="5.49355">
        <ele>637.5</ele>
        <time>2015-10-18T10:00:41Z</time>
      </trkpt>
      <trkpt lat="45.17838" lon="5.49346">
        <ele>637.5</ele>
        <time>2015-10-18T10:00:42Z</time>
      </trkpt>
      <trkpt lat="45.17835" lon="5.49326">
        <ele>637.5</ele>
        <time>2015-10-18T10:00:44Z</time>
      </trkpt>
      <trkpt lat="45.17834" lon="5.49316">
        <ele>637</ele>
        <time>2015-10-18T10:00:45Z</time>
      </trkpt>
      <trkpt lat="45.17838" lon="5.49296">
        <ele>637</ele>
        <time>2015-10-18T10:00:47Z</time>
      </trkpt>
      <trkpt lat="45.17838" lon="5.49288">
        <ele>637</ele>
        <time>2015-10-18T10:00:48Z</time>
      </trkpt>
      <trkpt lat="45.17838" lon="5.49277">
        <ele>637.5</ele>
        <time>2015-10-18T10:00:49Z</time>
      </trkpt>
      <trkpt lat="45.17829" lon="5.49249">
        <ele>643.3</ele>
        <time>2015-10-18T10:00:52Z</time>
      </trkpt>
      <trkpt lat="45.17825" lon="5.4924">
        <ele>644.7</ele>
        <time>2015-10-18T10:00:53Z</time>
      </trkpt>
      <trkpt lat="45.17766" lon="5.49156">
        <ele>653.4</ele>
        <time>2015-10-18T10:01:03Z</time>
      </trkpt>
      <trkpt lat="45.17762" lon="5.49144">
        <ele>654.3</ele>
        <time>2015-10-18T10:01:04Z</time>
      </trkpt>
      <trkpt lat="45.17753" lon="5.49099">
        <ele>656.2</ele>
        <time>2015-10-18T10:01:07Z</time>
      </trkpt>
      <trkpt lat="45.17744" lon="5.49074">
        <ele>657.7</ele>
        <time>2015-10-18T10:01:09Z</time>
      </trkpt>
      <trkpt lat="45.17739" lon="5.49066">
        <ele>656.2</ele>
        <time>2015-10-18T10:01:10Z</time>
      </trkpt>
      <trkpt lat="45.17731" lon="5.49056">
        <ele>656.7</ele>
        <time>2015-10-18T10:01:11Z</time>
      </trkpt>
      <trkpt lat="45.1772" lon="5.49048">
        <ele>656.2</ele>
        <time>2015-10-18T10:01:12Z</time>
      </trkpt>
      <trkpt lat="45.17705" lon="5.49044">
        <ele>657.7</ele>
        <time>2015-10-18T10:01:13Z</time>
      </trkpt>
      <trkpt lat="45.17695" lon="5.49037">
        <ele>659.1</ele>
        <time>2015-10-18T10:01:14Z</time>
      </trkpt>
      <trkpt lat="45.17657" lon="5.4898">
        <ele>663</ele>
        <time>2015-10-18T10:01:19Z</time>
      </trkpt>
      <trkpt lat="45.17652" lon="5.48965">
        <ele>663.9</ele>
        <time>2015-10-18T10:01:20Z</time>
      </trkpt>
      <trkpt lat="45.17645" lon="5.48927">
        <ele>665.4</ele>
        <time>2015-10-18T10:01:22Z</time>
      </trkpt>
      <trkpt lat="45.17636" lon="5.48781">
        <ele>675.9</ele>
        <time>2015-10-18T10:01:31Z</time>
      </trkpt>
      <trkpt lat="45.17633" lon="5.48771">
        <ele>676.9</ele>
        <time>2015-10-18T10:01:32Z</time>
      </trkpt>
      <trkpt lat="45.17629" lon="5.48764">
        <ele>677.4</ele>
        <time>2015-10-18T10:01:33Z</time>
      </trkpt>
      <trkpt lat="45.17627" lon="5.48758">
        <ele>678.4</ele>
        <time>2015-10-18T10:01:34Z</time>
      </trkpt>
      <trkpt lat="45.17626" lon="5.4875">
        <ele>679.3</ele>
        <time>2015-10-18T10:01:35Z</time>
      </trkpt>
      <trkpt lat="45.17626" lon="5.48743">
        <ele>679.8</ele>
        <time>2015-10-18T10:01:36Z</time>
      </trkpt>
      <trkpt lat="45.17629" lon="5.48736">
        <ele>680.3</ele>
        <time>2015-10-18T10:01:37Z</time>
      </trkpt>
      <trkpt lat="45.17642" lon="5.48718">
        <ele>681.7</ele>
        <time>2015-10-18T10:01:39Z</time>
      </trkpt>
      <trkpt lat="45.17655" lon="5.4868">
        <ele>682.7</ele>
        <time>2015-10-18T10:01:42Z</time>
      </trkpt>
      <trkpt lat="45.17657" lon="5.48664">
        <ele>683.6</ele>
        <time>2015-10-18T10:01:43Z</time>
      </trkpt>
      <trkpt lat="45.17657" lon="5.48646">
        <ele>684.6</ele>
        <time>2015-10-18T10:01:44Z</time>
      </trkpt>
      <trkpt lat="45.17676" lon="5.48474">
        <ele>697.1</ele>
        <time>2015-10-18T10:01:53Z</time>
      </trkpt>
      <trkpt lat="45.17685" lon="5.48461">
        <ele>699</ele>
        <time>2015-10-18T10:01:54Z</time>
      </trkpt>
      <trkpt lat="45.17696" lon="5.48455">
        <ele>701.9</ele>
        <time>2015-10-18T10:01:55Z</time>
      </trkpt>
      <trkpt lat="45.17712" lon="5.48454">
        <ele>703.8</ele>
        <time>2015-10-18T10:01:56Z</time>
      </trkpt>
      <trkpt lat="45.17736" lon="5.48464">
        <ele>711</ele>
        <time>2015-10-18T10:01:58Z</time>
      </trkpt>
      <trkpt lat="45.17805" lon="5.48448">
        <ele>719.2</ele>
        <time>2015-10-18T10:02:04Z</time>
      </trkpt>
      <trkpt lat="45.17811" lon="5.48441">
        <ele>719.7</ele>
        <time>2015-10-18T10:02:05Z</time>
      </trkpt>
      <trkpt lat="45.17815" lon="5.48419">
        <ele>722.1</ele>
        <time>2015-10-18T10:02:07Z</time>
      </trkpt>
      <trkpt lat="45.17815" lon="5.48404">
        <ele>723.5</ele>
        <time>2015-10-18T10:02:08Z</time>
      </trkpt>
      <trkpt lat="45.17809" lon="5.48374">
        <ele>722.6</ele>
        <time>2015-10-18T10:02:10Z</time>
      </trkpt>
      <trkpt lat="45.17804" lon="5.48363">
        <ele>722.6</ele>
        <time>2015-10-18T10:02:11Z</time>
      </trkpt>
      <trkpt lat="45.17798" lon="5.48355">
        <ele>722.1</ele>
        <time>2015-10-18T10:02:12Z</time>
      </trkpt>
      <trkpt lat="45.17703" lon="5.48329">
        <ele>727.9</ele>
        <time>2015-10-18T10:02:22Z</time>
      </trkpt>
      <trkpt lat="45.17675" lon="5.48333">
        <ele>730.3</ele>
        <time>2015-10-18T10:02:26Z</time>
      </trkpt>
      <trkpt lat="45.17668" lon="5.48336">
        <ele>730.3</ele>
        <time>2015-10-18T10:02:27Z</time>
      </trkpt>
      <trkpt lat="45.17661" lon="5.48342">
        <ele>730.7</ele>
        <time>2015-10-18T10:02:28Z</time>
      </trkpt>
      <trkpt lat="45.17655" lon="5.48349">
        <ele>731.2</ele>
        <time>2015-10-18T10:02:29Z</time>
      </trkpt>
      <trkpt lat="45.17649" lon="5.48357">
        <ele>732.2</ele>
        <time>2015-10-18T10:02:30Z</time>
      </trkpt>
      <trkpt lat="45.17641" lon="5.48375">
        <ele>733.6</ele>
        <time>2015-10-18T10:02:32Z</time>
      </trkpt>
      <trkpt lat="45.17625" lon="5.48399">
        <ele>735.1</ele>
        <time>2015-10-18T10:02:35Z</time>
      </trkpt>
      <trkpt lat="45.17596" lon="5.48426">
        <ele>741.3</ele>
        <time>2015-10-18T10:02:39Z</time>
      </trkpt>
      <trkpt lat="45.17591" lon="5.48435">
        <ele>743.2</ele>
        <time>2015-10-18T10:02:40Z</time>
      </trkpt>
      <trkpt lat="45.17583" lon="5.48457">
        <ele>746.1</ele>
        <time>2015-10-18T10:02:42Z</time>
      </trkpt>
      <trkpt lat="45.17553" lon="5.48633">
        <ele>758.6</ele>
        <time>2015-10-18T10:02:53Z</time>
      </trkpt>
      <trkpt lat="45.1753" lon="5.48705">
        <ele>767.3</ele>
        <time>2015-10-18T10:02:58Z</time>
      </trkpt>
      <trkpt lat="45.17521" lon="5.48713">
        <ele>769.2</ele>
        <time>2015-10-18T10:02:59Z</time>
      </trkpt>
      <trkpt lat="45.17513" lon="5.48719">
        <ele>770.6</ele>
        <time>2015-10-18T10:03:00Z</time>
      </trkpt>
      <trkpt lat="45.17504" lon="5.48735">
        <ele>775</ele>
        <time>2015-10-18T10:03:02Z</time>
      </trkpt>
      <trkpt lat="45.17501" lon="5.48744">
        <ele>775.4</ele>
        <time>2015-10-18T10:03:03Z</time>
      </trkpt>
      <trkpt lat="45.17516" lon="5.48762">
        <ele>777.8</ele>
        <time>2015-10-18T10:03:05Z</time>
      </trkpt>
      <trkpt lat="45.17521" lon="5.48771">
        <ele>778.8</ele>
        <time>2015-10-18T10:03:06Z</time>
      </trkpt>
      <trkpt lat="45.17523" lon="5.48782">
        <ele>779.8</ele>
        <time>2015-10-18T10:03:07Z</time>
      </trkpt>
      <trkpt lat="45.17521" lon="5.48793">
        <ele>779.8</ele>
        <time>2015-10-18T10:03:08Z</time>
      </trkpt>
      <trkpt lat="45.17514" lon="5.48818">
        <ele>780.3</ele>
        <time>2015-10-18T10:03:10Z</time>
      </trkpt>
      <trkpt lat="45.175" lon="5.48846">
        <ele>780.3</ele>
        <time>2015-10-18T10:03:12Z</time>
      </trkpt>
      <trkpt lat="45.17454" lon="5.4897">
        <ele>788.9</ele>
        <time>2015-10-18T10:03:20Z</time>
      </trkpt>
      <trkpt lat="45.17428" lon="5.49131">
        <ele>805.2</ele>
        <time>2015-10-18T10:03:30Z</time>
      </trkpt>
      <trkpt lat="45.17439" lon="5.49146">
        <ele>807.2</ele>
        <time>2015-10-18T10:03:31Z</time>
      </trkpt>
      <trkpt lat="45.17446" lon="5.49153">
        <ele>808.1</ele>
        <time>2015-10-18T10:03:32Z</time>
      </trkpt>
      <trkpt lat="45.17457" lon="5.49163">
        <ele>810.5</ele>
        <time>2015-10-18T10:03:33Z</time>
      </trkpt>
      <trkpt lat="45.17464" lon="5.49173">
        <ele>812.5</ele>
        <time>2015-10-18T10:03:34Z</time>
      </trkpt>
      <trkpt lat="45.17536" lon="5.49246">
        <ele>837</ele>
        <time>2015-10-18T10:03:42Z</time>
      </trkpt>
      <trkpt lat="45.17539" lon="5.49259">
        <ele>839.4</ele>
        <time>2015-10-18T10:03:43Z</time>
      </trkpt>
      <trkpt lat="45.1754" lon="5.49272">
        <ele>841.3</ele>
        <time>2015-10-18T10:03:49Z</time>
      </trkpt>
      <trkpt lat="45.17541" lon="5.49265">
        <ele>837.9</ele>
        <time>2015-10-18T10:04:09Z</time>
      </trkpt>
      <trkpt lat="45.17531" lon="5.49217">
        <ele>872.5</ele>
        <time>2015-10-18T10:05:09Z</time>
      </trkpt>
      <trkpt lat="45.17536" lon="5.49246">
        <ele>847.1</ele>
        <time>2015-10-18T10:05:49Z</time>
      </trkpt>
      <trkpt lat="45.17534" lon="5.49226">
        <ele>862.4</ele>
        <time>2015-10-18T10:06:20Z</time>
      </trkpt>
      <trkpt lat="45.17538" lon="5.49265">
        <ele>827.4</ele>
        <time>2015-10-18T10:08:35Z</time>
      </trkpt>
      <trkpt lat="45.17535" lon="5.49253">
        <ele>839.4</ele>
        <time>2015-10-18T10:09:26Z</time>
      </trkpt>
      <trkpt lat="45.17545" lon="5.49274">
        <ele>836</ele>
        <time>2015-10-18T10:10:19Z</time>
      </trkpt>
      <trkpt lat="45.17841" lon="5.49638">
        <ele>841.3</ele>
        <time>2015-10-18T10:11:20Z</time>
      </trkpt>
      <trkpt lat="45.17911" lon="5.49702">
        <ele>877.3</ele>
        <time>2015-10-18T10:11:28Z</time>
      </trkpt>
      <trkpt lat="45.17905" lon="5.49707">
        <ele>876.9</ele>
        <time>2015-10-18T10:11:29Z</time>
      </trkpt>
      <trkpt lat="45.17901" lon="5.49711">
        <ele>876.9</ele>
        <time>2015-10-18T10:11:30Z</time>
      </trkpt>
      <trkpt lat="45.17899" lon="5.49716">
        <ele>878.8</ele>
        <time>2015-10-18T10:11:31Z</time>
      </trkpt>
      <trkpt lat="45.17898" lon="5.49721">
        <ele>879.7</ele>
        <time>2015-10-18T10:11:32Z</time>
      </trkpt>
      <trkpt lat="45.17899" lon="5.49728">
        <ele>878.8</ele>
        <time>2015-10-18T10:11:33Z</time>
      </trkpt>
      <trkpt lat="45.17891" lon="5.49744">
        <ele>880.2</ele>
        <time>2015-10-18T10:11:36Z</time>
      </trkpt>
      <trkpt lat="45.17883" lon="5.49748">
        <ele>878.8</ele>
        <time>2015-10-18T10:11:37Z</time>
      </trkpt>
      <trkpt lat="45.17869" lon="5.49751">
        <ele>882.2</ele>
        <time>2015-10-18T10:11:39Z</time>
      </trkpt>
      <trkpt lat="45.17852" lon="5.49751">
        <ele>883.1</ele>
        <time>2015-10-18T10:11:41Z</time>
      </trkpt>
      <trkpt lat="45.17835" lon="5.49755">
        <ele>887.4</ele>
        <time>2015-10-18T10:11:43Z</time>
      </trkpt>
      <trkpt lat="45.17826" lon="5.49761">
        <ele>890.8</ele>
        <time>2015-10-18T10:11:44Z</time>
      </trkpt>
      <trkpt lat="45.17819" lon="5.49768">
        <ele>892.7</ele>
        <time>2015-10-18T10:11:45Z</time>
      </trkpt>
      <trkpt lat="45.1781" lon="5.49771">
        <ele>899.9</ele>
        <time>2015-10-18T10:11:46Z</time>
      </trkpt>
      <trkpt lat="45.178" lon="5.49776">
        <ele>905.7</ele>
        <time>2015-10-18T10:11:47Z</time>
      </trkpt>
      <trkpt lat="45.17743" lon="5.49816">
        <ele>924.5</ele>
        <time>2015-10-18T10:11:54Z</time>
      </trkpt>
      <trkpt lat="45.17733" lon="5.49819">
        <ele>924.9</ele>
        <time>2015-10-18T10:11:55Z</time>
      </trkpt>
      <trkpt lat="45.17715" lon="5.49818">
        <ele>922.5</ele>
        <time>2015-10-18T10:11:57Z</time>
      </trkpt>
      <trkpt lat="45.17706" lon="5.49815">
        <ele>922</ele>
        <time>2015-10-18T10:11:58Z</time>
      </trkpt>
      <trkpt lat="45.17698" lon="5.4981">
        <ele>920.6</ele>
        <time>2015-10-18T10:11:59Z</time>
      </trkpt>
      <trkpt lat="45.16735" lon="5.48917">
        <ele>998.5</ele>
        <time>2015-10-18T10:13:05Z</time>
      </trkpt>
      <trkpt lat="45.14715" lon="5.48005">
        <ele>1065.3</ele>
        <time>2015-10-18T10:14:43Z</time>
      </trkpt>
      <trkpt lat="45.14452" lon="5.47968">
        <ele>1073.9</ele>
        <time>2015-10-18T10:14:57Z</time>
      </trkpt>
      <trkpt lat="45.1429" lon="5.4798">
        <ele>1073.9</ele>
        <time>2015-10-18T10:15:08Z</time>
      </trkpt>
      <trkpt lat="45.14277" lon="5.47977">
        <ele>1073.5</ele>
        <time>2015-10-18T10:15:09Z</time>
      </trkpt>
      <trkpt lat="45.14264" lon="5.4797">
        <ele>1072</ele>
        <time>2015-10-18T10:15:10Z</time>
      </trkpt>
      <trkpt lat="45.14241" lon="5.47952">
        <ele>1069.1</ele>
        <time>2015-10-18T10:15:12Z</time>
      </trkpt>
      <trkpt lat="45.14113" lon="5.47887">
        <ele>1057.6</ele>
        <time>2015-10-18T10:15:21Z</time>
      </trkpt>
      <trkpt lat="45.13949" lon="5.47869">
        <ele>1046.1</ele>
        <time>2015-10-18T10:15:30Z</time>
      </trkpt>
      <trkpt lat="45.13312" lon="5.47673">
        <ele>1019.1</ele>
        <time>2015-10-18T10:16:02Z</time>
      </trkpt>
      <trkpt lat="45.13279" lon="5.47653">
        <ele>1018.2</ele>
        <time>2015-10-18T10:16:04Z</time>
      </trkpt>
      <trkpt lat="45.13129" lon="5.47602">
        <ele>1010.5</ele>
        <time>2015-10-18T10:16:12Z</time>
      </trkpt>
      <trkpt lat="45.13094" lon="5.47581">
        <ele>1008.6</ele>
        <time>2015-10-18T10:16:14Z</time>
      </trkpt>
      <trkpt lat="45.13075" lon="5.47572">
        <ele>1007.6</ele>
        <time>2015-10-18T10:16:15Z</time>
      </trkpt>
      <trkpt lat="45.13036" lon="5.47561">
        <ele>1005.7</ele>
        <time>2015-10-18T10:16:17Z</time>
      </trkpt>
      <trkpt lat="45.12969" lon="5.47552">
        <ele>1002.3</ele>
        <time>2015-10-18T10:16:21Z</time>
      </trkpt>
      <trkpt lat="45.12956" lon="5.47558">
        <ele>1001.4</ele>
        <time>2015-10-18T10:16:22Z</time>
      </trkpt>
      <trkpt lat="45.12928" lon="5.47565">
        <ele>999.9</ele>
        <time>2015-10-18T10:16:24Z</time>
      </trkpt>
      <trkpt lat="45.12913" lon="5.47561">
        <ele>999.4</ele>
        <time>2015-10-18T10:16:25Z</time>
      </trkpt>
      <trkpt lat="45.12842" lon="5.47548">
        <ele>996.1</ele>
        <time>2015-10-18T10:16:29Z</time>
      </trkpt>
      <trkpt lat="45.12806" lon="5.47534">
        <ele>994.6</ele>
        <time>2015-10-18T10:16:31Z</time>
      </trkpt>
      <trkpt lat="45.12789" lon="5.4753">
        <ele>993.7</ele>
        <time>2015-10-18T10:16:32Z</time>
      </trkpt>
      <trkpt lat="45.12771" lon="5.4753">
        <ele>992.7</ele>
        <time>2015-10-18T10:16:33Z</time>
      </trkpt>
      <trkpt lat="45.12699" lon="5.4755">
        <ele>988.9</ele>
        <time>2015-10-18T10:16:38Z</time>
      </trkpt>
      <trkpt lat="45.1269" lon="5.4756">
        <ele>988.9</ele>
        <time>2015-10-18T10:16:39Z</time>
      </trkpt>
      <trkpt lat="45.12669" lon="5.47601">
        <ele>986.9</ele>
        <time>2015-10-18T10:16:42Z</time>
      </trkpt>
      <trkpt lat="45.12659" lon="5.4761">
        <ele>986.5</ele>
        <time>2015-10-18T10:16:43Z</time>
      </trkpt>
      <trkpt lat="45.12647" lon="5.47611">
        <ele>986.5</ele>
        <time>2015-10-18T10:16:44Z</time>
      </trkpt>
      <trkpt lat="45.1261" lon="5.47591">
        <ele>985</ele>
        <time>2015-10-18T10:16:47Z</time>
      </trkpt>
      <trkpt lat="45.12588" lon="5.47583">
        <ele>984.5</ele>
        <time>2015-10-18T10:16:49Z</time>
      </trkpt>
      <trkpt lat="45.12578" lon="5.47585">
        <ele>984.1</ele>
        <time>2015-10-18T10:16:50Z</time>
      </trkpt>
      <trkpt lat="45.1257" lon="5.47592">
        <ele>983.1</ele>
        <time>2015-10-18T10:16:51Z</time>
      </trkpt>
      <trkpt lat="45.12564" lon="5.47602">
        <ele>982.6</ele>
        <time>2015-10-18T10:16:52Z</time>
      </trkpt>
      <trkpt lat="45.12548" lon="5.47641">
        <ele>981.2</ele>
        <time>2015-10-18T10:16:55Z</time>
      </trkpt>
      <trkpt lat="45.1254" lon="5.47648">
        <ele>980.7</ele>
        <time>2015-10-18T10:16:56Z</time>
      </trkpt>
      <trkpt lat="45.1253" lon="5.47647">
        <ele>980.7</ele>
        <time>2015-10-18T10:16:57Z</time>
      </trkpt>
      <trkpt lat="45.12519" lon="5.47638">
        <ele>980.2</ele>
        <time>2015-10-18T10:16:58Z</time>
      </trkpt>
      <trkpt lat="45.12509" lon="5.47627">
        <ele>980.2</ele>
        <time>2015-10-18T10:16:59Z</time>
      </trkpt>
      <trkpt lat="45.12498" lon="5.47609">
        <ele>979.7</ele>
        <time>2015-10-18T10:17:00Z</time>
      </trkpt>
      <trkpt lat="45.12477" lon="5.47529">
        <ele>975.4</ele>
        <time>2015-10-18T10:17:04Z</time>
      </trkpt>
      <trkpt lat="45.12445" lon="5.47462">
        <ele>972.5</ele>
        <time>2015-10-18T10:17:08Z</time>
      </trkpt>
      <trkpt lat="45.12435" lon="5.4745">
        <ele>971.6</ele>
        <time>2015-10-18T10:17:09Z</time>
      </trkpt>
      <trkpt lat="45.12423" lon="5.47443">
        <ele>971.1</ele>
        <time>2015-10-18T10:17:10Z</time>
      </trkpt>
      <trkpt lat="45.12411" lon="5.4744">
        <ele>970.1</ele>
        <time>2015-10-18T10:17:11Z</time>
      </trkpt>
      <trkpt lat="45.12399" lon="5.4744">
        <ele>969.6</ele>
        <time>2015-10-18T10:17:12Z</time>
      </trkpt>
      <trkpt lat="45.12386" lon="5.47444">
        <ele>968.7</ele>
        <time>2015-10-18T10:17:13Z</time>
      </trkpt>
      <trkpt lat="45.12375" lon="5.47452">
        <ele>967.7</ele>
        <time>2015-10-18T10:17:14Z</time>
      </trkpt>
      <trkpt lat="45.12345" lon="5.47493">
        <ele>965.8</ele>
        <time>2015-10-18T10:17:17Z</time>
      </trkpt>
      <trkpt lat="45.12333" lon="5.47504">
        <ele>965.3</ele>
        <time>2015-10-18T10:17:18Z</time>
      </trkpt>
      <trkpt lat="45.12321" lon="5.4751">
        <ele>964.8</ele>
        <time>2015-10-18T10:17:19Z</time>
      </trkpt>
      <trkpt lat="45.12309" lon="5.4751">
        <ele>964.3</ele>
        <time>2015-10-18T10:17:20Z</time>
      </trkpt>
      <trkpt lat="45.12298" lon="5.47504">
        <ele>963.9</ele>
        <time>2015-10-18T10:17:21Z</time>
      </trkpt>
      <trkpt lat="45.12288" lon="5.47492">
        <ele>963.4</ele>
        <time>2015-10-18T10:17:22Z</time>
      </trkpt>
      <trkpt lat="45.12282" lon="5.47477">
        <ele>962.9</ele>
        <time>2015-10-18T10:17:23Z</time>
      </trkpt>
      <trkpt lat="45.12274" lon="5.47446">
        <ele>962.4</ele>
        <time>2015-10-18T10:17:25Z</time>
      </trkpt>
      <trkpt lat="45.12269" lon="5.47431">
        <ele>961.5</ele>
        <time>2015-10-18T10:17:26Z</time>
      </trkpt>
      <trkpt lat="45.12261" lon="5.47419">
        <ele>960.5</ele>
        <time>2015-10-18T10:17:27Z</time>
      </trkpt>
      <trkpt lat="45.1225" lon="5.47412">
        <ele>960</ele>
        <time>2015-10-18T10:17:28Z</time>
      </trkpt>
      <trkpt lat="45.12238" lon="5.47407">
        <ele>959.1</ele>
        <time>2015-10-18T10:17:29Z</time>
      </trkpt>
      <trkpt lat="45.12175" lon="5.47394">
        <ele>954.3</ele>
        <time>2015-10-18T10:17:34Z</time>
      </trkpt>
      <trkpt lat="45.12165" lon="5.47398">
        <ele>953.3</ele>
        <time>2015-10-18T10:17:35Z</time>
      </trkpt>
      <trkpt lat="45.12158" lon="5.47405">
        <ele>952.3</ele>
        <time>2015-10-18T10:17:36Z</time>
      </trkpt>
      <trkpt lat="45.12154" lon="5.47417">
        <ele>951.8</ele>
        <time>2015-10-18T10:17:37Z</time>
      </trkpt>
      <trkpt lat="45.12153" lon="5.47432">
        <ele>950.9</ele>
        <time>2015-10-18T10:17:38Z</time>
      </trkpt>
      <trkpt lat="45.12155" lon="5.47446">
        <ele>949.9</ele>
        <time>2015-10-18T10:17:39Z</time>
      </trkpt>
      <trkpt lat="45.12169" lon="5.47479">
        <ele>949</ele>
        <time>2015-10-18T10:17:41Z</time>
      </trkpt>
      <trkpt lat="45.12174" lon="5.47497">
        <ele>948</ele>
        <time>2015-10-18T10:17:42Z</time>
      </trkpt>
      <trkpt lat="45.12177" lon="5.47515">
        <ele>947</ele>
        <time>2015-10-18T10:17:43Z</time>
      </trkpt>
      <trkpt lat="45.12175" lon="5.47604">
        <ele>941.3</ele>
        <time>2015-10-18T10:17:49Z</time>
      </trkpt>
      <trkpt lat="45.12179" lon="5.47638">
        <ele>939.8</ele>
        <time>2015-10-18T10:17:53Z</time>
      </trkpt>
      <trkpt lat="45.12177" lon="5.47646">
        <ele>939.4</ele>
        <time>2015-10-18T10:17:54Z</time>
      </trkpt>
      <trkpt lat="45.12172" lon="5.47655">
        <ele>938.4</ele>
        <time>2015-10-18T10:17:55Z</time>
      </trkpt>
      <trkpt lat="45.12166" lon="5.4766">
        <ele>936.9</ele>
        <time>2015-10-18T10:17:56Z</time>
      </trkpt>
      <trkpt lat="45.12153" lon="5.47645">
        <ele>936</ele>
        <time>2015-10-18T10:17:58Z</time>
      </trkpt>
      <trkpt lat="45.12148" lon="5.47565">
        <ele>930.2</ele>
        <time>2015-10-18T10:18:03Z</time>
      </trkpt>
      <trkpt lat="45.12137" lon="5.47528">
        <ele>927.8</ele>
        <time>2015-10-18T10:18:05Z</time>
      </trkpt>
      <trkpt lat="45.12128" lon="5.4751">
        <ele>927.3</ele>
        <time>2015-10-18T10:18:06Z</time>
      </trkpt>
      <trkpt lat="45.12117" lon="5.47494">
        <ele>926.4</ele>
        <time>2015-10-18T10:18:07Z</time>
      </trkpt>
      <trkpt lat="45.12035" lon="5.47402">
        <ele>921.1</ele>
        <time>2015-10-18T10:18:14Z</time>
      </trkpt>
      <trkpt lat="45.11973" lon="5.47354">
        <ele>914.8</ele>
        <time>2015-10-18T10:18:19Z</time>
      </trkpt>
      <trkpt lat="45.11961" lon="5.47349">
        <ele>912.9</ele>
        <time>2015-10-18T10:18:20Z</time>
      </trkpt>
      <trkpt lat="45.11946" lon="5.4735">
        <ele>911.5</ele>
        <time>2015-10-18T10:18:21Z</time>
      </trkpt>
      <trkpt lat="45.11929" lon="5.47355">
        <ele>910</ele>
        <time>2015-10-18T10:18:22Z</time>
      </trkpt>
      <trkpt lat="45.11912" lon="5.47358">
        <ele>909.1</ele>
        <time>2015-10-18T10:18:23Z</time>
      </trkpt>
      <trkpt lat="45.11495" lon="5.47322">
        <ele>878.8</ele>
        <time>2015-10-18T10:18:48Z</time>
      </trkpt>
      <trkpt lat="45.11479" lon="5.47317">
        <ele>877.3</ele>
        <time>2015-10-18T10:18:49Z</time>
      </trkpt>
      <trkpt lat="45.11463" lon="5.47306">
        <ele>876.4</ele>
        <time>2015-10-18T10:18:50Z</time>
      </trkpt>
      <trkpt lat="45.11449" lon="5.47293">
        <ele>874.9</ele>
        <time>2015-10-18T10:18:51Z</time>
      </trkpt>
      <trkpt lat="45.11436" lon="5.47276">
        <ele>874</ele>
        <time>2015-10-18T10:18:52Z</time>
      </trkpt>
      <trkpt lat="45.11399" lon="5.4721">
        <ele>869.2</ele>
        <time>2015-10-18T10:18:56Z</time>
      </trkpt>
      <trkpt lat="45.11356" lon="5.47198">
        <ele>865.8</ele>
        <time>2015-10-18T10:18:59Z</time>
      </trkpt>
      <trkpt lat="45.11341" lon="5.47196">
        <ele>864.8</ele>
        <time>2015-10-18T10:19:00Z</time>
      </trkpt>
      <trkpt lat="45.11311" lon="5.47198">
        <ele>863.4</ele>
        <time>2015-10-18T10:19:02Z</time>
      </trkpt>
      <trkpt lat="45.11295" lon="5.47196">
        <ele>862.4</ele>
        <time>2015-10-18T10:19:03Z</time>
      </trkpt>
      <trkpt lat="45.11188" lon="5.47154">
        <ele>854.3</ele>
        <time>2015-10-18T10:19:11Z</time>
      </trkpt>
      <trkpt lat="45.11183" lon="5.47155">
        <ele>853.3</ele>
        <time>2015-10-18T10:19:12Z</time>
      </trkpt>
      <trkpt lat="45.11178" lon="5.47163">
        <ele>852.4</ele>
        <time>2015-10-18T10:19:13Z</time>
      </trkpt>
      <trkpt lat="45.11176" lon="5.47169">
        <ele>851.9</ele>
        <time>2015-10-18T10:19:14Z</time>
      </trkpt>
      <trkpt lat="45.11166" lon="5.47279">
        <ele>846.6</ele>
        <time>2015-10-18T10:19:22Z</time>
      </trkpt>
      <trkpt lat="45.11167" lon="5.47296">
        <ele>846.1</ele>
        <time>2015-10-18T10:19:23Z</time>
      </trkpt>
      <trkpt lat="45.1117" lon="5.47312">
        <ele>846.1</ele>
        <time>2015-10-18T10:19:24Z</time>
      </trkpt>
      <trkpt lat="45.1117" lon="5.47327">
        <ele>845.6</ele>
        <time>2015-10-18T10:19:25Z</time>
      </trkpt>
      <trkpt lat="45.11167" lon="5.47343">
        <ele>845.1</ele>
        <time>2015-10-18T10:19:26Z</time>
      </trkpt>
      <trkpt lat="45.11159" lon="5.47355">
        <ele>844.7</ele>
        <time>2015-10-18T10:19:27Z</time>
      </trkpt>
      <trkpt lat="45.11149" lon="5.47362">
        <ele>844.7</ele>
        <time>2015-10-18T10:19:28Z</time>
      </trkpt>
      <trkpt lat="45.11139" lon="5.47371">
        <ele>844.7</ele>
        <time>2015-10-18T10:19:29Z</time>
      </trkpt>
      <trkpt lat="45.11131" lon="5.47382">
        <ele>843.7</ele>
        <time>2015-10-18T10:19:30Z</time>
      </trkpt>
      <trkpt lat="45.11125" lon="5.47396">
        <ele>843.2</ele>
        <time>2015-10-18T10:19:31Z</time>
      </trkpt>
      <trkpt lat="45.11125" lon="5.47412">
        <ele>842.7</ele>
        <time>2015-10-18T10:19:32Z</time>
      </trkpt>
      <trkpt lat="45.11128" lon="5.47442">
        <ele>841.8</ele>
        <time>2015-10-18T10:19:34Z</time>
      </trkpt>
      <trkpt lat="45.11127" lon="5.47456">
        <ele>841.3</ele>
        <time>2015-10-18T10:19:35Z</time>
      </trkpt>
      <trkpt lat="45.11122" lon="5.47466">
        <ele>839.9</ele>
        <time>2015-10-18T10:19:36Z</time>
      </trkpt>
      <trkpt lat="45.11103" lon="5.47468">
        <ele>838.4</ele>
        <time>2015-10-18T10:19:38Z</time>
      </trkpt>
      <trkpt lat="45.1108" lon="5.47453">
        <ele>838.4</ele>
        <time>2015-10-18T10:19:40Z</time>
      </trkpt>
      <trkpt lat="45.11069" lon="5.47442">
        <ele>837</ele>
        <time>2015-10-18T10:19:41Z</time>
      </trkpt>
      <trkpt lat="45.11045" lon="5.4741">
        <ele>837</ele>
        <time>2015-10-18T10:19:43Z</time>
      </trkpt>
      <trkpt lat="45.11043" lon="5.47393">
        <ele>835</ele>
        <time>2015-10-18T10:19:44Z</time>
      </trkpt>
      <trkpt lat="45.11031" lon="5.47354">
        <ele>835</ele>
        <time>2015-10-18T10:19:46Z</time>
      </trkpt>
      <trkpt lat="45.11012" lon="5.47335">
        <ele>833.1</ele>
        <time>2015-10-18T10:19:48Z</time>
      </trkpt>
      <trkpt lat="45.10999" lon="5.47336">
        <ele>832.6</ele>
        <time>2015-10-18T10:19:49Z</time>
      </trkpt>
      <trkpt lat="45.10987" lon="5.47342">
        <ele>830.2</ele>
        <time>2015-10-18T10:19:50Z</time>
      </trkpt>
      <trkpt lat="45.10963" lon="5.47342">
        <ele>828.8</ele>
        <time>2015-10-18T10:19:52Z</time>
      </trkpt>
      <trkpt lat="45.10952" lon="5.47334">
        <ele>828.3</ele>
        <time>2015-10-18T10:19:53Z</time>
      </trkpt>
      <trkpt lat="45.10931" lon="5.47312">
        <ele>826.9</ele>
        <time>2015-10-18T10:19:55Z</time>
      </trkpt>
      <trkpt lat="45.10919" lon="5.47303">
        <ele>826.4</ele>
        <time>2015-10-18T10:19:56Z</time>
      </trkpt>
      <trkpt lat="45.10892" lon="5.47291">
        <ele>825.9</ele>
        <time>2015-10-18T10:19:58Z</time>
      </trkpt>
      <trkpt lat="45.10852" lon="5.47279">
        <ele>824.5</ele>
        <time>2015-10-18T10:20:01Z</time>
      </trkpt>
      <trkpt lat="45.10798" lon="5.47282">
        <ele>822.6</ele>
        <time>2015-10-18T10:20:05Z</time>
      </trkpt>
      <trkpt lat="45.10784" lon="5.4728">
        <ele>821.6</ele>
        <time>2015-10-18T10:20:06Z</time>
      </trkpt>
      <trkpt lat="45.10771" lon="5.47275">
        <ele>821.1</ele>
        <time>2015-10-18T10:20:07Z</time>
      </trkpt>
      <trkpt lat="45.10758" lon="5.47268">
        <ele>820.6</ele>
        <time>2015-10-18T10:20:08Z</time>
      </trkpt>
      <trkpt lat="45.10745" lon="5.47259">
        <ele>819.7</ele>
        <time>2015-10-18T10:20:09Z</time>
      </trkpt>
      <trkpt lat="45.10721" lon="5.47237">
        <ele>818.2</ele>
        <time>2015-10-18T10:20:11Z</time>
      </trkpt>
      <trkpt lat="45.10671" lon="5.47175">
        <ele>814.4</ele>
        <time>2015-10-18T10:20:16Z</time>
      </trkpt>
      <trkpt lat="45.10662" lon="5.47172">
        <ele>813.9</ele>
        <time>2015-10-18T10:20:17Z</time>
      </trkpt>
      <trkpt lat="45.10651" lon="5.47175">
        <ele>812.5</ele>
        <time>2015-10-18T10:20:18Z</time>
      </trkpt>
      <trkpt lat="45.10643" lon="5.47185">
        <ele>811.5</ele>
        <time>2015-10-18T10:20:19Z</time>
      </trkpt>
      <trkpt lat="45.10612" lon="5.47227">
        <ele>810.5</ele>
        <time>2015-10-18T10:20:22Z</time>
      </trkpt>
      <trkpt lat="45.10563" lon="5.47265">
        <ele>808.1</ele>
        <time>2015-10-18T10:20:26Z</time>
      </trkpt>
      <trkpt lat="45.10551" lon="5.47268">
        <ele>807.2</ele>
        <time>2015-10-18T10:20:27Z</time>
      </trkpt>
      <trkpt lat="45.10522" lon="5.47257">
        <ele>808.1</ele>
        <time>2015-10-18T10:20:30Z</time>
      </trkpt>
      <trkpt lat="45.10507" lon="5.47254">
        <ele>808.1</ele>
        <time>2015-10-18T10:20:32Z</time>
      </trkpt>
      <trkpt lat="45.105" lon="5.47254">
        <ele>808.1</ele>
        <time>2015-10-18T10:20:33Z</time>
      </trkpt>
      <trkpt lat="45.10493" lon="5.47257">
        <ele>807.6</ele>
        <time>2015-10-18T10:20:34Z</time>
      </trkpt>
      <trkpt lat="45.10479" lon="5.47267">
        <ele>806.7</ele>
        <time>2015-10-18T10:20:36Z</time>
      </trkpt>
      <trkpt lat="45.10472" lon="5.4727">
        <ele>806.2</ele>
        <time>2015-10-18T10:20:37Z</time>
      </trkpt>
      <trkpt lat="45.10465" lon="5.47276">
        <ele>806.2</ele>
        <time>2015-10-18T10:20:38Z</time>
      </trkpt>
      <trkpt lat="45.10445" lon="5.47302">
        <ele>807.2</ele>
        <time>2015-10-18T10:20:41Z</time>
      </trkpt>
      <trkpt lat="45.10432" lon="5.47315">
        <ele>806.7</ele>
        <time>2015-10-18T10:20:43Z</time>
      </trkpt>
      <trkpt lat="45.10425" lon="5.47319">
        <ele>806.2</ele>
        <time>2015-10-18T10:20:44Z</time>
      </trkpt>
      <trkpt lat="45.10416" lon="5.47322">
        <ele>807.2</ele>
        <time>2015-10-18T10:20:45Z</time>
      </trkpt>
      <trkpt lat="45.10407" lon="5.47323">
        <ele>806.7</ele>
        <time>2015-10-18T10:20:46Z</time>
      </trkpt>
      <trkpt lat="45.10378" lon="5.4732">
        <ele>806.2</ele>
        <time>2015-10-18T10:20:49Z</time>
      </trkpt>
      <trkpt lat="45.10368" lon="5.47316">
        <ele>805.7</ele>
        <time>2015-10-18T10:20:50Z</time>
      </trkpt>
      <trkpt lat="45.10327" lon="5.47295">
        <ele>804.3</ele>
        <time>2015-10-18T10:20:54Z</time>
      </trkpt>
      <trkpt lat="45.10307" lon="5.47278">
        <ele>803.3</ele>
        <time>2015-10-18T10:20:56Z</time>
      </trkpt>
      <trkpt lat="45.10288" lon="5.47258">
        <ele>802.4</ele>
        <time>2015-10-18T10:20:58Z</time>
      </trkpt>
      <trkpt lat="45.10214" lon="5.47205">
        <ele>800</ele>
        <time>2015-10-18T10:21:05Z</time>
      </trkpt>
      <trkpt lat="45.10203" lon="5.47207">
        <ele>799.5</ele>
        <time>2015-10-18T10:21:06Z</time>
      </trkpt>
      <trkpt lat="45.10191" lon="5.47213">
        <ele>799</ele>
        <time>2015-10-18T10:21:07Z</time>
      </trkpt>
      <trkpt lat="45.10169" lon="5.47235">
        <ele>798</ele>
        <time>2015-10-18T10:21:09Z</time>
      </trkpt>
      <trkpt lat="45.10159" lon="5.47248">
        <ele>797.6</ele>
        <time>2015-10-18T10:21:10Z</time>
      </trkpt>
      <trkpt lat="45.10152" lon="5.47262">
        <ele>797.1</ele>
        <time>2015-10-18T10:21:11Z</time>
      </trkpt>
      <trkpt lat="45.10148" lon="5.47279">
        <ele>796.6</ele>
        <time>2015-10-18T10:21:12Z</time>
      </trkpt>
      <trkpt lat="45.10144" lon="5.47343">
        <ele>794.2</ele>
        <time>2015-10-18T10:21:15Z</time>
      </trkpt>
      <trkpt lat="45.10151" lon="5.47424">
        <ele>791.3</ele>
        <time>2015-10-18T10:21:19Z</time>
      </trkpt>
      <trkpt lat="45.10151" lon="5.47444">
        <ele>790.8</ele>
        <time>2015-10-18T10:21:20Z</time>
      </trkpt>
      <trkpt lat="45.10147" lon="5.47465">
        <ele>790.3</ele>
        <time>2015-10-18T10:21:21Z</time>
      </trkpt>
      <trkpt lat="45.10138" lon="5.47482">
        <ele>789.9</ele>
        <time>2015-10-18T10:21:22Z</time>
      </trkpt>
      <trkpt lat="45.10126" lon="5.47492">
        <ele>788.9</ele>
        <time>2015-10-18T10:21:23Z</time>
      </trkpt>
      <trkpt lat="45.10113" lon="5.475">
        <ele>788.9</ele>
        <time>2015-10-18T10:21:24Z</time>
      </trkpt>
      <trkpt lat="45.10098" lon="5.47505">
        <ele>788.9</ele>
        <time>2015-10-18T10:21:25Z</time>
      </trkpt>
      <trkpt lat="45.10085" lon="5.47513">
        <ele>788.4</ele>
        <time>2015-10-18T10:21:26Z</time>
      </trkpt>
      <trkpt lat="45.10064" lon="5.47532">
        <ele>787.5</ele>
        <time>2015-10-18T10:21:28Z</time>
      </trkpt>
      <trkpt lat="45.10052" lon="5.47536">
        <ele>787</ele>
        <time>2015-10-18T10:21:29Z</time>
      </trkpt>
      <trkpt lat="45.1004" lon="5.47535">
        <ele>786.5</ele>
        <time>2015-10-18T10:21:30Z</time>
      </trkpt>
      <trkpt lat="45.09995" lon="5.47495">
        <ele>784.6</ele>
        <time>2015-10-18T10:21:34Z</time>
      </trkpt>
      <trkpt lat="45.09982" lon="5.47488">
        <ele>783.6</ele>
        <time>2015-10-18T10:21:35Z</time>
      </trkpt>
      <trkpt lat="45.09968" lon="5.47485">
        <ele>782.7</ele>
        <time>2015-10-18T10:21:36Z</time>
      </trkpt>
      <trkpt lat="45.09954" lon="5.47488">
        <ele>782.2</ele>
        <time>2015-10-18T10:21:37Z</time>
      </trkpt>
      <trkpt lat="45.09943" lon="5.47495">
        <ele>781.2</ele>
        <time>2015-10-18T10:21:38Z</time>
      </trkpt>
      <trkpt lat="45.09933" lon="5.47509">
        <ele>780.3</ele>
        <time>2015-10-18T10:21:39Z</time>
      </trkpt>
      <trkpt lat="45.09922" lon="5.47519">
        <ele>780.3</ele>
        <time>2015-10-18T10:21:40Z</time>
      </trkpt>
      <trkpt lat="45.09911" lon="5.47526">
        <ele>780.7</ele>
        <time>2015-10-18T10:21:41Z</time>
      </trkpt>
      <trkpt lat="45.09901" lon="5.47528">
        <ele>781.2</ele>
        <time>2015-10-18T10:21:42Z</time>
      </trkpt>
      <trkpt lat="45.09892" lon="5.47522">
        <ele>780.7</ele>
        <time>2015-10-18T10:21:43Z</time>
      </trkpt>
      <trkpt lat="45.09872" lon="5.47481">
        <ele>781.2</ele>
        <time>2015-10-18T10:21:46Z</time>
      </trkpt>
      <trkpt lat="45.09869" lon="5.47462">
        <ele>780.3</ele>
        <time>2015-10-18T10:21:47Z</time>
      </trkpt>
      <trkpt lat="45.09862" lon="5.47446">
        <ele>779.8</ele>
        <time>2015-10-18T10:21:48Z</time>
      </trkpt>
      <trkpt lat="45.0985" lon="5.47433">
        <ele>779.3</ele>
        <time>2015-10-18T10:21:49Z</time>
      </trkpt>
      <trkpt lat="45.09788" lon="5.47388">
        <ele>775.9</ele>
        <time>2015-10-18T10:21:54Z</time>
      </trkpt>
      <trkpt lat="45.09775" lon="5.47383">
        <ele>775.4</ele>
        <time>2015-10-18T10:21:55Z</time>
      </trkpt>
      <trkpt lat="45.09751" lon="5.4737">
        <ele>774</ele>
        <time>2015-10-18T10:21:57Z</time>
      </trkpt>
      <trkpt lat="45.0974" lon="5.47357">
        <ele>773.5</ele>
        <time>2015-10-18T10:21:58Z</time>
      </trkpt>
      <trkpt lat="45.09731" lon="5.47317">
        <ele>772.6</ele>
        <time>2015-10-18T10:22:00Z</time>
      </trkpt>
      <trkpt lat="45.09728" lon="5.47253">
        <ele>771.1</ele>
        <time>2015-10-18T10:22:03Z</time>
      </trkpt>
      <trkpt lat="45.09723" lon="5.47233">
        <ele>770.6</ele>
        <time>2015-10-18T10:22:04Z</time>
      </trkpt>
      <trkpt lat="45.09642" lon="5.47044">
        <ele>762.9</ele>
        <time>2015-10-18T10:22:14Z</time>
      </trkpt>
      <trkpt lat="45.09633" lon="5.47027">
        <ele>762.5</ele>
        <time>2015-10-18T10:22:15Z</time>
      </trkpt>
      <trkpt lat="45.0962" lon="5.47012">
        <ele>761.5</ele>
        <time>2015-10-18T10:22:16Z</time>
      </trkpt>
      <trkpt lat="45.09576" lon="5.4698">
        <ele>758.6</ele>
        <time>2015-10-18T10:22:19Z</time>
      </trkpt>
      <trkpt lat="45.09544" lon="5.46964">
        <ele>755.7</ele>
        <time>2015-10-18T10:22:21Z</time>
      </trkpt>
      <trkpt lat="45.09442" lon="5.4693">
        <ele>746.6</ele>
        <time>2015-10-18T10:22:27Z</time>
      </trkpt>
      <trkpt lat="45.09426" lon="5.46921">
        <ele>744.7</ele>
        <time>2015-10-18T10:22:28Z</time>
      </trkpt>
      <trkpt lat="45.09368" lon="5.46876">
        <ele>739.4</ele>
        <time>2015-10-18T10:22:32Z</time>
      </trkpt>
      <trkpt lat="45.09353" lon="5.46868">
        <ele>737.5</ele>
        <time>2015-10-18T10:22:33Z</time>
      </trkpt>
      <trkpt lat="45.09339" lon="5.46865">
        <ele>736</ele>
        <time>2015-10-18T10:22:34Z</time>
      </trkpt>
      <trkpt lat="45.09326" lon="5.46869">
        <ele>735.1</ele>
        <time>2015-10-18T10:22:35Z</time>
      </trkpt>
      <trkpt lat="45.09316" lon="5.46877">
        <ele>733.6</ele>
        <time>2015-10-18T10:22:36Z</time>
      </trkpt>
      <trkpt lat="45.09317" lon="5.46915">
        <ele>729.3</ele>
        <time>2015-10-18T10:22:39Z</time>
      </trkpt>
      <trkpt lat="45.09322" lon="5.46925">
        <ele>727.9</ele>
        <time>2015-10-18T10:22:40Z</time>
      </trkpt>
      <trkpt lat="45.09333" lon="5.46936">
        <ele>726.9</ele>
        <time>2015-10-18T10:22:41Z</time>
      </trkpt>
      <trkpt lat="45.09349" lon="5.46958">
        <ele>725</ele>
        <time>2015-10-18T10:22:42Z</time>
      </trkpt>
      <trkpt lat="45.09392" lon="5.47073">
        <ele>719.2</ele>
        <time>2015-10-18T10:22:48Z</time>
      </trkpt>
      <trkpt lat="45.09397" lon="5.47091">
        <ele>718.7</ele>
        <time>2015-10-18T10:22:49Z</time>
      </trkpt>
      <trkpt lat="45.09401" lon="5.47129">
        <ele>716.8</ele>
        <time>2015-10-18T10:22:51Z</time>
      </trkpt>
      <trkpt lat="45.094" lon="5.47147">
        <ele>715.8</ele>
        <time>2015-10-18T10:22:52Z</time>
      </trkpt>
      <trkpt lat="45.09395" lon="5.47164">
        <ele>714.9</ele>
        <time>2015-10-18T10:22:53Z</time>
      </trkpt>
      <trkpt lat="45.09386" lon="5.47175">
        <ele>713.4</ele>
        <time>2015-10-18T10:22:54Z</time>
      </trkpt>
      <trkpt lat="45.09365" lon="5.4718">
        <ele>711.5</ele>
        <time>2015-10-18T10:22:56Z</time>
      </trkpt>
      <trkpt lat="45.09349" lon="5.47149">
        <ele>708.6</ele>
        <time>2015-10-18T10:22:58Z</time>
      </trkpt>
      <trkpt lat="45.09329" lon="5.47084">
        <ele>705.3</ele>
        <time>2015-10-18T10:23:01Z</time>
      </trkpt>
      <trkpt lat="45.0932" lon="5.47065">
        <ele>702.4</ele>
        <time>2015-10-18T10:23:02Z</time>
      </trkpt>
      <trkpt lat="45.09309" lon="5.47047">
        <ele>700.5</ele>
        <time>2015-10-18T10:23:03Z</time>
      </trkpt>
      <trkpt lat="45.09297" lon="5.47032">
        <ele>699.5</ele>
        <time>2015-10-18T10:23:04Z</time>
      </trkpt>
      <trkpt lat="45.09258" lon="5.46994">
        <ele>696.1</ele>
        <time>2015-10-18T10:23:07Z</time>
      </trkpt>
      <trkpt lat="45.09244" lon="5.46988">
        <ele>694.7</ele>
        <time>2015-10-18T10:23:08Z</time>
      </trkpt>
      <trkpt lat="45.09196" lon="5.46984">
        <ele>690.8</ele>
        <time>2015-10-18T10:23:11Z</time>
      </trkpt>
      <trkpt lat="45.09" lon="5.4691">
        <ele>671.1</ele>
        <time>2015-10-18T10:23:25Z</time>
      </trkpt>
      <trkpt lat="45.08994" lon="5.46917">
        <ele>670.7</ele>
        <time>2015-10-18T10:23:26Z</time>
      </trkpt>
      <trkpt lat="45.08991" lon="5.46927">
        <ele>670.2</ele>
        <time>2015-10-18T10:23:27Z</time>
      </trkpt>
      <trkpt lat="45.09" lon="5.47068">
        <ele>666.3</ele>
        <time>2015-10-18T10:23:36Z</time>
      </trkpt>
      <trkpt lat="45.08997" lon="5.47081">
        <ele>666.3</ele>
        <time>2015-10-18T10:23:37Z</time>
      </trkpt>
      <trkpt lat="45.08993" lon="5.47091">
        <ele>665.9</ele>
        <time>2015-10-18T10:23:38Z</time>
      </trkpt>
      <trkpt lat="45.08985" lon="5.47096">
        <ele>665.4</ele>
        <time>2015-10-18T10:23:39Z</time>
      </trkpt>
      <trkpt lat="45.08977" lon="5.47098">
        <ele>664.9</ele>
        <time>2015-10-18T10:23:40Z</time>
      </trkpt>
      <trkpt lat="45.08971" lon="5.47098">
        <ele>664.9</ele>
        <time>2015-10-18T10:23:41Z</time>
      </trkpt>
      <trkpt lat="45.08962" lon="5.47096">
        <ele>665.4</ele>
        <time>2015-10-18T10:23:43Z</time>
      </trkpt>
      <trkpt lat="45.08961" lon="5.47094">
        <ele>666.8</ele>
        <time>2015-10-18T10:23:52Z</time>
      </trkpt>
      <trkpt lat="45.08955" lon="5.47096">
        <ele>668.3</ele>
        <time>2015-10-18T10:24:10Z</time>
      </trkpt>
      <trkpt lat="45.0895" lon="5.47099">
        <ele>668.3</ele>
        <time>2015-10-18T10:24:11Z</time>
      </trkpt>
      <trkpt lat="45.08943" lon="5.47107">
        <ele>668.3</ele>
        <time>2015-10-18T10:24:12Z</time>
      </trkpt>
      <trkpt lat="45.08772" lon="5.47389">
        <ele>672.6</ele>
        <time>2015-10-18T10:24:29Z</time>
      </trkpt>
      <trkpt lat="45.08757" lon="5.47436">
        <ele>673.1</ele>
        <time>2015-10-18T10:24:31Z</time>
      </trkpt>
      <trkpt lat="45.08572" lon="5.4786">
        <ele>673.1</ele>
        <time>2015-10-18T10:24:50Z</time>
      </trkpt>
      <trkpt lat="45.08569" lon="5.47884">
        <ele>673.5</ele>
        <time>2015-10-18T10:24:51Z</time>
      </trkpt>
      <trkpt lat="45.08487" lon="5.48112">
        <ele>675.5</ele>
        <time>2015-10-18T10:25:02Z</time>
      </trkpt>
      <trkpt lat="45.08475" lon="5.48129">
        <ele>675.5</ele>
        <time>2015-10-18T10:25:03Z</time>
      </trkpt>
      <trkpt lat="45.08417" lon="5.48238">
        <ele>676.4</ele>
        <time>2015-10-18T10:25:09Z</time>
      </trkpt>
      <trkpt lat="45.08409" lon="5.48302">
        <ele>675.9</ele>
        <time>2015-10-18T10:25:12Z</time>
      </trkpt>
      <trkpt lat="45.08412" lon="5.48324">
        <ele>673.5</ele>
        <time>2015-10-18T10:25:13Z</time>
      </trkpt>
      <trkpt lat="45.08412" lon="5.48344">
        <ele>674</ele>
        <time>2015-10-18T10:25:14Z</time>
      </trkpt>
      <trkpt lat="45.0839" lon="5.48458">
        <ele>678.8</ele>
        <time>2015-10-18T10:25:20Z</time>
      </trkpt>
      <trkpt lat="45.08379" lon="5.48469">
        <ele>678.8</ele>
        <time>2015-10-18T10:25:21Z</time>
      </trkpt>
      <trkpt lat="45.08347" lon="5.48482">
        <ele>679.8</ele>
        <time>2015-10-18T10:25:23Z</time>
      </trkpt>
      <trkpt lat="45.08292" lon="5.48488">
        <ele>681.7</ele>
        <time>2015-10-18T10:25:26Z</time>
      </trkpt>
      <trkpt lat="45.08245" lon="5.48504">
        <ele>682.2</ele>
        <time>2015-10-18T10:25:29Z</time>
      </trkpt>
      <trkpt lat="45.0823" lon="5.48515">
        <ele>682.7</ele>
        <time>2015-10-18T10:25:30Z</time>
      </trkpt>
      <trkpt lat="45.08216" lon="5.4853">
        <ele>682.7</ele>
        <time>2015-10-18T10:25:31Z</time>
      </trkpt>
      <trkpt lat="45.08204" lon="5.48547">
        <ele>682.7</ele>
        <time>2015-10-18T10:25:32Z</time>
      </trkpt>
      <trkpt lat="45.08194" lon="5.48564">
        <ele>683.2</ele>
        <time>2015-10-18T10:25:33Z</time>
      </trkpt>
      <trkpt lat="45.0819" lon="5.48586">
        <ele>683.6</ele>
        <time>2015-10-18T10:25:34Z</time>
      </trkpt>
      <trkpt lat="45.08178" lon="5.48779">
        <ele>689.9</ele>
        <time>2015-10-18T10:25:42Z</time>
      </trkpt>
      <trkpt lat="45.08174" lon="5.488">
        <ele>689.9</ele>
        <time>2015-10-18T10:25:43Z</time>
      </trkpt>
      <trkpt lat="45.08166" lon="5.48819">
        <ele>689.4</ele>
        <time>2015-10-18T10:25:44Z</time>
      </trkpt>
      <trkpt lat="45.08156" lon="5.48837">
        <ele>689.4</ele>
        <time>2015-10-18T10:25:45Z</time>
      </trkpt>
      <trkpt lat="45.08142" lon="5.48849">
        <ele>689.9</ele>
        <time>2015-10-18T10:25:46Z</time>
      </trkpt>
      <trkpt lat="45.08094" lon="5.48882">
        <ele>690.8</ele>
        <time>2015-10-18T10:25:49Z</time>
      </trkpt>
      <trkpt lat="45.08076" lon="5.48889">
        <ele>694.2</ele>
        <time>2015-10-18T10:25:50Z</time>
      </trkpt>
      <trkpt lat="45.07869" lon="5.49003">
        <ele>701.9</ele>
        <time>2015-10-18T10:26:02Z</time>
      </trkpt>
      <trkpt lat="45.07834" lon="5.49005">
        <ele>707.7</ele>
        <time>2015-10-18T10:26:04Z</time>
      </trkpt>
      <trkpt lat="45.07798" lon="5.49002">
        <ele>711</ele>
        <time>2015-10-18T10:26:06Z</time>
      </trkpt>
      <trkpt lat="45.0776" lon="5.49003">
        <ele>717.8</ele>
        <time>2015-10-18T10:26:08Z</time>
      </trkpt>
      <trkpt lat="45.07721" lon="5.49009">
        <ele>723.5</ele>
        <time>2015-10-18T10:26:10Z</time>
      </trkpt>
      <trkpt lat="45.07637" lon="5.49045">
        <ele>730.7</ele>
        <time>2015-10-18T10:26:15Z</time>
      </trkpt>
      <trkpt lat="45.07463" lon="5.49168">
        <ele>742.8</ele>
        <time>2015-10-18T10:26:26Z</time>
      </trkpt>
      <trkpt lat="45.07452" lon="5.49182">
        <ele>743.7</ele>
        <time>2015-10-18T10:26:27Z</time>
      </trkpt>
      <trkpt lat="45.07398" lon="5.49236">
        <ele>744.2</ele>
        <time>2015-10-18T10:26:33Z</time>
      </trkpt>
      <trkpt lat="45.07395" lon="5.49226">
        <ele>742.8</ele>
        <time>2015-10-18T10:26:34Z</time>
      </trkpt>
      <trkpt lat="45.07376" lon="5.49206">
        <ele>742.3</ele>
        <time>2015-10-18T10:26:37Z</time>
      </trkpt>
      <trkpt lat="45.07371" lon="5.49197">
        <ele>742.8</ele>
        <time>2015-10-18T10:26:38Z</time>
      </trkpt>
      <trkpt lat="45.07368" lon="5.49186">
        <ele>743.7</ele>
        <time>2015-10-18T10:26:39Z</time>
      </trkpt>
      <trkpt lat="45.07366" lon="5.49176">
        <ele>745.2</ele>
        <time>2015-10-18T10:26:40Z</time>
      </trkpt>
      <trkpt lat="45.07366" lon="5.49166">
        <ele>745.2</ele>
        <time>2015-10-18T10:26:41Z</time>
      </trkpt>
      <trkpt lat="45.07367" lon="5.49158">
        <ele>744.7</ele>
        <time>2015-10-18T10:26:42Z</time>
      </trkpt>
      <trkpt lat="45.07373" lon="5.49149">
        <ele>747.1</ele>
        <time>2015-10-18T10:26:44Z</time>
      </trkpt>
      <trkpt lat="45.07375" lon="5.49144">
        <ele>747.6</ele>
        <time>2015-10-18T10:26:45Z</time>
      </trkpt>
      <trkpt lat="45.07417" lon="5.49061">
        <ele>741.8</ele>
        <time>2015-10-18T10:26:52Z</time>
      </trkpt>
      <trkpt lat="45.07435" lon="5.49041">
        <ele>739.9</ele>
        <time>2015-10-18T10:26:54Z</time>
      </trkpt>
      <trkpt lat="45.07442" lon="5.49029">
        <ele>741.3</ele>
        <time>2015-10-18T10:26:55Z</time>
      </trkpt>
      <trkpt lat="45.07504" lon="5.48976">
        <ele>741.3</ele>
        <time>2015-10-18T10:27:02Z</time>
      </trkpt>
      <trkpt lat="45.07523" lon="5.4897">
        <ele>740.8</ele>
        <time>2015-10-18T10:27:05Z</time>
      </trkpt>
      <trkpt lat="45.07526" lon="5.48969">
        <ele>740.8</ele>
        <time>2015-10-18T10:27:06Z</time>
      </trkpt>
      <trkpt lat="45.07532" lon="5.48977">
        <ele>736.5</ele>
        <time>2015-10-18T10:27:21Z</time>
      </trkpt>
      <trkpt lat="45.07533" lon="5.48969">
        <ele>758.6</ele>
        <time>2015-10-18T10:28:07Z</time>
      </trkpt>
      <trkpt lat="45.07536" lon="5.48965">
        <ele>757.7</ele>
        <time>2015-10-18T10:28:08Z</time>
      </trkpt>
      <trkpt lat="45.07551" lon="5.48945">
        <ele>755.3</ele>
        <time>2015-10-18T10:28:11Z</time>
      </trkpt>
      <trkpt lat="45.0772" lon="5.48785">
        <ele>748</ele>
        <time>2015-10-18T10:28:27Z</time>
      </trkpt>
      <trkpt lat="45.07773" lon="5.48761">
        <ele>744.2</ele>
        <time>2015-10-18T10:28:31Z</time>
      </trkpt>
      <trkpt lat="45.07786" lon="5.4875">
        <ele>743.7</ele>
        <time>2015-10-18T10:28:32Z</time>
      </trkpt>
      <trkpt lat="45.07797" lon="5.48736">
        <ele>743.2</ele>
        <time>2015-10-18T10:28:33Z</time>
      </trkpt>
      <trkpt lat="45.07914" lon="5.48618">
        <ele>740.4</ele>
        <time>2015-10-18T10:28:42Z</time>
      </trkpt>
      <trkpt lat="45.07927" lon="5.48612">
        <ele>740.4</ele>
        <time>2015-10-18T10:28:43Z</time>
      </trkpt>
      <trkpt lat="45.07939" lon="5.48611">
        <ele>740.8</ele>
        <time>2015-10-18T10:28:44Z</time>
      </trkpt>
      <trkpt lat="45.07951" lon="5.48611">
        <ele>741.8</ele>
        <time>2015-10-18T10:28:45Z</time>
      </trkpt>
      <trkpt lat="45.07979" lon="5.48589">
        <ele>742.8</ele>
        <time>2015-10-18T10:28:49Z</time>
      </trkpt>
      <trkpt lat="45.07982" lon="5.48575">
        <ele>744.2</ele>
        <time>2015-10-18T10:28:50Z</time>
      </trkpt>
      <trkpt lat="45.07979" lon="5.4853">
        <ele>744.7</ele>
        <time>2015-10-18T10:28:52Z</time>
      </trkpt>
      <trkpt lat="45.08008" lon="5.48341">
        <ele>762.5</ele>
        <time>2015-10-18T10:29:01Z</time>
      </trkpt>
      <trkpt lat="45.08004" lon="5.48324">
        <ele>763.9</ele>
        <time>2015-10-18T10:29:02Z</time>
      </trkpt>
      <trkpt lat="45.08003" lon="5.48308">
        <ele>767.3</ele>
        <time>2015-10-18T10:29:03Z</time>
      </trkpt>
      <trkpt lat="45.08009" lon="5.48276">
        <ele>769.7</ele>
        <time>2015-10-18T10:29:06Z</time>
      </trkpt>
      <trkpt lat="45.08017" lon="5.48269">
        <ele>769.2</ele>
        <time>2015-10-18T10:29:07Z</time>
      </trkpt>
      <trkpt lat="45.08044" lon="5.48264">
        <ele>767.8</ele>
        <time>2015-10-18T10:29:09Z</time>
      </trkpt>
      <trkpt lat="45.0806" lon="5.48263">
        <ele>767.8</ele>
        <time>2015-10-18T10:29:10Z</time>
      </trkpt>
      <trkpt lat="45.08078" lon="5.48263">
        <ele>766.8</ele>
        <time>2015-10-18T10:29:11Z</time>
      </trkpt>
      <trkpt lat="45.08205" lon="5.48242">
        <ele>763.9</ele>
        <time>2015-10-18T10:29:19Z</time>
      </trkpt>
      <trkpt lat="45.08239" lon="5.48218">
        <ele>763.4</ele>
        <time>2015-10-18T10:29:22Z</time>
      </trkpt>
      <trkpt lat="45.08251" lon="5.48208">
        <ele>763.4</ele>
        <time>2015-10-18T10:29:23Z</time>
      </trkpt>
      <trkpt lat="45.08283" lon="5.48148">
        <ele>765.8</ele>
        <time>2015-10-18T10:29:27Z</time>
      </trkpt>
      <trkpt lat="45.08289" lon="5.48133">
        <ele>765.8</ele>
        <time>2015-10-18T10:29:28Z</time>
      </trkpt>
      <trkpt lat="45.08292" lon="5.48119">
        <ele>766.8</ele>
        <time>2015-10-18T10:29:29Z</time>
      </trkpt>
      <trkpt lat="45.08292" lon="5.48106">
        <ele>769.2</ele>
        <time>2015-10-18T10:29:30Z</time>
      </trkpt>
      <trkpt lat="45.08288" lon="5.48078">
        <ele>772.1</ele>
        <time>2015-10-18T10:29:32Z</time>
      </trkpt>
      <trkpt lat="45.08293" lon="5.48042">
        <ele>775</ele>
        <time>2015-10-18T10:29:35Z</time>
      </trkpt>
      <trkpt lat="45.08298" lon="5.48028">
        <ele>774.5</ele>
        <time>2015-10-18T10:29:36Z</time>
      </trkpt>
      <trkpt lat="45.08384" lon="5.47878">
        <ele>777.4</ele>
        <time>2015-10-18T10:29:46Z</time>
      </trkpt>
      <trkpt lat="45.08384" lon="5.47862">
        <ele>776.4</ele>
        <time>2015-10-18T10:29:47Z</time>
      </trkpt>
      <trkpt lat="45.08376" lon="5.47826">
        <ele>775</ele>
        <time>2015-10-18T10:29:49Z</time>
      </trkpt>
      <trkpt lat="45.08369" lon="5.47809">
        <ele>775</ele>
        <time>2015-10-18T10:29:50Z</time>
      </trkpt>
      <trkpt lat="45.08343" lon="5.4776">
        <ele>775.9</ele>
        <time>2015-10-18T10:29:53Z</time>
      </trkpt>
      <trkpt lat="45.08294" lon="5.4764">
        <ele>784.6</ele>
        <time>2015-10-18T10:30:00Z</time>
      </trkpt>
      <trkpt lat="45.08295" lon="5.47619">
        <ele>786</ele>
        <time>2015-10-18T10:30:01Z</time>
      </trkpt>
      <trkpt lat="45.08279" lon="5.47515">
        <ele>790.3</ele>
        <time>2015-10-18T10:30:06Z</time>
      </trkpt>
      <trkpt lat="45.08278" lon="5.47496">
        <ele>790.8</ele>
        <time>2015-10-18T10:30:07Z</time>
      </trkpt>
      <trkpt lat="45.08294" lon="5.47418">
        <ele>796.1</ele>
        <time>2015-10-18T10:30:11Z</time>
      </trkpt>
      <trkpt lat="45.08296" lon="5.47379">
        <ele>797.1</ele>
        <time>2015-10-18T10:30:13Z</time>
      </trkpt>
      <trkpt lat="45.08294" lon="5.47359">
        <ele>797.6</ele>
        <time>2015-10-18T10:30:14Z</time>
      </trkpt>
      <trkpt lat="45.0829" lon="5.47338">
        <ele>798</ele>
        <time>2015-10-18T10:30:15Z</time>
      </trkpt>
      <trkpt lat="45.08281" lon="5.47322">
        <ele>798</ele>
        <time>2015-10-18T10:30:16Z</time>
      </trkpt>
      <trkpt lat="45.08267" lon="5.47286">
        <ele>799.5</ele>
        <time>2015-10-18T10:30:18Z</time>
      </trkpt>
      <trkpt lat="45.08257" lon="5.47227">
        <ele>802.4</ele>
        <time>2015-10-18T10:30:21Z</time>
      </trkpt>
      <trkpt lat="45.08256" lon="5.47164">
        <ele>805.2</ele>
        <time>2015-10-18T10:30:24Z</time>
      </trkpt>
      <trkpt lat="45.08253" lon="5.47142">
        <ele>806.7</ele>
        <time>2015-10-18T10:30:25Z</time>
      </trkpt>
      <trkpt lat="45.08231" lon="5.4708">
        <ele>810.1</ele>
        <time>2015-10-18T10:30:28Z</time>
      </trkpt>
      <trkpt lat="45.08209" lon="5.47043">
        <ele>812.5</ele>
        <time>2015-10-18T10:30:30Z</time>
      </trkpt>
      <trkpt lat="45.08193" lon="5.47029">
        <ele>813.4</ele>
        <time>2015-10-18T10:30:31Z</time>
      </trkpt>
      <trkpt lat="45.08112" lon="5.46976">
        <ele>818.7</ele>
        <time>2015-10-18T10:30:36Z</time>
      </trkpt>
      <trkpt lat="45.08035" lon="5.46852">
        <ele>827.8</ele>
        <time>2015-10-18T10:30:44Z</time>
      </trkpt>
      <trkpt lat="45.08035" lon="5.46834">
        <ele>829.3</ele>
        <time>2015-10-18T10:30:45Z</time>
      </trkpt>
      <trkpt lat="45.08041" lon="5.46812">
        <ele>830.2</ele>
        <time>2015-10-18T10:30:46Z</time>
      </trkpt>
      <trkpt lat="45.0803" lon="5.46743">
        <ele>831.7</ele>
        <time>2015-10-18T10:30:50Z</time>
      </trkpt>
      <trkpt lat="45.07993" lon="5.46723">
        <ele>832.6</ele>
        <time>2015-10-18T10:30:53Z</time>
      </trkpt>
      <trkpt lat="45.07983" lon="5.46715">
        <ele>833.6</ele>
        <time>2015-10-18T10:30:54Z</time>
      </trkpt>
      <trkpt lat="45.07973" lon="5.46702">
        <ele>833.6</ele>
        <time>2015-10-18T10:30:55Z</time>
      </trkpt>
      <trkpt lat="45.07965" lon="5.46686">
        <ele>833.6</ele>
        <time>2015-10-18T10:30:56Z</time>
      </trkpt>
      <trkpt lat="45.07956" lon="5.46651">
        <ele>836</ele>
        <time>2015-10-18T10:30:58Z</time>
      </trkpt>
      <trkpt lat="45.07954" lon="5.46632">
        <ele>836.5</ele>
        <time>2015-10-18T10:30:59Z</time>
      </trkpt>
      <trkpt lat="45.0796" lon="5.46596">
        <ele>838.4</ele>
        <time>2015-10-18T10:31:01Z</time>
      </trkpt>
      <trkpt lat="45.07967" lon="5.46581">
        <ele>839.4</ele>
        <time>2015-10-18T10:31:02Z</time>
      </trkpt>
      <trkpt lat="45.0798" lon="5.46569">
        <ele>840.3</ele>
        <time>2015-10-18T10:31:03Z</time>
      </trkpt>
      <trkpt lat="45.07988" lon="5.46554">
        <ele>840.8</ele>
        <time>2015-10-18T10:31:04Z</time>
      </trkpt>
      <trkpt lat="45.08001" lon="5.46522">
        <ele>841.8</ele>
        <time>2015-10-18T10:31:06Z</time>
      </trkpt>
      <trkpt lat="45.08003" lon="5.46504">
        <ele>843.2</ele>
        <time>2015-10-18T10:31:07Z</time>
      </trkpt>
      <trkpt lat="45.08001" lon="5.46463">
        <ele>844.2</ele>
        <time>2015-10-18T10:31:09Z</time>
      </trkpt>
      <trkpt lat="45.07993" lon="5.46426">
        <ele>844.7</ele>
        <time>2015-10-18T10:31:11Z</time>
      </trkpt>
      <trkpt lat="45.07967" lon="5.46371">
        <ele>849.9</ele>
        <time>2015-10-18T10:31:14Z</time>
      </trkpt>
      <trkpt lat="45.07897" lon="5.46159">
        <ele>862.9</ele>
        <time>2015-10-18T10:31:26Z</time>
      </trkpt>
      <trkpt lat="45.07891" lon="5.46146">
        <ele>863.9</ele>
        <time>2015-10-18T10:31:27Z</time>
      </trkpt>
      <trkpt lat="45.07882" lon="5.46135">
        <ele>864.8</ele>
        <time>2015-10-18T10:31:28Z</time>
      </trkpt>
      <trkpt lat="45.07751" lon="5.46002">
        <ele>874.9</ele>
        <time>2015-10-18T10:31:42Z</time>
      </trkpt>
      <trkpt lat="45.07622" lon="5.45918">
        <ele>884.1</ele>
        <time>2015-10-18T10:31:52Z</time>
      </trkpt>
      <trkpt lat="45.07477" lon="5.45858">
        <ele>891.3</ele>
        <time>2015-10-18T10:32:01Z</time>
      </trkpt>
      <trkpt lat="45.07158" lon="5.45844">
        <ele>905.2</ele>
        <time>2015-10-18T10:32:17Z</time>
      </trkpt>
      <trkpt lat="45.06919" lon="5.45898">
        <ele>914.8</ele>
        <time>2015-10-18T10:32:29Z</time>
      </trkpt>
      <trkpt lat="45.06897" lon="5.45896">
        <ele>915.3</ele>
        <time>2015-10-18T10:32:30Z</time>
      </trkpt>
      <trkpt lat="45.06876" lon="5.4589">
        <ele>915.8</ele>
        <time>2015-10-18T10:32:31Z</time>
      </trkpt>
      <trkpt lat="45.06737" lon="5.45822">
        <ele>918.7</ele>
        <time>2015-10-18T10:32:37Z</time>
      </trkpt>
      <trkpt lat="45.06453" lon="5.45556">
        <ele>926.4</ele>
        <time>2015-10-18T10:32:51Z</time>
      </trkpt>
      <trkpt lat="45.0643" lon="5.45547">
        <ele>926.4</ele>
        <time>2015-10-18T10:32:52Z</time>
      </trkpt>
      <trkpt lat="45.06406" lon="5.45542">
        <ele>926.9</ele>
        <time>2015-10-18T10:32:53Z</time>
      </trkpt>
      <trkpt lat="45.06311" lon="5.4551">
        <ele>928.3</ele>
        <time>2015-10-18T10:32:57Z</time>
      </trkpt>
      <trkpt lat="45.06241" lon="5.45474">
        <ele>929.7</ele>
        <time>2015-10-18T10:33:00Z</time>
      </trkpt>
      <trkpt lat="45.06169" lon="5.45446">
        <ele>930.2</ele>
        <time>2015-10-18T10:33:03Z</time>
      </trkpt>
      <trkpt lat="45.06086" lon="5.45382">
        <ele>931.2</ele>
        <time>2015-10-18T10:33:07Z</time>
      </trkpt>
      <trkpt lat="45.06066" lon="5.45373">
        <ele>931.7</ele>
        <time>2015-10-18T10:33:08Z</time>
      </trkpt>
      <trkpt lat="45.05976" lon="5.45365">
        <ele>932.1</ele>
        <time>2015-10-18T10:33:12Z</time>
      </trkpt>
      <trkpt lat="45.05953" lon="5.45357">
        <ele>932.1</ele>
        <time>2015-10-18T10:33:13Z</time>
      </trkpt>
      <trkpt lat="45.05932" lon="5.45343">
        <ele>932.1</ele>
        <time>2015-10-18T10:33:14Z</time>
      </trkpt>
      <trkpt lat="45.05866" lon="5.45289">
        <ele>933.1</ele>
        <time>2015-10-18T10:33:18Z</time>
      </trkpt>
      <trkpt lat="45.0585" lon="5.45282">
        <ele>933.1</ele>
        <time>2015-10-18T10:33:19Z</time>
      </trkpt>
      <trkpt lat="45.05834" lon="5.45278">
        <ele>933.1</ele>
        <time>2015-10-18T10:33:20Z</time>
      </trkpt>
      <trkpt lat="45.05506" lon="5.45259">
        <ele>928.3</ele>
        <time>2015-10-18T10:33:41Z</time>
      </trkpt>
      <trkpt lat="45.0549" lon="5.45253">
        <ele>928.3</ele>
        <time>2015-10-18T10:33:42Z</time>
      </trkpt>
      <trkpt lat="45.05475" lon="5.45245">
        <ele>927.8</ele>
        <time>2015-10-18T10:33:43Z</time>
      </trkpt>
      <trkpt lat="45.0546" lon="5.45234">
        <ele>927.8</ele>
        <time>2015-10-18T10:33:44Z</time>
      </trkpt>
      <trkpt lat="45.05448" lon="5.4522">
        <ele>927.8</ele>
        <time>2015-10-18T10:33:45Z</time>
      </trkpt>
      <trkpt lat="45.05365" lon="5.45108">
        <ele>925.9</ele>
        <time>2015-10-18T10:33:53Z</time>
      </trkpt>
      <trkpt lat="45.05353" lon="5.45098">
        <ele>925.9</ele>
        <time>2015-10-18T10:33:54Z</time>
      </trkpt>
      <trkpt lat="45.05341" lon="5.45089">
        <ele>925.4</ele>
        <time>2015-10-18T10:33:55Z</time>
      </trkpt>
      <trkpt lat="45.05196" lon="5.45006">
        <ele>923</ele>
        <time>2015-10-18T10:34:14Z</time>
      </trkpt>
      <trkpt lat="45.05194" lon="5.45005">
        <ele>921.6</ele>
        <time>2015-10-18T10:34:28Z</time>
      </trkpt>
      <trkpt lat="45.05169" lon="5.44995">
        <ele>921.1</ele>
        <time>2015-10-18T10:34:34Z</time>
      </trkpt>
      <trkpt lat="45.04943" lon="5.44863">
        <ele>918.7</ele>
        <time>2015-10-18T10:35:05Z</time>
      </trkpt>
      <trkpt lat="45.04866" lon="5.4478">
        <ele>914.4</ele>
        <time>2015-10-18T10:35:15Z</time>
      </trkpt>
      <trkpt lat="45.04802" lon="5.44754">
        <ele>912.4</ele>
        <time>2015-10-18T10:35:21Z</time>
      </trkpt>
      <trkpt lat="45.0479" lon="5.44753">
        <ele>912</ele>
        <time>2015-10-18T10:35:22Z</time>
      </trkpt>
      <trkpt lat="45.04777" lon="5.44755">
        <ele>911.5</ele>
        <time>2015-10-18T10:35:23Z</time>
      </trkpt>
      <trkpt lat="45.04738" lon="5.44767">
        <ele>910</ele>
        <time>2015-10-18T10:35:25Z</time>
      </trkpt>
      <trkpt lat="45.04613" lon="5.44784">
        <ele>905.2</ele>
        <time>2015-10-18T10:35:30Z</time>
      </trkpt>
      <trkpt lat="45.04468" lon="5.44787">
        <ele>896.6</ele>
        <time>2015-10-18T10:35:37Z</time>
      </trkpt>
      <trkpt lat="45.0429" lon="5.44737">
        <ele>882.6</ele>
        <time>2015-10-18T10:35:46Z</time>
      </trkpt>
      <trkpt lat="45.03907" lon="5.44482">
        <ele>852.4</ele>
        <time>2015-10-18T10:36:05Z</time>
      </trkpt>
      <trkpt lat="45.03886" lon="5.44472">
        <ele>850.9</ele>
        <time>2015-10-18T10:36:06Z</time>
      </trkpt>
      <trkpt lat="45.03267" lon="5.44388">
        <ele>811.5</ele>
        <time>2015-10-18T10:36:34Z</time>
      </trkpt>
      <trkpt lat="45.03199" lon="5.44398">
        <ele>806.7</ele>
        <time>2015-10-18T10:36:37Z</time>
      </trkpt>
      <trkpt lat="45.03091" lon="5.44394">
        <ele>798.5</ele>
        <time>2015-10-18T10:36:42Z</time>
      </trkpt>
      <trkpt lat="45.03006" lon="5.44409">
        <ele>791.8</ele>
        <time>2015-10-18T10:36:46Z</time>
      </trkpt>
      <trkpt lat="45.02858" lon="5.44371">
        <ele>781.7</ele>
        <time>2015-10-18T10:36:53Z</time>
      </trkpt>
      <trkpt lat="45.02825" lon="5.44358">
        <ele>778.8</ele>
        <time>2015-10-18T10:36:55Z</time>
      </trkpt>
      <trkpt lat="45.02809" lon="5.44357">
        <ele>777.4</ele>
        <time>2015-10-18T10:36:56Z</time>
      </trkpt>
      <trkpt lat="45.02792" lon="5.44359">
        <ele>776.4</ele>
        <time>2015-10-18T10:36:57Z</time>
      </trkpt>
      <trkpt lat="45.02759" lon="5.44368">
        <ele>774.5</ele>
        <time>2015-10-18T10:36:59Z</time>
      </trkpt>
      <trkpt lat="45.02744" lon="5.44376">
        <ele>773.5</ele>
        <time>2015-10-18T10:37:00Z</time>
      </trkpt>
      <trkpt lat="45.02729" lon="5.44387">
        <ele>773</ele>
        <time>2015-10-18T10:37:01Z</time>
      </trkpt>
      <trkpt lat="45.02714" lon="5.44395">
        <ele>772.6</ele>
        <time>2015-10-18T10:37:02Z</time>
      </trkpt>
      <trkpt lat="45.02699" lon="5.44399">
        <ele>771.1</ele>
        <time>2015-10-18T10:37:03Z</time>
      </trkpt>
      <trkpt lat="45.02515" lon="5.44393">
        <ele>759.1</ele>
        <time>2015-10-18T10:37:15Z</time>
      </trkpt>
      <trkpt lat="45.02168" lon="5.44291">
        <ele>760.1</ele>
        <time>2015-10-18T10:37:44Z</time>
      </trkpt>
      <trkpt lat="45.02121" lon="5.44263">
        <ele>760.1</ele>
        <time>2015-10-18T10:37:52Z</time>
      </trkpt>
      <trkpt lat="45.0208" lon="5.44244">
        <ele>758.1</ele>
        <time>2015-10-18T10:37:56Z</time>
      </trkpt>
      <trkpt lat="45.02057" lon="5.44242">
        <ele>757.2</ele>
        <time>2015-10-18T10:37:58Z</time>
      </trkpt>
      <trkpt lat="45.02022" lon="5.44246">
        <ele>755.7</ele>
        <time>2015-10-18T10:38:01Z</time>
      </trkpt>
      <trkpt lat="45.01945" lon="5.44282">
        <ele>751.9</ele>
        <time>2015-10-18T10:38:09Z</time>
      </trkpt>
      <trkpt lat="45.01937" lon="5.44284">
        <ele>751.9</ele>
        <time>2015-10-18T10:38:10Z</time>
      </trkpt>
      <trkpt lat="45.01724" lon="5.44278">
        <ele>744.7</ele>
        <time>2015-10-18T10:38:26Z</time>
      </trkpt>
      <trkpt lat="45.01603" lon="5.44242">
        <ele>738.9</ele>
        <time>2015-10-18T10:38:33Z</time>
      </trkpt>
      <trkpt lat="45.01467" lon="5.44241">
        <ele>733.6</ele>
        <time>2015-10-18T10:38:40Z</time>
      </trkpt>
      <trkpt lat="45.01248" lon="5.44285">
        <ele>727.9</ele>
        <time>2015-10-18T10:38:51Z</time>
      </trkpt>
      <trkpt lat="45.00964" lon="5.44271">
        <ele>720.2</ele>
        <time>2015-10-18T10:39:04Z</time>
      </trkpt>
      <trkpt lat="45.00946" lon="5.44261">
        <ele>719.7</ele>
        <time>2015-10-18T10:39:05Z</time>
      </trkpt>
      <trkpt lat="45.0093" lon="5.44248">
        <ele>719.2</ele>
        <time>2015-10-18T10:39:06Z</time>
      </trkpt>
      <trkpt lat="45.00903" lon="5.4422">
        <ele>718.2</ele>
        <time>2015-10-18T10:39:08Z</time>
      </trkpt>
      <trkpt lat="45.00892" lon="5.44211">
        <ele>717.3</ele>
        <time>2015-10-18T10:39:09Z</time>
      </trkpt>
      <trkpt lat="45.00879" lon="5.4421">
        <ele>716.8</ele>
        <time>2015-10-18T10:39:10Z</time>
      </trkpt>
      <trkpt lat="45.0085" lon="5.44221">
        <ele>716.3</ele>
        <time>2015-10-18T10:39:12Z</time>
      </trkpt>
      <trkpt lat="45.00811" lon="5.44251">
        <ele>713.9</ele>
        <time>2015-10-18T10:39:15Z</time>
      </trkpt>
      <trkpt lat="45.00797" lon="5.44258">
        <ele>713</ele>
        <time>2015-10-18T10:39:16Z</time>
      </trkpt>
      <trkpt lat="45.00782" lon="5.44261">
        <ele>713</ele>
        <time>2015-10-18T10:39:17Z</time>
      </trkpt>
      <trkpt lat="45.00768" lon="5.4426">
        <ele>713</ele>
        <time>2015-10-18T10:39:18Z</time>
      </trkpt>
      <trkpt lat="45.00757" lon="5.44248">
        <ele>712.5</ele>
        <time>2015-10-18T10:39:19Z</time>
      </trkpt>
      <trkpt lat="45.00746" lon="5.44231">
        <ele>711</ele>
        <time>2015-10-18T10:39:20Z</time>
      </trkpt>
      <trkpt lat="45.00739" lon="5.44214">
        <ele>710.1</ele>
        <time>2015-10-18T10:39:21Z</time>
      </trkpt>
      <trkpt lat="45.00737" lon="5.44124">
        <ele>705.3</ele>
        <time>2015-10-18T10:39:25Z</time>
      </trkpt>
      <trkpt lat="45.00733" lon="5.44104">
        <ele>705.8</ele>
        <time>2015-10-18T10:39:26Z</time>
      </trkpt>
      <trkpt lat="45.00709" lon="5.44065">
        <ele>702.4</ele>
        <time>2015-10-18T10:39:29Z</time>
      </trkpt>
      <trkpt lat="45.00697" lon="5.4406">
        <ele>702.4</ele>
        <time>2015-10-18T10:39:30Z</time>
      </trkpt>
      <trkpt lat="45.00683" lon="5.44057">
        <ele>701.4</ele>
        <time>2015-10-18T10:39:31Z</time>
      </trkpt>
      <trkpt lat="45.00665" lon="5.44062">
        <ele>699.5</ele>
        <time>2015-10-18T10:39:32Z</time>
      </trkpt>
      <trkpt lat="45.00586" lon="5.44102">
        <ele>703.3</ele>
        <time>2015-10-18T10:39:36Z</time>
      </trkpt>
      <trkpt lat="45.00479" lon="5.44121">
        <ele>707.2</ele>
        <time>2015-10-18T10:39:43Z</time>
      </trkpt>
      <trkpt lat="45.00467" lon="5.44129">
        <ele>706.7</ele>
        <time>2015-10-18T10:39:44Z</time>
      </trkpt>
      <trkpt lat="45.00443" lon="5.44142">
        <ele>705.3</ele>
        <time>2015-10-18T10:39:46Z</time>
      </trkpt>
      <trkpt lat="45.00431" lon="5.44144">
        <ele>705.3</ele>
        <time>2015-10-18T10:39:47Z</time>
      </trkpt>
      <trkpt lat="45.00418" lon="5.44144">
        <ele>705.3</ele>
        <time>2015-10-18T10:39:48Z</time>
      </trkpt>
      <trkpt lat="45.00392" lon="5.44139">
        <ele>703.8</ele>
        <time>2015-10-18T10:39:50Z</time>
      </trkpt>
      <trkpt lat="45.00369" lon="5.4413">
        <ele>702.4</ele>
        <time>2015-10-18T10:39:52Z</time>
      </trkpt>
      <trkpt lat="45.00358" lon="5.44122">
        <ele>701.9</ele>
        <time>2015-10-18T10:39:53Z</time>
      </trkpt>
      <trkpt lat="45.00336" lon="5.441">
        <ele>701.4</ele>
        <time>2015-10-18T10:39:55Z</time>
      </trkpt>
      <trkpt lat="45.00301" lon="5.44042">
        <ele>699</ele>
        <time>2015-10-18T10:39:59Z</time>
      </trkpt>
      <trkpt lat="45.00297" lon="5.44025">
        <ele>698.1</ele>
        <time>2015-10-18T10:40:00Z</time>
      </trkpt>
      <trkpt lat="45.00297" lon="5.44007">
        <ele>697.1</ele>
        <time>2015-10-18T10:40:01Z</time>
      </trkpt>
      <trkpt lat="45.0033" lon="5.43733">
        <ele>695.2</ele>
        <time>2015-10-18T10:40:14Z</time>
      </trkpt>
      <trkpt lat="45.00328" lon="5.43715">
        <ele>695.7</ele>
        <time>2015-10-18T10:40:15Z</time>
      </trkpt>
      <trkpt lat="45.00323" lon="5.43699">
        <ele>695.2</ele>
        <time>2015-10-18T10:40:16Z</time>
      </trkpt>
      <trkpt lat="45.00315" lon="5.43685">
        <ele>694.7</ele>
        <time>2015-10-18T10:40:17Z</time>
      </trkpt>
      <trkpt lat="45.00301" lon="5.43674">
        <ele>694.2</ele>
        <time>2015-10-18T10:40:18Z</time>
      </trkpt>
      <trkpt lat="45.00285" lon="5.43667">
        <ele>693.7</ele>
        <time>2015-10-18T10:40:19Z</time>
      </trkpt>
      <trkpt lat="45.00238" lon="5.43651">
        <ele>693.7</ele>
        <time>2015-10-18T10:40:22Z</time>
      </trkpt>
      <trkpt lat="45.00168" lon="5.4361">
        <ele>693.7</ele>
        <time>2015-10-18T10:40:27Z</time>
      </trkpt>
      <trkpt lat="45.00157" lon="5.43596">
        <ele>693.7</ele>
        <time>2015-10-18T10:40:28Z</time>
      </trkpt>
      <trkpt lat="45.00148" lon="5.43579">
        <ele>692.8</ele>
        <time>2015-10-18T10:40:29Z</time>
      </trkpt>
      <trkpt lat="45.00146" lon="5.43558">
        <ele>692.8</ele>
        <time>2015-10-18T10:40:30Z</time>
      </trkpt>
      <trkpt lat="45.00148" lon="5.43536">
        <ele>693.3</ele>
        <time>2015-10-18T10:40:31Z</time>
      </trkpt>
      <trkpt lat="45.00153" lon="5.43513">
        <ele>693.7</ele>
        <time>2015-10-18T10:40:32Z</time>
      </trkpt>
      <trkpt lat="45.00161" lon="5.43399">
        <ele>695.2</ele>
        <time>2015-10-18T10:40:37Z</time>
      </trkpt>
      <trkpt lat="45.00141" lon="5.43256">
        <ele>697.1</ele>
        <time>2015-10-18T10:40:43Z</time>
      </trkpt>
      <trkpt lat="45.00015" lon="5.42779">
        <ele>709.6</ele>
        <time>2015-10-18T10:41:04Z</time>
      </trkpt>
      <trkpt lat="44.99984" lon="5.42747">
        <ele>709.1</ele>
        <time>2015-10-18T10:41:07Z</time>
      </trkpt>
      <trkpt lat="44.99976" lon="5.42737">
        <ele>708.6</ele>
        <time>2015-10-18T10:41:08Z</time>
      </trkpt>
      <trkpt lat="44.99973" lon="5.42725">
        <ele>707.2</ele>
        <time>2015-10-18T10:41:09Z</time>
      </trkpt>
      <trkpt lat="44.99974" lon="5.42712">
        <ele>705.8</ele>
        <time>2015-10-18T10:41:10Z</time>
      </trkpt>
      <trkpt lat="44.99985" lon="5.42698">
        <ele>708.2</ele>
        <time>2015-10-18T10:41:11Z</time>
      </trkpt>
      <trkpt lat="45.00043" lon="5.42686">
        <ele>711.5</ele>
        <time>2015-10-18T10:41:15Z</time>
      </trkpt>
      <trkpt lat="45.00059" lon="5.42678">
        <ele>711</ele>
        <time>2015-10-18T10:41:16Z</time>
      </trkpt>
      <trkpt lat="45.00073" lon="5.42667">
        <ele>711</ele>
        <time>2015-10-18T10:41:17Z</time>
      </trkpt>
      <trkpt lat="45.00098" lon="5.42635">
        <ele>710.6</ele>
        <time>2015-10-18T10:41:19Z</time>
      </trkpt>
      <trkpt lat="45.00157" lon="5.42521">
        <ele>703.8</ele>
        <time>2015-10-18T10:41:26Z</time>
      </trkpt>
      <trkpt lat="45.00165" lon="5.42486">
        <ele>701.4</ele>
        <time>2015-10-18T10:41:28Z</time>
      </trkpt>
      <trkpt lat="45.00167" lon="5.42438">
        <ele>698.1</ele>
        <time>2015-10-18T10:41:32Z</time>
      </trkpt>
      <trkpt lat="45.00167" lon="5.42434">
        <ele>697.6</ele>
        <time>2015-10-18T10:41:33Z</time>
      </trkpt>
      <trkpt lat="45.00175" lon="5.42426">
        <ele>696.1</ele>
        <time>2015-10-18T10:41:39Z</time>
      </trkpt>
      <trkpt lat="45.00181" lon="5.42423">
        <ele>695.7</ele>
        <time>2015-10-18T10:41:40Z</time>
      </trkpt>
      <trkpt lat="45.00212" lon="5.4242">
        <ele>696.1</ele>
        <time>2015-10-18T10:41:45Z</time>
      </trkpt>
      <trkpt lat="45.01216" lon="5.40771">
        <ele>624</ele>
        <time>2015-10-18T10:43:02Z</time>
      </trkpt>
      <trkpt lat="45.01391" lon="5.40596">
        <ele>598.6</ele>
        <time>2015-10-18T10:43:13Z</time>
      </trkpt>
      <trkpt lat="45.01468" lon="5.40539">
        <ele>591.4</ele>
        <time>2015-10-18T10:43:18Z</time>
      </trkpt>
      <trkpt lat="45.01481" lon="5.40535">
        <ele>590.4</ele>
        <time>2015-10-18T10:43:19Z</time>
      </trkpt>
      <trkpt lat="45.01495" lon="5.4054">
        <ele>589</ele>
        <time>2015-10-18T10:43:20Z</time>
      </trkpt>
      <trkpt lat="45.01508" lon="5.40549">
        <ele>587.5</ele>
        <time>2015-10-18T10:43:21Z</time>
      </trkpt>
      <trkpt lat="45.01521" lon="5.40554">
        <ele>587</ele>
        <time>2015-10-18T10:43:22Z</time>
      </trkpt>
      <trkpt lat="45.01535" lon="5.40557">
        <ele>586.1</ele>
        <time>2015-10-18T10:43:23Z</time>
      </trkpt>
      <trkpt lat="45.01547" lon="5.40554">
        <ele>584.6</ele>
        <time>2015-10-18T10:43:24Z</time>
      </trkpt>
      <trkpt lat="45.01558" lon="5.40543">
        <ele>583.2</ele>
        <time>2015-10-18T10:43:25Z</time>
      </trkpt>
      <trkpt lat="45.01566" lon="5.40529">
        <ele>582.2</ele>
        <time>2015-10-18T10:43:26Z</time>
      </trkpt>
      <trkpt lat="45.01577" lon="5.40493">
        <ele>579.8</ele>
        <time>2015-10-18T10:43:28Z</time>
      </trkpt>
      <trkpt lat="45.01585" lon="5.40477">
        <ele>579.3</ele>
        <time>2015-10-18T10:43:29Z</time>
      </trkpt>
      <trkpt lat="45.01595" lon="5.40464">
        <ele>577.9</ele>
        <time>2015-10-18T10:43:30Z</time>
      </trkpt>
      <trkpt lat="45.01608" lon="5.40456">
        <ele>576.9</ele>
        <time>2015-10-18T10:43:31Z</time>
      </trkpt>
      <trkpt lat="45.01623" lon="5.40452">
        <ele>576</ele>
        <time>2015-10-18T10:43:32Z</time>
      </trkpt>
      <trkpt lat="45.01637" lon="5.40444">
        <ele>575</ele>
        <time>2015-10-18T10:43:33Z</time>
      </trkpt>
      <trkpt lat="45.0165" lon="5.4043">
        <ele>574</ele>
        <time>2015-10-18T10:43:34Z</time>
      </trkpt>
      <trkpt lat="45.01685" lon="5.40376">
        <ele>571.2</ele>
        <time>2015-10-18T10:43:37Z</time>
      </trkpt>
      <trkpt lat="45.01695" lon="5.40355">
        <ele>570.7</ele>
        <time>2015-10-18T10:43:38Z</time>
      </trkpt>
      <trkpt lat="45.01853" lon="5.39837">
        <ele>552.4</ele>
        <time>2015-10-18T10:44:03Z</time>
      </trkpt>
      <trkpt lat="45.01865" lon="5.39818">
        <ele>551.9</ele>
        <time>2015-10-18T10:44:04Z</time>
      </trkpt>
      <trkpt lat="45.01879" lon="5.39801">
        <ele>550.5</ele>
        <time>2015-10-18T10:44:05Z</time>
      </trkpt>
      <trkpt lat="45.01895" lon="5.39787">
        <ele>549.5</ele>
        <time>2015-10-18T10:44:06Z</time>
      </trkpt>
      <trkpt lat="45.01932" lon="5.39766">
        <ele>548.1</ele>
        <time>2015-10-18T10:44:08Z</time>
      </trkpt>
      <trkpt lat="45.01951" lon="5.39758">
        <ele>547.1</ele>
        <time>2015-10-18T10:44:09Z</time>
      </trkpt>
      <trkpt lat="45.01969" lon="5.39753">
        <ele>545.7</ele>
        <time>2015-10-18T10:44:10Z</time>
      </trkpt>
      <trkpt lat="45.02004" lon="5.39749">
        <ele>543.3</ele>
        <time>2015-10-18T10:44:12Z</time>
      </trkpt>
      <trkpt lat="45.02018" lon="5.39751">
        <ele>541.8</ele>
        <time>2015-10-18T10:44:13Z</time>
      </trkpt>
      <trkpt lat="45.0203" lon="5.39759">
        <ele>540.9</ele>
        <time>2015-10-18T10:44:14Z</time>
      </trkpt>
      <trkpt lat="45.02038" lon="5.39772">
        <ele>539.9</ele>
        <time>2015-10-18T10:44:15Z</time>
      </trkpt>
      <trkpt lat="45.02051" lon="5.39782">
        <ele>539.4</ele>
        <time>2015-10-18T10:44:16Z</time>
      </trkpt>
      <trkpt lat="45.02064" lon="5.39787">
        <ele>538.5</ele>
        <time>2015-10-18T10:44:17Z</time>
      </trkpt>
      <trkpt lat="45.02072" lon="5.39785">
        <ele>537.5</ele>
        <time>2015-10-18T10:44:18Z</time>
      </trkpt>
      <trkpt lat="45.02081" lon="5.39776">
        <ele>536.6</ele>
        <time>2015-10-18T10:44:19Z</time>
      </trkpt>
      <trkpt lat="45.021" lon="5.39749">
        <ele>534.6</ele>
        <time>2015-10-18T10:44:21Z</time>
      </trkpt>
      <trkpt lat="45.02113" lon="5.39736">
        <ele>534.2</ele>
        <time>2015-10-18T10:44:22Z</time>
      </trkpt>
      <trkpt lat="45.02172" lon="5.3969">
        <ele>531.3</ele>
        <time>2015-10-18T10:44:26Z</time>
      </trkpt>
      <trkpt lat="45.02185" lon="5.39676">
        <ele>530.3</ele>
        <time>2015-10-18T10:44:27Z</time>
      </trkpt>
      <trkpt lat="45.02242" lon="5.39589">
        <ele>526.5</ele>
        <time>2015-10-18T10:44:32Z</time>
      </trkpt>
      <trkpt lat="45.02273" lon="5.39532">
        <ele>524.1</ele>
        <time>2015-10-18T10:44:35Z</time>
      </trkpt>
      <trkpt lat="45.02307" lon="5.39445">
        <ele>520.7</ele>
        <time>2015-10-18T10:44:39Z</time>
      </trkpt>
      <trkpt lat="45.02317" lon="5.39427">
        <ele>520.2</ele>
        <time>2015-10-18T10:44:40Z</time>
      </trkpt>
      <trkpt lat="45.02329" lon="5.39412">
        <ele>519.3</ele>
        <time>2015-10-18T10:44:41Z</time>
      </trkpt>
      <trkpt lat="45.02341" lon="5.39401">
        <ele>518.3</ele>
        <time>2015-10-18T10:44:42Z</time>
      </trkpt>
      <trkpt lat="45.02352" lon="5.39387">
        <ele>517.8</ele>
        <time>2015-10-18T10:44:43Z</time>
      </trkpt>
      <trkpt lat="45.02361" lon="5.39371">
        <ele>517.3</ele>
        <time>2015-10-18T10:44:44Z</time>
      </trkpt>
      <trkpt lat="45.02375" lon="5.39334">
        <ele>515.4</ele>
        <time>2015-10-18T10:44:46Z</time>
      </trkpt>
      <trkpt lat="45.02384" lon="5.39317">
        <ele>514.4</ele>
        <time>2015-10-18T10:44:47Z</time>
      </trkpt>
      <trkpt lat="45.02395" lon="5.39303">
        <ele>513.5</ele>
        <time>2015-10-18T10:44:48Z</time>
      </trkpt>
      <trkpt lat="45.02407" lon="5.3929">
        <ele>512.5</ele>
        <time>2015-10-18T10:44:49Z</time>
      </trkpt>
      <trkpt lat="45.02434" lon="5.39268">
        <ele>510.6</ele>
        <time>2015-10-18T10:44:51Z</time>
      </trkpt>
      <trkpt lat="45.02448" lon="5.3926">
        <ele>509.6</ele>
        <time>2015-10-18T10:44:52Z</time>
      </trkpt>
      <trkpt lat="45.02492" lon="5.39246">
        <ele>506.8</ele>
        <time>2015-10-18T10:44:55Z</time>
      </trkpt>
      <trkpt lat="45.02555" lon="5.39204">
        <ele>502.4</ele>
        <time>2015-10-18T10:45:01Z</time>
      </trkpt>
      <trkpt lat="45.02561" lon="5.39196">
        <ele>501.5</ele>
        <time>2015-10-18T10:45:02Z</time>
      </trkpt>
      <trkpt lat="45.0256" lon="5.39187">
        <ele>501.5</ele>
        <time>2015-10-18T10:45:03Z</time>
      </trkpt>
      <trkpt lat="45.02553" lon="5.39183">
        <ele>500.5</ele>
        <time>2015-10-18T10:45:04Z</time>
      </trkpt>
      <trkpt lat="45.02545" lon="5.39184">
        <ele>500.5</ele>
        <time>2015-10-18T10:45:05Z</time>
      </trkpt>
      <trkpt lat="45.02536" lon="5.3919">
        <ele>500</ele>
        <time>2015-10-18T10:45:06Z</time>
      </trkpt>
      <trkpt lat="45.02517" lon="5.3921">
        <ele>498.6</ele>
        <time>2015-10-18T10:45:08Z</time>
      </trkpt>
      <trkpt lat="45.02503" lon="5.39219">
        <ele>498.1</ele>
        <time>2015-10-18T10:45:09Z</time>
      </trkpt>
      <trkpt lat="45.02489" lon="5.39226">
        <ele>497.1</ele>
        <time>2015-10-18T10:45:10Z</time>
      </trkpt>
      <trkpt lat="45.02475" lon="5.3923">
        <ele>496.7</ele>
        <time>2015-10-18T10:45:11Z</time>
      </trkpt>
      <trkpt lat="45.02461" lon="5.39231">
        <ele>495.7</ele>
        <time>2015-10-18T10:45:12Z</time>
      </trkpt>
      <trkpt lat="45.02447" lon="5.3923">
        <ele>495.2</ele>
        <time>2015-10-18T10:45:13Z</time>
      </trkpt>
      <trkpt lat="45.02434" lon="5.39231">
        <ele>494.7</ele>
        <time>2015-10-18T10:45:14Z</time>
      </trkpt>
      <trkpt lat="45.02421" lon="5.39234">
        <ele>494.3</ele>
        <time>2015-10-18T10:45:15Z</time>
      </trkpt>
      <trkpt lat="45.02407" lon="5.3924">
        <ele>493.8</ele>
        <time>2015-10-18T10:45:16Z</time>
      </trkpt>
      <trkpt lat="45.02344" lon="5.39282">
        <ele>489.5</ele>
        <time>2015-10-18T10:45:21Z</time>
      </trkpt>
      <trkpt lat="45.02333" lon="5.39296">
        <ele>489</ele>
        <time>2015-10-18T10:45:22Z</time>
      </trkpt>
      <trkpt lat="45.02303" lon="5.39343">
        <ele>486.1</ele>
        <time>2015-10-18T10:45:25Z</time>
      </trkpt>
      <trkpt lat="45.02266" lon="5.39373">
        <ele>483.2</ele>
        <time>2015-10-18T10:45:28Z</time>
      </trkpt>
      <trkpt lat="45.02208" lon="5.39453">
        <ele>476.5</ele>
        <time>2015-10-18T10:45:34Z</time>
      </trkpt>
      <trkpt lat="45.02197" lon="5.39458">
        <ele>475.5</ele>
        <time>2015-10-18T10:45:35Z</time>
      </trkpt>
      <trkpt lat="45.02187" lon="5.39456">
        <ele>474.6</ele>
        <time>2015-10-18T10:45:36Z</time>
      </trkpt>
      <trkpt lat="45.02176" lon="5.39452">
        <ele>473.1</ele>
        <time>2015-10-18T10:45:37Z</time>
      </trkpt>
      <trkpt lat="45.02164" lon="5.3945">
        <ele>472.6</ele>
        <time>2015-10-18T10:45:38Z</time>
      </trkpt>
      <trkpt lat="45.02152" lon="5.39453">
        <ele>472.6</ele>
        <time>2015-10-18T10:45:39Z</time>
      </trkpt>
      <trkpt lat="45.02143" lon="5.3946">
        <ele>472.1</ele>
        <time>2015-10-18T10:45:40Z</time>
      </trkpt>
      <trkpt lat="45.02126" lon="5.3948">
        <ele>470.2</ele>
        <time>2015-10-18T10:45:42Z</time>
      </trkpt>
      <trkpt lat="45.02116" lon="5.39487">
        <ele>469.3</ele>
        <time>2015-10-18T10:45:43Z</time>
      </trkpt>
      <trkpt lat="45.02104" lon="5.39488">
        <ele>468.3</ele>
        <time>2015-10-18T10:45:44Z</time>
      </trkpt>
      <trkpt lat="45.02094" lon="5.39483">
        <ele>467.3</ele>
        <time>2015-10-18T10:45:45Z</time>
      </trkpt>
      <trkpt lat="45.02076" lon="5.39468">
        <ele>464.9</ele>
        <time>2015-10-18T10:45:47Z</time>
      </trkpt>
      <trkpt lat="45.02066" lon="5.39468">
        <ele>464</ele>
        <time>2015-10-18T10:45:48Z</time>
      </trkpt>
      <trkpt lat="45.02056" lon="5.39472">
        <ele>463</ele>
        <time>2015-10-18T10:45:49Z</time>
      </trkpt>
      <trkpt lat="45.02045" lon="5.39479">
        <ele>462.1</ele>
        <time>2015-10-18T10:45:50Z</time>
      </trkpt>
      <trkpt lat="45.02004" lon="5.3949">
        <ele>458.7</ele>
        <time>2015-10-18T10:45:53Z</time>
      </trkpt>
      <trkpt lat="45.01992" lon="5.39496">
        <ele>457.7</ele>
        <time>2015-10-18T10:45:54Z</time>
      </trkpt>
      <trkpt lat="45.01981" lon="5.39505">
        <ele>457.2</ele>
        <time>2015-10-18T10:45:55Z</time>
      </trkpt>
      <trkpt lat="45.01973" lon="5.3952">
        <ele>457.2</ele>
        <time>2015-10-18T10:45:56Z</time>
      </trkpt>
      <trkpt lat="45.01967" lon="5.39535">
        <ele>457.2</ele>
        <time>2015-10-18T10:45:57Z</time>
      </trkpt>
      <trkpt lat="45.01964" lon="5.3955">
        <ele>457.2</ele>
        <time>2015-10-18T10:45:58Z</time>
      </trkpt>
      <trkpt lat="45.01959" lon="5.39562">
        <ele>455.3</ele>
        <time>2015-10-18T10:45:59Z</time>
      </trkpt>
      <trkpt lat="45.01951" lon="5.39572">
        <ele>454.8</ele>
        <time>2015-10-18T10:46:00Z</time>
      </trkpt>
      <trkpt lat="45.01942" lon="5.39577">
        <ele>453.9</ele>
        <time>2015-10-18T10:46:01Z</time>
      </trkpt>
      <trkpt lat="45.01903" lon="5.39587">
        <ele>450</ele>
        <time>2015-10-18T10:46:05Z</time>
      </trkpt>
      <trkpt lat="45.01887" lon="5.39596">
        <ele>448.1</ele>
        <time>2015-10-18T10:46:07Z</time>
      </trkpt>
      <trkpt lat="45.01881" lon="5.39593">
        <ele>447.2</ele>
        <time>2015-10-18T10:46:08Z</time>
      </trkpt>
      <trkpt lat="45.01879" lon="5.39585">
        <ele>446.2</ele>
        <time>2015-10-18T10:46:09Z</time>
      </trkpt>
      <trkpt lat="45.01881" lon="5.39578">
        <ele>445.2</ele>
        <time>2015-10-18T10:46:10Z</time>
      </trkpt>
      <trkpt lat="45.01889" lon="5.39571">
        <ele>444.8</ele>
        <time>2015-10-18T10:46:11Z</time>
      </trkpt>
      <trkpt lat="45.019" lon="5.39567">
        <ele>444.3</ele>
        <time>2015-10-18T10:46:12Z</time>
      </trkpt>
      <trkpt lat="45.01912" lon="5.39564">
        <ele>442.8</ele>
        <time>2015-10-18T10:46:13Z</time>
      </trkpt>
      <trkpt lat="45.01923" lon="5.39559">
        <ele>441.9</ele>
        <time>2015-10-18T10:46:14Z</time>
      </trkpt>
      <trkpt lat="45.01933" lon="5.3955">
        <ele>441.4</ele>
        <time>2015-10-18T10:46:15Z</time>
      </trkpt>
      <trkpt lat="45.0194" lon="5.39537">
        <ele>441.4</ele>
        <time>2015-10-18T10:46:16Z</time>
      </trkpt>
      <trkpt lat="45.01954" lon="5.39466">
        <ele>438</ele>
        <time>2015-10-18T10:46:20Z</time>
      </trkpt>
      <trkpt lat="45.0196" lon="5.3945">
        <ele>437.5</ele>
        <time>2015-10-18T10:46:21Z</time>
      </trkpt>
      <trkpt lat="45.01969" lon="5.39436">
        <ele>436.6</ele>
        <time>2015-10-18T10:46:22Z</time>
      </trkpt>
      <trkpt lat="45.0198" lon="5.39424">
        <ele>436.1</ele>
        <time>2015-10-18T10:46:23Z</time>
      </trkpt>
      <trkpt lat="45.02174" lon="5.39296">
        <ele>423.6</ele>
        <time>2015-10-18T10:46:38Z</time>
      </trkpt>
      <trkpt lat="45.02259" lon="5.39213">
        <ele>415.9</ele>
        <time>2015-10-18T10:46:44Z</time>
      </trkpt>
      <trkpt lat="45.02295" lon="5.39159">
        <ele>412.5</ele>
        <time>2015-10-18T10:46:47Z</time>
      </trkpt>
      <trkpt lat="45.02408" lon="5.39049">
        <ele>404.4</ele>
        <time>2015-10-18T10:46:55Z</time>
      </trkpt>
      <trkpt lat="45.02422" lon="5.39033">
        <ele>403.9</ele>
        <time>2015-10-18T10:46:56Z</time>
      </trkpt>
      <trkpt lat="45.02457" lon="5.38974">
        <ele>401</ele>
        <time>2015-10-18T10:46:59Z</time>
      </trkpt>
      <trkpt lat="45.02545" lon="5.38871">
        <ele>395.2</ele>
        <time>2015-10-18T10:47:06Z</time>
      </trkpt>
      <trkpt lat="45.02561" lon="5.38863">
        <ele>394.3</ele>
        <time>2015-10-18T10:47:07Z</time>
      </trkpt>
      <trkpt lat="45.02578" lon="5.38859">
        <ele>393.8</ele>
        <time>2015-10-18T10:47:08Z</time>
      </trkpt>
      <trkpt lat="45.0269" lon="5.38805">
        <ele>389.5</ele>
        <time>2015-10-18T10:47:15Z</time>
      </trkpt>
      <trkpt lat="45.02702" lon="5.3879">
        <ele>389</ele>
        <time>2015-10-18T10:47:16Z</time>
      </trkpt>
      <trkpt lat="45.02727" lon="5.38734">
        <ele>387.6</ele>
        <time>2015-10-18T10:47:19Z</time>
      </trkpt>
      <trkpt lat="45.02737" lon="5.38716">
        <ele>387.1</ele>
        <time>2015-10-18T10:47:20Z</time>
      </trkpt>
      <trkpt lat="45.02803" lon="5.38663">
        <ele>386.6</ele>
        <time>2015-10-18T10:47:24Z</time>
      </trkpt>
      <trkpt lat="45.02836" lon="5.38645">
        <ele>386.1</ele>
        <time>2015-10-18T10:47:26Z</time>
      </trkpt>
      <trkpt lat="45.02867" lon="5.38619">
        <ele>385.6</ele>
        <time>2015-10-18T10:47:28Z</time>
      </trkpt>
      <trkpt lat="45.02953" lon="5.38524">
        <ele>379.4</ele>
        <time>2015-10-18T10:47:35Z</time>
      </trkpt>
      <trkpt lat="45.02972" lon="5.38493">
        <ele>377.5</ele>
        <time>2015-10-18T10:47:37Z</time>
      </trkpt>
      <trkpt lat="45.03014" lon="5.38404">
        <ele>373.6</ele>
        <time>2015-10-18T10:47:42Z</time>
      </trkpt>
      <trkpt lat="45.03024" lon="5.38389">
        <ele>372.7</ele>
        <time>2015-10-18T10:47:43Z</time>
      </trkpt>
      <trkpt lat="45.03036" lon="5.38375">
        <ele>372.2</ele>
        <time>2015-10-18T10:47:44Z</time>
      </trkpt>
      <trkpt lat="45.0305" lon="5.38363">
        <ele>371.2</ele>
        <time>2015-10-18T10:47:45Z</time>
      </trkpt>
      <trkpt lat="45.03063" lon="5.38353">
        <ele>370.2</ele>
        <time>2015-10-18T10:47:46Z</time>
      </trkpt>
      <trkpt lat="45.03078" lon="5.38345">
        <ele>369.8</ele>
        <time>2015-10-18T10:47:47Z</time>
      </trkpt>
      <trkpt lat="45.03108" lon="5.38334">
        <ele>368.8</ele>
        <time>2015-10-18T10:47:49Z</time>
      </trkpt>
      <trkpt lat="45.0317" lon="5.3832">
        <ele>365</ele>
        <time>2015-10-18T10:47:53Z</time>
      </trkpt>
      <trkpt lat="45.03188" lon="5.38325">
        <ele>364</ele>
        <time>2015-10-18T10:47:54Z</time>
      </trkpt>
      <trkpt lat="45.03204" lon="5.38332">
        <ele>363</ele>
        <time>2015-10-18T10:47:55Z</time>
      </trkpt>
      <trkpt lat="45.03234" lon="5.38349">
        <ele>362.6</ele>
        <time>2015-10-18T10:47:57Z</time>
      </trkpt>
      <trkpt lat="45.03249" lon="5.38355">
        <ele>362.1</ele>
        <time>2015-10-18T10:47:58Z</time>
      </trkpt>
      <trkpt lat="45.03263" lon="5.38354">
        <ele>361.1</ele>
        <time>2015-10-18T10:47:59Z</time>
      </trkpt>
      <trkpt lat="45.03282" lon="5.3835">
        <ele>360.6</ele>
        <time>2015-10-18T10:48:00Z</time>
      </trkpt>
      <trkpt lat="45.03301" lon="5.38344">
        <ele>360.6</ele>
        <time>2015-10-18T10:48:01Z</time>
      </trkpt>
      <trkpt lat="45.03464" lon="5.38262">
        <ele>357.3</ele>
        <time>2015-10-18T10:48:10Z</time>
      </trkpt>
      <trkpt lat="45.03589" lon="5.38138">
        <ele>354.9</ele>
        <time>2015-10-18T10:48:18Z</time>
      </trkpt>
      <trkpt lat="45.03727" lon="5.37959">
        <ele>350.1</ele>
        <time>2015-10-18T10:48:28Z</time>
      </trkpt>
      <trkpt lat="45.03904" lon="5.37677">
        <ele>352.5</ele>
        <time>2015-10-18T10:48:45Z</time>
      </trkpt>
      <trkpt lat="45.03907" lon="5.37663">
        <ele>352</ele>
        <time>2015-10-18T10:48:46Z</time>
      </trkpt>
      <trkpt lat="45.03905" lon="5.37647">
        <ele>345.3</ele>
        <time>2015-10-18T10:48:48Z</time>
      </trkpt>
      <trkpt lat="45.03895" lon="5.37633">
        <ele>338</ele>
        <time>2015-10-18T10:48:50Z</time>
      </trkpt>
      <trkpt lat="45.0389" lon="5.37621">
        <ele>335.2</ele>
        <time>2015-10-18T10:48:51Z</time>
      </trkpt>
      <trkpt lat="45.03887" lon="5.37607">
        <ele>332.8</ele>
        <time>2015-10-18T10:48:52Z</time>
      </trkpt>
      <trkpt lat="45.03889" lon="5.37591">
        <ele>329.9</ele>
        <time>2015-10-18T10:48:53Z</time>
      </trkpt>
      <trkpt lat="45.03905" lon="5.37541">
        <ele>321.7</ele>
        <time>2015-10-18T10:48:56Z</time>
      </trkpt>
      <trkpt lat="45.03914" lon="5.37525">
        <ele>319.8</ele>
        <time>2015-10-18T10:48:57Z</time>
      </trkpt>
      <trkpt lat="45.03927" lon="5.37513">
        <ele>318.3</ele>
        <time>2015-10-18T10:48:58Z</time>
      </trkpt>
      <trkpt lat="45.03955" lon="5.37493">
        <ele>317.4</ele>
        <time>2015-10-18T10:49:00Z</time>
      </trkpt>
      <trkpt lat="45.0404" lon="5.37414">
        <ele>317.9</ele>
        <time>2015-10-18T10:49:06Z</time>
      </trkpt>
      <trkpt lat="45.04096" lon="5.37393">
        <ele>322.7</ele>
        <time>2015-10-18T10:49:09Z</time>
      </trkpt>
      <trkpt lat="45.04221" lon="5.37309">
        <ele>327.5</ele>
        <time>2015-10-18T10:49:17Z</time>
      </trkpt>
      <trkpt lat="45.04231" lon="5.37289">
        <ele>327</ele>
        <time>2015-10-18T10:49:18Z</time>
      </trkpt>
      <trkpt lat="45.04353" lon="5.36841">
        <ele>325.5</ele>
        <time>2015-10-18T10:49:35Z</time>
      </trkpt>
      <trkpt lat="45.04494" lon="5.36487">
        <ele>316.4</ele>
        <time>2015-10-18T10:49:50Z</time>
      </trkpt>
      <trkpt lat="45.04499" lon="5.36461">
        <ele>317.4</ele>
        <time>2015-10-18T10:49:51Z</time>
      </trkpt>
      <trkpt lat="45.04503" lon="5.36386">
        <ele>318.3</ele>
        <time>2015-10-18T10:49:54Z</time>
      </trkpt>
      <trkpt lat="45.04508" lon="5.36364">
        <ele>318.3</ele>
        <time>2015-10-18T10:49:55Z</time>
      </trkpt>
      <trkpt lat="45.04576" lon="5.36199">
        <ele>320.3</ele>
        <time>2015-10-18T10:50:03Z</time>
      </trkpt>
      <trkpt lat="45.04591" lon="5.36042">
        <ele>323.6</ele>
        <time>2015-10-18T10:50:10Z</time>
      </trkpt>
      <trkpt lat="45.04588" lon="5.3602">
        <ele>324.6</ele>
        <time>2015-10-18T10:50:11Z</time>
      </trkpt>
      <trkpt lat="45.04581" lon="5.35999">
        <ele>325.5</ele>
        <time>2015-10-18T10:50:12Z</time>
      </trkpt>
      <trkpt lat="45.04546" lon="5.35931">
        <ele>327</ele>
        <time>2015-10-18T10:50:16Z</time>
      </trkpt>
      <trkpt lat="45.04541" lon="5.35911">
        <ele>327.5</ele>
        <time>2015-10-18T10:50:17Z</time>
      </trkpt>
      <trkpt lat="45.04538" lon="5.35891">
        <ele>328</ele>
        <time>2015-10-18T10:50:18Z</time>
      </trkpt>
      <trkpt lat="45.04538" lon="5.35646">
        <ele>332.3</ele>
        <time>2015-10-18T10:50:28Z</time>
      </trkpt>
      <trkpt lat="45.04591" lon="5.35436">
        <ele>332.3</ele>
        <time>2015-10-18T10:50:39Z</time>
      </trkpt>
      <trkpt lat="45.04649" lon="5.35313">
        <ele>332.8</ele>
        <time>2015-10-18T10:50:50Z</time>
      </trkpt>
      <trkpt lat="45.0466" lon="5.35302">
        <ele>332.8</ele>
        <time>2015-10-18T10:50:52Z</time>
      </trkpt>
      <trkpt lat="45.04665" lon="5.35291">
        <ele>333.2</ele>
        <time>2015-10-18T10:50:53Z</time>
      </trkpt>
      <trkpt lat="45.04669" lon="5.3525">
        <ele>333.2</ele>
        <time>2015-10-18T10:50:56Z</time>
      </trkpt>
      <trkpt lat="45.04665" lon="5.35072">
        <ele>332.3</ele>
        <time>2015-10-18T10:51:08Z</time>
      </trkpt>
      <trkpt lat="45.04628" lon="5.34945">
        <ele>331.8</ele>
        <time>2015-10-18T10:51:16Z</time>
      </trkpt>
      <trkpt lat="45.04636" lon="5.34939">
        <ele>333.2</ele>
        <time>2015-10-18T10:51:17Z</time>
      </trkpt>
      <trkpt lat="45.0461" lon="5.34611">
        <ele>333.2</ele>
        <time>2015-10-18T10:51:35Z</time>
      </trkpt>
      <trkpt lat="45.04622" lon="5.34425">
        <ele>317.9</ele>
        <time>2015-10-18T10:51:45Z</time>
      </trkpt>
      <trkpt lat="45.04751" lon="5.34109">
        <ele>307.3</ele>
        <time>2015-10-18T10:52:11Z</time>
      </trkpt>
      <trkpt lat="45.04752" lon="5.34102">
        <ele>306.8</ele>
        <time>2015-10-18T10:52:12Z</time>
      </trkpt>
      <trkpt lat="45.04751" lon="5.34088">
        <ele>308.7</ele>
        <time>2015-10-18T10:52:19Z</time>
      </trkpt>
      <trkpt lat="45.04751" lon="5.34087">
        <ele>316.4</ele>
        <time>2015-10-18T10:52:48Z</time>
      </trkpt>
      <trkpt lat="45.04753" lon="5.34086">
        <ele>316.4</ele>
        <time>2015-10-18T10:52:49Z</time>
      </trkpt>
      <trkpt lat="45.04756" lon="5.34086">
        <ele>316.4</ele>
        <time>2015-10-18T10:52:50Z</time>
      </trkpt>
      <trkpt lat="45.04788" lon="5.34104">
        <ele>306.3</ele>
        <time>2015-10-18T10:52:55Z</time>
      </trkpt>
      <trkpt lat="45.04794" lon="5.34104">
        <ele>305.4</ele>
        <time>2015-10-18T10:52:56Z</time>
      </trkpt>
      <trkpt lat="45.04801" lon="5.34103">
        <ele>304.9</ele>
        <time>2015-10-18T10:52:57Z</time>
      </trkpt>
      <trkpt lat="45.04808" lon="5.34097">
        <ele>304.4</ele>
        <time>2015-10-18T10:52:58Z</time>
      </trkpt>
      <trkpt lat="45.04908" lon="5.33996">
        <ele>294.8</ele>
        <time>2015-10-18T10:53:08Z</time>
      </trkpt>
      <trkpt lat="45.04919" lon="5.33991">
        <ele>294.3</ele>
        <time>2015-10-18T10:53:09Z</time>
      </trkpt>
      <trkpt lat="45.04932" lon="5.33989">
        <ele>293.3</ele>
        <time>2015-10-18T10:53:10Z</time>
      </trkpt>
      <trkpt lat="45.04945" lon="5.33989">
        <ele>292.9</ele>
        <time>2015-10-18T10:53:11Z</time>
      </trkpt>
      <trkpt lat="45.04959" lon="5.33992">
        <ele>291.4</ele>
        <time>2015-10-18T10:53:12Z</time>
      </trkpt>
      <trkpt lat="45.04971" lon="5.33998">
        <ele>290</ele>
        <time>2015-10-18T10:53:13Z</time>
      </trkpt>
      <trkpt lat="45.04983" lon="5.34007">
        <ele>289</ele>
        <time>2015-10-18T10:53:14Z</time>
      </trkpt>
      <trkpt lat="45.05191" lon="5.34287">
        <ele>271.2</ele>
        <time>2015-10-18T10:53:31Z</time>
      </trkpt>
      <trkpt lat="45.05204" lon="5.34298">
        <ele>270.3</ele>
        <time>2015-10-18T10:53:32Z</time>
      </trkpt>
      <trkpt lat="45.05219" lon="5.34305">
        <ele>268.8</ele>
        <time>2015-10-18T10:53:33Z</time>
      </trkpt>
      <trkpt lat="45.05236" lon="5.34307">
        <ele>267.9</ele>
        <time>2015-10-18T10:53:34Z</time>
      </trkpt>
      <trkpt lat="45.05256" lon="5.34303">
        <ele>266.9</ele>
        <time>2015-10-18T10:53:35Z</time>
      </trkpt>
      <trkpt lat="45.05385" lon="5.34225">
        <ele>258.3</ele>
        <time>2015-10-18T10:53:43Z</time>
      </trkpt>
      <trkpt lat="45.05401" lon="5.34222">
        <ele>257.3</ele>
        <time>2015-10-18T10:53:44Z</time>
      </trkpt>
      <trkpt lat="45.05417" lon="5.34221">
        <ele>256.3</ele>
        <time>2015-10-18T10:53:45Z</time>
      </trkpt>
      <trkpt lat="45.05552" lon="5.3423">
        <ele>246.7</ele>
        <time>2015-10-18T10:53:53Z</time>
      </trkpt>
      <trkpt lat="45.05568" lon="5.34227">
        <ele>245.8</ele>
        <time>2015-10-18T10:53:54Z</time>
      </trkpt>
      <trkpt lat="45.05584" lon="5.3422">
        <ele>244.8</ele>
        <time>2015-10-18T10:53:55Z</time>
      </trkpt>
      <trkpt lat="45.056" lon="5.34211">
        <ele>243.4</ele>
        <time>2015-10-18T10:53:56Z</time>
      </trkpt>
      <trkpt lat="45.05615" lon="5.34198">
        <ele>241.9</ele>
        <time>2015-10-18T10:53:57Z</time>
      </trkpt>
      <trkpt lat="45.05629" lon="5.34183">
        <ele>240.5</ele>
        <time>2015-10-18T10:53:58Z</time>
      </trkpt>
      <trkpt lat="45.05718" lon="5.34045">
        <ele>232.8</ele>
        <time>2015-10-18T10:54:08Z</time>
      </trkpt>
      <trkpt lat="45.05724" lon="5.34041">
        <ele>231.8</ele>
        <time>2015-10-18T10:54:09Z</time>
      </trkpt>
      <trkpt lat="45.0573" lon="5.34043">
        <ele>231.3</ele>
        <time>2015-10-18T10:54:10Z</time>
      </trkpt>
      <trkpt lat="45.05733" lon="5.3405">
        <ele>230.4</ele>
        <time>2015-10-18T10:54:11Z</time>
      </trkpt>
      <trkpt lat="45.0573" lon="5.34058">
        <ele>228.9</ele>
        <time>2015-10-18T10:54:12Z</time>
      </trkpt>
      <trkpt lat="45.05726" lon="5.34067">
        <ele>228</ele>
        <time>2015-10-18T10:54:13Z</time>
      </trkpt>
      <trkpt lat="45.05697" lon="5.34093">
        <ele>226.1</ele>
        <time>2015-10-18T10:54:16Z</time>
      </trkpt>
      <trkpt lat="45.05677" lon="5.34121">
        <ele>224.6</ele>
        <time>2015-10-18T10:54:18Z</time>
      </trkpt>
      <trkpt lat="45.05663" lon="5.34153">
        <ele>223.6</ele>
        <time>2015-10-18T10:54:20Z</time>
      </trkpt>
      <trkpt lat="45.0564" lon="5.34234">
        <ele>225.1</ele>
        <time>2015-10-18T10:54:25Z</time>
      </trkpt>
      <trkpt lat="45.05633" lon="5.34244">
        <ele>225.6</ele>
        <time>2015-10-18T10:54:26Z</time>
      </trkpt>
      <trkpt lat="45.05622" lon="5.34254">
        <ele>225.1</ele>
        <time>2015-10-18T10:54:27Z</time>
      </trkpt>
      <trkpt lat="45.05608" lon="5.34261">
        <ele>223.6</ele>
        <time>2015-10-18T10:54:28Z</time>
      </trkpt>
      <trkpt lat="45.05594" lon="5.34266">
        <ele>222.2</ele>
        <time>2015-10-18T10:54:29Z</time>
      </trkpt>
      <trkpt lat="45.05584" lon="5.34271">
        <ele>222.2</ele>
        <time>2015-10-18T10:54:30Z</time>
      </trkpt>
      <trkpt lat="45.05567" lon="5.34284">
        <ele>224.6</ele>
        <time>2015-10-18T10:54:32Z</time>
      </trkpt>
      <trkpt lat="45.0556" lon="5.34292">
        <ele>224.1</ele>
        <time>2015-10-18T10:54:33Z</time>
      </trkpt>
      <trkpt lat="45.05554" lon="5.34302">
        <ele>223.6</ele>
        <time>2015-10-18T10:54:34Z</time>
      </trkpt>
      <trkpt lat="45.0555" lon="5.34313">
        <ele>222.7</ele>
        <time>2015-10-18T10:54:35Z</time>
      </trkpt>
      <trkpt lat="45.05549" lon="5.34324">
        <ele>222.2</ele>
        <time>2015-10-18T10:54:36Z</time>
      </trkpt>
      <trkpt lat="45.05551" lon="5.34332">
        <ele>218.8</ele>
        <time>2015-10-18T10:54:37Z</time>
      </trkpt>
      <trkpt lat="45.05557" lon="5.34341">
        <ele>217.4</ele>
        <time>2015-10-18T10:54:38Z</time>
      </trkpt>
      <trkpt lat="45.05563" lon="5.34348">
        <ele>216.9</ele>
        <time>2015-10-18T10:54:39Z</time>
      </trkpt>
      <trkpt lat="45.05571" lon="5.34355">
        <ele>216.9</ele>
        <time>2015-10-18T10:54:40Z</time>
      </trkpt>
      <trkpt lat="45.05635" lon="5.34396">
        <ele>220.3</ele>
        <time>2015-10-18T10:54:46Z</time>
      </trkpt>
      <trkpt lat="45.05646" lon="5.34399">
        <ele>221.7</ele>
        <time>2015-10-18T10:54:47Z</time>
      </trkpt>
      <trkpt lat="45.05659" lon="5.34397">
        <ele>222.7</ele>
        <time>2015-10-18T10:54:48Z</time>
      </trkpt>
      <trkpt lat="45.05674" lon="5.34392">
        <ele>224.1</ele>
        <time>2015-10-18T10:54:49Z</time>
      </trkpt>
      <trkpt lat="45.05759" lon="5.34356">
        <ele>228.5</ele>
        <time>2015-10-18T10:54:56Z</time>
      </trkpt>
      <trkpt lat="45.0577" lon="5.34357">
        <ele>227.5</ele>
        <time>2015-10-18T10:54:57Z</time>
      </trkpt>
      <trkpt lat="45.05782" lon="5.34362">
        <ele>226.1</ele>
        <time>2015-10-18T10:54:58Z</time>
      </trkpt>
      <trkpt lat="45.05823" lon="5.3439">
        <ele>223.2</ele>
        <time>2015-10-18T10:55:02Z</time>
      </trkpt>
      <trkpt lat="45.05834" lon="5.34395">
        <ele>223.2</ele>
        <time>2015-10-18T10:55:03Z</time>
      </trkpt>
      <trkpt lat="45.059" lon="5.34414">
        <ele>223.2</ele>
        <time>2015-10-18T10:55:09Z</time>
      </trkpt>
      <trkpt lat="45.0595" lon="5.34413">
        <ele>224.6</ele>
        <time>2015-10-18T10:55:14Z</time>
      </trkpt>
      <trkpt lat="45.05959" lon="5.34417">
        <ele>224.6</ele>
        <time>2015-10-18T10:55:15Z</time>
      </trkpt>
      <trkpt lat="45.05983" lon="5.34432">
        <ele>225.6</ele>
        <time>2015-10-18T10:55:18Z</time>
      </trkpt>
      <trkpt lat="45.05989" lon="5.34439">
        <ele>225.6</ele>
        <time>2015-10-18T10:55:19Z</time>
      </trkpt>
      <trkpt lat="45.05993" lon="5.34448">
        <ele>226.1</ele>
        <time>2015-10-18T10:55:20Z</time>
      </trkpt>
      <trkpt lat="45.06" lon="5.3447">
        <ele>226.1</ele>
        <time>2015-10-18T10:55:22Z</time>
      </trkpt>
      <trkpt lat="45.06015" lon="5.34548">
        <ele>226.1</ele>
        <time>2015-10-18T10:55:28Z</time>
      </trkpt>
      <trkpt lat="45.06011" lon="5.3461">
        <ele>225.1</ele>
        <time>2015-10-18T10:55:33Z</time>
      </trkpt>
      <trkpt lat="45.06013" lon="5.34621">
        <ele>224.6</ele>
        <time>2015-10-18T10:55:34Z</time>
      </trkpt>
      <trkpt lat="45.06015" lon="5.34631">
        <ele>224.1</ele>
        <time>2015-10-18T10:55:35Z</time>
      </trkpt>
      <trkpt lat="45.06026" lon="5.34652">
        <ele>224.1</ele>
        <time>2015-10-18T10:55:38Z</time>
      </trkpt>
      <trkpt lat="45.06029" lon="5.34658">
        <ele>223.6</ele>
        <time>2015-10-18T10:55:39Z</time>
      </trkpt>
      <trkpt lat="45.06043" lon="5.34683">
        <ele>223.2</ele>
        <time>2015-10-18T10:55:47Z</time>
      </trkpt>
      <trkpt lat="45.06045" lon="5.34682">
        <ele>222.7</ele>
        <time>2015-10-18T10:55:48Z</time>
      </trkpt>
      <trkpt lat="45.06048" lon="5.34679">
        <ele>223.2</ele>
        <time>2015-10-18T10:55:49Z</time>
      </trkpt>
      <trkpt lat="45.06051" lon="5.34675">
        <ele>223.2</ele>
        <time>2015-10-18T10:55:50Z</time>
      </trkpt>
      <trkpt lat="45.06055" lon="5.34654">
        <ele>221.7</ele>
        <time>2015-10-18T10:55:53Z</time>
      </trkpt>
      <trkpt lat="45.06081" lon="5.34611">
        <ele>220.3</ele>
        <time>2015-10-18T10:56:00Z</time>
      </trkpt>
      <trkpt lat="45.06091" lon="5.34607">
        <ele>219.3</ele>
        <time>2015-10-18T10:56:01Z</time>
      </trkpt>
      <trkpt lat="45.06116" lon="5.34582">
        <ele>220.8</ele>
        <time>2015-10-18T10:56:04Z</time>
      </trkpt>
      <trkpt lat="45.06119" lon="5.34573">
        <ele>221.2</ele>
        <time>2015-10-18T10:56:05Z</time>
      </trkpt>
      <trkpt lat="45.06119" lon="5.34564">
        <ele>221.7</ele>
        <time>2015-10-18T10:56:06Z</time>
      </trkpt>
      <trkpt lat="45.06119" lon="5.34556">
        <ele>221.2</ele>
        <time>2015-10-18T10:56:07Z</time>
      </trkpt>
      <trkpt lat="45.06119" lon="5.34548">
        <ele>221.2</ele>
        <time>2015-10-18T10:56:08Z</time>
      </trkpt>
      <trkpt lat="45.06113" lon="5.34512">
        <ele>220.8</ele>
        <time>2015-10-18T10:56:12Z</time>
      </trkpt>
      <trkpt lat="45.06114" lon="5.34492">
        <ele>220.3</ele>
        <time>2015-10-18T10:56:14Z</time>
      </trkpt>
      <trkpt lat="45.06112" lon="5.34463">
        <ele>219.3</ele>
        <time>2015-10-18T10:56:17Z</time>
      </trkpt>
      <trkpt lat="45.06118" lon="5.34427">
        <ele>217.9</ele>
        <time>2015-10-18T10:56:21Z</time>
      </trkpt>
      <trkpt lat="45.06144" lon="5.34365">
        <ele>226.1</ele>
        <time>2015-10-18T10:56:35Z</time>
      </trkpt>
      <trkpt lat="45.0614" lon="5.34358">
        <ele>247.7</ele>
        <time>2015-10-18T10:56:57Z</time>
      </trkpt>
      <trkpt lat="45.0614" lon="5.34364">
        <ele>234.7</ele>
        <time>2015-10-18T10:57:27Z</time>
      </trkpt>
      <trkpt lat="45.06145" lon="5.34367">
        <ele>231.3</ele>
        <time>2015-10-18T10:57:46Z</time>
      </trkpt>
      <trkpt lat="45.06137" lon="5.34361">
        <ele>246.2</ele>
        <time>2015-10-18T10:58:22Z</time>
      </trkpt>
      <trkpt lat="45.0614" lon="5.34364">
        <ele>247.7</ele>
        <time>2015-10-18T10:58:50Z</time>
      </trkpt>
      <trkpt lat="45.0615" lon="5.34372">
        <ele>219.8</ele>
        <time>2015-10-18T10:59:34Z</time>
      </trkpt>
      <trkpt lat="45.0615" lon="5.3437">
        <ele>223.2</ele>
        <time>2015-10-18T11:00:44Z</time>
      </trkpt>
      <trkpt lat="45.06155" lon="5.34377">
        <ele>219.3</ele>
        <time>2015-10-18T11:02:52Z</time>
      </trkpt>
      <trkpt lat="45.06148" lon="5.34373">
        <ele>234.7</ele>
        <time>2015-10-18T11:03:19Z</time>
      </trkpt>
      <trkpt lat="45.06125" lon="5.34412">
        <ele>232.8</ele>
        <time>2015-10-18T11:03:30Z</time>
      </trkpt>
      <trkpt lat="45.06102" lon="5.3449">
        <ele>222.7</ele>
        <time>2015-10-18T11:03:39Z</time>
      </trkpt>
      <trkpt lat="45.06099" lon="5.34596">
        <ele>221.2</ele>
        <time>2015-10-18T11:03:50Z</time>
      </trkpt>
      <trkpt lat="45.06096" lon="5.34606">
        <ele>220.8</ele>
        <time>2015-10-18T11:03:51Z</time>
      </trkpt>
      <trkpt lat="45.06078" lon="5.34639">
        <ele>218.4</ele>
        <time>2015-10-18T11:03:54Z</time>
      </trkpt>
      <trkpt lat="45.06059" lon="5.34656">
        <ele>217.4</ele>
        <time>2015-10-18T11:03:56Z</time>
      </trkpt>
      <trkpt lat="45.06053" lon="5.34659">
        <ele>214</ele>
        <time>2015-10-18T11:03:57Z</time>
      </trkpt>
      <trkpt lat="45.06032" lon="5.34673">
        <ele>218.8</ele>
        <time>2015-10-18T11:04:00Z</time>
      </trkpt>
      <trkpt lat="45.06025" lon="5.34674">
        <ele>224.6</ele>
        <time>2015-10-18T11:04:01Z</time>
      </trkpt>
      <trkpt lat="45.06022" lon="5.34675">
        <ele>226.5</ele>
        <time>2015-10-18T11:04:02Z</time>
      </trkpt>
      <trkpt lat="45.06022" lon="5.34676">
        <ele>226.1</ele>
        <time>2015-10-18T11:04:03Z</time>
      </trkpt>
      <trkpt lat="45.06021" lon="5.34674">
        <ele>225.6</ele>
        <time>2015-10-18T11:04:04Z</time>
      </trkpt>
      <trkpt lat="45.06018" lon="5.34661">
        <ele>225.1</ele>
        <time>2015-10-18T11:04:06Z</time>
      </trkpt>
      <trkpt lat="45.06018" lon="5.34652">
        <ele>224.6</ele>
        <time>2015-10-18T11:04:07Z</time>
      </trkpt>
      <trkpt lat="45.06016" lon="5.34643">
        <ele>225.1</ele>
        <time>2015-10-18T11:04:08Z</time>
      </trkpt>
      <trkpt lat="45.06005" lon="5.34617">
        <ele>227</ele>
        <time>2015-10-18T11:04:11Z</time>
      </trkpt>
      <trkpt lat="45.06003" lon="5.34607">
        <ele>226.5</ele>
        <time>2015-10-18T11:04:12Z</time>
      </trkpt>
      <trkpt lat="45.06003" lon="5.34595">
        <ele>226.5</ele>
        <time>2015-10-18T11:04:13Z</time>
      </trkpt>
      <trkpt lat="45.06008" lon="5.34545">
        <ele>226.5</ele>
        <time>2015-10-18T11:04:17Z</time>
      </trkpt>
      <trkpt lat="45.06006" lon="5.3452">
        <ele>225.6</ele>
        <time>2015-10-18T11:04:19Z</time>
      </trkpt>
      <trkpt lat="45.05986" lon="5.34438">
        <ele>226.1</ele>
        <time>2015-10-18T11:04:25Z</time>
      </trkpt>
      <trkpt lat="45.05978" lon="5.34429">
        <ele>224.6</ele>
        <time>2015-10-18T11:04:26Z</time>
      </trkpt>
      <trkpt lat="45.05969" lon="5.34421">
        <ele>224.6</ele>
        <time>2015-10-18T11:04:27Z</time>
      </trkpt>
      <trkpt lat="45.05949" lon="5.34409">
        <ele>224.1</ele>
        <time>2015-10-18T11:04:29Z</time>
      </trkpt>
      <trkpt lat="45.05939" lon="5.34405">
        <ele>223.6</ele>
        <time>2015-10-18T11:04:30Z</time>
      </trkpt>
      <trkpt lat="45.05928" lon="5.34405">
        <ele>223.6</ele>
        <time>2015-10-18T11:04:31Z</time>
      </trkpt>
      <trkpt lat="45.05892" lon="5.34408">
        <ele>223.6</ele>
        <time>2015-10-18T11:04:34Z</time>
      </trkpt>
      <trkpt lat="45.05881" lon="5.34408">
        <ele>223.6</ele>
        <time>2015-10-18T11:04:35Z</time>
      </trkpt>
      <trkpt lat="45.0583" lon="5.34396">
        <ele>225.6</ele>
        <time>2015-10-18T11:04:42Z</time>
      </trkpt>
      <trkpt lat="45.05829" lon="5.34393">
        <ele>225.6</ele>
        <time>2015-10-18T11:04:43Z</time>
      </trkpt>
      <trkpt lat="45.05829" lon="5.34391">
        <ele>225.6</ele>
        <time>2015-10-18T11:04:44Z</time>
      </trkpt>
      <trkpt lat="45.0583" lon="5.34389">
        <ele>225.1</ele>
        <time>2015-10-18T11:04:45Z</time>
      </trkpt>
      <trkpt lat="45.05831" lon="5.34389">
        <ele>224.6</ele>
        <time>2015-10-18T11:04:46Z</time>
      </trkpt>
      <trkpt lat="45.05833" lon="5.34389">
        <ele>224.1</ele>
        <time>2015-10-18T11:04:47Z</time>
      </trkpt>
      <trkpt lat="45.05838" lon="5.34392">
        <ele>222.7</ele>
        <time>2015-10-18T11:04:49Z</time>
      </trkpt>
      <trkpt lat="45.05889" lon="5.34398">
        <ele>218.4</ele>
        <time>2015-10-18T11:04:59Z</time>
      </trkpt>
      <trkpt lat="45.05896" lon="5.34396">
        <ele>217.4</ele>
        <time>2015-10-18T11:05:00Z</time>
      </trkpt>
      <trkpt lat="45.05903" lon="5.34394">
        <ele>216.9</ele>
        <time>2015-10-18T11:05:01Z</time>
      </trkpt>
      <trkpt lat="45.05917" lon="5.34387">
        <ele>215.5</ele>
        <time>2015-10-18T11:05:03Z</time>
      </trkpt>
      <trkpt lat="45.05962" lon="5.34352">
        <ele>210.2</ele>
        <time>2015-10-18T11:05:13Z</time>
      </trkpt>
      <trkpt lat="45.05975" lon="5.34348">
        <ele>208.3</ele>
        <time>2015-10-18T11:05:18Z</time>
      </trkpt>
      <trkpt lat="45.05977" lon="5.34349">
        <ele>204.9</ele>
        <time>2015-10-18T11:05:37Z</time>
      </trkpt>
      <trkpt lat="45.05981" lon="5.34355">
        <ele>208.7</ele>
        <time>2015-10-18T11:50:14Z</time>
      </trkpt>
      <trkpt lat="45.05979" lon="5.34351">
        <ele>207.8</ele>
        <time>2015-10-18T11:52:18Z</time>
      </trkpt>
      <trkpt lat="45.05976" lon="5.34353">
        <ele>205.9</ele>
        <time>2015-10-18T11:53:27Z</time>
      </trkpt>
      <trkpt lat="45.05968" lon="5.34359">
        <ele>207.3</ele>
        <time>2015-10-18T11:53:32Z</time>
      </trkpt>
      <trkpt lat="45.05953" lon="5.34361">
        <ele>211.6</ele>
        <time>2015-10-18T11:53:42Z</time>
      </trkpt>
      <trkpt lat="45.05952" lon="5.3436">
        <ele>209.7</ele>
        <time>2015-10-18T11:54:07Z</time>
      </trkpt>
      <trkpt lat="45.05946" lon="5.34362">
        <ele>211.2</ele>
        <time>2015-10-18T11:54:10Z</time>
      </trkpt>
      <trkpt lat="45.05943" lon="5.34366">
        <ele>216.4</ele>
        <time>2015-10-18T11:54:23Z</time>
      </trkpt>
      <trkpt lat="45.05938" lon="5.34377">
        <ele>220.8</ele>
        <time>2015-10-18T11:54:32Z</time>
      </trkpt>
      <trkpt lat="45.05933" lon="5.34382">
        <ele>220.8</ele>
        <time>2015-10-18T11:54:33Z</time>
      </trkpt>
      <trkpt lat="45.05927" lon="5.34388">
        <ele>220.3</ele>
        <time>2015-10-18T11:54:34Z</time>
      </trkpt>
      <trkpt lat="45.05912" lon="5.34397">
        <ele>221.2</ele>
        <time>2015-10-18T11:54:36Z</time>
      </trkpt>
      <trkpt lat="45.05897" lon="5.34404">
        <ele>222.2</ele>
        <time>2015-10-18T11:54:38Z</time>
      </trkpt>
      <trkpt lat="45.05891" lon="5.34405">
        <ele>223.2</ele>
        <time>2015-10-18T11:54:39Z</time>
      </trkpt>
      <trkpt lat="45.05829" lon="5.34394">
        <ele>232.3</ele>
        <time>2015-10-18T11:54:49Z</time>
      </trkpt>
      <trkpt lat="45.05821" lon="5.34391">
        <ele>232.8</ele>
        <time>2015-10-18T11:54:50Z</time>
      </trkpt>
      <trkpt lat="45.05811" lon="5.34385">
        <ele>233.3</ele>
        <time>2015-10-18T11:54:51Z</time>
      </trkpt>
      <trkpt lat="45.05786" lon="5.34365">
        <ele>234.7</ele>
        <time>2015-10-18T11:54:54Z</time>
      </trkpt>
      <trkpt lat="45.05777" lon="5.3436">
        <ele>234.7</ele>
        <time>2015-10-18T11:54:55Z</time>
      </trkpt>
      <trkpt lat="45.05767" lon="5.34358">
        <ele>235.2</ele>
        <time>2015-10-18T11:54:56Z</time>
      </trkpt>
      <trkpt lat="45.05757" lon="5.34359">
        <ele>235.2</ele>
        <time>2015-10-18T11:54:57Z</time>
      </trkpt>
      <trkpt lat="45.05669" lon="5.34396">
        <ele>233.3</ele>
        <time>2015-10-18T11:55:05Z</time>
      </trkpt>
      <trkpt lat="45.05657" lon="5.34397">
        <ele>232.8</ele>
        <time>2015-10-18T11:55:06Z</time>
      </trkpt>
      <trkpt lat="45.05645" lon="5.34394">
        <ele>232.8</ele>
        <time>2015-10-18T11:55:07Z</time>
      </trkpt>
      <trkpt lat="45.05624" lon="5.34382">
        <ele>232.8</ele>
        <time>2015-10-18T11:55:09Z</time>
      </trkpt>
      <trkpt lat="45.05566" lon="5.34337">
        <ele>231.8</ele>
        <time>2015-10-18T11:55:16Z</time>
      </trkpt>
      <trkpt lat="45.0556" lon="5.34329">
        <ele>231.8</ele>
        <time>2015-10-18T11:55:17Z</time>
      </trkpt>
      <trkpt lat="45.05556" lon="5.34319">
        <ele>231.3</ele>
        <time>2015-10-18T11:55:18Z</time>
      </trkpt>
      <trkpt lat="45.05559" lon="5.34293">
        <ele>230.9</ele>
        <time>2015-10-18T11:55:20Z</time>
      </trkpt>
      <trkpt lat="45.05564" lon="5.34281">
        <ele>230.4</ele>
        <time>2015-10-18T11:55:21Z</time>
      </trkpt>
      <trkpt lat="45.05572" lon="5.34271">
        <ele>230.4</ele>
        <time>2015-10-18T11:55:22Z</time>
      </trkpt>
      <trkpt lat="45.05592" lon="5.34257">
        <ele>232.3</ele>
        <time>2015-10-18T11:55:24Z</time>
      </trkpt>
      <trkpt lat="45.05618" lon="5.34247">
        <ele>235.2</ele>
        <time>2015-10-18T11:55:26Z</time>
      </trkpt>
      <trkpt lat="45.0563" lon="5.34239">
        <ele>235.2</ele>
        <time>2015-10-18T11:55:27Z</time>
      </trkpt>
      <trkpt lat="45.0564" lon="5.34227">
        <ele>235.7</ele>
        <time>2015-10-18T11:55:28Z</time>
      </trkpt>
      <trkpt lat="45.05648" lon="5.34212">
        <ele>235.7</ele>
        <time>2015-10-18T11:55:29Z</time>
      </trkpt>
      <trkpt lat="45.05677" lon="5.34127">
        <ele>237.6</ele>
        <time>2015-10-18T11:55:34Z</time>
      </trkpt>
      <trkpt lat="45.05684" lon="5.34113">
        <ele>238.1</ele>
        <time>2015-10-18T11:55:35Z</time>
      </trkpt>
      <trkpt lat="45.05693" lon="5.341">
        <ele>238.5</ele>
        <time>2015-10-18T11:55:36Z</time>
      </trkpt>
      <trkpt lat="45.05703" lon="5.3409">
        <ele>240.5</ele>
        <time>2015-10-18T11:55:37Z</time>
      </trkpt>
      <trkpt lat="45.05738" lon="5.34061">
        <ele>243.4</ele>
        <time>2015-10-18T11:55:41Z</time>
      </trkpt>
      <trkpt lat="45.05741" lon="5.34054">
        <ele>243.4</ele>
        <time>2015-10-18T11:55:42Z</time>
      </trkpt>
      <trkpt lat="45.05737" lon="5.34046">
        <ele>243.8</ele>
        <time>2015-10-18T11:55:43Z</time>
      </trkpt>
      <trkpt lat="45.0573" lon="5.34041">
        <ele>244.3</ele>
        <time>2015-10-18T11:55:44Z</time>
      </trkpt>
      <trkpt lat="45.0572" lon="5.34044">
        <ele>244.3</ele>
        <time>2015-10-18T11:55:45Z</time>
      </trkpt>
      <trkpt lat="45.05709" lon="5.34053">
        <ele>244.3</ele>
        <time>2015-10-18T11:55:46Z</time>
      </trkpt>
      <trkpt lat="45.05685" lon="5.34083">
        <ele>244.8</ele>
        <time>2015-10-18T11:55:48Z</time>
      </trkpt>
      <trkpt lat="45.05619" lon="5.34187">
        <ele>248.2</ele>
        <time>2015-10-18T11:55:55Z</time>
      </trkpt>
      <trkpt lat="45.056" lon="5.34208">
        <ele>247.7</ele>
        <time>2015-10-18T11:55:57Z</time>
      </trkpt>
      <trkpt lat="45.05576" lon="5.34224">
        <ele>248.2</ele>
        <time>2015-10-18T11:55:59Z</time>
      </trkpt>
      <trkpt lat="45.05564" lon="5.3423">
        <ele>248.6</ele>
        <time>2015-10-18T11:56:00Z</time>
      </trkpt>
      <trkpt lat="45.05552" lon="5.34234">
        <ele>249.6</ele>
        <time>2015-10-18T11:56:01Z</time>
      </trkpt>
      <trkpt lat="45.05539" lon="5.34236">
        <ele>250.6</ele>
        <time>2015-10-18T11:56:02Z</time>
      </trkpt>
      <trkpt lat="45.05393" lon="5.34226">
        <ele>262.6</ele>
        <time>2015-10-18T11:56:13Z</time>
      </trkpt>
      <trkpt lat="45.05379" lon="5.3423">
        <ele>263.5</ele>
        <time>2015-10-18T11:56:14Z</time>
      </trkpt>
      <trkpt lat="45.05365" lon="5.34235">
        <ele>264.5</ele>
        <time>2015-10-18T11:56:15Z</time>
      </trkpt>
      <trkpt lat="45.05263" lon="5.34296">
        <ele>271.7</ele>
        <time>2015-10-18T11:56:22Z</time>
      </trkpt>
      <trkpt lat="45.05247" lon="5.34301">
        <ele>272.7</ele>
        <time>2015-10-18T11:56:23Z</time>
      </trkpt>
      <trkpt lat="45.0523" lon="5.34303">
        <ele>273.6</ele>
        <time>2015-10-18T11:56:24Z</time>
      </trkpt>
      <trkpt lat="45.05214" lon="5.343">
        <ele>275.1</ele>
        <time>2015-10-18T11:56:25Z</time>
      </trkpt>
      <trkpt lat="45.05198" lon="5.3429">
        <ele>276.5</ele>
        <time>2015-10-18T11:56:26Z</time>
      </trkpt>
      <trkpt lat="45.05183" lon="5.34277">
        <ele>278</ele>
        <time>2015-10-18T11:56:27Z</time>
      </trkpt>
      <trkpt lat="45.04985" lon="5.3401">
        <ele>293.8</ele>
        <time>2015-10-18T11:56:43Z</time>
      </trkpt>
      <trkpt lat="45.04972" lon="5.33997">
        <ele>294.8</ele>
        <time>2015-10-18T11:56:44Z</time>
      </trkpt>
      <trkpt lat="45.04958" lon="5.33989">
        <ele>295.7</ele>
        <time>2015-10-18T11:56:45Z</time>
      </trkpt>
      <trkpt lat="45.04943" lon="5.33986">
        <ele>296.7</ele>
        <time>2015-10-18T11:56:46Z</time>
      </trkpt>
      <trkpt lat="45.04927" lon="5.33987">
        <ele>298.2</ele>
        <time>2015-10-18T11:56:47Z</time>
      </trkpt>
      <trkpt lat="45.04912" lon="5.3399">
        <ele>299.6</ele>
        <time>2015-10-18T11:56:48Z</time>
      </trkpt>
      <trkpt lat="45.04899" lon="5.34">
        <ele>300.1</ele>
        <time>2015-10-18T11:56:49Z</time>
      </trkpt>
      <trkpt lat="45.04808" lon="5.34101">
        <ele>304.4</ele>
        <time>2015-10-18T11:56:57Z</time>
      </trkpt>
      <trkpt lat="45.04799" lon="5.34106">
        <ele>304.9</ele>
        <time>2015-10-18T11:56:58Z</time>
      </trkpt>
      <trkpt lat="45.04791" lon="5.34108">
        <ele>305.8</ele>
        <time>2015-10-18T11:56:59Z</time>
      </trkpt>
      <trkpt lat="45.04782" lon="5.34108">
        <ele>307.3</ele>
        <time>2015-10-18T11:57:00Z</time>
      </trkpt>
      <trkpt lat="45.04773" lon="5.34103">
        <ele>308.2</ele>
        <time>2015-10-18T11:57:01Z</time>
      </trkpt>
      <trkpt lat="45.04764" lon="5.34096">
        <ele>309.7</ele>
        <time>2015-10-18T11:57:02Z</time>
      </trkpt>
      <trkpt lat="45.04755" lon="5.34087">
        <ele>310.2</ele>
        <time>2015-10-18T11:57:03Z</time>
      </trkpt>
      <trkpt lat="45.04671" lon="5.34021">
        <ele>313.5</ele>
        <time>2015-10-18T11:57:11Z</time>
      </trkpt>
      <trkpt lat="45.0447" lon="5.339">
        <ele>312.6</ele>
        <time>2015-10-18T11:57:29Z</time>
      </trkpt>
      <trkpt lat="45.04371" lon="5.33861">
        <ele>310.6</ele>
        <time>2015-10-18T11:57:36Z</time>
      </trkpt>
      <trkpt lat="45.04206" lon="5.33775">
        <ele>307.8</ele>
        <time>2015-10-18T11:57:46Z</time>
      </trkpt>
      <trkpt lat="45.03938" lon="5.33676">
        <ele>304.9</ele>
        <time>2015-10-18T11:58:00Z</time>
      </trkpt>
      <trkpt lat="45.03921" lon="5.33662">
        <ele>304.9</ele>
        <time>2015-10-18T11:58:01Z</time>
      </trkpt>
      <trkpt lat="45.03887" lon="5.33624">
        <ele>305.8</ele>
        <time>2015-10-18T11:58:03Z</time>
      </trkpt>
      <trkpt lat="45.03873" lon="5.33602">
        <ele>305.8</ele>
        <time>2015-10-18T11:58:04Z</time>
      </trkpt>
      <trkpt lat="45.03836" lon="5.33488">
        <ele>305.4</ele>
        <time>2015-10-18T11:58:08Z</time>
      </trkpt>
      <trkpt lat="45.03824" lon="5.33464">
        <ele>305.4</ele>
        <time>2015-10-18T11:58:09Z</time>
      </trkpt>
      <trkpt lat="45.0381" lon="5.33442">
        <ele>305.4</ele>
        <time>2015-10-18T11:58:10Z</time>
      </trkpt>
      <trkpt lat="45.03692" lon="5.33311">
        <ele>306.3</ele>
        <time>2015-10-18T11:58:18Z</time>
      </trkpt>
      <trkpt lat="45.03613" lon="5.33242">
        <ele>308.2</ele>
        <time>2015-10-18T11:58:25Z</time>
      </trkpt>
      <trkpt lat="45.0361" lon="5.33234">
        <ele>308.2</ele>
        <time>2015-10-18T11:58:26Z</time>
      </trkpt>
      <trkpt lat="45.0361" lon="5.33224">
        <ele>308.2</ele>
        <time>2015-10-18T11:58:27Z</time>
      </trkpt>
      <trkpt lat="45.03632" lon="5.33164">
        <ele>307.3</ele>
        <time>2015-10-18T11:58:31Z</time>
      </trkpt>
      <trkpt lat="45.03635" lon="5.33146">
        <ele>306.8</ele>
        <time>2015-10-18T11:58:32Z</time>
      </trkpt>
      <trkpt lat="45.03634" lon="5.33129">
        <ele>306.8</ele>
        <time>2015-10-18T11:58:33Z</time>
      </trkpt>
      <trkpt lat="45.03627" lon="5.33091">
        <ele>306.3</ele>
        <time>2015-10-18T11:58:35Z</time>
      </trkpt>
      <trkpt lat="45.0361" lon="5.33035">
        <ele>305.8</ele>
        <time>2015-10-18T11:58:38Z</time>
      </trkpt>
      <trkpt lat="45.03507" lon="5.32803">
        <ele>309.2</ele>
        <time>2015-10-18T11:58:52Z</time>
      </trkpt>
      <trkpt lat="45.03461" lon="5.32576">
        <ele>309.7</ele>
        <time>2015-10-18T11:59:02Z</time>
      </trkpt>
      <trkpt lat="45.03447" lon="5.31991">
        <ele>310.2</ele>
        <time>2015-10-18T11:59:28Z</time>
      </trkpt>
      <trkpt lat="45.03454" lon="5.3192">
        <ele>310.2</ele>
        <time>2015-10-18T11:59:33Z</time>
      </trkpt>
      <trkpt lat="45.03458" lon="5.31903">
        <ele>310.2</ele>
        <time>2015-10-18T11:59:35Z</time>
      </trkpt>
      <trkpt lat="45.03459" lon="5.31896">
        <ele>310.2</ele>
        <time>2015-10-18T11:59:36Z</time>
      </trkpt>
      <trkpt lat="45.03456" lon="5.31888">
        <ele>309.7</ele>
        <time>2015-10-18T11:59:37Z</time>
      </trkpt>
      <trkpt lat="45.03452" lon="5.31879">
        <ele>309.7</ele>
        <time>2015-10-18T11:59:38Z</time>
      </trkpt>
      <trkpt lat="45.03447" lon="5.3187">
        <ele>309.7</ele>
        <time>2015-10-18T11:59:39Z</time>
      </trkpt>
      <trkpt lat="45.03442" lon="5.31862">
        <ele>309.7</ele>
        <time>2015-10-18T11:59:40Z</time>
      </trkpt>
      <trkpt lat="45.03434" lon="5.31854">
        <ele>309.2</ele>
        <time>2015-10-18T11:59:42Z</time>
      </trkpt>
      <trkpt lat="45.03349" lon="5.31813">
        <ele>308.7</ele>
        <time>2015-10-18T11:59:56Z</time>
      </trkpt>
      <trkpt lat="45.03261" lon="5.3175">
        <ele>303.4</ele>
        <time>2015-10-18T12:00:04Z</time>
      </trkpt>
      <trkpt lat="45.03248" lon="5.31745">
        <ele>302.5</ele>
        <time>2015-10-18T12:00:05Z</time>
      </trkpt>
      <trkpt lat="45.03235" lon="5.31743">
        <ele>301.5</ele>
        <time>2015-10-18T12:00:06Z</time>
      </trkpt>
      <trkpt lat="45.0321" lon="5.31742">
        <ele>299.6</ele>
        <time>2015-10-18T12:00:08Z</time>
      </trkpt>
      <trkpt lat="45.03187" lon="5.31739">
        <ele>297.2</ele>
        <time>2015-10-18T12:00:10Z</time>
      </trkpt>
      <trkpt lat="45.03178" lon="5.31734">
        <ele>295.7</ele>
        <time>2015-10-18T12:00:11Z</time>
      </trkpt>
      <trkpt lat="45.03171" lon="5.31729">
        <ele>294.8</ele>
        <time>2015-10-18T12:00:12Z</time>
      </trkpt>
      <trkpt lat="45.03166" lon="5.31725">
        <ele>293.8</ele>
        <time>2015-10-18T12:00:13Z</time>
      </trkpt>
      <trkpt lat="45.03164" lon="5.31721">
        <ele>292.4</ele>
        <time>2015-10-18T12:00:14Z</time>
      </trkpt>
      <trkpt lat="45.03168" lon="5.31714">
        <ele>291.9</ele>
        <time>2015-10-18T12:00:18Z</time>
      </trkpt>
      <trkpt lat="45.03172" lon="5.31711">
        <ele>291.9</ele>
        <time>2015-10-18T12:00:19Z</time>
      </trkpt>
      <trkpt lat="45.03206" lon="5.317">
        <ele>290</ele>
        <time>2015-10-18T12:00:23Z</time>
      </trkpt>
      <trkpt lat="45.03214" lon="5.31694">
        <ele>289.5</ele>
        <time>2015-10-18T12:00:24Z</time>
      </trkpt>
      <trkpt lat="45.03221" lon="5.31685">
        <ele>289.5</ele>
        <time>2015-10-18T12:00:25Z</time>
      </trkpt>
      <trkpt lat="45.03225" lon="5.31673">
        <ele>288.5</ele>
        <time>2015-10-18T12:00:26Z</time>
      </trkpt>
      <trkpt lat="45.03227" lon="5.3166">
        <ele>288.1</ele>
        <time>2015-10-18T12:00:27Z</time>
      </trkpt>
      <trkpt lat="45.03226" lon="5.31647">
        <ele>287.6</ele>
        <time>2015-10-18T12:00:28Z</time>
      </trkpt>
      <trkpt lat="45.03221" lon="5.31634">
        <ele>286.6</ele>
        <time>2015-10-18T12:00:29Z</time>
      </trkpt>
      <trkpt lat="45.03189" lon="5.31604">
        <ele>284.2</ele>
        <time>2015-10-18T12:00:32Z</time>
      </trkpt>
      <trkpt lat="45.0318" lon="5.31589">
        <ele>283.3</ele>
        <time>2015-10-18T12:00:33Z</time>
      </trkpt>
      <trkpt lat="45.03177" lon="5.31573">
        <ele>282.3</ele>
        <time>2015-10-18T12:00:34Z</time>
      </trkpt>
      <trkpt lat="45.03178" lon="5.31556">
        <ele>281.3</ele>
        <time>2015-10-18T12:00:35Z</time>
      </trkpt>
      <trkpt lat="45.03204" lon="5.31484">
        <ele>277</ele>
        <time>2015-10-18T12:00:39Z</time>
      </trkpt>
      <trkpt lat="45.03283" lon="5.31137">
        <ele>263.1</ele>
        <time>2015-10-18T12:00:55Z</time>
      </trkpt>
      <trkpt lat="45.03284" lon="5.31118">
        <ele>262.1</ele>
        <time>2015-10-18T12:00:56Z</time>
      </trkpt>
      <trkpt lat="45.03284" lon="5.31101">
        <ele>261.1</ele>
        <time>2015-10-18T12:00:57Z</time>
      </trkpt>
      <trkpt lat="45.03273" lon="5.3103">
        <ele>256.8</ele>
        <time>2015-10-18T12:01:02Z</time>
      </trkpt>
      <trkpt lat="45.03268" lon="5.31023">
        <ele>255.4</ele>
        <time>2015-10-18T12:01:03Z</time>
      </trkpt>
      <trkpt lat="45.0326" lon="5.31019">
        <ele>254.9</ele>
        <time>2015-10-18T12:01:04Z</time>
      </trkpt>
      <trkpt lat="45.03132" lon="5.30978">
        <ele>249.1</ele>
        <time>2015-10-18T12:01:14Z</time>
      </trkpt>
      <trkpt lat="45.03119" lon="5.30979">
        <ele>248.6</ele>
        <time>2015-10-18T12:01:15Z</time>
      </trkpt>
      <trkpt lat="45.02979" lon="5.31027">
        <ele>240</ele>
        <time>2015-10-18T12:01:25Z</time>
      </trkpt>
      <trkpt lat="45.02934" lon="5.31069">
        <ele>235.2</ele>
        <time>2015-10-18T12:01:29Z</time>
      </trkpt>
      <trkpt lat="45.02924" lon="5.31075">
        <ele>234.2</ele>
        <time>2015-10-18T12:01:30Z</time>
      </trkpt>
      <trkpt lat="45.02916" lon="5.31074">
        <ele>233.3</ele>
        <time>2015-10-18T12:01:31Z</time>
      </trkpt>
      <trkpt lat="45.02909" lon="5.31066">
        <ele>232.3</ele>
        <time>2015-10-18T12:01:32Z</time>
      </trkpt>
      <trkpt lat="45.02896" lon="5.31037">
        <ele>231.3</ele>
        <time>2015-10-18T12:01:34Z</time>
      </trkpt>
      <trkpt lat="45.02869" lon="5.30957">
        <ele>231.3</ele>
        <time>2015-10-18T12:01:38Z</time>
      </trkpt>
      <trkpt lat="45.02867" lon="5.30935">
        <ele>231.3</ele>
        <time>2015-10-18T12:01:39Z</time>
      </trkpt>
      <trkpt lat="45.02871" lon="5.30911">
        <ele>233.3</ele>
        <time>2015-10-18T12:01:40Z</time>
      </trkpt>
      <trkpt lat="45.02889" lon="5.30862">
        <ele>236.6</ele>
        <time>2015-10-18T12:01:42Z</time>
      </trkpt>
      <trkpt lat="45.02979" lon="5.30702">
        <ele>247.7</ele>
        <time>2015-10-18T12:01:49Z</time>
      </trkpt>
      <trkpt lat="45.03032" lon="5.30629">
        <ele>253</ele>
        <time>2015-10-18T12:01:53Z</time>
      </trkpt>
      <trkpt lat="45.03041" lon="5.30607">
        <ele>254.4</ele>
        <time>2015-10-18T12:01:54Z</time>
      </trkpt>
      <trkpt lat="45.03047" lon="5.30583">
        <ele>255.9</ele>
        <time>2015-10-18T12:01:55Z</time>
      </trkpt>
      <trkpt lat="45.0309" lon="5.30196">
        <ele>259.2</ele>
        <time>2015-10-18T12:02:10Z</time>
      </trkpt>
      <trkpt lat="45.03088" lon="5.30174">
        <ele>259.2</ele>
        <time>2015-10-18T12:02:11Z</time>
      </trkpt>
      <trkpt lat="45.03081" lon="5.30155">
        <ele>258.7</ele>
        <time>2015-10-18T12:02:12Z</time>
      </trkpt>
      <trkpt lat="45.03072" lon="5.30138">
        <ele>258.3</ele>
        <time>2015-10-18T12:02:13Z</time>
      </trkpt>
      <trkpt lat="45.03059" lon="5.30122">
        <ele>257.8</ele>
        <time>2015-10-18T12:02:14Z</time>
      </trkpt>
      <trkpt lat="45.01987" lon="5.29339">
        <ele>263.1</ele>
        <time>2015-10-18T12:03:35Z</time>
      </trkpt>
      <trkpt lat="45.01837" lon="5.29277">
        <ele>263.1</ele>
        <time>2015-10-18T12:03:51Z</time>
      </trkpt>
      <trkpt lat="45.01822" lon="5.29281">
        <ele>263.5</ele>
        <time>2015-10-18T12:03:53Z</time>
      </trkpt>
      <trkpt lat="45.01788" lon="5.29285">
        <ele>261.6</ele>
        <time>2015-10-18T12:03:57Z</time>
      </trkpt>
      <trkpt lat="45.01781" lon="5.29282">
        <ele>261.6</ele>
        <time>2015-10-18T12:03:58Z</time>
      </trkpt>
      <trkpt lat="45.01775" lon="5.29276">
        <ele>261.6</ele>
        <time>2015-10-18T12:03:59Z</time>
      </trkpt>
      <trkpt lat="45.01763" lon="5.29259">
        <ele>261.1</ele>
        <time>2015-10-18T12:04:01Z</time>
      </trkpt>
      <trkpt lat="45.01736" lon="5.29231">
        <ele>262.1</ele>
        <time>2015-10-18T12:04:05Z</time>
      </trkpt>
      <trkpt lat="45.01729" lon="5.29226">
        <ele>262.1</ele>
        <time>2015-10-18T12:04:06Z</time>
      </trkpt>
      <trkpt lat="45.01461" lon="5.29126">
        <ele>265.5</ele>
        <time>2015-10-18T12:04:38Z</time>
      </trkpt>
      <trkpt lat="45.01452" lon="5.29124">
        <ele>265.9</ele>
        <time>2015-10-18T12:04:39Z</time>
      </trkpt>
      <trkpt lat="45.01445" lon="5.29124">
        <ele>266.4</ele>
        <time>2015-10-18T12:04:40Z</time>
      </trkpt>
      <trkpt lat="45.01437" lon="5.29124">
        <ele>266.9</ele>
        <time>2015-10-18T12:04:41Z</time>
      </trkpt>
      <trkpt lat="45.01429" lon="5.29123">
        <ele>266.9</ele>
        <time>2015-10-18T12:04:42Z</time>
      </trkpt>
      <trkpt lat="45.0142" lon="5.29119">
        <ele>267.4</ele>
        <time>2015-10-18T12:04:43Z</time>
      </trkpt>
      <trkpt lat="45.0114" lon="5.29038">
        <ele>283.7</ele>
        <time>2015-10-18T12:05:10Z</time>
      </trkpt>
      <trkpt lat="45.01073" lon="5.29048">
        <ele>289</ele>
        <time>2015-10-18T12:05:15Z</time>
      </trkpt>
      <trkpt lat="45.01059" lon="5.29055">
        <ele>290.5</ele>
        <time>2015-10-18T12:05:16Z</time>
      </trkpt>
      <trkpt lat="45.00711" lon="5.29306">
        <ele>324.1</ele>
        <time>2015-10-18T12:05:43Z</time>
      </trkpt>
      <trkpt lat="45.00683" lon="5.29331">
        <ele>327.5</ele>
        <time>2015-10-18T12:05:45Z</time>
      </trkpt>
      <trkpt lat="45.00672" lon="5.29346">
        <ele>328.9</ele>
        <time>2015-10-18T12:05:46Z</time>
      </trkpt>
      <trkpt lat="45.00662" lon="5.29365">
        <ele>329.9</ele>
        <time>2015-10-18T12:05:47Z</time>
      </trkpt>
      <trkpt lat="45.00599" lon="5.29551">
        <ele>341.9</ele>
        <time>2015-10-18T12:05:55Z</time>
      </trkpt>
      <trkpt lat="45.00598" lon="5.29576">
        <ele>343.3</ele>
        <time>2015-10-18T12:05:56Z</time>
      </trkpt>
      <trkpt lat="45.00618" lon="5.29656">
        <ele>348.1</ele>
        <time>2015-10-18T12:05:59Z</time>
      </trkpt>
      <trkpt lat="45.00749" lon="5.30002">
        <ele>373.1</ele>
        <time>2015-10-18T12:06:13Z</time>
      </trkpt>
      <trkpt lat="45.00757" lon="5.30094">
        <ele>381.3</ele>
        <time>2015-10-18T12:06:18Z</time>
      </trkpt>
      <trkpt lat="45.00745" lon="5.3009">
        <ele>382.7</ele>
        <time>2015-10-18T12:06:20Z</time>
      </trkpt>
      <trkpt lat="45.00741" lon="5.30082">
        <ele>383.2</ele>
        <time>2015-10-18T12:06:21Z</time>
      </trkpt>
      <trkpt lat="45.00736" lon="5.3005">
        <ele>385.2</ele>
        <time>2015-10-18T12:06:24Z</time>
      </trkpt>
      <trkpt lat="45.00691" lon="5.29948">
        <ele>387.6</ele>
        <time>2015-10-18T12:06:31Z</time>
      </trkpt>
      <trkpt lat="45.00637" lon="5.29861">
        <ele>391.4</ele>
        <time>2015-10-18T12:06:36Z</time>
      </trkpt>
      <trkpt lat="45.00586" lon="5.29804">
        <ele>397.6</ele>
        <time>2015-10-18T12:06:40Z</time>
      </trkpt>
      <trkpt lat="45.00379" lon="5.29652">
        <ele>421.2</ele>
        <time>2015-10-18T12:06:53Z</time>
      </trkpt>
      <trkpt lat="45.00362" lon="5.29647">
        <ele>423.1</ele>
        <time>2015-10-18T12:06:54Z</time>
      </trkpt>
      <trkpt lat="45.00344" lon="5.29647">
        <ele>424.1</ele>
        <time>2015-10-18T12:06:55Z</time>
      </trkpt>
      <trkpt lat="45.00304" lon="5.2965">
        <ele>427.4</ele>
        <time>2015-10-18T12:06:57Z</time>
      </trkpt>
      <trkpt lat="45.00049" lon="5.29728">
        <ele>451</ele>
        <time>2015-10-18T12:07:12Z</time>
      </trkpt>
      <trkpt lat="45.00036" lon="5.29735">
        <ele>452</ele>
        <time>2015-10-18T12:07:13Z</time>
      </trkpt>
      <trkpt lat="45.00026" lon="5.29744">
        <ele>453.4</ele>
        <time>2015-10-18T12:07:14Z</time>
      </trkpt>
      <trkpt lat="45.00008" lon="5.29766">
        <ele>455.8</ele>
        <time>2015-10-18T12:07:16Z</time>
      </trkpt>
      <trkpt lat="44.99997" lon="5.29774">
        <ele>457.2</ele>
        <time>2015-10-18T12:07:17Z</time>
      </trkpt>
      <trkpt lat="44.99984" lon="5.29781">
        <ele>458.2</ele>
        <time>2015-10-18T12:07:18Z</time>
      </trkpt>
      <trkpt lat="44.99954" lon="5.29775">
        <ele>462.1</ele>
        <time>2015-10-18T12:07:20Z</time>
      </trkpt>
      <trkpt lat="44.99939" lon="5.29766">
        <ele>464</ele>
        <time>2015-10-18T12:07:21Z</time>
      </trkpt>
      <trkpt lat="44.999" lon="5.29752">
        <ele>465.4</ele>
        <time>2015-10-18T12:07:24Z</time>
      </trkpt>
      <trkpt lat="44.99874" lon="5.29748">
        <ele>467.8</ele>
        <time>2015-10-18T12:07:26Z</time>
      </trkpt>
      <trkpt lat="44.99861" lon="5.29744">
        <ele>468.8</ele>
        <time>2015-10-18T12:07:27Z</time>
      </trkpt>
      <trkpt lat="44.99836" lon="5.29726">
        <ele>472.1</ele>
        <time>2015-10-18T12:07:29Z</time>
      </trkpt>
      <trkpt lat="44.99796" lon="5.29705">
        <ele>476</ele>
        <time>2015-10-18T12:07:32Z</time>
      </trkpt>
      <trkpt lat="44.99785" lon="5.29695">
        <ele>477.9</ele>
        <time>2015-10-18T12:07:33Z</time>
      </trkpt>
      <trkpt lat="44.99775" lon="5.29682">
        <ele>479.4</ele>
        <time>2015-10-18T12:07:34Z</time>
      </trkpt>
      <trkpt lat="44.9973" lon="5.29598">
        <ele>486.1</ele>
        <time>2015-10-18T12:07:40Z</time>
      </trkpt>
      <trkpt lat="44.99727" lon="5.29582">
        <ele>487.1</ele>
        <time>2015-10-18T12:07:41Z</time>
      </trkpt>
      <trkpt lat="44.99726" lon="5.29564">
        <ele>488</ele>
        <time>2015-10-18T12:07:42Z</time>
      </trkpt>
      <trkpt lat="44.99731" lon="5.29547">
        <ele>489</ele>
        <time>2015-10-18T12:07:43Z</time>
      </trkpt>
      <trkpt lat="44.99739" lon="5.29531">
        <ele>489.9</ele>
        <time>2015-10-18T12:07:44Z</time>
      </trkpt>
      <trkpt lat="44.9979" lon="5.29466">
        <ele>495.7</ele>
        <time>2015-10-18T12:07:49Z</time>
      </trkpt>
      <trkpt lat="44.99801" lon="5.29457">
        <ele>497.1</ele>
        <time>2015-10-18T12:07:50Z</time>
      </trkpt>
      <trkpt lat="44.99828" lon="5.29426">
        <ele>500.5</ele>
        <time>2015-10-18T12:07:53Z</time>
      </trkpt>
      <trkpt lat="44.99835" lon="5.29411">
        <ele>501.5</ele>
        <time>2015-10-18T12:07:54Z</time>
      </trkpt>
      <trkpt lat="44.99839" lon="5.29394">
        <ele>502</ele>
        <time>2015-10-18T12:07:55Z</time>
      </trkpt>
      <trkpt lat="44.99843" lon="5.2936">
        <ele>503.9</ele>
        <time>2015-10-18T12:07:57Z</time>
      </trkpt>
      <trkpt lat="44.9984" lon="5.29323">
        <ele>506.3</ele>
        <time>2015-10-18T12:07:59Z</time>
      </trkpt>
      <trkpt lat="44.9983" lon="5.29288">
        <ele>507.7</ele>
        <time>2015-10-18T12:08:01Z</time>
      </trkpt>
      <trkpt lat="44.99823" lon="5.2927">
        <ele>508.7</ele>
        <time>2015-10-18T12:08:02Z</time>
      </trkpt>
      <trkpt lat="44.99814" lon="5.29256">
        <ele>509.2</ele>
        <time>2015-10-18T12:08:03Z</time>
      </trkpt>
      <trkpt lat="44.99805" lon="5.29243">
        <ele>510.6</ele>
        <time>2015-10-18T12:08:04Z</time>
      </trkpt>
      <trkpt lat="44.99711" lon="5.2915">
        <ele>521.2</ele>
        <time>2015-10-18T12:08:12Z</time>
      </trkpt>
      <trkpt lat="44.99701" lon="5.29135">
        <ele>522.1</ele>
        <time>2015-10-18T12:08:13Z</time>
      </trkpt>
      <trkpt lat="44.99679" lon="5.29086">
        <ele>526.5</ele>
        <time>2015-10-18T12:08:17Z</time>
      </trkpt>
      <trkpt lat="44.99673" lon="5.29081">
        <ele>526.5</ele>
        <time>2015-10-18T12:08:18Z</time>
      </trkpt>
      <trkpt lat="44.99668" lon="5.29083">
        <ele>526.9</ele>
        <time>2015-10-18T12:08:19Z</time>
      </trkpt>
      <trkpt lat="44.99666" lon="5.29114">
        <ele>528.4</ele>
        <time>2015-10-18T12:08:22Z</time>
      </trkpt>
      <trkpt lat="44.99683" lon="5.2914">
        <ele>530.3</ele>
        <time>2015-10-18T12:08:24Z</time>
      </trkpt>
      <trkpt lat="44.99716" lon="5.29228">
        <ele>535.6</ele>
        <time>2015-10-18T12:08:29Z</time>
      </trkpt>
      <trkpt lat="44.99753" lon="5.29285">
        <ele>538.5</ele>
        <time>2015-10-18T12:08:33Z</time>
      </trkpt>
      <trkpt lat="44.99768" lon="5.29322">
        <ele>541.4</ele>
        <time>2015-10-18T12:08:35Z</time>
      </trkpt>
      <trkpt lat="44.99772" lon="5.2934">
        <ele>542.8</ele>
        <time>2015-10-18T12:08:36Z</time>
      </trkpt>
      <trkpt lat="44.99771" lon="5.29356">
        <ele>543.3</ele>
        <time>2015-10-18T12:08:37Z</time>
      </trkpt>
      <trkpt lat="44.99768" lon="5.29373">
        <ele>544.2</ele>
        <time>2015-10-18T12:08:38Z</time>
      </trkpt>
      <trkpt lat="44.99757" lon="5.29384">
        <ele>545.7</ele>
        <time>2015-10-18T12:08:39Z</time>
      </trkpt>
      <trkpt lat="44.99725" lon="5.29394">
        <ele>549.5</ele>
        <time>2015-10-18T12:08:41Z</time>
      </trkpt>
      <trkpt lat="44.99709" lon="5.29395">
        <ele>551.9</ele>
        <time>2015-10-18T12:08:42Z</time>
      </trkpt>
      <trkpt lat="44.99663" lon="5.29385">
        <ele>556.7</ele>
        <time>2015-10-18T12:08:45Z</time>
      </trkpt>
      <trkpt lat="44.99649" lon="5.29384">
        <ele>558.2</ele>
        <time>2015-10-18T12:08:46Z</time>
      </trkpt>
      <trkpt lat="44.99514" lon="5.2943">
        <ele>570.7</ele>
        <time>2015-10-18T12:08:55Z</time>
      </trkpt>
      <trkpt lat="44.99498" lon="5.29434">
        <ele>571.6</ele>
        <time>2015-10-18T12:08:56Z</time>
      </trkpt>
      <trkpt lat="44.99456" lon="5.29458">
        <ele>573.6</ele>
        <time>2015-10-18T12:08:59Z</time>
      </trkpt>
      <trkpt lat="44.99445" lon="5.29474">
        <ele>574.5</ele>
        <time>2015-10-18T12:09:00Z</time>
      </trkpt>
      <trkpt lat="44.99432" lon="5.29486">
        <ele>576</ele>
        <time>2015-10-18T12:09:01Z</time>
      </trkpt>
      <trkpt lat="44.9939" lon="5.29546">
        <ele>581.3</ele>
        <time>2015-10-18T12:09:06Z</time>
      </trkpt>
      <trkpt lat="44.99388" lon="5.29564">
        <ele>582.2</ele>
        <time>2015-10-18T12:09:07Z</time>
      </trkpt>
      <trkpt lat="44.99389" lon="5.29584">
        <ele>584.1</ele>
        <time>2015-10-18T12:09:08Z</time>
      </trkpt>
      <trkpt lat="44.99478" lon="5.2992">
        <ele>609.6</ele>
        <time>2015-10-18T12:09:26Z</time>
      </trkpt>
      <trkpt lat="44.99484" lon="5.29933">
        <ele>611.1</ele>
        <time>2015-10-18T12:09:27Z</time>
      </trkpt>
      <trkpt lat="44.99596" lon="5.30033">
        <ele>624.5</ele>
        <time>2015-10-18T12:09:38Z</time>
      </trkpt>
      <trkpt lat="44.99611" lon="5.30042">
        <ele>626</ele>
        <time>2015-10-18T12:09:39Z</time>
      </trkpt>
      <trkpt lat="44.99659" lon="5.30062">
        <ele>629.8</ele>
        <time>2015-10-18T12:09:42Z</time>
      </trkpt>
      <trkpt lat="44.99673" lon="5.30071">
        <ele>631.2</ele>
        <time>2015-10-18T12:09:43Z</time>
      </trkpt>
      <trkpt lat="44.99742" lon="5.30132">
        <ele>638</ele>
        <time>2015-10-18T12:09:48Z</time>
      </trkpt>
      <trkpt lat="44.99758" lon="5.30141">
        <ele>639.4</ele>
        <time>2015-10-18T12:09:49Z</time>
      </trkpt>
      <trkpt lat="44.99775" lon="5.30147">
        <ele>640.4</ele>
        <time>2015-10-18T12:09:50Z</time>
      </trkpt>
      <trkpt lat="44.9982" lon="5.30154">
        <ele>642.8</ele>
        <time>2015-10-18T12:09:53Z</time>
      </trkpt>
      <trkpt lat="44.99834" lon="5.3016">
        <ele>644.2</ele>
        <time>2015-10-18T12:09:54Z</time>
      </trkpt>
      <trkpt lat="44.99973" lon="5.30272">
        <ele>659.6</ele>
        <time>2015-10-18T12:10:03Z</time>
      </trkpt>
      <trkpt lat="45.00097" lon="5.30409">
        <ele>676.4</ele>
        <time>2015-10-18T12:10:12Z</time>
      </trkpt>
      <trkpt lat="45.00123" lon="5.30452">
        <ele>680.8</ele>
        <time>2015-10-18T12:10:15Z</time>
      </trkpt>
      <trkpt lat="45.00127" lon="5.30469">
        <ele>682.7</ele>
        <time>2015-10-18T12:10:16Z</time>
      </trkpt>
      <trkpt lat="45.00129" lon="5.30488">
        <ele>684.1</ele>
        <time>2015-10-18T12:10:17Z</time>
      </trkpt>
      <trkpt lat="45.00152" lon="5.30583">
        <ele>689.9</ele>
        <time>2015-10-18T12:10:22Z</time>
      </trkpt>
      <trkpt lat="45.0021" lon="5.30662">
        <ele>696.6</ele>
        <time>2015-10-18T12:10:27Z</time>
      </trkpt>
      <trkpt lat="45.00218" lon="5.30679">
        <ele>698.1</ele>
        <time>2015-10-18T12:10:28Z</time>
      </trkpt>
      <trkpt lat="45.00224" lon="5.30698">
        <ele>699.5</ele>
        <time>2015-10-18T12:10:29Z</time>
      </trkpt>
      <trkpt lat="45.00263" lon="5.30883">
        <ele>712</ele>
        <time>2015-10-18T12:10:38Z</time>
      </trkpt>
      <trkpt lat="45.00269" lon="5.309">
        <ele>713.4</ele>
        <time>2015-10-18T12:10:39Z</time>
      </trkpt>
      <trkpt lat="45.00278" lon="5.30914">
        <ele>714.9</ele>
        <time>2015-10-18T12:10:40Z</time>
      </trkpt>
      <trkpt lat="45.00545" lon="5.31181">
        <ele>745.6</ele>
        <time>2015-10-18T12:11:01Z</time>
      </trkpt>
      <trkpt lat="45.00571" lon="5.31193">
        <ele>748</ele>
        <time>2015-10-18T12:11:03Z</time>
      </trkpt>
      <trkpt lat="45.00583" lon="5.31194">
        <ele>749</ele>
        <time>2015-10-18T12:11:04Z</time>
      </trkpt>
      <trkpt lat="45.00591" lon="5.31192">
        <ele>750.9</ele>
        <time>2015-10-18T12:11:05Z</time>
      </trkpt>
      <trkpt lat="45.00598" lon="5.31198">
        <ele>751.9</ele>
        <time>2015-10-18T12:11:06Z</time>
      </trkpt>
      <trkpt lat="45.00762" lon="5.31674">
        <ele>782.7</ele>
        <time>2015-10-18T12:11:27Z</time>
      </trkpt>
      <trkpt lat="45.00834" lon="5.31813">
        <ele>794.2</ele>
        <time>2015-10-18T12:11:34Z</time>
      </trkpt>
      <trkpt lat="45.00886" lon="5.31884">
        <ele>801.9</ele>
        <time>2015-10-18T12:11:40Z</time>
      </trkpt>
      <trkpt lat="45.00888" lon="5.31894">
        <ele>802.8</ele>
        <time>2015-10-18T12:11:41Z</time>
      </trkpt>
      <trkpt lat="45.00886" lon="5.31903">
        <ele>803.8</ele>
        <time>2015-10-18T12:11:42Z</time>
      </trkpt>
      <trkpt lat="45.00881" lon="5.3191">
        <ele>804.3</ele>
        <time>2015-10-18T12:11:43Z</time>
      </trkpt>
      <trkpt lat="45.00872" lon="5.31914">
        <ele>805.2</ele>
        <time>2015-10-18T12:11:44Z</time>
      </trkpt>
      <trkpt lat="45.00848" lon="5.31917">
        <ele>806.7</ele>
        <time>2015-10-18T12:11:46Z</time>
      </trkpt>
      <trkpt lat="45.00664" lon="5.31968">
        <ele>820.1</ele>
        <time>2015-10-18T12:11:57Z</time>
      </trkpt>
      <trkpt lat="45.00647" lon="5.31968">
        <ele>821.6</ele>
        <time>2015-10-18T12:11:58Z</time>
      </trkpt>
      <trkpt lat="45.00536" lon="5.31947">
        <ele>832.6</ele>
        <time>2015-10-18T12:12:04Z</time>
      </trkpt>
      <trkpt lat="45.00516" lon="5.31948">
        <ele>834.6</ele>
        <time>2015-10-18T12:12:05Z</time>
      </trkpt>
      <trkpt lat="45.0037" lon="5.31975">
        <ele>849</ele>
        <time>2015-10-18T12:12:13Z</time>
      </trkpt>
      <trkpt lat="45.00356" lon="5.31985">
        <ele>850.4</ele>
        <time>2015-10-18T12:12:14Z</time>
      </trkpt>
      <trkpt lat="45.00344" lon="5.31997">
        <ele>851.9</ele>
        <time>2015-10-18T12:12:15Z</time>
      </trkpt>
      <trkpt lat="45.00333" lon="5.3201">
        <ele>852.8</ele>
        <time>2015-10-18T12:12:16Z</time>
      </trkpt>
      <trkpt lat="45.00316" lon="5.32039">
        <ele>854.8</ele>
        <time>2015-10-18T12:12:18Z</time>
      </trkpt>
      <trkpt lat="45.00309" lon="5.32056">
        <ele>855.7</ele>
        <time>2015-10-18T12:12:19Z</time>
      </trkpt>
      <trkpt lat="45.00304" lon="5.32074">
        <ele>856.2</ele>
        <time>2015-10-18T12:12:20Z</time>
      </trkpt>
      <trkpt lat="45.00295" lon="5.32157">
        <ele>859.1</ele>
        <time>2015-10-18T12:12:24Z</time>
      </trkpt>
      <trkpt lat="45.00296" lon="5.32178">
        <ele>859.6</ele>
        <time>2015-10-18T12:12:25Z</time>
      </trkpt>
      <trkpt lat="45.00299" lon="5.32199">
        <ele>860</ele>
        <time>2015-10-18T12:12:26Z</time>
      </trkpt>
      <trkpt lat="45.00309" lon="5.32219">
        <ele>860.5</ele>
        <time>2015-10-18T12:12:27Z</time>
      </trkpt>
      <trkpt lat="45.0032" lon="5.32235">
        <ele>861.5</ele>
        <time>2015-10-18T12:12:28Z</time>
      </trkpt>
      <trkpt lat="45.00333" lon="5.32249">
        <ele>862</ele>
        <time>2015-10-18T12:12:29Z</time>
      </trkpt>
      <trkpt lat="45.0036" lon="5.32269">
        <ele>863.9</ele>
        <time>2015-10-18T12:12:31Z</time>
      </trkpt>
      <trkpt lat="45.00556" lon="5.32535">
        <ele>878.3</ele>
        <time>2015-10-18T12:12:46Z</time>
      </trkpt>
      <trkpt lat="45.00564" lon="5.32553">
        <ele>878.8</ele>
        <time>2015-10-18T12:12:47Z</time>
      </trkpt>
      <trkpt lat="45.00569" lon="5.32572">
        <ele>879.7</ele>
        <time>2015-10-18T12:12:48Z</time>
      </trkpt>
      <trkpt lat="45.0057" lon="5.32593">
        <ele>880.7</ele>
        <time>2015-10-18T12:12:49Z</time>
      </trkpt>
      <trkpt lat="45.00553" lon="5.32647">
        <ele>883.1</ele>
        <time>2015-10-18T12:12:52Z</time>
      </trkpt>
      <trkpt lat="45.00549" lon="5.32665">
        <ele>883.6</ele>
        <time>2015-10-18T12:12:53Z</time>
      </trkpt>
      <trkpt lat="45.00551" lon="5.32685">
        <ele>884.6</ele>
        <time>2015-10-18T12:12:54Z</time>
      </trkpt>
      <trkpt lat="45.00558" lon="5.32705">
        <ele>885</ele>
        <time>2015-10-18T12:12:55Z</time>
      </trkpt>
      <trkpt lat="45.00588" lon="5.32757">
        <ele>887.4</ele>
        <time>2015-10-18T12:12:58Z</time>
      </trkpt>
      <trkpt lat="45.00595" lon="5.32775">
        <ele>888.4</ele>
        <time>2015-10-18T12:12:59Z</time>
      </trkpt>
      <trkpt lat="45.00598" lon="5.32796">
        <ele>889.4</ele>
        <time>2015-10-18T12:13:00Z</time>
      </trkpt>
      <trkpt lat="45.00595" lon="5.32838">
        <ele>890.8</ele>
        <time>2015-10-18T12:13:02Z</time>
      </trkpt>
      <trkpt lat="45.00588" lon="5.32858">
        <ele>892.2</ele>
        <time>2015-10-18T12:13:03Z</time>
      </trkpt>
      <trkpt lat="45.00577" lon="5.32877">
        <ele>893.2</ele>
        <time>2015-10-18T12:13:04Z</time>
      </trkpt>
      <trkpt lat="45.00504" lon="5.32973">
        <ele>900.4</ele>
        <time>2015-10-18T12:13:10Z</time>
      </trkpt>
      <trkpt lat="45.00491" lon="5.32983">
        <ele>901.9</ele>
        <time>2015-10-18T12:13:11Z</time>
      </trkpt>
      <trkpt lat="45.00475" lon="5.3299">
        <ele>902.8</ele>
        <time>2015-10-18T12:13:12Z</time>
      </trkpt>
      <trkpt lat="45.00457" lon="5.32994">
        <ele>903.8</ele>
        <time>2015-10-18T12:13:13Z</time>
      </trkpt>
      <trkpt lat="45.0021" lon="5.33008">
        <ele>919.6</ele>
        <time>2015-10-18T12:13:29Z</time>
      </trkpt>
      <trkpt lat="45.00199" lon="5.33013">
        <ele>920.1</ele>
        <time>2015-10-18T12:13:30Z</time>
      </trkpt>
      <trkpt lat="45.00189" lon="5.3302">
        <ele>920.1</ele>
        <time>2015-10-18T12:13:31Z</time>
      </trkpt>
      <trkpt lat="45.0018" lon="5.33027">
        <ele>920.1</ele>
        <time>2015-10-18T12:13:32Z</time>
      </trkpt>
      <trkpt lat="45.00173" lon="5.33036">
        <ele>920.1</ele>
        <time>2015-10-18T12:13:33Z</time>
      </trkpt>
      <trkpt lat="45.00169" lon="5.33047">
        <ele>919.2</ele>
        <time>2015-10-18T12:13:34Z</time>
      </trkpt>
      <trkpt lat="45.00188" lon="5.33153">
        <ele>917.7</ele>
        <time>2015-10-18T12:13:46Z</time>
      </trkpt>
      <trkpt lat="45.00187" lon="5.33172">
        <ele>918.2</ele>
        <time>2015-10-18T12:13:49Z</time>
      </trkpt>
      <trkpt lat="45.00184" lon="5.33187">
        <ele>918.7</ele>
        <time>2015-10-18T12:13:51Z</time>
      </trkpt>
      <trkpt lat="45.00179" lon="5.33201">
        <ele>918.7</ele>
        <time>2015-10-18T12:13:53Z</time>
      </trkpt>
      <trkpt lat="45.00029" lon="5.33301">
        <ele>919.2</ele>
        <time>2015-10-18T12:14:18Z</time>
      </trkpt>
      <trkpt lat="45.00027" lon="5.33308">
        <ele>919.2</ele>
        <time>2015-10-18T12:14:19Z</time>
      </trkpt>
      <trkpt lat="45.00016" lon="5.33329">
        <ele>919.2</ele>
        <time>2015-10-18T12:14:22Z</time>
      </trkpt>
      <trkpt lat="45.00012" lon="5.33334">
        <ele>918.7</ele>
        <time>2015-10-18T12:14:23Z</time>
      </trkpt>
      <trkpt lat="45.00007" lon="5.33338">
        <ele>919.2</ele>
        <time>2015-10-18T12:14:24Z</time>
      </trkpt>
      <trkpt lat="44.99923" lon="5.33385">
        <ele>925.4</ele>
        <time>2015-10-18T12:14:38Z</time>
      </trkpt>
      <trkpt lat="44.99896" lon="5.33393">
        <ele>923.5</ele>
        <time>2015-10-18T12:14:41Z</time>
      </trkpt>
      <trkpt lat="44.99886" lon="5.33398">
        <ele>923</ele>
        <time>2015-10-18T12:14:42Z</time>
      </trkpt>
      <trkpt lat="44.99869" lon="5.33412">
        <ele>922.5</ele>
        <time>2015-10-18T12:14:44Z</time>
      </trkpt>
      <trkpt lat="44.99861" lon="5.33421">
        <ele>923.5</ele>
        <time>2015-10-18T12:14:45Z</time>
      </trkpt>
      <trkpt lat="44.99828" lon="5.33446">
        <ele>924.9</ele>
        <time>2015-10-18T12:14:49Z</time>
      </trkpt>
      <trkpt lat="44.99692" lon="5.33475">
        <ele>923.5</ele>
        <time>2015-10-18T12:15:06Z</time>
      </trkpt>
      <trkpt lat="44.99682" lon="5.33473">
        <ele>923.5</ele>
        <time>2015-10-18T12:15:07Z</time>
      </trkpt>
      <trkpt lat="44.99671" lon="5.33468">
        <ele>923.5</ele>
        <time>2015-10-18T12:15:08Z</time>
      </trkpt>
      <trkpt lat="44.99651" lon="5.33452">
        <ele>920.1</ele>
        <time>2015-10-18T12:15:10Z</time>
      </trkpt>
      <trkpt lat="44.99528" lon="5.33395">
        <ele>925.9</ele>
        <time>2015-10-18T12:15:23Z</time>
      </trkpt>
      <trkpt lat="44.995" lon="5.33387">
        <ele>928.3</ele>
        <time>2015-10-18T12:15:26Z</time>
      </trkpt>
      <trkpt lat="44.99493" lon="5.3339">
        <ele>930.7</ele>
        <time>2015-10-18T12:15:27Z</time>
      </trkpt>
      <trkpt lat="44.99483" lon="5.33391">
        <ele>931.2</ele>
        <time>2015-10-18T12:15:28Z</time>
      </trkpt>
      <trkpt lat="44.99447" lon="5.334">
        <ele>941.8</ele>
        <time>2015-10-18T12:15:32Z</time>
      </trkpt>
      <trkpt lat="44.99439" lon="5.334">
        <ele>946.1</ele>
        <time>2015-10-18T12:15:33Z</time>
      </trkpt>
      <trkpt lat="44.99407" lon="5.33397">
        <ele>954.7</ele>
        <time>2015-10-18T12:15:37Z</time>
      </trkpt>
      <trkpt lat="44.99399" lon="5.33399">
        <ele>955.7</ele>
        <time>2015-10-18T12:15:38Z</time>
      </trkpt>
      <trkpt lat="44.99337" lon="5.33417">
        <ele>961.9</ele>
        <time>2015-10-18T12:15:46Z</time>
      </trkpt>
      <trkpt lat="44.99329" lon="5.33416">
        <ele>961.9</ele>
        <time>2015-10-18T12:15:47Z</time>
      </trkpt>
      <trkpt lat="44.99321" lon="5.33415">
        <ele>962.4</ele>
        <time>2015-10-18T12:15:48Z</time>
      </trkpt>
      <trkpt lat="44.99304" lon="5.33408">
        <ele>961.5</ele>
        <time>2015-10-18T12:15:50Z</time>
      </trkpt>
      <trkpt lat="44.99286" lon="5.33405">
        <ele>962.4</ele>
        <time>2015-10-18T12:15:52Z</time>
      </trkpt>
      <trkpt lat="44.99259" lon="5.33406">
        <ele>962.4</ele>
        <time>2015-10-18T12:15:55Z</time>
      </trkpt>
      <trkpt lat="44.9925" lon="5.33404">
        <ele>962.4</ele>
        <time>2015-10-18T12:15:56Z</time>
      </trkpt>
      <trkpt lat="44.9918" lon="5.33379">
        <ele>963.4</ele>
        <time>2015-10-18T12:16:03Z</time>
      </trkpt>
      <trkpt lat="44.99169" lon="5.33377">
        <ele>963.9</ele>
        <time>2015-10-18T12:16:04Z</time>
      </trkpt>
      <trkpt lat="44.99032" lon="5.33386">
        <ele>972.5</ele>
        <time>2015-10-18T12:16:14Z</time>
      </trkpt>
      <trkpt lat="44.99018" lon="5.33383">
        <ele>974.4</ele>
        <time>2015-10-18T12:16:15Z</time>
      </trkpt>
      <trkpt lat="44.99004" lon="5.33377">
        <ele>975.9</ele>
        <time>2015-10-18T12:16:16Z</time>
      </trkpt>
      <trkpt lat="44.98952" lon="5.33344">
        <ele>980.7</ele>
        <time>2015-10-18T12:16:20Z</time>
      </trkpt>
      <trkpt lat="44.98941" lon="5.33333">
        <ele>981.6</ele>
        <time>2015-10-18T12:16:21Z</time>
      </trkpt>
      <trkpt lat="44.98932" lon="5.33319">
        <ele>983.1</ele>
        <time>2015-10-18T12:16:22Z</time>
      </trkpt>
      <trkpt lat="44.98908" lon="5.33276">
        <ele>986</ele>
        <time>2015-10-18T12:16:25Z</time>
      </trkpt>
      <trkpt lat="44.98893" lon="5.33257">
        <ele>986.9</ele>
        <time>2015-10-18T12:16:27Z</time>
      </trkpt>
      <trkpt lat="44.9888" lon="5.3326">
        <ele>988.4</ele>
        <time>2015-10-18T12:16:28Z</time>
      </trkpt>
      <trkpt lat="44.9887" lon="5.33265">
        <ele>989.3</ele>
        <time>2015-10-18T12:16:29Z</time>
      </trkpt>
      <trkpt lat="44.98825" lon="5.33349">
        <ele>989.8</ele>
        <time>2015-10-18T12:16:35Z</time>
      </trkpt>
      <trkpt lat="44.98815" lon="5.33359">
        <ele>989.8</ele>
        <time>2015-10-18T12:16:36Z</time>
      </trkpt>
      <trkpt lat="44.98803" lon="5.33364">
        <ele>988.4</ele>
        <time>2015-10-18T12:16:37Z</time>
      </trkpt>
      <trkpt lat="44.9879" lon="5.33363">
        <ele>987.9</ele>
        <time>2015-10-18T12:16:38Z</time>
      </trkpt>
      <trkpt lat="44.98778" lon="5.33356">
        <ele>987.9</ele>
        <time>2015-10-18T12:16:39Z</time>
      </trkpt>
      <trkpt lat="44.9872" lon="5.33318">
        <ele>989.3</ele>
        <time>2015-10-18T12:16:44Z</time>
      </trkpt>
      <trkpt lat="44.98602" lon="5.33281">
        <ele>990.8</ele>
        <time>2015-10-18T12:16:54Z</time>
      </trkpt>
      <trkpt lat="44.9857" lon="5.33262">
        <ele>990.8</ele>
        <time>2015-10-18T12:16:57Z</time>
      </trkpt>
      <trkpt lat="44.9856" lon="5.33258">
        <ele>991.3</ele>
        <time>2015-10-18T12:16:58Z</time>
      </trkpt>
      <trkpt lat="44.98551" lon="5.33257">
        <ele>991.7</ele>
        <time>2015-10-18T12:16:59Z</time>
      </trkpt>
      <trkpt lat="44.98439" lon="5.33258">
        <ele>993.2</ele>
        <time>2015-10-18T12:17:09Z</time>
      </trkpt>
      <trkpt lat="44.98393" lon="5.3327">
        <ele>993.7</ele>
        <time>2015-10-18T12:17:12Z</time>
      </trkpt>
      <trkpt lat="44.98351" lon="5.33294">
        <ele>994.6</ele>
        <time>2015-10-18T12:17:15Z</time>
      </trkpt>
      <trkpt lat="44.98338" lon="5.33298">
        <ele>995.1</ele>
        <time>2015-10-18T12:17:16Z</time>
      </trkpt>
      <trkpt lat="44.9831" lon="5.33302">
        <ele>995.6</ele>
        <time>2015-10-18T12:17:18Z</time>
      </trkpt>
      <trkpt lat="44.98297" lon="5.33306">
        <ele>995.6</ele>
        <time>2015-10-18T12:17:19Z</time>
      </trkpt>
      <trkpt lat="44.98273" lon="5.33316">
        <ele>996.1</ele>
        <time>2015-10-18T12:17:21Z</time>
      </trkpt>
      <trkpt lat="44.98262" lon="5.33319">
        <ele>996.1</ele>
        <time>2015-10-18T12:17:22Z</time>
      </trkpt>
      <trkpt lat="44.98251" lon="5.33319">
        <ele>996.1</ele>
        <time>2015-10-18T12:17:23Z</time>
      </trkpt>
      <trkpt lat="44.9816" lon="5.33305">
        <ele>997.5</ele>
        <time>2015-10-18T12:17:30Z</time>
      </trkpt>
      <trkpt lat="44.98124" lon="5.33311">
        <ele>998</ele>
        <time>2015-10-18T12:17:33Z</time>
      </trkpt>
      <trkpt lat="44.98112" lon="5.33309">
        <ele>998.5</ele>
        <time>2015-10-18T12:17:34Z</time>
      </trkpt>
      <trkpt lat="44.98056" lon="5.33293">
        <ele>996.1</ele>
        <time>2015-10-18T12:17:39Z</time>
      </trkpt>
      <trkpt lat="44.98039" lon="5.33295">
        <ele>995.1</ele>
        <time>2015-10-18T12:17:41Z</time>
      </trkpt>
      <trkpt lat="44.98029" lon="5.33293">
        <ele>994.6</ele>
        <time>2015-10-18T12:17:42Z</time>
      </trkpt>
      <trkpt lat="44.9802" lon="5.33289">
        <ele>995.1</ele>
        <time>2015-10-18T12:17:43Z</time>
      </trkpt>
      <trkpt lat="44.97999" lon="5.33263">
        <ele>995.1</ele>
        <time>2015-10-18T12:17:46Z</time>
      </trkpt>
      <trkpt lat="44.9799" lon="5.33257">
        <ele>995.1</ele>
        <time>2015-10-18T12:17:47Z</time>
      </trkpt>
      <trkpt lat="44.97971" lon="5.33251">
        <ele>995.6</ele>
        <time>2015-10-18T12:17:49Z</time>
      </trkpt>
      <trkpt lat="44.97745" lon="5.3334">
        <ele>1006.2</ele>
        <time>2015-10-18T12:18:10Z</time>
      </trkpt>
      <trkpt lat="44.97685" lon="5.33349">
        <ele>1013.4</ele>
        <time>2015-10-18T12:18:15Z</time>
      </trkpt>
      <trkpt lat="44.97487" lon="5.33475">
        <ele>1031.2</ele>
        <time>2015-10-18T12:18:31Z</time>
      </trkpt>
      <trkpt lat="44.97474" lon="5.33478">
        <ele>1032.1</ele>
        <time>2015-10-18T12:18:32Z</time>
      </trkpt>
      <trkpt lat="44.97461" lon="5.33478">
        <ele>1033.6</ele>
        <time>2015-10-18T12:18:33Z</time>
      </trkpt>
      <trkpt lat="44.97355" lon="5.33448">
        <ele>1042.7</ele>
        <time>2015-10-18T12:18:40Z</time>
      </trkpt>
      <trkpt lat="44.9734" lon="5.33448">
        <ele>1043.7</ele>
        <time>2015-10-18T12:18:41Z</time>
      </trkpt>
      <trkpt lat="44.97324" lon="5.3345">
        <ele>1044.6</ele>
        <time>2015-10-18T12:18:42Z</time>
      </trkpt>
      <trkpt lat="44.97194" lon="5.33484">
        <ele>1051.3</ele>
        <time>2015-10-18T12:18:51Z</time>
      </trkpt>
      <trkpt lat="44.97103" lon="5.33519">
        <ele>1055.7</ele>
        <time>2015-10-18T12:18:57Z</time>
      </trkpt>
      <trkpt lat="44.9709" lon="5.33533">
        <ele>1056.2</ele>
        <time>2015-10-18T12:18:58Z</time>
      </trkpt>
      <trkpt lat="44.97078" lon="5.33551">
        <ele>1056.6</ele>
        <time>2015-10-18T12:18:59Z</time>
      </trkpt>
      <trkpt lat="44.97067" lon="5.3357">
        <ele>1057.1</ele>
        <time>2015-10-18T12:19:00Z</time>
      </trkpt>
      <trkpt lat="44.97052" lon="5.3361">
        <ele>1055.7</ele>
        <time>2015-10-18T12:19:02Z</time>
      </trkpt>
      <trkpt lat="44.97036" lon="5.33643">
        <ele>1056.6</ele>
        <time>2015-10-18T12:19:04Z</time>
      </trkpt>
      <trkpt lat="44.97022" lon="5.3365">
        <ele>1057.1</ele>
        <time>2015-10-18T12:19:05Z</time>
      </trkpt>
      <trkpt lat="44.96968" lon="5.33654">
        <ele>1056.6</ele>
        <time>2015-10-18T12:19:08Z</time>
      </trkpt>
      <trkpt lat="44.96948" lon="5.33651">
        <ele>1056.6</ele>
        <time>2015-10-18T12:19:09Z</time>
      </trkpt>
      <trkpt lat="44.96928" lon="5.33643">
        <ele>1057.1</ele>
        <time>2015-10-18T12:19:10Z</time>
      </trkpt>
      <trkpt lat="44.9689" lon="5.33625">
        <ele>1059.5</ele>
        <time>2015-10-18T12:19:12Z</time>
      </trkpt>
      <trkpt lat="44.96853" lon="5.33613">
        <ele>1060.5</ele>
        <time>2015-10-18T12:19:14Z</time>
      </trkpt>
      <trkpt lat="44.96799" lon="5.33619">
        <ele>1061</ele>
        <time>2015-10-18T12:19:17Z</time>
      </trkpt>
      <trkpt lat="44.96782" lon="5.33616">
        <ele>1061</ele>
        <time>2015-10-18T12:19:18Z</time>
      </trkpt>
      <trkpt lat="44.96766" lon="5.33608">
        <ele>1061</ele>
        <time>2015-10-18T12:19:19Z</time>
      </trkpt>
      <trkpt lat="44.96751" lon="5.33595">
        <ele>1061.9</ele>
        <time>2015-10-18T12:19:20Z</time>
      </trkpt>
      <trkpt lat="44.96674" lon="5.33496">
        <ele>1063.4</ele>
        <time>2015-10-18T12:19:26Z</time>
      </trkpt>
      <trkpt lat="44.96659" lon="5.33486">
        <ele>1063.8</ele>
        <time>2015-10-18T12:19:27Z</time>
      </trkpt>
      <trkpt lat="44.96644" lon="5.33479">
        <ele>1063.8</ele>
        <time>2015-10-18T12:19:28Z</time>
      </trkpt>
      <trkpt lat="44.96628" lon="5.33475">
        <ele>1064.3</ele>
        <time>2015-10-18T12:19:29Z</time>
      </trkpt>
      <trkpt lat="44.96613" lon="5.33473">
        <ele>1064.3</ele>
        <time>2015-10-18T12:19:30Z</time>
      </trkpt>
      <trkpt lat="44.9657" lon="5.33461">
        <ele>1064.3</ele>
        <time>2015-10-18T12:19:33Z</time>
      </trkpt>
      <trkpt lat="44.96558" lon="5.33454">
        <ele>1063.8</ele>
        <time>2015-10-18T12:19:34Z</time>
      </trkpt>
      <trkpt lat="44.96519" lon="5.33426">
        <ele>1063.8</ele>
        <time>2015-10-18T12:19:38Z</time>
      </trkpt>
      <trkpt lat="44.96513" lon="5.33427">
        <ele>1063.8</ele>
        <time>2015-10-18T12:19:39Z</time>
      </trkpt>
      <trkpt lat="44.96505" lon="5.33431">
        <ele>1064.3</ele>
        <time>2015-10-18T12:19:40Z</time>
      </trkpt>
      <trkpt lat="44.96499" lon="5.33437">
        <ele>1063.8</ele>
        <time>2015-10-18T12:19:41Z</time>
      </trkpt>
      <trkpt lat="44.96486" lon="5.33456">
        <ele>1062.4</ele>
        <time>2015-10-18T12:19:43Z</time>
      </trkpt>
      <trkpt lat="44.96431" lon="5.33583">
        <ele>1053.7</ele>
        <time>2015-10-18T12:19:52Z</time>
      </trkpt>
      <trkpt lat="44.96427" lon="5.336">
        <ele>1053.3</ele>
        <time>2015-10-18T12:19:53Z</time>
      </trkpt>
      <trkpt lat="44.96429" lon="5.33619">
        <ele>1052.3</ele>
        <time>2015-10-18T12:19:54Z</time>
      </trkpt>
      <trkpt lat="44.96433" lon="5.33636">
        <ele>1051.8</ele>
        <time>2015-10-18T12:19:55Z</time>
      </trkpt>
      <trkpt lat="44.96459" lon="5.33687">
        <ele>1051.8</ele>
        <time>2015-10-18T12:19:58Z</time>
      </trkpt>
      <trkpt lat="44.96488" lon="5.33763">
        <ele>1053.7</ele>
        <time>2015-10-18T12:20:02Z</time>
      </trkpt>
      <trkpt lat="44.96513" lon="5.33809">
        <ele>1055.2</ele>
        <time>2015-10-18T12:20:05Z</time>
      </trkpt>
      <trkpt lat="44.96519" lon="5.33826">
        <ele>1055.7</ele>
        <time>2015-10-18T12:20:06Z</time>
      </trkpt>
      <trkpt lat="44.96531" lon="5.339">
        <ele>1057.6</ele>
        <time>2015-10-18T12:20:10Z</time>
      </trkpt>
      <trkpt lat="44.96538" lon="5.33917">
        <ele>1058.6</ele>
        <time>2015-10-18T12:20:11Z</time>
      </trkpt>
      <trkpt lat="44.96586" lon="5.34002">
        <ele>1062.9</ele>
        <time>2015-10-18T12:20:16Z</time>
      </trkpt>
      <trkpt lat="44.96637" lon="5.34045">
        <ele>1068.2</ele>
        <time>2015-10-18T12:20:20Z</time>
      </trkpt>
      <trkpt lat="44.96646" lon="5.34059">
        <ele>1069.1</ele>
        <time>2015-10-18T12:20:21Z</time>
      </trkpt>
      <trkpt lat="44.9665" lon="5.34078">
        <ele>1070.6</ele>
        <time>2015-10-18T12:20:22Z</time>
      </trkpt>
      <trkpt lat="44.96652" lon="5.34098">
        <ele>1071.5</ele>
        <time>2015-10-18T12:20:23Z</time>
      </trkpt>
      <trkpt lat="44.96653" lon="5.3419">
        <ele>1075.4</ele>
        <time>2015-10-18T12:20:27Z</time>
      </trkpt>
      <trkpt lat="44.96648" lon="5.34209">
        <ele>1076.3</ele>
        <time>2015-10-18T12:20:28Z</time>
      </trkpt>
      <trkpt lat="44.96638" lon="5.34224">
        <ele>1077.3</ele>
        <time>2015-10-18T12:20:29Z</time>
      </trkpt>
      <trkpt lat="44.96625" lon="5.34234">
        <ele>1078.7</ele>
        <time>2015-10-18T12:20:30Z</time>
      </trkpt>
      <trkpt lat="44.96596" lon="5.34249">
        <ele>1080.2</ele>
        <time>2015-10-18T12:20:32Z</time>
      </trkpt>
      <trkpt lat="44.96581" lon="5.34253">
        <ele>1080.7</ele>
        <time>2015-10-18T12:20:33Z</time>
      </trkpt>
      <trkpt lat="44.96563" lon="5.34254">
        <ele>1081.6</ele>
        <time>2015-10-18T12:20:34Z</time>
      </trkpt>
      <trkpt lat="44.9654" lon="5.34251">
        <ele>1083.1</ele>
        <time>2015-10-18T12:20:35Z</time>
      </trkpt>
      <trkpt lat="44.96521" lon="5.34254">
        <ele>1084</ele>
        <time>2015-10-18T12:20:36Z</time>
      </trkpt>
      <trkpt lat="44.96485" lon="5.34267">
        <ele>1086.9</ele>
        <time>2015-10-18T12:20:38Z</time>
      </trkpt>
      <trkpt lat="44.96413" lon="5.34282">
        <ele>1091.2</ele>
        <time>2015-10-18T12:20:42Z</time>
      </trkpt>
      <trkpt lat="44.96186" lon="5.34284">
        <ele>1107.1</ele>
        <time>2015-10-18T12:20:54Z</time>
      </trkpt>
      <trkpt lat="44.95974" lon="5.34365">
        <ele>1119.6</ele>
        <time>2015-10-18T12:21:06Z</time>
      </trkpt>
      <trkpt lat="44.95962" lon="5.34375">
        <ele>1120.1</ele>
        <time>2015-10-18T12:21:07Z</time>
      </trkpt>
      <trkpt lat="44.95952" lon="5.34389">
        <ele>1121</ele>
        <time>2015-10-18T12:21:08Z</time>
      </trkpt>
      <trkpt lat="44.95945" lon="5.34406">
        <ele>1121.5</ele>
        <time>2015-10-18T12:21:09Z</time>
      </trkpt>
      <trkpt lat="44.95944" lon="5.34428">
        <ele>1118.6</ele>
        <time>2015-10-18T12:21:10Z</time>
      </trkpt>
      <trkpt lat="44.95947" lon="5.34447">
        <ele>1117.2</ele>
        <time>2015-10-18T12:21:11Z</time>
      </trkpt>
      <trkpt lat="44.95953" lon="5.34463">
        <ele>1116.2</ele>
        <time>2015-10-18T12:21:12Z</time>
      </trkpt>
      <trkpt lat="44.95974" lon="5.34484">
        <ele>1114.8</ele>
        <time>2015-10-18T12:21:14Z</time>
      </trkpt>
      <trkpt lat="44.9602" lon="5.34515">
        <ele>1116.2</ele>
        <time>2015-10-18T12:21:17Z</time>
      </trkpt>
      <trkpt lat="44.9605" lon="5.34542">
        <ele>1117.2</ele>
        <time>2015-10-18T12:21:19Z</time>
      </trkpt>
      <trkpt lat="44.96062" lon="5.34559">
        <ele>1117.7</ele>
        <time>2015-10-18T12:21:20Z</time>
      </trkpt>
      <trkpt lat="44.96071" lon="5.34576">
        <ele>1118.6</ele>
        <time>2015-10-18T12:21:21Z</time>
      </trkpt>
      <trkpt lat="44.9608" lon="5.34589">
        <ele>1118.2</ele>
        <time>2015-10-18T12:21:22Z</time>
      </trkpt>
      <trkpt lat="44.96092" lon="5.346">
        <ele>1118.6</ele>
        <time>2015-10-18T12:21:23Z</time>
      </trkpt>
      <trkpt lat="44.96107" lon="5.34607">
        <ele>1118.6</ele>
        <time>2015-10-18T12:21:24Z</time>
      </trkpt>
      <trkpt lat="44.96159" lon="5.34617">
        <ele>1121</ele>
        <time>2015-10-18T12:21:27Z</time>
      </trkpt>
      <trkpt lat="44.96196" lon="5.34633">
        <ele>1122.5</ele>
        <time>2015-10-18T12:21:29Z</time>
      </trkpt>
      <trkpt lat="44.96335" lon="5.34675">
        <ele>1129.7</ele>
        <time>2015-10-18T12:21:36Z</time>
      </trkpt>
      <trkpt lat="44.96423" lon="5.34727">
        <ele>1135</ele>
        <time>2015-10-18T12:21:41Z</time>
      </trkpt>
      <trkpt lat="44.96435" lon="5.34744">
        <ele>1135.5</ele>
        <time>2015-10-18T12:21:42Z</time>
      </trkpt>
      <trkpt lat="44.96443" lon="5.34762">
        <ele>1136.4</ele>
        <time>2015-10-18T12:21:43Z</time>
      </trkpt>
      <trkpt lat="44.96447" lon="5.34782">
        <ele>1137.4</ele>
        <time>2015-10-18T12:21:44Z</time>
      </trkpt>
      <trkpt lat="44.96446" lon="5.34803">
        <ele>1138.3</ele>
        <time>2015-10-18T12:21:45Z</time>
      </trkpt>
      <trkpt lat="44.96434" lon="5.34849">
        <ele>1139.8</ele>
        <time>2015-10-18T12:21:47Z</time>
      </trkpt>
      <trkpt lat="44.96407" lon="5.34912">
        <ele>1144.1</ele>
        <time>2015-10-18T12:21:50Z</time>
      </trkpt>
      <trkpt lat="44.96392" lon="5.34968">
        <ele>1147</ele>
        <time>2015-10-18T12:21:53Z</time>
      </trkpt>
      <trkpt lat="44.96396" lon="5.34984">
        <ele>1146.5</ele>
        <time>2015-10-18T12:21:54Z</time>
      </trkpt>
      <trkpt lat="44.96405" lon="5.34999">
        <ele>1147</ele>
        <time>2015-10-18T12:21:55Z</time>
      </trkpt>
      <trkpt lat="44.9643" lon="5.35028">
        <ele>1149.4</ele>
        <time>2015-10-18T12:21:57Z</time>
      </trkpt>
      <trkpt lat="44.96468" lon="5.35097">
        <ele>1152.3</ele>
        <time>2015-10-18T12:22:01Z</time>
      </trkpt>
      <trkpt lat="44.9648" lon="5.35106">
        <ele>1152.3</ele>
        <time>2015-10-18T12:22:02Z</time>
      </trkpt>
      <trkpt lat="44.96492" lon="5.35109">
        <ele>1150.8</ele>
        <time>2015-10-18T12:22:03Z</time>
      </trkpt>
      <trkpt lat="44.96505" lon="5.35107">
        <ele>1150.8</ele>
        <time>2015-10-18T12:22:04Z</time>
      </trkpt>
      <trkpt lat="44.96517" lon="5.35101">
        <ele>1150.4</ele>
        <time>2015-10-18T12:22:05Z</time>
      </trkpt>
      <trkpt lat="44.96543" lon="5.35072">
        <ele>1155.6</ele>
        <time>2015-10-18T12:22:07Z</time>
      </trkpt>
      <trkpt lat="44.96557" lon="5.35073">
        <ele>1156.6</ele>
        <time>2015-10-18T12:22:08Z</time>
      </trkpt>
      <trkpt lat="44.9657" lon="5.35083">
        <ele>1158.1</ele>
        <time>2015-10-18T12:22:09Z</time>
      </trkpt>
      <trkpt lat="44.96604" lon="5.35139">
        <ele>1161.4</ele>
        <time>2015-10-18T12:22:12Z</time>
      </trkpt>
      <trkpt lat="44.96621" lon="5.35181">
        <ele>1163.8</ele>
        <time>2015-10-18T12:22:14Z</time>
      </trkpt>
      <trkpt lat="44.96623" lon="5.35204">
        <ele>1164.8</ele>
        <time>2015-10-18T12:22:15Z</time>
      </trkpt>
      <trkpt lat="44.96621" lon="5.35226">
        <ele>1165.7</ele>
        <time>2015-10-18T12:22:16Z</time>
      </trkpt>
      <trkpt lat="44.96585" lon="5.35357">
        <ele>1171.5</ele>
        <time>2015-10-18T12:22:22Z</time>
      </trkpt>
      <trkpt lat="44.96564" lon="5.3539">
        <ele>1173.4</ele>
        <time>2015-10-18T12:22:24Z</time>
      </trkpt>
      <trkpt lat="44.96533" lon="5.35397">
        <ele>1174.9</ele>
        <time>2015-10-18T12:22:26Z</time>
      </trkpt>
      <trkpt lat="44.96508" lon="5.35383">
        <ele>1176.3</ele>
        <time>2015-10-18T12:22:27Z</time>
      </trkpt>
      <trkpt lat="44.96492" lon="5.35379">
        <ele>1177.8</ele>
        <time>2015-10-18T12:22:28Z</time>
      </trkpt>
      <trkpt lat="44.96479" lon="5.35382">
        <ele>1178.7</ele>
        <time>2015-10-18T12:22:29Z</time>
      </trkpt>
      <trkpt lat="44.96467" lon="5.35386">
        <ele>1178.7</ele>
        <time>2015-10-18T12:22:30Z</time>
      </trkpt>
      <trkpt lat="44.96454" lon="5.35421">
        <ele>1179.7</ele>
        <time>2015-10-18T12:22:32Z</time>
      </trkpt>
      <trkpt lat="44.96457" lon="5.3549">
        <ele>1180.2</ele>
        <time>2015-10-18T12:22:35Z</time>
      </trkpt>
      <trkpt lat="44.96452" lon="5.35537">
        <ele>1181.1</ele>
        <time>2015-10-18T12:22:37Z</time>
      </trkpt>
      <trkpt lat="44.9644" lon="5.35582">
        <ele>1181.6</ele>
        <time>2015-10-18T12:22:39Z</time>
      </trkpt>
      <trkpt lat="44.96421" lon="5.3562">
        <ele>1182.6</ele>
        <time>2015-10-18T12:22:41Z</time>
      </trkpt>
      <trkpt lat="44.96409" lon="5.35632">
        <ele>1183</ele>
        <time>2015-10-18T12:22:42Z</time>
      </trkpt>
      <trkpt lat="44.96398" lon="5.3564">
        <ele>1183</ele>
        <time>2015-10-18T12:22:43Z</time>
      </trkpt>
      <trkpt lat="44.96386" lon="5.35641">
        <ele>1183</ele>
        <time>2015-10-18T12:22:44Z</time>
      </trkpt>
      <trkpt lat="44.96335" lon="5.35601">
        <ele>1183.5</ele>
        <time>2015-10-18T12:22:47Z</time>
      </trkpt>
      <trkpt lat="44.96306" lon="5.35571">
        <ele>1183.5</ele>
        <time>2015-10-18T12:22:49Z</time>
      </trkpt>
      <trkpt lat="44.96228" lon="5.35438">
        <ele>1180.6</ele>
        <time>2015-10-18T12:22:56Z</time>
      </trkpt>
      <trkpt lat="44.96215" lon="5.35426">
        <ele>1180.2</ele>
        <time>2015-10-18T12:22:57Z</time>
      </trkpt>
      <trkpt lat="44.96183" lon="5.35407">
        <ele>1179.2</ele>
        <time>2015-10-18T12:22:59Z</time>
      </trkpt>
      <trkpt lat="44.9615" lon="5.35376">
        <ele>1178.2</ele>
        <time>2015-10-18T12:23:01Z</time>
      </trkpt>
      <trkpt lat="44.96078" lon="5.35325">
        <ele>1175.4</ele>
        <time>2015-10-18T12:23:05Z</time>
      </trkpt>
      <trkpt lat="44.96005" lon="5.35247">
        <ele>1172.5</ele>
        <time>2015-10-18T12:23:09Z</time>
      </trkpt>
      <trkpt lat="44.95984" lon="5.35233">
        <ele>1172</ele>
        <time>2015-10-18T12:23:10Z</time>
      </trkpt>
      <trkpt lat="44.95963" lon="5.35222">
        <ele>1171.5</ele>
        <time>2015-10-18T12:23:11Z</time>
      </trkpt>
      <trkpt lat="44.95926" lon="5.35212">
        <ele>1170.1</ele>
        <time>2015-10-18T12:23:13Z</time>
      </trkpt>
      <trkpt lat="44.9586" lon="5.35242">
        <ele>1166.7</ele>
        <time>2015-10-18T12:23:17Z</time>
      </trkpt>
      <trkpt lat="44.95844" lon="5.35242">
        <ele>1166.2</ele>
        <time>2015-10-18T12:23:18Z</time>
      </trkpt>
      <trkpt lat="44.95761" lon="5.35222">
        <ele>1164.3</ele>
        <time>2015-10-18T12:23:22Z</time>
      </trkpt>
      <trkpt lat="44.95738" lon="5.35214">
        <ele>1164.3</ele>
        <time>2015-10-18T12:23:23Z</time>
      </trkpt>
      <trkpt lat="44.95634" lon="5.35152">
        <ele>1166.2</ele>
        <time>2015-10-18T12:23:28Z</time>
      </trkpt>
      <trkpt lat="44.95484" lon="5.35108">
        <ele>1172</ele>
        <time>2015-10-18T12:23:36Z</time>
      </trkpt>
      <trkpt lat="44.95469" lon="5.35109">
        <ele>1173.4</ele>
        <time>2015-10-18T12:23:37Z</time>
      </trkpt>
      <trkpt lat="44.95455" lon="5.35119">
        <ele>1173.9</ele>
        <time>2015-10-18T12:23:38Z</time>
      </trkpt>
      <trkpt lat="44.95445" lon="5.35132">
        <ele>1173.4</ele>
        <time>2015-10-18T12:23:39Z</time>
      </trkpt>
      <trkpt lat="44.95438" lon="5.35146">
        <ele>1173.4</ele>
        <time>2015-10-18T12:23:40Z</time>
      </trkpt>
      <trkpt lat="44.95433" lon="5.3516">
        <ele>1172</ele>
        <time>2015-10-18T12:23:41Z</time>
      </trkpt>
      <trkpt lat="44.95485" lon="5.35274">
        <ele>1177.8</ele>
        <time>2015-10-18T12:23:48Z</time>
      </trkpt>
      <trkpt lat="44.95494" lon="5.35288">
        <ele>1178.2</ele>
        <time>2015-10-18T12:23:49Z</time>
      </trkpt>
      <trkpt lat="44.95506" lon="5.35301">
        <ele>1178.7</ele>
        <time>2015-10-18T12:23:50Z</time>
      </trkpt>
      <trkpt lat="44.95521" lon="5.35312">
        <ele>1179.2</ele>
        <time>2015-10-18T12:23:51Z</time>
      </trkpt>
      <trkpt lat="44.95555" lon="5.35328">
        <ele>1179.7</ele>
        <time>2015-10-18T12:23:53Z</time>
      </trkpt>
      <trkpt lat="44.95627" lon="5.35389">
        <ele>1182.1</ele>
        <time>2015-10-18T12:23:58Z</time>
      </trkpt>
      <trkpt lat="44.95635" lon="5.35401">
        <ele>1182.6</ele>
        <time>2015-10-18T12:23:59Z</time>
      </trkpt>
      <trkpt lat="44.95639" lon="5.35414">
        <ele>1183</ele>
        <time>2015-10-18T12:24:00Z</time>
      </trkpt>
      <trkpt lat="44.95638" lon="5.35429">
        <ele>1182.6</ele>
        <time>2015-10-18T12:24:01Z</time>
      </trkpt>
      <trkpt lat="44.95635" lon="5.3544">
        <ele>1183</ele>
        <time>2015-10-18T12:24:02Z</time>
      </trkpt>
      <trkpt lat="44.95628" lon="5.35443">
        <ele>1184</ele>
        <time>2015-10-18T12:24:03Z</time>
      </trkpt>
      <trkpt lat="44.95632" lon="5.35448">
        <ele>1184</ele>
        <time>2015-10-18T12:24:08Z</time>
      </trkpt>
      <trkpt lat="44.95633" lon="5.35443">
        <ele>1184.5</ele>
        <time>2015-10-18T12:24:23Z</time>
      </trkpt>
      <trkpt lat="44.95632" lon="5.35441">
        <ele>1181.1</ele>
        <time>2015-10-18T12:25:14Z</time>
      </trkpt>
      <trkpt lat="44.95627" lon="5.35439">
        <ele>1182.6</ele>
        <time>2015-10-18T12:25:16Z</time>
      </trkpt>
      <trkpt lat="44.95521" lon="5.35453">
        <ele>1187.4</ele>
        <time>2015-10-18T12:25:23Z</time>
      </trkpt>
      <trkpt lat="44.95504" lon="5.35462">
        <ele>1187.9</ele>
        <time>2015-10-18T12:25:24Z</time>
      </trkpt>
      <trkpt lat="44.95454" lon="5.35507">
        <ele>1190.3</ele>
        <time>2015-10-18T12:25:27Z</time>
      </trkpt>
      <trkpt lat="44.95394" lon="5.35543">
        <ele>1192.7</ele>
        <time>2015-10-18T12:25:30Z</time>
      </trkpt>
      <trkpt lat="44.95371" lon="5.35551">
        <ele>1193.6</ele>
        <time>2015-10-18T12:25:31Z</time>
      </trkpt>
      <trkpt lat="44.95232" lon="5.35577">
        <ele>1198.4</ele>
        <time>2015-10-18T12:25:37Z</time>
      </trkpt>
      <trkpt lat="44.95131" lon="5.35606">
        <ele>1202.8</ele>
        <time>2015-10-18T12:25:43Z</time>
      </trkpt>
      <trkpt lat="44.95105" lon="5.35617">
        <ele>1203.2</ele>
        <time>2015-10-18T12:25:45Z</time>
      </trkpt>
      <trkpt lat="44.95097" lon="5.35615">
        <ele>1203.7</ele>
        <time>2015-10-18T12:25:46Z</time>
      </trkpt>
      <trkpt lat="44.95089" lon="5.35607">
        <ele>1204.2</ele>
        <time>2015-10-18T12:25:47Z</time>
      </trkpt>
      <trkpt lat="44.95066" lon="5.3557">
        <ele>1205.6</ele>
        <time>2015-10-18T12:25:50Z</time>
      </trkpt>
      <trkpt lat="44.95046" lon="5.35559">
        <ele>1207.6</ele>
        <time>2015-10-18T12:25:52Z</time>
      </trkpt>
      <trkpt lat="44.95033" lon="5.35557">
        <ele>1207.6</ele>
        <time>2015-10-18T12:25:53Z</time>
      </trkpt>
      <trkpt lat="44.95011" lon="5.3555">
        <ele>1207.6</ele>
        <time>2015-10-18T12:25:55Z</time>
      </trkpt>
      <trkpt lat="44.95" lon="5.3555">
        <ele>1207.6</ele>
        <time>2015-10-18T12:25:56Z</time>
      </trkpt>
      <trkpt lat="44.94988" lon="5.35552">
        <ele>1207.1</ele>
        <time>2015-10-18T12:25:57Z</time>
      </trkpt>
      <trkpt lat="44.94977" lon="5.35557">
        <ele>1207.6</ele>
        <time>2015-10-18T12:25:58Z</time>
      </trkpt>
      <trkpt lat="44.94965" lon="5.35565">
        <ele>1207.1</ele>
        <time>2015-10-18T12:25:59Z</time>
      </trkpt>
      <trkpt lat="44.94765" lon="5.35749">
        <ele>1207.6</ele>
        <time>2015-10-18T12:26:14Z</time>
      </trkpt>
      <trkpt lat="44.94753" lon="5.35755">
        <ele>1207.1</ele>
        <time>2015-10-18T12:26:15Z</time>
      </trkpt>
      <trkpt lat="44.94741" lon="5.35763">
        <ele>1207.1</ele>
        <time>2015-10-18T12:26:16Z</time>
      </trkpt>
      <trkpt lat="44.9473" lon="5.35774">
        <ele>1207.1</ele>
        <time>2015-10-18T12:26:17Z</time>
      </trkpt>
      <trkpt lat="44.94682" lon="5.35853">
        <ele>1206.1</ele>
        <time>2015-10-18T12:26:22Z</time>
      </trkpt>
      <trkpt lat="44.94671" lon="5.35892">
        <ele>1207.1</ele>
        <time>2015-10-18T12:26:24Z</time>
      </trkpt>
      <trkpt lat="44.9466" lon="5.35962">
        <ele>1206.6</ele>
        <time>2015-10-18T12:26:28Z</time>
      </trkpt>
      <trkpt lat="44.94671" lon="5.36045">
        <ele>1207.6</ele>
        <time>2015-10-18T12:26:33Z</time>
      </trkpt>
      <trkpt lat="44.94669" lon="5.3606">
        <ele>1208</ele>
        <time>2015-10-18T12:26:34Z</time>
      </trkpt>
      <trkpt lat="44.94665" lon="5.36075">
        <ele>1208</ele>
        <time>2015-10-18T12:26:35Z</time>
      </trkpt>
      <trkpt lat="44.94657" lon="5.36089">
        <ele>1208.5</ele>
        <time>2015-10-18T12:26:36Z</time>
      </trkpt>
      <trkpt lat="44.94647" lon="5.36099">
        <ele>1208.5</ele>
        <time>2015-10-18T12:26:37Z</time>
      </trkpt>
      <trkpt lat="44.94635" lon="5.36108">
        <ele>1208.5</ele>
        <time>2015-10-18T12:26:38Z</time>
      </trkpt>
      <trkpt lat="44.94452" lon="5.36198">
        <ele>1208.5</ele>
        <time>2015-10-18T12:26:50Z</time>
      </trkpt>
      <trkpt lat="44.9444" lon="5.36206">
        <ele>1208.5</ele>
        <time>2015-10-18T12:26:51Z</time>
      </trkpt>
      <trkpt lat="44.94428" lon="5.36217">
        <ele>1209</ele>
        <time>2015-10-18T12:26:52Z</time>
      </trkpt>
      <trkpt lat="44.94419" lon="5.36229">
        <ele>1209</ele>
        <time>2015-10-18T12:26:53Z</time>
      </trkpt>
      <trkpt lat="44.94354" lon="5.36363">
        <ele>1203.7</ele>
        <time>2015-10-18T12:27:01Z</time>
      </trkpt>
      <trkpt lat="44.94351" lon="5.36381">
        <ele>1202.3</ele>
        <time>2015-10-18T12:27:02Z</time>
      </trkpt>
      <trkpt lat="44.94353" lon="5.364">
        <ele>1201.3</ele>
        <time>2015-10-18T12:27:03Z</time>
      </trkpt>
      <trkpt lat="44.94376" lon="5.3648">
        <ele>1197.5</ele>
        <time>2015-10-18T12:27:07Z</time>
      </trkpt>
      <trkpt lat="44.94381" lon="5.36522">
        <ele>1196</ele>
        <time>2015-10-18T12:27:09Z</time>
      </trkpt>
      <trkpt lat="44.94381" lon="5.36578">
        <ele>1194.1</ele>
        <time>2015-10-18T12:27:12Z</time>
      </trkpt>
      <trkpt lat="44.94376" lon="5.36608">
        <ele>1193.1</ele>
        <time>2015-10-18T12:27:14Z</time>
      </trkpt>
      <trkpt lat="44.94364" lon="5.3664">
        <ele>1190.3</ele>
        <time>2015-10-18T12:27:17Z</time>
      </trkpt>
      <trkpt lat="44.94353" lon="5.36657">
        <ele>1190.7</ele>
        <time>2015-10-18T12:27:19Z</time>
      </trkpt>
      <trkpt lat="44.94351" lon="5.3667">
        <ele>1190.7</ele>
        <time>2015-10-18T12:27:20Z</time>
      </trkpt>
      <trkpt lat="44.94351" lon="5.36685">
        <ele>1190.3</ele>
        <time>2015-10-18T12:27:21Z</time>
      </trkpt>
      <trkpt lat="44.94354" lon="5.36703">
        <ele>1189.3</ele>
        <time>2015-10-18T12:27:22Z</time>
      </trkpt>
      <trkpt lat="44.94367" lon="5.36749">
        <ele>1187.4</ele>
        <time>2015-10-18T12:27:24Z</time>
      </trkpt>
      <trkpt lat="44.94401" lon="5.36931">
        <ele>1180.6</ele>
        <time>2015-10-18T12:27:31Z</time>
      </trkpt>
      <trkpt lat="44.94398" lon="5.37117">
        <ele>1172.5</ele>
        <time>2015-10-18T12:27:38Z</time>
      </trkpt>
      <trkpt lat="44.9448" lon="5.37393">
        <ele>1157.6</ele>
        <time>2015-10-18T12:27:47Z</time>
      </trkpt>
      <trkpt lat="44.9451" lon="5.37835">
        <ele>1128.2</ele>
        <time>2015-10-18T12:28:01Z</time>
      </trkpt>
      <trkpt lat="44.94543" lon="5.37973">
        <ele>1118.6</ele>
        <time>2015-10-18T12:28:07Z</time>
      </trkpt>
      <trkpt lat="44.94569" lon="5.38023">
        <ele>1114.8</ele>
        <time>2015-10-18T12:28:10Z</time>
      </trkpt>
      <trkpt lat="44.94606" lon="5.38066">
        <ele>1112.9</ele>
        <time>2015-10-18T12:28:13Z</time>
      </trkpt>
      <trkpt lat="44.94735" lon="5.38172">
        <ele>1100.4</ele>
        <time>2015-10-18T12:28:22Z</time>
      </trkpt>
      <trkpt lat="44.94866" lon="5.38238">
        <ele>1086.9</ele>
        <time>2015-10-18T12:28:31Z</time>
      </trkpt>
      <trkpt lat="44.94876" lon="5.38245">
        <ele>1085.5</ele>
        <time>2015-10-18T12:28:32Z</time>
      </trkpt>
      <trkpt lat="44.94883" lon="5.38252">
        <ele>1085</ele>
        <time>2015-10-18T12:28:33Z</time>
      </trkpt>
      <trkpt lat="44.94886" lon="5.38263">
        <ele>1083.1</ele>
        <time>2015-10-18T12:28:34Z</time>
      </trkpt>
      <trkpt lat="44.94886" lon="5.38276">
        <ele>1081.6</ele>
        <time>2015-10-18T12:28:35Z</time>
      </trkpt>
      <trkpt lat="44.94882" lon="5.38308">
        <ele>1079.7</ele>
        <time>2015-10-18T12:28:37Z</time>
      </trkpt>
      <trkpt lat="44.94882" lon="5.38324">
        <ele>1078.7</ele>
        <time>2015-10-18T12:28:38Z</time>
      </trkpt>
      <trkpt lat="44.94886" lon="5.38338">
        <ele>1077.8</ele>
        <time>2015-10-18T12:28:39Z</time>
      </trkpt>
      <trkpt lat="44.94894" lon="5.38349">
        <ele>1077.3</ele>
        <time>2015-10-18T12:28:40Z</time>
      </trkpt>
      <trkpt lat="44.94905" lon="5.38359">
        <ele>1076.3</ele>
        <time>2015-10-18T12:28:41Z</time>
      </trkpt>
      <trkpt lat="44.95054" lon="5.38427">
        <ele>1061</ele>
        <time>2015-10-18T12:28:51Z</time>
      </trkpt>
      <trkpt lat="44.95166" lon="5.38503">
        <ele>1049.4</ele>
        <time>2015-10-18T12:28:57Z</time>
      </trkpt>
      <trkpt lat="44.95312" lon="5.38629">
        <ele>1032.6</ele>
        <time>2015-10-18T12:29:03Z</time>
      </trkpt>
      <trkpt lat="44.95432" lon="5.38775">
        <ele>1016.7</ele>
        <time>2015-10-18T12:29:09Z</time>
      </trkpt>
      <trkpt lat="44.95495" lon="5.38865">
        <ele>1006.2</ele>
        <time>2015-10-18T12:29:15Z</time>
      </trkpt>
      <trkpt lat="44.95493" lon="5.38871">
        <ele>1004.7</ele>
        <time>2015-10-18T12:29:16Z</time>
      </trkpt>
      <trkpt lat="44.95489" lon="5.38877">
        <ele>1002.8</ele>
        <time>2015-10-18T12:29:17Z</time>
      </trkpt>
      <trkpt lat="44.95483" lon="5.3888">
        <ele>1001.4</ele>
        <time>2015-10-18T12:29:18Z</time>
      </trkpt>
      <trkpt lat="44.95357" lon="5.38781">
        <ele>989.8</ele>
        <time>2015-10-18T12:29:26Z</time>
      </trkpt>
      <trkpt lat="44.95233" lon="5.38704">
        <ele>978.8</ele>
        <time>2015-10-18T12:29:32Z</time>
      </trkpt>
      <trkpt lat="44.95215" lon="5.38689">
        <ele>976.4</ele>
        <time>2015-10-18T12:29:34Z</time>
      </trkpt>
      <trkpt lat="44.95209" lon="5.38692">
        <ele>974.9</ele>
        <time>2015-10-18T12:29:35Z</time>
      </trkpt>
      <trkpt lat="44.95211" lon="5.38719">
        <ele>970.1</ele>
        <time>2015-10-18T12:29:38Z</time>
      </trkpt>
      <trkpt lat="44.95236" lon="5.38742">
        <ele>969.2</ele>
        <time>2015-10-18T12:29:40Z</time>
      </trkpt>
      <trkpt lat="44.95253" lon="5.38761">
        <ele>968.2</ele>
        <time>2015-10-18T12:29:41Z</time>
      </trkpt>
      <trkpt lat="44.95363" lon="5.38929">
        <ele>957.6</ele>
        <time>2015-10-18T12:29:48Z</time>
      </trkpt>
      <trkpt lat="44.95371" lon="5.3895">
        <ele>956.7</ele>
        <time>2015-10-18T12:29:49Z</time>
      </trkpt>
      <trkpt lat="44.95376" lon="5.38972">
        <ele>955.2</ele>
        <time>2015-10-18T12:29:50Z</time>
      </trkpt>
      <trkpt lat="44.95373" lon="5.38993">
        <ele>954.3</ele>
        <time>2015-10-18T12:29:51Z</time>
      </trkpt>
      <trkpt lat="44.95364" lon="5.39011">
        <ele>952.3</ele>
        <time>2015-10-18T12:29:52Z</time>
      </trkpt>
      <trkpt lat="44.95265" lon="5.39149">
        <ele>944.2</ele>
        <time>2015-10-18T12:29:59Z</time>
      </trkpt>
      <trkpt lat="44.95251" lon="5.39162">
        <ele>942.7</ele>
        <time>2015-10-18T12:30:00Z</time>
      </trkpt>
      <trkpt lat="44.95235" lon="5.39167">
        <ele>941.3</ele>
        <time>2015-10-18T12:30:01Z</time>
      </trkpt>
      <trkpt lat="44.95177" lon="5.39164">
        <ele>937.4</ele>
        <time>2015-10-18T12:30:04Z</time>
      </trkpt>
      <trkpt lat="44.9516" lon="5.39165">
        <ele>936</ele>
        <time>2015-10-18T12:30:05Z</time>
      </trkpt>
      <trkpt lat="44.95146" lon="5.39171">
        <ele>935</ele>
        <time>2015-10-18T12:30:06Z</time>
      </trkpt>
      <trkpt lat="44.95134" lon="5.39181">
        <ele>934.1</ele>
        <time>2015-10-18T12:30:07Z</time>
      </trkpt>
      <trkpt lat="44.95125" lon="5.39195">
        <ele>932.1</ele>
        <time>2015-10-18T12:30:08Z</time>
      </trkpt>
      <trkpt lat="44.95117" lon="5.39268">
        <ele>927.8</ele>
        <time>2015-10-18T12:30:11Z</time>
      </trkpt>
      <trkpt lat="44.95111" lon="5.39293">
        <ele>926.9</ele>
        <time>2015-10-18T12:30:12Z</time>
      </trkpt>
      <trkpt lat="44.95101" lon="5.39316">
        <ele>925.9</ele>
        <time>2015-10-18T12:30:13Z</time>
      </trkpt>
      <trkpt lat="44.95078" lon="5.39351">
        <ele>924</ele>
        <time>2015-10-18T12:30:15Z</time>
      </trkpt>
      <trkpt lat="44.9507" lon="5.39369">
        <ele>923</ele>
        <time>2015-10-18T12:30:16Z</time>
      </trkpt>
      <trkpt lat="44.95018" lon="5.39552">
        <ele>916.3</ele>
        <time>2015-10-18T12:30:23Z</time>
      </trkpt>
      <trkpt lat="44.95012" lon="5.39758">
        <ele>909.1</ele>
        <time>2015-10-18T12:30:34Z</time>
      </trkpt>
      <trkpt lat="44.95012" lon="5.39768">
        <ele>909.1</ele>
        <time>2015-10-18T12:30:36Z</time>
      </trkpt>
      <trkpt lat="44.95016" lon="5.39787">
        <ele>910</ele>
        <time>2015-10-18T12:30:40Z</time>
      </trkpt>
      <trkpt lat="44.95016" lon="5.39794">
        <ele>911</ele>
        <time>2015-10-18T12:30:42Z</time>
      </trkpt>
      <trkpt lat="44.95019" lon="5.39793">
        <ele>914.8</ele>
        <time>2015-10-18T12:30:56Z</time>
      </trkpt>
      <trkpt lat="44.95015" lon="5.39797">
        <ele>914.8</ele>
        <time>2015-10-18T12:31:33Z</time>
      </trkpt>
      <trkpt lat="44.9501" lon="5.39799">
        <ele>914.8</ele>
        <time>2015-10-18T12:31:34Z</time>
      </trkpt>
      <trkpt lat="44.95003" lon="5.39802">
        <ele>915.3</ele>
        <time>2015-10-18T12:31:35Z</time>
      </trkpt>
      <trkpt lat="44.94975" lon="5.39807">
        <ele>917.2</ele>
        <time>2015-10-18T12:31:38Z</time>
      </trkpt>
      <trkpt lat="44.94966" lon="5.39805">
        <ele>917.7</ele>
        <time>2015-10-18T12:31:39Z</time>
      </trkpt>
      <trkpt lat="44.94956" lon="5.39799">
        <ele>918.7</ele>
        <time>2015-10-18T12:31:40Z</time>
      </trkpt>
      <trkpt lat="44.94947" lon="5.39791">
        <ele>920.1</ele>
        <time>2015-10-18T12:31:41Z</time>
      </trkpt>
      <trkpt lat="44.94909" lon="5.39751">
        <ele>923.5</ele>
        <time>2015-10-18T12:31:45Z</time>
      </trkpt>
      <trkpt lat="44.94902" lon="5.39738">
        <ele>924.5</ele>
        <time>2015-10-18T12:31:46Z</time>
      </trkpt>
      <trkpt lat="44.94899" lon="5.39724">
        <ele>924.9</ele>
        <time>2015-10-18T12:31:47Z</time>
      </trkpt>
      <trkpt lat="44.94901" lon="5.39705">
        <ele>925.4</ele>
        <time>2015-10-18T12:31:48Z</time>
      </trkpt>
      <trkpt lat="44.94926" lon="5.39645">
        <ele>928.8</ele>
        <time>2015-10-18T12:31:52Z</time>
      </trkpt>
      <trkpt lat="44.94929" lon="5.39631">
        <ele>929.7</ele>
        <time>2015-10-18T12:31:53Z</time>
      </trkpt>
      <trkpt lat="44.94927" lon="5.39619">
        <ele>930.2</ele>
        <time>2015-10-18T12:31:54Z</time>
      </trkpt>
      <trkpt lat="44.94923" lon="5.39612">
        <ele>930.7</ele>
        <time>2015-10-18T12:31:55Z</time>
      </trkpt>
      <trkpt lat="44.94914" lon="5.3961">
        <ele>931.2</ele>
        <time>2015-10-18T12:31:56Z</time>
      </trkpt>
      <trkpt lat="44.94892" lon="5.39616">
        <ele>933.1</ele>
        <time>2015-10-18T12:31:58Z</time>
      </trkpt>
      <trkpt lat="44.94879" lon="5.39614">
        <ele>933.6</ele>
        <time>2015-10-18T12:31:59Z</time>
      </trkpt>
      <trkpt lat="44.94866" lon="5.39608">
        <ele>934.5</ele>
        <time>2015-10-18T12:32:00Z</time>
      </trkpt>
      <trkpt lat="44.94824" lon="5.39579">
        <ele>936.9</ele>
        <time>2015-10-18T12:32:03Z</time>
      </trkpt>
      <trkpt lat="44.9473" lon="5.39542">
        <ele>942.2</ele>
        <time>2015-10-18T12:32:09Z</time>
      </trkpt>
      <trkpt lat="44.9472" lon="5.3953">
        <ele>943.2</ele>
        <time>2015-10-18T12:32:10Z</time>
      </trkpt>
      <trkpt lat="44.94715" lon="5.39515">
        <ele>944.2</ele>
        <time>2015-10-18T12:32:11Z</time>
      </trkpt>
      <trkpt lat="44.9471" lon="5.3943">
        <ele>948</ele>
        <time>2015-10-18T12:32:15Z</time>
      </trkpt>
      <trkpt lat="44.947" lon="5.39384">
        <ele>949.9</ele>
        <time>2015-10-18T12:32:17Z</time>
      </trkpt>
      <trkpt lat="44.94637" lon="5.39239">
        <ele>954.7</ele>
        <time>2015-10-18T12:32:24Z</time>
      </trkpt>
      <trkpt lat="44.94624" lon="5.39228">
        <ele>955.7</ele>
        <time>2015-10-18T12:32:25Z</time>
      </trkpt>
      <trkpt lat="44.94581" lon="5.39218">
        <ele>958.6</ele>
        <time>2015-10-18T12:32:28Z</time>
      </trkpt>
      <trkpt lat="44.94567" lon="5.3921">
        <ele>959.5</ele>
        <time>2015-10-18T12:32:29Z</time>
      </trkpt>
      <trkpt lat="44.94556" lon="5.39195">
        <ele>961</ele>
        <time>2015-10-18T12:32:30Z</time>
      </trkpt>
      <trkpt lat="44.94548" lon="5.39175">
        <ele>962.4</ele>
        <time>2015-10-18T12:32:31Z</time>
      </trkpt>
      <trkpt lat="44.94545" lon="5.39152">
        <ele>963.9</ele>
        <time>2015-10-18T12:32:32Z</time>
      </trkpt>
      <trkpt lat="44.94544" lon="5.39128">
        <ele>965.3</ele>
        <time>2015-10-18T12:32:33Z</time>
      </trkpt>
      <trkpt lat="44.94548" lon="5.39104">
        <ele>966.7</ele>
        <time>2015-10-18T12:32:34Z</time>
      </trkpt>
      <trkpt lat="44.94557" lon="5.39082">
        <ele>968.2</ele>
        <time>2015-10-18T12:32:35Z</time>
      </trkpt>
      <trkpt lat="44.94576" lon="5.39052">
        <ele>971.6</ele>
        <time>2015-10-18T12:32:37Z</time>
      </trkpt>
      <trkpt lat="44.94579" lon="5.3904">
        <ele>972.5</ele>
        <time>2015-10-18T12:32:38Z</time>
      </trkpt>
      <trkpt lat="44.94579" lon="5.39029">
        <ele>973.5</ele>
        <time>2015-10-18T12:32:39Z</time>
      </trkpt>
      <trkpt lat="44.94573" lon="5.39018">
        <ele>974.4</ele>
        <time>2015-10-18T12:32:40Z</time>
      </trkpt>
      <trkpt lat="44.94565" lon="5.39009">
        <ele>975.4</ele>
        <time>2015-10-18T12:32:41Z</time>
      </trkpt>
      <trkpt lat="44.94432" lon="5.38968">
        <ele>989.8</ele>
        <time>2015-10-18T12:32:50Z</time>
      </trkpt>
      <trkpt lat="44.94416" lon="5.38969">
        <ele>990.8</ele>
        <time>2015-10-18T12:32:51Z</time>
      </trkpt>
      <trkpt lat="44.94337" lon="5.38989">
        <ele>997</ele>
        <time>2015-10-18T12:32:56Z</time>
      </trkpt>
      <trkpt lat="44.9432" lon="5.38988">
        <ele>998.5</ele>
        <time>2015-10-18T12:32:57Z</time>
      </trkpt>
      <trkpt lat="44.94303" lon="5.38984">
        <ele>999.9</ele>
        <time>2015-10-18T12:32:58Z</time>
      </trkpt>
      <trkpt lat="44.94287" lon="5.38979">
        <ele>1001.4</ele>
        <time>2015-10-18T12:32:59Z</time>
      </trkpt>
      <trkpt lat="44.94257" lon="5.38959">
        <ele>1005.2</ele>
        <time>2015-10-18T12:33:01Z</time>
      </trkpt>
      <trkpt lat="44.94242" lon="5.38952">
        <ele>1006.6</ele>
        <time>2015-10-18T12:33:02Z</time>
      </trkpt>
      <trkpt lat="44.94229" lon="5.3895">
        <ele>1008.1</ele>
        <time>2015-10-18T12:33:03Z</time>
      </trkpt>
      <trkpt lat="44.94217" lon="5.38954">
        <ele>1009</ele>
        <time>2015-10-18T12:33:04Z</time>
      </trkpt>
      <trkpt lat="44.94208" lon="5.38966">
        <ele>1010</ele>
        <time>2015-10-18T12:33:05Z</time>
      </trkpt>
      <trkpt lat="44.94204" lon="5.38981">
        <ele>1010.5</ele>
        <time>2015-10-18T12:33:06Z</time>
      </trkpt>
      <trkpt lat="44.94207" lon="5.39039">
        <ele>1010</ele>
        <time>2015-10-18T12:33:09Z</time>
      </trkpt>
      <trkpt lat="44.94205" lon="5.3906">
        <ele>1010</ele>
        <time>2015-10-18T12:33:10Z</time>
      </trkpt>
      <trkpt lat="44.942" lon="5.39081">
        <ele>1010.5</ele>
        <time>2015-10-18T12:33:11Z</time>
      </trkpt>
      <trkpt lat="44.9419" lon="5.39099">
        <ele>1011.4</ele>
        <time>2015-10-18T12:33:12Z</time>
      </trkpt>
      <trkpt lat="44.94177" lon="5.39113">
        <ele>1012.9</ele>
        <time>2015-10-18T12:33:13Z</time>
      </trkpt>
      <trkpt lat="44.94162" lon="5.39122">
        <ele>1013.4</ele>
        <time>2015-10-18T12:33:14Z</time>
      </trkpt>
      <trkpt lat="44.94147" lon="5.39124">
        <ele>1012.9</ele>
        <time>2015-10-18T12:33:15Z</time>
      </trkpt>
      <trkpt lat="44.94134" lon="5.39118">
        <ele>1012.9</ele>
        <time>2015-10-18T12:33:16Z</time>
      </trkpt>
      <trkpt lat="44.94119" lon="5.391">
        <ele>1014.8</ele>
        <time>2015-10-18T12:33:17Z</time>
      </trkpt>
      <trkpt lat="44.94092" lon="5.39075">
        <ele>1017.2</ele>
        <time>2015-10-18T12:33:19Z</time>
      </trkpt>
      <trkpt lat="44.94028" lon="5.39039">
        <ele>1020.1</ele>
        <time>2015-10-18T12:33:23Z</time>
      </trkpt>
      <trkpt lat="44.94015" lon="5.39028">
        <ele>1021.1</ele>
        <time>2015-10-18T12:33:24Z</time>
      </trkpt>
      <trkpt lat="44.94008" lon="5.39013">
        <ele>1022</ele>
        <time>2015-10-18T12:33:25Z</time>
      </trkpt>
      <trkpt lat="44.94004" lon="5.38996">
        <ele>1023</ele>
        <time>2015-10-18T12:33:26Z</time>
      </trkpt>
      <trkpt lat="44.94004" lon="5.38979">
        <ele>1023.5</ele>
        <time>2015-10-18T12:33:27Z</time>
      </trkpt>
      <trkpt lat="44.94026" lon="5.38801">
        <ele>1031.2</ele>
        <time>2015-10-18T12:33:36Z</time>
      </trkpt>
      <trkpt lat="44.93999" lon="5.38622">
        <ele>1037.9</ele>
        <time>2015-10-18T12:33:46Z</time>
      </trkpt>
      <trkpt lat="44.93993" lon="5.38605">
        <ele>1038.8</ele>
        <time>2015-10-18T12:33:47Z</time>
      </trkpt>
      <trkpt lat="44.93985" lon="5.3859">
        <ele>1039.3</ele>
        <time>2015-10-18T12:33:48Z</time>
      </trkpt>
      <trkpt lat="44.93975" lon="5.38577">
        <ele>1040.3</ele>
        <time>2015-10-18T12:33:49Z</time>
      </trkpt>
      <trkpt lat="44.93858" lon="5.38463">
        <ele>1048.5</ele>
        <time>2015-10-18T12:33:58Z</time>
      </trkpt>
      <trkpt lat="44.93828" lon="5.3842">
        <ele>1050.9</ele>
        <time>2015-10-18T12:34:01Z</time>
      </trkpt>
      <trkpt lat="44.93816" lon="5.38412">
        <ele>1051.3</ele>
        <time>2015-10-18T12:34:02Z</time>
      </trkpt>
      <trkpt lat="44.93803" lon="5.38408">
        <ele>1052.3</ele>
        <time>2015-10-18T12:34:03Z</time>
      </trkpt>
      <trkpt lat="44.93773" lon="5.38404">
        <ele>1053.7</ele>
        <time>2015-10-18T12:34:05Z</time>
      </trkpt>
      <trkpt lat="44.93713" lon="5.38388">
        <ele>1056.6</ele>
        <time>2015-10-18T12:34:09Z</time>
      </trkpt>
      <trkpt lat="44.93701" lon="5.3838">
        <ele>1057.6</ele>
        <time>2015-10-18T12:34:10Z</time>
      </trkpt>
      <trkpt lat="44.9369" lon="5.38368">
        <ele>1058.1</ele>
        <time>2015-10-18T12:34:11Z</time>
      </trkpt>
      <trkpt lat="44.93662" lon="5.38324">
        <ele>1060.5</ele>
        <time>2015-10-18T12:34:14Z</time>
      </trkpt>
      <trkpt lat="44.93651" lon="5.38313">
        <ele>1061.4</ele>
        <time>2015-10-18T12:34:15Z</time>
      </trkpt>
      <trkpt lat="44.93639" lon="5.38306">
        <ele>1061.9</ele>
        <time>2015-10-18T12:34:16Z</time>
      </trkpt>
      <trkpt lat="44.93612" lon="5.38312">
        <ele>1063.4</ele>
        <time>2015-10-18T12:34:18Z</time>
      </trkpt>
      <trkpt lat="44.93602" lon="5.38322">
        <ele>1063.8</ele>
        <time>2015-10-18T12:34:19Z</time>
      </trkpt>
      <trkpt lat="44.93593" lon="5.38334">
        <ele>1064.8</ele>
        <time>2015-10-18T12:34:20Z</time>
      </trkpt>
      <trkpt lat="44.93573" lon="5.38385">
        <ele>1067.2</ele>
        <time>2015-10-18T12:34:23Z</time>
      </trkpt>
      <trkpt lat="44.93564" lon="5.38401">
        <ele>1068.2</ele>
        <time>2015-10-18T12:34:24Z</time>
      </trkpt>
      <trkpt lat="44.93554" lon="5.38414">
        <ele>1069.6</ele>
        <time>2015-10-18T12:34:25Z</time>
      </trkpt>
      <trkpt lat="44.93542" lon="5.38423">
        <ele>1070.6</ele>
        <time>2015-10-18T12:34:26Z</time>
      </trkpt>
      <trkpt lat="44.93529" lon="5.3843">
        <ele>1071.5</ele>
        <time>2015-10-18T12:34:27Z</time>
      </trkpt>
      <trkpt lat="44.93514" lon="5.38434">
        <ele>1072.5</ele>
        <time>2015-10-18T12:34:28Z</time>
      </trkpt>
      <trkpt lat="44.93499" lon="5.38434">
        <ele>1073.5</ele>
        <time>2015-10-18T12:34:29Z</time>
      </trkpt>
      <trkpt lat="44.93419" lon="5.38421">
        <ele>1078.7</ele>
        <time>2015-10-18T12:34:33Z</time>
      </trkpt>
      <trkpt lat="44.93373" lon="5.38421">
        <ele>1080.2</ele>
        <time>2015-10-18T12:34:35Z</time>
      </trkpt>
      <trkpt lat="44.93215" lon="5.38386">
        <ele>1086.9</ele>
        <time>2015-10-18T12:34:42Z</time>
      </trkpt>
      <trkpt lat="44.93195" lon="5.38388">
        <ele>1088.4</ele>
        <time>2015-10-18T12:34:43Z</time>
      </trkpt>
      <trkpt lat="44.93176" lon="5.38393">
        <ele>1089.3</ele>
        <time>2015-10-18T12:34:44Z</time>
      </trkpt>
      <trkpt lat="44.93157" lon="5.384">
        <ele>1090.8</ele>
        <time>2015-10-18T12:34:45Z</time>
      </trkpt>
      <trkpt lat="44.93106" lon="5.38431">
        <ele>1093.2</ele>
        <time>2015-10-18T12:34:48Z</time>
      </trkpt>
      <trkpt lat="44.9309" lon="5.38436">
        <ele>1094.1</ele>
        <time>2015-10-18T12:34:49Z</time>
      </trkpt>
      <trkpt lat="44.93072" lon="5.38435">
        <ele>1095.6</ele>
        <time>2015-10-18T12:34:50Z</time>
      </trkpt>
      <trkpt lat="44.93054" lon="5.3843">
        <ele>1096.5</ele>
        <time>2015-10-18T12:34:51Z</time>
      </trkpt>
      <trkpt lat="44.92935" lon="5.38386">
        <ele>1100.9</ele>
        <time>2015-10-18T12:34:57Z</time>
      </trkpt>
      <trkpt lat="44.92916" lon="5.38374">
        <ele>1100.9</ele>
        <time>2015-10-18T12:34:58Z</time>
      </trkpt>
      <trkpt lat="44.92805" lon="5.38278">
        <ele>1105.7</ele>
        <time>2015-10-18T12:35:05Z</time>
      </trkpt>
      <trkpt lat="44.92794" lon="5.38261">
        <ele>1106.6</ele>
        <time>2015-10-18T12:35:06Z</time>
      </trkpt>
      <trkpt lat="44.92786" lon="5.38242">
        <ele>1107.6</ele>
        <time>2015-10-18T12:35:07Z</time>
      </trkpt>
      <trkpt lat="44.92781" lon="5.38219">
        <ele>1108.1</ele>
        <time>2015-10-18T12:35:08Z</time>
      </trkpt>
      <trkpt lat="44.92778" lon="5.38195">
        <ele>1108.5</ele>
        <time>2015-10-18T12:35:09Z</time>
      </trkpt>
      <trkpt lat="44.92782" lon="5.38028">
        <ele>1107.6</ele>
        <time>2015-10-18T12:35:16Z</time>
      </trkpt>
      <trkpt lat="44.92773" lon="5.38011">
        <ele>1107.1</ele>
        <time>2015-10-18T12:35:17Z</time>
      </trkpt>
      <trkpt lat="44.92761" lon="5.37998">
        <ele>1106.1</ele>
        <time>2015-10-18T12:35:18Z</time>
      </trkpt>
      <trkpt lat="44.92725" lon="5.37982">
        <ele>1105.2</ele>
        <time>2015-10-18T12:35:20Z</time>
      </trkpt>
      <trkpt lat="44.92675" lon="5.37951">
        <ele>1104.2</ele>
        <time>2015-10-18T12:35:23Z</time>
      </trkpt>
      <trkpt lat="44.92607" lon="5.37873">
        <ele>1103.7</ele>
        <time>2015-10-18T12:35:28Z</time>
      </trkpt>
      <trkpt lat="44.92576" lon="5.37853">
        <ele>1103.7</ele>
        <time>2015-10-18T12:35:30Z</time>
      </trkpt>
      <trkpt lat="44.9256" lon="5.37846">
        <ele>1103.3</ele>
        <time>2015-10-18T12:35:31Z</time>
      </trkpt>
      <trkpt lat="44.92527" lon="5.37851">
        <ele>1102.8</ele>
        <time>2015-10-18T12:35:33Z</time>
      </trkpt>
      <trkpt lat="44.9251" lon="5.37859">
        <ele>1102.3</ele>
        <time>2015-10-18T12:35:34Z</time>
      </trkpt>
      <trkpt lat="44.92476" lon="5.3788">
        <ele>1100.9</ele>
        <time>2015-10-18T12:35:36Z</time>
      </trkpt>
      <trkpt lat="44.92359" lon="5.37997">
        <ele>1098</ele>
        <time>2015-10-18T12:35:44Z</time>
      </trkpt>
      <trkpt lat="44.92345" lon="5.38002">
        <ele>1097.5</ele>
        <time>2015-10-18T12:35:45Z</time>
      </trkpt>
      <trkpt lat="44.9233" lon="5.38002">
        <ele>1097</ele>
        <time>2015-10-18T12:35:46Z</time>
      </trkpt>
      <trkpt lat="44.92298" lon="5.37981">
        <ele>1097</ele>
        <time>2015-10-18T12:35:48Z</time>
      </trkpt>
      <trkpt lat="44.92266" lon="5.37953">
        <ele>1095.6</ele>
        <time>2015-10-18T12:35:50Z</time>
      </trkpt>
      <trkpt lat="44.92183" lon="5.37868">
        <ele>1094.6</ele>
        <time>2015-10-18T12:35:55Z</time>
      </trkpt>
      <trkpt lat="44.92129" lon="5.37785">
        <ele>1094.6</ele>
        <time>2015-10-18T12:35:59Z</time>
      </trkpt>
      <trkpt lat="44.92114" lon="5.37768">
        <ele>1094.6</ele>
        <time>2015-10-18T12:36:00Z</time>
      </trkpt>
      <trkpt lat="44.92066" lon="5.37725">
        <ele>1095.6</ele>
        <time>2015-10-18T12:36:03Z</time>
      </trkpt>
      <trkpt lat="44.9205" lon="5.37717">
        <ele>1095.6</ele>
        <time>2015-10-18T12:36:04Z</time>
      </trkpt>
      <trkpt lat="44.92034" lon="5.37714">
        <ele>1095.1</ele>
        <time>2015-10-18T12:36:05Z</time>
      </trkpt>
      <trkpt lat="44.92016" lon="5.37714">
        <ele>1094.6</ele>
        <time>2015-10-18T12:36:06Z</time>
      </trkpt>
      <trkpt lat="44.91774" lon="5.37755">
        <ele>1084</ele>
        <time>2015-10-18T12:36:19Z</time>
      </trkpt>
      <trkpt lat="44.91756" lon="5.37754">
        <ele>1083.1</ele>
        <time>2015-10-18T12:36:20Z</time>
      </trkpt>
      <trkpt lat="44.91532" lon="5.37692">
        <ele>1073.9</ele>
        <time>2015-10-18T12:36:32Z</time>
      </trkpt>
      <trkpt lat="44.9136" lon="5.37616">
        <ele>1064.3</ele>
        <time>2015-10-18T12:36:41Z</time>
      </trkpt>
      <trkpt lat="44.91169" lon="5.37561">
        <ele>1061</ele>
        <time>2015-10-18T12:36:50Z</time>
      </trkpt>
      <trkpt lat="44.90948" lon="5.37399">
        <ele>1056.6</ele>
        <time>2015-10-18T12:37:02Z</time>
      </trkpt>
      <trkpt lat="44.90908" lon="5.37352">
        <ele>1056.2</ele>
        <time>2015-10-18T12:37:05Z</time>
      </trkpt>
      <trkpt lat="44.90892" lon="5.37342">
        <ele>1056.2</ele>
        <time>2015-10-18T12:37:06Z</time>
      </trkpt>
      <trkpt lat="44.90874" lon="5.37335">
        <ele>1056.2</ele>
        <time>2015-10-18T12:37:07Z</time>
      </trkpt>
      <trkpt lat="44.90855" lon="5.37334">
        <ele>1055.7</ele>
        <time>2015-10-18T12:37:08Z</time>
      </trkpt>
      <trkpt lat="44.90837" lon="5.37339">
        <ele>1055.7</ele>
        <time>2015-10-18T12:37:09Z</time>
      </trkpt>
      <trkpt lat="44.90821" lon="5.37349">
        <ele>1055.7</ele>
        <time>2015-10-18T12:37:10Z</time>
      </trkpt>
      <trkpt lat="44.9078" lon="5.37387">
        <ele>1056.2</ele>
        <time>2015-10-18T12:37:13Z</time>
      </trkpt>
      <trkpt lat="44.90767" lon="5.37395">
        <ele>1056.2</ele>
        <time>2015-10-18T12:37:14Z</time>
      </trkpt>
      <trkpt lat="44.90751" lon="5.37396">
        <ele>1055.7</ele>
        <time>2015-10-18T12:37:15Z</time>
      </trkpt>
      <trkpt lat="44.90736" lon="5.37389">
        <ele>1055.7</ele>
        <time>2015-10-18T12:37:16Z</time>
      </trkpt>
      <trkpt lat="44.90701" lon="5.37361">
        <ele>1057.1</ele>
        <time>2015-10-18T12:37:18Z</time>
      </trkpt>
      <trkpt lat="44.90365" lon="5.37165">
        <ele>1072</ele>
        <time>2015-10-18T12:37:43Z</time>
      </trkpt>
      <trkpt lat="44.90357" lon="5.37158">
        <ele>1072.5</ele>
        <time>2015-10-18T12:37:45Z</time>
      </trkpt>
      <trkpt lat="44.90353" lon="5.37156">
        <ele>1072.5</ele>
        <time>2015-10-18T12:37:46Z</time>
      </trkpt>
      <trkpt lat="44.90341" lon="5.37155">
        <ele>1072.5</ele>
        <time>2015-10-18T12:37:49Z</time>
      </trkpt>
      <trkpt lat="44.90327" lon="5.37151">
        <ele>1072</ele>
        <time>2015-10-18T12:37:53Z</time>
      </trkpt>
      <trkpt lat="44.90326" lon="5.37151">
        <ele>1072</ele>
        <time>2015-10-18T12:37:54Z</time>
      </trkpt>
      <trkpt lat="44.90324" lon="5.37152">
        <ele>1071.5</ele>
        <time>2015-10-18T12:37:55Z</time>
      </trkpt>
      <trkpt lat="44.90324" lon="5.37154">
        <ele>1071.5</ele>
        <time>2015-10-18T12:37:56Z</time>
      </trkpt>
      <trkpt lat="44.90326" lon="5.37154">
        <ele>1070.6</ele>
        <time>2015-10-18T12:38:11Z</time>
      </trkpt>
      <trkpt lat="44.90333" lon="5.37164">
        <ele>1073</ele>
        <time>2015-10-18T12:51:33Z</time>
      </trkpt>
      <trkpt lat="44.90337" lon="5.37166">
        <ele>1073</ele>
        <time>2015-10-18T12:51:34Z</time>
      </trkpt>
      <trkpt lat="44.90341" lon="5.37168">
        <ele>1073</ele>
        <time>2015-10-18T12:51:35Z</time>
      </trkpt>
      <trkpt lat="44.90351" lon="5.3717">
        <ele>1073</ele>
        <time>2015-10-18T12:51:37Z</time>
      </trkpt>
      <trkpt lat="44.9036" lon="5.3717">
        <ele>1073</ele>
        <time>2015-10-18T12:51:39Z</time>
      </trkpt>
      <trkpt lat="44.90365" lon="5.37167">
        <ele>1073</ele>
        <time>2015-10-18T12:51:40Z</time>
      </trkpt>
      <trkpt lat="44.90368" lon="5.37162">
        <ele>1073</ele>
        <time>2015-10-18T12:51:41Z</time>
      </trkpt>
      <trkpt lat="44.90378" lon="5.37139">
        <ele>1073.5</ele>
        <time>2015-10-18T12:51:45Z</time>
      </trkpt>
      <trkpt lat="44.90613" lon="5.36807">
        <ele>1101.8</ele>
        <time>2015-10-18T12:52:18Z</time>
      </trkpt>
      <trkpt lat="44.90711" lon="5.36692">
        <ele>1113.8</ele>
        <time>2015-10-18T12:52:26Z</time>
      </trkpt>
      <trkpt lat="44.90726" lon="5.36689">
        <ele>1115.3</ele>
        <time>2015-10-18T12:52:27Z</time>
      </trkpt>
      <trkpt lat="44.90739" lon="5.36693">
        <ele>1116.2</ele>
        <time>2015-10-18T12:52:28Z</time>
      </trkpt>
      <trkpt lat="44.90868" lon="5.36826">
        <ele>1127.8</ele>
        <time>2015-10-18T12:52:38Z</time>
      </trkpt>
      <trkpt lat="44.90882" lon="5.36832">
        <ele>1128.7</ele>
        <time>2015-10-18T12:52:39Z</time>
      </trkpt>
      <trkpt lat="44.90897" lon="5.36833">
        <ele>1130.2</ele>
        <time>2015-10-18T12:52:40Z</time>
      </trkpt>
      <trkpt lat="44.9093" lon="5.36831">
        <ele>1132.6</ele>
        <time>2015-10-18T12:52:42Z</time>
      </trkpt>
      <trkpt lat="44.90981" lon="5.36837">
        <ele>1135.9</ele>
        <time>2015-10-18T12:52:45Z</time>
      </trkpt>
      <trkpt lat="44.91078" lon="5.36881">
        <ele>1144.1</ele>
        <time>2015-10-18T12:52:51Z</time>
      </trkpt>
      <trkpt lat="44.91147" lon="5.36893">
        <ele>1149.9</ele>
        <time>2015-10-18T12:52:55Z</time>
      </trkpt>
      <trkpt lat="44.91164" lon="5.369">
        <ele>1151.3</ele>
        <time>2015-10-18T12:52:56Z</time>
      </trkpt>
      <trkpt lat="44.9118" lon="5.3691">
        <ele>1152.3</ele>
        <time>2015-10-18T12:52:57Z</time>
      </trkpt>
      <trkpt lat="44.91195" lon="5.36923">
        <ele>1153.7</ele>
        <time>2015-10-18T12:52:58Z</time>
      </trkpt>
      <trkpt lat="44.91241" lon="5.36988">
        <ele>1160</ele>
        <time>2015-10-18T12:53:02Z</time>
      </trkpt>
      <trkpt lat="44.91253" lon="5.37">
        <ele>1161.4</ele>
        <time>2015-10-18T12:53:03Z</time>
      </trkpt>
      <trkpt lat="44.91268" lon="5.37007">
        <ele>1162.4</ele>
        <time>2015-10-18T12:53:04Z</time>
      </trkpt>
      <trkpt lat="44.91283" lon="5.37011">
        <ele>1163.3</ele>
        <time>2015-10-18T12:53:05Z</time>
      </trkpt>
      <trkpt lat="44.91299" lon="5.37012">
        <ele>1164.3</ele>
        <time>2015-10-18T12:53:06Z</time>
      </trkpt>
      <trkpt lat="44.91316" lon="5.3701">
        <ele>1165.3</ele>
        <time>2015-10-18T12:53:07Z</time>
      </trkpt>
      <trkpt lat="44.91365" lon="5.36988">
        <ele>1168.6</ele>
        <time>2015-10-18T12:53:10Z</time>
      </trkpt>
      <trkpt lat="44.91384" lon="5.36984">
        <ele>1170.1</ele>
        <time>2015-10-18T12:53:11Z</time>
      </trkpt>
      <trkpt lat="44.91401" lon="5.36985">
        <ele>1171.5</ele>
        <time>2015-10-18T12:53:12Z</time>
      </trkpt>
      <trkpt lat="44.91419" lon="5.3699">
        <ele>1173.4</ele>
        <time>2015-10-18T12:53:13Z</time>
      </trkpt>
      <trkpt lat="44.91437" lon="5.37001">
        <ele>1174.9</ele>
        <time>2015-10-18T12:53:14Z</time>
      </trkpt>
      <trkpt lat="44.91454" lon="5.37013">
        <ele>1176.8</ele>
        <time>2015-10-18T12:53:15Z</time>
      </trkpt>
      <trkpt lat="44.91551" lon="5.37099">
        <ele>1186.4</ele>
        <time>2015-10-18T12:53:21Z</time>
      </trkpt>
      <trkpt lat="44.91568" lon="5.37107">
        <ele>1188.3</ele>
        <time>2015-10-18T12:53:22Z</time>
      </trkpt>
      <trkpt lat="44.91791" lon="5.37166">
        <ele>1205.2</ele>
        <time>2015-10-18T12:53:35Z</time>
      </trkpt>
      <trkpt lat="44.91809" lon="5.37167">
        <ele>1207.1</ele>
        <time>2015-10-18T12:53:37Z</time>
      </trkpt>
      <trkpt lat="44.9182" lon="5.37161">
        <ele>1208.5</ele>
        <time>2015-10-18T12:53:39Z</time>
      </trkpt>
      <trkpt lat="44.9181" lon="5.37139">
        <ele>1209.5</ele>
        <time>2015-10-18T12:53:41Z</time>
      </trkpt>
      <trkpt lat="44.91765" lon="5.37142">
        <ele>1212.4</ele>
        <time>2015-10-18T12:53:45Z</time>
      </trkpt>
      <trkpt lat="44.9175" lon="5.37138">
        <ele>1213.3</ele>
        <time>2015-10-18T12:53:46Z</time>
      </trkpt>
      <trkpt lat="44.91736" lon="5.37129">
        <ele>1213.8</ele>
        <time>2015-10-18T12:53:47Z</time>
      </trkpt>
      <trkpt lat="44.91613" lon="5.37043">
        <ele>1226.3</ele>
        <time>2015-10-18T12:53:55Z</time>
      </trkpt>
      <trkpt lat="44.91557" lon="5.36983">
        <ele>1229.7</ele>
        <time>2015-10-18T12:53:59Z</time>
      </trkpt>
      <trkpt lat="44.91349" lon="5.36721">
        <ele>1254.2</ele>
        <time>2015-10-18T12:54:14Z</time>
      </trkpt>
      <trkpt lat="44.91009" lon="5.36405">
        <ele>1292.2</ele>
        <time>2015-10-18T12:54:37Z</time>
      </trkpt>
      <trkpt lat="44.90842" lon="5.36271">
        <ele>1308</ele>
        <time>2015-10-18T12:54:48Z</time>
      </trkpt>
      <trkpt lat="44.90782" lon="5.36182">
        <ele>1315.2</ele>
        <time>2015-10-18T12:54:53Z</time>
      </trkpt>
      <trkpt lat="44.90759" lon="5.36123">
        <ele>1319.1</ele>
        <time>2015-10-18T12:54:56Z</time>
      </trkpt>
      <trkpt lat="44.90729" lon="5.3607">
        <ele>1322.9</ele>
        <time>2015-10-18T12:54:59Z</time>
      </trkpt>
      <trkpt lat="44.90723" lon="5.3605">
        <ele>1324.4</ele>
        <time>2015-10-18T12:55:00Z</time>
      </trkpt>
      <trkpt lat="44.9072" lon="5.3603">
        <ele>1325.8</ele>
        <time>2015-10-18T12:55:01Z</time>
      </trkpt>
      <trkpt lat="44.9072" lon="5.36008">
        <ele>1326.8</ele>
        <time>2015-10-18T12:55:02Z</time>
      </trkpt>
      <trkpt lat="44.90723" lon="5.35986">
        <ele>1327.7</ele>
        <time>2015-10-18T12:55:03Z</time>
      </trkpt>
      <trkpt lat="44.90733" lon="5.3594">
        <ele>1330.1</ele>
        <time>2015-10-18T12:55:05Z</time>
      </trkpt>
      <trkpt lat="44.90736" lon="5.35877">
        <ele>1333.5</ele>
        <time>2015-10-18T12:55:08Z</time>
      </trkpt>
      <trkpt lat="44.90748" lon="5.3582">
        <ele>1337.3</ele>
        <time>2015-10-18T12:55:11Z</time>
      </trkpt>
      <trkpt lat="44.90748" lon="5.35803">
        <ele>1338.3</ele>
        <time>2015-10-18T12:55:12Z</time>
      </trkpt>
      <trkpt lat="44.90745" lon="5.35786">
        <ele>1338.8</ele>
        <time>2015-10-18T12:55:13Z</time>
      </trkpt>
      <trkpt lat="44.90734" lon="5.35751">
        <ele>1341.2</ele>
        <time>2015-10-18T12:55:15Z</time>
      </trkpt>
      <trkpt lat="44.90727" lon="5.35712">
        <ele>1343.6</ele>
        <time>2015-10-18T12:55:17Z</time>
      </trkpt>
      <trkpt lat="44.90727" lon="5.35692">
        <ele>1344.5</ele>
        <time>2015-10-18T12:55:18Z</time>
      </trkpt>
      <trkpt lat="44.90729" lon="5.35672">
        <ele>1345.5</ele>
        <time>2015-10-18T12:55:19Z</time>
      </trkpt>
      <trkpt lat="44.90734" lon="5.35654">
        <ele>1346.5</ele>
        <time>2015-10-18T12:55:20Z</time>
      </trkpt>
      <trkpt lat="44.90743" lon="5.35638">
        <ele>1347.4</ele>
        <time>2015-10-18T12:55:21Z</time>
      </trkpt>
      <trkpt lat="44.90754" lon="5.35623">
        <ele>1348.9</ele>
        <time>2015-10-18T12:55:22Z</time>
      </trkpt>
      <trkpt lat="44.90816" lon="5.35569">
        <ele>1356.1</ele>
        <time>2015-10-18T12:55:27Z</time>
      </trkpt>
      <trkpt lat="44.90827" lon="5.35566">
        <ele>1357</ele>
        <time>2015-10-18T12:55:28Z</time>
      </trkpt>
      <trkpt lat="44.90838" lon="5.35567">
        <ele>1358.5</ele>
        <time>2015-10-18T12:55:29Z</time>
      </trkpt>
      <trkpt lat="44.90862" lon="5.35576">
        <ele>1361.4</ele>
        <time>2015-10-18T12:55:31Z</time>
      </trkpt>
      <trkpt lat="44.90876" lon="5.35578">
        <ele>1362.8</ele>
        <time>2015-10-18T12:55:32Z</time>
      </trkpt>
      <trkpt lat="44.90907" lon="5.35575">
        <ele>1364.7</ele>
        <time>2015-10-18T12:55:34Z</time>
      </trkpt>
      <trkpt lat="44.91002" lon="5.35533">
        <ele>1366.2</ele>
        <time>2015-10-18T12:55:40Z</time>
      </trkpt>
      <trkpt lat="44.91016" lon="5.35521">
        <ele>1365.2</ele>
        <time>2015-10-18T12:55:41Z</time>
      </trkpt>
      <trkpt lat="44.91027" lon="5.35504">
        <ele>1365.7</ele>
        <time>2015-10-18T12:55:42Z</time>
      </trkpt>
      <trkpt lat="44.91033" lon="5.35458">
        <ele>1364.3</ele>
        <time>2015-10-18T12:55:44Z</time>
      </trkpt>
      <trkpt lat="44.91032" lon="5.35435">
        <ele>1364.3</ele>
        <time>2015-10-18T12:55:45Z</time>
      </trkpt>
      <trkpt lat="44.91011" lon="5.35356">
        <ele>1364.3</ele>
        <time>2015-10-18T12:55:48Z</time>
      </trkpt>
      <trkpt lat="44.91004" lon="5.35308">
        <ele>1365.2</ele>
        <time>2015-10-18T12:55:50Z</time>
      </trkpt>
      <trkpt lat="44.91012" lon="5.3513">
        <ele>1371</ele>
        <time>2015-10-18T12:55:57Z</time>
      </trkpt>
      <trkpt lat="44.90994" lon="5.34998">
        <ele>1374.3</ele>
        <time>2015-10-18T12:56:02Z</time>
      </trkpt>
      <trkpt lat="44.90994" lon="5.34972">
        <ele>1375.3</ele>
        <time>2015-10-18T12:56:03Z</time>
      </trkpt>
      <trkpt lat="44.91001" lon="5.34876">
        <ele>1379.2</ele>
        <time>2015-10-18T12:56:07Z</time>
      </trkpt>
      <trkpt lat="44.90972" lon="5.34669">
        <ele>1385.9</ele>
        <time>2015-10-18T12:56:16Z</time>
      </trkpt>
      <trkpt lat="44.90964" lon="5.34652">
        <ele>1386.8</ele>
        <time>2015-10-18T12:56:17Z</time>
      </trkpt>
      <trkpt lat="44.90943" lon="5.34627">
        <ele>1387.3</ele>
        <time>2015-10-18T12:56:19Z</time>
      </trkpt>
      <trkpt lat="44.9093" lon="5.34623">
        <ele>1387.8</ele>
        <time>2015-10-18T12:56:20Z</time>
      </trkpt>
      <trkpt lat="44.90871" lon="5.3463">
        <ele>1390.7</ele>
        <time>2015-10-18T12:56:24Z</time>
      </trkpt>
      <trkpt lat="44.90861" lon="5.34629">
        <ele>1392.1</ele>
        <time>2015-10-18T12:56:25Z</time>
      </trkpt>
      <trkpt lat="44.90852" lon="5.34618">
        <ele>1392.6</ele>
        <time>2015-10-18T12:56:26Z</time>
      </trkpt>
      <trkpt lat="44.9084" lon="5.34583">
        <ele>1394.5</ele>
        <time>2015-10-18T12:56:28Z</time>
      </trkpt>
      <trkpt lat="44.9082" lon="5.3455">
        <ele>1396.9</ele>
        <time>2015-10-18T12:56:30Z</time>
      </trkpt>
      <trkpt lat="44.90794" lon="5.34529">
        <ele>1398.9</ele>
        <time>2015-10-18T12:56:32Z</time>
      </trkpt>
      <trkpt lat="44.90783" lon="5.34516">
        <ele>1399.8</ele>
        <time>2015-10-18T12:56:33Z</time>
      </trkpt>
      <trkpt lat="44.90775" lon="5.345">
        <ele>1400.8</ele>
        <time>2015-10-18T12:56:34Z</time>
      </trkpt>
      <trkpt lat="44.90769" lon="5.34481">
        <ele>1402.2</ele>
        <time>2015-10-18T12:56:35Z</time>
      </trkpt>
      <trkpt lat="44.90765" lon="5.34437">
        <ele>1403.7</ele>
        <time>2015-10-18T12:56:37Z</time>
      </trkpt>
      <trkpt lat="44.90755" lon="5.34392">
        <ele>1405.6</ele>
        <time>2015-10-18T12:56:39Z</time>
      </trkpt>
      <trkpt lat="44.90744" lon="5.34372">
        <ele>1406.6</ele>
        <time>2015-10-18T12:56:40Z</time>
      </trkpt>
      <trkpt lat="44.90731" lon="5.34355">
        <ele>1407.5</ele>
        <time>2015-10-18T12:56:41Z</time>
      </trkpt>
      <trkpt lat="44.90702" lon="5.34322">
        <ele>1409.9</ele>
        <time>2015-10-18T12:56:43Z</time>
      </trkpt>
      <trkpt lat="44.90541" lon="5.3421">
        <ele>1420.5</ele>
        <time>2015-10-18T12:56:52Z</time>
      </trkpt>
      <trkpt lat="44.90532" lon="5.34195">
        <ele>1421</ele>
        <time>2015-10-18T12:56:53Z</time>
      </trkpt>
      <trkpt lat="44.90528" lon="5.34178">
        <ele>1421.5</ele>
        <time>2015-10-18T12:56:54Z</time>
      </trkpt>
      <trkpt lat="44.90532" lon="5.34141">
        <ele>1423.4</ele>
        <time>2015-10-18T12:56:56Z</time>
      </trkpt>
      <trkpt lat="44.90547" lon="5.34105">
        <ele>1424.3</ele>
        <time>2015-10-18T12:56:58Z</time>
      </trkpt>
      <trkpt lat="44.90557" lon="5.34089">
        <ele>1425.3</ele>
        <time>2015-10-18T12:56:59Z</time>
      </trkpt>
      <trkpt lat="44.90569" lon="5.34078">
        <ele>1425.8</ele>
        <time>2015-10-18T12:57:00Z</time>
      </trkpt>
      <trkpt lat="44.90614" lon="5.34052">
        <ele>1427.7</ele>
        <time>2015-10-18T12:57:03Z</time>
      </trkpt>
      <trkpt lat="44.90627" lon="5.34041">
        <ele>1427.7</ele>
        <time>2015-10-18T12:57:04Z</time>
      </trkpt>
      <trkpt lat="44.90638" lon="5.34029">
        <ele>1428.7</ele>
        <time>2015-10-18T12:57:05Z</time>
      </trkpt>
      <trkpt lat="44.90644" lon="5.34014">
        <ele>1429.1</ele>
        <time>2015-10-18T12:57:06Z</time>
      </trkpt>
      <trkpt lat="44.90646" lon="5.33997">
        <ele>1429.1</ele>
        <time>2015-10-18T12:57:07Z</time>
      </trkpt>
      <trkpt lat="44.90641" lon="5.33977">
        <ele>1429.6</ele>
        <time>2015-10-18T12:57:08Z</time>
      </trkpt>
      <trkpt lat="44.90633" lon="5.33962">
        <ele>1429.6</ele>
        <time>2015-10-18T12:57:09Z</time>
      </trkpt>
      <trkpt lat="44.90623" lon="5.33955">
        <ele>1429.1</ele>
        <time>2015-10-18T12:57:10Z</time>
      </trkpt>
      <trkpt lat="44.90613" lon="5.33946">
        <ele>1429.6</ele>
        <time>2015-10-18T12:57:11Z</time>
      </trkpt>
      <trkpt lat="44.906" lon="5.3394">
        <ele>1429.6</ele>
        <time>2015-10-18T12:57:12Z</time>
      </trkpt>
      <trkpt lat="44.90589" lon="5.33932">
        <ele>1430.1</ele>
        <time>2015-10-18T12:57:13Z</time>
      </trkpt>
      <trkpt lat="44.90581" lon="5.3392">
        <ele>1430.6</ele>
        <time>2015-10-18T12:57:14Z</time>
      </trkpt>
      <trkpt lat="44.90576" lon="5.33904">
        <ele>1430.6</ele>
        <time>2015-10-18T12:57:15Z</time>
      </trkpt>
      <trkpt lat="44.90573" lon="5.33884">
        <ele>1430.6</ele>
        <time>2015-10-18T12:57:16Z</time>
      </trkpt>
      <trkpt lat="44.90578" lon="5.33648">
        <ele>1436.8</ele>
        <time>2015-10-18T12:57:26Z</time>
      </trkpt>
      <trkpt lat="44.90593" lon="5.33536">
        <ele>1439.7</ele>
        <time>2015-10-18T12:57:33Z</time>
      </trkpt>
      <trkpt lat="44.90597" lon="5.33525">
        <ele>1439.7</ele>
        <time>2015-10-18T12:57:34Z</time>
      </trkpt>
      <trkpt lat="44.90602" lon="5.33516">
        <ele>1439.2</ele>
        <time>2015-10-18T12:57:35Z</time>
      </trkpt>
      <trkpt lat="44.90609" lon="5.33508">
        <ele>1438.8</ele>
        <time>2015-10-18T12:57:36Z</time>
      </trkpt>
      <trkpt lat="44.90618" lon="5.33501">
        <ele>1438.3</ele>
        <time>2015-10-18T12:57:37Z</time>
      </trkpt>
      <trkpt lat="44.90627" lon="5.33496">
        <ele>1437.8</ele>
        <time>2015-10-18T12:57:38Z</time>
      </trkpt>
      <trkpt lat="44.90638" lon="5.33491">
        <ele>1437.3</ele>
        <time>2015-10-18T12:57:39Z</time>
      </trkpt>
      <trkpt lat="44.90649" lon="5.33489">
        <ele>1437.3</ele>
        <time>2015-10-18T12:57:40Z</time>
      </trkpt>
      <trkpt lat="44.90723" lon="5.33494">
        <ele>1433.5</ele>
        <time>2015-10-18T12:57:46Z</time>
      </trkpt>
      <trkpt lat="44.90736" lon="5.33491">
        <ele>1432.5</ele>
        <time>2015-10-18T12:57:47Z</time>
      </trkpt>
      <trkpt lat="44.90749" lon="5.33485">
        <ele>1431.1</ele>
        <time>2015-10-18T12:57:48Z</time>
      </trkpt>
      <trkpt lat="44.90761" lon="5.33477">
        <ele>1430.1</ele>
        <time>2015-10-18T12:57:49Z</time>
      </trkpt>
      <trkpt lat="44.9086" lon="5.33368">
        <ele>1423.4</ele>
        <time>2015-10-18T12:58:00Z</time>
      </trkpt>
      <trkpt lat="44.90867" lon="5.33357">
        <ele>1422.9</ele>
        <time>2015-10-18T12:58:01Z</time>
      </trkpt>
      <trkpt lat="44.90873" lon="5.33344">
        <ele>1422.4</ele>
        <time>2015-10-18T12:58:02Z</time>
      </trkpt>
      <trkpt lat="44.9089" lon="5.33288">
        <ele>1420</ele>
        <time>2015-10-18T12:58:06Z</time>
      </trkpt>
      <trkpt lat="44.90896" lon="5.33277">
        <ele>1419.5</ele>
        <time>2015-10-18T12:58:07Z</time>
      </trkpt>
      <trkpt lat="44.90904" lon="5.33269">
        <ele>1419</ele>
        <time>2015-10-18T12:58:08Z</time>
      </trkpt>
      <trkpt lat="44.90913" lon="5.33262">
        <ele>1418.6</ele>
        <time>2015-10-18T12:58:09Z</time>
      </trkpt>
      <trkpt lat="44.90924" lon="5.33259">
        <ele>1418.1</ele>
        <time>2015-10-18T12:58:10Z</time>
      </trkpt>
      <trkpt lat="44.90936" lon="5.33259">
        <ele>1417.6</ele>
        <time>2015-10-18T12:58:11Z</time>
      </trkpt>
      <trkpt lat="44.90959" lon="5.33262">
        <ele>1416.6</ele>
        <time>2015-10-18T12:58:13Z</time>
      </trkpt>
      <trkpt lat="44.9097" lon="5.33261">
        <ele>1416.2</ele>
        <time>2015-10-18T12:58:14Z</time>
      </trkpt>
      <trkpt lat="44.90981" lon="5.33257">
        <ele>1415.7</ele>
        <time>2015-10-18T12:58:15Z</time>
      </trkpt>
      <trkpt lat="44.90991" lon="5.33249">
        <ele>1415.2</ele>
        <time>2015-10-18T12:58:16Z</time>
      </trkpt>
      <trkpt lat="44.91011" lon="5.33206">
        <ele>1414.2</ele>
        <time>2015-10-18T12:58:19Z</time>
      </trkpt>
      <trkpt lat="44.91021" lon="5.33195">
        <ele>1413.8</ele>
        <time>2015-10-18T12:58:20Z</time>
      </trkpt>
      <trkpt lat="44.91071" lon="5.3317">
        <ele>1411.8</ele>
        <time>2015-10-18T12:58:24Z</time>
      </trkpt>
      <trkpt lat="44.91082" lon="5.33159">
        <ele>1410.9</ele>
        <time>2015-10-18T12:58:25Z</time>
      </trkpt>
      <trkpt lat="44.91089" lon="5.33144">
        <ele>1409.9</ele>
        <time>2015-10-18T12:58:26Z</time>
      </trkpt>
      <trkpt lat="44.91099" lon="5.33077">
        <ele>1408.5</ele>
        <time>2015-10-18T12:58:29Z</time>
      </trkpt>
      <trkpt lat="44.911" lon="5.33054">
        <ele>1407.5</ele>
        <time>2015-10-18T12:58:30Z</time>
      </trkpt>
      <trkpt lat="44.91092" lon="5.33004">
        <ele>1406.1</ele>
        <time>2015-10-18T12:58:32Z</time>
      </trkpt>
      <trkpt lat="44.91032" lon="5.32817">
        <ele>1399.8</ele>
        <time>2015-10-18T12:58:40Z</time>
      </trkpt>
      <trkpt lat="44.91022" lon="5.32797">
        <ele>1399.3</ele>
        <time>2015-10-18T12:58:41Z</time>
      </trkpt>
      <trkpt lat="44.90987" lon="5.32742">
        <ele>1396.9</ele>
        <time>2015-10-18T12:58:44Z</time>
      </trkpt>
      <trkpt lat="44.90977" lon="5.32722">
        <ele>1396</ele>
        <time>2015-10-18T12:58:45Z</time>
      </trkpt>
      <trkpt lat="44.9097" lon="5.327">
        <ele>1395</ele>
        <time>2015-10-18T12:58:46Z</time>
      </trkpt>
      <trkpt lat="44.90966" lon="5.32678">
        <ele>1394.1</ele>
        <time>2015-10-18T12:58:47Z</time>
      </trkpt>
      <trkpt lat="44.90966" lon="5.32655">
        <ele>1393.1</ele>
        <time>2015-10-18T12:58:48Z</time>
      </trkpt>
      <trkpt lat="44.90972" lon="5.32635">
        <ele>1392.6</ele>
        <time>2015-10-18T12:58:49Z</time>
      </trkpt>
      <trkpt lat="44.90991" lon="5.32599">
        <ele>1389.7</ele>
        <time>2015-10-18T12:58:51Z</time>
      </trkpt>
      <trkpt lat="44.91007" lon="5.3256">
        <ele>1387.3</ele>
        <time>2015-10-18T12:58:53Z</time>
      </trkpt>
      <trkpt lat="44.91017" lon="5.32544">
        <ele>1385.9</ele>
        <time>2015-10-18T12:58:54Z</time>
      </trkpt>
      <trkpt lat="44.91029" lon="5.3253">
        <ele>1384</ele>
        <time>2015-10-18T12:58:55Z</time>
      </trkpt>
      <trkpt lat="44.91043" lon="5.32519">
        <ele>1383</ele>
        <time>2015-10-18T12:58:56Z</time>
      </trkpt>
      <trkpt lat="44.91059" lon="5.32513">
        <ele>1382</ele>
        <time>2015-10-18T12:58:57Z</time>
      </trkpt>
      <trkpt lat="44.91312" lon="5.32514">
        <ele>1365.2</ele>
        <time>2015-10-18T12:59:11Z</time>
      </trkpt>
      <trkpt lat="44.91348" lon="5.32523">
        <ele>1361.8</ele>
        <time>2015-10-18T12:59:13Z</time>
      </trkpt>
      <trkpt lat="44.91413" lon="5.32551">
        <ele>1356.6</ele>
        <time>2015-10-18T12:59:17Z</time>
      </trkpt>
      <trkpt lat="44.9143" lon="5.32553">
        <ele>1355.1</ele>
        <time>2015-10-18T12:59:18Z</time>
      </trkpt>
      <trkpt lat="44.91447" lon="5.32551">
        <ele>1353.7</ele>
        <time>2015-10-18T12:59:19Z</time>
      </trkpt>
      <trkpt lat="44.91483" lon="5.32542">
        <ele>1350.8</ele>
        <time>2015-10-18T12:59:21Z</time>
      </trkpt>
      <trkpt lat="44.91624" lon="5.32489">
        <ele>1339.7</ele>
        <time>2015-10-18T12:59:29Z</time>
      </trkpt>
      <trkpt lat="44.91642" lon="5.32488">
        <ele>1338.3</ele>
        <time>2015-10-18T12:59:30Z</time>
      </trkpt>
      <trkpt lat="44.91659" lon="5.32491">
        <ele>1336.9</ele>
        <time>2015-10-18T12:59:31Z</time>
      </trkpt>
      <trkpt lat="44.91675" lon="5.32497">
        <ele>1335.4</ele>
        <time>2015-10-18T12:59:32Z</time>
      </trkpt>
      <trkpt lat="44.91717" lon="5.32531">
        <ele>1332.5</ele>
        <time>2015-10-18T12:59:35Z</time>
      </trkpt>
      <trkpt lat="44.9173" lon="5.32536">
        <ele>1331.1</ele>
        <time>2015-10-18T12:59:36Z</time>
      </trkpt>
      <trkpt lat="44.91744" lon="5.32536">
        <ele>1330.1</ele>
        <time>2015-10-18T12:59:37Z</time>
      </trkpt>
      <trkpt lat="44.91761" lon="5.32532">
        <ele>1328.7</ele>
        <time>2015-10-18T12:59:38Z</time>
      </trkpt>
      <trkpt lat="44.91795" lon="5.32519">
        <ele>1326.8</ele>
        <time>2015-10-18T12:59:40Z</time>
      </trkpt>
      <trkpt lat="44.91846" lon="5.32509">
        <ele>1324.8</ele>
        <time>2015-10-18T12:59:43Z</time>
      </trkpt>
      <trkpt lat="44.91863" lon="5.32513">
        <ele>1323.9</ele>
        <time>2015-10-18T12:59:44Z</time>
      </trkpt>
      <trkpt lat="44.91913" lon="5.32528">
        <ele>1320</ele>
        <time>2015-10-18T12:59:47Z</time>
      </trkpt>
      <trkpt lat="44.9193" lon="5.32529">
        <ele>1319.1</ele>
        <time>2015-10-18T12:59:48Z</time>
      </trkpt>
      <trkpt lat="44.91947" lon="5.32526">
        <ele>1317.6</ele>
        <time>2015-10-18T12:59:49Z</time>
      </trkpt>
      <trkpt lat="44.91965" lon="5.3252">
        <ele>1316.2</ele>
        <time>2015-10-18T12:59:50Z</time>
      </trkpt>
      <trkpt lat="44.9198" lon="5.3251">
        <ele>1314.7</ele>
        <time>2015-10-18T12:59:51Z</time>
      </trkpt>
      <trkpt lat="44.92008" lon="5.32485">
        <ele>1311.4</ele>
        <time>2015-10-18T12:59:53Z</time>
      </trkpt>
      <trkpt lat="44.9202" lon="5.32469">
        <ele>1310.4</ele>
        <time>2015-10-18T12:59:54Z</time>
      </trkpt>
      <trkpt lat="44.92043" lon="5.32414">
        <ele>1308</ele>
        <time>2015-10-18T12:59:57Z</time>
      </trkpt>
      <trkpt lat="44.92051" lon="5.32398">
        <ele>1307.5</ele>
        <time>2015-10-18T12:59:58Z</time>
      </trkpt>
      <trkpt lat="44.92061" lon="5.32386">
        <ele>1306.6</ele>
        <time>2015-10-18T12:59:59Z</time>
      </trkpt>
      <trkpt lat="44.92072" lon="5.32377">
        <ele>1306.6</ele>
        <time>2015-10-18T13:00:00Z</time>
      </trkpt>
      <trkpt lat="44.92087" lon="5.32377">
        <ele>1306.6</ele>
        <time>2015-10-18T13:00:01Z</time>
      </trkpt>
      <trkpt lat="44.92139" lon="5.32393">
        <ele>1304.2</ele>
        <time>2015-10-18T13:00:04Z</time>
      </trkpt>
      <trkpt lat="44.92245" lon="5.32443">
        <ele>1296.5</ele>
        <time>2015-10-18T13:00:10Z</time>
      </trkpt>
      <trkpt lat="44.92262" lon="5.32447">
        <ele>1295.5</ele>
        <time>2015-10-18T13:00:11Z</time>
      </trkpt>
      <trkpt lat="44.9228" lon="5.32448">
        <ele>1294.1</ele>
        <time>2015-10-18T13:00:12Z</time>
      </trkpt>
      <trkpt lat="44.92317" lon="5.32445">
        <ele>1291.2</ele>
        <time>2015-10-18T13:00:14Z</time>
      </trkpt>
      <trkpt lat="44.92441" lon="5.3245">
        <ele>1282.1</ele>
        <time>2015-10-18T13:00:21Z</time>
      </trkpt>
      <trkpt lat="44.92521" lon="5.32496">
        <ele>1276.8</ele>
        <time>2015-10-18T13:00:26Z</time>
      </trkpt>
      <trkpt lat="44.92539" lon="5.325">
        <ele>1275.3</ele>
        <time>2015-10-18T13:00:27Z</time>
      </trkpt>
      <trkpt lat="44.92557" lon="5.325">
        <ele>1274.4</ele>
        <time>2015-10-18T13:00:28Z</time>
      </trkpt>
      <trkpt lat="44.92576" lon="5.32498">
        <ele>1272.9</ele>
        <time>2015-10-18T13:00:29Z</time>
      </trkpt>
      <trkpt lat="44.92612" lon="5.3249">
        <ele>1269.6</ele>
        <time>2015-10-18T13:00:31Z</time>
      </trkpt>
      <trkpt lat="44.92645" lon="5.32487">
        <ele>1266.7</ele>
        <time>2015-10-18T13:00:33Z</time>
      </trkpt>
      <trkpt lat="44.92685" lon="5.32494">
        <ele>1262.8</ele>
        <time>2015-10-18T13:00:36Z</time>
      </trkpt>
      <trkpt lat="44.92696" lon="5.32488">
        <ele>1260.9</ele>
        <time>2015-10-18T13:00:37Z</time>
      </trkpt>
      <trkpt lat="44.92721" lon="5.32461">
        <ele>1258</ele>
        <time>2015-10-18T13:00:39Z</time>
      </trkpt>
      <trkpt lat="44.92745" lon="5.32417">
        <ele>1257.5</ele>
        <time>2015-10-18T13:00:41Z</time>
      </trkpt>
      <trkpt lat="44.92859" lon="5.32288">
        <ele>1248.9</ele>
        <time>2015-10-18T13:00:49Z</time>
      </trkpt>
      <trkpt lat="44.92995" lon="5.32243">
        <ele>1240.2</ele>
        <time>2015-10-18T13:00:56Z</time>
      </trkpt>
      <trkpt lat="44.9306" lon="5.32235">
        <ele>1236.4</ele>
        <time>2015-10-18T13:01:00Z</time>
      </trkpt>
      <trkpt lat="44.93075" lon="5.32242">
        <ele>1235</ele>
        <time>2015-10-18T13:01:01Z</time>
      </trkpt>
      <trkpt lat="44.93088" lon="5.32254">
        <ele>1233.5</ele>
        <time>2015-10-18T13:01:02Z</time>
      </trkpt>
      <trkpt lat="44.93128" lon="5.32321">
        <ele>1230.6</ele>
        <time>2015-10-18T13:01:06Z</time>
      </trkpt>
      <trkpt lat="44.93139" lon="5.32332">
        <ele>1229.7</ele>
        <time>2015-10-18T13:01:07Z</time>
      </trkpt>
      <trkpt lat="44.93153" lon="5.32339">
        <ele>1228.7</ele>
        <time>2015-10-18T13:01:08Z</time>
      </trkpt>
      <trkpt lat="44.93184" lon="5.32349">
        <ele>1226.3</ele>
        <time>2015-10-18T13:01:10Z</time>
      </trkpt>
      <trkpt lat="44.93231" lon="5.32359">
        <ele>1223.4</ele>
        <time>2015-10-18T13:01:13Z</time>
      </trkpt>
      <trkpt lat="44.93288" lon="5.32349">
        <ele>1218.1</ele>
        <time>2015-10-18T13:01:17Z</time>
      </trkpt>
      <trkpt lat="44.933" lon="5.3235">
        <ele>1217.2</ele>
        <time>2015-10-18T13:01:18Z</time>
      </trkpt>
      <trkpt lat="44.93328" lon="5.32358">
        <ele>1215.7</ele>
        <time>2015-10-18T13:01:21Z</time>
      </trkpt>
      <trkpt lat="44.93335" lon="5.32355">
        <ele>1214.3</ele>
        <time>2015-10-18T13:01:22Z</time>
      </trkpt>
      <trkpt lat="44.93339" lon="5.32349">
        <ele>1214.3</ele>
        <time>2015-10-18T13:01:23Z</time>
      </trkpt>
      <trkpt lat="44.93337" lon="5.32339">
        <ele>1214.3</ele>
        <time>2015-10-18T13:01:24Z</time>
      </trkpt>
      <trkpt lat="44.93327" lon="5.3233">
        <ele>1211.9</ele>
        <time>2015-10-18T13:01:25Z</time>
      </trkpt>
      <trkpt lat="44.93297" lon="5.32319">
        <ele>1213.8</ele>
        <time>2015-10-18T13:01:27Z</time>
      </trkpt>
      <trkpt lat="44.93283" lon="5.32318">
        <ele>1212.4</ele>
        <time>2015-10-18T13:01:28Z</time>
      </trkpt>
      <trkpt lat="44.93268" lon="5.32319">
        <ele>1211.9</ele>
        <time>2015-10-18T13:01:29Z</time>
      </trkpt>
      <trkpt lat="44.93239" lon="5.32323">
        <ele>1210.9</ele>
        <time>2015-10-18T13:01:31Z</time>
      </trkpt>
      <trkpt lat="44.93212" lon="5.32324">
        <ele>1209.5</ele>
        <time>2015-10-18T13:01:33Z</time>
      </trkpt>
      <trkpt lat="44.93199" lon="5.32319">
        <ele>1209</ele>
        <time>2015-10-18T13:01:34Z</time>
      </trkpt>
      <trkpt lat="44.93187" lon="5.32311">
        <ele>1208</ele>
        <time>2015-10-18T13:01:35Z</time>
      </trkpt>
      <trkpt lat="44.93177" lon="5.32299">
        <ele>1207.6</ele>
        <time>2015-10-18T13:01:36Z</time>
      </trkpt>
      <trkpt lat="44.93169" lon="5.32283">
        <ele>1206.1</ele>
        <time>2015-10-18T13:01:37Z</time>
      </trkpt>
      <trkpt lat="44.93139" lon="5.32139">
        <ele>1199.9</ele>
        <time>2015-10-18T13:01:44Z</time>
      </trkpt>
      <trkpt lat="44.93129" lon="5.32124">
        <ele>1198.9</ele>
        <time>2015-10-18T13:01:45Z</time>
      </trkpt>
      <trkpt lat="44.93114" lon="5.32113">
        <ele>1198.9</ele>
        <time>2015-10-18T13:01:46Z</time>
      </trkpt>
      <trkpt lat="44.93079" lon="5.32099">
        <ele>1197.9</ele>
        <time>2015-10-18T13:01:48Z</time>
      </trkpt>
      <trkpt lat="44.92944" lon="5.32069">
        <ele>1194.1</ele>
        <time>2015-10-18T13:01:56Z</time>
      </trkpt>
      <trkpt lat="44.9291" lon="5.32069">
        <ele>1192.7</ele>
        <time>2015-10-18T13:01:58Z</time>
      </trkpt>
      <trkpt lat="44.92892" lon="5.32073">
        <ele>1193.1</ele>
        <time>2015-10-18T13:01:59Z</time>
      </trkpt>
      <trkpt lat="44.92859" lon="5.32084">
        <ele>1191.7</ele>
        <time>2015-10-18T13:02:01Z</time>
      </trkpt>
      <trkpt lat="44.92796" lon="5.32125">
        <ele>1188.8</ele>
        <time>2015-10-18T13:02:06Z</time>
      </trkpt>
      <trkpt lat="44.92786" lon="5.32128">
        <ele>1188.3</ele>
        <time>2015-10-18T13:02:07Z</time>
      </trkpt>
      <trkpt lat="44.92777" lon="5.32127">
        <ele>1187.4</ele>
        <time>2015-10-18T13:02:08Z</time>
      </trkpt>
      <trkpt lat="44.92771" lon="5.32122">
        <ele>1186.9</ele>
        <time>2015-10-18T13:02:09Z</time>
      </trkpt>
      <trkpt lat="44.92769" lon="5.32111">
        <ele>1186.4</ele>
        <time>2015-10-18T13:02:10Z</time>
      </trkpt>
      <trkpt lat="44.92769" lon="5.32097">
        <ele>1185.9</ele>
        <time>2015-10-18T13:02:11Z</time>
      </trkpt>
      <trkpt lat="44.92776" lon="5.32065">
        <ele>1186.4</ele>
        <time>2015-10-18T13:02:13Z</time>
      </trkpt>
      <trkpt lat="44.92784" lon="5.32051">
        <ele>1185.9</ele>
        <time>2015-10-18T13:02:14Z</time>
      </trkpt>
      <trkpt lat="44.92884" lon="5.31941">
        <ele>1189.8</ele>
        <time>2015-10-18T13:02:22Z</time>
      </trkpt>
      <trkpt lat="44.92971" lon="5.31895">
        <ele>1190.7</ele>
        <time>2015-10-18T13:02:28Z</time>
      </trkpt>
      <trkpt lat="44.93115" lon="5.31889">
        <ele>1186.9</ele>
        <time>2015-10-18T13:02:36Z</time>
      </trkpt>
      <trkpt lat="44.93149" lon="5.31898">
        <ele>1185.4</ele>
        <time>2015-10-18T13:02:38Z</time>
      </trkpt>
      <trkpt lat="44.93166" lon="5.31899">
        <ele>1184.5</ele>
        <time>2015-10-18T13:02:39Z</time>
      </trkpt>
      <trkpt lat="44.93183" lon="5.31898">
        <ele>1183.5</ele>
        <time>2015-10-18T13:02:40Z</time>
      </trkpt>
      <trkpt lat="44.93199" lon="5.31893">
        <ele>1182.6</ele>
        <time>2015-10-18T13:02:41Z</time>
      </trkpt>
      <trkpt lat="44.93214" lon="5.31885">
        <ele>1181.6</ele>
        <time>2015-10-18T13:02:42Z</time>
      </trkpt>
      <trkpt lat="44.93229" lon="5.31871">
        <ele>1179.7</ele>
        <time>2015-10-18T13:02:43Z</time>
      </trkpt>
      <trkpt lat="44.93297" lon="5.31735">
        <ele>1174.9</ele>
        <time>2015-10-18T13:02:50Z</time>
      </trkpt>
      <trkpt lat="44.93309" lon="5.3172">
        <ele>1174.4</ele>
        <time>2015-10-18T13:02:51Z</time>
      </trkpt>
      <trkpt lat="44.93323" lon="5.31707">
        <ele>1173.9</ele>
        <time>2015-10-18T13:02:52Z</time>
      </trkpt>
      <trkpt lat="44.93337" lon="5.31698">
        <ele>1173.4</ele>
        <time>2015-10-18T13:02:53Z</time>
      </trkpt>
      <trkpt lat="44.93377" lon="5.31683">
        <ele>1172</ele>
        <time>2015-10-18T13:02:56Z</time>
      </trkpt>
      <trkpt lat="44.93391" lon="5.31661">
        <ele>1170.5</ele>
        <time>2015-10-18T13:02:58Z</time>
      </trkpt>
      <trkpt lat="44.93394" lon="5.31645">
        <ele>1169.6</ele>
        <time>2015-10-18T13:02:59Z</time>
      </trkpt>
      <trkpt lat="44.93389" lon="5.31623">
        <ele>1170.1</ele>
        <time>2015-10-18T13:03:00Z</time>
      </trkpt>
      <trkpt lat="44.93375" lon="5.31584">
        <ele>1169.6</ele>
        <time>2015-10-18T13:03:02Z</time>
      </trkpt>
      <trkpt lat="44.93365" lon="5.31571">
        <ele>1168.1</ele>
        <time>2015-10-18T13:03:03Z</time>
      </trkpt>
      <trkpt lat="44.93351" lon="5.31546">
        <ele>1167.7</ele>
        <time>2015-10-18T13:03:05Z</time>
      </trkpt>
      <trkpt lat="44.93349" lon="5.31531">
        <ele>1168.1</ele>
        <time>2015-10-18T13:03:06Z</time>
      </trkpt>
      <trkpt lat="44.93352" lon="5.31514">
        <ele>1168.1</ele>
        <time>2015-10-18T13:03:07Z</time>
      </trkpt>
      <trkpt lat="44.9338" lon="5.31421">
        <ele>1168.6</ele>
        <time>2015-10-18T13:03:12Z</time>
      </trkpt>
      <trkpt lat="44.9339" lon="5.31408">
        <ele>1168.6</ele>
        <time>2015-10-18T13:03:13Z</time>
      </trkpt>
      <trkpt lat="44.93417" lon="5.31395">
        <ele>1169.1</ele>
        <time>2015-10-18T13:03:15Z</time>
      </trkpt>
      <trkpt lat="44.93449" lon="5.31392">
        <ele>1170.1</ele>
        <time>2015-10-18T13:03:17Z</time>
      </trkpt>
      <trkpt lat="44.93481" lon="5.31382">
        <ele>1170.1</ele>
        <time>2015-10-18T13:03:19Z</time>
      </trkpt>
      <trkpt lat="44.93494" lon="5.31372">
        <ele>1169.6</ele>
        <time>2015-10-18T13:03:20Z</time>
      </trkpt>
      <trkpt lat="44.93503" lon="5.31334">
        <ele>1170.1</ele>
        <time>2015-10-18T13:03:22Z</time>
      </trkpt>
      <trkpt lat="44.93522" lon="5.31183">
        <ele>1166.7</ele>
        <time>2015-10-18T13:03:29Z</time>
      </trkpt>
      <trkpt lat="44.9352" lon="5.3116">
        <ele>1165.7</ele>
        <time>2015-10-18T13:03:30Z</time>
      </trkpt>
      <trkpt lat="44.9349" lon="5.31044">
        <ele>1162.4</ele>
        <time>2015-10-18T13:03:35Z</time>
      </trkpt>
      <trkpt lat="44.93471" lon="5.31">
        <ele>1163.3</ele>
        <time>2015-10-18T13:03:37Z</time>
      </trkpt>
      <trkpt lat="44.93451" lon="5.30966">
        <ele>1160.9</ele>
        <time>2015-10-18T13:03:39Z</time>
      </trkpt>
      <trkpt lat="44.93437" lon="5.30912">
        <ele>1158.1</ele>
        <time>2015-10-18T13:03:42Z</time>
      </trkpt>
      <trkpt lat="44.93443" lon="5.3089">
        <ele>1156.6</ele>
        <time>2015-10-18T13:03:43Z</time>
      </trkpt>
      <trkpt lat="44.93454" lon="5.30866">
        <ele>1156.1</ele>
        <time>2015-10-18T13:03:44Z</time>
      </trkpt>
      <trkpt lat="44.93469" lon="5.30821">
        <ele>1155.2</ele>
        <time>2015-10-18T13:03:46Z</time>
      </trkpt>
      <trkpt lat="44.93488" lon="5.30785">
        <ele>1153.7</ele>
        <time>2015-10-18T13:03:48Z</time>
      </trkpt>
      <trkpt lat="44.93503" lon="5.30771">
        <ele>1154.2</ele>
        <time>2015-10-18T13:03:49Z</time>
      </trkpt>
      <trkpt lat="44.93518" lon="5.3076">
        <ele>1153.7</ele>
        <time>2015-10-18T13:03:50Z</time>
      </trkpt>
      <trkpt lat="44.93679" lon="5.3068">
        <ele>1148</ele>
        <time>2015-10-18T13:03:59Z</time>
      </trkpt>
      <trkpt lat="44.93694" lon="5.30681">
        <ele>1147</ele>
        <time>2015-10-18T13:04:00Z</time>
      </trkpt>
      <trkpt lat="44.93711" lon="5.3069">
        <ele>1147.5</ele>
        <time>2015-10-18T13:04:01Z</time>
      </trkpt>
      <trkpt lat="44.93726" lon="5.30701">
        <ele>1147.5</ele>
        <time>2015-10-18T13:04:02Z</time>
      </trkpt>
      <trkpt lat="44.93855" lon="5.30849">
        <ele>1140.3</ele>
        <time>2015-10-18T13:04:11Z</time>
      </trkpt>
      <trkpt lat="44.93875" lon="5.30886">
        <ele>1139.8</ele>
        <time>2015-10-18T13:04:13Z</time>
      </trkpt>
      <trkpt lat="44.93886" lon="5.30902">
        <ele>1139.3</ele>
        <time>2015-10-18T13:04:14Z</time>
      </trkpt>
      <trkpt lat="44.93899" lon="5.30914">
        <ele>1138.8</ele>
        <time>2015-10-18T13:04:15Z</time>
      </trkpt>
      <trkpt lat="44.93911" lon="5.30919">
        <ele>1138.3</ele>
        <time>2015-10-18T13:04:16Z</time>
      </trkpt>
      <trkpt lat="44.9393" lon="5.30919">
        <ele>1136.4</ele>
        <time>2015-10-18T13:04:17Z</time>
      </trkpt>
      <trkpt lat="44.93947" lon="5.30916">
        <ele>1135.9</ele>
        <time>2015-10-18T13:04:18Z</time>
      </trkpt>
      <trkpt lat="44.93962" lon="5.3091">
        <ele>1135</ele>
        <time>2015-10-18T13:04:19Z</time>
      </trkpt>
      <trkpt lat="44.93993" lon="5.3089">
        <ele>1132.6</ele>
        <time>2015-10-18T13:04:21Z</time>
      </trkpt>
      <trkpt lat="44.94041" lon="5.30875">
        <ele>1129.7</ele>
        <time>2015-10-18T13:04:24Z</time>
      </trkpt>
      <trkpt lat="44.94072" lon="5.30878">
        <ele>1126.8</ele>
        <time>2015-10-18T13:04:26Z</time>
      </trkpt>
      <trkpt lat="44.94128" lon="5.30895">
        <ele>1118.2</ele>
        <time>2015-10-18T13:04:32Z</time>
      </trkpt>
      <trkpt lat="44.94147" lon="5.3089">
        <ele>1114.3</ele>
        <time>2015-10-18T13:04:35Z</time>
      </trkpt>
      <trkpt lat="44.9416" lon="5.30885">
        <ele>1121.5</ele>
        <time>2015-10-18T13:04:42Z</time>
      </trkpt>
      <trkpt lat="44.94157" lon="5.30884">
        <ele>1128.2</ele>
        <time>2015-10-18T13:05:21Z</time>
      </trkpt>
      <trkpt lat="44.94268" lon="5.30882">
        <ele>1130.2</ele>
        <time>2015-10-18T13:06:26Z</time>
      </trkpt>
      <trkpt lat="44.94359" lon="5.30892">
        <ele>1131.1</ele>
        <time>2015-10-18T13:06:32Z</time>
      </trkpt>
      <trkpt lat="44.94534" lon="5.31">
        <ele>1134.5</ele>
        <time>2015-10-18T13:06:43Z</time>
      </trkpt>
      <trkpt lat="44.94659" lon="5.31023">
        <ele>1138.8</ele>
        <time>2015-10-18T13:06:50Z</time>
      </trkpt>
      <trkpt lat="44.94847" lon="5.30996">
        <ele>1147.5</ele>
        <time>2015-10-18T13:07:00Z</time>
      </trkpt>
      <trkpt lat="44.94978" lon="5.30918">
        <ele>1153.2</ele>
        <time>2015-10-18T13:07:08Z</time>
      </trkpt>
      <trkpt lat="44.9514" lon="5.30855">
        <ele>1159.5</ele>
        <time>2015-10-18T13:07:18Z</time>
      </trkpt>
      <trkpt lat="44.95243" lon="5.3077">
        <ele>1166.2</ele>
        <time>2015-10-18T13:07:25Z</time>
      </trkpt>
      <trkpt lat="44.95276" lon="5.3072">
        <ele>1170.5</ele>
        <time>2015-10-18T13:07:28Z</time>
      </trkpt>
      <trkpt lat="44.95288" lon="5.30705">
        <ele>1172</ele>
        <time>2015-10-18T13:07:29Z</time>
      </trkpt>
      <trkpt lat="44.95301" lon="5.30694">
        <ele>1173.4</ele>
        <time>2015-10-18T13:07:30Z</time>
      </trkpt>
      <trkpt lat="44.95315" lon="5.30686">
        <ele>1174.4</ele>
        <time>2015-10-18T13:07:31Z</time>
      </trkpt>
      <trkpt lat="44.95342" lon="5.30673">
        <ele>1176.3</ele>
        <time>2015-10-18T13:07:33Z</time>
      </trkpt>
      <trkpt lat="44.95352" lon="5.3066">
        <ele>1175.8</ele>
        <time>2015-10-18T13:07:34Z</time>
      </trkpt>
      <trkpt lat="44.95361" lon="5.30644">
        <ele>1175.4</ele>
        <time>2015-10-18T13:07:35Z</time>
      </trkpt>
      <trkpt lat="44.9537" lon="5.30624">
        <ele>1176.3</ele>
        <time>2015-10-18T13:07:36Z</time>
      </trkpt>
      <trkpt lat="44.95432" lon="5.30511">
        <ele>1178.7</ele>
        <time>2015-10-18T13:07:42Z</time>
      </trkpt>
      <trkpt lat="44.95518" lon="5.30398">
        <ele>1180.6</ele>
        <time>2015-10-18T13:07:49Z</time>
      </trkpt>
      <trkpt lat="44.95701" lon="5.29925">
        <ele>1179.7</ele>
        <time>2015-10-18T13:08:09Z</time>
      </trkpt>
      <trkpt lat="44.95737" lon="5.29746">
        <ele>1181.1</ele>
        <time>2015-10-18T13:08:16Z</time>
      </trkpt>
      <trkpt lat="44.95737" lon="5.29722">
        <ele>1180.2</ele>
        <time>2015-10-18T13:08:17Z</time>
      </trkpt>
      <trkpt lat="44.95733" lon="5.29698">
        <ele>1178.7</ele>
        <time>2015-10-18T13:08:18Z</time>
      </trkpt>
      <trkpt lat="44.95683" lon="5.29535">
        <ele>1176.8</ele>
        <time>2015-10-18T13:08:25Z</time>
      </trkpt>
      <trkpt lat="44.95674" lon="5.29478">
        <ele>1177.3</ele>
        <time>2015-10-18T13:08:28Z</time>
      </trkpt>
      <trkpt lat="44.95668" lon="5.29463">
        <ele>1176.8</ele>
        <time>2015-10-18T13:08:29Z</time>
      </trkpt>
      <trkpt lat="44.95658" lon="5.29451">
        <ele>1176.3</ele>
        <time>2015-10-18T13:08:30Z</time>
      </trkpt>
      <trkpt lat="44.95645" lon="5.29444">
        <ele>1175.4</ele>
        <time>2015-10-18T13:08:31Z</time>
      </trkpt>
      <trkpt lat="44.95613" lon="5.29432">
        <ele>1173.9</ele>
        <time>2015-10-18T13:08:33Z</time>
      </trkpt>
      <trkpt lat="44.95285" lon="5.29236">
        <ele>1149.9</ele>
        <time>2015-10-18T13:08:52Z</time>
      </trkpt>
      <trkpt lat="44.95166" lon="5.29185">
        <ele>1141.2</ele>
        <time>2015-10-18T13:08:59Z</time>
      </trkpt>
      <trkpt lat="44.95007" lon="5.2903">
        <ele>1125.8</ele>
        <time>2015-10-18T13:09:10Z</time>
      </trkpt>
      <trkpt lat="44.94868" lon="5.28971">
        <ele>1114.8</ele>
        <time>2015-10-18T13:09:18Z</time>
      </trkpt>
      <trkpt lat="44.94855" lon="5.28962">
        <ele>1113.8</ele>
        <time>2015-10-18T13:09:19Z</time>
      </trkpt>
      <trkpt lat="44.94845" lon="5.2895">
        <ele>1113.3</ele>
        <time>2015-10-18T13:09:20Z</time>
      </trkpt>
      <trkpt lat="44.94838" lon="5.28935">
        <ele>1111.9</ele>
        <time>2015-10-18T13:09:21Z</time>
      </trkpt>
      <trkpt lat="44.94834" lon="5.28918">
        <ele>1110.9</ele>
        <time>2015-10-18T13:09:22Z</time>
      </trkpt>
      <trkpt lat="44.9483" lon="5.28874">
        <ele>1107.6</ele>
        <time>2015-10-18T13:09:24Z</time>
      </trkpt>
      <trkpt lat="44.94827" lon="5.28852">
        <ele>1106.1</ele>
        <time>2015-10-18T13:09:25Z</time>
      </trkpt>
      <trkpt lat="44.94815" lon="5.2881">
        <ele>1102.8</ele>
        <time>2015-10-18T13:09:27Z</time>
      </trkpt>
      <trkpt lat="44.94806" lon="5.28793">
        <ele>1100.4</ele>
        <time>2015-10-18T13:09:28Z</time>
      </trkpt>
      <trkpt lat="44.94786" lon="5.28765">
        <ele>1097</ele>
        <time>2015-10-18T13:09:30Z</time>
      </trkpt>
      <trkpt lat="44.94775" lon="5.28754">
        <ele>1096</ele>
        <time>2015-10-18T13:09:31Z</time>
      </trkpt>
      <trkpt lat="44.94764" lon="5.28745">
        <ele>1095.1</ele>
        <time>2015-10-18T13:09:32Z</time>
      </trkpt>
      <trkpt lat="44.94751" lon="5.28738">
        <ele>1094.6</ele>
        <time>2015-10-18T13:09:33Z</time>
      </trkpt>
      <trkpt lat="44.94738" lon="5.28734">
        <ele>1094.1</ele>
        <time>2015-10-18T13:09:34Z</time>
      </trkpt>
      <trkpt lat="44.94695" lon="5.28726">
        <ele>1091.7</ele>
        <time>2015-10-18T13:09:37Z</time>
      </trkpt>
      <trkpt lat="44.94544" lon="5.28633">
        <ele>1087.9</ele>
        <time>2015-10-18T13:09:47Z</time>
      </trkpt>
      <trkpt lat="44.94527" lon="5.28629">
        <ele>1087.9</ele>
        <time>2015-10-18T13:09:48Z</time>
      </trkpt>
      <trkpt lat="44.9451" lon="5.28627">
        <ele>1087.9</ele>
        <time>2015-10-18T13:09:49Z</time>
      </trkpt>
      <trkpt lat="44.94364" lon="5.28637">
        <ele>1095.1</ele>
        <time>2015-10-18T13:09:58Z</time>
      </trkpt>
      <trkpt lat="44.94353" lon="5.28626">
        <ele>1095.1</ele>
        <time>2015-10-18T13:09:59Z</time>
      </trkpt>
      <trkpt lat="44.9434" lon="5.28603">
        <ele>1097.5</ele>
        <time>2015-10-18T13:10:00Z</time>
      </trkpt>
      <trkpt lat="44.94332" lon="5.28585">
        <ele>1097</ele>
        <time>2015-10-18T13:10:01Z</time>
      </trkpt>
      <trkpt lat="44.94323" lon="5.2857">
        <ele>1097</ele>
        <time>2015-10-18T13:10:02Z</time>
      </trkpt>
      <trkpt lat="44.94311" lon="5.28558">
        <ele>1097</ele>
        <time>2015-10-18T13:10:03Z</time>
      </trkpt>
      <trkpt lat="44.94298" lon="5.28548">
        <ele>1098</ele>
        <time>2015-10-18T13:10:04Z</time>
      </trkpt>
      <trkpt lat="44.94282" lon="5.28541">
        <ele>1098.4</ele>
        <time>2015-10-18T13:10:05Z</time>
      </trkpt>
      <trkpt lat="44.94246" lon="5.28532">
        <ele>1098.9</ele>
        <time>2015-10-18T13:10:07Z</time>
      </trkpt>
      <trkpt lat="44.94065" lon="5.28516">
        <ele>1107.1</ele>
        <time>2015-10-18T13:10:17Z</time>
      </trkpt>
      <trkpt lat="44.93935" lon="5.28575">
        <ele>1115.8</ele>
        <time>2015-10-18T13:10:25Z</time>
      </trkpt>
      <trkpt lat="44.9384" lon="5.28684">
        <ele>1125.4</ele>
        <time>2015-10-18T13:10:32Z</time>
      </trkpt>
      <trkpt lat="44.9383" lon="5.28701">
        <ele>1126.8</ele>
        <time>2015-10-18T13:10:33Z</time>
      </trkpt>
      <trkpt lat="44.93809" lon="5.28749">
        <ele>1131.6</ele>
        <time>2015-10-18T13:10:36Z</time>
      </trkpt>
      <trkpt lat="44.93801" lon="5.28758">
        <ele>1132.6</ele>
        <time>2015-10-18T13:10:37Z</time>
      </trkpt>
      <trkpt lat="44.9379" lon="5.28762">
        <ele>1133.5</ele>
        <time>2015-10-18T13:10:38Z</time>
      </trkpt>
      <trkpt lat="44.93777" lon="5.28761">
        <ele>1134</ele>
        <time>2015-10-18T13:10:39Z</time>
      </trkpt>
      <trkpt lat="44.93745" lon="5.28747">
        <ele>1138.8</ele>
        <time>2015-10-18T13:10:41Z</time>
      </trkpt>
      <trkpt lat="44.93698" lon="5.28716">
        <ele>1139.8</ele>
        <time>2015-10-18T13:10:44Z</time>
      </trkpt>
      <trkpt lat="44.9358" lon="5.28675">
        <ele>1145.1</ele>
        <time>2015-10-18T13:10:51Z</time>
      </trkpt>
      <trkpt lat="44.93383" lon="5.28698">
        <ele>1157.1</ele>
        <time>2015-10-18T13:11:02Z</time>
      </trkpt>
      <trkpt lat="44.93195" lon="5.28805">
        <ele>1168.1</ele>
        <time>2015-10-18T13:11:13Z</time>
      </trkpt>
      <trkpt lat="44.93148" lon="5.28844">
        <ele>1172</ele>
        <time>2015-10-18T13:11:16Z</time>
      </trkpt>
      <trkpt lat="44.93136" lon="5.28863">
        <ele>1173.9</ele>
        <time>2015-10-18T13:11:17Z</time>
      </trkpt>
      <trkpt lat="44.93034" lon="5.28987">
        <ele>1183</ele>
        <time>2015-10-18T13:11:24Z</time>
      </trkpt>
      <trkpt lat="44.93008" lon="5.29012">
        <ele>1185</ele>
        <time>2015-10-18T13:11:26Z</time>
      </trkpt>
      <trkpt lat="44.92995" lon="5.2902">
        <ele>1185.4</ele>
        <time>2015-10-18T13:11:27Z</time>
      </trkpt>
      <trkpt lat="44.92981" lon="5.29021">
        <ele>1186.4</ele>
        <time>2015-10-18T13:11:28Z</time>
      </trkpt>
      <trkpt lat="44.92967" lon="5.29017">
        <ele>1186.9</ele>
        <time>2015-10-18T13:11:29Z</time>
      </trkpt>
      <trkpt lat="44.92936" lon="5.29">
        <ele>1188.3</ele>
        <time>2015-10-18T13:11:31Z</time>
      </trkpt>
      <trkpt lat="44.92919" lon="5.28994">
        <ele>1188.8</ele>
        <time>2015-10-18T13:11:32Z</time>
      </trkpt>
      <trkpt lat="44.929" lon="5.28992">
        <ele>1189.8</ele>
        <time>2015-10-18T13:11:33Z</time>
      </trkpt>
      <trkpt lat="44.92509" lon="5.2904">
        <ele>1217.2</ele>
        <time>2015-10-18T13:11:54Z</time>
      </trkpt>
      <trkpt lat="44.92495" lon="5.29044">
        <ele>1219.1</ele>
        <time>2015-10-18T13:11:55Z</time>
      </trkpt>
      <trkpt lat="44.92483" lon="5.29053">
        <ele>1218.6</ele>
        <time>2015-10-18T13:11:56Z</time>
      </trkpt>
      <trkpt lat="44.92471" lon="5.29065">
        <ele>1220.5</ele>
        <time>2015-10-18T13:11:57Z</time>
      </trkpt>
      <trkpt lat="44.92461" lon="5.29081">
        <ele>1222.9</ele>
        <time>2015-10-18T13:11:58Z</time>
      </trkpt>
      <trkpt lat="44.92449" lon="5.29095">
        <ele>1224.9</ele>
        <time>2015-10-18T13:11:59Z</time>
      </trkpt>
      <trkpt lat="44.92436" lon="5.29106">
        <ele>1226.8</ele>
        <time>2015-10-18T13:12:00Z</time>
      </trkpt>
      <trkpt lat="44.92422" lon="5.29111">
        <ele>1227.7</ele>
        <time>2015-10-18T13:12:01Z</time>
      </trkpt>
      <trkpt lat="44.92407" lon="5.29112">
        <ele>1228.7</ele>
        <time>2015-10-18T13:12:02Z</time>
      </trkpt>
      <trkpt lat="44.92358" lon="5.29099">
        <ele>1232.6</ele>
        <time>2015-10-18T13:12:05Z</time>
      </trkpt>
      <trkpt lat="44.92323" lon="5.29098">
        <ele>1235</ele>
        <time>2015-10-18T13:12:07Z</time>
      </trkpt>
      <trkpt lat="44.92305" lon="5.29101">
        <ele>1236.4</ele>
        <time>2015-10-18T13:12:08Z</time>
      </trkpt>
      <trkpt lat="44.91941" lon="5.29257">
        <ele>1266.2</ele>
        <time>2015-10-18T13:12:28Z</time>
      </trkpt>
      <trkpt lat="44.91921" lon="5.2926">
        <ele>1267.6</ele>
        <time>2015-10-18T13:12:29Z</time>
      </trkpt>
      <trkpt lat="44.91772" lon="5.29256">
        <ele>1278.2</ele>
        <time>2015-10-18T13:12:37Z</time>
      </trkpt>
      <trkpt lat="44.91758" lon="5.29248">
        <ele>1280.1</ele>
        <time>2015-10-18T13:12:38Z</time>
      </trkpt>
      <trkpt lat="44.91672" lon="5.29117">
        <ele>1288.8</ele>
        <time>2015-10-18T13:12:46Z</time>
      </trkpt>
      <trkpt lat="44.91674" lon="5.291">
        <ele>1289.8</ele>
        <time>2015-10-18T13:12:47Z</time>
      </trkpt>
      <trkpt lat="44.91679" lon="5.29082">
        <ele>1291.2</ele>
        <time>2015-10-18T13:12:48Z</time>
      </trkpt>
      <trkpt lat="44.91688" lon="5.29065">
        <ele>1293.1</ele>
        <time>2015-10-18T13:12:49Z</time>
      </trkpt>
      <trkpt lat="44.91792" lon="5.28954">
        <ele>1301.3</ele>
        <time>2015-10-18T13:12:56Z</time>
      </trkpt>
      <trkpt lat="44.91835" lon="5.28923">
        <ele>1303.2</ele>
        <time>2015-10-18T13:12:59Z</time>
      </trkpt>
      <trkpt lat="44.91845" lon="5.28911">
        <ele>1302.7</ele>
        <time>2015-10-18T13:13:00Z</time>
      </trkpt>
      <trkpt lat="44.91852" lon="5.28894">
        <ele>1302.7</ele>
        <time>2015-10-18T13:13:01Z</time>
      </trkpt>
      <trkpt lat="44.91853" lon="5.28875">
        <ele>1302.7</ele>
        <time>2015-10-18T13:13:02Z</time>
      </trkpt>
      <trkpt lat="44.91851" lon="5.28856">
        <ele>1302.7</ele>
        <time>2015-10-18T13:13:03Z</time>
      </trkpt>
      <trkpt lat="44.91844" lon="5.28837">
        <ele>1301.8</ele>
        <time>2015-10-18T13:13:04Z</time>
      </trkpt>
      <trkpt lat="44.91835" lon="5.28825">
        <ele>1300.8</ele>
        <time>2015-10-18T13:13:05Z</time>
      </trkpt>
      <trkpt lat="44.91824" lon="5.28814">
        <ele>1299.4</ele>
        <time>2015-10-18T13:13:06Z</time>
      </trkpt>
      <trkpt lat="44.91789" lon="5.28799">
        <ele>1298.4</ele>
        <time>2015-10-18T13:13:08Z</time>
      </trkpt>
      <trkpt lat="44.91751" lon="5.28791">
        <ele>1297</ele>
        <time>2015-10-18T13:13:10Z</time>
      </trkpt>
      <trkpt lat="44.91733" lon="5.28788">
        <ele>1296.5</ele>
        <time>2015-10-18T13:13:11Z</time>
      </trkpt>
      <trkpt lat="44.91603" lon="5.28738">
        <ele>1289.8</ele>
        <time>2015-10-18T13:13:19Z</time>
      </trkpt>
      <trkpt lat="44.9156" lon="5.28704">
        <ele>1286.9</ele>
        <time>2015-10-18T13:13:22Z</time>
      </trkpt>
      <trkpt lat="44.91545" lon="5.28696">
        <ele>1285.9</ele>
        <time>2015-10-18T13:13:23Z</time>
      </trkpt>
      <trkpt lat="44.9153" lon="5.28691">
        <ele>1284.9</ele>
        <time>2015-10-18T13:13:24Z</time>
      </trkpt>
      <trkpt lat="44.91515" lon="5.28687">
        <ele>1284.5</ele>
        <time>2015-10-18T13:13:25Z</time>
      </trkpt>
      <trkpt lat="44.915" lon="5.28686">
        <ele>1284</ele>
        <time>2015-10-18T13:13:26Z</time>
      </trkpt>
      <trkpt lat="44.91486" lon="5.28688">
        <ele>1283</ele>
        <time>2015-10-18T13:13:27Z</time>
      </trkpt>
      <trkpt lat="44.9146" lon="5.28696">
        <ele>1281.6</ele>
        <time>2015-10-18T13:13:29Z</time>
      </trkpt>
      <trkpt lat="44.91447" lon="5.28696">
        <ele>1280.6</ele>
        <time>2015-10-18T13:13:30Z</time>
      </trkpt>
      <trkpt lat="44.91436" lon="5.28694">
        <ele>1279.7</ele>
        <time>2015-10-18T13:13:31Z</time>
      </trkpt>
      <trkpt lat="44.91425" lon="5.28688">
        <ele>1278.7</ele>
        <time>2015-10-18T13:13:32Z</time>
      </trkpt>
      <trkpt lat="44.91416" lon="5.28677">
        <ele>1277.3</ele>
        <time>2015-10-18T13:13:33Z</time>
      </trkpt>
      <trkpt lat="44.91325" lon="5.28546">
        <ele>1272</ele>
        <time>2015-10-18T13:13:41Z</time>
      </trkpt>
      <trkpt lat="44.91311" lon="5.28535">
        <ele>1272</ele>
        <time>2015-10-18T13:13:42Z</time>
      </trkpt>
      <trkpt lat="44.91296" lon="5.28528">
        <ele>1271.5</ele>
        <time>2015-10-18T13:13:43Z</time>
      </trkpt>
      <trkpt lat="44.91281" lon="5.28523">
        <ele>1271.5</ele>
        <time>2015-10-18T13:13:44Z</time>
      </trkpt>
      <trkpt lat="44.91265" lon="5.28522">
        <ele>1271</ele>
        <time>2015-10-18T13:13:45Z</time>
      </trkpt>
      <trkpt lat="44.91249" lon="5.28523">
        <ele>1271.5</ele>
        <time>2015-10-18T13:13:46Z</time>
      </trkpt>
      <trkpt lat="44.91005" lon="5.28581">
        <ele>1274.4</ele>
        <time>2015-10-18T13:14:00Z</time>
      </trkpt>
      <trkpt lat="44.90991" lon="5.28589">
        <ele>1274.4</ele>
        <time>2015-10-18T13:14:01Z</time>
      </trkpt>
      <trkpt lat="44.9095" lon="5.28622">
        <ele>1275.3</ele>
        <time>2015-10-18T13:14:04Z</time>
      </trkpt>
      <trkpt lat="44.90936" lon="5.2863">
        <ele>1275.3</ele>
        <time>2015-10-18T13:14:05Z</time>
      </trkpt>
      <trkpt lat="44.90923" lon="5.28632">
        <ele>1275.3</ele>
        <time>2015-10-18T13:14:06Z</time>
      </trkpt>
      <trkpt lat="44.90909" lon="5.2863">
        <ele>1275.3</ele>
        <time>2015-10-18T13:14:07Z</time>
      </trkpt>
      <trkpt lat="44.90876" lon="5.28606">
        <ele>1275.8</ele>
        <time>2015-10-18T13:14:09Z</time>
      </trkpt>
      <trkpt lat="44.90776" lon="5.28548">
        <ele>1272</ele>
        <time>2015-10-18T13:14:15Z</time>
      </trkpt>
      <trkpt lat="44.90762" lon="5.28533">
        <ele>1272</ele>
        <time>2015-10-18T13:14:16Z</time>
      </trkpt>
      <trkpt lat="44.90753" lon="5.28511">
        <ele>1272</ele>
        <time>2015-10-18T13:14:17Z</time>
      </trkpt>
      <trkpt lat="44.90747" lon="5.28464">
        <ele>1272</ele>
        <time>2015-10-18T13:14:19Z</time>
      </trkpt>
      <trkpt lat="44.90751" lon="5.28439">
        <ele>1272</ele>
        <time>2015-10-18T13:14:20Z</time>
      </trkpt>
      <trkpt lat="44.90758" lon="5.28415">
        <ele>1272.4</ele>
        <time>2015-10-18T13:14:21Z</time>
      </trkpt>
      <trkpt lat="44.90805" lon="5.28343">
        <ele>1277.3</ele>
        <time>2015-10-18T13:14:25Z</time>
      </trkpt>
      <trkpt lat="44.90813" lon="5.28324">
        <ele>1278.2</ele>
        <time>2015-10-18T13:14:26Z</time>
      </trkpt>
      <trkpt lat="44.90825" lon="5.28279">
        <ele>1281.1</ele>
        <time>2015-10-18T13:14:28Z</time>
      </trkpt>
      <trkpt lat="44.90834" lon="5.28257">
        <ele>1282.5</ele>
        <time>2015-10-18T13:14:29Z</time>
      </trkpt>
      <trkpt lat="44.90847" lon="5.28238">
        <ele>1284</ele>
        <time>2015-10-18T13:14:30Z</time>
      </trkpt>
      <trkpt lat="44.90888" lon="5.28196">
        <ele>1289.3</ele>
        <time>2015-10-18T13:14:33Z</time>
      </trkpt>
      <trkpt lat="44.90897" lon="5.28182">
        <ele>1290.2</ele>
        <time>2015-10-18T13:14:34Z</time>
      </trkpt>
      <trkpt lat="44.909" lon="5.28163">
        <ele>1291.2</ele>
        <time>2015-10-18T13:14:35Z</time>
      </trkpt>
      <trkpt lat="44.90882" lon="5.27976">
        <ele>1297.4</ele>
        <time>2015-10-18T13:14:43Z</time>
      </trkpt>
      <trkpt lat="44.90889" lon="5.27953">
        <ele>1298.4</ele>
        <time>2015-10-18T13:14:44Z</time>
      </trkpt>
      <trkpt lat="44.90902" lon="5.27933">
        <ele>1300.8</ele>
        <time>2015-10-18T13:14:45Z</time>
      </trkpt>
      <trkpt lat="44.90984" lon="5.27839">
        <ele>1310.4</ele>
        <time>2015-10-18T13:14:51Z</time>
      </trkpt>
      <trkpt lat="44.90993" lon="5.27823">
        <ele>1311.4</ele>
        <time>2015-10-18T13:14:52Z</time>
      </trkpt>
      <trkpt lat="44.90998" lon="5.27801">
        <ele>1312.8</ele>
        <time>2015-10-18T13:14:53Z</time>
      </trkpt>
      <trkpt lat="44.90991" lon="5.2775">
        <ele>1314.3</ele>
        <time>2015-10-18T13:14:55Z</time>
      </trkpt>
      <trkpt lat="44.90965" lon="5.27689">
        <ele>1317.1</ele>
        <time>2015-10-18T13:14:58Z</time>
      </trkpt>
      <trkpt lat="44.90951" lon="5.27675">
        <ele>1317.6</ele>
        <time>2015-10-18T13:14:59Z</time>
      </trkpt>
      <trkpt lat="44.90933" lon="5.27666">
        <ele>1318.6</ele>
        <time>2015-10-18T13:15:00Z</time>
      </trkpt>
      <trkpt lat="44.90905" lon="5.27644">
        <ele>1319.1</ele>
        <time>2015-10-18T13:15:02Z</time>
      </trkpt>
      <trkpt lat="44.90877" lon="5.27628">
        <ele>1320.5</ele>
        <time>2015-10-18T13:15:04Z</time>
      </trkpt>
      <trkpt lat="44.90862" lon="5.27623">
        <ele>1321</ele>
        <time>2015-10-18T13:15:05Z</time>
      </trkpt>
      <trkpt lat="44.90833" lon="5.2762">
        <ele>1321.5</ele>
        <time>2015-10-18T13:15:07Z</time>
      </trkpt>
      <trkpt lat="44.90759" lon="5.27623">
        <ele>1319.6</ele>
        <time>2015-10-18T13:15:12Z</time>
      </trkpt>
      <trkpt lat="44.90745" lon="5.27621">
        <ele>1317.6</ele>
        <time>2015-10-18T13:15:13Z</time>
      </trkpt>
      <trkpt lat="44.90686" lon="5.27596">
        <ele>1313.3</ele>
        <time>2015-10-18T13:15:17Z</time>
      </trkpt>
      <trkpt lat="44.90657" lon="5.27573">
        <ele>1311.9</ele>
        <time>2015-10-18T13:15:19Z</time>
      </trkpt>
      <trkpt lat="44.90469" lon="5.27369">
        <ele>1302.2</ele>
        <time>2015-10-18T13:15:33Z</time>
      </trkpt>
      <trkpt lat="44.90386" lon="5.27227">
        <ele>1295</ele>
        <time>2015-10-18T13:15:41Z</time>
      </trkpt>
      <trkpt lat="44.90375" lon="5.27217">
        <ele>1294.6</ele>
        <time>2015-10-18T13:15:42Z</time>
      </trkpt>
      <trkpt lat="44.90363" lon="5.27211">
        <ele>1293.6</ele>
        <time>2015-10-18T13:15:43Z</time>
      </trkpt>
      <trkpt lat="44.90348" lon="5.27208">
        <ele>1292.6</ele>
        <time>2015-10-18T13:15:44Z</time>
      </trkpt>
      <trkpt lat="44.89941" lon="5.27184">
        <ele>1264.8</ele>
        <time>2015-10-18T13:16:08Z</time>
      </trkpt>
      <trkpt lat="44.89856" lon="5.27199">
        <ele>1259</ele>
        <time>2015-10-18T13:16:13Z</time>
      </trkpt>
      <trkpt lat="44.8984" lon="5.27197">
        <ele>1258</ele>
        <time>2015-10-18T13:16:14Z</time>
      </trkpt>
      <trkpt lat="44.89809" lon="5.27187">
        <ele>1256.1</ele>
        <time>2015-10-18T13:16:16Z</time>
      </trkpt>
      <trkpt lat="44.89794" lon="5.27185">
        <ele>1254.7</ele>
        <time>2015-10-18T13:16:17Z</time>
      </trkpt>
      <trkpt lat="44.89778" lon="5.27188">
        <ele>1253.2</ele>
        <time>2015-10-18T13:16:18Z</time>
      </trkpt>
      <trkpt lat="44.89735" lon="5.27215">
        <ele>1250.3</ele>
        <time>2015-10-18T13:16:21Z</time>
      </trkpt>
      <trkpt lat="44.8972" lon="5.27221">
        <ele>1249.4</ele>
        <time>2015-10-18T13:16:22Z</time>
      </trkpt>
      <trkpt lat="44.89704" lon="5.27224">
        <ele>1247.9</ele>
        <time>2015-10-18T13:16:23Z</time>
      </trkpt>
      <trkpt lat="44.89689" lon="5.27223">
        <ele>1246.5</ele>
        <time>2015-10-18T13:16:24Z</time>
      </trkpt>
      <trkpt lat="44.89676" lon="5.27221">
        <ele>1245.5</ele>
        <time>2015-10-18T13:16:25Z</time>
      </trkpt>
      <trkpt lat="44.89664" lon="5.27216">
        <ele>1244.6</ele>
        <time>2015-10-18T13:16:26Z</time>
      </trkpt>
      <trkpt lat="44.89655" lon="5.27209">
        <ele>1243.1</ele>
        <time>2015-10-18T13:16:27Z</time>
      </trkpt>
      <trkpt lat="44.89648" lon="5.27199">
        <ele>1242.6</ele>
        <time>2015-10-18T13:16:28Z</time>
      </trkpt>
      <trkpt lat="44.89646" lon="5.27186">
        <ele>1240.7</ele>
        <time>2015-10-18T13:16:29Z</time>
      </trkpt>
      <trkpt lat="44.89649" lon="5.27169">
        <ele>1241.2</ele>
        <time>2015-10-18T13:16:30Z</time>
      </trkpt>
      <trkpt lat="44.8966" lon="5.27155">
        <ele>1241.7</ele>
        <time>2015-10-18T13:16:31Z</time>
      </trkpt>
      <trkpt lat="44.89673" lon="5.27147">
        <ele>1241.7</ele>
        <time>2015-10-18T13:16:32Z</time>
      </trkpt>
      <trkpt lat="44.89686" lon="5.27144">
        <ele>1241.2</ele>
        <time>2015-10-18T13:16:33Z</time>
      </trkpt>
      <trkpt lat="44.89701" lon="5.27144">
        <ele>1241.7</ele>
        <time>2015-10-18T13:16:34Z</time>
      </trkpt>
      <trkpt lat="44.89715" lon="5.27142">
        <ele>1241.7</ele>
        <time>2015-10-18T13:16:35Z</time>
      </trkpt>
      <trkpt lat="44.8973" lon="5.27136">
        <ele>1241.7</ele>
        <time>2015-10-18T13:16:36Z</time>
      </trkpt>
      <trkpt lat="44.89744" lon="5.27128">
        <ele>1240.2</ele>
        <time>2015-10-18T13:16:37Z</time>
      </trkpt>
      <trkpt lat="44.89757" lon="5.27114">
        <ele>1238.8</ele>
        <time>2015-10-18T13:16:38Z</time>
      </trkpt>
      <trkpt lat="44.89864" lon="5.26978">
        <ele>1236.9</ele>
        <time>2015-10-18T13:16:48Z</time>
      </trkpt>
      <trkpt lat="44.89995" lon="5.2686">
        <ele>1231.6</ele>
        <time>2015-10-18T13:16:57Z</time>
      </trkpt>
      <trkpt lat="44.90075" lon="5.26741">
        <ele>1231.6</ele>
        <time>2015-10-18T13:17:06Z</time>
      </trkpt>
      <trkpt lat="44.90079" lon="5.26737">
        <ele>1231.6</ele>
        <time>2015-10-18T13:17:07Z</time>
      </trkpt>
      <trkpt lat="44.90082" lon="5.26736">
        <ele>1231.6</ele>
        <time>2015-10-18T13:17:08Z</time>
      </trkpt>
      <trkpt lat="44.90087" lon="5.26737">
        <ele>1232.1</ele>
        <time>2015-10-18T13:17:10Z</time>
      </trkpt>
      <trkpt lat="44.90096" lon="5.26743">
        <ele>1233</ele>
        <time>2015-10-18T13:17:21Z</time>
      </trkpt>
      <trkpt lat="44.90093" lon="5.26745">
        <ele>1233</ele>
        <time>2015-10-18T13:18:10Z</time>
      </trkpt>
      <trkpt lat="44.90093" lon="5.26746">
        <ele>1234</ele>
        <time>2015-10-18T13:22:58Z</time>
      </trkpt>
      <trkpt lat="44.90091" lon="5.26745">
        <ele>1233.5</ele>
        <time>2015-10-18T13:23:14Z</time>
      </trkpt>
      <trkpt lat="44.90077" lon="5.26731">
        <ele>1233</ele>
        <time>2015-10-18T13:23:35Z</time>
      </trkpt>
      <trkpt lat="44.90076" lon="5.26728">
        <ele>1233</ele>
        <time>2015-10-18T13:23:39Z</time>
      </trkpt>
      <trkpt lat="44.90077" lon="5.26714">
        <ele>1233.5</ele>
        <time>2015-10-18T13:23:42Z</time>
      </trkpt>
      <trkpt lat="44.90227" lon="5.26349">
        <ele>1235</ele>
        <time>2015-10-18T13:24:05Z</time>
      </trkpt>
      <trkpt lat="44.90231" lon="5.2633">
        <ele>1234.5</ele>
        <time>2015-10-18T13:24:06Z</time>
      </trkpt>
      <trkpt lat="44.90232" lon="5.26312">
        <ele>1233.5</ele>
        <time>2015-10-18T13:24:07Z</time>
      </trkpt>
      <trkpt lat="44.9023" lon="5.26293">
        <ele>1232.6</ele>
        <time>2015-10-18T13:24:08Z</time>
      </trkpt>
      <trkpt lat="44.90223" lon="5.26275">
        <ele>1231.1</ele>
        <time>2015-10-18T13:24:09Z</time>
      </trkpt>
      <trkpt lat="44.90184" lon="5.26222">
        <ele>1226.8</ele>
        <time>2015-10-18T13:24:12Z</time>
      </trkpt>
      <trkpt lat="44.90159" lon="5.26171">
        <ele>1223.9</ele>
        <time>2015-10-18T13:24:15Z</time>
      </trkpt>
      <trkpt lat="44.90156" lon="5.26153">
        <ele>1222.9</ele>
        <time>2015-10-18T13:24:16Z</time>
      </trkpt>
      <trkpt lat="44.90159" lon="5.26124">
        <ele>1221</ele>
        <time>2015-10-18T13:24:18Z</time>
      </trkpt>
      <trkpt lat="44.90187" lon="5.26092">
        <ele>1222</ele>
        <time>2015-10-18T13:24:21Z</time>
      </trkpt>
      <trkpt lat="44.90193" lon="5.2608">
        <ele>1222.9</ele>
        <time>2015-10-18T13:24:22Z</time>
      </trkpt>
      <trkpt lat="44.90198" lon="5.26067">
        <ele>1223.9</ele>
        <time>2015-10-18T13:24:23Z</time>
      </trkpt>
      <trkpt lat="44.902" lon="5.26054">
        <ele>1224.4</ele>
        <time>2015-10-18T13:24:24Z</time>
      </trkpt>
      <trkpt lat="44.902" lon="5.26041">
        <ele>1224.4</ele>
        <time>2015-10-18T13:24:25Z</time>
      </trkpt>
      <trkpt lat="44.90198" lon="5.26027">
        <ele>1224.4</ele>
        <time>2015-10-18T13:24:26Z</time>
      </trkpt>
      <trkpt lat="44.90194" lon="5.26014">
        <ele>1224.9</ele>
        <time>2015-10-18T13:24:27Z</time>
      </trkpt>
      <trkpt lat="44.90188" lon="5.26002">
        <ele>1224.9</ele>
        <time>2015-10-18T13:24:28Z</time>
      </trkpt>
      <trkpt lat="44.90181" lon="5.25993">
        <ele>1224.4</ele>
        <time>2015-10-18T13:24:29Z</time>
      </trkpt>
      <trkpt lat="44.90161" lon="5.25978">
        <ele>1223.4</ele>
        <time>2015-10-18T13:24:31Z</time>
      </trkpt>
      <trkpt lat="44.90128" lon="5.25968">
        <ele>1222</ele>
        <time>2015-10-18T13:24:33Z</time>
      </trkpt>
      <trkpt lat="44.89901" lon="5.25917">
        <ele>1207.1</ele>
        <time>2015-10-18T13:24:46Z</time>
      </trkpt>
      <trkpt lat="44.89702" lon="5.25814">
        <ele>1187.9</ele>
        <time>2015-10-18T13:24:57Z</time>
      </trkpt>
      <trkpt lat="44.89664" lon="5.258">
        <ele>1184.5</ele>
        <time>2015-10-18T13:24:59Z</time>
      </trkpt>
      <trkpt lat="44.89588" lon="5.25783">
        <ele>1178.7</ele>
        <time>2015-10-18T13:25:03Z</time>
      </trkpt>
      <trkpt lat="44.89569" lon="5.25775">
        <ele>1177.3</ele>
        <time>2015-10-18T13:25:04Z</time>
      </trkpt>
      <trkpt lat="44.89551" lon="5.25763">
        <ele>1175.8</ele>
        <time>2015-10-18T13:25:05Z</time>
      </trkpt>
      <trkpt lat="44.89436" lon="5.25668">
        <ele>1165.3</ele>
        <time>2015-10-18T13:25:12Z</time>
      </trkpt>
      <trkpt lat="44.89342" lon="5.25527">
        <ele>1154.2</ele>
        <time>2015-10-18T13:25:19Z</time>
      </trkpt>
      <trkpt lat="44.89326" lon="5.25511">
        <ele>1152.8</ele>
        <time>2015-10-18T13:25:20Z</time>
      </trkpt>
      <trkpt lat="44.89308" lon="5.25498">
        <ele>1151.3</ele>
        <time>2015-10-18T13:25:21Z</time>
      </trkpt>
      <trkpt lat="44.89204" lon="5.2544">
        <ele>1140.3</ele>
        <time>2015-10-18T13:25:28Z</time>
      </trkpt>
      <trkpt lat="44.89198" lon="5.25425">
        <ele>1138.8</ele>
        <time>2015-10-18T13:25:29Z</time>
      </trkpt>
      <trkpt lat="44.89212" lon="5.25382">
        <ele>1136.4</ele>
        <time>2015-10-18T13:25:31Z</time>
      </trkpt>
      <trkpt lat="44.89222" lon="5.25366">
        <ele>1135</ele>
        <time>2015-10-18T13:25:32Z</time>
      </trkpt>
      <trkpt lat="44.89245" lon="5.25342">
        <ele>1134.5</ele>
        <time>2015-10-18T13:25:34Z</time>
      </trkpt>
      <trkpt lat="44.89258" lon="5.25332">
        <ele>1134</ele>
        <time>2015-10-18T13:25:35Z</time>
      </trkpt>
      <trkpt lat="44.89273" lon="5.25327">
        <ele>1133.5</ele>
        <time>2015-10-18T13:25:36Z</time>
      </trkpt>
      <trkpt lat="44.89288" lon="5.25326">
        <ele>1133.1</ele>
        <time>2015-10-18T13:25:37Z</time>
      </trkpt>
      <trkpt lat="44.89321" lon="5.25331">
        <ele>1132.6</ele>
        <time>2015-10-18T13:25:39Z</time>
      </trkpt>
      <trkpt lat="44.8939" lon="5.2533">
        <ele>1135</ele>
        <time>2015-10-18T13:25:43Z</time>
      </trkpt>
      <trkpt lat="44.89544" lon="5.25275">
        <ele>1137.9</ele>
        <time>2015-10-18T13:25:52Z</time>
      </trkpt>
      <trkpt lat="44.89913" lon="5.25213">
        <ele>1172</ele>
        <time>2015-10-18T13:26:10Z</time>
      </trkpt>
      <trkpt lat="44.90015" lon="5.25159">
        <ele>1180.2</ele>
        <time>2015-10-18T13:26:16Z</time>
      </trkpt>
      <trkpt lat="44.90029" lon="5.25146">
        <ele>1183.5</ele>
        <time>2015-10-18T13:26:17Z</time>
      </trkpt>
      <trkpt lat="44.90064" lon="5.2509">
        <ele>1189.8</ele>
        <time>2015-10-18T13:26:20Z</time>
      </trkpt>
      <trkpt lat="44.90095" lon="5.25057">
        <ele>1194.6</ele>
        <time>2015-10-18T13:26:22Z</time>
      </trkpt>
      <trkpt lat="44.90221" lon="5.24965">
        <ele>1208</ele>
        <time>2015-10-18T13:26:30Z</time>
      </trkpt>
      <trkpt lat="44.90231" lon="5.24952">
        <ele>1208.5</ele>
        <time>2015-10-18T13:26:31Z</time>
      </trkpt>
      <trkpt lat="44.90242" lon="5.24915">
        <ele>1213.3</ele>
        <time>2015-10-18T13:26:33Z</time>
      </trkpt>
      <trkpt lat="44.90229" lon="5.2489">
        <ele>1211.9</ele>
        <time>2015-10-18T13:26:35Z</time>
      </trkpt>
      <trkpt lat="44.90215" lon="5.24886">
        <ele>1212.4</ele>
        <time>2015-10-18T13:26:36Z</time>
      </trkpt>
      <trkpt lat="44.90201" lon="5.24886">
        <ele>1212.4</ele>
        <time>2015-10-18T13:26:37Z</time>
      </trkpt>
      <trkpt lat="44.90192" lon="5.24891">
        <ele>1212.8</ele>
        <time>2015-10-18T13:26:38Z</time>
      </trkpt>
      <trkpt lat="44.90165" lon="5.24911">
        <ele>1213.8</ele>
        <time>2015-10-18T13:26:41Z</time>
      </trkpt>
      <trkpt lat="44.90155" lon="5.24915">
        <ele>1215.2</ele>
        <time>2015-10-18T13:26:42Z</time>
      </trkpt>
      <trkpt lat="44.90144" lon="5.24916">
        <ele>1216.2</ele>
        <time>2015-10-18T13:26:43Z</time>
      </trkpt>
      <trkpt lat="44.90133" lon="5.24915">
        <ele>1216.7</ele>
        <time>2015-10-18T13:26:44Z</time>
      </trkpt>
      <trkpt lat="44.90122" lon="5.24912">
        <ele>1217.7</ele>
        <time>2015-10-18T13:26:45Z</time>
      </trkpt>
      <trkpt lat="44.90111" lon="5.24906">
        <ele>1218.1</ele>
        <time>2015-10-18T13:26:46Z</time>
      </trkpt>
      <trkpt lat="44.901" lon="5.24899">
        <ele>1218.6</ele>
        <time>2015-10-18T13:26:47Z</time>
      </trkpt>
      <trkpt lat="44.9009" lon="5.24889">
        <ele>1219.1</ele>
        <time>2015-10-18T13:26:48Z</time>
      </trkpt>
      <trkpt lat="44.90016" lon="5.24786">
        <ele>1223.9</ele>
        <time>2015-10-18T13:26:57Z</time>
      </trkpt>
      <trkpt lat="44.89991" lon="5.24762">
        <ele>1226.3</ele>
        <time>2015-10-18T13:27:00Z</time>
      </trkpt>
      <trkpt lat="44.89984" lon="5.24752">
        <ele>1227.3</ele>
        <time>2015-10-18T13:27:01Z</time>
      </trkpt>
      <trkpt lat="44.89951" lon="5.24686">
        <ele>1231.1</ele>
        <time>2015-10-18T13:27:06Z</time>
      </trkpt>
      <trkpt lat="44.89942" lon="5.24678">
        <ele>1229.7</ele>
        <time>2015-10-18T13:27:07Z</time>
      </trkpt>
      <trkpt lat="44.89933" lon="5.24672">
        <ele>1226.3</ele>
        <time>2015-10-18T13:27:08Z</time>
      </trkpt>
      <trkpt lat="44.89913" lon="5.24651">
        <ele>1227.3</ele>
        <time>2015-10-18T13:27:10Z</time>
      </trkpt>
      <trkpt lat="44.89888" lon="5.24616">
        <ele>1229.7</ele>
        <time>2015-10-18T13:27:13Z</time>
      </trkpt>
      <trkpt lat="44.89871" lon="5.24578">
        <ele>1232.1</ele>
        <time>2015-10-18T13:27:16Z</time>
      </trkpt>
      <trkpt lat="44.89864" lon="5.24551">
        <ele>1234</ele>
        <time>2015-10-18T13:27:18Z</time>
      </trkpt>
      <trkpt lat="44.89863" lon="5.24537">
        <ele>1234.5</ele>
        <time>2015-10-18T13:27:19Z</time>
      </trkpt>
      <trkpt lat="44.89867" lon="5.24464">
        <ele>1240.2</ele>
        <time>2015-10-18T13:27:25Z</time>
      </trkpt>
      <trkpt lat="44.89857" lon="5.24436">
        <ele>1243.1</ele>
        <time>2015-10-18T13:27:28Z</time>
      </trkpt>
      <trkpt lat="44.89856" lon="5.24425">
        <ele>1244.1</ele>
        <time>2015-10-18T13:27:29Z</time>
      </trkpt>
      <trkpt lat="44.89865" lon="5.24363">
        <ele>1252.7</ele>
        <time>2015-10-18T13:27:34Z</time>
      </trkpt>
      <trkpt lat="44.89864" lon="5.2435">
        <ele>1253.2</ele>
        <time>2015-10-18T13:27:35Z</time>
      </trkpt>
      <trkpt lat="44.8986" lon="5.24327">
        <ele>1253.7</ele>
        <time>2015-10-18T13:27:37Z</time>
      </trkpt>
      <trkpt lat="44.89856" lon="5.24316">
        <ele>1254.7</ele>
        <time>2015-10-18T13:27:38Z</time>
      </trkpt>
      <trkpt lat="44.89824" lon="5.24257">
        <ele>1259</ele>
        <time>2015-10-18T13:27:44Z</time>
      </trkpt>
      <trkpt lat="44.89796" lon="5.24173">
        <ele>1264.3</ele>
        <time>2015-10-18T13:27:51Z</time>
      </trkpt>
      <trkpt lat="44.89793" lon="5.24147">
        <ele>1265.7</ele>
        <time>2015-10-18T13:27:53Z</time>
      </trkpt>
      <trkpt lat="44.89793" lon="5.2406">
        <ele>1271.5</ele>
        <time>2015-10-18T13:27:59Z</time>
      </trkpt>
      <trkpt lat="44.89789" lon="5.2403">
        <ele>1273.4</ele>
        <time>2015-10-18T13:28:01Z</time>
      </trkpt>
      <trkpt lat="44.89778" lon="5.2399">
        <ele>1277.3</ele>
        <time>2015-10-18T13:28:04Z</time>
      </trkpt>
      <trkpt lat="44.89773" lon="5.2398">
        <ele>1277.7</ele>
        <time>2015-10-18T13:28:05Z</time>
      </trkpt>
      <trkpt lat="44.89756" lon="5.23953">
        <ele>1280.1</ele>
        <time>2015-10-18T13:28:08Z</time>
      </trkpt>
      <trkpt lat="44.89752" lon="5.23944">
        <ele>1280.6</ele>
        <time>2015-10-18T13:28:09Z</time>
      </trkpt>
      <trkpt lat="44.8975" lon="5.23933">
        <ele>1281.6</ele>
        <time>2015-10-18T13:28:10Z</time>
      </trkpt>
      <trkpt lat="44.89751" lon="5.23922">
        <ele>1282.5</ele>
        <time>2015-10-18T13:28:11Z</time>
      </trkpt>
      <trkpt lat="44.89753" lon="5.2391">
        <ele>1284</ele>
        <time>2015-10-18T13:28:12Z</time>
      </trkpt>
      <trkpt lat="44.89763" lon="5.23877">
        <ele>1286.4</ele>
        <time>2015-10-18T13:28:15Z</time>
      </trkpt>
      <trkpt lat="44.89776" lon="5.23854">
        <ele>1288.8</ele>
        <time>2015-10-18T13:28:18Z</time>
      </trkpt>
      <trkpt lat="44.89779" lon="5.23846">
        <ele>1289.8</ele>
        <time>2015-10-18T13:28:19Z</time>
      </trkpt>
      <trkpt lat="44.89782" lon="5.23837">
        <ele>1290.7</ele>
        <time>2015-10-18T13:28:20Z</time>
      </trkpt>
      <trkpt lat="44.89774" lon="5.2373">
        <ele>1296.5</ele>
        <time>2015-10-18T13:28:29Z</time>
      </trkpt>
      <trkpt lat="44.89775" lon="5.23717">
        <ele>1297.4</ele>
        <time>2015-10-18T13:28:30Z</time>
      </trkpt>
      <trkpt lat="44.89777" lon="5.23705">
        <ele>1298.9</ele>
        <time>2015-10-18T13:28:31Z</time>
      </trkpt>
      <trkpt lat="44.89797" lon="5.23646">
        <ele>1302.7</ele>
        <time>2015-10-18T13:28:36Z</time>
      </trkpt>
      <trkpt lat="44.89799" lon="5.23634">
        <ele>1303.7</ele>
        <time>2015-10-18T13:28:37Z</time>
      </trkpt>
      <trkpt lat="44.89799" lon="5.23621">
        <ele>1304.2</ele>
        <time>2015-10-18T13:28:38Z</time>
      </trkpt>
      <trkpt lat="44.89779" lon="5.23392">
        <ele>1315.2</ele>
        <time>2015-10-18T13:28:53Z</time>
      </trkpt>
      <trkpt lat="44.8978" lon="5.2338">
        <ele>1316.2</ele>
        <time>2015-10-18T13:28:54Z</time>
      </trkpt>
      <trkpt lat="44.89785" lon="5.2337">
        <ele>1317.1</ele>
        <time>2015-10-18T13:28:55Z</time>
      </trkpt>
      <trkpt lat="44.89806" lon="5.23352">
        <ele>1321</ele>
        <time>2015-10-18T13:28:58Z</time>
      </trkpt>
      <trkpt lat="44.8981" lon="5.23346">
        <ele>1321.5</ele>
        <time>2015-10-18T13:28:59Z</time>
      </trkpt>
      <trkpt lat="44.89813" lon="5.23342">
        <ele>1322</ele>
        <time>2015-10-18T13:29:00Z</time>
      </trkpt>
      <trkpt lat="44.89816" lon="5.23336">
        <ele>1322.4</ele>
        <time>2015-10-18T13:29:02Z</time>
      </trkpt>
      <trkpt lat="44.89815" lon="5.23338">
        <ele>1322.4</ele>
        <time>2015-10-18T13:29:20Z</time>
      </trkpt>
      <trkpt lat="44.89941" lon="5.22884">
        <ele>1346.5</ele>
        <time>2015-10-18T13:30:14Z</time>
      </trkpt>
      <trkpt lat="44.89943" lon="5.22845">
        <ele>1345</ele>
        <time>2015-10-18T13:30:16Z</time>
      </trkpt>
      <trkpt lat="44.89938" lon="5.22804">
        <ele>1343.6</ele>
        <time>2015-10-18T13:30:18Z</time>
      </trkpt>
      <trkpt lat="44.89906" lon="5.22701">
        <ele>1341.7</ele>
        <time>2015-10-18T13:30:23Z</time>
      </trkpt>
      <trkpt lat="44.89902" lon="5.22655">
        <ele>1341.2</ele>
        <time>2015-10-18T13:30:25Z</time>
      </trkpt>
      <trkpt lat="44.89908" lon="5.22534">
        <ele>1339.3</ele>
        <time>2015-10-18T13:30:30Z</time>
      </trkpt>
      <trkpt lat="44.89956" lon="5.22375">
        <ele>1337.3</ele>
        <time>2015-10-18T13:30:37Z</time>
      </trkpt>
      <trkpt lat="44.89966" lon="5.22357">
        <ele>1336.9</ele>
        <time>2015-10-18T13:30:38Z</time>
      </trkpt>
      <trkpt lat="44.89978" lon="5.22343">
        <ele>1336.9</ele>
        <time>2015-10-18T13:30:39Z</time>
      </trkpt>
      <trkpt lat="44.89992" lon="5.22331">
        <ele>1337.3</ele>
        <time>2015-10-18T13:30:40Z</time>
      </trkpt>
      <trkpt lat="44.9001" lon="5.22326">
        <ele>1337.8</ele>
        <time>2015-10-18T13:30:41Z</time>
      </trkpt>
      <trkpt lat="44.90028" lon="5.22324">
        <ele>1337.8</ele>
        <time>2015-10-18T13:30:42Z</time>
      </trkpt>
      <trkpt lat="44.90047" lon="5.22328">
        <ele>1336.9</ele>
        <time>2015-10-18T13:30:43Z</time>
      </trkpt>
      <trkpt lat="44.90065" lon="5.22334">
        <ele>1336.4</ele>
        <time>2015-10-18T13:30:44Z</time>
      </trkpt>
      <trkpt lat="44.901" lon="5.22352">
        <ele>1335.9</ele>
        <time>2015-10-18T13:30:46Z</time>
      </trkpt>
      <trkpt lat="44.90133" lon="5.22374">
        <ele>1336.4</ele>
        <time>2015-10-18T13:30:48Z</time>
      </trkpt>
      <trkpt lat="44.9023" lon="5.22463">
        <ele>1332.5</ele>
        <time>2015-10-18T13:30:55Z</time>
      </trkpt>
      <trkpt lat="44.90274" lon="5.2248">
        <ele>1331.1</ele>
        <time>2015-10-18T13:30:58Z</time>
      </trkpt>
      <trkpt lat="44.90287" lon="5.2249">
        <ele>1330.1</ele>
        <time>2015-10-18T13:30:59Z</time>
      </trkpt>
      <trkpt lat="44.90329" lon="5.22549">
        <ele>1326.8</ele>
        <time>2015-10-18T13:31:03Z</time>
      </trkpt>
      <trkpt lat="44.9034" lon="5.2256">
        <ele>1325.8</ele>
        <time>2015-10-18T13:31:04Z</time>
      </trkpt>
      <trkpt lat="44.90352" lon="5.22567">
        <ele>1324.8</ele>
        <time>2015-10-18T13:31:05Z</time>
      </trkpt>
      <trkpt lat="44.90365" lon="5.22571">
        <ele>1323.9</ele>
        <time>2015-10-18T13:31:06Z</time>
      </trkpt>
      <trkpt lat="44.90408" lon="5.22572">
        <ele>1321.5</ele>
        <time>2015-10-18T13:31:09Z</time>
      </trkpt>
      <trkpt lat="44.90421" lon="5.22576">
        <ele>1320.5</ele>
        <time>2015-10-18T13:31:10Z</time>
      </trkpt>
      <trkpt lat="44.90462" lon="5.22601">
        <ele>1318.1</ele>
        <time>2015-10-18T13:31:13Z</time>
      </trkpt>
      <trkpt lat="44.90505" lon="5.22617">
        <ele>1315.2</ele>
        <time>2015-10-18T13:31:16Z</time>
      </trkpt>
      <trkpt lat="44.90519" lon="5.22628">
        <ele>1315.2</ele>
        <time>2015-10-18T13:31:17Z</time>
      </trkpt>
      <trkpt lat="44.90567" lon="5.22683">
        <ele>1311.9</ele>
        <time>2015-10-18T13:31:21Z</time>
      </trkpt>
      <trkpt lat="44.90597" lon="5.22701">
        <ele>1310.4</ele>
        <time>2015-10-18T13:31:23Z</time>
      </trkpt>
      <trkpt lat="44.90612" lon="5.22707">
        <ele>1309.9</ele>
        <time>2015-10-18T13:31:24Z</time>
      </trkpt>
      <trkpt lat="44.90628" lon="5.22711">
        <ele>1309</ele>
        <time>2015-10-18T13:31:25Z</time>
      </trkpt>
      <trkpt lat="44.90643" lon="5.22713">
        <ele>1308.5</ele>
        <time>2015-10-18T13:31:26Z</time>
      </trkpt>
      <trkpt lat="44.90831" lon="5.22693">
        <ele>1303.7</ele>
        <time>2015-10-18T13:31:37Z</time>
      </trkpt>
      <trkpt lat="44.90847" lon="5.22694">
        <ele>1303.2</ele>
        <time>2015-10-18T13:31:38Z</time>
      </trkpt>
      <trkpt lat="44.90904" lon="5.2272">
        <ele>1301.8</ele>
        <time>2015-10-18T13:31:42Z</time>
      </trkpt>
      <trkpt lat="44.90918" lon="5.22721">
        <ele>1301.3</ele>
        <time>2015-10-18T13:31:43Z</time>
      </trkpt>
      <trkpt lat="44.90932" lon="5.22718">
        <ele>1301.3</ele>
        <time>2015-10-18T13:31:44Z</time>
      </trkpt>
      <trkpt lat="44.90946" lon="5.22712">
        <ele>1299.8</ele>
        <time>2015-10-18T13:31:45Z</time>
      </trkpt>
      <trkpt lat="44.9099" lon="5.22656">
        <ele>1299.8</ele>
        <time>2015-10-18T13:31:49Z</time>
      </trkpt>
      <trkpt lat="44.91002" lon="5.22647">
        <ele>1299.8</ele>
        <time>2015-10-18T13:31:50Z</time>
      </trkpt>
      <trkpt lat="44.91016" lon="5.22644">
        <ele>1300.3</ele>
        <time>2015-10-18T13:31:51Z</time>
      </trkpt>
      <trkpt lat="44.91098" lon="5.22654">
        <ele>1297.9</ele>
        <time>2015-10-18T13:31:56Z</time>
      </trkpt>
      <trkpt lat="44.91114" lon="5.2266">
        <ele>1297.4</ele>
        <time>2015-10-18T13:31:57Z</time>
      </trkpt>
      <trkpt lat="44.91275" lon="5.22744">
        <ele>1295.5</ele>
        <time>2015-10-18T13:32:07Z</time>
      </trkpt>
      <trkpt lat="44.91318" lon="5.22756">
        <ele>1295</ele>
        <time>2015-10-18T13:32:10Z</time>
      </trkpt>
      <trkpt lat="44.9133" lon="5.22753">
        <ele>1294.6</ele>
        <time>2015-10-18T13:32:11Z</time>
      </trkpt>
      <trkpt lat="44.91344" lon="5.22715">
        <ele>1293.1</ele>
        <time>2015-10-18T13:32:13Z</time>
      </trkpt>
      <trkpt lat="44.91393" lon="5.22635">
        <ele>1292.2</ele>
        <time>2015-10-18T13:32:18Z</time>
      </trkpt>
      <trkpt lat="44.91399" lon="5.22616">
        <ele>1292.2</ele>
        <time>2015-10-18T13:32:19Z</time>
      </trkpt>
      <trkpt lat="44.91403" lon="5.22596">
        <ele>1292.6</ele>
        <time>2015-10-18T13:32:20Z</time>
      </trkpt>
      <trkpt lat="44.91401" lon="5.22575">
        <ele>1290.7</ele>
        <time>2015-10-18T13:32:21Z</time>
      </trkpt>
      <trkpt lat="44.91327" lon="5.22335">
        <ele>1277.3</ele>
        <time>2015-10-18T13:32:32Z</time>
      </trkpt>
      <trkpt lat="44.91319" lon="5.22317">
        <ele>1275.8</ele>
        <time>2015-10-18T13:32:33Z</time>
      </trkpt>
      <trkpt lat="44.91216" lon="5.22168">
        <ele>1263.3</ele>
        <time>2015-10-18T13:32:43Z</time>
      </trkpt>
      <trkpt lat="44.91212" lon="5.2198">
        <ele>1250.8</ele>
        <time>2015-10-18T13:32:52Z</time>
      </trkpt>
      <trkpt lat="44.91198" lon="5.21943">
        <ele>1248.4</ele>
        <time>2015-10-18T13:32:54Z</time>
      </trkpt>
      <trkpt lat="44.9118" lon="5.21909">
        <ele>1246</ele>
        <time>2015-10-18T13:32:56Z</time>
      </trkpt>
      <trkpt lat="44.91145" lon="5.21824">
        <ele>1239.3</ele>
        <time>2015-10-18T13:33:01Z</time>
      </trkpt>
      <trkpt lat="44.91136" lon="5.21811">
        <ele>1237.4</ele>
        <time>2015-10-18T13:33:02Z</time>
      </trkpt>
      <trkpt lat="44.91126" lon="5.21801">
        <ele>1235.4</ele>
        <time>2015-10-18T13:33:03Z</time>
      </trkpt>
      <trkpt lat="44.91112" lon="5.21793">
        <ele>1233.5</ele>
        <time>2015-10-18T13:33:04Z</time>
      </trkpt>
      <trkpt lat="44.91057" lon="5.21748">
        <ele>1226.3</ele>
        <time>2015-10-18T13:33:08Z</time>
      </trkpt>
      <trkpt lat="44.91026" lon="5.21734">
        <ele>1222</ele>
        <time>2015-10-18T13:33:10Z</time>
      </trkpt>
      <trkpt lat="44.91013" lon="5.21731">
        <ele>1220.5</ele>
        <time>2015-10-18T13:33:11Z</time>
      </trkpt>
      <trkpt lat="44.91" lon="5.21729">
        <ele>1220.1</ele>
        <time>2015-10-18T13:33:12Z</time>
      </trkpt>
      <trkpt lat="44.90982" lon="5.21725">
        <ele>1217.2</ele>
        <time>2015-10-18T13:33:14Z</time>
      </trkpt>
      <trkpt lat="44.90975" lon="5.21718">
        <ele>1216.2</ele>
        <time>2015-10-18T13:33:15Z</time>
      </trkpt>
      <trkpt lat="44.90971" lon="5.21708">
        <ele>1214.8</ele>
        <time>2015-10-18T13:33:16Z</time>
      </trkpt>
      <trkpt lat="44.90972" lon="5.21695">
        <ele>1213.3</ele>
        <time>2015-10-18T13:33:17Z</time>
      </trkpt>
      <trkpt lat="44.90983" lon="5.21667">
        <ele>1210.4</ele>
        <time>2015-10-18T13:33:19Z</time>
      </trkpt>
      <trkpt lat="44.90987" lon="5.21651">
        <ele>1209</ele>
        <time>2015-10-18T13:33:20Z</time>
      </trkpt>
      <trkpt lat="44.90988" lon="5.21636">
        <ele>1207.6</ele>
        <time>2015-10-18T13:33:21Z</time>
      </trkpt>
      <trkpt lat="44.90987" lon="5.2162">
        <ele>1206.1</ele>
        <time>2015-10-18T13:33:22Z</time>
      </trkpt>
      <trkpt lat="44.90984" lon="5.21605">
        <ele>1205.6</ele>
        <time>2015-10-18T13:33:23Z</time>
      </trkpt>
      <trkpt lat="44.90976" lon="5.21594">
        <ele>1204.2</ele>
        <time>2015-10-18T13:33:24Z</time>
      </trkpt>
      <trkpt lat="44.90965" lon="5.21587">
        <ele>1202.8</ele>
        <time>2015-10-18T13:33:25Z</time>
      </trkpt>
      <trkpt lat="44.90938" lon="5.21577">
        <ele>1199.9</ele>
        <time>2015-10-18T13:33:27Z</time>
      </trkpt>
      <trkpt lat="44.90925" lon="5.21571">
        <ele>1198.4</ele>
        <time>2015-10-18T13:33:28Z</time>
      </trkpt>
      <trkpt lat="44.90912" lon="5.21562">
        <ele>1197.5</ele>
        <time>2015-10-18T13:33:29Z</time>
      </trkpt>
      <trkpt lat="44.90885" lon="5.21532">
        <ele>1199.4</ele>
        <time>2015-10-18T13:33:31Z</time>
      </trkpt>
      <trkpt lat="44.90874" lon="5.21517">
        <ele>1198.9</ele>
        <time>2015-10-18T13:33:32Z</time>
      </trkpt>
      <trkpt lat="44.90865" lon="5.215">
        <ele>1197.9</ele>
        <time>2015-10-18T13:33:33Z</time>
      </trkpt>
      <trkpt lat="44.9086" lon="5.21481">
        <ele>1197.9</ele>
        <time>2015-10-18T13:33:34Z</time>
      </trkpt>
      <trkpt lat="44.9086" lon="5.21443">
        <ele>1196</ele>
        <time>2015-10-18T13:33:36Z</time>
      </trkpt>
      <trkpt lat="44.90862" lon="5.21425">
        <ele>1194.6</ele>
        <time>2015-10-18T13:33:37Z</time>
      </trkpt>
      <trkpt lat="44.90868" lon="5.2141">
        <ele>1191.7</ele>
        <time>2015-10-18T13:33:38Z</time>
      </trkpt>
      <trkpt lat="44.90879" lon="5.21395">
        <ele>1192.2</ele>
        <time>2015-10-18T13:33:39Z</time>
      </trkpt>
      <trkpt lat="44.90897" lon="5.21383">
        <ele>1195.1</ele>
        <time>2015-10-18T13:33:40Z</time>
      </trkpt>
      <trkpt lat="44.90925" lon="5.21375">
        <ele>1193.6</ele>
        <time>2015-10-18T13:33:42Z</time>
      </trkpt>
      <trkpt lat="44.90938" lon="5.2137">
        <ele>1191.7</ele>
        <time>2015-10-18T13:33:43Z</time>
      </trkpt>
      <trkpt lat="44.9095" lon="5.21362">
        <ele>1190.3</ele>
        <time>2015-10-18T13:33:44Z</time>
      </trkpt>
      <trkpt lat="44.90962" lon="5.21351">
        <ele>1189.3</ele>
        <time>2015-10-18T13:33:45Z</time>
      </trkpt>
      <trkpt lat="44.90986" lon="5.21323">
        <ele>1189.3</ele>
        <time>2015-10-18T13:33:47Z</time>
      </trkpt>
      <trkpt lat="44.91057" lon="5.21217">
        <ele>1189.8</ele>
        <time>2015-10-18T13:33:54Z</time>
      </trkpt>
      <trkpt lat="44.91068" lon="5.2118">
        <ele>1189.3</ele>
        <time>2015-10-18T13:33:56Z</time>
      </trkpt>
      <trkpt lat="44.91072" lon="5.2116">
        <ele>1188.8</ele>
        <time>2015-10-18T13:33:57Z</time>
      </trkpt>
      <trkpt lat="44.91073" lon="5.21139">
        <ele>1187.9</ele>
        <time>2015-10-18T13:33:58Z</time>
      </trkpt>
      <trkpt lat="44.91072" lon="5.21119">
        <ele>1186.9</ele>
        <time>2015-10-18T13:33:59Z</time>
      </trkpt>
      <trkpt lat="44.91067" lon="5.21101">
        <ele>1184.5</ele>
        <time>2015-10-18T13:34:00Z</time>
      </trkpt>
      <trkpt lat="44.91068" lon="5.2108">
        <ele>1183.5</ele>
        <time>2015-10-18T13:34:01Z</time>
      </trkpt>
      <trkpt lat="44.91094" lon="5.20914">
        <ele>1177.8</ele>
        <time>2015-10-18T13:34:09Z</time>
      </trkpt>
      <trkpt lat="44.91101" lon="5.20895">
        <ele>1178.7</ele>
        <time>2015-10-18T13:34:10Z</time>
      </trkpt>
      <trkpt lat="44.91121" lon="5.20862">
        <ele>1180.2</ele>
        <time>2015-10-18T13:34:12Z</time>
      </trkpt>
      <trkpt lat="44.91145" lon="5.20835">
        <ele>1181.6</ele>
        <time>2015-10-18T13:34:14Z</time>
      </trkpt>
      <trkpt lat="44.91158" lon="5.20823">
        <ele>1182.1</ele>
        <time>2015-10-18T13:34:15Z</time>
      </trkpt>
      <trkpt lat="44.91172" lon="5.20815">
        <ele>1182.6</ele>
        <time>2015-10-18T13:34:16Z</time>
      </trkpt>
      <trkpt lat="44.91186" lon="5.20811">
        <ele>1181.6</ele>
        <time>2015-10-18T13:34:17Z</time>
      </trkpt>
      <trkpt lat="44.91215" lon="5.20809">
        <ele>1180.2</ele>
        <time>2015-10-18T13:34:19Z</time>
      </trkpt>
      <trkpt lat="44.91228" lon="5.20809">
        <ele>1179.7</ele>
        <time>2015-10-18T13:34:20Z</time>
      </trkpt>
      <trkpt lat="44.91242" lon="5.20812">
        <ele>1179.2</ele>
        <time>2015-10-18T13:34:21Z</time>
      </trkpt>
      <trkpt lat="44.91255" lon="5.20816">
        <ele>1178.7</ele>
        <time>2015-10-18T13:34:22Z</time>
      </trkpt>
      <trkpt lat="44.91473" lon="5.2096">
        <ele>1157.1</ele>
        <time>2015-10-18T13:34:41Z</time>
      </trkpt>
      <trkpt lat="44.91484" lon="5.20962">
        <ele>1156.6</ele>
        <time>2015-10-18T13:34:42Z</time>
      </trkpt>
      <trkpt lat="44.91631" lon="5.20965">
        <ele>1148</ele>
        <time>2015-10-18T13:34:54Z</time>
      </trkpt>
      <trkpt lat="44.91644" lon="5.20963">
        <ele>1147</ele>
        <time>2015-10-18T13:34:55Z</time>
      </trkpt>
      <trkpt lat="44.91656" lon="5.20959">
        <ele>1145.6</ele>
        <time>2015-10-18T13:34:56Z</time>
      </trkpt>
      <trkpt lat="44.91669" lon="5.20952">
        <ele>1144.6</ele>
        <time>2015-10-18T13:34:57Z</time>
      </trkpt>
      <trkpt lat="44.91911" lon="5.20777">
        <ele>1124.9</ele>
        <time>2015-10-18T13:35:16Z</time>
      </trkpt>
      <trkpt lat="44.91921" lon="5.20765">
        <ele>1123.9</ele>
        <time>2015-10-18T13:35:17Z</time>
      </trkpt>
      <trkpt lat="44.91969" lon="5.2067">
        <ele>1115.3</ele>
        <time>2015-10-18T13:35:23Z</time>
      </trkpt>
      <trkpt lat="44.92013" lon="5.20624">
        <ele>1110.9</ele>
        <time>2015-10-18T13:35:27Z</time>
      </trkpt>
      <trkpt lat="44.92023" lon="5.20608">
        <ele>1109.5</ele>
        <time>2015-10-18T13:35:28Z</time>
      </trkpt>
      <trkpt lat="44.92029" lon="5.20591">
        <ele>1108.5</ele>
        <time>2015-10-18T13:35:29Z</time>
      </trkpt>
      <trkpt lat="44.92063" lon="5.20415">
        <ele>1097</ele>
        <time>2015-10-18T13:35:38Z</time>
      </trkpt>
      <trkpt lat="44.9212" lon="5.20284">
        <ele>1085.5</ele>
        <time>2015-10-18T13:35:46Z</time>
      </trkpt>
      <trkpt lat="44.92128" lon="5.20274">
        <ele>1084.5</ele>
        <time>2015-10-18T13:35:47Z</time>
      </trkpt>
      <trkpt lat="44.92137" lon="5.2027">
        <ele>1083.5</ele>
        <time>2015-10-18T13:35:48Z</time>
      </trkpt>
      <trkpt lat="44.92147" lon="5.2027">
        <ele>1082.6</ele>
        <time>2015-10-18T13:35:49Z</time>
      </trkpt>
      <trkpt lat="44.92156" lon="5.20269">
        <ele>1082.1</ele>
        <time>2015-10-18T13:35:50Z</time>
      </trkpt>
      <trkpt lat="44.92163" lon="5.20265">
        <ele>1081.1</ele>
        <time>2015-10-18T13:35:51Z</time>
      </trkpt>
      <trkpt lat="44.92168" lon="5.20256">
        <ele>1080.2</ele>
        <time>2015-10-18T13:35:52Z</time>
      </trkpt>
      <trkpt lat="44.9217" lon="5.20243">
        <ele>1079.2</ele>
        <time>2015-10-18T13:35:53Z</time>
      </trkpt>
      <trkpt lat="44.92167" lon="5.20232">
        <ele>1078.3</ele>
        <time>2015-10-18T13:35:54Z</time>
      </trkpt>
      <trkpt lat="44.92161" lon="5.20221">
        <ele>1077.3</ele>
        <time>2015-10-18T13:35:55Z</time>
      </trkpt>
      <trkpt lat="44.92152" lon="5.20212">
        <ele>1076.3</ele>
        <time>2015-10-18T13:35:56Z</time>
      </trkpt>
      <trkpt lat="44.91824" lon="5.19979">
        <ele>1038.8</ele>
        <time>2015-10-18T13:36:17Z</time>
      </trkpt>
      <trkpt lat="44.91648" lon="5.19903">
        <ele>1022</ele>
        <time>2015-10-18T13:36:27Z</time>
      </trkpt>
      <trkpt lat="44.91513" lon="5.1988">
        <ele>1010</ele>
        <time>2015-10-18T13:36:34Z</time>
      </trkpt>
      <trkpt lat="44.91367" lon="5.19874">
        <ele>997</ele>
        <time>2015-10-18T13:36:42Z</time>
      </trkpt>
      <trkpt lat="44.91347" lon="5.19882">
        <ele>995.6</ele>
        <time>2015-10-18T13:36:44Z</time>
      </trkpt>
      <trkpt lat="44.91339" lon="5.19883">
        <ele>994.6</ele>
        <time>2015-10-18T13:36:45Z</time>
      </trkpt>
      <trkpt lat="44.91338" lon="5.19878">
        <ele>993.7</ele>
        <time>2015-10-18T13:36:46Z</time>
      </trkpt>
      <trkpt lat="44.91338" lon="5.19872">
        <ele>993.2</ele>
        <time>2015-10-18T13:36:47Z</time>
      </trkpt>
      <trkpt lat="44.91341" lon="5.19867">
        <ele>992.7</ele>
        <time>2015-10-18T13:36:48Z</time>
      </trkpt>
      <trkpt lat="44.91347" lon="5.19863">
        <ele>992.7</ele>
        <time>2015-10-18T13:36:49Z</time>
      </trkpt>
      <trkpt lat="44.91507" lon="5.19819">
        <ele>981.2</ele>
        <time>2015-10-18T13:37:01Z</time>
      </trkpt>
      <trkpt lat="44.91522" lon="5.1982">
        <ele>980.2</ele>
        <time>2015-10-18T13:37:02Z</time>
      </trkpt>
      <trkpt lat="44.91665" lon="5.19801">
        <ele>974.9</ele>
        <time>2015-10-18T13:37:11Z</time>
      </trkpt>
      <trkpt lat="44.91808" lon="5.19805">
        <ele>966.7</ele>
        <time>2015-10-18T13:37:20Z</time>
      </trkpt>
      <trkpt lat="44.91851" lon="5.19814">
        <ele>962.9</ele>
        <time>2015-10-18T13:37:24Z</time>
      </trkpt>
      <trkpt lat="44.91858" lon="5.19809">
        <ele>963.4</ele>
        <time>2015-10-18T13:37:25Z</time>
      </trkpt>
      <trkpt lat="44.91862" lon="5.198">
        <ele>962.4</ele>
        <time>2015-10-18T13:37:26Z</time>
      </trkpt>
      <trkpt lat="44.91859" lon="5.19791">
        <ele>960</ele>
        <time>2015-10-18T13:37:27Z</time>
      </trkpt>
      <trkpt lat="44.91853" lon="5.19784">
        <ele>958.1</ele>
        <time>2015-10-18T13:37:28Z</time>
      </trkpt>
      <trkpt lat="44.91589" lon="5.19641">
        <ele>938.9</ele>
        <time>2015-10-18T13:37:46Z</time>
      </trkpt>
      <trkpt lat="44.91438" lon="5.19609">
        <ele>929.7</ele>
        <time>2015-10-18T13:37:55Z</time>
      </trkpt>
      <trkpt lat="44.91422" lon="5.1961">
        <ele>928.3</ele>
        <time>2015-10-18T13:37:56Z</time>
      </trkpt>
      <trkpt lat="44.91381" lon="5.19621">
        <ele>924.9</ele>
        <time>2015-10-18T13:37:59Z</time>
      </trkpt>
      <trkpt lat="44.91368" lon="5.1962">
        <ele>923.5</ele>
        <time>2015-10-18T13:38:00Z</time>
      </trkpt>
      <trkpt lat="44.91354" lon="5.19616">
        <ele>922.5</ele>
        <time>2015-10-18T13:38:01Z</time>
      </trkpt>
      <trkpt lat="44.91313" lon="5.19591">
        <ele>918.7</ele>
        <time>2015-10-18T13:38:04Z</time>
      </trkpt>
      <trkpt lat="44.91298" lon="5.19585">
        <ele>918.7</ele>
        <time>2015-10-18T13:38:05Z</time>
      </trkpt>
      <trkpt lat="44.91211" lon="5.19567">
        <ele>912</ele>
        <time>2015-10-18T13:38:11Z</time>
      </trkpt>
      <trkpt lat="44.91199" lon="5.1956">
        <ele>912</ele>
        <time>2015-10-18T13:38:12Z</time>
      </trkpt>
      <trkpt lat="44.9119" lon="5.19549">
        <ele>911.5</ele>
        <time>2015-10-18T13:38:13Z</time>
      </trkpt>
      <trkpt lat="44.91184" lon="5.19533">
        <ele>911</ele>
        <time>2015-10-18T13:38:14Z</time>
      </trkpt>
      <trkpt lat="44.91181" lon="5.19515">
        <ele>911</ele>
        <time>2015-10-18T13:38:15Z</time>
      </trkpt>
      <trkpt lat="44.91206" lon="5.1935">
        <ele>917.7</ele>
        <time>2015-10-18T13:38:24Z</time>
      </trkpt>
      <trkpt lat="44.91206" lon="5.19267">
        <ele>921.6</ele>
        <time>2015-10-18T13:38:32Z</time>
      </trkpt>
      <trkpt lat="44.91203" lon="5.19259">
        <ele>922</ele>
        <time>2015-10-18T13:38:34Z</time>
      </trkpt>
      <trkpt lat="44.912" lon="5.19256">
        <ele>922</ele>
        <time>2015-10-18T13:38:35Z</time>
      </trkpt>
      <trkpt lat="44.91195" lon="5.19254">
        <ele>922</ele>
        <time>2015-10-18T13:38:36Z</time>
      </trkpt>
      <trkpt lat="44.91184" lon="5.19252">
        <ele>921.6</ele>
        <time>2015-10-18T13:38:38Z</time>
      </trkpt>
      <trkpt lat="44.91162" lon="5.19251">
        <ele>920.6</ele>
        <time>2015-10-18T13:38:47Z</time>
      </trkpt>
      <trkpt lat="44.9116" lon="5.19264">
        <ele>931.7</ele>
        <time>2015-10-18T13:40:54Z</time>
      </trkpt>
      <trkpt lat="44.9116" lon="5.19264">
        <ele>928.3</ele>
        <time>2015-10-18T13:42:57Z</time>
      </trkpt>
      <trkpt lat="44.9116" lon="5.19262">
        <ele>928.8</ele>
        <time>2015-10-18T13:45:21Z</time>
      </trkpt>
      <trkpt lat="44.91159" lon="5.19264">
        <ele>930.7</ele>
        <time>2015-10-18T13:46:14Z</time>
      </trkpt>
      <trkpt lat="44.91159" lon="5.19262">
        <ele>930.7</ele>
        <time>2015-10-18T13:46:44Z</time>
      </trkpt>
      <trkpt lat="44.91159" lon="5.1926">
        <ele>927.3</ele>
        <time>2015-10-18T13:47:34Z</time>
      </trkpt>
      <trkpt lat="44.91159" lon="5.19261">
        <ele>928.8</ele>
        <time>2015-10-18T13:48:56Z</time>
      </trkpt>
      <trkpt lat="44.91135" lon="5.1926">
        <ele>927.8</ele>
        <time>2015-10-18T13:49:07Z</time>
      </trkpt>
      <trkpt lat="44.90967" lon="5.19215">
        <ele>925.9</ele>
        <time>2015-10-18T13:49:24Z</time>
      </trkpt>
      <trkpt lat="44.90316" lon="5.19366">
        <ele>934.1</ele>
        <time>2015-10-18T13:49:57Z</time>
      </trkpt>
      <trkpt lat="44.90248" lon="5.19367">
        <ele>934.1</ele>
        <time>2015-10-18T13:50:00Z</time>
      </trkpt>
      <trkpt lat="44.90112" lon="5.19396">
        <ele>933.6</ele>
        <time>2015-10-18T13:50:06Z</time>
      </trkpt>
      <trkpt lat="44.9009" lon="5.19394">
        <ele>933.6</ele>
        <time>2015-10-18T13:50:07Z</time>
      </trkpt>
      <trkpt lat="44.89859" lon="5.19327">
        <ele>934.1</ele>
        <time>2015-10-18T13:50:17Z</time>
      </trkpt>
      <trkpt lat="44.89299" lon="5.18995">
        <ele>936.5</ele>
        <time>2015-10-18T13:50:43Z</time>
      </trkpt>
      <trkpt lat="44.88717" lon="5.18493">
        <ele>941.3</ele>
        <time>2015-10-18T13:51:15Z</time>
      </trkpt>
      <trkpt lat="44.8871" lon="5.18483">
        <ele>941.3</ele>
        <time>2015-10-18T13:51:16Z</time>
      </trkpt>
      <trkpt lat="44.88709" lon="5.18471">
        <ele>941.3</ele>
        <time>2015-10-18T13:51:17Z</time>
      </trkpt>
      <trkpt lat="44.88739" lon="5.18368">
        <ele>942.7</ele>
        <time>2015-10-18T13:51:24Z</time>
      </trkpt>
      <trkpt lat="44.8874" lon="5.1834">
        <ele>943.2</ele>
        <time>2015-10-18T13:51:26Z</time>
      </trkpt>
      <trkpt lat="44.88737" lon="5.18316">
        <ele>944.2</ele>
        <time>2015-10-18T13:51:28Z</time>
      </trkpt>
      <trkpt lat="44.88733" lon="5.18306">
        <ele>944.2</ele>
        <time>2015-10-18T13:51:29Z</time>
      </trkpt>
      <trkpt lat="44.88728" lon="5.18298">
        <ele>944.6</ele>
        <time>2015-10-18T13:51:30Z</time>
      </trkpt>
      <trkpt lat="44.88691" lon="5.18265">
        <ele>949.9</ele>
        <time>2015-10-18T13:51:35Z</time>
      </trkpt>
      <trkpt lat="44.88632" lon="5.18149">
        <ele>948.5</ele>
        <time>2015-10-18T13:51:44Z</time>
      </trkpt>
      <trkpt lat="44.88621" lon="5.18135">
        <ele>948.5</ele>
        <time>2015-10-18T13:51:45Z</time>
      </trkpt>
      <trkpt lat="44.88608" lon="5.18123">
        <ele>948.5</ele>
        <time>2015-10-18T13:51:46Z</time>
      </trkpt>
      <trkpt lat="44.88579" lon="5.18099">
        <ele>949.9</ele>
        <time>2015-10-18T13:51:48Z</time>
      </trkpt>
      <trkpt lat="44.88459" lon="5.18053">
        <ele>953.8</ele>
        <time>2015-10-18T13:51:55Z</time>
      </trkpt>
      <trkpt lat="44.88294" lon="5.18044">
        <ele>960.5</ele>
        <time>2015-10-18T13:52:05Z</time>
      </trkpt>
      <trkpt lat="44.8826" lon="5.18034">
        <ele>961.9</ele>
        <time>2015-10-18T13:52:07Z</time>
      </trkpt>
      <trkpt lat="44.88225" lon="5.18019">
        <ele>963.9</ele>
        <time>2015-10-18T13:52:09Z</time>
      </trkpt>
      <trkpt lat="44.88208" lon="5.18015">
        <ele>964.3</ele>
        <time>2015-10-18T13:52:10Z</time>
      </trkpt>
      <trkpt lat="44.88189" lon="5.18013">
        <ele>965.3</ele>
        <time>2015-10-18T13:52:11Z</time>
      </trkpt>
      <trkpt lat="44.88072" lon="5.18016">
        <ele>970.1</ele>
        <time>2015-10-18T13:52:18Z</time>
      </trkpt>
      <trkpt lat="44.88066" lon="5.18011">
        <ele>971.1</ele>
        <time>2015-10-18T13:52:19Z</time>
      </trkpt>
      <trkpt lat="44.88064" lon="5.18">
        <ele>971.1</ele>
        <time>2015-10-18T13:52:20Z</time>
      </trkpt>
      <trkpt lat="44.88066" lon="5.1799">
        <ele>971.1</ele>
        <time>2015-10-18T13:52:21Z</time>
      </trkpt>
      <trkpt lat="44.88071" lon="5.17979">
        <ele>971.6</ele>
        <time>2015-10-18T13:52:22Z</time>
      </trkpt>
      <trkpt lat="44.88077" lon="5.17969">
        <ele>972</ele>
        <time>2015-10-18T13:52:23Z</time>
      </trkpt>
      <trkpt lat="44.88122" lon="5.17936">
        <ele>974</ele>
        <time>2015-10-18T13:52:27Z</time>
      </trkpt>
      <trkpt lat="44.88134" lon="5.17924">
        <ele>974.4</ele>
        <time>2015-10-18T13:52:28Z</time>
      </trkpt>
      <trkpt lat="44.88145" lon="5.17909">
        <ele>974.4</ele>
        <time>2015-10-18T13:52:29Z</time>
      </trkpt>
      <trkpt lat="44.88163" lon="5.17876">
        <ele>974.4</ele>
        <time>2015-10-18T13:52:31Z</time>
      </trkpt>
      <trkpt lat="44.88169" lon="5.17858">
        <ele>974</ele>
        <time>2015-10-18T13:52:32Z</time>
      </trkpt>
      <trkpt lat="44.88173" lon="5.17838">
        <ele>974</ele>
        <time>2015-10-18T13:52:33Z</time>
      </trkpt>
      <trkpt lat="44.88173" lon="5.17816">
        <ele>974</ele>
        <time>2015-10-18T13:52:34Z</time>
      </trkpt>
      <trkpt lat="44.88169" lon="5.17772">
        <ele>973.5</ele>
        <time>2015-10-18T13:52:36Z</time>
      </trkpt>
      <trkpt lat="44.88166" lon="5.17753">
        <ele>973</ele>
        <time>2015-10-18T13:52:37Z</time>
      </trkpt>
      <trkpt lat="44.8816" lon="5.17736">
        <ele>972.5</ele>
        <time>2015-10-18T13:52:38Z</time>
      </trkpt>
      <trkpt lat="44.8815" lon="5.17722">
        <ele>972</ele>
        <time>2015-10-18T13:52:39Z</time>
      </trkpt>
      <trkpt lat="44.88137" lon="5.1771">
        <ele>972</ele>
        <time>2015-10-18T13:52:40Z</time>
      </trkpt>
      <trkpt lat="44.88107" lon="5.17694">
        <ele>973.5</ele>
        <time>2015-10-18T13:52:42Z</time>
      </trkpt>
      <trkpt lat="44.88021" lon="5.1763">
        <ele>975.9</ele>
        <time>2015-10-18T13:52:48Z</time>
      </trkpt>
      <trkpt lat="44.8801" lon="5.17614">
        <ele>976.4</ele>
        <time>2015-10-18T13:52:49Z</time>
      </trkpt>
      <trkpt lat="44.87983" lon="5.17561">
        <ele>977.3</ele>
        <time>2015-10-18T13:52:52Z</time>
      </trkpt>
      <trkpt lat="44.87971" lon="5.17546">
        <ele>977.8</ele>
        <time>2015-10-18T13:52:53Z</time>
      </trkpt>
      <trkpt lat="44.8794" lon="5.17526">
        <ele>977.8</ele>
        <time>2015-10-18T13:52:55Z</time>
      </trkpt>
      <trkpt lat="44.87924" lon="5.17519">
        <ele>977.8</ele>
        <time>2015-10-18T13:52:56Z</time>
      </trkpt>
      <trkpt lat="44.87767" lon="5.17483">
        <ele>982.1</ele>
        <time>2015-10-18T13:53:05Z</time>
      </trkpt>
      <trkpt lat="44.87751" lon="5.17474">
        <ele>982.6</ele>
        <time>2015-10-18T13:53:06Z</time>
      </trkpt>
      <trkpt lat="44.87695" lon="5.17432">
        <ele>984.1</ele>
        <time>2015-10-18T13:53:10Z</time>
      </trkpt>
      <trkpt lat="44.87681" lon="5.17427">
        <ele>984.5</ele>
        <time>2015-10-18T13:53:11Z</time>
      </trkpt>
      <trkpt lat="44.87537" lon="5.17407">
        <ele>987.4</ele>
        <time>2015-10-18T13:53:19Z</time>
      </trkpt>
      <trkpt lat="44.86942" lon="5.17424">
        <ele>997</ele>
        <time>2015-10-18T13:53:48Z</time>
      </trkpt>
      <trkpt lat="44.86804" lon="5.17376">
        <ele>995.6</ele>
        <time>2015-10-18T13:53:55Z</time>
      </trkpt>
      <trkpt lat="44.8677" lon="5.17361">
        <ele>994.6</ele>
        <time>2015-10-18T13:53:57Z</time>
      </trkpt>
      <trkpt lat="44.86126" lon="5.17317">
        <ele>985.5</ele>
        <time>2015-10-18T13:54:29Z</time>
      </trkpt>
      <trkpt lat="44.85994" lon="5.17356">
        <ele>976.8</ele>
        <time>2015-10-18T13:54:36Z</time>
      </trkpt>
      <trkpt lat="44.85944" lon="5.17384">
        <ele>974</ele>
        <time>2015-10-18T13:54:39Z</time>
      </trkpt>
      <trkpt lat="44.8582" lon="5.17418">
        <ele>966.7</ele>
        <time>2015-10-18T13:54:46Z</time>
      </trkpt>
      <trkpt lat="44.85805" lon="5.17426">
        <ele>965.8</ele>
        <time>2015-10-18T13:54:47Z</time>
      </trkpt>
      <trkpt lat="44.85778" lon="5.17458">
        <ele>963.4</ele>
        <time>2015-10-18T13:54:50Z</time>
      </trkpt>
      <trkpt lat="44.85773" lon="5.17471">
        <ele>962.9</ele>
        <time>2015-10-18T13:54:51Z</time>
      </trkpt>
      <trkpt lat="44.85774" lon="5.17487">
        <ele>962.4</ele>
        <time>2015-10-18T13:54:52Z</time>
      </trkpt>
      <trkpt lat="44.85816" lon="5.17575">
        <ele>962.9</ele>
        <time>2015-10-18T13:54:58Z</time>
      </trkpt>
      <trkpt lat="44.85819" lon="5.17589">
        <ele>963.4</ele>
        <time>2015-10-18T13:54:59Z</time>
      </trkpt>
      <trkpt lat="44.85818" lon="5.17603">
        <ele>963.9</ele>
        <time>2015-10-18T13:55:00Z</time>
      </trkpt>
      <trkpt lat="44.85815" lon="5.17616">
        <ele>964.3</ele>
        <time>2015-10-18T13:55:01Z</time>
      </trkpt>
      <trkpt lat="44.85808" lon="5.17628">
        <ele>965.8</ele>
        <time>2015-10-18T13:55:02Z</time>
      </trkpt>
      <trkpt lat="44.85799" lon="5.17634">
        <ele>965.8</ele>
        <time>2015-10-18T13:55:03Z</time>
      </trkpt>
      <trkpt lat="44.85786" lon="5.17634">
        <ele>966.3</ele>
        <time>2015-10-18T13:55:04Z</time>
      </trkpt>
      <trkpt lat="44.85772" lon="5.17631">
        <ele>967.7</ele>
        <time>2015-10-18T13:55:05Z</time>
      </trkpt>
      <trkpt lat="44.85757" lon="5.17625">
        <ele>968.7</ele>
        <time>2015-10-18T13:55:06Z</time>
      </trkpt>
      <trkpt lat="44.85724" lon="5.17604">
        <ele>972</ele>
        <time>2015-10-18T13:55:08Z</time>
      </trkpt>
      <trkpt lat="44.85601" lon="5.17559">
        <ele>977.8</ele>
        <time>2015-10-18T13:55:16Z</time>
      </trkpt>
      <trkpt lat="44.85437" lon="5.17549">
        <ele>983.6</ele>
        <time>2015-10-18T13:55:27Z</time>
      </trkpt>
      <trkpt lat="44.85336" lon="5.17568">
        <ele>986</ele>
        <time>2015-10-18T13:55:34Z</time>
      </trkpt>
      <trkpt lat="44.85322" lon="5.17569">
        <ele>986</ele>
        <time>2015-10-18T13:55:35Z</time>
      </trkpt>
      <trkpt lat="44.85308" lon="5.17567">
        <ele>986.5</ele>
        <time>2015-10-18T13:55:36Z</time>
      </trkpt>
      <trkpt lat="44.85279" lon="5.17555">
        <ele>985.5</ele>
        <time>2015-10-18T13:55:38Z</time>
      </trkpt>
      <trkpt lat="44.85185" lon="5.17467">
        <ele>980.7</ele>
        <time>2015-10-18T13:55:45Z</time>
      </trkpt>
      <trkpt lat="44.85146" lon="5.17396">
        <ele>977.3</ele>
        <time>2015-10-18T13:55:49Z</time>
      </trkpt>
      <trkpt lat="44.8514" lon="5.17379">
        <ele>976.8</ele>
        <time>2015-10-18T13:55:50Z</time>
      </trkpt>
      <trkpt lat="44.85137" lon="5.17361">
        <ele>975.9</ele>
        <time>2015-10-18T13:55:51Z</time>
      </trkpt>
      <trkpt lat="44.8514" lon="5.17342">
        <ele>974.9</ele>
        <time>2015-10-18T13:55:52Z</time>
      </trkpt>
      <trkpt lat="44.85145" lon="5.17323">
        <ele>973.5</ele>
        <time>2015-10-18T13:55:53Z</time>
      </trkpt>
      <trkpt lat="44.85192" lon="5.17227">
        <ele>970.6</ele>
        <time>2015-10-18T13:55:59Z</time>
      </trkpt>
      <trkpt lat="44.85191" lon="5.17216">
        <ele>970.1</ele>
        <time>2015-10-18T13:56:00Z</time>
      </trkpt>
      <trkpt lat="44.85186" lon="5.17208">
        <ele>969.2</ele>
        <time>2015-10-18T13:56:01Z</time>
      </trkpt>
      <trkpt lat="44.85177" lon="5.17203">
        <ele>967.7</ele>
        <time>2015-10-18T13:56:02Z</time>
      </trkpt>
      <trkpt lat="44.85167" lon="5.17204">
        <ele>967.2</ele>
        <time>2015-10-18T13:56:03Z</time>
      </trkpt>
      <trkpt lat="44.85055" lon="5.17287">
        <ele>961.5</ele>
        <time>2015-10-18T13:56:12Z</time>
      </trkpt>
      <trkpt lat="44.8504" lon="5.17291">
        <ele>960.5</ele>
        <time>2015-10-18T13:56:13Z</time>
      </trkpt>
      <trkpt lat="44.85024" lon="5.17293">
        <ele>960</ele>
        <time>2015-10-18T13:56:14Z</time>
      </trkpt>
      <trkpt lat="44.84825" lon="5.17275">
        <ele>951.8</ele>
        <time>2015-10-18T13:56:27Z</time>
      </trkpt>
      <trkpt lat="44.84814" lon="5.17271">
        <ele>951.4</ele>
        <time>2015-10-18T13:56:28Z</time>
      </trkpt>
      <trkpt lat="44.84806" lon="5.17259">
        <ele>949.9</ele>
        <time>2015-10-18T13:56:29Z</time>
      </trkpt>
      <trkpt lat="44.84801" lon="5.17244">
        <ele>949.4</ele>
        <time>2015-10-18T13:56:30Z</time>
      </trkpt>
      <trkpt lat="44.84796" lon="5.17076">
        <ele>942.7</ele>
        <time>2015-10-18T13:56:39Z</time>
      </trkpt>
      <trkpt lat="44.84791" lon="5.17059">
        <ele>941.8</ele>
        <time>2015-10-18T13:56:40Z</time>
      </trkpt>
      <trkpt lat="44.84781" lon="5.17046">
        <ele>940.8</ele>
        <time>2015-10-18T13:56:41Z</time>
      </trkpt>
      <trkpt lat="44.8477" lon="5.17036">
        <ele>940.3</ele>
        <time>2015-10-18T13:56:42Z</time>
      </trkpt>
      <trkpt lat="44.84756" lon="5.1703">
        <ele>939.4</ele>
        <time>2015-10-18T13:56:43Z</time>
      </trkpt>
      <trkpt lat="44.84741" lon="5.17026">
        <ele>938.9</ele>
        <time>2015-10-18T13:56:44Z</time>
      </trkpt>
      <trkpt lat="44.84725" lon="5.17026">
        <ele>937.9</ele>
        <time>2015-10-18T13:56:45Z</time>
      </trkpt>
      <trkpt lat="44.84709" lon="5.17028">
        <ele>937.4</ele>
        <time>2015-10-18T13:56:46Z</time>
      </trkpt>
      <trkpt lat="44.84677" lon="5.17038">
        <ele>936</ele>
        <time>2015-10-18T13:56:48Z</time>
      </trkpt>
      <trkpt lat="44.84517" lon="5.17115">
        <ele>928.3</ele>
        <time>2015-10-18T13:56:58Z</time>
      </trkpt>
      <trkpt lat="44.84501" lon="5.17117">
        <ele>927.3</ele>
        <time>2015-10-18T13:56:59Z</time>
      </trkpt>
      <trkpt lat="44.84485" lon="5.17116">
        <ele>926.4</ele>
        <time>2015-10-18T13:57:00Z</time>
      </trkpt>
      <trkpt lat="44.8445" lon="5.17107">
        <ele>924</ele>
        <time>2015-10-18T13:57:02Z</time>
      </trkpt>
      <trkpt lat="44.84162" lon="5.16946">
        <ele>904.7</ele>
        <time>2015-10-18T13:57:24Z</time>
      </trkpt>
      <trkpt lat="44.84042" lon="5.16904">
        <ele>898.5</ele>
        <time>2015-10-18T13:57:31Z</time>
      </trkpt>
      <trkpt lat="44.83977" lon="5.16866">
        <ele>894.6</ele>
        <time>2015-10-18T13:57:35Z</time>
      </trkpt>
      <trkpt lat="44.83961" lon="5.16861">
        <ele>893.7</ele>
        <time>2015-10-18T13:57:36Z</time>
      </trkpt>
      <trkpt lat="44.83943" lon="5.16859">
        <ele>892.2</ele>
        <time>2015-10-18T13:57:37Z</time>
      </trkpt>
      <trkpt lat="44.83795" lon="5.16821">
        <ele>884.1</ele>
        <time>2015-10-18T13:57:45Z</time>
      </trkpt>
      <trkpt lat="44.83668" lon="5.16806">
        <ele>876.4</ele>
        <time>2015-10-18T13:57:52Z</time>
      </trkpt>
      <trkpt lat="44.83497" lon="5.1676">
        <ele>867.3</ele>
        <time>2015-10-18T13:58:01Z</time>
      </trkpt>
      <trkpt lat="44.8348" lon="5.1675">
        <ele>866.3</ele>
        <time>2015-10-18T13:58:02Z</time>
      </trkpt>
      <trkpt lat="44.83447" lon="5.16724">
        <ele>863.4</ele>
        <time>2015-10-18T13:58:04Z</time>
      </trkpt>
      <trkpt lat="44.83411" lon="5.16703">
        <ele>860.5</ele>
        <time>2015-10-18T13:58:06Z</time>
      </trkpt>
      <trkpt lat="44.83213" lon="5.16629">
        <ele>849</ele>
        <time>2015-10-18T13:58:16Z</time>
      </trkpt>
      <trkpt lat="44.83027" lon="5.16591">
        <ele>837.5</ele>
        <time>2015-10-18T13:58:25Z</time>
      </trkpt>
      <trkpt lat="44.82843" lon="5.16609">
        <ele>827.4</ele>
        <time>2015-10-18T13:58:34Z</time>
      </trkpt>
      <trkpt lat="44.82643" lon="5.16547">
        <ele>813.9</ele>
        <time>2015-10-18T13:58:45Z</time>
      </trkpt>
      <trkpt lat="44.82531" lon="5.16545">
        <ele>806.7</ele>
        <time>2015-10-18T13:58:52Z</time>
      </trkpt>
      <trkpt lat="44.82517" lon="5.16536">
        <ele>805.7</ele>
        <time>2015-10-18T13:58:53Z</time>
      </trkpt>
      <trkpt lat="44.82447" lon="5.16475">
        <ele>800.4</ele>
        <time>2015-10-18T13:58:58Z</time>
      </trkpt>
      <trkpt lat="44.82432" lon="5.1647">
        <ele>799.5</ele>
        <time>2015-10-18T13:58:59Z</time>
      </trkpt>
      <trkpt lat="44.82388" lon="5.16461">
        <ele>797.1</ele>
        <time>2015-10-18T13:59:02Z</time>
      </trkpt>
      <trkpt lat="44.82374" lon="5.16454">
        <ele>796.1</ele>
        <time>2015-10-18T13:59:03Z</time>
      </trkpt>
      <trkpt lat="44.8236" lon="5.16443">
        <ele>795.2</ele>
        <time>2015-10-18T13:59:04Z</time>
      </trkpt>
      <trkpt lat="44.82333" lon="5.16416">
        <ele>793.2</ele>
        <time>2015-10-18T13:59:06Z</time>
      </trkpt>
      <trkpt lat="44.82266" lon="5.16362">
        <ele>788.4</ele>
        <time>2015-10-18T13:59:11Z</time>
      </trkpt>
      <trkpt lat="44.82252" lon="5.16359">
        <ele>787.9</ele>
        <time>2015-10-18T13:59:12Z</time>
      </trkpt>
      <trkpt lat="44.82019" lon="5.16342">
        <ele>775</ele>
        <time>2015-10-18T13:59:28Z</time>
      </trkpt>
      <trkpt lat="44.81963" lon="5.16325">
        <ele>772.1</ele>
        <time>2015-10-18T13:59:32Z</time>
      </trkpt>
      <trkpt lat="44.81948" lon="5.16323">
        <ele>771.6</ele>
        <time>2015-10-18T13:59:33Z</time>
      </trkpt>
      <trkpt lat="44.81861" lon="5.16331">
        <ele>767.3</ele>
        <time>2015-10-18T13:59:39Z</time>
      </trkpt>
      <trkpt lat="44.81847" lon="5.16329">
        <ele>766.8</ele>
        <time>2015-10-18T13:59:40Z</time>
      </trkpt>
      <trkpt lat="44.81806" lon="5.16313">
        <ele>763.9</ele>
        <time>2015-10-18T13:59:43Z</time>
      </trkpt>
      <trkpt lat="44.81792" lon="5.16314">
        <ele>762.9</ele>
        <time>2015-10-18T13:59:44Z</time>
      </trkpt>
      <trkpt lat="44.81777" lon="5.16318">
        <ele>762</ele>
        <time>2015-10-18T13:59:45Z</time>
      </trkpt>
      <trkpt lat="44.81615" lon="5.16349">
        <ele>751.4</ele>
        <time>2015-10-18T13:59:55Z</time>
      </trkpt>
      <trkpt lat="44.81585" lon="5.16349">
        <ele>750</ele>
        <time>2015-10-18T13:59:57Z</time>
      </trkpt>
      <trkpt lat="44.8157" lon="5.16353">
        <ele>749</ele>
        <time>2015-10-18T13:59:58Z</time>
      </trkpt>
      <trkpt lat="44.81556" lon="5.1636">
        <ele>748</ele>
        <time>2015-10-18T13:59:59Z</time>
      </trkpt>
      <trkpt lat="44.81474" lon="5.16423">
        <ele>742.8</ele>
        <time>2015-10-18T14:00:06Z</time>
      </trkpt>
      <trkpt lat="44.81423" lon="5.16491">
        <ele>738</ele>
        <time>2015-10-18T14:00:12Z</time>
      </trkpt>
      <trkpt lat="44.81414" lon="5.16499">
        <ele>737</ele>
        <time>2015-10-18T14:00:13Z</time>
      </trkpt>
      <trkpt lat="44.81404" lon="5.16505">
        <ele>737</ele>
        <time>2015-10-18T14:00:14Z</time>
      </trkpt>
      <trkpt lat="44.81386" lon="5.16514">
        <ele>735.6</ele>
        <time>2015-10-18T14:00:16Z</time>
      </trkpt>
      <trkpt lat="44.81292" lon="5.16535">
        <ele>731.2</ele>
        <time>2015-10-18T14:00:28Z</time>
      </trkpt>
      <trkpt lat="44.81257" lon="5.16552">
        <ele>728.8</ele>
        <time>2015-10-18T14:00:33Z</time>
      </trkpt>
      <trkpt lat="44.8125" lon="5.1656">
        <ele>728.3</ele>
        <time>2015-10-18T14:00:34Z</time>
      </trkpt>
      <trkpt lat="44.81244" lon="5.16569">
        <ele>727.9</ele>
        <time>2015-10-18T14:00:35Z</time>
      </trkpt>
      <trkpt lat="44.81239" lon="5.1658">
        <ele>726.9</ele>
        <time>2015-10-18T14:00:36Z</time>
      </trkpt>
      <trkpt lat="44.81228" lon="5.16619">
        <ele>725</ele>
        <time>2015-10-18T14:00:39Z</time>
      </trkpt>
      <trkpt lat="44.81222" lon="5.16721">
        <ele>720.2</ele>
        <time>2015-10-18T14:00:47Z</time>
      </trkpt>
      <trkpt lat="44.81234" lon="5.16845">
        <ele>715.4</ele>
        <time>2015-10-18T14:00:55Z</time>
      </trkpt>
      <trkpt lat="44.81233" lon="5.16861">
        <ele>714.4</ele>
        <time>2015-10-18T14:00:56Z</time>
      </trkpt>
      <trkpt lat="44.81213" lon="5.17002">
        <ele>706.2</ele>
        <time>2015-10-18T14:01:06Z</time>
      </trkpt>
      <trkpt lat="44.81209" lon="5.17006">
        <ele>705.3</ele>
        <time>2015-10-18T14:01:07Z</time>
      </trkpt>
      <trkpt lat="44.81204" lon="5.17006">
        <ele>704.8</ele>
        <time>2015-10-18T14:01:08Z</time>
      </trkpt>
      <trkpt lat="44.812" lon="5.17001">
        <ele>703.3</ele>
        <time>2015-10-18T14:01:09Z</time>
      </trkpt>
      <trkpt lat="44.80912" lon="5.16643">
        <ele>681.2</ele>
        <time>2015-10-18T14:02:41Z</time>
      </trkpt>
      <trkpt lat="44.80904" lon="5.16628">
        <ele>680.8</ele>
        <time>2015-10-18T14:02:42Z</time>
      </trkpt>
      <trkpt lat="44.80899" lon="5.1661">
        <ele>680.3</ele>
        <time>2015-10-18T14:02:43Z</time>
      </trkpt>
      <trkpt lat="44.80892" lon="5.16569">
        <ele>678.4</ele>
        <time>2015-10-18T14:02:45Z</time>
      </trkpt>
      <trkpt lat="44.80904" lon="5.1634">
        <ele>672.1</ele>
        <time>2015-10-18T14:02:56Z</time>
      </trkpt>
      <trkpt lat="44.80901" lon="5.16324">
        <ele>671.6</ele>
        <time>2015-10-18T14:02:57Z</time>
      </trkpt>
      <trkpt lat="44.80895" lon="5.16312">
        <ele>671.1</ele>
        <time>2015-10-18T14:02:58Z</time>
      </trkpt>
      <trkpt lat="44.80888" lon="5.16305">
        <ele>670.7</ele>
        <time>2015-10-18T14:02:59Z</time>
      </trkpt>
      <trkpt lat="44.80878" lon="5.163">
        <ele>670.2</ele>
        <time>2015-10-18T14:03:00Z</time>
      </trkpt>
      <trkpt lat="44.80858" lon="5.163">
        <ele>669.2</ele>
        <time>2015-10-18T14:03:02Z</time>
      </trkpt>
      <trkpt lat="44.80849" lon="5.16297">
        <ele>668.3</ele>
        <time>2015-10-18T14:03:03Z</time>
      </trkpt>
      <trkpt lat="44.80841" lon="5.16288">
        <ele>667.8</ele>
        <time>2015-10-18T14:03:04Z</time>
      </trkpt>
      <trkpt lat="44.80835" lon="5.16277">
        <ele>666.8</ele>
        <time>2015-10-18T14:03:05Z</time>
      </trkpt>
      <trkpt lat="44.80831" lon="5.16263">
        <ele>665.9</ele>
        <time>2015-10-18T14:03:06Z</time>
      </trkpt>
      <trkpt lat="44.80827" lon="5.16231">
        <ele>663</ele>
        <time>2015-10-18T14:03:08Z</time>
      </trkpt>
      <trkpt lat="44.80842" lon="5.16055">
        <ele>653.4</ele>
        <time>2015-10-18T14:03:18Z</time>
      </trkpt>
      <trkpt lat="44.80839" lon="5.16037">
        <ele>652.9</ele>
        <time>2015-10-18T14:03:19Z</time>
      </trkpt>
      <trkpt lat="44.80834" lon="5.16019">
        <ele>651.9</ele>
        <time>2015-10-18T14:03:20Z</time>
      </trkpt>
      <trkpt lat="44.80819" lon="5.15984">
        <ele>650</ele>
        <time>2015-10-18T14:03:22Z</time>
      </trkpt>
      <trkpt lat="44.80799" lon="5.15953">
        <ele>647.6</ele>
        <time>2015-10-18T14:03:24Z</time>
      </trkpt>
      <trkpt lat="44.80775" lon="5.15923">
        <ele>645.7</ele>
        <time>2015-10-18T14:03:26Z</time>
      </trkpt>
      <trkpt lat="44.80453" lon="5.1567">
        <ele>623.6</ele>
        <time>2015-10-18T14:03:45Z</time>
      </trkpt>
      <trkpt lat="44.80039" lon="5.15526">
        <ele>596.6</ele>
        <time>2015-10-18T14:04:06Z</time>
      </trkpt>
      <trkpt lat="44.79901" lon="5.15418">
        <ele>588</ele>
        <time>2015-10-18T14:04:14Z</time>
      </trkpt>
      <trkpt lat="44.79872" lon="5.15389">
        <ele>586.1</ele>
        <time>2015-10-18T14:04:16Z</time>
      </trkpt>
      <trkpt lat="44.79858" lon="5.1538">
        <ele>584.6</ele>
        <time>2015-10-18T14:04:17Z</time>
      </trkpt>
      <trkpt lat="44.79842" lon="5.15376">
        <ele>583.7</ele>
        <time>2015-10-18T14:04:18Z</time>
      </trkpt>
      <trkpt lat="44.79827" lon="5.15379">
        <ele>582.7</ele>
        <time>2015-10-18T14:04:19Z</time>
      </trkpt>
      <trkpt lat="44.79811" lon="5.15386">
        <ele>581.7</ele>
        <time>2015-10-18T14:04:20Z</time>
      </trkpt>
      <trkpt lat="44.79796" lon="5.15396">
        <ele>580.8</ele>
        <time>2015-10-18T14:04:21Z</time>
      </trkpt>
      <trkpt lat="44.79656" lon="5.15514">
        <ele>570.7</ele>
        <time>2015-10-18T14:04:30Z</time>
      </trkpt>
      <trkpt lat="44.79645" lon="5.1553">
        <ele>569.7</ele>
        <time>2015-10-18T14:04:31Z</time>
      </trkpt>
      <trkpt lat="44.79637" lon="5.15549">
        <ele>568.8</ele>
        <time>2015-10-18T14:04:32Z</time>
      </trkpt>
      <trkpt lat="44.7963" lon="5.15569">
        <ele>567.8</ele>
        <time>2015-10-18T14:04:33Z</time>
      </trkpt>
      <trkpt lat="44.79621" lon="5.15614">
        <ele>565.9</ele>
        <time>2015-10-18T14:04:35Z</time>
      </trkpt>
      <trkpt lat="44.79619" lon="5.15636">
        <ele>564.4</ele>
        <time>2015-10-18T14:04:36Z</time>
      </trkpt>
      <trkpt lat="44.79621" lon="5.15658">
        <ele>563.5</ele>
        <time>2015-10-18T14:04:37Z</time>
      </trkpt>
      <trkpt lat="44.79625" lon="5.15678">
        <ele>563</ele>
        <time>2015-10-18T14:04:38Z</time>
      </trkpt>
      <trkpt lat="44.79631" lon="5.15693">
        <ele>562.5</ele>
        <time>2015-10-18T14:04:39Z</time>
      </trkpt>
      <trkpt lat="44.79637" lon="5.15704">
        <ele>562</ele>
        <time>2015-10-18T14:04:40Z</time>
      </trkpt>
      <trkpt lat="44.79644" lon="5.1571">
        <ele>561.6</ele>
        <time>2015-10-18T14:04:41Z</time>
      </trkpt>
      <trkpt lat="44.79651" lon="5.15713">
        <ele>561.6</ele>
        <time>2015-10-18T14:04:42Z</time>
      </trkpt>
      <trkpt lat="44.79656" lon="5.15718">
        <ele>561.6</ele>
        <time>2015-10-18T14:04:43Z</time>
      </trkpt>
      <trkpt lat="44.79657" lon="5.15721">
        <ele>561.6</ele>
        <time>2015-10-18T14:04:44Z</time>
      </trkpt>
      <trkpt lat="44.79655" lon="5.15723">
        <ele>561.1</ele>
        <time>2015-10-18T14:04:45Z</time>
      </trkpt>
      <trkpt lat="44.79651" lon="5.15723">
        <ele>560.6</ele>
        <time>2015-10-18T14:04:46Z</time>
      </trkpt>
      <trkpt lat="44.79647" lon="5.15719">
        <ele>560.1</ele>
        <time>2015-10-18T14:04:47Z</time>
      </trkpt>
      <trkpt lat="44.79637" lon="5.15707">
        <ele>559.6</ele>
        <time>2015-10-18T14:04:49Z</time>
      </trkpt>
      <trkpt lat="44.79617" lon="5.15675">
        <ele>557.2</ele>
        <time>2015-10-18T14:04:52Z</time>
      </trkpt>
      <trkpt lat="44.79611" lon="5.15659">
        <ele>556.7</ele>
        <time>2015-10-18T14:04:53Z</time>
      </trkpt>
      <trkpt lat="44.79607" lon="5.15641">
        <ele>556.3</ele>
        <time>2015-10-18T14:04:54Z</time>
      </trkpt>
      <trkpt lat="44.79598" lon="5.15519">
        <ele>550</ele>
        <time>2015-10-18T14:05:00Z</time>
      </trkpt>
      <trkpt lat="44.796" lon="5.155">
        <ele>549.1</ele>
        <time>2015-10-18T14:05:01Z</time>
      </trkpt>
      <trkpt lat="44.79611" lon="5.15461">
        <ele>547.1</ele>
        <time>2015-10-18T14:05:03Z</time>
      </trkpt>
      <trkpt lat="44.79627" lon="5.15423">
        <ele>546.2</ele>
        <time>2015-10-18T14:05:05Z</time>
      </trkpt>
      <trkpt lat="44.79753" lon="5.152">
        <ele>536.1</ele>
        <time>2015-10-18T14:05:17Z</time>
      </trkpt>
      <trkpt lat="44.79765" lon="5.1519">
        <ele>535.1</ele>
        <time>2015-10-18T14:05:18Z</time>
      </trkpt>
      <trkpt lat="44.79776" lon="5.15185">
        <ele>534.2</ele>
        <time>2015-10-18T14:05:19Z</time>
      </trkpt>
      <trkpt lat="44.79785" lon="5.15182">
        <ele>533.7</ele>
        <time>2015-10-18T14:05:20Z</time>
      </trkpt>
      <trkpt lat="44.79791" lon="5.15178">
        <ele>533.2</ele>
        <time>2015-10-18T14:05:21Z</time>
      </trkpt>
      <trkpt lat="44.79793" lon="5.15173">
        <ele>532.2</ele>
        <time>2015-10-18T14:05:22Z</time>
      </trkpt>
      <trkpt lat="44.79791" lon="5.15167">
        <ele>531.8</ele>
        <time>2015-10-18T14:05:23Z</time>
      </trkpt>
      <trkpt lat="44.79787" lon="5.15162">
        <ele>530.8</ele>
        <time>2015-10-18T14:05:24Z</time>
      </trkpt>
      <trkpt lat="44.7978" lon="5.15161">
        <ele>530.8</ele>
        <time>2015-10-18T14:05:25Z</time>
      </trkpt>
      <trkpt lat="44.79772" lon="5.15164">
        <ele>530.8</ele>
        <time>2015-10-18T14:05:26Z</time>
      </trkpt>
      <trkpt lat="44.7968" lon="5.152">
        <ele>525.5</ele>
        <time>2015-10-18T14:05:33Z</time>
      </trkpt>
      <trkpt lat="44.79651" lon="5.15219">
        <ele>523.6</ele>
        <time>2015-10-18T14:05:35Z</time>
      </trkpt>
      <trkpt lat="44.79637" lon="5.15232">
        <ele>522.6</ele>
        <time>2015-10-18T14:05:36Z</time>
      </trkpt>
      <trkpt lat="44.79529" lon="5.1536">
        <ele>514</ele>
        <time>2015-10-18T14:05:44Z</time>
      </trkpt>
      <trkpt lat="44.79515" lon="5.1537">
        <ele>513</ele>
        <time>2015-10-18T14:05:45Z</time>
      </trkpt>
      <trkpt lat="44.795" lon="5.15378">
        <ele>511.6</ele>
        <time>2015-10-18T14:05:46Z</time>
      </trkpt>
      <trkpt lat="44.79417" lon="5.15397">
        <ele>505.8</ele>
        <time>2015-10-18T14:05:51Z</time>
      </trkpt>
      <trkpt lat="44.79329" lon="5.15445">
        <ele>499.5</ele>
        <time>2015-10-18T14:05:58Z</time>
      </trkpt>
      <trkpt lat="44.79324" lon="5.15444">
        <ele>498.6</ele>
        <time>2015-10-18T14:05:59Z</time>
      </trkpt>
      <trkpt lat="44.7932" lon="5.15439">
        <ele>497.1</ele>
        <time>2015-10-18T14:06:00Z</time>
      </trkpt>
      <trkpt lat="44.79319" lon="5.15428">
        <ele>495.7</ele>
        <time>2015-10-18T14:06:01Z</time>
      </trkpt>
      <trkpt lat="44.79321" lon="5.15417">
        <ele>495.7</ele>
        <time>2015-10-18T14:06:02Z</time>
      </trkpt>
      <trkpt lat="44.79334" lon="5.15389">
        <ele>496.7</ele>
        <time>2015-10-18T14:06:04Z</time>
      </trkpt>
      <trkpt lat="44.79379" lon="5.15269">
        <ele>492.8</ele>
        <time>2015-10-18T14:06:10Z</time>
      </trkpt>
      <trkpt lat="44.79388" lon="5.15253">
        <ele>491.9</ele>
        <time>2015-10-18T14:06:11Z</time>
      </trkpt>
      <trkpt lat="44.79415" lon="5.15216">
        <ele>489.9</ele>
        <time>2015-10-18T14:06:14Z</time>
      </trkpt>
      <trkpt lat="44.79418" lon="5.15202">
        <ele>489</ele>
        <time>2015-10-18T14:06:15Z</time>
      </trkpt>
      <trkpt lat="44.79418" lon="5.15187">
        <ele>488</ele>
        <time>2015-10-18T14:06:16Z</time>
      </trkpt>
      <trkpt lat="44.79413" lon="5.15161">
        <ele>486.6</ele>
        <time>2015-10-18T14:06:18Z</time>
      </trkpt>
      <trkpt lat="44.79409" lon="5.15152">
        <ele>486.1</ele>
        <time>2015-10-18T14:06:19Z</time>
      </trkpt>
      <trkpt lat="44.79403" lon="5.15147">
        <ele>485.6</ele>
        <time>2015-10-18T14:06:20Z</time>
      </trkpt>
      <trkpt lat="44.79392" lon="5.15153">
        <ele>484.6</ele>
        <time>2015-10-18T14:06:22Z</time>
      </trkpt>
      <trkpt lat="44.7939" lon="5.15164">
        <ele>485.1</ele>
        <time>2015-10-18T14:06:23Z</time>
      </trkpt>
      <trkpt lat="44.79389" lon="5.15176">
        <ele>485.1</ele>
        <time>2015-10-18T14:06:24Z</time>
      </trkpt>
      <trkpt lat="44.79385" lon="5.1519">
        <ele>484.6</ele>
        <time>2015-10-18T14:06:25Z</time>
      </trkpt>
      <trkpt lat="44.79378" lon="5.15201">
        <ele>484.2</ele>
        <time>2015-10-18T14:06:26Z</time>
      </trkpt>
      <trkpt lat="44.79368" lon="5.15205">
        <ele>483.2</ele>
        <time>2015-10-18T14:06:27Z</time>
      </trkpt>
      <trkpt lat="44.79216" lon="5.15217">
        <ele>475</ele>
        <time>2015-10-18T14:06:37Z</time>
      </trkpt>
      <trkpt lat="44.79203" lon="5.15222">
        <ele>474.1</ele>
        <time>2015-10-18T14:06:38Z</time>
      </trkpt>
      <trkpt lat="44.79153" lon="5.15253">
        <ele>471.7</ele>
        <time>2015-10-18T14:06:42Z</time>
      </trkpt>
      <trkpt lat="44.79143" lon="5.15265">
        <ele>470.7</ele>
        <time>2015-10-18T14:06:43Z</time>
      </trkpt>
      <trkpt lat="44.79126" lon="5.153">
        <ele>468.3</ele>
        <time>2015-10-18T14:06:46Z</time>
      </trkpt>
      <trkpt lat="44.79122" lon="5.15304">
        <ele>467.8</ele>
        <time>2015-10-18T14:06:47Z</time>
      </trkpt>
      <trkpt lat="44.79118" lon="5.15301">
        <ele>466.9</ele>
        <time>2015-10-18T14:06:48Z</time>
      </trkpt>
      <trkpt lat="44.79095" lon="5.1526">
        <ele>464.5</ele>
        <time>2015-10-18T14:06:52Z</time>
      </trkpt>
      <trkpt lat="44.79085" lon="5.15247">
        <ele>464</ele>
        <time>2015-10-18T14:06:53Z</time>
      </trkpt>
      <trkpt lat="44.79016" lon="5.15198">
        <ele>458.7</ele>
        <time>2015-10-18T14:06:58Z</time>
      </trkpt>
      <trkpt lat="44.79003" lon="5.15194">
        <ele>457.7</ele>
        <time>2015-10-18T14:06:59Z</time>
      </trkpt>
      <trkpt lat="44.78976" lon="5.15195">
        <ele>455.8</ele>
        <time>2015-10-18T14:07:01Z</time>
      </trkpt>
      <trkpt lat="44.78961" lon="5.15193">
        <ele>454.4</ele>
        <time>2015-10-18T14:07:02Z</time>
      </trkpt>
      <trkpt lat="44.78947" lon="5.15187">
        <ele>453.4</ele>
        <time>2015-10-18T14:07:03Z</time>
      </trkpt>
      <trkpt lat="44.78932" lon="5.1518">
        <ele>452</ele>
        <time>2015-10-18T14:07:04Z</time>
      </trkpt>
      <trkpt lat="44.78905" lon="5.1516">
        <ele>449.6</ele>
        <time>2015-10-18T14:07:06Z</time>
      </trkpt>
      <trkpt lat="44.78893" lon="5.15149">
        <ele>448.6</ele>
        <time>2015-10-18T14:07:07Z</time>
      </trkpt>
      <trkpt lat="44.78882" lon="5.15136">
        <ele>447.6</ele>
        <time>2015-10-18T14:07:08Z</time>
      </trkpt>
      <trkpt lat="44.78872" lon="5.15121">
        <ele>447.2</ele>
        <time>2015-10-18T14:07:09Z</time>
      </trkpt>
      <trkpt lat="44.78866" lon="5.15104">
        <ele>446.2</ele>
        <time>2015-10-18T14:07:10Z</time>
      </trkpt>
      <trkpt lat="44.78861" lon="5.15087">
        <ele>444.8</ele>
        <time>2015-10-18T14:07:11Z</time>
      </trkpt>
      <trkpt lat="44.78861" lon="5.15069">
        <ele>442.3</ele>
        <time>2015-10-18T14:07:12Z</time>
      </trkpt>
      <trkpt lat="44.78869" lon="5.1505">
        <ele>441.9</ele>
        <time>2015-10-18T14:07:13Z</time>
      </trkpt>
      <trkpt lat="44.78888" lon="5.15017">
        <ele>440.4</ele>
        <time>2015-10-18T14:07:15Z</time>
      </trkpt>
      <trkpt lat="44.78899" lon="5.15001">
        <ele>439.5</ele>
        <time>2015-10-18T14:07:16Z</time>
      </trkpt>
      <trkpt lat="44.79" lon="5.14893">
        <ele>432.3</ele>
        <time>2015-10-18T14:07:24Z</time>
      </trkpt>
      <trkpt lat="44.79012" lon="5.14888">
        <ele>431.3</ele>
        <time>2015-10-18T14:07:25Z</time>
      </trkpt>
      <trkpt lat="44.79022" lon="5.14887">
        <ele>430.3</ele>
        <time>2015-10-18T14:07:26Z</time>
      </trkpt>
      <trkpt lat="44.79031" lon="5.14888">
        <ele>429.9</ele>
        <time>2015-10-18T14:07:27Z</time>
      </trkpt>
      <trkpt lat="44.79035" lon="5.14887">
        <ele>429.4</ele>
        <time>2015-10-18T14:07:28Z</time>
      </trkpt>
      <trkpt lat="44.79036" lon="5.14877">
        <ele>427.9</ele>
        <time>2015-10-18T14:07:30Z</time>
      </trkpt>
      <trkpt lat="44.79031" lon="5.14871">
        <ele>427</ele>
        <time>2015-10-18T14:07:31Z</time>
      </trkpt>
      <trkpt lat="44.79024" lon="5.14867">
        <ele>426.5</ele>
        <time>2015-10-18T14:07:32Z</time>
      </trkpt>
      <trkpt lat="44.79016" lon="5.14866">
        <ele>426.5</ele>
        <time>2015-10-18T14:07:33Z</time>
      </trkpt>
      <trkpt lat="44.78924" lon="5.14871">
        <ele>419.8</ele>
        <time>2015-10-18T14:07:42Z</time>
      </trkpt>
      <trkpt lat="44.78914" lon="5.14876">
        <ele>419.3</ele>
        <time>2015-10-18T14:07:43Z</time>
      </trkpt>
      <trkpt lat="44.78755" lon="5.15015">
        <ele>407.3</ele>
        <time>2015-10-18T14:08:00Z</time>
      </trkpt>
      <trkpt lat="44.7875" lon="5.15016">
        <ele>407.3</ele>
        <time>2015-10-18T14:08:01Z</time>
      </trkpt>
      <trkpt lat="44.78737" lon="5.1501">
        <ele>405.3</ele>
        <time>2015-10-18T14:08:07Z</time>
      </trkpt>
      <trkpt lat="44.78736" lon="5.15011">
        <ele>405.3</ele>
        <time>2015-10-18T14:08:08Z</time>
      </trkpt>
      <trkpt lat="44.78736" lon="5.15013">
        <ele>405.3</ele>
        <time>2015-10-18T14:08:09Z</time>
      </trkpt>
      <trkpt lat="44.78737" lon="5.15019">
        <ele>405.3</ele>
        <time>2015-10-18T14:08:11Z</time>
      </trkpt>
      <trkpt lat="44.78738" lon="5.1502">
        <ele>405.3</ele>
        <time>2015-10-18T14:08:12Z</time>
      </trkpt>
      <trkpt lat="44.7874" lon="5.1502">
        <ele>404.9</ele>
        <time>2015-10-18T14:08:13Z</time>
      </trkpt>
      <trkpt lat="44.78741" lon="5.15019">
        <ele>404.9</ele>
        <time>2015-10-18T14:08:14Z</time>
      </trkpt>
      <trkpt lat="44.78742" lon="5.15017">
        <ele>409.2</ele>
        <time>2015-10-18T14:08:37Z</time>
      </trkpt>
      <trkpt lat="44.78744" lon="5.15015">
        <ele>409.7</ele>
        <time>2015-10-18T14:08:56Z</time>
      </trkpt>
      <trkpt lat="44.78745" lon="5.15013">
        <ele>409.7</ele>
        <time>2015-10-18T14:08:57Z</time>
      </trkpt>
      <trkpt lat="44.78746" lon="5.15007">
        <ele>409.2</ele>
        <time>2015-10-18T14:08:58Z</time>
      </trkpt>
      <trkpt lat="44.78749" lon="5.14999">
        <ele>408.7</ele>
        <time>2015-10-18T14:08:59Z</time>
      </trkpt>
      <trkpt lat="44.78755" lon="5.14989">
        <ele>408.2</ele>
        <time>2015-10-18T14:09:00Z</time>
      </trkpt>
      <trkpt lat="44.78775" lon="5.14967">
        <ele>406.8</ele>
        <time>2015-10-18T14:09:02Z</time>
      </trkpt>
      <trkpt lat="44.78826" lon="5.14888">
        <ele>402</ele>
        <time>2015-10-18T14:09:07Z</time>
      </trkpt>
      <trkpt lat="44.78896" lon="5.14732">
        <ele>394.3</ele>
        <time>2015-10-18T14:09:15Z</time>
      </trkpt>
      <trkpt lat="44.78915" lon="5.14701">
        <ele>391.9</ele>
        <time>2015-10-18T14:09:17Z</time>
      </trkpt>
      <trkpt lat="44.78926" lon="5.14689">
        <ele>390.9</ele>
        <time>2015-10-18T14:09:18Z</time>
      </trkpt>
      <trkpt lat="44.78937" lon="5.14682">
        <ele>389.5</ele>
        <time>2015-10-18T14:09:19Z</time>
      </trkpt>
      <trkpt lat="44.78957" lon="5.14671">
        <ele>387.6</ele>
        <time>2015-10-18T14:09:21Z</time>
      </trkpt>
      <trkpt lat="44.78965" lon="5.14663">
        <ele>387.1</ele>
        <time>2015-10-18T14:09:22Z</time>
      </trkpt>
      <trkpt lat="44.78972" lon="5.14652">
        <ele>386.1</ele>
        <time>2015-10-18T14:09:23Z</time>
      </trkpt>
      <trkpt lat="44.79008" lon="5.14555">
        <ele>380.3</ele>
        <time>2015-10-18T14:09:30Z</time>
      </trkpt>
      <trkpt lat="44.7901" lon="5.14543">
        <ele>379.9</ele>
        <time>2015-10-18T14:09:31Z</time>
      </trkpt>
      <trkpt lat="44.7901" lon="5.1453">
        <ele>378.9</ele>
        <time>2015-10-18T14:09:32Z</time>
      </trkpt>
      <trkpt lat="44.79007" lon="5.14519">
        <ele>378.4</ele>
        <time>2015-10-18T14:09:33Z</time>
      </trkpt>
      <trkpt lat="44.79004" lon="5.14508">
        <ele>377.9</ele>
        <time>2015-10-18T14:09:34Z</time>
      </trkpt>
      <trkpt lat="44.78999" lon="5.14499">
        <ele>377</ele>
        <time>2015-10-18T14:09:35Z</time>
      </trkpt>
      <trkpt lat="44.78993" lon="5.14491">
        <ele>376.5</ele>
        <time>2015-10-18T14:09:36Z</time>
      </trkpt>
      <trkpt lat="44.78985" lon="5.14485">
        <ele>376</ele>
        <time>2015-10-18T14:09:37Z</time>
      </trkpt>
      <trkpt lat="44.78977" lon="5.14483">
        <ele>375.5</ele>
        <time>2015-10-18T14:09:38Z</time>
      </trkpt>
      <trkpt lat="44.78949" lon="5.14484">
        <ele>375.5</ele>
        <time>2015-10-18T14:09:41Z</time>
      </trkpt>
      <trkpt lat="44.78938" lon="5.14482">
        <ele>376</ele>
        <time>2015-10-18T14:09:42Z</time>
      </trkpt>
      <trkpt lat="44.78924" lon="5.14477">
        <ele>377.9</ele>
        <time>2015-10-18T14:09:43Z</time>
      </trkpt>
      <trkpt lat="44.78814" lon="5.14427">
        <ele>386.6</ele>
        <time>2015-10-18T14:09:49Z</time>
      </trkpt>
      <trkpt lat="44.78748" lon="5.14382">
        <ele>390.9</ele>
        <time>2015-10-18T14:09:53Z</time>
      </trkpt>
      <trkpt lat="44.78731" lon="5.14376">
        <ele>390.9</ele>
        <time>2015-10-18T14:09:54Z</time>
      </trkpt>
      <trkpt lat="44.78713" lon="5.14375">
        <ele>391.9</ele>
        <time>2015-10-18T14:09:55Z</time>
      </trkpt>
      <trkpt lat="44.78696" lon="5.14381">
        <ele>392.4</ele>
        <time>2015-10-18T14:09:56Z</time>
      </trkpt>
      <trkpt lat="44.78659" lon="5.14399">
        <ele>394.3</ele>
        <time>2015-10-18T14:09:58Z</time>
      </trkpt>
      <trkpt lat="44.78642" lon="5.14411">
        <ele>395.2</ele>
        <time>2015-10-18T14:09:59Z</time>
      </trkpt>
      <trkpt lat="44.7855" lon="5.14493">
        <ele>399.1</ele>
        <time>2015-10-18T14:10:05Z</time>
      </trkpt>
      <trkpt lat="44.78535" lon="5.14499">
        <ele>400.1</ele>
        <time>2015-10-18T14:10:06Z</time>
      </trkpt>
      <trkpt lat="44.78519" lon="5.145">
        <ele>400.5</ele>
        <time>2015-10-18T14:10:07Z</time>
      </trkpt>
      <trkpt lat="44.78502" lon="5.14498">
        <ele>401.5</ele>
        <time>2015-10-18T14:10:08Z</time>
      </trkpt>
      <trkpt lat="44.78346" lon="5.14464">
        <ele>401.5</ele>
        <time>2015-10-18T14:10:15Z</time>
      </trkpt>
      <trkpt lat="44.78291" lon="5.14448">
        <ele>401</ele>
        <time>2015-10-18T14:10:18Z</time>
      </trkpt>
      <trkpt lat="44.78277" lon="5.14437">
        <ele>400.5</ele>
        <time>2015-10-18T14:10:19Z</time>
      </trkpt>
      <trkpt lat="44.78243" lon="5.14387">
        <ele>399.1</ele>
        <time>2015-10-18T14:10:22Z</time>
      </trkpt>
      <trkpt lat="44.7823" lon="5.14374">
        <ele>398.1</ele>
        <time>2015-10-18T14:10:23Z</time>
      </trkpt>
      <trkpt lat="44.78216" lon="5.14367">
        <ele>397.2</ele>
        <time>2015-10-18T14:10:24Z</time>
      </trkpt>
      <trkpt lat="44.782" lon="5.14367">
        <ele>396.7</ele>
        <time>2015-10-18T14:10:25Z</time>
      </trkpt>
      <trkpt lat="44.78151" lon="5.14375">
        <ele>394.8</ele>
        <time>2015-10-18T14:10:28Z</time>
      </trkpt>
      <trkpt lat="44.78135" lon="5.14373">
        <ele>393.8</ele>
        <time>2015-10-18T14:10:29Z</time>
      </trkpt>
      <trkpt lat="44.78121" lon="5.14366">
        <ele>392.8</ele>
        <time>2015-10-18T14:10:30Z</time>
      </trkpt>
      <trkpt lat="44.78106" lon="5.14356">
        <ele>391.4</ele>
        <time>2015-10-18T14:10:31Z</time>
      </trkpt>
      <trkpt lat="44.77986" lon="5.14248">
        <ele>384.7</ele>
        <time>2015-10-18T14:10:39Z</time>
      </trkpt>
      <trkpt lat="44.77912" lon="5.14156">
        <ele>379.9</ele>
        <time>2015-10-18T14:10:45Z</time>
      </trkpt>
      <trkpt lat="44.779" lon="5.14148">
        <ele>378.9</ele>
        <time>2015-10-18T14:10:46Z</time>
      </trkpt>
      <trkpt lat="44.77887" lon="5.14143">
        <ele>377.9</ele>
        <time>2015-10-18T14:10:47Z</time>
      </trkpt>
      <trkpt lat="44.77873" lon="5.14143">
        <ele>377.5</ele>
        <time>2015-10-18T14:10:48Z</time>
      </trkpt>
      <trkpt lat="44.77858" lon="5.14146">
        <ele>377</ele>
        <time>2015-10-18T14:10:49Z</time>
      </trkpt>
      <trkpt lat="44.77843" lon="5.14152">
        <ele>376</ele>
        <time>2015-10-18T14:10:50Z</time>
      </trkpt>
      <trkpt lat="44.77717" lon="5.14224">
        <ele>370.7</ele>
        <time>2015-10-18T14:11:01Z</time>
      </trkpt>
      <trkpt lat="44.77672" lon="5.14242">
        <ele>367.8</ele>
        <time>2015-10-18T14:11:06Z</time>
      </trkpt>
      <trkpt lat="44.77666" lon="5.14243">
        <ele>367.4</ele>
        <time>2015-10-18T14:11:07Z</time>
      </trkpt>
      <trkpt lat="44.77661" lon="5.14243">
        <ele>367.4</ele>
        <time>2015-10-18T14:11:08Z</time>
      </trkpt>
      <trkpt lat="44.77653" lon="5.14239">
        <ele>365.9</ele>
        <time>2015-10-18T14:11:11Z</time>
      </trkpt>
      <trkpt lat="44.77639" lon="5.14228">
        <ele>365.4</ele>
        <time>2015-10-18T14:11:14Z</time>
      </trkpt>
      <trkpt lat="44.77633" lon="5.14225">
        <ele>365.4</ele>
        <time>2015-10-18T14:11:15Z</time>
      </trkpt>
      <trkpt lat="44.77576" lon="5.14212">
        <ele>362.6</ele>
        <time>2015-10-18T14:11:29Z</time>
      </trkpt>
      <trkpt lat="44.77562" lon="5.14204">
        <ele>361.6</ele>
        <time>2015-10-18T14:11:32Z</time>
      </trkpt>
      <trkpt lat="44.77553" lon="5.14197">
        <ele>361.1</ele>
        <time>2015-10-18T14:11:33Z</time>
      </trkpt>
      <trkpt lat="44.77472" lon="5.14118">
        <ele>356.3</ele>
        <time>2015-10-18T14:11:40Z</time>
      </trkpt>
      <trkpt lat="44.77442" lon="5.14076">
        <ele>353.4</ele>
        <time>2015-10-18T14:11:43Z</time>
      </trkpt>
      <trkpt lat="44.7743" lon="5.14065">
        <ele>352.5</ele>
        <time>2015-10-18T14:11:44Z</time>
      </trkpt>
      <trkpt lat="44.77417" lon="5.14055">
        <ele>352</ele>
        <time>2015-10-18T14:11:45Z</time>
      </trkpt>
      <trkpt lat="44.77092" lon="5.13895">
        <ele>331.8</ele>
        <time>2015-10-18T14:12:06Z</time>
      </trkpt>
      <trkpt lat="44.7708" lon="5.13886">
        <ele>330.8</ele>
        <time>2015-10-18T14:12:07Z</time>
      </trkpt>
      <trkpt lat="44.7707" lon="5.13873">
        <ele>329.9</ele>
        <time>2015-10-18T14:12:08Z</time>
      </trkpt>
      <trkpt lat="44.77061" lon="5.13858">
        <ele>329.4</ele>
        <time>2015-10-18T14:12:09Z</time>
      </trkpt>
      <trkpt lat="44.77054" lon="5.13842">
        <ele>328.4</ele>
        <time>2015-10-18T14:12:10Z</time>
      </trkpt>
      <trkpt lat="44.77051" lon="5.13826">
        <ele>327.5</ele>
        <time>2015-10-18T14:12:11Z</time>
      </trkpt>
      <trkpt lat="44.77056" lon="5.13761">
        <ele>323.1</ele>
        <time>2015-10-18T14:12:15Z</time>
      </trkpt>
      <trkpt lat="44.77052" lon="5.13745">
        <ele>322.7</ele>
        <time>2015-10-18T14:12:16Z</time>
      </trkpt>
      <trkpt lat="44.77046" lon="5.1373">
        <ele>321.7</ele>
        <time>2015-10-18T14:12:17Z</time>
      </trkpt>
      <trkpt lat="44.77038" lon="5.13717">
        <ele>321.2</ele>
        <time>2015-10-18T14:12:18Z</time>
      </trkpt>
      <trkpt lat="44.77027" lon="5.13706">
        <ele>320.3</ele>
        <time>2015-10-18T14:12:19Z</time>
      </trkpt>
      <trkpt lat="44.77014" lon="5.13697">
        <ele>319.8</ele>
        <time>2015-10-18T14:12:20Z</time>
      </trkpt>
      <trkpt lat="44.76982" lon="5.13682">
        <ele>319.3</ele>
        <time>2015-10-18T14:12:22Z</time>
      </trkpt>
      <trkpt lat="44.76847" lon="5.13652">
        <ele>316.9</ele>
        <time>2015-10-18T14:12:30Z</time>
      </trkpt>
      <trkpt lat="44.76728" lon="5.13685">
        <ele>314.5</ele>
        <time>2015-10-18T14:12:37Z</time>
      </trkpt>
      <trkpt lat="44.76504" lon="5.13792">
        <ele>315</ele>
        <time>2015-10-18T14:12:50Z</time>
      </trkpt>
      <trkpt lat="44.76378" lon="5.13815">
        <ele>312.6</ele>
        <time>2015-10-18T14:12:57Z</time>
      </trkpt>
      <trkpt lat="44.76164" lon="5.13801">
        <ele>311.6</ele>
        <time>2015-10-18T14:13:08Z</time>
      </trkpt>
      <trkpt lat="44.76147" lon="5.13795">
        <ele>311.6</ele>
        <time>2015-10-18T14:13:09Z</time>
      </trkpt>
      <trkpt lat="44.76129" lon="5.13785">
        <ele>311.6</ele>
        <time>2015-10-18T14:13:10Z</time>
      </trkpt>
      <trkpt lat="44.76015" lon="5.13691">
        <ele>310.2</ele>
        <time>2015-10-18T14:13:17Z</time>
      </trkpt>
      <trkpt lat="44.76004" lon="5.13674">
        <ele>309.2</ele>
        <time>2015-10-18T14:13:18Z</time>
      </trkpt>
      <trkpt lat="44.75994" lon="5.13654">
        <ele>308.2</ele>
        <time>2015-10-18T14:13:19Z</time>
      </trkpt>
      <trkpt lat="44.75935" lon="5.13442">
        <ele>302</ele>
        <time>2015-10-18T14:13:28Z</time>
      </trkpt>
      <trkpt lat="44.75924" lon="5.13426">
        <ele>301</ele>
        <time>2015-10-18T14:13:29Z</time>
      </trkpt>
      <trkpt lat="44.7591" lon="5.13415">
        <ele>300.1</ele>
        <time>2015-10-18T14:13:30Z</time>
      </trkpt>
      <trkpt lat="44.75755" lon="5.13373">
        <ele>301</ele>
        <time>2015-10-18T14:13:39Z</time>
      </trkpt>
      <trkpt lat="44.75739" lon="5.13363">
        <ele>301</ele>
        <time>2015-10-18T14:13:40Z</time>
      </trkpt>
      <trkpt lat="44.75" lon="5.12604">
        <ele>301</ele>
        <time>2015-10-18T14:14:25Z</time>
      </trkpt>
      <trkpt lat="44.74781" lon="5.12504">
        <ele>297.2</ele>
        <time>2015-10-18T14:14:36Z</time>
      </trkpt>
      <trkpt lat="44.74269" lon="5.12349">
        <ele>286.1</ele>
        <time>2015-10-18T14:15:01Z</time>
      </trkpt>
      <trkpt lat="44.73298" lon="5.11731">
        <ele>265.5</ele>
        <time>2015-10-18T14:15:51Z</time>
      </trkpt>
      <trkpt lat="44.73075" lon="5.11424">
        <ele>259.2</ele>
        <time>2015-10-18T14:16:06Z</time>
      </trkpt>
      <trkpt lat="44.72616" lon="5.10386">
        <ele>250.6</ele>
        <time>2015-10-18T14:16:53Z</time>
      </trkpt>
      <trkpt lat="44.72576" lon="5.10334">
        <ele>250.1</ele>
        <time>2015-10-18T14:16:56Z</time>
      </trkpt>
      <trkpt lat="44.72443" lon="5.1008">
        <ele>246.7</ele>
        <time>2015-10-18T14:17:07Z</time>
      </trkpt>
      <trkpt lat="44.72107" lon="5.09638">
        <ele>235.7</ele>
        <time>2015-10-18T14:17:29Z</time>
      </trkpt>
      <trkpt lat="44.72077" lon="5.0953">
        <ele>235.2</ele>
        <time>2015-10-18T14:17:33Z</time>
      </trkpt>
      <trkpt lat="44.72067" lon="5.09508">
        <ele>235.2</ele>
        <time>2015-10-18T14:17:34Z</time>
      </trkpt>
      <trkpt lat="44.72054" lon="5.09487">
        <ele>235.2</ele>
        <time>2015-10-18T14:17:35Z</time>
      </trkpt>
      <trkpt lat="44.7141" lon="5.08784">
        <ele>231.3</ele>
        <time>2015-10-18T14:18:22Z</time>
      </trkpt>
      <trkpt lat="44.71241" lon="5.08515">
        <ele>228.5</ele>
        <time>2015-10-18T14:18:42Z</time>
      </trkpt>
      <trkpt lat="44.71239" lon="5.0851">
        <ele>228.5</ele>
        <time>2015-10-18T14:18:43Z</time>
      </trkpt>
      <trkpt lat="44.71239" lon="5.0851">
        <ele>228.9</ele>
        <time>2015-10-18T14:18:44Z</time>
      </trkpt>
      <trkpt lat="44.71242" lon="5.08511">
        <ele>227.5</ele>
        <time>2015-10-18T14:19:02Z</time>
      </trkpt>
      <trkpt lat="44.71241" lon="5.08505">
        <ele>227</ele>
        <time>2015-10-18T14:19:26Z</time>
      </trkpt>
      <trkpt lat="44.71236" lon="5.08415">
        <ele>227</ele>
        <time>2015-10-18T14:19:34Z</time>
      </trkpt>
      <trkpt lat="44.71215" lon="5.08316">
        <ele>225.6</ele>
        <time>2015-10-18T14:19:40Z</time>
      </trkpt>
      <trkpt lat="44.71216" lon="5.08276">
        <ele>225.1</ele>
        <time>2015-10-18T14:19:42Z</time>
      </trkpt>
      <trkpt lat="44.71237" lon="5.08156">
        <ele>223.6</ele>
        <time>2015-10-18T14:19:48Z</time>
      </trkpt>
      <trkpt lat="44.71252" lon="5.08116">
        <ele>223.2</ele>
        <time>2015-10-18T14:19:50Z</time>
      </trkpt>
      <trkpt lat="44.71409" lon="5.07856">
        <ele>221.7</ele>
        <time>2015-10-18T14:20:04Z</time>
      </trkpt>
      <trkpt lat="44.71521" lon="5.07706">
        <ele>220.8</ele>
        <time>2015-10-18T14:20:13Z</time>
      </trkpt>
      <trkpt lat="44.71529" lon="5.07688">
        <ele>220.8</ele>
        <time>2015-10-18T14:20:14Z</time>
      </trkpt>
      <trkpt lat="44.71534" lon="5.07665">
        <ele>220.3</ele>
        <time>2015-10-18T14:20:15Z</time>
      </trkpt>
      <trkpt lat="44.71528" lon="5.06088">
        <ele>210.2</ele>
        <time>2015-10-18T14:21:18Z</time>
      </trkpt>
      <trkpt lat="44.71532" lon="5.06081">
        <ele>210.2</ele>
        <time>2015-10-18T14:21:19Z</time>
      </trkpt>
      <trkpt lat="44.71543" lon="5.06066">
        <ele>210.7</ele>
        <time>2015-10-18T14:21:22Z</time>
      </trkpt>
      <trkpt lat="44.71599" lon="5.05926">
        <ele>211.2</ele>
        <time>2015-10-18T14:21:32Z</time>
      </trkpt>
      <trkpt lat="44.71609" lon="5.05913">
        <ele>211.2</ele>
        <time>2015-10-18T14:21:33Z</time>
      </trkpt>
      <trkpt lat="44.71661" lon="5.05865">
        <ele>214</ele>
        <time>2015-10-18T14:21:38Z</time>
      </trkpt>
      <trkpt lat="44.71667" lon="5.05854">
        <ele>214.5</ele>
        <time>2015-10-18T14:21:39Z</time>
      </trkpt>
      <trkpt lat="44.7167" lon="5.05842">
        <ele>214.5</ele>
        <time>2015-10-18T14:21:40Z</time>
      </trkpt>
      <trkpt lat="44.71678" lon="5.0579">
        <ele>214.5</ele>
        <time>2015-10-18T14:21:45Z</time>
      </trkpt>
      <trkpt lat="44.71686" lon="5.05618">
        <ele>216.9</ele>
        <time>2015-10-18T14:21:56Z</time>
      </trkpt>
      <trkpt lat="44.71672" lon="5.05531">
        <ele>218.8</ele>
        <time>2015-10-18T14:22:01Z</time>
      </trkpt>
      <trkpt lat="44.71676" lon="5.05304">
        <ele>218.4</ele>
        <time>2015-10-18T14:22:12Z</time>
      </trkpt>
      <trkpt lat="44.71739" lon="5.04944">
        <ele>204.4</ele>
        <time>2015-10-18T14:22:29Z</time>
      </trkpt>
      <trkpt lat="44.71736" lon="5.04927">
        <ele>203.9</ele>
        <time>2015-10-18T14:22:30Z</time>
      </trkpt>
      <trkpt lat="44.71731" lon="5.04913">
        <ele>203.5</ele>
        <time>2015-10-18T14:22:31Z</time>
      </trkpt>
      <trkpt lat="44.71725" lon="5.04902">
        <ele>203</ele>
        <time>2015-10-18T14:22:32Z</time>
      </trkpt>
      <trkpt lat="44.7172" lon="5.04893">
        <ele>203</ele>
        <time>2015-10-18T14:22:33Z</time>
      </trkpt>
      <trkpt lat="44.71715" lon="5.04884">
        <ele>202.5</ele>
        <time>2015-10-18T14:22:34Z</time>
      </trkpt>
      <trkpt lat="44.71713" lon="5.04873">
        <ele>202.5</ele>
        <time>2015-10-18T14:22:35Z</time>
      </trkpt>
      <trkpt lat="44.71714" lon="5.0486">
        <ele>202</ele>
        <time>2015-10-18T14:22:36Z</time>
      </trkpt>
      <trkpt lat="44.71724" lon="5.0483">
        <ele>201.5</ele>
        <time>2015-10-18T14:22:38Z</time>
      </trkpt>
      <trkpt lat="44.72216" lon="5.03781">
        <ele>200.6</ele>
        <time>2015-10-18T14:23:30Z</time>
      </trkpt>
      <trkpt lat="44.72239" lon="5.03751">
        <ele>200.6</ele>
        <time>2015-10-18T14:23:33Z</time>
      </trkpt>
      <trkpt lat="44.72251" lon="5.03708">
        <ele>199.6</ele>
        <time>2015-10-18T14:23:36Z</time>
      </trkpt>
      <trkpt lat="44.72349" lon="5.03493">
        <ele>199.6</ele>
        <time>2015-10-18T14:23:48Z</time>
      </trkpt>
      <trkpt lat="44.72547" lon="5.03185">
        <ele>194.3</ele>
        <time>2015-10-18T14:24:10Z</time>
      </trkpt>
      <trkpt lat="44.72595" lon="5.03071">
        <ele>191.9</ele>
        <time>2015-10-18T14:24:19Z</time>
      </trkpt>
      <trkpt lat="44.72754" lon="5.02159">
        <ele>189</ele>
        <time>2015-10-18T14:26:39Z</time>
      </trkpt>
      <trkpt lat="44.72753" lon="5.02152">
        <ele>189.5</ele>
        <time>2015-10-18T14:26:40Z</time>
      </trkpt>
      <trkpt lat="44.72751" lon="5.02147">
        <ele>189.5</ele>
        <time>2015-10-18T14:26:41Z</time>
      </trkpt>
      <trkpt lat="44.72747" lon="5.02144">
        <ele>189.5</ele>
        <time>2015-10-18T14:26:42Z</time>
      </trkpt>
      <trkpt lat="44.72679" lon="5.02115">
        <ele>190</ele>
        <time>2015-10-18T14:26:51Z</time>
      </trkpt>
      <trkpt lat="44.72673" lon="5.0211">
        <ele>190</ele>
        <time>2015-10-18T14:26:52Z</time>
      </trkpt>
      <trkpt lat="44.72668" lon="5.02103">
        <ele>189.5</ele>
        <time>2015-10-18T14:26:53Z</time>
      </trkpt>
      <trkpt lat="44.72663" lon="5.02097">
        <ele>189.5</ele>
        <time>2015-10-18T14:26:54Z</time>
      </trkpt>
      <trkpt lat="44.7266" lon="5.0209">
        <ele>189.5</ele>
        <time>2015-10-18T14:26:55Z</time>
      </trkpt>
      <trkpt lat="44.72658" lon="5.02084">
        <ele>189.5</ele>
        <time>2015-10-18T14:26:56Z</time>
      </trkpt>
      <trkpt lat="44.72659" lon="5.02079">
        <ele>189</ele>
        <time>2015-10-18T14:26:57Z</time>
      </trkpt>
      <trkpt lat="44.72661" lon="5.02076">
        <ele>189</ele>
        <time>2015-10-18T14:26:58Z</time>
      </trkpt>
      <trkpt lat="44.72663" lon="5.02075">
        <ele>188.6</ele>
        <time>2015-10-18T14:26:59Z</time>
      </trkpt>
      <trkpt lat="44.72665" lon="5.02075">
        <ele>188.6</ele>
        <time>2015-10-18T14:27:00Z</time>
      </trkpt>
      <trkpt lat="44.72668" lon="5.02077">
        <ele>188.6</ele>
        <time>2015-10-18T14:27:01Z</time>
      </trkpt>
      <trkpt lat="44.7267" lon="5.02081">
        <ele>188.6</ele>
        <time>2015-10-18T14:27:02Z</time>
      </trkpt>
      <trkpt lat="44.72672" lon="5.02092">
        <ele>189</ele>
        <time>2015-10-18T14:27:04Z</time>
      </trkpt>
      <trkpt lat="44.72675" lon="5.02096">
        <ele>189</ele>
        <time>2015-10-18T14:27:05Z</time>
      </trkpt>
      <trkpt lat="44.72677" lon="5.02098">
        <ele>189</ele>
        <time>2015-10-18T14:27:06Z</time>
      </trkpt>
      <trkpt lat="44.72679" lon="5.02097">
        <ele>188.6</ele>
        <time>2015-10-18T14:27:07Z</time>
      </trkpt>
      <trkpt lat="44.72681" lon="5.02095">
        <ele>188.6</ele>
        <time>2015-10-18T14:27:08Z</time>
      </trkpt>
      <trkpt lat="44.72681" lon="5.02091">
        <ele>188.6</ele>
        <time>2015-10-18T14:27:09Z</time>
      </trkpt>
      <trkpt lat="44.72681" lon="5.02088">
        <ele>188.1</ele>
        <time>2015-10-18T14:27:10Z</time>
      </trkpt>
      <trkpt lat="44.7268" lon="5.0208">
        <ele>188.1</ele>
        <time>2015-10-18T14:27:13Z</time>
      </trkpt>
      <trkpt lat="44.72679" lon="5.02079">
        <ele>187.6</ele>
        <time>2015-10-18T14:27:14Z</time>
      </trkpt>
      <trkpt lat="44.72677" lon="5.02077">
        <ele>187.6</ele>
        <time>2015-10-18T14:27:15Z</time>
      </trkpt>
      <trkpt lat="44.72676" lon="5.02076">
        <ele>187.6</ele>
        <time>2015-10-18T14:27:16Z</time>
      </trkpt>
      <trkpt lat="44.72675" lon="5.02078">
        <ele>189.5</ele>
        <time>2015-10-18T14:27:36Z</time>
      </trkpt>
      <trkpt lat="44.72676" lon="5.02079">
        <ele>187.6</ele>
        <time>2015-10-18T14:27:57Z</time>
      </trkpt>
      <trkpt lat="44.72666" lon="5.02085">
        <ele>209.2</ele>
        <time>2015-10-18T14:53:22Z</time>
      </trkpt>
      <trkpt lat="44.72668" lon="5.02082">
        <ele>202.5</ele>
        <time>2015-10-18T15:00:31Z</time>
      </trkpt>
      <trkpt lat="44.72677" lon="5.02077">
        <ele>194.3</ele>
        <time>2015-10-18T15:01:20Z</time>
      </trkpt>
      <trkpt lat="44.72677" lon="5.02076">
        <ele>194.3</ele>
        <time>2015-10-18T15:01:21Z</time>
      </trkpt>
      <trkpt lat="44.7268" lon="5.02051">
        <ele>193.4</ele>
        <time>2015-10-18T15:01:30Z</time>
      </trkpt>
      <trkpt lat="44.72666" lon="5.02058">
        <ele>193.8</ele>
        <time>2015-10-18T15:01:39Z</time>
      </trkpt>
      <trkpt lat="44.72666" lon="5.02066">
        <ele>192.9</ele>
        <time>2015-10-18T15:01:57Z</time>
      </trkpt>
      <trkpt lat="44.72664" lon="5.02071">
        <ele>193.4</ele>
        <time>2015-10-18T15:01:59Z</time>
      </trkpt>
      <trkpt lat="44.72654" lon="5.02073">
        <ele>192.4</ele>
        <time>2015-10-18T15:02:05Z</time>
      </trkpt>
      <trkpt lat="44.72482" lon="5.01897">
        <ele>192.9</ele>
        <time>2015-10-18T15:02:34Z</time>
      </trkpt>
      <trkpt lat="44.72475" lon="5.01887">
        <ele>192.9</ele>
        <time>2015-10-18T15:02:35Z</time>
      </trkpt>
      <trkpt lat="44.7247" lon="5.01875">
        <ele>192.9</ele>
        <time>2015-10-18T15:02:36Z</time>
      </trkpt>
      <trkpt lat="44.72401" lon="5.01755">
        <ele>193.8</ele>
        <time>2015-10-18T15:02:46Z</time>
      </trkpt>
      <trkpt lat="44.72236" lon="5.01597">
        <ele>202</ele>
        <time>2015-10-18T15:03:56Z</time>
      </trkpt>
      <trkpt lat="44.72232" lon="5.01589">
        <ele>201.5</ele>
        <time>2015-10-18T15:03:57Z</time>
      </trkpt>
      <trkpt lat="44.72226" lon="5.0157">
        <ele>200.6</ele>
        <time>2015-10-18T15:03:59Z</time>
      </trkpt>
      <trkpt lat="44.72222" lon="5.01551">
        <ele>200.1</ele>
        <time>2015-10-18T15:04:01Z</time>
      </trkpt>
      <trkpt lat="44.72081" lon="4.99851">
        <ele>207.3</ele>
        <time>2015-10-18T15:05:24Z</time>
      </trkpt>
      <trkpt lat="44.72084" lon="4.99834">
        <ele>207.3</ele>
        <time>2015-10-18T15:05:25Z</time>
      </trkpt>
      <trkpt lat="44.72092" lon="4.99802">
        <ele>207.3</ele>
        <time>2015-10-18T15:05:27Z</time>
      </trkpt>
      <trkpt lat="44.72093" lon="4.99789">
        <ele>206.8</ele>
        <time>2015-10-18T15:05:28Z</time>
      </trkpt>
      <trkpt lat="44.72073" lon="4.99746">
        <ele>205.4</ele>
        <time>2015-10-18T15:05:31Z</time>
      </trkpt>
      <trkpt lat="44.72068" lon="4.99725">
        <ele>204.9</ele>
        <time>2015-10-18T15:05:32Z</time>
      </trkpt>
      <trkpt lat="44.72023" lon="4.99303">
        <ele>198.2</ele>
        <time>2015-10-18T15:05:46Z</time>
      </trkpt>
      <trkpt lat="44.72025" lon="4.99067">
        <ele>205.9</ele>
        <time>2015-10-18T15:05:53Z</time>
      </trkpt>
      <trkpt lat="44.72044" lon="4.99">
        <ele>207.3</ele>
        <time>2015-10-18T15:05:55Z</time>
      </trkpt>
      <trkpt lat="44.72237" lon="4.9855">
        <ele>202.5</ele>
        <time>2015-10-18T15:06:08Z</time>
      </trkpt>
      <trkpt lat="44.72252" lon="4.98474">
        <ele>201.1</ele>
        <time>2015-10-18T15:06:10Z</time>
      </trkpt>
      <trkpt lat="44.72385" lon="4.96928">
        <ele>191</ele>
        <time>2015-10-18T15:06:50Z</time>
      </trkpt>
      <trkpt lat="44.72348" lon="4.96336">
        <ele>184.7</ele>
        <time>2015-10-18T15:07:08Z</time>
      </trkpt>
      <trkpt lat="44.72461" lon="4.95079">
        <ele>178</ele>
        <time>2015-10-18T15:07:47Z</time>
      </trkpt>
      <trkpt lat="44.72553" lon="4.94794">
        <ele>179.9</ele>
        <time>2015-10-18T15:07:55Z</time>
      </trkpt>
      <trkpt lat="44.72791" lon="4.94317">
        <ele>178.9</ele>
        <time>2015-10-18T15:08:09Z</time>
      </trkpt>
      <trkpt lat="44.73007" lon="4.9351">
        <ele>172.2</ele>
        <time>2015-10-18T15:08:30Z</time>
      </trkpt>
      <trkpt lat="44.73494" lon="4.92459">
        <ele>167.4</ele>
        <time>2015-10-18T15:09:00Z</time>
      </trkpt>
      <trkpt lat="44.7356" lon="4.92139">
        <ele>161.2</ele>
        <time>2015-10-18T15:09:12Z</time>
      </trkpt>
      <trkpt lat="44.73573" lon="4.92115">
        <ele>160.7</ele>
        <time>2015-10-18T15:09:14Z</time>
      </trkpt>
      <trkpt lat="44.73575" lon="4.92105">
        <ele>160.7</ele>
        <time>2015-10-18T15:09:15Z</time>
      </trkpt>
      <trkpt lat="44.73572" lon="4.92095">
        <ele>159.7</ele>
        <time>2015-10-18T15:09:16Z</time>
      </trkpt>
      <trkpt lat="44.7356" lon="4.9207">
        <ele>159.2</ele>
        <time>2015-10-18T15:09:18Z</time>
      </trkpt>
      <trkpt lat="44.73556" lon="4.92053">
        <ele>158.8</ele>
        <time>2015-10-18T15:09:19Z</time>
      </trkpt>
      <trkpt lat="44.73558" lon="4.91974">
        <ele>157.3</ele>
        <time>2015-10-18T15:09:22Z</time>
      </trkpt>
      <trkpt lat="44.73579" lon="4.91789">
        <ele>152.5</ele>
        <time>2015-10-18T15:09:28Z</time>
      </trkpt>
      <trkpt lat="44.73604" lon="4.91726">
        <ele>152</ele>
        <time>2015-10-18T15:09:30Z</time>
      </trkpt>
      <trkpt lat="44.7382" lon="4.91413">
        <ele>154.9</ele>
        <time>2015-10-18T15:09:41Z</time>
      </trkpt>
      <trkpt lat="44.7384" lon="4.91339">
        <ele>155.9</ele>
        <time>2015-10-18T15:09:43Z</time>
      </trkpt>
      <trkpt lat="44.73849" lon="4.9126">
        <ele>155.9</ele>
        <time>2015-10-18T15:09:45Z</time>
      </trkpt>
      <trkpt lat="44.73863" lon="4.90922">
        <ele>157.8</ele>
        <time>2015-10-18T15:09:53Z</time>
      </trkpt>
      <trkpt lat="44.73879" lon="4.90838">
        <ele>158.3</ele>
        <time>2015-10-18T15:09:55Z</time>
      </trkpt>
      <trkpt lat="44.73892" lon="4.90796">
        <ele>158.8</ele>
        <time>2015-10-18T15:09:56Z</time>
      </trkpt>
      <trkpt lat="44.74064" lon="4.90418">
        <ele>154.9</ele>
        <time>2015-10-18T15:10:06Z</time>
      </trkpt>
      <trkpt lat="44.74252" lon="4.89505">
        <ele>150.6</ele>
        <time>2015-10-18T15:10:30Z</time>
      </trkpt>
      <trkpt lat="44.74278" lon="4.89446">
        <ele>150.6</ele>
        <time>2015-10-18T15:10:32Z</time>
      </trkpt>
      <trkpt lat="44.74378" lon="4.89281">
        <ele>148.2</ele>
        <time>2015-10-18T15:10:39Z</time>
      </trkpt>
      <trkpt lat="44.74465" lon="4.88966">
        <ele>147.7</ele>
        <time>2015-10-18T15:10:50Z</time>
      </trkpt>
      <trkpt lat="44.74491" lon="4.88913">
        <ele>148.7</ele>
        <time>2015-10-18T15:10:52Z</time>
      </trkpt>
      <trkpt lat="44.74509" lon="4.88892">
        <ele>148.7</ele>
        <time>2015-10-18T15:10:53Z</time>
      </trkpt>
      <trkpt lat="44.7481" lon="4.88652">
        <ele>145.8</ele>
        <time>2015-10-18T15:11:06Z</time>
      </trkpt>
      <trkpt lat="44.74852" lon="4.88607">
        <ele>145.8</ele>
        <time>2015-10-18T15:11:08Z</time>
      </trkpt>
      <trkpt lat="44.74888" lon="4.88549">
        <ele>146.7</ele>
        <time>2015-10-18T15:11:10Z</time>
      </trkpt>
      <trkpt lat="44.74902" lon="4.88515">
        <ele>147.7</ele>
        <time>2015-10-18T15:11:11Z</time>
      </trkpt>
      <trkpt lat="44.74921" lon="4.88441">
        <ele>149.1</ele>
        <time>2015-10-18T15:11:13Z</time>
      </trkpt>
      <trkpt lat="44.74926" lon="4.88402">
        <ele>150.6</ele>
        <time>2015-10-18T15:11:14Z</time>
      </trkpt>
      <trkpt lat="44.74891" lon="4.87998">
        <ele>158.8</ele>
        <time>2015-10-18T15:11:24Z</time>
      </trkpt>
      <trkpt lat="44.74894" lon="4.87957">
        <ele>159.2</ele>
        <time>2015-10-18T15:11:25Z</time>
      </trkpt>
      <trkpt lat="44.75058" lon="4.87217">
        <ele>159.2</ele>
        <time>2015-10-18T15:11:45Z</time>
      </trkpt>
      <trkpt lat="44.75146" lon="4.87023">
        <ele>159.2</ele>
        <time>2015-10-18T15:11:51Z</time>
      </trkpt>
      <trkpt lat="44.7556" lon="4.85721">
        <ele>141.9</ele>
        <time>2015-10-18T15:12:25Z</time>
      </trkpt>
      <trkpt lat="44.75674" lon="4.85201">
        <ele>136.6</ele>
        <time>2015-10-18T15:12:38Z</time>
      </trkpt>
      <trkpt lat="44.75694" lon="4.84857">
        <ele>134.2</ele>
        <time>2015-10-18T15:12:47Z</time>
      </trkpt>
      <trkpt lat="44.75701" lon="4.84826">
        <ele>134.7</ele>
        <time>2015-10-18T15:12:48Z</time>
      </trkpt>
      <trkpt lat="44.75711" lon="4.84797">
        <ele>135.2</ele>
        <time>2015-10-18T15:12:49Z</time>
      </trkpt>
      <trkpt lat="44.75725" lon="4.84769">
        <ele>135.2</ele>
        <time>2015-10-18T15:12:50Z</time>
      </trkpt>
      <trkpt lat="44.75741" lon="4.84743">
        <ele>134.7</ele>
        <time>2015-10-18T15:12:51Z</time>
      </trkpt>
      <trkpt lat="44.7576" lon="4.84719">
        <ele>134.7</ele>
        <time>2015-10-18T15:12:52Z</time>
      </trkpt>
      <trkpt lat="44.76195" lon="4.84385">
        <ele>124.6</ele>
        <time>2015-10-18T15:13:09Z</time>
      </trkpt>
      <trkpt lat="44.7621" lon="4.84364">
        <ele>124.2</ele>
        <time>2015-10-18T15:13:10Z</time>
      </trkpt>
      <trkpt lat="44.76222" lon="4.84339">
        <ele>123.7</ele>
        <time>2015-10-18T15:13:11Z</time>
      </trkpt>
      <trkpt lat="44.7623" lon="4.8431">
        <ele>123.2</ele>
        <time>2015-10-18T15:13:12Z</time>
      </trkpt>
      <trkpt lat="44.76237" lon="4.84247">
        <ele>122.2</ele>
        <time>2015-10-18T15:13:14Z</time>
      </trkpt>
      <trkpt lat="44.76238" lon="4.83994">
        <ele>119.8</ele>
        <time>2015-10-18T15:13:22Z</time>
      </trkpt>
      <trkpt lat="44.76233" lon="4.83969">
        <ele>119.3</ele>
        <time>2015-10-18T15:13:23Z</time>
      </trkpt>
      <trkpt lat="44.76227" lon="4.83947">
        <ele>119.3</ele>
        <time>2015-10-18T15:13:24Z</time>
      </trkpt>
      <trkpt lat="44.76193" lon="4.83876">
        <ele>118.9</ele>
        <time>2015-10-18T15:13:30Z</time>
      </trkpt>
      <trkpt lat="44.76192" lon="4.83868">
        <ele>119.3</ele>
        <time>2015-10-18T15:13:31Z</time>
      </trkpt>
      <trkpt lat="44.76193" lon="4.83859">
        <ele>119.8</ele>
        <time>2015-10-18T15:13:32Z</time>
      </trkpt>
      <trkpt lat="44.762" lon="4.83841">
        <ele>119.8</ele>
        <time>2015-10-18T15:13:34Z</time>
      </trkpt>
      <trkpt lat="44.76202" lon="4.8383">
        <ele>119.8</ele>
        <time>2015-10-18T15:13:35Z</time>
      </trkpt>
      <trkpt lat="44.76202" lon="4.83818">
        <ele>119.8</ele>
        <time>2015-10-18T15:13:36Z</time>
      </trkpt>
      <trkpt lat="44.76197" lon="4.83809">
        <ele>119.8</ele>
        <time>2015-10-18T15:13:37Z</time>
      </trkpt>
      <trkpt lat="44.76191" lon="4.83803">
        <ele>119.3</ele>
        <time>2015-10-18T15:13:38Z</time>
      </trkpt>
      <trkpt lat="44.76183" lon="4.838">
        <ele>119.3</ele>
        <time>2015-10-18T15:13:39Z</time>
      </trkpt>
      <trkpt lat="44.76174" lon="4.83802">
        <ele>119.8</ele>
        <time>2015-10-18T15:13:40Z</time>
      </trkpt>
      <trkpt lat="44.76166" lon="4.83806">
        <ele>119.8</ele>
        <time>2015-10-18T15:13:41Z</time>
      </trkpt>
      <trkpt lat="44.76159" lon="4.83813">
        <ele>119.8</ele>
        <time>2015-10-18T15:13:42Z</time>
      </trkpt>
      <trkpt lat="44.76155" lon="4.83822">
        <ele>119.8</ele>
        <time>2015-10-18T15:13:43Z</time>
      </trkpt>
      <trkpt lat="44.76154" lon="4.83833">
        <ele>119.8</ele>
        <time>2015-10-18T15:13:44Z</time>
      </trkpt>
      <trkpt lat="44.76157" lon="4.83848">
        <ele>119.8</ele>
        <time>2015-10-18T15:13:45Z</time>
      </trkpt>
      <trkpt lat="44.76164" lon="4.83861">
        <ele>119.8</ele>
        <time>2015-10-18T15:13:46Z</time>
      </trkpt>
      <trkpt lat="44.76174" lon="4.83867">
        <ele>119.8</ele>
        <time>2015-10-18T15:13:47Z</time>
      </trkpt>
      <trkpt lat="44.76182" lon="4.83867">
        <ele>120.3</ele>
        <time>2015-10-18T15:13:48Z</time>
      </trkpt>
      <trkpt lat="44.76192" lon="4.83863">
        <ele>119.8</ele>
        <time>2015-10-18T15:13:49Z</time>
      </trkpt>
      <trkpt lat="44.762" lon="4.83855">
        <ele>119.8</ele>
        <time>2015-10-18T15:13:50Z</time>
      </trkpt>
      <trkpt lat="44.76205" lon="4.83843">
        <ele>119.3</ele>
        <time>2015-10-18T15:13:51Z</time>
      </trkpt>
      <trkpt lat="44.76205" lon="4.8383">
        <ele>119.3</ele>
        <time>2015-10-18T15:13:52Z</time>
      </trkpt>
      <trkpt lat="44.76201" lon="4.83817">
        <ele>118.4</ele>
        <time>2015-10-18T15:13:53Z</time>
      </trkpt>
      <trkpt lat="44.76194" lon="4.83807">
        <ele>117.9</ele>
        <time>2015-10-18T15:13:54Z</time>
      </trkpt>
      <trkpt lat="44.76185" lon="4.83801">
        <ele>117.4</ele>
        <time>2015-10-18T15:13:55Z</time>
      </trkpt>
      <trkpt lat="44.76174" lon="4.83804">
        <ele>117.9</ele>
        <time>2015-10-18T15:13:56Z</time>
      </trkpt>
      <trkpt lat="44.76166" lon="4.83809">
        <ele>117.9</ele>
        <time>2015-10-18T15:13:57Z</time>
      </trkpt>
      <trkpt lat="44.7616" lon="4.83819">
        <ele>117.9</ele>
        <time>2015-10-18T15:13:58Z</time>
      </trkpt>
      <trkpt lat="44.76151" lon="4.83844">
        <ele>118.4</ele>
        <time>2015-10-18T15:14:00Z</time>
      </trkpt>
      <trkpt lat="44.76145" lon="4.83855">
        <ele>118.4</ele>
        <time>2015-10-18T15:14:01Z</time>
      </trkpt>
      <trkpt lat="44.76137" lon="4.8386">
        <ele>117.9</ele>
        <time>2015-10-18T15:14:02Z</time>
      </trkpt>
      <trkpt lat="44.76129" lon="4.83863">
        <ele>117.9</ele>
        <time>2015-10-18T15:14:03Z</time>
      </trkpt>
      <trkpt lat="44.76121" lon="4.83862">
        <ele>118.4</ele>
        <time>2015-10-18T15:14:04Z</time>
      </trkpt>
      <trkpt lat="44.76114" lon="4.83859">
        <ele>118.4</ele>
        <time>2015-10-18T15:14:05Z</time>
      </trkpt>
      <trkpt lat="44.76108" lon="4.83854">
        <ele>118.9</ele>
        <time>2015-10-18T15:14:06Z</time>
      </trkpt>
      <trkpt lat="44.76102" lon="4.83847">
        <ele>119.3</ele>
        <time>2015-10-18T15:14:07Z</time>
      </trkpt>
      <trkpt lat="44.76099" lon="4.8384">
        <ele>119.3</ele>
        <time>2015-10-18T15:14:08Z</time>
      </trkpt>
      <trkpt lat="44.76097" lon="4.83833">
        <ele>119.3</ele>
        <time>2015-10-18T15:14:09Z</time>
      </trkpt>
      <trkpt lat="44.76097" lon="4.83823">
        <ele>119.8</ele>
        <time>2015-10-18T15:14:11Z</time>
      </trkpt>
      <trkpt lat="44.7609" lon="4.83791">
        <ele>119.8</ele>
        <time>2015-10-18T15:14:15Z</time>
      </trkpt>
      <trkpt lat="44.76082" lon="4.83773">
        <ele>119.8</ele>
        <time>2015-10-18T15:14:17Z</time>
      </trkpt>
      <trkpt lat="44.76072" lon="4.83758">
        <ele>119.8</ele>
        <time>2015-10-18T15:14:19Z</time>
      </trkpt>
      <trkpt lat="44.76067" lon="4.83752">
        <ele>119.8</ele>
        <time>2015-10-18T15:14:20Z</time>
      </trkpt>
      <trkpt lat="44.76062" lon="4.8375">
        <ele>119.8</ele>
        <time>2015-10-18T15:14:21Z</time>
      </trkpt>
      <trkpt lat="44.76058" lon="4.83751">
        <ele>119.8</ele>
        <time>2015-10-18T15:14:22Z</time>
      </trkpt>
      <trkpt lat="44.76054" lon="4.83756">
        <ele>120.3</ele>
        <time>2015-10-18T15:14:23Z</time>
      </trkpt>
      <trkpt lat="44.76051" lon="4.83763">
        <ele>120.3</ele>
        <time>2015-10-18T15:14:24Z</time>
      </trkpt>
      <trkpt lat="44.76048" lon="4.8378">
        <ele>120.3</ele>
        <time>2015-10-18T15:14:26Z</time>
      </trkpt>
      <trkpt lat="44.76047" lon="4.83799">
        <ele>119.8</ele>
        <time>2015-10-18T15:14:29Z</time>
      </trkpt>
      <trkpt lat="44.76048" lon="4.83805">
        <ele>119.8</ele>
        <time>2015-10-18T15:14:30Z</time>
      </trkpt>
      <trkpt lat="44.76053" lon="4.83819">
        <ele>119.8</ele>
        <time>2015-10-18T15:14:33Z</time>
      </trkpt>
      <trkpt lat="44.76055" lon="4.83821">
        <ele>119.8</ele>
        <time>2015-10-18T15:14:34Z</time>
      </trkpt>
      <trkpt lat="44.76062" lon="4.83822">
        <ele>120.8</ele>
        <time>2015-10-18T15:14:54Z</time>
      </trkpt>
      <trkpt lat="44.76058" lon="4.83826">
        <ele>126.1</ele>
        <time>2015-10-18T15:17:23Z</time>
      </trkpt>
      <trkpt lat="44.76059" lon="4.83829">
        <ele>119.3</ele>
        <time>2015-10-18T15:18:00Z</time>
      </trkpt>
      <trkpt lat="44.76056" lon="4.83838">
        <ele>113.6</ele>
        <time>2015-10-18T15:19:13Z</time>
      </trkpt>
      <trkpt lat="44.76062" lon="4.83836">
        <ele>124.2</ele>
        <time>2015-10-18T15:19:31Z</time>
      </trkpt>
      <trkpt lat="44.76063" lon="4.83823">
        <ele>129.9</ele>
        <time>2015-10-18T15:21:31Z</time>
      </trkpt>
      <trkpt lat="44.7607" lon="4.8382">
        <ele>126.6</ele>
        <time>2015-10-18T15:26:26Z</time>
      </trkpt>
      <trkpt lat="44.76071" lon="4.83821">
        <ele>128</ele>
        <time>2015-10-18T15:26:45Z</time>
      </trkpt>
      <trkpt lat="44.76081" lon="4.8382">
        <ele>126.1</ele>
        <time>2015-10-18T15:26:51Z</time>
      </trkpt>
      <trkpt lat="44.76093" lon="4.83814">
        <ele>125.1</ele>
        <time>2015-10-18T15:26:55Z</time>
      </trkpt>
      <trkpt lat="44.76099" lon="4.83823">
        <ele>123.7</ele>
        <time>2015-10-18T15:26:58Z</time>
      </trkpt>
      <trkpt lat="44.76099" lon="4.83829">
        <ele>123.2</ele>
        <time>2015-10-18T15:26:59Z</time>
      </trkpt>
      <trkpt lat="44.76097" lon="4.83836">
        <ele>122.7</ele>
        <time>2015-10-18T15:27:00Z</time>
      </trkpt>
      <trkpt lat="44.76092" lon="4.8385">
        <ele>122.2</ele>
        <time>2015-10-18T15:27:02Z</time>
      </trkpt>
      <trkpt lat="44.76091" lon="4.83857">
        <ele>122.2</ele>
        <time>2015-10-18T15:27:03Z</time>
      </trkpt>
      <trkpt lat="44.76092" lon="4.83863">
        <ele>121.7</ele>
        <time>2015-10-18T15:27:04Z</time>
      </trkpt>
      <trkpt lat="44.76096" lon="4.83867">
        <ele>121.7</ele>
        <time>2015-10-18T15:27:05Z</time>
      </trkpt>
      <trkpt lat="44.76102" lon="4.83869">
        <ele>121.3</ele>
        <time>2015-10-18T15:27:06Z</time>
      </trkpt>
      <trkpt lat="44.76122" lon="4.83865">
        <ele>121.3</ele>
        <time>2015-10-18T15:27:09Z</time>
      </trkpt>
      <trkpt lat="44.76185" lon="4.83866">
        <ele>121.7</ele>
        <time>2015-10-18T15:27:18Z</time>
      </trkpt>
      <trkpt lat="44.76193" lon="4.83863">
        <ele>121.7</ele>
        <time>2015-10-18T15:27:19Z</time>
      </trkpt>
      <trkpt lat="44.762" lon="4.83856">
        <ele>121.3</ele>
        <time>2015-10-18T15:27:20Z</time>
      </trkpt>
      <trkpt lat="44.76204" lon="4.83847">
        <ele>121.3</ele>
        <time>2015-10-18T15:27:21Z</time>
      </trkpt>
      <trkpt lat="44.76206" lon="4.83836">
        <ele>120.8</ele>
        <time>2015-10-18T15:27:22Z</time>
      </trkpt>
      <trkpt lat="44.76205" lon="4.83824">
        <ele>120.8</ele>
        <time>2015-10-18T15:27:23Z</time>
      </trkpt>
      <trkpt lat="44.76201" lon="4.83813">
        <ele>120.3</ele>
        <time>2015-10-18T15:27:24Z</time>
      </trkpt>
      <trkpt lat="44.76195" lon="4.83805">
        <ele>120.3</ele>
        <time>2015-10-18T15:27:25Z</time>
      </trkpt>
      <trkpt lat="44.76187" lon="4.838">
        <ele>120.3</ele>
        <time>2015-10-18T15:27:26Z</time>
      </trkpt>
      <trkpt lat="44.76168" lon="4.83797">
        <ele>120.3</ele>
        <time>2015-10-18T15:27:28Z</time>
      </trkpt>
      <trkpt lat="44.76157" lon="4.83793">
        <ele>120.8</ele>
        <time>2015-10-18T15:27:29Z</time>
      </trkpt>
      <trkpt lat="44.76146" lon="4.83785">
        <ele>120.8</ele>
        <time>2015-10-18T15:27:30Z</time>
      </trkpt>
      <trkpt lat="44.76136" lon="4.83774">
        <ele>120.8</ele>
        <time>2015-10-18T15:27:31Z</time>
      </trkpt>
      <trkpt lat="44.76115" lon="4.83747">
        <ele>121.7</ele>
        <time>2015-10-18T15:27:33Z</time>
      </trkpt>
      <trkpt lat="44.7555" lon="4.82754">
        <ele>116.5</ele>
        <time>2015-10-18T15:28:56Z</time>
      </trkpt>
      <trkpt lat="44.75547" lon="4.82745">
        <ele>116.5</ele>
        <time>2015-10-18T15:28:57Z</time>
      </trkpt>
      <trkpt lat="44.75544" lon="4.82735">
        <ele>116</ele>
        <time>2015-10-18T15:28:58Z</time>
      </trkpt>
      <trkpt lat="44.75544" lon="4.82724">
        <ele>116</ele>
        <time>2015-10-18T15:28:59Z</time>
      </trkpt>
      <trkpt lat="44.75545" lon="4.82712">
        <ele>115.5</ele>
        <time>2015-10-18T15:29:00Z</time>
      </trkpt>
      <trkpt lat="44.75548" lon="4.827">
        <ele>115</ele>
        <time>2015-10-18T15:29:01Z</time>
      </trkpt>
      <trkpt lat="44.75613" lon="4.82525">
        <ele>113.1</ele>
        <time>2015-10-18T15:29:12Z</time>
      </trkpt>
      <trkpt lat="44.75668" lon="4.82305">
        <ele>112.6</ele>
        <time>2015-10-18T15:29:24Z</time>
      </trkpt>
      <trkpt lat="44.75676" lon="4.82162">
        <ele>110.2</ele>
        <time>2015-10-18T15:29:31Z</time>
      </trkpt>
      <trkpt lat="44.75669" lon="4.8212">
        <ele>109.3</ele>
        <time>2015-10-18T15:29:33Z</time>
      </trkpt>
      <trkpt lat="44.75655" lon="4.82082">
        <ele>108.8</ele>
        <time>2015-10-18T15:29:35Z</time>
      </trkpt>
      <trkpt lat="44.75637" lon="4.82051">
        <ele>108.8</ele>
        <time>2015-10-18T15:29:37Z</time>
      </trkpt>
      <trkpt lat="44.75615" lon="4.82025">
        <ele>108.8</ele>
        <time>2015-10-18T15:29:39Z</time>
      </trkpt>
      <trkpt lat="44.75603" lon="4.82015">
        <ele>108.8</ele>
        <time>2015-10-18T15:29:40Z</time>
      </trkpt>
      <trkpt lat="44.7558" lon="4.81999">
        <ele>108.8</ele>
        <time>2015-10-18T15:29:42Z</time>
      </trkpt>
      <trkpt lat="44.75493" lon="4.81919">
        <ele>108.8</ele>
        <time>2015-10-18T15:29:51Z</time>
      </trkpt>
      <trkpt lat="44.75408" lon="4.81814">
        <ele>108.8</ele>
        <time>2015-10-18T15:30:04Z</time>
      </trkpt>
      <trkpt lat="44.75401" lon="4.81807">
        <ele>108.8</ele>
        <time>2015-10-18T15:30:11Z</time>
      </trkpt>
      <trkpt lat="44.75385" lon="4.81799">
        <ele>108.3</ele>
        <time>2015-10-18T15:30:41Z</time>
      </trkpt>
      <trkpt lat="44.75361" lon="4.81781">
        <ele>108.3</ele>
        <time>2015-10-18T15:30:46Z</time>
      </trkpt>
      <trkpt lat="44.75356" lon="4.81775">
        <ele>108.3</ele>
        <time>2015-10-18T15:30:47Z</time>
      </trkpt>
      <trkpt lat="44.75352" lon="4.81767">
        <ele>108.3</ele>
        <time>2015-10-18T15:30:48Z</time>
      </trkpt>
      <trkpt lat="44.7535" lon="4.81759">
        <ele>108.3</ele>
        <time>2015-10-18T15:30:49Z</time>
      </trkpt>
      <trkpt lat="44.75348" lon="4.8175">
        <ele>108.3</ele>
        <time>2015-10-18T15:30:50Z</time>
      </trkpt>
      <trkpt lat="44.75349" lon="4.8174">
        <ele>108.3</ele>
        <time>2015-10-18T15:30:51Z</time>
      </trkpt>
      <trkpt lat="44.7535" lon="4.8173">
        <ele>107.8</ele>
        <time>2015-10-18T15:30:52Z</time>
      </trkpt>
      <trkpt lat="44.75462" lon="4.81291">
        <ele>106.8</ele>
        <time>2015-10-18T15:31:16Z</time>
      </trkpt>
      <trkpt lat="44.7551" lon="4.7995">
        <ele>103</ele>
        <time>2015-10-18T15:32:03Z</time>
      </trkpt>
      <trkpt lat="44.75513" lon="4.79935">
        <ele>103</ele>
        <time>2015-10-18T15:32:04Z</time>
      </trkpt>
      <trkpt lat="44.75528" lon="4.799">
        <ele>103</ele>
        <time>2015-10-18T15:32:07Z</time>
      </trkpt>
      <trkpt lat="44.7553" lon="4.79889">
        <ele>103</ele>
        <time>2015-10-18T15:32:08Z</time>
      </trkpt>
      <trkpt lat="44.75529" lon="4.79877">
        <ele>103</ele>
        <time>2015-10-18T15:32:09Z</time>
      </trkpt>
      <trkpt lat="44.75516" lon="4.79839">
        <ele>103</ele>
        <time>2015-10-18T15:32:12Z</time>
      </trkpt>
      <trkpt lat="44.75514" lon="4.79802">
        <ele>102.5</ele>
        <time>2015-10-18T15:32:14Z</time>
      </trkpt>
      <trkpt lat="44.75535" lon="4.7908">
        <ele>102.5</ele>
        <time>2015-10-18T15:32:47Z</time>
      </trkpt>
      <trkpt lat="44.75538" lon="4.79068">
        <ele>102</ele>
        <time>2015-10-18T15:32:48Z</time>
      </trkpt>
      <trkpt lat="44.75541" lon="4.7906">
        <ele>101.6</ele>
        <time>2015-10-18T15:32:49Z</time>
      </trkpt>
      <trkpt lat="44.75547" lon="4.79048">
        <ele>100.6</ele>
        <time>2015-10-18T15:32:55Z</time>
      </trkpt>
      <trkpt lat="44.75557" lon="4.79044">
        <ele>100.1</ele>
        <time>2015-10-18T15:33:17Z</time>
      </trkpt>
      <trkpt lat="44.75565" lon="4.79046">
        <ele>100.1</ele>
        <time>2015-10-18T15:33:18Z</time>
      </trkpt>
      <trkpt lat="44.75573" lon="4.7905">
        <ele>99.6</ele>
        <time>2015-10-18T15:33:19Z</time>
      </trkpt>
      <trkpt lat="44.75581" lon="4.79055">
        <ele>99.6</ele>
        <time>2015-10-18T15:33:20Z</time>
      </trkpt>
      <trkpt lat="44.75667" lon="4.79131">
        <ele>99.2</ele>
        <time>2015-10-18T15:33:39Z</time>
      </trkpt>
      <trkpt lat="44.75669" lon="4.79134">
        <ele>99.2</ele>
        <time>2015-10-18T15:34:04Z</time>
      </trkpt>
      <trkpt lat="44.75677" lon="4.79139">
        <ele>99.6</ele>
        <time>2015-10-18T15:34:12Z</time>
      </trkpt>
      <trkpt lat="44.75717" lon="4.7917">
        <ele>98.7</ele>
        <time>2015-10-18T15:34:30Z</time>
      </trkpt>
      <trkpt lat="44.75727" lon="4.79181">
        <ele>98.7</ele>
        <time>2015-10-18T15:34:32Z</time>
      </trkpt>
      <trkpt lat="44.75732" lon="4.79184">
        <ele>98.7</ele>
        <time>2015-10-18T15:34:33Z</time>
      </trkpt>
      <trkpt lat="44.75735" lon="4.79186">
        <ele>98.7</ele>
        <time>2015-10-18T15:34:34Z</time>
      </trkpt>
      <trkpt lat="44.75738" lon="4.79186">
        <ele>98.7</ele>
        <time>2015-10-18T15:34:35Z</time>
      </trkpt>
      <trkpt lat="44.75748" lon="4.79184">
        <ele>101.1</ele>
        <time>2015-10-18T15:36:14Z</time>
      </trkpt>
      <trkpt lat="44.75754" lon="4.79188">
        <ele>100.6</ele>
        <time>2015-10-18T15:36:15Z</time>
      </trkpt>
      <trkpt lat="44.75772" lon="4.79203">
        <ele>99.6</ele>
        <time>2015-10-18T15:36:17Z</time>
      </trkpt>
      <trkpt lat="44.75781" lon="4.79213">
        <ele>99.2</ele>
        <time>2015-10-18T15:36:18Z</time>
      </trkpt>
      <trkpt lat="44.7579" lon="4.79226">
        <ele>99.2</ele>
        <time>2015-10-18T15:36:19Z</time>
      </trkpt>
      <trkpt lat="44.75797" lon="4.79242">
        <ele>99.6</ele>
        <time>2015-10-18T15:36:20Z</time>
      </trkpt>
      <trkpt lat="44.75802" lon="4.79266">
        <ele>99.2</ele>
        <time>2015-10-18T15:36:21Z</time>
      </trkpt>
      <trkpt lat="44.75803" lon="4.79287">
        <ele>99.2</ele>
        <time>2015-10-18T15:36:22Z</time>
      </trkpt>
      <trkpt lat="44.75801" lon="4.79309">
        <ele>99.2</ele>
        <time>2015-10-18T15:36:23Z</time>
      </trkpt>
      <trkpt lat="44.75794" lon="4.79329">
        <ele>98.7</ele>
        <time>2015-10-18T15:36:24Z</time>
      </trkpt>
      <trkpt lat="44.75784" lon="4.79347">
        <ele>98.7</ele>
        <time>2015-10-18T15:36:25Z</time>
      </trkpt>
      <trkpt lat="44.75769" lon="4.79358">
        <ele>98.7</ele>
        <time>2015-10-18T15:36:26Z</time>
      </trkpt>
      <trkpt lat="44.75752" lon="4.79365">
        <ele>98.7</ele>
        <time>2015-10-18T15:36:27Z</time>
      </trkpt>
      <trkpt lat="44.75734" lon="4.79365">
        <ele>98.7</ele>
        <time>2015-10-18T15:36:28Z</time>
      </trkpt>
      <trkpt lat="44.75715" lon="4.79361">
        <ele>99.2</ele>
        <time>2015-10-18T15:36:29Z</time>
      </trkpt>
      <trkpt lat="44.75695" lon="4.79353">
        <ele>99.2</ele>
        <time>2015-10-18T15:36:30Z</time>
      </trkpt>
      <trkpt lat="44.75075" lon="4.79035">
        <ele>99.6</ele>
        <time>2015-10-18T15:36:56Z</time>
      </trkpt>
      <trkpt lat="44.74808" lon="4.78941">
        <ele>100.1</ele>
        <time>2015-10-18T15:37:08Z</time>
      </trkpt>
      <trkpt lat="44.74545" lon="4.78895">
        <ele>102.5</ele>
        <time>2015-10-18T15:37:20Z</time>
      </trkpt>
      <trkpt lat="44.74231" lon="4.78894">
        <ele>107.3</ele>
        <time>2015-10-18T15:37:34Z</time>
      </trkpt>
      <trkpt lat="44.73796" lon="4.78949">
        <ele>110.2</ele>
        <time>2015-10-18T15:37:49Z</time>
      </trkpt>
      <trkpt lat="44.73476" lon="4.78953">
        <ele>108.8</ele>
        <time>2015-10-18T15:37:59Z</time>
      </trkpt>
      <trkpt lat="44.73166" lon="4.78896">
        <ele>106.8</ele>
        <time>2015-10-18T15:38:09Z</time>
      </trkpt>
      <trkpt lat="44.72467" lon="4.78643">
        <ele>104</ele>
        <time>2015-10-18T15:38:32Z</time>
      </trkpt>
      <trkpt lat="44.71665" lon="4.78525">
        <ele>97.2</ele>
        <time>2015-10-18T15:38:57Z</time>
      </trkpt>
      <trkpt lat="44.71226" lon="4.78509">
        <ele>92.9</ele>
        <time>2015-10-18T15:39:10Z</time>
      </trkpt>
      <trkpt lat="44.70818" lon="4.78547">
        <ele>91.9</ele>
        <time>2015-10-18T15:39:23Z</time>
      </trkpt>
      <trkpt lat="44.69576" lon="4.78868">
        <ele>95.3</ele>
        <time>2015-10-18T15:40:01Z</time>
      </trkpt>
      <trkpt lat="44.69222" lon="4.79035">
        <ele>93.4</ele>
        <time>2015-10-18T15:40:12Z</time>
      </trkpt>
      <trkpt lat="44.68465" lon="4.7955">
        <ele>89.5</ele>
        <time>2015-10-18T15:40:37Z</time>
      </trkpt>
      <trkpt lat="44.68149" lon="4.79699">
        <ele>90</ele>
        <time>2015-10-18T15:40:47Z</time>
      </trkpt>
      <trkpt lat="44.67847" lon="4.79767">
        <ele>90.5</ele>
        <time>2015-10-18T15:40:56Z</time>
      </trkpt>
      <trkpt lat="44.67552" lon="4.79771">
        <ele>91</ele>
        <time>2015-10-18T15:41:05Z</time>
      </trkpt>
      <trkpt lat="44.65791" lon="4.79575">
        <ele>116.9</ele>
        <time>2015-10-18T15:42:00Z</time>
      </trkpt>
      <trkpt lat="44.64696" lon="4.79258">
        <ele>131.4</ele>
        <time>2015-10-18T15:42:38Z</time>
      </trkpt>
      <trkpt lat="44.64358" lon="4.79192">
        <ele>129.4</ele>
        <time>2015-10-18T15:42:49Z</time>
      </trkpt>
      <trkpt lat="44.64005" lon="4.79169">
        <ele>127.5</ele>
        <time>2015-10-18T15:43:00Z</time>
      </trkpt>
      <trkpt lat="44.60741" lon="4.79344">
        <ele>138.1</ele>
        <time>2015-10-18T15:44:39Z</time>
      </trkpt>
      <trkpt lat="44.60328" lon="4.79436">
        <ele>129.9</ele>
        <time>2015-10-18T15:44:52Z</time>
      </trkpt>
      <trkpt lat="44.59907" lon="4.79583">
        <ele>124.2</ele>
        <time>2015-10-18T15:45:05Z</time>
      </trkpt>
      <trkpt lat="44.57538" lon="4.80741">
        <ele>111.7</ele>
        <time>2015-10-18T15:46:19Z</time>
      </trkpt>
      <trkpt lat="44.57054" lon="4.80922">
        <ele>114.5</ele>
        <time>2015-10-18T15:46:34Z</time>
      </trkpt>
      <trkpt lat="44.56186" lon="4.81101">
        <ele>125.6</ele>
        <time>2015-10-18T15:47:00Z</time>
      </trkpt>
      <trkpt lat="44.55687" lon="4.81126">
        <ele>132.3</ele>
        <time>2015-10-18T15:47:15Z</time>
      </trkpt>
      <trkpt lat="44.55327" lon="4.81081">
        <ele>133.3</ele>
        <time>2015-10-18T15:47:26Z</time>
      </trkpt>
      <trkpt lat="44.54532" lon="4.80804">
        <ele>124.2</ele>
        <time>2015-10-18T15:47:51Z</time>
      </trkpt>
      <trkpt lat="44.53538" lon="4.80349">
        <ele>139.1</ele>
        <time>2015-10-18T15:48:24Z</time>
      </trkpt>
      <trkpt lat="44.53175" lon="4.80131">
        <ele>149.6</ele>
        <time>2015-10-18T15:48:37Z</time>
      </trkpt>
      <trkpt lat="44.5286" lon="4.79896">
        <ele>157.8</ele>
        <time>2015-10-18T15:48:49Z</time>
      </trkpt>
      <trkpt lat="44.52503" lon="4.79563">
        <ele>161.2</ele>
        <time>2015-10-18T15:49:03Z</time>
      </trkpt>
      <trkpt lat="44.51994" lon="4.78946">
        <ele>161.2</ele>
        <time>2015-10-18T15:49:23Z</time>
      </trkpt>
      <trkpt lat="44.51321" lon="4.77873">
        <ele>157.3</ele>
        <time>2015-10-18T15:49:54Z</time>
      </trkpt>
      <trkpt lat="44.51047" lon="4.77528">
        <ele>154.4</ele>
        <time>2015-10-18T15:50:05Z</time>
      </trkpt>
      <trkpt lat="44.50741" lon="4.77237">
        <ele>151.1</ele>
        <time>2015-10-18T15:50:16Z</time>
      </trkpt>
      <trkpt lat="44.50436" lon="4.77023">
        <ele>147.7</ele>
        <time>2015-10-18T15:50:26Z</time>
      </trkpt>
      <trkpt lat="44.50109" lon="4.76864">
        <ele>143.9</ele>
        <time>2015-10-18T15:50:36Z</time>
      </trkpt>
      <trkpt lat="44.4974" lon="4.76758">
        <ele>139.1</ele>
        <time>2015-10-18T15:50:47Z</time>
      </trkpt>
      <trkpt lat="44.47288" lon="4.76598">
        <ele>143.4</ele>
        <time>2015-10-18T15:52:01Z</time>
      </trkpt>
      <trkpt lat="44.46989" lon="4.76493">
        <ele>145.8</ele>
        <time>2015-10-18T15:52:11Z</time>
      </trkpt>
      <trkpt lat="44.45675" lon="4.7572">
        <ele>142.4</ele>
        <time>2015-10-18T15:52:55Z</time>
      </trkpt>
      <trkpt lat="44.44078" lon="4.75128">
        <ele>127.5</ele>
        <time>2015-10-18T15:53:46Z</time>
      </trkpt>
      <trkpt lat="44.43758" lon="4.74926">
        <ele>124.6</ele>
        <time>2015-10-18T15:53:57Z</time>
      </trkpt>
      <trkpt lat="44.42381" lon="4.73601">
        <ele>85.2</ele>
        <time>2015-10-18T15:54:48Z</time>
      </trkpt>
      <trkpt lat="44.41997" lon="4.73355">
        <ele>79</ele>
        <time>2015-10-18T15:55:01Z</time>
      </trkpt>
      <trkpt lat="44.41602" lon="4.73168">
        <ele>77</ele>
        <time>2015-10-18T15:55:14Z</time>
      </trkpt>
      <trkpt lat="44.41167" lon="4.73021">
        <ele>75.1</ele>
        <time>2015-10-18T15:55:28Z</time>
      </trkpt>
      <trkpt lat="44.4072" lon="4.72929">
        <ele>73.2</ele>
        <time>2015-10-18T15:55:42Z</time>
      </trkpt>
      <trkpt lat="44.40264" lon="4.72895">
        <ele>71.3</ele>
        <time>2015-10-18T15:55:56Z</time>
      </trkpt>
      <trkpt lat="44.37423" lon="4.7328">
        <ele>65</ele>
        <time>2015-10-18T15:57:27Z</time>
      </trkpt>
      <trkpt lat="44.35963" lon="4.73677">
        <ele>65.5</ele>
        <time>2015-10-18T15:58:15Z</time>
      </trkpt>
      <trkpt lat="44.32447" lon="4.73953">
        <ele>59.7</ele>
        <time>2015-10-18T16:00:07Z</time>
      </trkpt>
      <trkpt lat="44.32042" lon="4.74045">
        <ele>60.2</ele>
        <time>2015-10-18T16:00:20Z</time>
      </trkpt>
      <trkpt lat="44.30889" lon="4.74644">
        <ele>63.1</ele>
        <time>2015-10-18T16:01:00Z</time>
      </trkpt>
      <trkpt lat="44.30615" lon="4.74696">
        <ele>64.6</ele>
        <time>2015-10-18T16:01:09Z</time>
      </trkpt>
      <trkpt lat="44.29625" lon="4.74636">
        <ele>66</ele>
        <time>2015-10-18T16:01:42Z</time>
      </trkpt>
      <trkpt lat="44.29357" lon="4.74556">
        <ele>63.1</ele>
        <time>2015-10-18T16:01:51Z</time>
      </trkpt>
      <trkpt lat="44.29105" lon="4.74408">
        <ele>59.7</ele>
        <time>2015-10-18T16:02:00Z</time>
      </trkpt>
      <trkpt lat="44.27821" lon="4.73144">
        <ele>55.9</ele>
        <time>2015-10-18T16:02:55Z</time>
      </trkpt>
      <trkpt lat="44.24778" lon="4.7091">
        <ele>51.1</ele>
        <time>2015-10-18T16:04:53Z</time>
      </trkpt>
      <trkpt lat="44.24537" lon="4.70815">
        <ele>48.7</ele>
        <time>2015-10-18T16:05:02Z</time>
      </trkpt>
      <trkpt lat="44.23752" lon="4.70682">
        <ele>45.8</ele>
        <time>2015-10-18T16:05:29Z</time>
      </trkpt>
      <trkpt lat="44.23488" lon="4.70711">
        <ele>46.8</ele>
        <time>2015-10-18T16:05:38Z</time>
      </trkpt>
      <trkpt lat="44.23228" lon="4.70811">
        <ele>47.7</ele>
        <time>2015-10-18T16:05:47Z</time>
      </trkpt>
      <trkpt lat="44.22774" lon="4.71058">
        <ele>46.8</ele>
        <time>2015-10-18T16:06:03Z</time>
      </trkpt>
      <trkpt lat="44.2244" lon="4.71291">
        <ele>44.8</ele>
        <time>2015-10-18T16:06:15Z</time>
      </trkpt>
      <trkpt lat="44.21531" lon="4.72217">
        <ele>43.4</ele>
        <time>2015-10-18T16:06:53Z</time>
      </trkpt>
      <trkpt lat="44.2127" lon="4.7236">
        <ele>43.4</ele>
        <time>2015-10-18T16:07:02Z</time>
      </trkpt>
      <trkpt lat="44.21025" lon="4.72419">
        <ele>43.4</ele>
        <time>2015-10-18T16:07:10Z</time>
      </trkpt>
      <trkpt lat="44.20438" lon="4.72443">
        <ele>44.4</ele>
        <time>2015-10-18T16:07:29Z</time>
      </trkpt>
      <trkpt lat="44.20209" lon="4.72541">
        <ele>42.9</ele>
        <time>2015-10-18T16:07:37Z</time>
      </trkpt>
      <trkpt lat="44.19998" lon="4.7271">
        <ele>41.5</ele>
        <time>2015-10-18T16:07:45Z</time>
      </trkpt>
      <trkpt lat="44.1982" lon="4.72933">
        <ele>42</ele>
        <time>2015-10-18T16:07:53Z</time>
      </trkpt>
      <trkpt lat="44.19123" lon="4.74232">
        <ele>39.6</ele>
        <time>2015-10-18T16:08:32Z</time>
      </trkpt>
      <trkpt lat="44.18833" lon="4.74627">
        <ele>40</ele>
        <time>2015-10-18T16:08:46Z</time>
      </trkpt>
      <trkpt lat="44.18526" lon="4.74961">
        <ele>40</ele>
        <time>2015-10-18T16:08:59Z</time>
      </trkpt>
      <trkpt lat="44.15827" lon="4.76974">
        <ele>45.3</ele>
        <time>2015-10-18T16:10:47Z</time>
      </trkpt>
      <trkpt lat="44.14442" lon="4.7765">
        <ele>46.8</ele>
        <time>2015-10-18T16:11:43Z</time>
      </trkpt>
      <trkpt lat="44.13732" lon="4.78155">
        <ele>43.9</ele>
        <time>2015-10-18T16:12:13Z</time>
      </trkpt>
      <trkpt lat="44.132" lon="4.78777">
        <ele>41</ele>
        <time>2015-10-18T16:12:39Z</time>
      </trkpt>
      <trkpt lat="44.13035" lon="4.78904">
        <ele>40</ele>
        <time>2015-10-18T16:12:46Z</time>
      </trkpt>
      <trkpt lat="44.1283" lon="4.78983">
        <ele>39.6</ele>
        <time>2015-10-18T16:12:54Z</time>
      </trkpt>
      <trkpt lat="44.12552" lon="4.79016">
        <ele>43.4</ele>
        <time>2015-10-18T16:13:04Z</time>
      </trkpt>
      <trkpt lat="44.12266" lon="4.78988">
        <ele>42</ele>
        <time>2015-10-18T16:13:14Z</time>
      </trkpt>
      <trkpt lat="44.11672" lon="4.78763">
        <ele>37.2</ele>
        <time>2015-10-18T16:13:36Z</time>
      </trkpt>
      <trkpt lat="44.11441" lon="4.7874">
        <ele>36.7</ele>
        <time>2015-10-18T16:13:44Z</time>
      </trkpt>
      <trkpt lat="44.11214" lon="4.78786">
        <ele>36.2</ele>
        <time>2015-10-18T16:13:52Z</time>
      </trkpt>
      <trkpt lat="44.11002" lon="4.78864">
        <ele>36.7</ele>
        <time>2015-10-18T16:14:00Z</time>
      </trkpt>
      <trkpt lat="44.10696" lon="4.78938">
        <ele>36.7</ele>
        <time>2015-10-18T16:14:11Z</time>
      </trkpt>
      <trkpt lat="44.10408" lon="4.7894">
        <ele>37.2</ele>
        <time>2015-10-18T16:14:21Z</time>
      </trkpt>
      <trkpt lat="44.09984" lon="4.78876">
        <ele>36.7</ele>
        <time>2015-10-18T16:14:36Z</time>
      </trkpt>
      <trkpt lat="44.09624" lon="4.78769">
        <ele>36.7</ele>
        <time>2015-10-18T16:14:49Z</time>
      </trkpt>
      <trkpt lat="44.09335" lon="4.78606">
        <ele>36.7</ele>
        <time>2015-10-18T16:15:00Z</time>
      </trkpt>
      <trkpt lat="44.09076" lon="4.7838">
        <ele>36.2</ele>
        <time>2015-10-18T16:15:11Z</time>
      </trkpt>
      <trkpt lat="44.08185" lon="4.77363">
        <ele>36.2</ele>
        <time>2015-10-18T16:15:52Z</time>
      </trkpt>
      <trkpt lat="44.07868" lon="4.77128">
        <ele>35.7</ele>
        <time>2015-10-18T16:16:05Z</time>
      </trkpt>
      <trkpt lat="44.06912" lon="4.76624">
        <ele>39.1</ele>
        <time>2015-10-18T16:16:43Z</time>
      </trkpt>
      <trkpt lat="44.06676" lon="4.76532">
        <ele>36.2</ele>
        <time>2015-10-18T16:16:52Z</time>
      </trkpt>
      <trkpt lat="44.06459" lon="4.76517">
        <ele>34.3</ele>
        <time>2015-10-18T16:17:00Z</time>
      </trkpt>
      <trkpt lat="44.06241" lon="4.76569">
        <ele>33.8</ele>
        <time>2015-10-18T16:17:08Z</time>
      </trkpt>
      <trkpt lat="44.05932" lon="4.7672">
        <ele>33.8</ele>
        <time>2015-10-18T16:17:20Z</time>
      </trkpt>
      <trkpt lat="44.05716" lon="4.76774">
        <ele>38.1</ele>
        <time>2015-10-18T16:17:28Z</time>
      </trkpt>
      <trkpt lat="44.0551" lon="4.76752">
        <ele>43.4</ele>
        <time>2015-10-18T16:17:36Z</time>
      </trkpt>
      <trkpt lat="44.05312" lon="4.76668">
        <ele>50.1</ele>
        <time>2015-10-18T16:17:44Z</time>
      </trkpt>
      <trkpt lat="44.05039" lon="4.7651">
        <ele>59.7</ele>
        <time>2015-10-18T16:17:56Z</time>
      </trkpt>
      <trkpt lat="44.04863" lon="4.7646">
        <ele>62.6</ele>
        <time>2015-10-18T16:18:03Z</time>
      </trkpt>
      <trkpt lat="44.04652" lon="4.76466">
        <ele>65.5</ele>
        <time>2015-10-18T16:18:11Z</time>
      </trkpt>
      <trkpt lat="44.04271" lon="4.76529">
        <ele>64.1</ele>
        <time>2015-10-18T16:18:25Z</time>
      </trkpt>
      <trkpt lat="44.04047" lon="4.76506">
        <ele>63.1</ele>
        <time>2015-10-18T16:18:33Z</time>
      </trkpt>
      <trkpt lat="44.03833" lon="4.76418">
        <ele>61.2</ele>
        <time>2015-10-18T16:18:41Z</time>
      </trkpt>
      <trkpt lat="44.03636" lon="4.76269">
        <ele>58.3</ele>
        <time>2015-10-18T16:18:49Z</time>
      </trkpt>
      <trkpt lat="44.03438" lon="4.76048">
        <ele>51.6</ele>
        <time>2015-10-18T16:18:58Z</time>
      </trkpt>
      <trkpt lat="44.03292" lon="4.75807">
        <ele>47.2</ele>
        <time>2015-10-18T16:19:06Z</time>
      </trkpt>
      <trkpt lat="44.02726" lon="4.74464">
        <ele>49.7</ele>
        <time>2015-10-18T16:19:46Z</time>
      </trkpt>
      <trkpt lat="44.02445" lon="4.73971">
        <ele>59.7</ele>
        <time>2015-10-18T16:20:02Z</time>
      </trkpt>
      <trkpt lat="44.0185" lon="4.73166">
        <ele>87.6</ele>
        <time>2015-10-18T16:20:32Z</time>
      </trkpt>
      <trkpt lat="44.01728" lon="4.72908">
        <ele>91.9</ele>
        <time>2015-10-18T16:20:40Z</time>
      </trkpt>
      <trkpt lat="44.01534" lon="4.72166">
        <ele>91</ele>
        <time>2015-10-18T16:21:00Z</time>
      </trkpt>
      <trkpt lat="44.01412" lon="4.7191">
        <ele>89.5</ele>
        <time>2015-10-18T16:21:08Z</time>
      </trkpt>
      <trkpt lat="44.01149" lon="4.71496">
        <ele>87.1</ele>
        <time>2015-10-18T16:21:22Z</time>
      </trkpt>
      <trkpt lat="44.00457" lon="4.70689">
        <ele>104.9</ele>
        <time>2015-10-18T16:21:57Z</time>
      </trkpt>
      <trkpt lat="44.00384" lon="4.7057">
        <ele>110.2</ele>
        <time>2015-10-18T16:22:04Z</time>
      </trkpt>
      <trkpt lat="44.00355" lon="4.70448">
        <ele>116</ele>
        <time>2015-10-18T16:22:15Z</time>
      </trkpt>
      <trkpt lat="44.00353" lon="4.70443">
        <ele>116.5</ele>
        <time>2015-10-18T16:22:17Z</time>
      </trkpt>
      <trkpt lat="44.00353" lon="4.70441">
        <ele>111.7</ele>
        <time>2015-10-18T16:22:29Z</time>
      </trkpt>
      <trkpt lat="44.00354" lon="4.70441">
        <ele>105.4</ele>
        <time>2015-10-18T16:22:47Z</time>
      </trkpt>
      <trkpt lat="44.00355" lon="4.7045">
        <ele>127</ele>
        <time>2015-10-18T16:45:52Z</time>
      </trkpt>
      <trkpt lat="44.00349" lon="4.70445">
        <ele>119.8</ele>
        <time>2015-10-18T16:46:10Z</time>
      </trkpt>
      <trkpt lat="44.00329" lon="4.70459">
        <ele>119.3</ele>
        <time>2015-10-18T16:46:39Z</time>
      </trkpt>
      <trkpt lat="44.00323" lon="4.70459">
        <ele>118.9</ele>
        <time>2015-10-18T16:46:40Z</time>
      </trkpt>
      <trkpt lat="44.00318" lon="4.70457">
        <ele>118.9</ele>
        <time>2015-10-18T16:46:41Z</time>
      </trkpt>
      <trkpt lat="44.00312" lon="4.70452">
        <ele>118.4</ele>
        <time>2015-10-18T16:46:42Z</time>
      </trkpt>
      <trkpt lat="44.00306" lon="4.70446">
        <ele>118.9</ele>
        <time>2015-10-18T16:46:43Z</time>
      </trkpt>
      <trkpt lat="44.00301" lon="4.70438">
        <ele>118.9</ele>
        <time>2015-10-18T16:46:44Z</time>
      </trkpt>
      <trkpt lat="44.00292" lon="4.70423">
        <ele>118.9</ele>
        <time>2015-10-18T16:46:46Z</time>
      </trkpt>
      <trkpt lat="44.00266" lon="4.70395">
        <ele>119.8</ele>
        <time>2015-10-18T16:46:54Z</time>
      </trkpt>
      <trkpt lat="44.00264" lon="4.7039">
        <ele>119.8</ele>
        <time>2015-10-18T16:46:55Z</time>
      </trkpt>
      <trkpt lat="44.00262" lon="4.70384">
        <ele>119.8</ele>
        <time>2015-10-18T16:46:56Z</time>
      </trkpt>
      <trkpt lat="44.00262" lon="4.70376">
        <ele>119.8</ele>
        <time>2015-10-18T16:46:57Z</time>
      </trkpt>
      <trkpt lat="44.00263" lon="4.70368">
        <ele>119.8</ele>
        <time>2015-10-18T16:46:58Z</time>
      </trkpt>
      <trkpt lat="44.0027" lon="4.70344">
        <ele>119.8</ele>
        <time>2015-10-18T16:47:01Z</time>
      </trkpt>
      <trkpt lat="44.00272" lon="4.70335">
        <ele>119.8</ele>
        <time>2015-10-18T16:47:02Z</time>
      </trkpt>
      <trkpt lat="44.00271" lon="4.70325">
        <ele>119.8</ele>
        <time>2015-10-18T16:47:03Z</time>
      </trkpt>
      <trkpt lat="44.00269" lon="4.70316">
        <ele>119.8</ele>
        <time>2015-10-18T16:47:04Z</time>
      </trkpt>
      <trkpt lat="44.00265" lon="4.70306">
        <ele>120.3</ele>
        <time>2015-10-18T16:47:05Z</time>
      </trkpt>
      <trkpt lat="44.00252" lon="4.70285">
        <ele>120.3</ele>
        <time>2015-10-18T16:47:07Z</time>
      </trkpt>
      <trkpt lat="44.00166" lon="4.7016">
        <ele>123.2</ele>
        <time>2015-10-18T16:47:17Z</time>
      </trkpt>
      <trkpt lat="44.00105" lon="4.70115">
        <ele>125.6</ele>
        <time>2015-10-18T16:47:22Z</time>
      </trkpt>
      <trkpt lat="44.00093" lon="4.70102">
        <ele>126.1</ele>
        <time>2015-10-18T16:47:23Z</time>
      </trkpt>
      <trkpt lat="44.00083" lon="4.70088">
        <ele>126.6</ele>
        <time>2015-10-18T16:47:24Z</time>
      </trkpt>
      <trkpt lat="43.95772" lon="4.62811">
        <ele>144.8</ele>
        <time>2015-10-18T16:51:47Z</time>
      </trkpt>
      <trkpt lat="43.95477" lon="4.62476">
        <ele>151.5</ele>
        <time>2015-10-18T16:52:01Z</time>
      </trkpt>
      <trkpt lat="43.95183" lon="4.62204">
        <ele>158.3</ele>
        <time>2015-10-18T16:52:14Z</time>
      </trkpt>
      <trkpt lat="43.94598" lon="4.61798">
        <ele>140.5</ele>
        <time>2015-10-18T16:52:37Z</time>
      </trkpt>
      <trkpt lat="43.9442" lon="4.61581">
        <ele>129</ele>
        <time>2015-10-18T16:52:45Z</time>
      </trkpt>
      <trkpt lat="43.9341" lon="4.59932">
        <ele>55.4</ele>
        <time>2015-10-18T16:53:41Z</time>
      </trkpt>
      <trkpt lat="43.92837" lon="4.5928">
        <ele>42.4</ele>
        <time>2015-10-18T16:54:07Z</time>
      </trkpt>
      <trkpt lat="43.90973" lon="4.56508">
        <ele>31.4</ele>
        <time>2015-10-18T16:55:43Z</time>
      </trkpt>
      <trkpt lat="43.90732" lon="4.56036">
        <ele>36.2</ele>
        <time>2015-10-18T16:55:58Z</time>
      </trkpt>
      <trkpt lat="43.90558" lon="4.55588">
        <ele>47.7</ele>
        <time>2015-10-18T16:56:11Z</time>
      </trkpt>
      <trkpt lat="43.90437" lon="4.5514">
        <ele>60.2</ele>
        <time>2015-10-18T16:56:23Z</time>
      </trkpt>
      <trkpt lat="43.9005" lon="4.52222">
        <ele>92.4</ele>
        <time>2015-10-18T16:57:41Z</time>
      </trkpt>
      <trkpt lat="43.89939" lon="4.51814">
        <ele>92.9</ele>
        <time>2015-10-18T16:57:52Z</time>
      </trkpt>
      <trkpt lat="43.89801" lon="4.51469">
        <ele>91.9</ele>
        <time>2015-10-18T16:58:02Z</time>
      </trkpt>
      <trkpt lat="43.88789" lon="4.49847">
        <ele>86.7</ele>
        <time>2015-10-18T16:58:54Z</time>
      </trkpt>
      <trkpt lat="43.88381" lon="4.48826">
        <ele>83.8</ele>
        <time>2015-10-18T16:59:22Z</time>
      </trkpt>
      <trkpt lat="43.8796" lon="4.46173">
        <ele>70.8</ele>
        <time>2015-10-18T17:00:27Z</time>
      </trkpt>
      <trkpt lat="43.8784" lon="4.458">
        <ele>68.9</ele>
        <time>2015-10-18T17:00:37Z</time>
      </trkpt>
      <trkpt lat="43.87063" lon="4.44043">
        <ele>67</ele>
        <time>2015-10-18T17:01:28Z</time>
      </trkpt>
      <trkpt lat="43.86837" lon="4.43721">
        <ele>62.1</ele>
        <time>2015-10-18T17:01:39Z</time>
      </trkpt>
      <trkpt lat="43.86559" lon="4.43427">
        <ele>59.3</ele>
        <time>2015-10-18T17:01:51Z</time>
      </trkpt>
      <trkpt lat="43.84711" lon="4.41782">
        <ele>58.8</ele>
        <time>2015-10-18T17:03:06Z</time>
      </trkpt>
      <trkpt lat="43.84035" lon="4.41375">
        <ele>52.5</ele>
        <time>2015-10-18T17:03:31Z</time>
      </trkpt>
      <trkpt lat="43.83798" lon="4.41132">
        <ele>47.2</ele>
        <time>2015-10-18T17:03:41Z</time>
      </trkpt>
      <trkpt lat="43.83612" lon="4.40853">
        <ele>46.8</ele>
        <time>2015-10-18T17:03:50Z</time>
      </trkpt>
      <trkpt lat="43.81899" lon="4.37348">
        <ele>35.7</ele>
        <time>2015-10-18T17:05:30Z</time>
      </trkpt>
      <trkpt lat="43.81553" lon="4.36444">
        <ele>35.7</ele>
        <time>2015-10-18T17:05:58Z</time>
      </trkpt>
      <trkpt lat="43.80175" lon="4.31413">
        <ele>47.7</ele>
        <time>2015-10-18T17:08:20Z</time>
      </trkpt>
      <trkpt lat="43.80063" lon="4.31147">
        <ele>42.9</ele>
        <time>2015-10-18T17:08:28Z</time>
      </trkpt>
      <trkpt lat="43.7989" lon="4.30886">
        <ele>38.1</ele>
        <time>2015-10-18T17:08:37Z</time>
      </trkpt>
      <trkpt lat="43.78683" lon="4.29753">
        <ele>44.8</ele>
        <time>2015-10-18T17:09:27Z</time>
      </trkpt>
      <trkpt lat="43.78176" lon="4.29042">
        <ele>39.1</ele>
        <time>2015-10-18T17:09:51Z</time>
      </trkpt>
      <trkpt lat="43.77545" lon="4.28432">
        <ele>36.2</ele>
        <time>2015-10-18T17:10:16Z</time>
      </trkpt>
      <trkpt lat="43.77324" lon="4.28146">
        <ele>35.2</ele>
        <time>2015-10-18T17:10:26Z</time>
      </trkpt>
      <trkpt lat="43.76815" lon="4.27063">
        <ele>40.5</ele>
        <time>2015-10-18T17:10:58Z</time>
      </trkpt>
      <trkpt lat="43.76646" lon="4.26829">
        <ele>44.8</ele>
        <time>2015-10-18T17:11:06Z</time>
      </trkpt>
      <trkpt lat="43.76437" lon="4.26645">
        <ele>47.2</ele>
        <time>2015-10-18T17:11:14Z</time>
      </trkpt>
      <trkpt lat="43.76126" lon="4.26443">
        <ele>46.8</ele>
        <time>2015-10-18T17:11:25Z</time>
      </trkpt>
      <trkpt lat="43.75248" lon="4.25645">
        <ele>33.8</ele>
        <time>2015-10-18T17:12:02Z</time>
      </trkpt>
      <trkpt lat="43.75074" lon="4.25399">
        <ele>35.2</ele>
        <time>2015-10-18T17:12:11Z</time>
      </trkpt>
      <trkpt lat="43.74952" lon="4.25132">
        <ele>35.2</ele>
        <time>2015-10-18T17:12:19Z</time>
      </trkpt>
      <trkpt lat="43.7487" lon="4.24828">
        <ele>34.7</ele>
        <time>2015-10-18T17:12:27Z</time>
      </trkpt>
      <trkpt lat="43.74834" lon="4.24511">
        <ele>35.7</ele>
        <time>2015-10-18T17:12:35Z</time>
      </trkpt>
      <trkpt lat="43.75116" lon="4.21804">
        <ele>49.2</ele>
        <time>2015-10-18T17:13:46Z</time>
      </trkpt>
      <trkpt lat="43.75077" lon="4.21406">
        <ele>43.4</ele>
        <time>2015-10-18T17:13:56Z</time>
      </trkpt>
      <trkpt lat="43.74989" lon="4.2101">
        <ele>36.2</ele>
        <time>2015-10-18T17:14:06Z</time>
      </trkpt>
      <trkpt lat="43.74853" lon="4.20638">
        <ele>34.7</ele>
        <time>2015-10-18T17:14:16Z</time>
      </trkpt>
      <trkpt lat="43.74662" lon="4.20266">
        <ele>38.1</ele>
        <time>2015-10-18T17:14:27Z</time>
      </trkpt>
      <trkpt lat="43.74454" lon="4.19983">
        <ele>47.2</ele>
        <time>2015-10-18T17:14:37Z</time>
      </trkpt>
      <trkpt lat="43.74219" lon="4.19751">
        <ele>54</ele>
        <time>2015-10-18T17:14:47Z</time>
      </trkpt>
      <trkpt lat="43.73962" lon="4.19567">
        <ele>54.9</ele>
        <time>2015-10-18T17:14:57Z</time>
      </trkpt>
      <trkpt lat="43.73381" lon="4.19302">
        <ele>46.8</ele>
        <time>2015-10-18T17:15:20Z</time>
      </trkpt>
      <trkpt lat="43.73164" lon="4.19133">
        <ele>40.5</ele>
        <time>2015-10-18T17:15:29Z</time>
      </trkpt>
      <trkpt lat="43.73008" lon="4.18953">
        <ele>33.8</ele>
        <time>2015-10-18T17:15:37Z</time>
      </trkpt>
      <trkpt lat="43.72905" lon="4.18783">
        <ele>29.9</ele>
        <time>2015-10-18T17:15:45Z</time>
      </trkpt>
      <trkpt lat="43.72761" lon="4.1834">
        <ele>31.9</ele>
        <time>2015-10-18T17:16:09Z</time>
      </trkpt>
      <trkpt lat="43.72748" lon="4.18318">
        <ele>32.3</ele>
        <time>2015-10-18T17:16:12Z</time>
      </trkpt>
      <trkpt lat="43.72745" lon="4.18311">
        <ele>32.8</ele>
        <time>2015-10-18T17:16:13Z</time>
      </trkpt>
      <trkpt lat="43.72743" lon="4.18303">
        <ele>32.8</ele>
        <time>2015-10-18T17:16:15Z</time>
      </trkpt>
      <trkpt lat="43.72743" lon="4.18303">
        <ele>35.2</ele>
        <time>2015-10-18T17:16:29Z</time>
      </trkpt>
      <trkpt lat="43.72741" lon="4.18294">
        <ele>35.7</ele>
        <time>2015-10-18T17:16:40Z</time>
      </trkpt>
      <trkpt lat="43.7274" lon="4.18285">
        <ele>36.2</ele>
        <time>2015-10-18T17:17:37Z</time>
      </trkpt>
      <trkpt lat="43.72738" lon="4.18278">
        <ele>36.2</ele>
        <time>2015-10-18T17:17:50Z</time>
      </trkpt>
      <trkpt lat="43.72733" lon="4.18273">
        <ele>42.9</ele>
        <time>2015-10-18T17:18:22Z</time>
      </trkpt>
      <trkpt lat="43.72723" lon="4.18282">
        <ele>60.7</ele>
        <time>2015-10-18T17:18:38Z</time>
      </trkpt>
      <trkpt lat="43.72722" lon="4.18279">
        <ele>60.2</ele>
        <time>2015-10-18T17:18:40Z</time>
      </trkpt>
      <trkpt lat="43.72731" lon="4.18277">
        <ele>48.2</ele>
        <time>2015-10-18T17:19:01Z</time>
      </trkpt>
      <trkpt lat="43.72731" lon="4.18271">
        <ele>36.2</ele>
        <time>2015-10-18T17:19:15Z</time>
      </trkpt>
      <trkpt lat="43.72721" lon="4.18261">
        <ele>59.7</ele>
        <time>2015-10-18T17:21:13Z</time>
      </trkpt>
      <trkpt lat="43.7272" lon="4.18256">
        <ele>63.6</ele>
        <time>2015-10-18T17:21:28Z</time>
      </trkpt>
      <trkpt lat="43.7272" lon="4.18254">
        <ele>61.2</ele>
        <time>2015-10-18T17:21:29Z</time>
      </trkpt>
      <trkpt lat="43.7272" lon="4.18245">
        <ele>57.3</ele>
        <time>2015-10-18T17:21:31Z</time>
      </trkpt>
      <trkpt lat="43.72719" lon="4.18241">
        <ele>55.4</ele>
        <time>2015-10-18T17:21:32Z</time>
      </trkpt>
      <trkpt lat="43.72717" lon="4.18238">
        <ele>54</ele>
        <time>2015-10-18T17:21:33Z</time>
      </trkpt>
      <trkpt lat="43.7272" lon="4.18233">
        <ele>44.8</ele>
        <time>2015-10-18T17:21:43Z</time>
      </trkpt>
      <trkpt lat="43.72722" lon="4.18234">
        <ele>37.2</ele>
        <time>2015-10-18T17:22:59Z</time>
      </trkpt>
      <trkpt lat="43.7261" lon="4.17881">
        <ele>42.4</ele>
        <time>2015-10-18T17:24:23Z</time>
      </trkpt>
      <trkpt lat="43.7249" lon="4.1714">
        <ele>47.7</ele>
        <time>2015-10-18T17:24:46Z</time>
      </trkpt>
      <trkpt lat="43.72412" lon="4.15521">
        <ele>26.1</ele>
        <time>2015-10-18T17:25:29Z</time>
      </trkpt>
      <trkpt lat="43.72334" lon="4.15107">
        <ele>26.6</ele>
        <time>2015-10-18T17:25:40Z</time>
      </trkpt>
      <trkpt lat="43.72216" lon="4.14728">
        <ele>26.6</ele>
        <time>2015-10-18T17:25:51Z</time>
      </trkpt>
      <trkpt lat="43.72058" lon="4.14377">
        <ele>26.1</ele>
        <time>2015-10-18T17:26:02Z</time>
      </trkpt>
      <trkpt lat="43.70746" lon="4.12244">
        <ele>44.8</ele>
        <time>2015-10-18T17:27:14Z</time>
      </trkpt>
      <trkpt lat="43.70158" lon="4.11457">
        <ele>39.6</ele>
        <time>2015-10-18T17:27:43Z</time>
      </trkpt>
      <trkpt lat="43.69973" lon="4.11135">
        <ele>38.6</ele>
        <time>2015-10-18T17:27:53Z</time>
      </trkpt>
      <trkpt lat="43.69832" lon="4.10776">
        <ele>38.1</ele>
        <time>2015-10-18T17:28:03Z</time>
      </trkpt>
      <trkpt lat="43.69738" lon="4.10392">
        <ele>37.2</ele>
        <time>2015-10-18T17:28:13Z</time>
      </trkpt>
      <trkpt lat="43.69622" lon="4.08963">
        <ele>32.3</ele>
        <time>2015-10-18T17:28:48Z</time>
      </trkpt>
      <trkpt lat="43.6877" lon="4.05587">
        <ele>40</ele>
        <time>2015-10-18T17:30:15Z</time>
      </trkpt>
      <trkpt lat="43.67224" lon="4.01574">
        <ele>37.6</ele>
        <time>2015-10-18T17:32:18Z</time>
      </trkpt>
      <trkpt lat="43.67024" lon="4.01196">
        <ele>37.6</ele>
        <time>2015-10-18T17:32:33Z</time>
      </trkpt>
      <trkpt lat="43.66825" lon="4.00903">
        <ele>38.1</ele>
        <time>2015-10-18T17:32:46Z</time>
      </trkpt>
      <trkpt lat="43.65685" lon="3.99643">
        <ele>39.6</ele>
        <time>2015-10-18T17:33:54Z</time>
      </trkpt>
      <trkpt lat="43.64514" lon="3.97717">
        <ele>34.7</ele>
        <time>2015-10-18T17:35:12Z</time>
      </trkpt>
      <trkpt lat="43.64291" lon="3.97465">
        <ele>37.6</ele>
        <time>2015-10-18T17:35:24Z</time>
      </trkpt>
      <trkpt lat="43.6403" lon="3.97257">
        <ele>41.5</ele>
        <time>2015-10-18T17:35:36Z</time>
      </trkpt>
      <trkpt lat="43.63148" lon="3.96816">
        <ele>33.8</ele>
        <time>2015-10-18T17:36:13Z</time>
      </trkpt>
      <trkpt lat="43.62649" lon="3.96327">
        <ele>27.1</ele>
        <time>2015-10-18T17:36:37Z</time>
      </trkpt>
      <trkpt lat="43.60675" lon="3.93361">
        <ele>45.8</ele>
        <time>2015-10-18T17:38:28Z</time>
      </trkpt>
      <trkpt lat="43.58961" lon="3.89698">
        <ele>17.4</ele>
        <time>2015-10-18T17:40:39Z</time>
      </trkpt>
      <trkpt lat="43.57464" lon="3.87602">
        <ele>17</ele>
        <time>2015-10-18T17:42:08Z</time>
      </trkpt>
      <trkpt lat="43.57439" lon="3.87537">
        <ele>17.9</ele>
        <time>2015-10-18T17:42:12Z</time>
      </trkpt>
      <trkpt lat="43.5744" lon="3.87517">
        <ele>18.4</ele>
        <time>2015-10-18T17:42:13Z</time>
      </trkpt>
      <trkpt lat="43.57453" lon="3.87481">
        <ele>18.9</ele>
        <time>2015-10-18T17:42:15Z</time>
      </trkpt>
      <trkpt lat="43.57463" lon="3.87467">
        <ele>19.8</ele>
        <time>2015-10-18T17:42:16Z</time>
      </trkpt>
      <trkpt lat="43.57474" lon="3.87458">
        <ele>20.8</ele>
        <time>2015-10-18T17:42:17Z</time>
      </trkpt>
      <trkpt lat="43.57614" lon="3.87406">
        <ele>19.4</ele>
        <time>2015-10-18T17:42:30Z</time>
      </trkpt>
      <trkpt lat="43.5762" lon="3.87407">
        <ele>19.4</ele>
        <time>2015-10-18T17:42:31Z</time>
      </trkpt>
      <trkpt lat="43.57627" lon="3.8741">
        <ele>19.8</ele>
        <time>2015-10-18T17:42:32Z</time>
      </trkpt>
      <trkpt lat="43.57645" lon="3.87421">
        <ele>20.8</ele>
        <time>2015-10-18T17:42:34Z</time>
      </trkpt>
      <trkpt lat="43.57656" lon="3.87424">
        <ele>20.8</ele>
        <time>2015-10-18T17:42:35Z</time>
      </trkpt>
      <trkpt lat="43.57667" lon="3.87425">
        <ele>20.8</ele>
        <time>2015-10-18T17:42:36Z</time>
      </trkpt>
      <trkpt lat="43.57678" lon="3.87421">
        <ele>20.8</ele>
        <time>2015-10-18T17:42:37Z</time>
      </trkpt>
      <trkpt lat="43.57688" lon="3.87413">
        <ele>21.3</ele>
        <time>2015-10-18T17:42:38Z</time>
      </trkpt>
      <trkpt lat="43.57707" lon="3.87371">
        <ele>22.3</ele>
        <time>2015-10-18T17:42:41Z</time>
      </trkpt>
      <trkpt lat="43.57912" lon="3.87045">
        <ele>27.1</ele>
        <time>2015-10-18T17:43:01Z</time>
      </trkpt>
      <trkpt lat="43.58342" lon="3.86168">
        <ele>37.2</ele>
        <time>2015-10-18T17:44:01Z</time>
      </trkpt>
      <trkpt lat="43.5848" lon="3.86051">
        <ele>44.4</ele>
        <time>2015-10-18T17:44:18Z</time>
      </trkpt>
      <trkpt lat="43.58483" lon="3.86049">
        <ele>44.8</ele>
        <time>2015-10-18T17:44:33Z</time>
      </trkpt>
      <trkpt lat="43.58675" lon="3.85886">
        <ele>50.6</ele>
        <time>2015-10-18T17:44:58Z</time>
      </trkpt>
      <trkpt lat="43.58782" lon="3.85826">
        <ele>50.1</ele>
        <time>2015-10-18T17:45:06Z</time>
      </trkpt>
      <trkpt lat="43.58797" lon="3.85814">
        <ele>50.1</ele>
        <time>2015-10-18T17:45:07Z</time>
      </trkpt>
      <trkpt lat="43.5881" lon="3.858">
        <ele>50.1</ele>
        <time>2015-10-18T17:45:08Z</time>
      </trkpt>
      <trkpt lat="43.58919" lon="3.85713">
        <ele>51.6</ele>
        <time>2015-10-18T17:45:16Z</time>
      </trkpt>
      <trkpt lat="43.58961" lon="3.85694">
        <ele>53</ele>
        <time>2015-10-18T17:45:20Z</time>
      </trkpt>
      <trkpt lat="43.5897" lon="3.85693">
        <ele>53.5</ele>
        <time>2015-10-18T17:45:21Z</time>
      </trkpt>
      <trkpt lat="43.58998" lon="3.85714">
        <ele>53.5</ele>
        <time>2015-10-18T17:45:24Z</time>
      </trkpt>
      <trkpt lat="43.59009" lon="3.85717">
        <ele>54</ele>
        <time>2015-10-18T17:45:25Z</time>
      </trkpt>
      <trkpt lat="43.59021" lon="3.85718">
        <ele>54</ele>
        <time>2015-10-18T17:45:26Z</time>
      </trkpt>
      <trkpt lat="43.59031" lon="3.85715">
        <ele>54.5</ele>
        <time>2015-10-18T17:45:27Z</time>
      </trkpt>
      <trkpt lat="43.59042" lon="3.85709">
        <ele>54.5</ele>
        <time>2015-10-18T17:45:28Z</time>
      </trkpt>
      <trkpt lat="43.59052" lon="3.85701">
        <ele>54.9</ele>
        <time>2015-10-18T17:45:29Z</time>
      </trkpt>
      <trkpt lat="43.59058" lon="3.85689">
        <ele>54.9</ele>
        <time>2015-10-18T17:45:30Z</time>
      </trkpt>
      <trkpt lat="43.59066" lon="3.85662">
        <ele>55.4</ele>
        <time>2015-10-18T17:45:32Z</time>
      </trkpt>
      <trkpt lat="43.59067" lon="3.85647">
        <ele>55.9</ele>
        <time>2015-10-18T17:45:33Z</time>
      </trkpt>
      <trkpt lat="43.59066" lon="3.85633">
        <ele>55.4</ele>
        <time>2015-10-18T17:45:34Z</time>
      </trkpt>
      <trkpt lat="43.59063" lon="3.85619">
        <ele>55.4</ele>
        <time>2015-10-18T17:45:35Z</time>
      </trkpt>
      <trkpt lat="43.5905" lon="3.85585">
        <ele>54.5</ele>
        <time>2015-10-18T17:45:38Z</time>
      </trkpt>
      <trkpt lat="43.59047" lon="3.85573">
        <ele>54.5</ele>
        <time>2015-10-18T17:45:39Z</time>
      </trkpt>
      <trkpt lat="43.59047" lon="3.85562">
        <ele>54.5</ele>
        <time>2015-10-18T17:45:40Z</time>
      </trkpt>
      <trkpt lat="43.59048" lon="3.8555">
        <ele>54.5</ele>
        <time>2015-10-18T17:45:41Z</time>
      </trkpt>
      <trkpt lat="43.59051" lon="3.85537">
        <ele>54.5</ele>
        <time>2015-10-18T17:45:42Z</time>
      </trkpt>
      <trkpt lat="43.59057" lon="3.85524">
        <ele>54.9</ele>
        <time>2015-10-18T17:45:43Z</time>
      </trkpt>
      <trkpt lat="43.59064" lon="3.8551">
        <ele>55.4</ele>
        <time>2015-10-18T17:45:44Z</time>
      </trkpt>
      <trkpt lat="43.59433" lon="3.85036">
        <ele>63.1</ele>
        <time>2015-10-18T17:46:44Z</time>
      </trkpt>
      <trkpt lat="43.5981" lon="3.84243">
        <ele>49.7</ele>
        <time>2015-10-18T17:47:46Z</time>
      </trkpt>
      <trkpt lat="43.6001" lon="3.84052">
        <ele>51.1</ele>
        <time>2015-10-18T17:48:00Z</time>
      </trkpt>
      <trkpt lat="43.60146" lon="3.83964">
        <ele>53.5</ele>
        <time>2015-10-18T17:48:08Z</time>
      </trkpt>
      <trkpt lat="43.60508" lon="3.83875">
        <ele>59.3</ele>
        <time>2015-10-18T17:48:30Z</time>
      </trkpt>
      <trkpt lat="43.60708" lon="3.83798">
        <ele>65</ele>
        <time>2015-10-18T17:48:43Z</time>
      </trkpt>
      <trkpt lat="43.60853" lon="3.83819">
        <ele>68.9</ele>
        <time>2015-10-18T17:48:51Z</time>
      </trkpt>
      <trkpt lat="43.61093" lon="3.83895">
        <ele>71.3</ele>
        <time>2015-10-18T17:49:04Z</time>
      </trkpt>
      <trkpt lat="43.61234" lon="3.83891">
        <ele>69.8</ele>
        <time>2015-10-18T17:49:13Z</time>
      </trkpt>
      <trkpt lat="43.61398" lon="3.83922">
        <ele>69.8</ele>
        <time>2015-10-18T17:49:24Z</time>
      </trkpt>
      <trkpt lat="43.61533" lon="3.83995">
        <ele>80.9</ele>
        <time>2015-10-18T17:49:34Z</time>
      </trkpt>
      <trkpt lat="43.6157" lon="3.84023">
        <ele>83.3</ele>
        <time>2015-10-18T17:49:37Z</time>
      </trkpt>
      <trkpt lat="43.61588" lon="3.84044">
        <ele>84.7</ele>
        <time>2015-10-18T17:49:39Z</time>
      </trkpt>
      <trkpt lat="43.616" lon="3.84063">
        <ele>86.2</ele>
        <time>2015-10-18T17:49:41Z</time>
      </trkpt>
      <trkpt lat="43.61612" lon="3.84084">
        <ele>87.6</ele>
        <time>2015-10-18T17:49:47Z</time>
      </trkpt>
      <trkpt lat="43.61623" lon="3.841">
        <ele>87.1</ele>
        <time>2015-10-18T17:50:46Z</time>
      </trkpt>
      <trkpt lat="43.61629" lon="3.84098">
        <ele>87.1</ele>
        <time>2015-10-18T17:50:47Z</time>
      </trkpt>
      <trkpt lat="43.6197" lon="3.83803">
        <ele>86.7</ele>
        <time>2015-10-18T17:51:34Z</time>
      </trkpt>
      <trkpt lat="43.61977" lon="3.83801">
        <ele>86.7</ele>
        <time>2015-10-18T17:51:35Z</time>
      </trkpt>
      <trkpt lat="43.61984" lon="3.83802">
        <ele>86.7</ele>
        <time>2015-10-18T17:51:36Z</time>
      </trkpt>
      <trkpt lat="43.6199" lon="3.83807">
        <ele>87.1</ele>
        <time>2015-10-18T17:51:37Z</time>
      </trkpt>
      <trkpt lat="43.62076" lon="3.83908">
        <ele>87.6</ele>
        <time>2015-10-18T17:51:47Z</time>
      </trkpt>
      <trkpt lat="43.6209" lon="3.8393">
        <ele>84.7</ele>
        <time>2015-10-18T17:51:49Z</time>
      </trkpt>
      <trkpt lat="43.62102" lon="3.83957">
        <ele>81.9</ele>
        <time>2015-10-18T17:51:52Z</time>
      </trkpt>
      <trkpt lat="43.62112" lon="3.84029">
        <ele>75.1</ele>
        <time>2015-10-18T17:52:00Z</time>
      </trkpt>
      <trkpt lat="43.62111" lon="3.84035">
        <ele>74.2</ele>
        <time>2015-10-18T17:52:01Z</time>
      </trkpt>
      <trkpt lat="43.62108" lon="3.84042">
        <ele>73.7</ele>
        <time>2015-10-18T17:52:02Z</time>
      </trkpt>
      <trkpt lat="43.62103" lon="3.84046">
        <ele>73.2</ele>
        <time>2015-10-18T17:52:03Z</time>
      </trkpt>
      <trkpt lat="43.62094" lon="3.8405">
        <ele>72.2</ele>
        <time>2015-10-18T17:52:05Z</time>
      </trkpt>
      <trkpt lat="43.62087" lon="3.8405">
        <ele>71.8</ele>
        <time>2015-10-18T17:52:07Z</time>
      </trkpt>
      <trkpt lat="43.62084" lon="3.84039">
        <ele>72.7</ele>
        <time>2015-10-18T17:52:13Z</time>
      </trkpt>
      <trkpt lat="43.62089" lon="3.84032">
        <ele>75.6</ele>
        <time>2015-10-18T17:54:10Z</time>
      </trkpt>
      <trkpt lat="43.62085" lon="3.84015">
        <ele>75.1</ele>
        <time>2015-10-18T17:54:16Z</time>
      </trkpt>
    </trkseg>
  </trk>
</gpx>